<?xml version='1.0' encoding='UTF-8'?><gpx version="1.1" creator="JPX - https://github.com/jenetics/jpx" xmlns="http://www.topografix.com/GPX/1/1"><trk><trkseg><trkpt lat="42.6689705" lon="11.7633728"><ele>475.00000000000006</ele><time>2026-04-18T08:00:34.641Z</time></trkpt><trkpt lat="42.6690617" lon="11.76347"><ele>475.0</ele><time>2026-04-18T08:00:36.768Z</time></trkpt><trkpt lat="42.669045" lon="11.7633733"><ele>475.0</ele><time>2026-04-18T08:00:52.768Z</time></trkpt><trkpt lat="42.6689983" lon="11.7633117"><ele>475.0</ele><time>2026-04-18T08:00:58.768Z</time></trkpt><trkpt lat="42.6689567" lon="11.7632333"><ele>475.00000000000006</ele><time>2026-04-18T08:01:04.768Z</time></trkpt><trkpt lat="42.668975" lon="11.7631383"><ele>475.0</ele><time>2026-04-18T08:01:07.768Z</time></trkpt><trkpt lat="42.6689183" lon="11.763095"><ele>475.0</ele><time>2026-04-18T08:01:14.767Z</time></trkpt><trkpt lat="42.6688433" lon="11.7630633"><ele>475.0</ele><time>2026-04-18T08:01:19.767Z</time></trkpt><trkpt lat="42.6689117" lon="11.7630283"><ele>475.0</ele><time>2026-04-18T08:01:37.768Z</time></trkpt><trkpt lat="42.668975" lon="11.7630483"><ele>475.0</ele><time>2026-04-18T08:01:39.768Z</time></trkpt><trkpt lat="42.6689703" lon="11.763373"><ele>475.0</ele><time>2026-04-18T08:01:58.682Z</time></trkpt><trkpt lat="42.669155" lon="11.76337"><ele>475.0</ele><time>2026-04-18T08:05:08.767Z</time></trkpt><trkpt lat="42.6690833" lon="11.7634017"><ele>475.0</ele><time>2026-04-18T08:05:16.767Z</time></trkpt><trkpt lat="42.6690183" lon="11.76337"><ele>475.0</ele><time>2026-04-18T08:05:25.767Z</time></trkpt><trkpt lat="42.6689733" lon="11.76331"><ele>475.0</ele><time>2026-04-18T08:05:32.767Z</time></trkpt><trkpt lat="42.6689083" lon="11.7632517"><ele>475.00000000000006</ele><time>2026-04-18T08:05:44.767Z</time></trkpt><trkpt lat="42.668825" lon="11.763255"><ele>475.0</ele><time>2026-04-18T08:05:45.767Z</time></trkpt><trkpt lat="42.66876" lon="11.7632583"><ele>475.0</ele><time>2026-04-18T08:05:46.767Z</time></trkpt><trkpt lat="42.668655" lon="11.76324"><ele>475.0</ele><time>2026-04-18T08:05:48.767Z</time></trkpt><trkpt lat="42.6686083" lon="11.763325"><ele>475.00000000000006</ele><time>2026-04-18T08:05:52.767Z</time></trkpt><trkpt lat="42.6686033" lon="11.763415"><ele>475.0</ele><time>2026-04-18T08:05:56.767Z</time></trkpt><trkpt lat="42.6686333" lon="11.7634933"><ele>476.00000000000006</ele><time>2026-04-18T08:06:12.767Z</time></trkpt><trkpt lat="42.6686733" lon="11.7636017"><ele>477.0</ele><time>2026-04-18T08:06:17.767Z</time></trkpt><trkpt lat="42.6687267" lon="11.7636633"><ele>478.0</ele><time>2026-04-18T08:06:19.767Z</time></trkpt><trkpt lat="42.6687967" lon="11.7637333"><ele>479.0</ele><time>2026-04-18T08:06:22.767Z</time></trkpt><trkpt lat="42.6688633" lon="11.7636783"><ele>480.00000000000006</ele><time>2026-04-18T08:06:25.767Z</time></trkpt><trkpt lat="42.668925" lon="11.7636083"><ele>481.0</ele><time>2026-04-18T08:06:27.767Z</time></trkpt><trkpt lat="42.6689817" lon="11.7635567"><ele>480.1428571428571</ele><time>2026-04-18T08:06:29.767Z</time></trkpt><trkpt lat="42.6690383" lon="11.7634583"><ele>479.2857142857143</ele><time>2026-04-18T08:06:33.767Z</time></trkpt><trkpt lat="42.6689767" lon="11.763485"><ele>478.42857142857144</ele><time>2026-04-18T08:07:12.767Z</time></trkpt><trkpt lat="42.6689083" lon="11.7634717"><ele>477.57142857142856</ele><time>2026-04-18T08:07:33.768Z</time></trkpt><trkpt lat="42.66884" lon="11.763435"><ele>476.7142857142858</ele><time>2026-04-18T08:07:51.768Z</time></trkpt><trkpt lat="42.6687667" lon="11.7634067"><ele>475.8571428571429</ele><time>2026-04-18T08:07:58.768Z</time></trkpt><trkpt lat="42.6687067" lon="11.7633783"><ele>475.0</ele><time>2026-04-18T08:08:03.768Z</time></trkpt><trkpt lat="42.6689677" lon="11.7633663"><ele>475.0</ele><time>2026-04-18T08:11:59.281Z</time></trkpt><trkpt lat="42.6689283" lon="11.763435"><ele>475.00000000000006</ele><time>2026-04-18T08:12:27.768Z</time></trkpt><trkpt lat="42.668895" lon="11.76353"><ele>475.0</ele><time>2026-04-18T08:12:28.768Z</time></trkpt><trkpt lat="42.6689683" lon="11.76351"><ele>475.0</ele><time>2026-04-18T08:12:30.768Z</time></trkpt><trkpt lat="42.6690067" lon="11.7634417"><ele>475.00000000000006</ele><time>2026-04-18T08:12:34.768Z</time></trkpt><trkpt lat="42.6690733" lon="11.76347"><ele>475.0</ele><time>2026-04-18T08:12:38.767Z</time></trkpt><trkpt lat="42.6690933" lon="11.76356"><ele>475.0</ele><time>2026-04-18T08:12:45.767Z</time></trkpt><trkpt lat="42.6691544" lon="11.7635915"><ele>475.0</ele><time>2026-04-18T08:15:18.766Z</time></trkpt><trkpt lat="42.6690933" lon="11.763615"><ele>475.00000000000006</ele><time>2026-04-18T08:17:07.766Z</time></trkpt><trkpt lat="42.6690467" lon="11.76355"><ele>475.0</ele><time>2026-04-18T08:17:17.766Z</time></trkpt><trkpt lat="42.66906" lon="11.7634467"><ele>475.0</ele><time>2026-04-18T08:17:19.766Z</time></trkpt><trkpt lat="42.6690683" lon="11.76335"><ele>475.00000000000006</ele><time>2026-04-18T08:17:21.766Z</time></trkpt><trkpt lat="42.669075" lon="11.7632467"><ele>475.0</ele><time>2026-04-18T08:17:23.766Z</time></trkpt><trkpt lat="42.6690883" lon="11.7631283"><ele>475.0</ele><time>2026-04-18T08:17:25.766Z</time></trkpt><trkpt lat="42.6690983" lon="11.7630183"><ele>475.00000000000006</ele><time>2026-04-18T08:17:27.766Z</time></trkpt><trkpt lat="42.669105" lon="11.76292"><ele>475.0</ele><time>2026-04-18T08:17:29.766Z</time></trkpt><trkpt lat="42.6691067" lon="11.762805"><ele>475.0</ele><time>2026-04-18T08:17:32.766Z</time></trkpt><trkpt lat="42.669055" lon="11.76272"><ele>475.0</ele><time>2026-04-18T08:17:34.766Z</time></trkpt><trkpt lat="42.668975" lon="11.762645"><ele>475.00000000000006</ele><time>2026-04-18T08:17:36.766Z</time></trkpt><trkpt lat="42.6689167" lon="11.7625917"><ele>475.0</ele><time>2026-04-18T08:17:38.766Z</time></trkpt><trkpt lat="42.6688083" lon="11.7626167"><ele>475.6666666666667</ele><time>2026-04-18T08:18:00.765Z</time></trkpt><trkpt lat="42.6687283" lon="11.7626183"><ele>476.33333333333337</ele><time>2026-04-18T08:18:02.766Z</time></trkpt><trkpt lat="42.66865" lon="11.7626067"><ele>477.0</ele><time>2026-04-18T08:18:04.766Z</time></trkpt><trkpt lat="42.6686383" lon="11.7625083"><ele>477.66666666666663</ele><time>2026-04-18T08:18:12.766Z</time></trkpt><trkpt lat="42.6685833" lon="11.762425"><ele>478.3333333333333</ele><time>2026-04-18T08:18:14.766Z</time></trkpt><trkpt lat="42.6685317" lon="11.7623667"><ele>479.0</ele><time>2026-04-18T08:18:16.766Z</time></trkpt><trkpt lat="42.668635" lon="11.7623883"><ele>479.0</ele><time>2026-04-18T08:18:29.766Z</time></trkpt><trkpt lat="42.66871" lon="11.7623967"><ele>479.0</ele><time>2026-04-18T08:18:30.766Z</time></trkpt><trkpt lat="42.668785" lon="11.7624"><ele>479.0</ele><time>2026-04-18T08:18:31.765Z</time></trkpt><trkpt lat="42.6688567" lon="11.762405"><ele>479.0</ele><time>2026-04-18T08:18:32.766Z</time></trkpt><trkpt lat="42.6689417" lon="11.7623967"><ele>479.0</ele><time>2026-04-18T08:18:34.766Z</time></trkpt><trkpt lat="42.668995" lon="11.7623433"><ele>479.0</ele><time>2026-04-18T08:18:44.766Z</time></trkpt><trkpt lat="42.6689733" lon="11.76225"><ele>479.0</ele><time>2026-04-18T08:18:59.766Z</time></trkpt><trkpt lat="42.66888" lon="11.7621983"><ele>478.99999999999994</ele><time>2026-04-18T08:19:01.766Z</time></trkpt><trkpt lat="42.6688233" lon="11.76216"><ele>479.0</ele><time>2026-04-18T08:19:02.766Z</time></trkpt><trkpt lat="42.6687183" lon="11.7621233"><ele>479.0</ele><time>2026-04-18T08:19:04.766Z</time></trkpt><trkpt lat="42.6686367" lon="11.7620983"><ele>479.0</ele><time>2026-04-18T08:19:06.766Z</time></trkpt><trkpt lat="42.6685483" lon="11.7620583"><ele>478.99999999999994</ele><time>2026-04-18T08:19:08.766Z</time></trkpt><trkpt lat="42.6684783" lon="11.7619733"><ele>479.0</ele><time>2026-04-18T08:19:10.766Z</time></trkpt><trkpt lat="42.6684" lon="11.76186"><ele>481.49999999999994</ele><time>2026-04-18T08:19:12.766Z</time></trkpt><trkpt lat="42.6683517" lon="11.7617983"><ele>484.0</ele><time>2026-04-18T08:19:13.766Z</time></trkpt><trkpt lat="42.6682933" lon="11.7617383"><ele>486.5</ele><time>2026-04-18T08:19:14.766Z</time></trkpt><trkpt lat="42.66822" lon="11.76168"><ele>489.0</ele><time>2026-04-18T08:19:15.766Z</time></trkpt><trkpt lat="42.668145" lon="11.7616367"><ele>491.49999999999994</ele><time>2026-04-18T08:19:16.766Z</time></trkpt><trkpt lat="42.6680683" lon="11.7615933"><ele>494.0</ele><time>2026-04-18T08:19:17.766Z</time></trkpt><trkpt lat="42.6680067" lon="11.7615517"><ele>494.0</ele><time>2026-04-18T08:19:18.766Z</time></trkpt><trkpt lat="42.667945" lon="11.761515"><ele>494.0</ele><time>2026-04-18T08:19:19.765Z</time></trkpt><trkpt lat="42.6678817" lon="11.7614783"><ele>494.0</ele><time>2026-04-18T08:19:20.766Z</time></trkpt><trkpt lat="42.6678233" lon="11.7614267"><ele>494.0</ele><time>2026-04-18T08:19:21.766Z</time></trkpt><trkpt lat="42.6677633" lon="11.76137"><ele>494.0</ele><time>2026-04-18T08:19:22.766Z</time></trkpt><trkpt lat="42.6677033" lon="11.7613167"><ele>494.0</ele><time>2026-04-18T08:19:23.766Z</time></trkpt><trkpt lat="42.6676367" lon="11.7612617"><ele>494.0</ele><time>2026-04-18T08:19:24.766Z</time></trkpt><trkpt lat="42.667565" lon="11.761215"><ele>493.66666666666663</ele><time>2026-04-18T08:19:25.766Z</time></trkpt><trkpt lat="42.66749" lon="11.761175"><ele>493.3333333333333</ele><time>2026-04-18T08:19:26.766Z</time></trkpt><trkpt lat="42.6674283" lon="11.7611317"><ele>493.0</ele><time>2026-04-18T08:19:27.766Z</time></trkpt><trkpt lat="42.6673717" lon="11.76108"><ele>492.66666666666663</ele><time>2026-04-18T08:19:28.766Z</time></trkpt><trkpt lat="42.66726" lon="11.761005"><ele>492.3333333333333</ele><time>2026-04-18T08:19:30.766Z</time></trkpt><trkpt lat="42.6672" lon="11.7609767"><ele>492.0</ele><time>2026-04-18T08:19:31.765Z</time></trkpt><trkpt lat="42.6670983" lon="11.7608983"><ele>493.0</ele><time>2026-04-18T08:19:33.766Z</time></trkpt><trkpt lat="42.6670367" lon="11.7608583"><ele>494.0</ele><time>2026-04-18T08:19:34.765Z</time></trkpt><trkpt lat="42.6669667" lon="11.76081"><ele>495.0</ele><time>2026-04-18T08:19:35.766Z</time></trkpt><trkpt lat="42.66689" lon="11.76077"><ele>496.0</ele><time>2026-04-18T08:19:36.766Z</time></trkpt><trkpt lat="42.6668233" lon="11.760715"><ele>497.0</ele><time>2026-04-18T08:19:37.766Z</time></trkpt><trkpt lat="42.666755" lon="11.7606633"><ele>498.0</ele><time>2026-04-18T08:19:38.766Z</time></trkpt><trkpt lat="42.6666783" lon="11.7606067"><ele>498.1666666666667</ele><time>2026-04-18T08:19:39.766Z</time></trkpt><trkpt lat="42.6666033" lon="11.7605517"><ele>498.33333333333337</ele><time>2026-04-18T08:19:40.766Z</time></trkpt><trkpt lat="42.6665333" lon="11.7604933"><ele>498.5</ele><time>2026-04-18T08:19:41.766Z</time></trkpt><trkpt lat="42.66647" lon="11.760435"><ele>498.6666666666667</ele><time>2026-04-18T08:19:42.766Z</time></trkpt><trkpt lat="42.6664083" lon="11.7603833"><ele>498.83333333333337</ele><time>2026-04-18T08:19:43.765Z</time></trkpt><trkpt lat="42.6663283" lon="11.7603117"><ele>499.0</ele><time>2026-04-18T08:19:45.766Z</time></trkpt><trkpt lat="42.666265" lon="11.7602367"><ele>498.4</ele><time>2026-04-18T08:19:47.766Z</time></trkpt><trkpt lat="42.6662033" lon="11.7601333"><ele>497.79999999999995</ele><time>2026-04-18T08:19:50.765Z</time></trkpt><trkpt lat="42.66614" lon="11.760035"><ele>497.20000000000005</ele><time>2026-04-18T08:19:53.766Z</time></trkpt><trkpt lat="42.66606" lon="11.7599633"><ele>496.6</ele><time>2026-04-18T08:19:56.766Z</time></trkpt><trkpt lat="42.66599" lon="11.75987"><ele>496.0</ele><time>2026-04-18T08:19:59.766Z</time></trkpt><trkpt lat="42.6659417" lon="11.7597933"><ele>497.00000000000006</ele><time>2026-04-18T08:20:01.766Z</time></trkpt><trkpt lat="42.6658967" lon="11.7597083"><ele>498.0</ele><time>2026-04-18T08:20:03.766Z</time></trkpt><trkpt lat="42.66584" lon="11.7596217"><ele>499.0</ele><time>2026-04-18T08:20:05.766Z</time></trkpt><trkpt lat="42.6657867" lon="11.75955"><ele>500.0</ele><time>2026-04-18T08:20:07.766Z</time></trkpt><trkpt lat="42.665745" lon="11.759465"><ele>501.00000000000006</ele><time>2026-04-18T08:20:09.766Z</time></trkpt><trkpt lat="42.6657" lon="11.7593733"><ele>502.0</ele><time>2026-04-18T08:20:11.766Z</time></trkpt><trkpt lat="42.6656367" lon="11.75929"><ele>502.00000000000006</ele><time>2026-04-18T08:20:13.766Z</time></trkpt><trkpt lat="42.6655517" lon="11.7591883"><ele>502.0</ele><time>2026-04-18T08:20:15.766Z</time></trkpt><trkpt lat="42.6655067" lon="11.7591233"><ele>502.0</ele><time>2026-04-18T08:20:16.766Z</time></trkpt><trkpt lat="42.665465" lon="11.7590533"><ele>502.0</ele><time>2026-04-18T08:20:17.766Z</time></trkpt><trkpt lat="42.665425" lon="11.7589683"><ele>502.00000000000006</ele><time>2026-04-18T08:20:18.766Z</time></trkpt><trkpt lat="42.6653733" lon="11.75888"><ele>502.0</ele><time>2026-04-18T08:20:19.766Z</time></trkpt><trkpt lat="42.66532" lon="11.758775"><ele>502.0</ele><time>2026-04-18T08:20:20.766Z</time></trkpt><trkpt lat="42.6652617" lon="11.7586483"><ele>502.0</ele><time>2026-04-18T08:20:21.766Z</time></trkpt><trkpt lat="42.6652033" lon="11.7585217"><ele>502.0</ele><time>2026-04-18T08:20:22.766Z</time></trkpt><trkpt lat="42.66513" lon="11.7584"><ele>502.0</ele><time>2026-04-18T08:20:23.766Z</time></trkpt><trkpt lat="42.6650533" lon="11.75827"><ele>501.75</ele><time>2026-04-18T08:20:24.765Z</time></trkpt><trkpt lat="42.664985" lon="11.7581267"><ele>501.5</ele><time>2026-04-18T08:20:25.766Z</time></trkpt><trkpt lat="42.6649117" lon="11.7579767"><ele>501.25</ele><time>2026-04-18T08:20:26.766Z</time></trkpt><trkpt lat="42.6648417" lon="11.757825"><ele>501.0</ele><time>2026-04-18T08:20:27.766Z</time></trkpt><trkpt lat="42.6647783" lon="11.7576717"><ele>500.75</ele><time>2026-04-18T08:20:28.766Z</time></trkpt><trkpt lat="42.66472" lon="11.7575133"><ele>500.5</ele><time>2026-04-18T08:20:29.766Z</time></trkpt><trkpt lat="42.6646667" lon="11.7573667"><ele>500.25</ele><time>2026-04-18T08:20:30.766Z</time></trkpt><trkpt lat="42.6646083" lon="11.7572067"><ele>500.0</ele><time>2026-04-18T08:20:31.766Z</time></trkpt><trkpt lat="42.66456" lon="11.757055"><ele>500.0</ele><time>2026-04-18T08:20:32.766Z</time></trkpt><trkpt lat="42.664525" lon="11.75691"><ele>500.0</ele><time>2026-04-18T08:20:33.766Z</time></trkpt><trkpt lat="42.6644867" lon="11.756765"><ele>500.0</ele><time>2026-04-18T08:20:34.766Z</time></trkpt><trkpt lat="42.66443" lon="11.7566067"><ele>500.0</ele><time>2026-04-18T08:20:35.766Z</time></trkpt><trkpt lat="42.6643767" lon="11.7564567"><ele>500.0</ele><time>2026-04-18T08:20:36.766Z</time></trkpt><trkpt lat="42.6643183" lon="11.756315"><ele>500.0</ele><time>2026-04-18T08:20:37.766Z</time></trkpt><trkpt lat="42.66426" lon="11.7561783"><ele>500.0</ele><time>2026-04-18T08:20:38.766Z</time></trkpt><trkpt lat="42.6641983" lon="11.7560417"><ele>500.0</ele><time>2026-04-18T08:20:39.766Z</time></trkpt><trkpt lat="42.6641283" lon="11.7558917"><ele>499.25</ele><time>2026-04-18T08:20:40.766Z</time></trkpt><trkpt lat="42.6640633" lon="11.75576"><ele>498.5</ele><time>2026-04-18T08:20:41.766Z</time></trkpt><trkpt lat="42.664" lon="11.75562"><ele>497.75</ele><time>2026-04-18T08:20:42.765Z</time></trkpt><trkpt lat="42.663945" lon="11.7554867"><ele>497.0</ele><time>2026-04-18T08:20:43.766Z</time></trkpt><trkpt lat="42.663885" lon="11.75537"><ele>497.0</ele><time>2026-04-18T08:20:44.766Z</time></trkpt><trkpt lat="42.6638167" lon="11.75525"><ele>497.0</ele><time>2026-04-18T08:20:45.766Z</time></trkpt><trkpt lat="42.6637417" lon="11.75513"><ele>497.0</ele><time>2026-04-18T08:20:46.766Z</time></trkpt><trkpt lat="42.6636767" lon="11.7550117"><ele>497.0</ele><time>2026-04-18T08:20:47.766Z</time></trkpt><trkpt lat="42.6636067" lon="11.754885"><ele>496.20000000000005</ele><time>2026-04-18T08:20:48.766Z</time></trkpt><trkpt lat="42.6635433" lon="11.754755"><ele>495.40000000000003</ele><time>2026-04-18T08:20:49.766Z</time></trkpt><trkpt lat="42.6634933" lon="11.75463"><ele>494.59999999999997</ele><time>2026-04-18T08:20:50.766Z</time></trkpt><trkpt lat="42.6634433" lon="11.7545033"><ele>493.79999999999995</ele><time>2026-04-18T08:20:51.766Z</time></trkpt><trkpt lat="42.663395" lon="11.7543683"><ele>493.0</ele><time>2026-04-18T08:20:52.766Z</time></trkpt><trkpt lat="42.6633483" lon="11.7542117"><ele>493.0</ele><time>2026-04-18T08:20:53.766Z</time></trkpt><trkpt lat="42.6633033" lon="11.75405"><ele>492.99999999999994</ele><time>2026-04-18T08:20:54.766Z</time></trkpt><trkpt lat="42.6632683" lon="11.7539"><ele>492.99999999999994</ele><time>2026-04-18T08:20:55.766Z</time></trkpt><trkpt lat="42.6632417" lon="11.753765"><ele>493.0</ele><time>2026-04-18T08:20:56.766Z</time></trkpt><trkpt lat="42.6631983" lon="11.7536417"><ele>493.0</ele><time>2026-04-18T08:20:57.766Z</time></trkpt><trkpt lat="42.6631483" lon="11.75351"><ele>494.0</ele><time>2026-04-18T08:20:58.766Z</time></trkpt><trkpt lat="42.6630833" lon="11.7533883"><ele>495.0</ele><time>2026-04-18T08:20:59.766Z</time></trkpt><trkpt lat="42.663015" lon="11.7532633"><ele>496.0</ele><time>2026-04-18T08:21:00.766Z</time></trkpt><trkpt lat="42.6629517" lon="11.7531233"><ele>497.0</ele><time>2026-04-18T08:21:01.766Z</time></trkpt><trkpt lat="42.66288" lon="11.752995"><ele>497.0</ele><time>2026-04-18T08:21:02.766Z</time></trkpt><trkpt lat="42.6628183" lon="11.7528733"><ele>497.00000000000006</ele><time>2026-04-18T08:21:03.766Z</time></trkpt><trkpt lat="42.6627617" lon="11.7527583"><ele>497.00000000000006</ele><time>2026-04-18T08:21:04.766Z</time></trkpt><trkpt lat="42.6627067" lon="11.7526483"><ele>497.0</ele><time>2026-04-18T08:21:05.766Z</time></trkpt><trkpt lat="42.6626583" lon="11.7525383"><ele>497.0</ele><time>2026-04-18T08:21:06.765Z</time></trkpt><trkpt lat="42.6625983" lon="11.7524267"><ele>497.0</ele><time>2026-04-18T08:21:07.766Z</time></trkpt><trkpt lat="42.66254" lon="11.7523183"><ele>497.00000000000006</ele><time>2026-04-18T08:21:08.766Z</time></trkpt><trkpt lat="42.6624867" lon="11.7522"><ele>497.00000000000006</ele><time>2026-04-18T08:21:09.766Z</time></trkpt><trkpt lat="42.6624317" lon="11.7520767"><ele>497.0</ele><time>2026-04-18T08:21:10.766Z</time></trkpt><trkpt lat="42.6623783" lon="11.751955"><ele>497.0</ele><time>2026-04-18T08:21:11.766Z</time></trkpt><trkpt lat="42.662335" lon="11.7518367"><ele>496.99999999999994</ele><time>2026-04-18T08:21:12.766Z</time></trkpt><trkpt lat="42.6622867" lon="11.7517317"><ele>497.0</ele><time>2026-04-18T08:21:13.765Z</time></trkpt><trkpt lat="42.6622367" lon="11.7516617"><ele>497.0</ele><time>2026-04-18T08:21:14.766Z</time></trkpt><trkpt lat="42.66217" lon="11.7515817"><ele>497.0</ele><time>2026-04-18T08:21:16.766Z</time></trkpt><trkpt lat="42.6621183" lon="11.751525"><ele>496.99999999999994</ele><time>2026-04-18T08:21:19.766Z</time></trkpt><trkpt lat="42.66213" lon="11.7514117"><ele>497.0</ele><time>2026-04-18T08:21:23.766Z</time></trkpt><trkpt lat="42.6622233" lon="11.75129"><ele>497.0</ele><time>2026-04-18T08:21:25.766Z</time></trkpt><trkpt lat="42.6622783" lon="11.7512"><ele>497.00000000000006</ele><time>2026-04-18T08:21:26.766Z</time></trkpt><trkpt lat="42.6623417" lon="11.7510983"><ele>497.00000000000006</ele><time>2026-04-18T08:21:27.766Z</time></trkpt><trkpt lat="42.6624083" lon="11.7509933"><ele>497.0</ele><time>2026-04-18T08:21:28.766Z</time></trkpt><trkpt lat="42.66248" lon="11.75089"><ele>497.0</ele><time>2026-04-18T08:21:29.766Z</time></trkpt><trkpt lat="42.6625467" lon="11.7507917"><ele>496.5</ele><time>2026-04-18T08:21:30.766Z</time></trkpt><trkpt lat="42.66262" lon="11.750705"><ele>496.0</ele><time>2026-04-18T08:21:31.766Z</time></trkpt><trkpt lat="42.6626983" lon="11.7505983"><ele>495.5</ele><time>2026-04-18T08:21:32.766Z</time></trkpt><trkpt lat="42.6627833" lon="11.750485"><ele>495.0</ele><time>2026-04-18T08:21:33.766Z</time></trkpt><trkpt lat="42.6628717" lon="11.75035"><ele>495.0</ele><time>2026-04-18T08:21:34.766Z</time></trkpt><trkpt lat="42.6629433" lon="11.7502233"><ele>495.0</ele><time>2026-04-18T08:21:35.765Z</time></trkpt><trkpt lat="42.6629917" lon="11.7501033"><ele>495.0</ele><time>2026-04-18T08:21:36.766Z</time></trkpt><trkpt lat="42.6630383" lon="11.7499933"><ele>495.0</ele><time>2026-04-18T08:21:37.766Z</time></trkpt><trkpt lat="42.6630967" lon="11.749875"><ele>495.0</ele><time>2026-04-18T08:21:38.766Z</time></trkpt><trkpt lat="42.6631717" lon="11.7497733"><ele>494.6666666666667</ele><time>2026-04-18T08:21:39.766Z</time></trkpt><trkpt lat="42.6632367" lon="11.749695"><ele>494.33333333333337</ele><time>2026-04-18T08:21:40.766Z</time></trkpt><trkpt lat="42.6632983" lon="11.7496267"><ele>494.0</ele><time>2026-04-18T08:21:41.766Z</time></trkpt><trkpt lat="42.6633567" lon="11.74956"><ele>493.6666666666667</ele><time>2026-04-18T08:21:42.766Z</time></trkpt><trkpt lat="42.6634233" lon="11.74948"><ele>493.33333333333337</ele><time>2026-04-18T08:21:43.766Z</time></trkpt><trkpt lat="42.6634833" lon="11.749405"><ele>493.0</ele><time>2026-04-18T08:21:44.766Z</time></trkpt><trkpt lat="42.6635417" lon="11.7493233"><ele>492.83333333333337</ele><time>2026-04-18T08:21:45.766Z</time></trkpt><trkpt lat="42.6636017" lon="11.74925"><ele>492.6666666666667</ele><time>2026-04-18T08:21:46.765Z</time></trkpt><trkpt lat="42.6636483" lon="11.749175"><ele>492.5</ele><time>2026-04-18T08:21:47.766Z</time></trkpt><trkpt lat="42.663685" lon="11.7490933"><ele>492.33333333333337</ele><time>2026-04-18T08:21:48.766Z</time></trkpt><trkpt lat="42.6637367" lon="11.7489583"><ele>492.1666666666667</ele><time>2026-04-18T08:21:50.766Z</time></trkpt><trkpt lat="42.6637883" lon="11.7488683"><ele>492.0</ele><time>2026-04-18T08:21:52.766Z</time></trkpt><trkpt lat="42.6638417" lon="11.74878"><ele>492.6</ele><time>2026-04-18T08:21:54.765Z</time></trkpt><trkpt lat="42.6639233" lon="11.748665"><ele>493.20000000000005</ele><time>2026-04-18T08:21:56.766Z</time></trkpt><trkpt lat="42.6639767" lon="11.7485833"><ele>493.8</ele><time>2026-04-18T08:21:57.766Z</time></trkpt><trkpt lat="42.664045" lon="11.7485067"><ele>494.4</ele><time>2026-04-18T08:21:58.766Z</time></trkpt><trkpt lat="42.6641133" lon="11.7484333"><ele>495.0</ele><time>2026-04-18T08:21:59.766Z</time></trkpt><trkpt lat="42.6641833" lon="11.7483583"><ele>495.1666666666667</ele><time>2026-04-18T08:22:00.766Z</time></trkpt><trkpt lat="42.66425" lon="11.7482867"><ele>495.33333333333337</ele><time>2026-04-18T08:22:01.766Z</time></trkpt><trkpt lat="42.6643183" lon="11.74823"><ele>495.5</ele><time>2026-04-18T08:22:02.766Z</time></trkpt><trkpt lat="42.6643817" lon="11.74817"><ele>495.6666666666667</ele><time>2026-04-18T08:22:03.766Z</time></trkpt><trkpt lat="42.6644483" lon="11.7481283"><ele>495.83333333333337</ele><time>2026-04-18T08:22:04.766Z</time></trkpt><trkpt lat="42.6645283" lon="11.7480783"><ele>496.0</ele><time>2026-04-18T08:22:05.766Z</time></trkpt><trkpt lat="42.6646083" lon="11.748035"><ele>496.00000000000006</ele><time>2026-04-18T08:22:06.766Z</time></trkpt><trkpt lat="42.6646867" lon="11.7479983"><ele>496.0</ele><time>2026-04-18T08:22:07.766Z</time></trkpt><trkpt lat="42.6647533" lon="11.74795"><ele>496.0</ele><time>2026-04-18T08:22:08.766Z</time></trkpt><trkpt lat="42.6648283" lon="11.7478933"><ele>496.0</ele><time>2026-04-18T08:22:09.766Z</time></trkpt><trkpt lat="42.6649017" lon="11.74782"><ele>496.00000000000006</ele><time>2026-04-18T08:22:10.765Z</time></trkpt><trkpt lat="42.6649617" lon="11.74774"><ele>496.0</ele><time>2026-04-18T08:22:11.766Z</time></trkpt><trkpt lat="42.6650183" lon="11.7476617"><ele>496.0</ele><time>2026-04-18T08:22:12.766Z</time></trkpt><trkpt lat="42.6650867" lon="11.747575"><ele>496.0</ele><time>2026-04-18T08:22:13.766Z</time></trkpt><trkpt lat="42.6651483" lon="11.7474833"><ele>496.0</ele><time>2026-04-18T08:22:14.766Z</time></trkpt><trkpt lat="42.6651933" lon="11.747375"><ele>496.0</ele><time>2026-04-18T08:22:15.766Z</time></trkpt><trkpt lat="42.665235" lon="11.7472567"><ele>496.0</ele><time>2026-04-18T08:22:16.766Z</time></trkpt><trkpt lat="42.66529" lon="11.7471533"><ele>496.0</ele><time>2026-04-18T08:22:17.766Z</time></trkpt><trkpt lat="42.6653433" lon="11.7470433"><ele>496.0</ele><time>2026-04-18T08:22:18.766Z</time></trkpt><trkpt lat="42.6653967" lon="11.7469283"><ele>496.0</ele><time>2026-04-18T08:22:19.765Z</time></trkpt><trkpt lat="42.6654417" lon="11.7468167"><ele>496.0</ele><time>2026-04-18T08:22:20.766Z</time></trkpt><trkpt lat="42.6654933" lon="11.746705"><ele>496.0</ele><time>2026-04-18T08:22:21.766Z</time></trkpt><trkpt lat="42.6655517" lon="11.7466117"><ele>495.6666666666667</ele><time>2026-04-18T08:22:22.766Z</time></trkpt><trkpt lat="42.6656083" lon="11.7465167"><ele>495.33333333333337</ele><time>2026-04-18T08:22:23.766Z</time></trkpt><trkpt lat="42.6656617" lon="11.7464283"><ele>495.0</ele><time>2026-04-18T08:22:24.766Z</time></trkpt><trkpt lat="42.6657167" lon="11.7463267"><ele>494.66666666666663</ele><time>2026-04-18T08:22:25.766Z</time></trkpt><trkpt lat="42.665765" lon="11.7462267"><ele>494.3333333333333</ele><time>2026-04-18T08:22:26.765Z</time></trkpt><trkpt lat="42.6658183" lon="11.74613"><ele>494.0</ele><time>2026-04-18T08:22:27.766Z</time></trkpt><trkpt lat="42.6658833" lon="11.7460433"><ele>493.99999999999994</ele><time>2026-04-18T08:22:28.766Z</time></trkpt><trkpt lat="42.6659433" lon="11.7459767"><ele>494.0</ele><time>2026-04-18T08:22:29.766Z</time></trkpt><trkpt lat="42.6660017" lon="11.7459267"><ele>494.0</ele><time>2026-04-18T08:22:30.766Z</time></trkpt><trkpt lat="42.6660683" lon="11.745885"><ele>494.0</ele><time>2026-04-18T08:22:31.766Z</time></trkpt><trkpt lat="42.6661317" lon="11.7458533"><ele>493.99999999999994</ele><time>2026-04-18T08:22:32.766Z</time></trkpt><trkpt lat="42.6661967" lon="11.7457883"><ele>494.0</ele><time>2026-04-18T08:22:33.766Z</time></trkpt><trkpt lat="42.6662517" lon="11.745705"><ele>493.49999999999994</ele><time>2026-04-18T08:22:34.766Z</time></trkpt><trkpt lat="42.6663017" lon="11.745625"><ele>493.0</ele><time>2026-04-18T08:22:35.766Z</time></trkpt><trkpt lat="42.6663333" lon="11.74555"><ele>492.5</ele><time>2026-04-18T08:22:36.766Z</time></trkpt><trkpt lat="42.6663917" lon="11.7454783"><ele>492.0</ele><time>2026-04-18T08:22:37.766Z</time></trkpt><trkpt lat="42.6664567" lon="11.7454033"><ele>491.49999999999994</ele><time>2026-04-18T08:22:38.766Z</time></trkpt><trkpt lat="42.6665267" lon="11.7453217"><ele>491.0</ele><time>2026-04-18T08:22:39.766Z</time></trkpt><trkpt lat="42.6666033" lon="11.745245"><ele>491.3333333333333</ele><time>2026-04-18T08:22:40.766Z</time></trkpt><trkpt lat="42.66666" lon="11.7451583"><ele>491.66666666666663</ele><time>2026-04-18T08:22:41.766Z</time></trkpt><trkpt lat="42.6667183" lon="11.7450733"><ele>492.0</ele><time>2026-04-18T08:22:42.766Z</time></trkpt><trkpt lat="42.6667733" lon="11.74498"><ele>492.33333333333337</ele><time>2026-04-18T08:22:43.766Z</time></trkpt><trkpt lat="42.6668233" lon="11.7448883"><ele>492.6666666666667</ele><time>2026-04-18T08:22:44.765Z</time></trkpt><trkpt lat="42.6668633" lon="11.7448167"><ele>493.0</ele><time>2026-04-18T08:22:45.766Z</time></trkpt><trkpt lat="42.6668967" lon="11.7446583"><ele>493.0</ele><time>2026-04-18T08:22:47.765Z</time></trkpt><trkpt lat="42.6669117" lon="11.7444867"><ele>492.99999999999994</ele><time>2026-04-18T08:22:49.766Z</time></trkpt><trkpt lat="42.6669167" lon="11.7443883"><ele>492.99999999999994</ele><time>2026-04-18T08:22:50.766Z</time></trkpt><trkpt lat="42.666915" lon="11.7442867"><ele>493.0</ele><time>2026-04-18T08:22:51.766Z</time></trkpt><trkpt lat="42.6669083" lon="11.744155"><ele>493.0</ele><time>2026-04-18T08:22:52.766Z</time></trkpt><trkpt lat="42.6669067" lon="11.7440233"><ele>493.0</ele><time>2026-04-18T08:22:53.766Z</time></trkpt><trkpt lat="42.66691" lon="11.7439067"><ele>492.99999999999994</ele><time>2026-04-18T08:22:54.765Z</time></trkpt><trkpt lat="42.66691" lon="11.7437733"><ele>492.99999999999994</ele><time>2026-04-18T08:22:55.766Z</time></trkpt><trkpt lat="42.6669067" lon="11.74364"><ele>493.0</ele><time>2026-04-18T08:22:56.766Z</time></trkpt><trkpt lat="42.6669" lon="11.7435033"><ele>493.0</ele><time>2026-04-18T08:22:57.766Z</time></trkpt><trkpt lat="42.6668933" lon="11.7433633"><ele>492.79999999999995</ele><time>2026-04-18T08:22:58.766Z</time></trkpt><trkpt lat="42.666895" lon="11.74323"><ele>492.59999999999997</ele><time>2026-04-18T08:22:59.766Z</time></trkpt><trkpt lat="42.666895" lon="11.7431083"><ele>492.40000000000003</ele><time>2026-04-18T08:23:00.766Z</time></trkpt><trkpt lat="42.666895" lon="11.7429717"><ele>492.20000000000005</ele><time>2026-04-18T08:23:01.766Z</time></trkpt><trkpt lat="42.6668983" lon="11.742825"><ele>492.0</ele><time>2026-04-18T08:23:02.766Z</time></trkpt><trkpt lat="42.666895" lon="11.7426933"><ele>491.8333333333333</ele><time>2026-04-18T08:23:03.766Z</time></trkpt><trkpt lat="42.6668917" lon="11.7425717"><ele>491.66666666666663</ele><time>2026-04-18T08:23:04.765Z</time></trkpt><trkpt lat="42.6668817" lon="11.7424583"><ele>491.5</ele><time>2026-04-18T08:23:05.766Z</time></trkpt><trkpt lat="42.6668733" lon="11.7423433"><ele>491.3333333333333</ele><time>2026-04-18T08:23:06.766Z</time></trkpt><trkpt lat="42.666885" lon="11.7422333"><ele>491.16666666666663</ele><time>2026-04-18T08:23:07.766Z</time></trkpt><trkpt lat="42.6668867" lon="11.7421133"><ele>491.0</ele><time>2026-04-18T08:23:08.766Z</time></trkpt><trkpt lat="42.66689" lon="11.7420117"><ele>491.0</ele><time>2026-04-18T08:23:09.766Z</time></trkpt><trkpt lat="42.6669" lon="11.7418683"><ele>491.0</ele><time>2026-04-18T08:23:11.766Z</time></trkpt><trkpt lat="42.6669033" lon="11.7417567"><ele>491.0</ele><time>2026-04-18T08:23:13.766Z</time></trkpt><trkpt lat="42.6669083" lon="11.7416483"><ele>491.0</ele><time>2026-04-18T08:23:15.766Z</time></trkpt><trkpt lat="42.6669" lon="11.7415117"><ele>491.0</ele><time>2026-04-18T08:23:17.766Z</time></trkpt><trkpt lat="42.6669" lon="11.74134"><ele>490.99999999999994</ele><time>2026-04-18T08:23:19.766Z</time></trkpt><trkpt lat="42.6668983" lon="11.7412433"><ele>491.0</ele><time>2026-04-18T08:23:20.766Z</time></trkpt><trkpt lat="42.6668917" lon="11.7411333"><ele>491.0</ele><time>2026-04-18T08:23:21.766Z</time></trkpt><trkpt lat="42.6668917" lon="11.7410267"><ele>491.0</ele><time>2026-04-18T08:23:22.766Z</time></trkpt><trkpt lat="42.666905" lon="11.7409167"><ele>490.99999999999994</ele><time>2026-04-18T08:23:23.766Z</time></trkpt><trkpt lat="42.6669283" lon="11.740795"><ele>491.0</ele><time>2026-04-18T08:23:24.766Z</time></trkpt><trkpt lat="42.6669817" lon="11.7406783"><ele>490.6</ele><time>2026-04-18T08:23:25.766Z</time></trkpt><trkpt lat="42.6670333" lon="11.7405517"><ele>490.20000000000005</ele><time>2026-04-18T08:23:26.766Z</time></trkpt><trkpt lat="42.6670783" lon="11.740425"><ele>489.79999999999995</ele><time>2026-04-18T08:23:27.765Z</time></trkpt><trkpt lat="42.6671283" lon="11.7403083"><ele>489.4</ele><time>2026-04-18T08:23:28.766Z</time></trkpt><trkpt lat="42.667185" lon="11.7401817"><ele>489.0</ele><time>2026-04-18T08:23:29.766Z</time></trkpt><trkpt lat="42.6672383" lon="11.7400783"><ele>488.79999999999995</ele><time>2026-04-18T08:23:30.766Z</time></trkpt><trkpt lat="42.6672883" lon="11.7399783"><ele>488.59999999999997</ele><time>2026-04-18T08:23:31.766Z</time></trkpt><trkpt lat="42.66733" lon="11.7398717"><ele>488.4</ele><time>2026-04-18T08:23:32.766Z</time></trkpt><trkpt lat="42.66738" lon="11.7397567"><ele>488.2</ele><time>2026-04-18T08:23:33.766Z</time></trkpt><trkpt lat="42.6674333" lon="11.7396367"><ele>488.0</ele><time>2026-04-18T08:23:34.766Z</time></trkpt><trkpt lat="42.6674917" lon="11.7395267"><ele>488.0</ele><time>2026-04-18T08:23:35.766Z</time></trkpt><trkpt lat="42.6675333" lon="11.7394217"><ele>487.99999999999994</ele><time>2026-04-18T08:23:36.766Z</time></trkpt><trkpt lat="42.66758" lon="11.7393083"><ele>487.99999999999994</ele><time>2026-04-18T08:23:37.766Z</time></trkpt><trkpt lat="42.6676233" lon="11.73919"><ele>488.0</ele><time>2026-04-18T08:23:38.766Z</time></trkpt><trkpt lat="42.6676683" lon="11.7390783"><ele>488.0</ele><time>2026-04-18T08:23:39.766Z</time></trkpt><trkpt lat="42.6677117" lon="11.738975"><ele>487.49999999999994</ele><time>2026-04-18T08:23:40.766Z</time></trkpt><trkpt lat="42.6677567" lon="11.738865"><ele>487.0</ele><time>2026-04-18T08:23:41.766Z</time></trkpt><trkpt lat="42.6678" lon="11.7387567"><ele>486.5</ele><time>2026-04-18T08:23:42.766Z</time></trkpt><trkpt lat="42.6678333" lon="11.738665"><ele>486.0</ele><time>2026-04-18T08:23:43.766Z</time></trkpt><trkpt lat="42.667865" lon="11.7385717"><ele>485.49999999999994</ele><time>2026-04-18T08:23:44.766Z</time></trkpt><trkpt lat="42.6679033" lon="11.7384683"><ele>485.0</ele><time>2026-04-18T08:23:45.766Z</time></trkpt><trkpt lat="42.6679467" lon="11.7383667"><ele>485.0</ele><time>2026-04-18T08:23:46.766Z</time></trkpt><trkpt lat="42.667995" lon="11.7382733"><ele>485.0</ele><time>2026-04-18T08:23:47.766Z</time></trkpt><trkpt lat="42.6680433" lon="11.7381883"><ele>485.0</ele><time>2026-04-18T08:23:48.766Z</time></trkpt><trkpt lat="42.6680817" lon="11.7381083"><ele>485.0</ele><time>2026-04-18T08:23:49.766Z</time></trkpt><trkpt lat="42.6681233" lon="11.737965"><ele>485.0</ele><time>2026-04-18T08:23:51.766Z</time></trkpt><trkpt lat="42.6681283" lon="11.73781"><ele>483.6</ele><time>2026-04-18T08:23:53.766Z</time></trkpt><trkpt lat="42.6681067" lon="11.7376967"><ele>482.2</ele><time>2026-04-18T08:23:54.766Z</time></trkpt><trkpt lat="42.6680767" lon="11.7375717"><ele>480.79999999999995</ele><time>2026-04-18T08:23:55.766Z</time></trkpt><trkpt lat="42.6680433" lon="11.7374433"><ele>479.4</ele><time>2026-04-18T08:23:56.766Z</time></trkpt><trkpt lat="42.668005" lon="11.7373133"><ele>478.0</ele><time>2026-04-18T08:23:57.766Z</time></trkpt><trkpt lat="42.66796" lon="11.7371933"><ele>478.00000000000006</ele><time>2026-04-18T08:23:58.765Z</time></trkpt><trkpt lat="42.667925" lon="11.73709"><ele>478.0</ele><time>2026-04-18T08:23:59.766Z</time></trkpt><trkpt lat="42.667895" lon="11.737"><ele>478.0</ele><time>2026-04-18T08:24:00.766Z</time></trkpt><trkpt lat="42.6678683" lon="11.7369083"><ele>478.0</ele><time>2026-04-18T08:24:01.766Z</time></trkpt><trkpt lat="42.6678433" lon="11.7368133"><ele>478.00000000000006</ele><time>2026-04-18T08:24:02.766Z</time></trkpt><trkpt lat="42.6678117" lon="11.7367033"><ele>478.0</ele><time>2026-04-18T08:24:03.766Z</time></trkpt><trkpt lat="42.6677733" lon="11.7365717"><ele>477.59999999999997</ele><time>2026-04-18T08:24:04.766Z</time></trkpt><trkpt lat="42.66773" lon="11.736435"><ele>477.19999999999993</ele><time>2026-04-18T08:24:05.766Z</time></trkpt><trkpt lat="42.667695" lon="11.7363033"><ele>476.8</ele><time>2026-04-18T08:24:06.766Z</time></trkpt><trkpt lat="42.66766" lon="11.7361567"><ele>476.4</ele><time>2026-04-18T08:24:07.766Z</time></trkpt><trkpt lat="42.667625" lon="11.736005"><ele>476.0</ele><time>2026-04-18T08:24:08.766Z</time></trkpt><trkpt lat="42.667595" lon="11.735865"><ele>476.0</ele><time>2026-04-18T08:24:09.766Z</time></trkpt><trkpt lat="42.6675533" lon="11.7357083"><ele>476.0</ele><time>2026-04-18T08:24:10.766Z</time></trkpt><trkpt lat="42.667505" lon="11.735545"><ele>476.0</ele><time>2026-04-18T08:24:11.766Z</time></trkpt><trkpt lat="42.667455" lon="11.7353683"><ele>476.0</ele><time>2026-04-18T08:24:12.766Z</time></trkpt><trkpt lat="42.6674083" lon="11.735205"><ele>476.5</ele><time>2026-04-18T08:24:13.765Z</time></trkpt><trkpt lat="42.6673667" lon="11.73504"><ele>477.0</ele><time>2026-04-18T08:24:14.766Z</time></trkpt><trkpt lat="42.66732" lon="11.73487"><ele>477.5</ele><time>2026-04-18T08:24:15.766Z</time></trkpt><trkpt lat="42.6672767" lon="11.7347083"><ele>478.0</ele><time>2026-04-18T08:24:16.766Z</time></trkpt><trkpt lat="42.6672367" lon="11.7345433"><ele>478.0</ele><time>2026-04-18T08:24:17.766Z</time></trkpt><trkpt lat="42.667195" lon="11.734405"><ele>477.99999999999994</ele><time>2026-04-18T08:24:18.766Z</time></trkpt><trkpt lat="42.6671533" lon="11.7342667"><ele>477.99999999999994</ele><time>2026-04-18T08:24:19.766Z</time></trkpt><trkpt lat="42.6671067" lon="11.7341383"><ele>478.0</ele><time>2026-04-18T08:24:20.766Z</time></trkpt><trkpt lat="42.6670583" lon="11.734005"><ele>478.0</ele><time>2026-04-18T08:24:21.766Z</time></trkpt><trkpt lat="42.66701" lon="11.7338733"><ele>478.0</ele><time>2026-04-18T08:24:22.766Z</time></trkpt><trkpt lat="42.666955" lon="11.7337483"><ele>478.0</ele><time>2026-04-18T08:24:23.766Z</time></trkpt><trkpt lat="42.666905" lon="11.7336167"><ele>478.0</ele><time>2026-04-18T08:24:24.766Z</time></trkpt><trkpt lat="42.6668533" lon="11.7334783"><ele>478.0</ele><time>2026-04-18T08:24:25.766Z</time></trkpt><trkpt lat="42.6668" lon="11.7333317"><ele>477.5</ele><time>2026-04-18T08:24:26.766Z</time></trkpt><trkpt lat="42.6667517" lon="11.7331817"><ele>477.0</ele><time>2026-04-18T08:24:27.766Z</time></trkpt><trkpt lat="42.6667167" lon="11.7330217"><ele>476.5</ele><time>2026-04-18T08:24:28.766Z</time></trkpt><trkpt lat="42.666685" lon="11.732865"><ele>476.0</ele><time>2026-04-18T08:24:29.766Z</time></trkpt><trkpt lat="42.666665" lon="11.7327017"><ele>475.0</ele><time>2026-04-18T08:24:30.766Z</time></trkpt><trkpt lat="42.6666383" lon="11.7325233"><ele>474.0</ele><time>2026-04-18T08:24:31.766Z</time></trkpt><trkpt lat="42.6666183" lon="11.7323417"><ele>473.0</ele><time>2026-04-18T08:24:32.765Z</time></trkpt><trkpt lat="42.6666017" lon="11.73216"><ele>472.0</ele><time>2026-04-18T08:24:33.766Z</time></trkpt><trkpt lat="42.6665867" lon="11.73197"><ele>471.75</ele><time>2026-04-18T08:24:34.766Z</time></trkpt><trkpt lat="42.666565" lon="11.7317767"><ele>471.5</ele><time>2026-04-18T08:24:35.766Z</time></trkpt><trkpt lat="42.6665383" lon="11.731585"><ele>471.25</ele><time>2026-04-18T08:24:36.766Z</time></trkpt><trkpt lat="42.6665083" lon="11.7313967"><ele>471.0</ele><time>2026-04-18T08:24:37.766Z</time></trkpt><trkpt lat="42.6664633" lon="11.7312167"><ele>471.25</ele><time>2026-04-18T08:24:38.766Z</time></trkpt><trkpt lat="42.6664167" lon="11.731045"><ele>471.5</ele><time>2026-04-18T08:24:39.766Z</time></trkpt><trkpt lat="42.66637" lon="11.7308783"><ele>471.75</ele><time>2026-04-18T08:24:40.766Z</time></trkpt><trkpt lat="42.6663183" lon="11.73073"><ele>472.0</ele><time>2026-04-18T08:24:41.765Z</time></trkpt><trkpt lat="42.666275" lon="11.7306"><ele>472.0</ele><time>2026-04-18T08:24:42.766Z</time></trkpt><trkpt lat="42.666215" lon="11.730495"><ele>472.00000000000006</ele><time>2026-04-18T08:24:43.766Z</time></trkpt><trkpt lat="42.6661567" lon="11.730395"><ele>472.00000000000006</ele><time>2026-04-18T08:24:44.766Z</time></trkpt><trkpt lat="42.6660983" lon="11.7303033"><ele>472.0</ele><time>2026-04-18T08:24:45.766Z</time></trkpt><trkpt lat="42.6660467" lon="11.7302033"><ele>472.0</ele><time>2026-04-18T08:24:46.766Z</time></trkpt><trkpt lat="42.6659917" lon="11.7300883"><ele>471.40000000000003</ele><time>2026-04-18T08:24:47.766Z</time></trkpt><trkpt lat="42.665935" lon="11.7299717"><ele>470.80000000000007</ele><time>2026-04-18T08:24:48.766Z</time></trkpt><trkpt lat="42.6658817" lon="11.7298533"><ele>470.2</ele><time>2026-04-18T08:24:49.766Z</time></trkpt><trkpt lat="42.665825" lon="11.7297233"><ele>469.6</ele><time>2026-04-18T08:24:50.766Z</time></trkpt><trkpt lat="42.6657783" lon="11.7295983"><ele>469.0</ele><time>2026-04-18T08:24:51.765Z</time></trkpt><trkpt lat="42.6657317" lon="11.7294733"><ele>468.4</ele><time>2026-04-18T08:24:52.766Z</time></trkpt><trkpt lat="42.6656733" lon="11.7293583"><ele>467.79999999999995</ele><time>2026-04-18T08:24:53.766Z</time></trkpt><trkpt lat="42.6656083" lon="11.729245"><ele>467.20000000000005</ele><time>2026-04-18T08:24:54.766Z</time></trkpt><trkpt lat="42.6655283" lon="11.72915"><ele>466.6</ele><time>2026-04-18T08:24:55.766Z</time></trkpt><trkpt lat="42.66545" lon="11.7290433"><ele>466.0</ele><time>2026-04-18T08:24:56.766Z</time></trkpt><trkpt lat="42.6653733" lon="11.7289333"><ele>466.0</ele><time>2026-04-18T08:24:57.766Z</time></trkpt><trkpt lat="42.6653083" lon="11.72881"><ele>466.0</ele><time>2026-04-18T08:24:58.765Z</time></trkpt><trkpt lat="42.66524" lon="11.7286733"><ele>466.0</ele><time>2026-04-18T08:24:59.765Z</time></trkpt><trkpt lat="42.6651833" lon="11.7285417"><ele>466.0</ele><time>2026-04-18T08:25:00.765Z</time></trkpt><trkpt lat="42.6651217" lon="11.7284133"><ele>465.6</ele><time>2026-04-18T08:25:01.765Z</time></trkpt><trkpt lat="42.66506" lon="11.72829"><ele>465.20000000000005</ele><time>2026-04-18T08:25:02.765Z</time></trkpt><trkpt lat="42.665005" lon="11.7281667"><ele>464.79999999999995</ele><time>2026-04-18T08:25:03.765Z</time></trkpt><trkpt lat="42.6649567" lon="11.728035"><ele>464.4</ele><time>2026-04-18T08:25:04.765Z</time></trkpt><trkpt lat="42.6649117" lon="11.7278933"><ele>464.0</ele><time>2026-04-18T08:25:05.765Z</time></trkpt><trkpt lat="42.6648583" lon="11.7277517"><ele>463.6</ele><time>2026-04-18T08:25:06.765Z</time></trkpt><trkpt lat="42.6648117" lon="11.7276067"><ele>463.2</ele><time>2026-04-18T08:25:07.765Z</time></trkpt><trkpt lat="42.66478" lon="11.7274683"><ele>462.80000000000007</ele><time>2026-04-18T08:25:08.765Z</time></trkpt><trkpt lat="42.6647433" lon="11.72735"><ele>462.40000000000003</ele><time>2026-04-18T08:25:09.765Z</time></trkpt><trkpt lat="42.6647033" lon="11.72724"><ele>462.0</ele><time>2026-04-18T08:25:10.765Z</time></trkpt><trkpt lat="42.664655" lon="11.72713"><ele>462.0</ele><time>2026-04-18T08:25:11.765Z</time></trkpt><trkpt lat="42.6646033" lon="11.7270267"><ele>462.0</ele><time>2026-04-18T08:25:12.764Z</time></trkpt><trkpt lat="42.6645567" lon="11.7269283"><ele>462.0</ele><time>2026-04-18T08:25:13.765Z</time></trkpt><trkpt lat="42.66451" lon="11.72683"><ele>462.0</ele><time>2026-04-18T08:25:14.765Z</time></trkpt><trkpt lat="42.6644717" lon="11.7267333"><ele>462.0</ele><time>2026-04-18T08:25:15.765Z</time></trkpt><trkpt lat="42.66443" lon="11.7266333"><ele>462.0</ele><time>2026-04-18T08:25:16.765Z</time></trkpt><trkpt lat="42.6643883" lon="11.726535"><ele>461.2857142857143</ele><time>2026-04-18T08:25:17.765Z</time></trkpt><trkpt lat="42.6643483" lon="11.7264433"><ele>460.57142857142856</ele><time>2026-04-18T08:25:18.765Z</time></trkpt><trkpt lat="42.6642983" lon="11.726355"><ele>459.8571428571429</ele><time>2026-04-18T08:25:19.765Z</time></trkpt><trkpt lat="42.6642483" lon="11.7262783"><ele>459.14285714285717</ele><time>2026-04-18T08:25:20.765Z</time></trkpt><trkpt lat="42.6642" lon="11.7262083"><ele>458.42857142857144</ele><time>2026-04-18T08:25:21.765Z</time></trkpt><trkpt lat="42.6641633" lon="11.7261267"><ele>457.7142857142858</ele><time>2026-04-18T08:25:22.765Z</time></trkpt><trkpt lat="42.66414" lon="11.7260417"><ele>457.00000000000006</ele><time>2026-04-18T08:25:23.765Z</time></trkpt><trkpt lat="42.664115" lon="11.725955"><ele>456.50000000000006</ele><time>2026-04-18T08:25:24.765Z</time></trkpt><trkpt lat="42.6641" lon="11.72587"><ele>456.0</ele><time>2026-04-18T08:25:25.765Z</time></trkpt><trkpt lat="42.6640833" lon="11.72571"><ele>455.5</ele><time>2026-04-18T08:25:27.765Z</time></trkpt><trkpt lat="42.6640617" lon="11.7256283"><ele>455.0</ele><time>2026-04-18T08:25:28.765Z</time></trkpt><trkpt lat="42.664035" lon="11.7255417"><ele>454.50000000000006</ele><time>2026-04-18T08:25:29.765Z</time></trkpt><trkpt lat="42.66401" lon="11.7254517"><ele>454.0</ele><time>2026-04-18T08:25:30.765Z</time></trkpt><trkpt lat="42.6639683" lon="11.7253017"><ele>453.0</ele><time>2026-04-18T08:25:32.765Z</time></trkpt><trkpt lat="42.663925" lon="11.7251433"><ele>452.0</ele><time>2026-04-18T08:25:34.765Z</time></trkpt><trkpt lat="42.6638817" lon="11.7249833"><ele>451.0</ele><time>2026-04-18T08:25:36.765Z</time></trkpt><trkpt lat="42.6638367" lon="11.7248317"><ele>450.0</ele><time>2026-04-18T08:25:38.765Z</time></trkpt><trkpt lat="42.6637983" lon="11.7246767"><ele>450.0</ele><time>2026-04-18T08:25:40.765Z</time></trkpt><trkpt lat="42.663775" lon="11.7245967"><ele>450.0</ele><time>2026-04-18T08:25:41.765Z</time></trkpt><trkpt lat="42.6637383" lon="11.72445"><ele>450.0</ele><time>2026-04-18T08:25:43.765Z</time></trkpt><trkpt lat="42.663725" lon="11.724325"><ele>450.0</ele><time>2026-04-18T08:25:45.765Z</time></trkpt><trkpt lat="42.6637167" lon="11.7242017"><ele>450.0</ele><time>2026-04-18T08:25:47.765Z</time></trkpt><trkpt lat="42.66372" lon="11.7240783"><ele>449.6</ele><time>2026-04-18T08:25:49.765Z</time></trkpt><trkpt lat="42.663715" lon="11.7239483"><ele>449.2</ele><time>2026-04-18T08:25:51.765Z</time></trkpt><trkpt lat="42.6637033" lon="11.723795"><ele>448.79999999999995</ele><time>2026-04-18T08:25:53.765Z</time></trkpt><trkpt lat="42.6636667" lon="11.7236533"><ele>448.4</ele><time>2026-04-18T08:25:55.765Z</time></trkpt><trkpt lat="42.663605" lon="11.7235233"><ele>448.0</ele><time>2026-04-18T08:25:57.765Z</time></trkpt><trkpt lat="42.663525" lon="11.7234133"><ele>446.0</ele><time>2026-04-18T08:25:59.765Z</time></trkpt><trkpt lat="42.663445" lon="11.723315"><ele>443.99999999999994</ele><time>2026-04-18T08:26:01.765Z</time></trkpt><trkpt lat="42.6633717" lon="11.7232133"><ele>441.99999999999994</ele><time>2026-04-18T08:26:03.764Z</time></trkpt><trkpt lat="42.6633417" lon="11.7231167"><ele>440.0</ele><time>2026-04-18T08:26:06.765Z</time></trkpt><trkpt lat="42.6633333" lon="11.7230267"><ele>438.0</ele><time>2026-04-18T08:26:08.765Z</time></trkpt><trkpt lat="42.6633117" lon="11.7228967"><ele>438.0</ele><time>2026-04-18T08:26:11.765Z</time></trkpt><trkpt lat="42.66331" lon="11.722795"><ele>437.99999999999994</ele><time>2026-04-18T08:26:13.764Z</time></trkpt><trkpt lat="42.663295" lon="11.7226533"><ele>437.99999999999994</ele><time>2026-04-18T08:26:15.765Z</time></trkpt><trkpt lat="42.6632733" lon="11.7225033"><ele>438.0</ele><time>2026-04-18T08:26:17.765Z</time></trkpt><trkpt lat="42.66326" lon="11.722345"><ele>438.0</ele><time>2026-04-18T08:26:19.765Z</time></trkpt><trkpt lat="42.6632517" lon="11.7221917"><ele>437.5</ele><time>2026-04-18T08:26:21.765Z</time></trkpt><trkpt lat="42.6632333" lon="11.722075"><ele>437.0</ele><time>2026-04-18T08:26:23.764Z</time></trkpt><trkpt lat="42.6632217" lon="11.7219767"><ele>436.5</ele><time>2026-04-18T08:26:25.765Z</time></trkpt><trkpt lat="42.6632" lon="11.721865"><ele>436.0</ele><time>2026-04-18T08:26:28.765Z</time></trkpt><trkpt lat="42.663185" lon="11.7217683"><ele>435.5</ele><time>2026-04-18T08:26:31.764Z</time></trkpt><trkpt lat="42.6631633" lon="11.721655"><ele>435.0</ele><time>2026-04-18T08:26:34.765Z</time></trkpt><trkpt lat="42.663125" lon="11.7215783"><ele>434.5</ele><time>2026-04-18T08:26:36.765Z</time></trkpt><trkpt lat="42.6630483" lon="11.721545"><ele>434.0</ele><time>2026-04-18T08:26:38.764Z</time></trkpt><trkpt lat="42.6629867" lon="11.72151"><ele>433.5</ele><time>2026-04-18T08:26:40.765Z</time></trkpt><trkpt lat="42.6629117" lon="11.7214433"><ele>433.0</ele><time>2026-04-18T08:26:43.765Z</time></trkpt><trkpt lat="42.6628717" lon="11.7213717"><ele>432.5</ele><time>2026-04-18T08:26:45.765Z</time></trkpt><trkpt lat="42.6628467" lon="11.7212383"><ele>432.0</ele><time>2026-04-18T08:26:47.765Z</time></trkpt><trkpt lat="42.6628133" lon="11.7210733"><ele>431.3333333333333</ele><time>2026-04-18T08:26:49.765Z</time></trkpt><trkpt lat="42.6627917" lon="11.7209733"><ele>430.66666666666663</ele><time>2026-04-18T08:26:50.765Z</time></trkpt><trkpt lat="42.6627733" lon="11.7208817"><ele>430.0</ele><time>2026-04-18T08:26:51.765Z</time></trkpt><trkpt lat="42.662745" lon="11.72074"><ele>429.3333333333333</ele><time>2026-04-18T08:26:53.765Z</time></trkpt><trkpt lat="42.66271" lon="11.7205833"><ele>428.66666666666663</ele><time>2026-04-18T08:26:55.765Z</time></trkpt><trkpt lat="42.6626917" lon="11.720495"><ele>428.0</ele><time>2026-04-18T08:26:56.765Z</time></trkpt><trkpt lat="42.6626783" lon="11.720405"><ele>427.99999999999994</ele><time>2026-04-18T08:26:57.765Z</time></trkpt><trkpt lat="42.6626617" lon="11.7203117"><ele>428.0</ele><time>2026-04-18T08:26:58.765Z</time></trkpt><trkpt lat="42.6626417" lon="11.720225"><ele>428.0</ele><time>2026-04-18T08:26:59.765Z</time></trkpt><trkpt lat="42.6626183" lon="11.7201417"><ele>428.0</ele><time>2026-04-18T08:27:00.765Z</time></trkpt><trkpt lat="42.6625883" lon="11.720005"><ele>427.99999999999994</ele><time>2026-04-18T08:27:02.765Z</time></trkpt><trkpt lat="42.6625733" lon="11.7198933"><ele>428.0</ele><time>2026-04-18T08:27:04.765Z</time></trkpt><trkpt lat="42.66256" lon="11.7197967"><ele>428.0</ele><time>2026-04-18T08:27:07.765Z</time></trkpt><trkpt lat="42.662565" lon="11.7196917"><ele>427.99999999999994</ele><time>2026-04-18T08:27:16.765Z</time></trkpt><trkpt lat="42.6626617" lon="11.719755"><ele>427.99999999999994</ele><time>2026-04-18T08:27:20.765Z</time></trkpt><trkpt lat="42.6627183" lon="11.719835"><ele>428.0</ele><time>2026-04-18T08:27:21.765Z</time></trkpt><trkpt lat="42.6627933" lon="11.71993"><ele>428.0</ele><time>2026-04-18T08:27:22.765Z</time></trkpt><trkpt lat="42.6628917" lon="11.7200183"><ele>427.0</ele><time>2026-04-18T08:27:23.765Z</time></trkpt><trkpt lat="42.6629933" lon="11.7200917"><ele>426.0</ele><time>2026-04-18T08:27:24.765Z</time></trkpt><trkpt lat="42.663115" lon="11.720145"><ele>425.0</ele><time>2026-04-18T08:27:25.765Z</time></trkpt><trkpt lat="42.6632467" lon="11.7201817"><ele>424.0</ele><time>2026-04-18T08:27:26.765Z</time></trkpt><trkpt lat="42.6633783" lon="11.7202117"><ele>424.0</ele><time>2026-04-18T08:27:27.765Z</time></trkpt><trkpt lat="42.6635167" lon="11.7202317"><ele>424.0</ele><time>2026-04-18T08:27:28.764Z</time></trkpt><trkpt lat="42.6636583" lon="11.7202483"><ele>424.0</ele><time>2026-04-18T08:27:29.765Z</time></trkpt><trkpt lat="42.6637967" lon="11.7202667"><ele>424.0</ele><time>2026-04-18T08:27:30.765Z</time></trkpt><trkpt lat="42.6639367" lon="11.7202883"><ele>424.5</ele><time>2026-04-18T08:27:31.765Z</time></trkpt><trkpt lat="42.664075" lon="11.7202983"><ele>425.0</ele><time>2026-04-18T08:27:32.764Z</time></trkpt><trkpt lat="42.66422" lon="11.7203183"><ele>425.5</ele><time>2026-04-18T08:27:33.764Z</time></trkpt><trkpt lat="42.6643633" lon="11.7203383"><ele>426.0</ele><time>2026-04-18T08:27:34.765Z</time></trkpt><trkpt lat="42.6644933" lon="11.7203617"><ele>426.0</ele><time>2026-04-18T08:27:35.765Z</time></trkpt><trkpt lat="42.664615" lon="11.72038"><ele>426.0</ele><time>2026-04-18T08:27:36.765Z</time></trkpt><trkpt lat="42.6647367" lon="11.7204017"><ele>426.0</ele><time>2026-04-18T08:27:37.765Z</time></trkpt><trkpt lat="42.6648467" lon="11.7204317"><ele>426.0</ele><time>2026-04-18T08:27:38.765Z</time></trkpt><trkpt lat="42.6649533" lon="11.720495"><ele>426.0</ele><time>2026-04-18T08:27:39.765Z</time></trkpt><trkpt lat="42.6650533" lon="11.72059"><ele>426.0</ele><time>2026-04-18T08:27:40.765Z</time></trkpt><trkpt lat="42.6651417" lon="11.7207017"><ele>426.0</ele><time>2026-04-18T08:27:41.765Z</time></trkpt><trkpt lat="42.6652367" lon="11.7207933"><ele>426.0</ele><time>2026-04-18T08:27:42.765Z</time></trkpt><trkpt lat="42.6653367" lon="11.7208717"><ele>424.5</ele><time>2026-04-18T08:27:43.765Z</time></trkpt><trkpt lat="42.6654533" lon="11.7209433"><ele>423.0</ele><time>2026-04-18T08:27:44.765Z</time></trkpt><trkpt lat="42.6655767" lon="11.7210117"><ele>421.5</ele><time>2026-04-18T08:27:45.765Z</time></trkpt><trkpt lat="42.6656883" lon="11.72107"><ele>420.0</ele><time>2026-04-18T08:27:46.764Z</time></trkpt><trkpt lat="42.66579" lon="11.7211067"><ele>420.0</ele><time>2026-04-18T08:27:47.765Z</time></trkpt><trkpt lat="42.6659" lon="11.7211133"><ele>420.0</ele><time>2026-04-18T08:27:48.765Z</time></trkpt><trkpt lat="42.6659983" lon="11.7210883"><ele>420.0</ele><time>2026-04-18T08:27:49.765Z</time></trkpt><trkpt lat="42.6660967" lon="11.721025"><ele>420.0</ele><time>2026-04-18T08:27:50.765Z</time></trkpt><trkpt lat="42.6661933" lon="11.72093"><ele>420.0</ele><time>2026-04-18T08:27:51.765Z</time></trkpt><trkpt lat="42.6662783" lon="11.720795"><ele>423.75</ele><time>2026-04-18T08:27:52.765Z</time></trkpt><trkpt lat="42.666365" lon="11.720645"><ele>427.5</ele><time>2026-04-18T08:27:53.765Z</time></trkpt><trkpt lat="42.666455" lon="11.7205133"><ele>431.25</ele><time>2026-04-18T08:27:54.765Z</time></trkpt><trkpt lat="42.66654" lon="11.7204117"><ele>435.0</ele><time>2026-04-18T08:27:55.765Z</time></trkpt><trkpt lat="42.6666383" lon="11.720345"><ele>435.0</ele><time>2026-04-18T08:27:56.765Z</time></trkpt><trkpt lat="42.6667367" lon="11.7203083"><ele>435.0</ele><time>2026-04-18T08:27:57.765Z</time></trkpt><trkpt lat="42.6668433" lon="11.7202983"><ele>435.0</ele><time>2026-04-18T08:27:58.765Z</time></trkpt><trkpt lat="42.666965" lon="11.72034"><ele>435.0</ele><time>2026-04-18T08:27:59.764Z</time></trkpt><trkpt lat="42.6671017" lon="11.7203933"><ele>433.5</ele><time>2026-04-18T08:28:00.765Z</time></trkpt><trkpt lat="42.6672483" lon="11.72046"><ele>432.0</ele><time>2026-04-18T08:28:01.765Z</time></trkpt><trkpt lat="42.6673883" lon="11.7205317"><ele>430.5</ele><time>2026-04-18T08:28:02.765Z</time></trkpt><trkpt lat="42.667515" lon="11.7206033"><ele>429.0</ele><time>2026-04-18T08:28:03.765Z</time></trkpt><trkpt lat="42.6676267" lon="11.7206817"><ele>429.0</ele><time>2026-04-18T08:28:04.765Z</time></trkpt><trkpt lat="42.6677217" lon="11.7207717"><ele>429.0</ele><time>2026-04-18T08:28:05.764Z</time></trkpt><trkpt lat="42.6678067" lon="11.7208833"><ele>429.0</ele><time>2026-04-18T08:28:06.765Z</time></trkpt><trkpt lat="42.667885" lon="11.721005"><ele>429.0</ele><time>2026-04-18T08:28:07.765Z</time></trkpt><trkpt lat="42.6679783" lon="11.7211067"><ele>430.25</ele><time>2026-04-18T08:28:08.765Z</time></trkpt><trkpt lat="42.6680917" lon="11.7212033"><ele>431.5</ele><time>2026-04-18T08:28:09.765Z</time></trkpt><trkpt lat="42.6682267" lon="11.7212583"><ele>432.75</ele><time>2026-04-18T08:28:10.765Z</time></trkpt><trkpt lat="42.6683733" lon="11.7213"><ele>434.0</ele><time>2026-04-18T08:28:11.765Z</time></trkpt><trkpt lat="42.6685233" lon="11.721335"><ele>433.25</ele><time>2026-04-18T08:28:12.765Z</time></trkpt><trkpt lat="42.66867" lon="11.7213767"><ele>432.5</ele><time>2026-04-18T08:28:13.765Z</time></trkpt><trkpt lat="42.6688183" lon="11.7214133"><ele>431.75</ele><time>2026-04-18T08:28:14.765Z</time></trkpt><trkpt lat="42.6689533" lon="11.72145"><ele>431.0</ele><time>2026-04-18T08:28:15.765Z</time></trkpt><trkpt lat="42.6690817" lon="11.721485"><ele>431.0</ele><time>2026-04-18T08:28:16.765Z</time></trkpt><trkpt lat="42.669205" lon="11.7215217"><ele>431.0</ele><time>2026-04-18T08:28:17.765Z</time></trkpt><trkpt lat="42.66932" lon="11.7215567"><ele>431.0</ele><time>2026-04-18T08:28:18.765Z</time></trkpt><trkpt lat="42.669425" lon="11.7215733"><ele>431.0</ele><time>2026-04-18T08:28:19.764Z</time></trkpt><trkpt lat="42.6695183" lon="11.721575"><ele>431.0</ele><time>2026-04-18T08:28:20.765Z</time></trkpt><trkpt lat="42.6696033" lon="11.7215383"><ele>430.6</ele><time>2026-04-18T08:28:21.764Z</time></trkpt><trkpt lat="42.6696917" lon="11.7214633"><ele>430.20000000000005</ele><time>2026-04-18T08:28:22.765Z</time></trkpt><trkpt lat="42.6697583" lon="11.721365"><ele>429.79999999999995</ele><time>2026-04-18T08:28:23.765Z</time></trkpt><trkpt lat="42.6698033" lon="11.7212283"><ele>429.4</ele><time>2026-04-18T08:28:24.765Z</time></trkpt><trkpt lat="42.6698433" lon="11.7210733"><ele>429.0</ele><time>2026-04-18T08:28:25.765Z</time></trkpt><trkpt lat="42.6698867" lon="11.7209183"><ele>429.25</ele><time>2026-04-18T08:28:26.765Z</time></trkpt><trkpt lat="42.6699433" lon="11.7207683"><ele>429.5</ele><time>2026-04-18T08:28:27.765Z</time></trkpt><trkpt lat="42.670035" lon="11.720635"><ele>429.75</ele><time>2026-04-18T08:28:28.764Z</time></trkpt><trkpt lat="42.67015" lon="11.7205067"><ele>430.0</ele><time>2026-04-18T08:28:29.765Z</time></trkpt><trkpt lat="42.6702967" lon="11.7203783"><ele>430.0</ele><time>2026-04-18T08:28:30.764Z</time></trkpt><trkpt lat="42.6704667" lon="11.7202383"><ele>430.0</ele><time>2026-04-18T08:28:31.765Z</time></trkpt><trkpt lat="42.6706183" lon="11.7201117"><ele>430.0</ele><time>2026-04-18T08:28:32.765Z</time></trkpt><trkpt lat="42.6707583" lon="11.7199833"><ele>428.75</ele><time>2026-04-18T08:28:33.765Z</time></trkpt><trkpt lat="42.6708883" lon="11.7198767"><ele>427.5</ele><time>2026-04-18T08:28:34.765Z</time></trkpt><trkpt lat="42.6710117" lon="11.719775"><ele>426.25</ele><time>2026-04-18T08:28:35.765Z</time></trkpt><trkpt lat="42.6711317" lon="11.7196683"><ele>425.0</ele><time>2026-04-18T08:28:36.765Z</time></trkpt><trkpt lat="42.6712483" lon="11.7195867"><ele>425.0</ele><time>2026-04-18T08:28:37.765Z</time></trkpt><trkpt lat="42.67137" lon="11.71954"><ele>425.0</ele><time>2026-04-18T08:28:38.765Z</time></trkpt><trkpt lat="42.6715" lon="11.7195317"><ele>425.0</ele><time>2026-04-18T08:28:39.765Z</time></trkpt><trkpt lat="42.6716317" lon="11.7195433"><ele>425.0</ele><time>2026-04-18T08:28:40.765Z</time></trkpt><trkpt lat="42.6717683" lon="11.7195733"><ele>425.0</ele><time>2026-04-18T08:28:41.765Z</time></trkpt><trkpt lat="42.671885" lon="11.7196033"><ele>425.0</ele><time>2026-04-18T08:28:42.764Z</time></trkpt><trkpt lat="42.67201" lon="11.7196433"><ele>425.0</ele><time>2026-04-18T08:28:43.765Z</time></trkpt><trkpt lat="42.6721233" lon="11.7197117"><ele>425.0</ele><time>2026-04-18T08:28:44.765Z</time></trkpt><trkpt lat="42.6722333" lon="11.7198083"><ele>426.0</ele><time>2026-04-18T08:28:45.765Z</time></trkpt><trkpt lat="42.6723417" lon="11.71992"><ele>427.0</ele><time>2026-04-18T08:28:46.765Z</time></trkpt><trkpt lat="42.6724383" lon="11.720035"><ele>428.0</ele><time>2026-04-18T08:28:47.765Z</time></trkpt><trkpt lat="42.6725283" lon="11.7201683"><ele>429.0</ele><time>2026-04-18T08:28:48.765Z</time></trkpt><trkpt lat="42.6726033" lon="11.720295"><ele>429.0</ele><time>2026-04-18T08:28:49.765Z</time></trkpt><trkpt lat="42.67268" lon="11.7204133"><ele>429.0</ele><time>2026-04-18T08:28:50.765Z</time></trkpt><trkpt lat="42.6727583" lon="11.7205167"><ele>429.0</ele><time>2026-04-18T08:28:51.765Z</time></trkpt><trkpt lat="42.6728533" lon="11.720575"><ele>429.0</ele><time>2026-04-18T08:28:52.765Z</time></trkpt><trkpt lat="42.67295" lon="11.7206017"><ele>429.0</ele><time>2026-04-18T08:28:53.765Z</time></trkpt><trkpt lat="42.6730667" lon="11.7206017"><ele>427.0</ele><time>2026-04-18T08:28:54.765Z</time></trkpt><trkpt lat="42.67322" lon="11.7205717"><ele>425.0</ele><time>2026-04-18T08:28:55.765Z</time></trkpt><trkpt lat="42.673385" lon="11.7205417"><ele>423.0</ele><time>2026-04-18T08:28:56.765Z</time></trkpt><trkpt lat="42.67353" lon="11.7205233"><ele>423.0</ele><time>2026-04-18T08:28:57.765Z</time></trkpt><trkpt lat="42.6736817" lon="11.72051"><ele>423.0</ele><time>2026-04-18T08:28:58.765Z</time></trkpt><trkpt lat="42.6738217" lon="11.72051"><ele>423.0</ele><time>2026-04-18T08:28:59.765Z</time></trkpt><trkpt lat="42.673945" lon="11.7204983"><ele>423.0</ele><time>2026-04-18T08:29:00.765Z</time></trkpt><trkpt lat="42.6740583" lon="11.7204617"><ele>423.0</ele><time>2026-04-18T08:29:01.765Z</time></trkpt><trkpt lat="42.6741683" lon="11.7203883"><ele>423.0</ele><time>2026-04-18T08:29:02.765Z</time></trkpt><trkpt lat="42.6742817" lon="11.720285"><ele>423.0</ele><time>2026-04-18T08:29:03.765Z</time></trkpt><trkpt lat="42.6743867" lon="11.7201833"><ele>423.0</ele><time>2026-04-18T08:29:04.764Z</time></trkpt><trkpt lat="42.6744933" lon="11.7200783"><ele>421.5</ele><time>2026-04-18T08:29:05.764Z</time></trkpt><trkpt lat="42.674595" lon="11.7199967"><ele>420.0</ele><time>2026-04-18T08:29:06.765Z</time></trkpt><trkpt lat="42.674715" lon="11.7199233"><ele>418.5</ele><time>2026-04-18T08:29:07.765Z</time></trkpt><trkpt lat="42.6748533" lon="11.71988"><ele>417.0</ele><time>2026-04-18T08:29:08.765Z</time></trkpt><trkpt lat="42.6750083" lon="11.7198367"><ele>417.0</ele><time>2026-04-18T08:29:09.765Z</time></trkpt><trkpt lat="42.6751617" lon="11.7198017"><ele>417.0</ele><time>2026-04-18T08:29:10.765Z</time></trkpt><trkpt lat="42.675315" lon="11.7197717"><ele>417.0</ele><time>2026-04-18T08:29:11.765Z</time></trkpt><trkpt lat="42.675465" lon="11.719745"><ele>417.5</ele><time>2026-04-18T08:29:12.765Z</time></trkpt><trkpt lat="42.67561" lon="11.7197333"><ele>418.0</ele><time>2026-04-18T08:29:13.765Z</time></trkpt><trkpt lat="42.6757517" lon="11.71973"><ele>418.5</ele><time>2026-04-18T08:29:14.765Z</time></trkpt><trkpt lat="42.6759067" lon="11.7197467"><ele>419.0</ele><time>2026-04-18T08:29:15.765Z</time></trkpt><trkpt lat="42.6760567" lon="11.71977"><ele>418.0</ele><time>2026-04-18T08:29:16.764Z</time></trkpt><trkpt lat="42.67622" lon="11.719815"><ele>417.0</ele><time>2026-04-18T08:29:17.765Z</time></trkpt><trkpt lat="42.67639" lon="11.7198833"><ele>416.0</ele><time>2026-04-18T08:29:18.765Z</time></trkpt><trkpt lat="42.67657" lon="11.7199467"><ele>416.0</ele><time>2026-04-18T08:29:19.765Z</time></trkpt><trkpt lat="42.67674" lon="11.7200117"><ele>416.0</ele><time>2026-04-18T08:29:20.765Z</time></trkpt><trkpt lat="42.676905" lon="11.720075"><ele>416.0</ele><time>2026-04-18T08:29:21.765Z</time></trkpt><trkpt lat="42.67706" lon="11.7201333"><ele>415.0</ele><time>2026-04-18T08:29:22.765Z</time></trkpt><trkpt lat="42.677195" lon="11.7201883"><ele>414.0</ele><time>2026-04-18T08:29:23.765Z</time></trkpt><trkpt lat="42.6773267" lon="11.7202517"><ele>413.0</ele><time>2026-04-18T08:29:24.765Z</time></trkpt><trkpt lat="42.6774533" lon="11.7202983"><ele>412.0</ele><time>2026-04-18T08:29:25.765Z</time></trkpt><trkpt lat="42.6775833" lon="11.72033"><ele>412.0</ele><time>2026-04-18T08:29:26.765Z</time></trkpt><trkpt lat="42.6777117" lon="11.720335"><ele>412.0</ele><time>2026-04-18T08:29:27.765Z</time></trkpt><trkpt lat="42.6778483" lon="11.7203167"><ele>412.0</ele><time>2026-04-18T08:29:28.765Z</time></trkpt><trkpt lat="42.677995" lon="11.72026"><ele>412.0</ele><time>2026-04-18T08:29:29.765Z</time></trkpt><trkpt lat="42.6781433" lon="11.7202067"><ele>412.0</ele><time>2026-04-18T08:29:30.765Z</time></trkpt><trkpt lat="42.678295" lon="11.7201467"><ele>412.0</ele><time>2026-04-18T08:29:31.764Z</time></trkpt><trkpt lat="42.6784383" lon="11.7201067"><ele>412.0</ele><time>2026-04-18T08:29:32.765Z</time></trkpt><trkpt lat="42.6785733" lon="11.7200533"><ele>412.0</ele><time>2026-04-18T08:29:33.765Z</time></trkpt><trkpt lat="42.6786983" lon="11.720015"><ele>411.33333333333337</ele><time>2026-04-18T08:29:34.765Z</time></trkpt><trkpt lat="42.6788367" lon="11.719975"><ele>410.66666666666663</ele><time>2026-04-18T08:29:35.765Z</time></trkpt><trkpt lat="42.6789933" lon="11.7199567"><ele>410.0</ele><time>2026-04-18T08:29:36.765Z</time></trkpt><trkpt lat="42.6791633" lon="11.71996"><ele>410.0</ele><time>2026-04-18T08:29:37.765Z</time></trkpt><trkpt lat="42.679345" lon="11.719975"><ele>410.0</ele><time>2026-04-18T08:29:38.764Z</time></trkpt><trkpt lat="42.679535" lon="11.7199917"><ele>410.0</ele><time>2026-04-18T08:29:39.765Z</time></trkpt><trkpt lat="42.6797183" lon="11.7200033"><ele>409.66666666666663</ele><time>2026-04-18T08:29:40.765Z</time></trkpt><trkpt lat="42.6798917" lon="11.7200233"><ele>409.33333333333337</ele><time>2026-04-18T08:29:41.765Z</time></trkpt><trkpt lat="42.680055" lon="11.7200317"><ele>409.0</ele><time>2026-04-18T08:29:42.765Z</time></trkpt><trkpt lat="42.6802017" lon="11.7200267"><ele>408.25</ele><time>2026-04-18T08:29:43.765Z</time></trkpt><trkpt lat="42.68033" lon="11.7200067"><ele>407.5</ele><time>2026-04-18T08:29:44.765Z</time></trkpt><trkpt lat="42.6804417" lon="11.7199933"><ele>406.75</ele><time>2026-04-18T08:29:45.765Z</time></trkpt><trkpt lat="42.6805483" lon="11.7199617"><ele>406.0</ele><time>2026-04-18T08:29:46.765Z</time></trkpt><trkpt lat="42.6806483" lon="11.7198983"><ele>406.0</ele><time>2026-04-18T08:29:47.765Z</time></trkpt><trkpt lat="42.6807267" lon="11.7198017"><ele>406.0</ele><time>2026-04-18T08:29:48.765Z</time></trkpt><trkpt lat="42.6807833" lon="11.7196933"><ele>406.0</ele><time>2026-04-18T08:29:49.765Z</time></trkpt><trkpt lat="42.6808167" lon="11.7195783"><ele>406.0</ele><time>2026-04-18T08:29:50.765Z</time></trkpt><trkpt lat="42.6808233" lon="11.7194617"><ele>406.0</ele><time>2026-04-18T08:29:51.765Z</time></trkpt><trkpt lat="42.6808017" lon="11.7193467"><ele>406.75</ele><time>2026-04-18T08:29:52.764Z</time></trkpt><trkpt lat="42.68075" lon="11.7192467"><ele>407.5</ele><time>2026-04-18T08:29:53.765Z</time></trkpt><trkpt lat="42.680675" lon="11.7191517"><ele>408.25</ele><time>2026-04-18T08:29:54.765Z</time></trkpt><trkpt lat="42.680565" lon="11.7190483"><ele>409.0</ele><time>2026-04-18T08:29:55.765Z</time></trkpt><trkpt lat="42.68043" lon="11.7189367"><ele>409.0</ele><time>2026-04-18T08:29:56.765Z</time></trkpt><trkpt lat="42.6802833" lon="11.7188233"><ele>409.0</ele><time>2026-04-18T08:29:57.765Z</time></trkpt><trkpt lat="42.6801467" lon="11.7187183"><ele>409.0</ele><time>2026-04-18T08:29:58.765Z</time></trkpt><trkpt lat="42.6800217" lon="11.718615"><ele>408.0</ele><time>2026-04-18T08:29:59.764Z</time></trkpt><trkpt lat="42.67993" lon="11.7185133"><ele>407.0</ele><time>2026-04-18T08:30:00.765Z</time></trkpt><trkpt lat="42.6798467" lon="11.7184067"><ele>406.0</ele><time>2026-04-18T08:30:01.765Z</time></trkpt><trkpt lat="42.679775" lon="11.718285"><ele>405.0</ele><time>2026-04-18T08:30:02.765Z</time></trkpt><trkpt lat="42.6797383" lon="11.7181217"><ele>405.0</ele><time>2026-04-18T08:30:03.765Z</time></trkpt><trkpt lat="42.6797217" lon="11.71794"><ele>405.0</ele><time>2026-04-18T08:30:04.765Z</time></trkpt><trkpt lat="42.6797033" lon="11.7177667"><ele>405.0</ele><time>2026-04-18T08:30:05.765Z</time></trkpt><trkpt lat="42.6796583" lon="11.717615"><ele>405.0</ele><time>2026-04-18T08:30:06.765Z</time></trkpt><trkpt lat="42.67959" lon="11.7174917"><ele>405.6</ele><time>2026-04-18T08:30:07.765Z</time></trkpt><trkpt lat="42.6795083" lon="11.7173883"><ele>406.2</ele><time>2026-04-18T08:30:08.765Z</time></trkpt><trkpt lat="42.679425" lon="11.717295"><ele>406.79999999999995</ele><time>2026-04-18T08:30:09.765Z</time></trkpt><trkpt lat="42.679355" lon="11.717195"><ele>407.4</ele><time>2026-04-18T08:30:10.765Z</time></trkpt><trkpt lat="42.6793033" lon="11.71708"><ele>408.0</ele><time>2026-04-18T08:30:11.765Z</time></trkpt><trkpt lat="42.6792717" lon="11.716955"><ele>404.25</ele><time>2026-04-18T08:30:12.765Z</time></trkpt><trkpt lat="42.679255" lon="11.7168133"><ele>400.5</ele><time>2026-04-18T08:30:13.765Z</time></trkpt><trkpt lat="42.6792733" lon="11.7166383"><ele>396.75</ele><time>2026-04-18T08:30:14.765Z</time></trkpt><trkpt lat="42.6793117" lon="11.7164817"><ele>393.0</ele><time>2026-04-18T08:30:15.765Z</time></trkpt><trkpt lat="42.67937" lon="11.7163467"><ele>393.0</ele><time>2026-04-18T08:30:16.765Z</time></trkpt><trkpt lat="42.67942" lon="11.7162217"><ele>393.0</ele><time>2026-04-18T08:30:17.765Z</time></trkpt><trkpt lat="42.6794283" lon="11.7161083"><ele>393.0</ele><time>2026-04-18T08:30:18.765Z</time></trkpt><trkpt lat="42.6793917" lon="11.7160083"><ele>393.0</ele><time>2026-04-18T08:30:19.765Z</time></trkpt><trkpt lat="42.6793433" lon="11.7159017"><ele>393.0</ele><time>2026-04-18T08:30:20.765Z</time></trkpt><trkpt lat="42.6792667" lon="11.71581"><ele>392.25</ele><time>2026-04-18T08:30:21.765Z</time></trkpt><trkpt lat="42.6791967" lon="11.715695"><ele>391.5</ele><time>2026-04-18T08:30:22.765Z</time></trkpt><trkpt lat="42.679145" lon="11.715565"><ele>390.75</ele><time>2026-04-18T08:30:23.765Z</time></trkpt><trkpt lat="42.6791217" lon="11.71541"><ele>390.0</ele><time>2026-04-18T08:30:24.765Z</time></trkpt><trkpt lat="42.6791317" lon="11.7152533"><ele>389.75</ele><time>2026-04-18T08:30:25.765Z</time></trkpt><trkpt lat="42.6791633" lon="11.715115"><ele>389.5</ele><time>2026-04-18T08:30:26.764Z</time></trkpt><trkpt lat="42.67923" lon="11.7149817"><ele>389.25</ele><time>2026-04-18T08:30:27.765Z</time></trkpt><trkpt lat="42.6793167" lon="11.7148533"><ele>389.0</ele><time>2026-04-18T08:30:28.765Z</time></trkpt><trkpt lat="42.67941" lon="11.7147183"><ele>392.5</ele><time>2026-04-18T08:30:29.765Z</time></trkpt><trkpt lat="42.67951" lon="11.7145783"><ele>396.0</ele><time>2026-04-18T08:30:30.765Z</time></trkpt><trkpt lat="42.6796033" lon="11.71443"><ele>399.5</ele><time>2026-04-18T08:30:31.765Z</time></trkpt><trkpt lat="42.6796983" lon="11.7142833"><ele>403.0</ele><time>2026-04-18T08:30:32.765Z</time></trkpt><trkpt lat="42.679795" lon="11.7141267"><ele>403.0</ele><time>2026-04-18T08:30:33.765Z</time></trkpt><trkpt lat="42.679895" lon="11.7139733"><ele>403.0</ele><time>2026-04-18T08:30:34.764Z</time></trkpt><trkpt lat="42.679995" lon="11.71382"><ele>403.0</ele><time>2026-04-18T08:30:35.765Z</time></trkpt><trkpt lat="42.6800883" lon="11.71368"><ele>403.0</ele><time>2026-04-18T08:30:36.765Z</time></trkpt><trkpt lat="42.6801783" lon="11.71354"><ele>403.25</ele><time>2026-04-18T08:30:37.764Z</time></trkpt><trkpt lat="42.6802583" lon="11.7134133"><ele>403.5</ele><time>2026-04-18T08:30:38.765Z</time></trkpt><trkpt lat="42.6803433" lon="11.7133017"><ele>403.75</ele><time>2026-04-18T08:30:39.765Z</time></trkpt><trkpt lat="42.6804317" lon="11.7132067"><ele>404.0</ele><time>2026-04-18T08:30:40.765Z</time></trkpt><trkpt lat="42.680515" lon="11.713135"><ele>402.66666666666663</ele><time>2026-04-18T08:30:41.765Z</time></trkpt><trkpt lat="42.6805917" lon="11.7130867"><ele>401.3333333333333</ele><time>2026-04-18T08:30:42.765Z</time></trkpt><trkpt lat="42.68069" lon="11.7130083"><ele>400.0</ele><time>2026-04-18T08:30:44.765Z</time></trkpt><trkpt lat="42.6807633" lon="11.7130383"><ele>398.66666666666663</ele><time>2026-04-18T08:30:53.765Z</time></trkpt><trkpt lat="42.6808417" lon="11.7130567"><ele>397.3333333333333</ele><time>2026-04-18T08:30:55.765Z</time></trkpt><trkpt lat="42.6809017" lon="11.71314"><ele>396.0</ele><time>2026-04-18T08:30:57.765Z</time></trkpt><trkpt lat="42.680925" lon="11.7133017"><ele>396.0</ele><time>2026-04-18T08:30:59.765Z</time></trkpt><trkpt lat="42.6809333" lon="11.713405"><ele>396.0</ele><time>2026-04-18T08:31:00.765Z</time></trkpt><trkpt lat="42.6809467" lon="11.7135083"><ele>396.0</ele><time>2026-04-18T08:31:01.764Z</time></trkpt><trkpt lat="42.68097" lon="11.7136033"><ele>396.0</ele><time>2026-04-18T08:31:02.765Z</time></trkpt><trkpt lat="42.6809917" lon="11.7137183"><ele>396.0</ele><time>2026-04-18T08:31:03.765Z</time></trkpt><trkpt lat="42.68101" lon="11.71383"><ele>396.0</ele><time>2026-04-18T08:31:04.765Z</time></trkpt><trkpt lat="42.6810217" lon="11.7139483"><ele>396.8</ele><time>2026-04-18T08:31:05.765Z</time></trkpt><trkpt lat="42.6810367" lon="11.71408"><ele>397.6</ele><time>2026-04-18T08:31:06.765Z</time></trkpt><trkpt lat="42.6810617" lon="11.7142067"><ele>398.4</ele><time>2026-04-18T08:31:07.765Z</time></trkpt><trkpt lat="42.681085" lon="11.7143417"><ele>399.2</ele><time>2026-04-18T08:31:08.765Z</time></trkpt><trkpt lat="42.6811117" lon="11.7144617"><ele>400.0</ele><time>2026-04-18T08:31:09.765Z</time></trkpt><trkpt lat="42.6811567" lon="11.7145733"><ele>400.33333333333337</ele><time>2026-04-18T08:31:10.765Z</time></trkpt><trkpt lat="42.6812167" lon="11.7146667"><ele>400.6666666666667</ele><time>2026-04-18T08:31:11.765Z</time></trkpt><trkpt lat="42.6812933" lon="11.714735"><ele>401.0</ele><time>2026-04-18T08:31:12.765Z</time></trkpt><trkpt lat="42.6813667" lon="11.7147817"><ele>401.33333333333337</ele><time>2026-04-18T08:31:13.765Z</time></trkpt><trkpt lat="42.6814483" lon="11.71481"><ele>401.6666666666667</ele><time>2026-04-18T08:31:14.765Z</time></trkpt><trkpt lat="42.6815333" lon="11.71481"><ele>402.0</ele><time>2026-04-18T08:31:15.764Z</time></trkpt><trkpt lat="42.6816233" lon="11.71479"><ele>402.0</ele><time>2026-04-18T08:31:16.765Z</time></trkpt><trkpt lat="42.6817017" lon="11.7147533"><ele>402.0</ele><time>2026-04-18T08:31:17.765Z</time></trkpt><trkpt lat="42.6817783" lon="11.714705"><ele>402.0</ele><time>2026-04-18T08:31:18.765Z</time></trkpt><trkpt lat="42.6818433" lon="11.714655"><ele>402.0</ele><time>2026-04-18T08:31:19.765Z</time></trkpt><trkpt lat="42.6818983" lon="11.71461"><ele>402.0</ele><time>2026-04-18T08:31:20.764Z</time></trkpt><trkpt lat="42.6819633" lon="11.7145317"><ele>402.0</ele><time>2026-04-18T08:31:22.765Z</time></trkpt><trkpt lat="42.68196" lon="11.71444"><ele>402.0</ele><time>2026-04-18T08:31:25.765Z</time></trkpt><trkpt lat="42.6818683" lon="11.71445"><ele>402.0</ele><time>2026-04-18T08:31:28.765Z</time></trkpt><trkpt lat="42.6817667" lon="11.7144817"><ele>402.0</ele><time>2026-04-18T08:31:30.765Z</time></trkpt><trkpt lat="42.6816467" lon="11.7144317"><ele>402.0</ele><time>2026-04-18T08:31:32.765Z</time></trkpt><trkpt lat="42.6815883" lon="11.7143733"><ele>402.0</ele><time>2026-04-18T08:31:33.765Z</time></trkpt><trkpt lat="42.6815283" lon="11.71429"><ele>398.8333333333333</ele><time>2026-04-18T08:31:35.765Z</time></trkpt><trkpt lat="42.6815467" lon="11.714205"><ele>395.6666666666667</ele><time>2026-04-18T08:31:37.765Z</time></trkpt><trkpt lat="42.6816167" lon="11.714135"><ele>392.5</ele><time>2026-04-18T08:31:39.765Z</time></trkpt><trkpt lat="42.68172" lon="11.714085"><ele>389.33333333333337</ele><time>2026-04-18T08:31:41.765Z</time></trkpt><trkpt lat="42.6818033" lon="11.7140267"><ele>386.1666666666667</ele><time>2026-04-18T08:31:43.765Z</time></trkpt><trkpt lat="42.68187" lon="11.7139633"><ele>383.0</ele><time>2026-04-18T08:31:46.765Z</time></trkpt><trkpt lat="42.6818867" lon="11.71385"><ele>383.0</ele><time>2026-04-18T08:31:49.765Z</time></trkpt><trkpt lat="42.6818733" lon="11.71373"><ele>383.0</ele><time>2026-04-18T08:31:51.765Z</time></trkpt><trkpt lat="42.6818367" lon="11.713605"><ele>383.0</ele><time>2026-04-18T08:31:53.765Z</time></trkpt><trkpt lat="42.68177" lon="11.7134767"><ele>383.0</ele><time>2026-04-18T08:31:55.765Z</time></trkpt><trkpt lat="42.68168" lon="11.713375"><ele>383.0</ele><time>2026-04-18T08:31:57.765Z</time></trkpt><trkpt lat="42.6816017" lon="11.71324"><ele>380.4</ele><time>2026-04-18T08:31:59.764Z</time></trkpt><trkpt lat="42.6815433" lon="11.7131517"><ele>377.79999999999995</ele><time>2026-04-18T08:32:00.765Z</time></trkpt><trkpt lat="42.6814867" lon="11.713035"><ele>375.2</ele><time>2026-04-18T08:32:01.765Z</time></trkpt><trkpt lat="42.6814233" lon="11.7129067"><ele>372.6</ele><time>2026-04-18T08:32:02.765Z</time></trkpt><trkpt lat="42.6813567" lon="11.7127567"><ele>370.0</ele><time>2026-04-18T08:32:03.765Z</time></trkpt><trkpt lat="42.681295" lon="11.7126017"><ele>366.2</ele><time>2026-04-18T08:32:04.765Z</time></trkpt><trkpt lat="42.6812417" lon="11.7124483"><ele>362.4</ele><time>2026-04-18T08:32:05.765Z</time></trkpt><trkpt lat="42.681195" lon="11.7123083"><ele>358.6</ele><time>2026-04-18T08:32:06.764Z</time></trkpt><trkpt lat="42.68115" lon="11.7121867"><ele>354.8</ele><time>2026-04-18T08:32:07.765Z</time></trkpt><trkpt lat="42.6811083" lon="11.7120783"><ele>351.0</ele><time>2026-04-18T08:32:08.765Z</time></trkpt><trkpt lat="42.6810733" lon="11.71197"><ele>348.8333333333333</ele><time>2026-04-18T08:32:09.765Z</time></trkpt><trkpt lat="42.6810517" lon="11.7118633"><ele>346.6666666666667</ele><time>2026-04-18T08:32:10.764Z</time></trkpt><trkpt lat="42.6810367" lon="11.7117567"><ele>344.5</ele><time>2026-04-18T08:32:11.765Z</time></trkpt><trkpt lat="42.6810267" lon="11.7116617"><ele>342.33333333333337</ele><time>2026-04-18T08:32:12.765Z</time></trkpt><trkpt lat="42.6810283" lon="11.7115267"><ele>340.1666666666667</ele><time>2026-04-18T08:32:14.765Z</time></trkpt><trkpt lat="42.6810883" lon="11.71148"><ele>338.0</ele><time>2026-04-18T08:32:16.765Z</time></trkpt><trkpt lat="42.6811567" lon="11.7115583"><ele>338.0</ele><time>2026-04-18T08:32:18.764Z</time></trkpt><trkpt lat="42.6811767" lon="11.7116517"><ele>338.0</ele><time>2026-04-18T08:32:19.765Z</time></trkpt><trkpt lat="42.6811917" lon="11.7117783"><ele>338.0</ele><time>2026-04-18T08:32:20.765Z</time></trkpt><trkpt lat="42.6812033" lon="11.7119383"><ele>338.0</ele><time>2026-04-18T08:32:21.765Z</time></trkpt><trkpt lat="42.68123" lon="11.712085"><ele>338.0</ele><time>2026-04-18T08:32:22.765Z</time></trkpt><trkpt lat="42.6812717" lon="11.7122383"><ele>341.25</ele><time>2026-04-18T08:32:23.765Z</time></trkpt><trkpt lat="42.6813317" lon="11.7123983"><ele>344.5</ele><time>2026-04-18T08:32:24.765Z</time></trkpt><trkpt lat="42.6814033" lon="11.71255"><ele>347.75</ele><time>2026-04-18T08:32:25.765Z</time></trkpt><trkpt lat="42.68147" lon="11.7126917"><ele>351.0</ele><time>2026-04-18T08:32:26.764Z</time></trkpt><trkpt lat="42.6815283" lon="11.71283"><ele>354.1666666666667</ele><time>2026-04-18T08:32:27.764Z</time></trkpt><trkpt lat="42.6815817" lon="11.712965"><ele>357.3333333333333</ele><time>2026-04-18T08:32:28.765Z</time></trkpt><trkpt lat="42.68163" lon="11.7130717"><ele>360.5</ele><time>2026-04-18T08:32:29.765Z</time></trkpt><trkpt lat="42.6816767" lon="11.7131633"><ele>363.66666666666663</ele><time>2026-04-18T08:32:30.764Z</time></trkpt><trkpt lat="42.6817133" lon="11.7132417"><ele>366.8333333333333</ele><time>2026-04-18T08:32:31.765Z</time></trkpt><trkpt lat="42.6817817" lon="11.7133183"><ele>370.0</ele><time>2026-04-18T08:32:33.765Z</time></trkpt><trkpt lat="42.6818517" lon="11.7132883"><ele>370.0</ele><time>2026-04-18T08:32:35.765Z</time></trkpt><trkpt lat="42.6818467" lon="11.71315"><ele>370.0</ele><time>2026-04-18T08:32:37.765Z</time></trkpt><trkpt lat="42.6818083" lon="11.71303"><ele>370.0</ele><time>2026-04-18T08:32:38.765Z</time></trkpt><trkpt lat="42.6817417" lon="11.7128867"><ele>370.0</ele><time>2026-04-18T08:32:39.765Z</time></trkpt><trkpt lat="42.6816683" lon="11.7127317"><ele>365.25</ele><time>2026-04-18T08:32:40.764Z</time></trkpt><trkpt lat="42.6815933" lon="11.7125733"><ele>360.5</ele><time>2026-04-18T08:32:41.765Z</time></trkpt><trkpt lat="42.68151" lon="11.7124033"><ele>355.75</ele><time>2026-04-18T08:32:42.765Z</time></trkpt><trkpt lat="42.6814383" lon="11.7122483"><ele>351.0</ele><time>2026-04-18T08:32:43.765Z</time></trkpt><trkpt lat="42.6813733" lon="11.712105"><ele>351.0</ele><time>2026-04-18T08:32:44.765Z</time></trkpt><trkpt lat="42.6813133" lon="11.7119633"><ele>351.0</ele><time>2026-04-18T08:32:45.765Z</time></trkpt><trkpt lat="42.6812783" lon="11.7118083"><ele>351.0</ele><time>2026-04-18T08:32:46.765Z</time></trkpt><trkpt lat="42.6812683" lon="11.711645"><ele>351.0</ele><time>2026-04-18T08:32:47.765Z</time></trkpt><trkpt lat="42.6812567" lon="11.71148"><ele>348.4</ele><time>2026-04-18T08:32:48.765Z</time></trkpt><trkpt lat="42.681255" lon="11.711325"><ele>345.8</ele><time>2026-04-18T08:32:49.765Z</time></trkpt><trkpt lat="42.68126" lon="11.7111883"><ele>343.2</ele><time>2026-04-18T08:32:50.764Z</time></trkpt><trkpt lat="42.6812633" lon="11.71108"><ele>340.59999999999997</ele><time>2026-04-18T08:32:51.765Z</time></trkpt><trkpt lat="42.6813133" lon="11.7109317"><ele>338.0</ele><time>2026-04-18T08:32:53.765Z</time></trkpt><trkpt lat="42.6813883" lon="11.7108833"><ele>338.0</ele><time>2026-04-18T08:32:55.765Z</time></trkpt><trkpt lat="42.68147" lon="11.7109767"><ele>338.0</ele><time>2026-04-18T08:32:57.765Z</time></trkpt><trkpt lat="42.68147" lon="11.7111583"><ele>338.0</ele><time>2026-04-18T08:32:59.765Z</time></trkpt><trkpt lat="42.68144" lon="11.711275"><ele>338.0</ele><time>2026-04-18T08:33:00.765Z</time></trkpt><trkpt lat="42.681405" lon="11.711395"><ele>338.0</ele><time>2026-04-18T08:33:01.764Z</time></trkpt><trkpt lat="42.6813833" lon="11.71151"><ele>338.0</ele><time>2026-04-18T08:33:02.765Z</time></trkpt><trkpt lat="42.6813867" lon="11.71161"><ele>338.0</ele><time>2026-04-18T08:33:03.765Z</time></trkpt><trkpt lat="42.6814133" lon="11.7117517"><ele>338.0</ele><time>2026-04-18T08:33:05.765Z</time></trkpt><trkpt lat="42.6815133" lon="11.7117333"><ele>338.0</ele><time>2026-04-18T08:33:07.765Z</time></trkpt><trkpt lat="42.6815733" lon="11.7116683"><ele>338.0</ele><time>2026-04-18T08:33:08.765Z</time></trkpt><trkpt lat="42.6816233" lon="11.7115717"><ele>338.0</ele><time>2026-04-18T08:33:09.765Z</time></trkpt><trkpt lat="42.6816667" lon="11.71145"><ele>338.0</ele><time>2026-04-18T08:33:10.765Z</time></trkpt><trkpt lat="42.6816933" lon="11.7112783"><ele>338.0</ele><time>2026-04-18T08:33:11.764Z</time></trkpt><trkpt lat="42.6816917" lon="11.7110333"><ele>338.0</ele><time>2026-04-18T08:33:12.765Z</time></trkpt><trkpt lat="42.681655" lon="11.71079"><ele>338.25</ele><time>2026-04-18T08:33:13.765Z</time></trkpt><trkpt lat="42.68161" lon="11.710585"><ele>338.5</ele><time>2026-04-18T08:33:14.765Z</time></trkpt><trkpt lat="42.6815767" lon="11.7104167"><ele>338.75</ele><time>2026-04-18T08:33:15.765Z</time></trkpt><trkpt lat="42.6815733" lon="11.71027"><ele>339.0</ele><time>2026-04-18T08:33:16.765Z</time></trkpt><trkpt lat="42.6815983" lon="11.71015"><ele>339.0</ele><time>2026-04-18T08:33:17.765Z</time></trkpt><trkpt lat="42.6816317" lon="11.7100583"><ele>339.0</ele><time>2026-04-18T08:33:18.765Z</time></trkpt><trkpt lat="42.6816933" lon="11.709985"><ele>339.0</ele><time>2026-04-18T08:33:19.765Z</time></trkpt><trkpt lat="42.6817783" lon="11.7099217"><ele>339.0</ele><time>2026-04-18T08:33:20.765Z</time></trkpt><trkpt lat="42.6818917" lon="11.70986"><ele>339.0</ele><time>2026-04-18T08:33:21.765Z</time></trkpt><trkpt lat="42.6820133" lon="11.70981"><ele>330.25</ele><time>2026-04-18T08:33:22.765Z</time></trkpt><trkpt lat="42.6821367" lon="11.70969"><ele>321.5</ele><time>2026-04-18T08:33:23.765Z</time></trkpt><trkpt lat="42.682255" lon="11.7096117"><ele>312.75</ele><time>2026-04-18T08:33:24.765Z</time></trkpt><trkpt lat="42.6823667" lon="11.7095333"><ele>304.0</ele><time>2026-04-18T08:33:25.765Z</time></trkpt><trkpt lat="42.682475" lon="11.7094633"><ele>303.5</ele><time>2026-04-18T08:33:26.765Z</time></trkpt><trkpt lat="42.6825817" lon="11.7093817"><ele>303.0</ele><time>2026-04-18T08:33:27.764Z</time></trkpt><trkpt lat="42.6826733" lon="11.709325"><ele>302.5</ele><time>2026-04-18T08:33:28.765Z</time></trkpt><trkpt lat="42.682745" lon="11.7092783"><ele>302.0</ele><time>2026-04-18T08:33:29.765Z</time></trkpt><trkpt lat="42.682815" lon="11.7092667"><ele>301.5</ele><time>2026-04-18T08:33:30.765Z</time></trkpt><trkpt lat="42.6828867" lon="11.7093"><ele>301.0</ele><time>2026-04-18T08:33:31.765Z</time></trkpt><trkpt lat="42.6829433" lon="11.709365"><ele>304.25</ele><time>2026-04-18T08:33:32.765Z</time></trkpt><trkpt lat="42.6829983" lon="11.7094633"><ele>307.5</ele><time>2026-04-18T08:33:33.765Z</time></trkpt><trkpt lat="42.6830567" lon="11.7095933"><ele>310.75</ele><time>2026-04-18T08:33:34.765Z</time></trkpt><trkpt lat="42.6831133" lon="11.70974"><ele>314.0</ele><time>2026-04-18T08:33:35.765Z</time></trkpt><trkpt lat="42.6831733" lon="11.7098917"><ele>314.0</ele><time>2026-04-18T08:33:36.765Z</time></trkpt><trkpt lat="42.6832283" lon="11.7100267"><ele>314.0</ele><time>2026-04-18T08:33:37.765Z</time></trkpt><trkpt lat="42.6832717" lon="11.7101417"><ele>314.0</ele><time>2026-04-18T08:33:38.765Z</time></trkpt><trkpt lat="42.6833183" lon="11.710245"><ele>314.0</ele><time>2026-04-18T08:33:39.764Z</time></trkpt><trkpt lat="42.6833783" lon="11.7103167"><ele>314.0</ele><time>2026-04-18T08:33:40.764Z</time></trkpt><trkpt lat="42.68349" lon="11.7103717"><ele>325.75</ele><time>2026-04-18T08:33:42.765Z</time></trkpt><trkpt lat="42.68362" lon="11.7103283"><ele>337.5</ele><time>2026-04-18T08:33:44.765Z</time></trkpt><trkpt lat="42.6837017" lon="11.7102483"><ele>349.25</ele><time>2026-04-18T08:33:45.765Z</time></trkpt><trkpt lat="42.6837983" lon="11.710155"><ele>361.0</ele><time>2026-04-18T08:33:46.765Z</time></trkpt><trkpt lat="42.6838783" lon="11.7100367"><ele>361.0</ele><time>2026-04-18T08:33:47.764Z</time></trkpt><trkpt lat="42.6839367" lon="11.7099133"><ele>361.0</ele><time>2026-04-18T08:33:48.765Z</time></trkpt><trkpt lat="42.6839933" lon="11.70979"><ele>361.0</ele><time>2026-04-18T08:33:49.765Z</time></trkpt><trkpt lat="42.6840083" lon="11.7096383"><ele>361.0</ele><time>2026-04-18T08:33:50.764Z</time></trkpt><trkpt lat="42.6840067" lon="11.7094767"><ele>361.0</ele><time>2026-04-18T08:33:51.765Z</time></trkpt><trkpt lat="42.68398" lon="11.7092933"><ele>359.0</ele><time>2026-04-18T08:33:52.765Z</time></trkpt><trkpt lat="42.6839217" lon="11.70907"><ele>357.0</ele><time>2026-04-18T08:33:53.764Z</time></trkpt><trkpt lat="42.683865" lon="11.70883"><ele>355.0</ele><time>2026-04-18T08:33:54.764Z</time></trkpt><trkpt lat="42.6837967" lon="11.7086067"><ele>356.5</ele><time>2026-04-18T08:33:55.765Z</time></trkpt><trkpt lat="42.6837267" lon="11.7084117"><ele>358.0</ele><time>2026-04-18T08:33:56.765Z</time></trkpt><trkpt lat="42.6836467" lon="11.708245"><ele>359.5</ele><time>2026-04-18T08:33:57.764Z</time></trkpt><trkpt lat="42.6835783" lon="11.708095"><ele>361.0</ele><time>2026-04-18T08:33:58.765Z</time></trkpt><trkpt lat="42.6835217" lon="11.7079967"><ele>353.8</ele><time>2026-04-18T08:33:59.765Z</time></trkpt><trkpt lat="42.68346" lon="11.70792"><ele>346.6</ele><time>2026-04-18T08:34:00.765Z</time></trkpt><trkpt lat="42.6833683" lon="11.70789"><ele>339.4</ele><time>2026-04-18T08:34:01.765Z</time></trkpt><trkpt lat="42.68326" lon="11.7078933"><ele>332.2</ele><time>2026-04-18T08:34:02.765Z</time></trkpt><trkpt lat="42.683155" lon="11.70792"><ele>325.0</ele><time>2026-04-18T08:34:03.765Z</time></trkpt><trkpt lat="42.6830583" lon="11.707925"><ele>325.0</ele><time>2026-04-18T08:34:04.765Z</time></trkpt><trkpt lat="42.682975" lon="11.7078883"><ele>325.0</ele><time>2026-04-18T08:34:05.765Z</time></trkpt><trkpt lat="42.6829033" lon="11.707815"><ele>325.0</ele><time>2026-04-18T08:34:06.765Z</time></trkpt><trkpt lat="42.682835" lon="11.7077133"><ele>325.0</ele><time>2026-04-18T08:34:07.765Z</time></trkpt><trkpt lat="42.6827733" lon="11.707605"><ele>325.0</ele><time>2026-04-18T08:34:08.765Z</time></trkpt><trkpt lat="42.682725" lon="11.7075017"><ele>323.8</ele><time>2026-04-18T08:34:09.765Z</time></trkpt><trkpt lat="42.6826983" lon="11.707395"><ele>322.6</ele><time>2026-04-18T08:34:10.765Z</time></trkpt><trkpt lat="42.682685" lon="11.7072683"><ele>321.4</ele><time>2026-04-18T08:34:11.765Z</time></trkpt><trkpt lat="42.6827033" lon="11.70711"><ele>320.2</ele><time>2026-04-18T08:34:12.765Z</time></trkpt><trkpt lat="42.6827367" lon="11.7069267"><ele>319.0</ele><time>2026-04-18T08:34:13.765Z</time></trkpt><trkpt lat="42.68278" lon="11.7067533"><ele>329.25</ele><time>2026-04-18T08:34:14.765Z</time></trkpt><trkpt lat="42.682835" lon="11.706605"><ele>339.5</ele><time>2026-04-18T08:34:15.765Z</time></trkpt><trkpt lat="42.6828983" lon="11.70648"><ele>349.75</ele><time>2026-04-18T08:34:16.765Z</time></trkpt><trkpt lat="42.6829867" lon="11.70636"><ele>360.0</ele><time>2026-04-18T08:34:17.765Z</time></trkpt><trkpt lat="42.68308" lon="11.7062717"><ele>360.0</ele><time>2026-04-18T08:34:18.765Z</time></trkpt><trkpt lat="42.6831917" lon="11.7062033"><ele>360.0</ele><time>2026-04-18T08:34:19.765Z</time></trkpt><trkpt lat="42.6833067" lon="11.7061733"><ele>360.0</ele><time>2026-04-18T08:34:20.765Z</time></trkpt><trkpt lat="42.6834283" lon="11.7061867"><ele>360.0</ele><time>2026-04-18T08:34:21.765Z</time></trkpt><trkpt lat="42.6835483" lon="11.7062217"><ele>362.75</ele><time>2026-04-18T08:34:22.764Z</time></trkpt><trkpt lat="42.6836733" lon="11.70627"><ele>365.5</ele><time>2026-04-18T08:34:23.765Z</time></trkpt><trkpt lat="42.6837967" lon="11.706315"><ele>368.25</ele><time>2026-04-18T08:34:24.765Z</time></trkpt><trkpt lat="42.6839183" lon="11.7063417"><ele>371.0</ele><time>2026-04-18T08:34:25.764Z</time></trkpt><trkpt lat="42.68403" lon="11.7063567"><ele>371.0</ele><time>2026-04-18T08:34:26.765Z</time></trkpt><trkpt lat="42.6841117" lon="11.7063283"><ele>371.0</ele><time>2026-04-18T08:34:27.765Z</time></trkpt><trkpt lat="42.68418" lon="11.7062967"><ele>371.0</ele><time>2026-04-18T08:34:28.765Z</time></trkpt><trkpt lat="42.6842433" lon="11.7062717"><ele>371.0</ele><time>2026-04-18T08:34:29.765Z</time></trkpt><trkpt lat="42.6843433" lon="11.7063117"><ele>371.0</ele><time>2026-04-18T08:34:31.765Z</time></trkpt><trkpt lat="42.6843967" lon="11.7064167"><ele>371.0</ele><time>2026-04-18T08:34:33.765Z</time></trkpt><trkpt lat="42.68435" lon="11.706535"><ele>371.0</ele><time>2026-04-18T08:34:35.765Z</time></trkpt><trkpt lat="42.6842867" lon="11.706565"><ele>371.0</ele><time>2026-04-18T08:34:36.765Z</time></trkpt><trkpt lat="42.68419" lon="11.7065567"><ele>371.0</ele><time>2026-04-18T08:34:37.765Z</time></trkpt><trkpt lat="42.684075" lon="11.7065183"><ele>371.0</ele><time>2026-04-18T08:34:38.765Z</time></trkpt><trkpt lat="42.6839583" lon="11.70651"><ele>371.0</ele><time>2026-04-18T08:34:39.765Z</time></trkpt><trkpt lat="42.6838717" lon="11.706535"><ele>371.0</ele><time>2026-04-18T08:34:40.765Z</time></trkpt><trkpt lat="42.6838083" lon="11.7065833"><ele>371.0</ele><time>2026-04-18T08:34:41.765Z</time></trkpt><trkpt lat="42.683775" lon="11.7066683"><ele>371.0</ele><time>2026-04-18T08:34:42.764Z</time></trkpt><trkpt lat="42.6837683" lon="11.70677"><ele>371.0</ele><time>2026-04-18T08:34:43.765Z</time></trkpt><trkpt lat="42.68377" lon="11.706895"><ele>371.0</ele><time>2026-04-18T08:34:44.765Z</time></trkpt><trkpt lat="42.6837917" lon="11.7070367"><ele>371.0</ele><time>2026-04-18T08:34:45.765Z</time></trkpt><trkpt lat="42.6838283" lon="11.7071717"><ele>372.0</ele><time>2026-04-18T08:34:46.765Z</time></trkpt><trkpt lat="42.6838717" lon="11.7072833"><ele>373.0</ele><time>2026-04-18T08:34:47.765Z</time></trkpt><trkpt lat="42.683925" lon="11.7073717"><ele>374.0</ele><time>2026-04-18T08:34:48.765Z</time></trkpt><trkpt lat="42.6839983" lon="11.7074533"><ele>375.0</ele><time>2026-04-18T08:34:49.765Z</time></trkpt><trkpt lat="42.684095" lon="11.7075267"><ele>376.0</ele><time>2026-04-18T08:34:50.765Z</time></trkpt><trkpt lat="42.6842233" lon="11.70761"><ele>376.0</ele><time>2026-04-18T08:34:51.764Z</time></trkpt><trkpt lat="42.684345" lon="11.7077"><ele>376.0</ele><time>2026-04-18T08:34:52.765Z</time></trkpt><trkpt lat="42.6844483" lon="11.7077933"><ele>376.0</ele><time>2026-04-18T08:34:53.765Z</time></trkpt><trkpt lat="42.6845283" lon="11.7079033"><ele>376.0</ele><time>2026-04-18T08:34:54.765Z</time></trkpt><trkpt lat="42.6846" lon="11.7080533"><ele>379.0</ele><time>2026-04-18T08:34:55.765Z</time></trkpt><trkpt lat="42.6846467" lon="11.70823"><ele>382.0</ele><time>2026-04-18T08:34:56.765Z</time></trkpt><trkpt lat="42.6846933" lon="11.7084067"><ele>385.0</ele><time>2026-04-18T08:34:57.765Z</time></trkpt><trkpt lat="42.6847433" lon="11.7085617"><ele>388.0</ele><time>2026-04-18T08:34:58.765Z</time></trkpt><trkpt lat="42.6847833" lon="11.7086933"><ele>388.0</ele><time>2026-04-18T08:34:59.765Z</time></trkpt><trkpt lat="42.6848233" lon="11.70882"><ele>388.0</ele><time>2026-04-18T08:35:00.764Z</time></trkpt><trkpt lat="42.6848717" lon="11.7089367"><ele>388.0</ele><time>2026-04-18T08:35:01.765Z</time></trkpt><trkpt lat="42.6849333" lon="11.709035"><ele>388.0</ele><time>2026-04-18T08:35:02.764Z</time></trkpt><trkpt lat="42.6850167" lon="11.7091217"><ele>388.0</ele><time>2026-04-18T08:35:03.765Z</time></trkpt><trkpt lat="42.6851067" lon="11.7091867"><ele>388.00000000000006</ele><time>2026-04-18T08:35:04.765Z</time></trkpt><trkpt lat="42.68519" lon="11.70923"><ele>388.0</ele><time>2026-04-18T08:35:05.765Z</time></trkpt><trkpt lat="42.6852583" lon="11.709235"><ele>388.0</ele><time>2026-04-18T08:35:06.764Z</time></trkpt><trkpt lat="42.685335" lon="11.7092"><ele>388.0</ele><time>2026-04-18T08:35:07.765Z</time></trkpt><trkpt lat="42.685395" lon="11.709135"><ele>388.00000000000006</ele><time>2026-04-18T08:35:08.765Z</time></trkpt><trkpt lat="42.6854183" lon="11.7090517"><ele>388.0</ele><time>2026-04-18T08:35:09.765Z</time></trkpt><trkpt lat="42.6854083" lon="11.7089567"><ele>388.0</ele><time>2026-04-18T08:35:10.765Z</time></trkpt><trkpt lat="42.6853683" lon="11.7088767"><ele>388.0</ele><time>2026-04-18T08:35:11.764Z</time></trkpt><trkpt lat="42.685315" lon="11.7088083"><ele>388.0</ele><time>2026-04-18T08:35:12.765Z</time></trkpt><trkpt lat="42.6852333" lon="11.7087367"><ele>388.0</ele><time>2026-04-18T08:35:13.765Z</time></trkpt><trkpt lat="42.6851417" lon="11.7086433"><ele>388.0</ele><time>2026-04-18T08:35:14.765Z</time></trkpt><trkpt lat="42.6850617" lon="11.708535"><ele>390.0</ele><time>2026-04-18T08:35:15.765Z</time></trkpt><trkpt lat="42.6849933" lon="11.7084017"><ele>392.0</ele><time>2026-04-18T08:35:16.765Z</time></trkpt><trkpt lat="42.6849433" lon="11.70823"><ele>394.0</ele><time>2026-04-18T08:35:17.765Z</time></trkpt><trkpt lat="42.6848983" lon="11.7080233"><ele>396.0</ele><time>2026-04-18T08:35:18.764Z</time></trkpt><trkpt lat="42.684855" lon="11.7078067"><ele>396.75</ele><time>2026-04-18T08:35:19.765Z</time></trkpt><trkpt lat="42.6848183" lon="11.7076067"><ele>397.5</ele><time>2026-04-18T08:35:20.765Z</time></trkpt><trkpt lat="42.6847867" lon="11.70743"><ele>398.25</ele><time>2026-04-18T08:35:21.765Z</time></trkpt><trkpt lat="42.6847667" lon="11.7072983"><ele>399.0</ele><time>2026-04-18T08:35:22.765Z</time></trkpt><trkpt lat="42.6847567" lon="11.7071883"><ele>399.0</ele><time>2026-04-18T08:35:23.765Z</time></trkpt><trkpt lat="42.6847667" lon="11.707095"><ele>399.0</ele><time>2026-04-18T08:35:24.764Z</time></trkpt><trkpt lat="42.6848283" lon="11.70698"><ele>399.0</ele><time>2026-04-18T08:35:26.765Z</time></trkpt><trkpt lat="42.6848933" lon="11.70697"><ele>399.0</ele><time>2026-04-18T08:35:27.765Z</time></trkpt><trkpt lat="42.6849783" lon="11.7069883"><ele>399.0</ele><time>2026-04-18T08:35:28.765Z</time></trkpt><trkpt lat="42.685095" lon="11.7070383"><ele>399.0</ele><time>2026-04-18T08:35:29.765Z</time></trkpt><trkpt lat="42.6852367" lon="11.7070933"><ele>401.75</ele><time>2026-04-18T08:35:30.764Z</time></trkpt><trkpt lat="42.6853917" lon="11.7071617"><ele>404.5</ele><time>2026-04-18T08:35:31.764Z</time></trkpt><trkpt lat="42.6855383" lon="11.70721"><ele>407.25</ele><time>2026-04-18T08:35:32.765Z</time></trkpt><trkpt lat="42.6856483" lon="11.7072083"><ele>410.0</ele><time>2026-04-18T08:35:33.765Z</time></trkpt><trkpt lat="42.6857717" lon="11.7071767"><ele>410.0</ele><time>2026-04-18T08:35:34.765Z</time></trkpt><trkpt lat="42.685915" lon="11.7071117"><ele>410.0</ele><time>2026-04-18T08:35:35.765Z</time></trkpt><trkpt lat="42.6860733" lon="11.7070233"><ele>410.0</ele><time>2026-04-18T08:35:36.765Z</time></trkpt><trkpt lat="42.68623" lon="11.7069417"><ele>411.0</ele><time>2026-04-18T08:35:37.765Z</time></trkpt><trkpt lat="42.6863783" lon="11.7068667"><ele>412.0</ele><time>2026-04-18T08:35:38.765Z</time></trkpt><trkpt lat="42.6865167" lon="11.7068"><ele>413.0</ele><time>2026-04-18T08:35:39.765Z</time></trkpt><trkpt lat="42.6866433" lon="11.7067267"><ele>414.0</ele><time>2026-04-18T08:35:40.765Z</time></trkpt><trkpt lat="42.6867567" lon="11.7066467"><ele>414.0</ele><time>2026-04-18T08:35:41.765Z</time></trkpt><trkpt lat="42.686865" lon="11.706525"><ele>414.0</ele><time>2026-04-18T08:35:42.765Z</time></trkpt><trkpt lat="42.6869767" lon="11.706365"><ele>414.0</ele><time>2026-04-18T08:35:43.764Z</time></trkpt><trkpt lat="42.6870933" lon="11.7061817"><ele>414.0</ele><time>2026-04-18T08:35:44.765Z</time></trkpt><trkpt lat="42.6872183" lon="11.7060117"><ele>414.0</ele><time>2026-04-18T08:35:45.765Z</time></trkpt><trkpt lat="42.6873183" lon="11.7058683"><ele>414.0</ele><time>2026-04-18T08:35:46.765Z</time></trkpt><trkpt lat="42.68741" lon="11.7057433"><ele>414.0</ele><time>2026-04-18T08:35:47.765Z</time></trkpt><trkpt lat="42.68748" lon="11.7056117"><ele>414.0</ele><time>2026-04-18T08:35:48.765Z</time></trkpt><trkpt lat="42.6875367" lon="11.7054467"><ele>414.0</ele><time>2026-04-18T08:35:49.765Z</time></trkpt><trkpt lat="42.6875717" lon="11.7052733"><ele>414.0</ele><time>2026-04-18T08:35:50.765Z</time></trkpt><trkpt lat="42.687595" lon="11.705085"><ele>413.75</ele><time>2026-04-18T08:35:51.765Z</time></trkpt><trkpt lat="42.68762" lon="11.7048767"><ele>413.5</ele><time>2026-04-18T08:35:52.765Z</time></trkpt><trkpt lat="42.6876433" lon="11.7046817"><ele>413.25</ele><time>2026-04-18T08:35:53.765Z</time></trkpt><trkpt lat="42.68767" lon="11.7044967"><ele>413.0</ele><time>2026-04-18T08:35:54.765Z</time></trkpt><trkpt lat="42.6876917" lon="11.7043233"><ele>413.75</ele><time>2026-04-18T08:35:55.765Z</time></trkpt><trkpt lat="42.68772" lon="11.7041417"><ele>414.5</ele><time>2026-04-18T08:35:56.765Z</time></trkpt><trkpt lat="42.6877517" lon="11.70396"><ele>415.25</ele><time>2026-04-18T08:35:57.765Z</time></trkpt><trkpt lat="42.68778" lon="11.7037783"><ele>416.0</ele><time>2026-04-18T08:35:58.765Z</time></trkpt><trkpt lat="42.6878083" lon="11.703595"><ele>417.0</ele><time>2026-04-18T08:35:59.765Z</time></trkpt><trkpt lat="42.68784" lon="11.7033967"><ele>418.0</ele><time>2026-04-18T08:36:00.765Z</time></trkpt><trkpt lat="42.6878717" lon="11.7032033"><ele>419.0</ele><time>2026-04-18T08:36:01.765Z</time></trkpt><trkpt lat="42.687895" lon="11.7030283"><ele>420.0</ele><time>2026-04-18T08:36:02.765Z</time></trkpt><trkpt lat="42.68791" lon="11.7028667"><ele>419.75</ele><time>2026-04-18T08:36:03.765Z</time></trkpt><trkpt lat="42.6879183" lon="11.7027017"><ele>419.5</ele><time>2026-04-18T08:36:04.765Z</time></trkpt><trkpt lat="42.6879183" lon="11.7025367"><ele>419.25</ele><time>2026-04-18T08:36:05.765Z</time></trkpt><trkpt lat="42.6879033" lon="11.7023683"><ele>419.0</ele><time>2026-04-18T08:36:06.765Z</time></trkpt><trkpt lat="42.6878733" lon="11.7022033"><ele>419.0</ele><time>2026-04-18T08:36:07.765Z</time></trkpt><trkpt lat="42.68782" lon="11.7020333"><ele>419.0</ele><time>2026-04-18T08:36:08.765Z</time></trkpt><trkpt lat="42.6877383" lon="11.701885"><ele>419.0</ele><time>2026-04-18T08:36:09.765Z</time></trkpt><trkpt lat="42.68763" lon="11.7017383"><ele>419.0</ele><time>2026-04-18T08:36:10.765Z</time></trkpt><trkpt lat="42.68751" lon="11.7016317"><ele>418.66666666666663</ele><time>2026-04-18T08:36:11.764Z</time></trkpt><trkpt lat="42.6873833" lon="11.701525"><ele>418.33333333333337</ele><time>2026-04-18T08:36:12.765Z</time></trkpt><trkpt lat="42.68725" lon="11.7014133"><ele>418.0</ele><time>2026-04-18T08:36:13.765Z</time></trkpt><trkpt lat="42.6871033" lon="11.701305"><ele>418.0</ele><time>2026-04-18T08:36:14.765Z</time></trkpt><trkpt lat="42.6869583" lon="11.7011933"><ele>418.0</ele><time>2026-04-18T08:36:15.765Z</time></trkpt><trkpt lat="42.6868267" lon="11.70108"><ele>418.0</ele><time>2026-04-18T08:36:16.765Z</time></trkpt><trkpt lat="42.68669" lon="11.70097"><ele>417.33333333333337</ele><time>2026-04-18T08:36:17.765Z</time></trkpt><trkpt lat="42.6865533" lon="11.700865"><ele>416.66666666666663</ele><time>2026-04-18T08:36:18.764Z</time></trkpt><trkpt lat="42.6864117" lon="11.70076"><ele>416.0</ele><time>2026-04-18T08:36:19.765Z</time></trkpt><trkpt lat="42.6862733" lon="11.7006533"><ele>416.0</ele><time>2026-04-18T08:36:20.765Z</time></trkpt><trkpt lat="42.6861317" lon="11.7005433"><ele>416.0</ele><time>2026-04-18T08:36:21.765Z</time></trkpt><trkpt lat="42.6859917" lon="11.7004267"><ele>416.0</ele><time>2026-04-18T08:36:22.765Z</time></trkpt><trkpt lat="42.6858433" lon="11.7003067"><ele>415.3333333333333</ele><time>2026-04-18T08:36:23.765Z</time></trkpt><trkpt lat="42.6856983" lon="11.7001983"><ele>414.66666666666663</ele><time>2026-04-18T08:36:24.765Z</time></trkpt><trkpt lat="42.6855483" lon="11.7000817"><ele>414.0</ele><time>2026-04-18T08:36:25.764Z</time></trkpt><trkpt lat="42.6853933" lon="11.6999617"><ele>414.33333333333337</ele><time>2026-04-18T08:36:26.765Z</time></trkpt><trkpt lat="42.6852367" lon="11.6998517"><ele>414.6666666666667</ele><time>2026-04-18T08:36:27.765Z</time></trkpt><trkpt lat="42.68508" lon="11.69973"><ele>415.0</ele><time>2026-04-18T08:36:28.765Z</time></trkpt><trkpt lat="42.684925" lon="11.6996117"><ele>415.0</ele><time>2026-04-18T08:36:29.765Z</time></trkpt><trkpt lat="42.6847733" lon="11.69949"><ele>415.0</ele><time>2026-04-18T08:36:30.765Z</time></trkpt><trkpt lat="42.6846233" lon="11.69937"><ele>415.0</ele><time>2026-04-18T08:36:31.765Z</time></trkpt><trkpt lat="42.6844717" lon="11.69925"><ele>413.0</ele><time>2026-04-18T08:36:32.765Z</time></trkpt><trkpt lat="42.6843267" lon="11.6991333"><ele>411.0</ele><time>2026-04-18T08:36:33.765Z</time></trkpt><trkpt lat="42.6841833" lon="11.6990183"><ele>409.0</ele><time>2026-04-18T08:36:34.765Z</time></trkpt><trkpt lat="42.6840333" lon="11.6989083"><ele>409.0</ele><time>2026-04-18T08:36:35.765Z</time></trkpt><trkpt lat="42.6838967" lon="11.6988017"><ele>409.0</ele><time>2026-04-18T08:36:36.765Z</time></trkpt><trkpt lat="42.6837617" lon="11.698695"><ele>409.0</ele><time>2026-04-18T08:36:37.765Z</time></trkpt><trkpt lat="42.6836283" lon="11.698585"><ele>409.0</ele><time>2026-04-18T08:36:38.765Z</time></trkpt><trkpt lat="42.6835" lon="11.698475"><ele>409.0</ele><time>2026-04-18T08:36:39.764Z</time></trkpt><trkpt lat="42.6833767" lon="11.698365"><ele>409.0</ele><time>2026-04-18T08:36:40.765Z</time></trkpt><trkpt lat="42.683255" lon="11.698245"><ele>409.0</ele><time>2026-04-18T08:36:41.764Z</time></trkpt><trkpt lat="42.68313" lon="11.69813"><ele>409.0</ele><time>2026-04-18T08:36:42.765Z</time></trkpt><trkpt lat="42.6830083" lon="11.6980033"><ele>409.0</ele><time>2026-04-18T08:36:43.764Z</time></trkpt><trkpt lat="42.682885" lon="11.6978767"><ele>409.0</ele><time>2026-04-18T08:36:44.765Z</time></trkpt><trkpt lat="42.68276" lon="11.6977567"><ele>408.0</ele><time>2026-04-18T08:36:45.765Z</time></trkpt><trkpt lat="42.6826367" lon="11.6976333"><ele>407.0</ele><time>2026-04-18T08:36:46.765Z</time></trkpt><trkpt lat="42.6825133" lon="11.697515"><ele>406.0</ele><time>2026-04-18T08:36:47.765Z</time></trkpt><trkpt lat="42.6823917" lon="11.6973933"><ele>406.0</ele><time>2026-04-18T08:36:48.765Z</time></trkpt><trkpt lat="42.68227" lon="11.697265"><ele>406.0</ele><time>2026-04-18T08:36:49.764Z</time></trkpt><trkpt lat="42.68215" lon="11.697145"><ele>406.0</ele><time>2026-04-18T08:36:50.765Z</time></trkpt><trkpt lat="42.6820283" lon="11.6970333"><ele>405.75</ele><time>2026-04-18T08:36:51.765Z</time></trkpt><trkpt lat="42.6819167" lon="11.6969283"><ele>405.5</ele><time>2026-04-18T08:36:52.765Z</time></trkpt><trkpt lat="42.6818133" lon="11.6968233"><ele>405.25</ele><time>2026-04-18T08:36:53.765Z</time></trkpt><trkpt lat="42.681715" lon="11.696705"><ele>405.0</ele><time>2026-04-18T08:36:54.765Z</time></trkpt><trkpt lat="42.6816117" lon="11.6965933"><ele>405.0</ele><time>2026-04-18T08:36:55.765Z</time></trkpt><trkpt lat="42.681515" lon="11.6964983"><ele>405.0</ele><time>2026-04-18T08:36:56.765Z</time></trkpt><trkpt lat="42.6814233" lon="11.6964183"><ele>405.0</ele><time>2026-04-18T08:36:57.765Z</time></trkpt><trkpt lat="42.6813383" lon="11.69634"><ele>405.0</ele><time>2026-04-18T08:36:58.765Z</time></trkpt><trkpt lat="42.6812667" lon="11.696275"><ele>405.0</ele><time>2026-04-18T08:36:59.765Z</time></trkpt><trkpt lat="42.6812083" lon="11.6962167"><ele>405.0</ele><time>2026-04-18T08:37:00.765Z</time></trkpt><trkpt lat="42.68115" lon="11.6961267"><ele>405.0</ele><time>2026-04-18T08:37:02.765Z</time></trkpt><trkpt lat="42.6811833" lon="11.6960067"><ele>405.0</ele><time>2026-04-18T08:37:05.765Z</time></trkpt><trkpt lat="42.681265" lon="11.6958717"><ele>405.0</ele><time>2026-04-18T08:37:07.765Z</time></trkpt><trkpt lat="42.68132" lon="11.695775"><ele>405.0</ele><time>2026-04-18T08:37:08.765Z</time></trkpt><trkpt lat="42.68138" lon="11.6956783"><ele>404.6</ele><time>2026-04-18T08:37:09.765Z</time></trkpt><trkpt lat="42.6814433" lon="11.695575"><ele>404.2</ele><time>2026-04-18T08:37:10.765Z</time></trkpt><trkpt lat="42.681515" lon="11.695465"><ele>403.79999999999995</ele><time>2026-04-18T08:37:11.765Z</time></trkpt><trkpt lat="42.6815867" lon="11.695345"><ele>403.4</ele><time>2026-04-18T08:37:12.765Z</time></trkpt><trkpt lat="42.6816667" lon="11.6952083"><ele>403.0</ele><time>2026-04-18T08:37:13.765Z</time></trkpt><trkpt lat="42.6817533" lon="11.69507"><ele>403.0</ele><time>2026-04-18T08:37:14.765Z</time></trkpt><trkpt lat="42.6818333" lon="11.69493"><ele>403.0</ele><time>2026-04-18T08:37:15.765Z</time></trkpt><trkpt lat="42.68192" lon="11.69478"><ele>403.0</ele><time>2026-04-18T08:37:16.765Z</time></trkpt><trkpt lat="42.6820067" lon="11.6946367"><ele>403.0</ele><time>2026-04-18T08:37:17.765Z</time></trkpt><trkpt lat="42.6820867" lon="11.694495"><ele>403.25</ele><time>2026-04-18T08:37:18.765Z</time></trkpt><trkpt lat="42.6821667" lon="11.6943583"><ele>403.5</ele><time>2026-04-18T08:37:19.765Z</time></trkpt><trkpt lat="42.6822367" lon="11.6942383"><ele>403.75</ele><time>2026-04-18T08:37:20.765Z</time></trkpt><trkpt lat="42.6823067" lon="11.6941333"><ele>404.0</ele><time>2026-04-18T08:37:21.764Z</time></trkpt><trkpt lat="42.682385" lon="11.694035"><ele>404.0</ele><time>2026-04-18T08:37:22.765Z</time></trkpt><trkpt lat="42.6824767" lon="11.6939517"><ele>404.0</ele><time>2026-04-18T08:37:23.765Z</time></trkpt><trkpt lat="42.68257" lon="11.693885"><ele>404.0</ele><time>2026-04-18T08:37:24.765Z</time></trkpt><trkpt lat="42.6826667" lon="11.693815"><ele>404.0</ele><time>2026-04-18T08:37:25.765Z</time></trkpt><trkpt lat="42.6827667" lon="11.69375"><ele>404.0</ele><time>2026-04-18T08:37:26.765Z</time></trkpt><trkpt lat="42.6828633" lon="11.6936783"><ele>404.2</ele><time>2026-04-18T08:37:27.765Z</time></trkpt><trkpt lat="42.68296" lon="11.6936117"><ele>404.4</ele><time>2026-04-18T08:37:28.765Z</time></trkpt><trkpt lat="42.68305" lon="11.6935483"><ele>404.6</ele><time>2026-04-18T08:37:29.765Z</time></trkpt><trkpt lat="42.6831333" lon="11.693475"><ele>404.8</ele><time>2026-04-18T08:37:30.765Z</time></trkpt><trkpt lat="42.6832083" lon="11.6934"><ele>405.0</ele><time>2026-04-18T08:37:31.765Z</time></trkpt><trkpt lat="42.6832633" lon="11.6933"><ele>404.6</ele><time>2026-04-18T08:37:32.765Z</time></trkpt><trkpt lat="42.6833083" lon="11.6931933"><ele>404.2</ele><time>2026-04-18T08:37:33.765Z</time></trkpt><trkpt lat="42.68335" lon="11.6930817"><ele>403.79999999999995</ele><time>2026-04-18T08:37:34.764Z</time></trkpt><trkpt lat="42.6834033" lon="11.6929567"><ele>403.4</ele><time>2026-04-18T08:37:35.765Z</time></trkpt><trkpt lat="42.6834533" lon="11.692835"><ele>403.0</ele><time>2026-04-18T08:37:36.765Z</time></trkpt><trkpt lat="42.6835083" lon="11.692715"><ele>402.50000000000006</ele><time>2026-04-18T08:37:37.765Z</time></trkpt><trkpt lat="42.6835567" lon="11.6926033"><ele>402.0</ele><time>2026-04-18T08:37:38.765Z</time></trkpt><trkpt lat="42.6835883" lon="11.6925"><ele>401.5</ele><time>2026-04-18T08:37:39.765Z</time></trkpt><trkpt lat="42.6836067" lon="11.692395"><ele>401.0</ele><time>2026-04-18T08:37:40.765Z</time></trkpt><trkpt lat="42.68361" lon="11.6922917"><ele>400.50000000000006</ele><time>2026-04-18T08:37:41.765Z</time></trkpt><trkpt lat="42.683595" lon="11.6921867"><ele>400.0</ele><time>2026-04-18T08:37:42.765Z</time></trkpt><trkpt lat="42.68355" lon="11.6920917"><ele>400.0</ele><time>2026-04-18T08:37:43.765Z</time></trkpt><trkpt lat="42.6834867" lon="11.6919983"><ele>400.0</ele><time>2026-04-18T08:37:44.765Z</time></trkpt><trkpt lat="42.6834217" lon="11.6918933"><ele>400.0</ele><time>2026-04-18T08:37:45.765Z</time></trkpt><trkpt lat="42.6833583" lon="11.69178"><ele>400.0</ele><time>2026-04-18T08:37:46.765Z</time></trkpt><trkpt lat="42.6832867" lon="11.6916567"><ele>400.0</ele><time>2026-04-18T08:37:47.765Z</time></trkpt><trkpt lat="42.6832033" lon="11.69153"><ele>399.25</ele><time>2026-04-18T08:37:48.765Z</time></trkpt><trkpt lat="42.68311" lon="11.6914083"><ele>398.5</ele><time>2026-04-18T08:37:49.765Z</time></trkpt><trkpt lat="42.683025" lon="11.6912767"><ele>397.75</ele><time>2026-04-18T08:37:50.764Z</time></trkpt><trkpt lat="42.6829533" lon="11.69113"><ele>397.0</ele><time>2026-04-18T08:37:51.765Z</time></trkpt><trkpt lat="42.6828917" lon="11.690975"><ele>397.75</ele><time>2026-04-18T08:37:52.765Z</time></trkpt><trkpt lat="42.6828267" lon="11.6908183"><ele>398.5</ele><time>2026-04-18T08:37:53.765Z</time></trkpt><trkpt lat="42.6827567" lon="11.6906733"><ele>399.25</ele><time>2026-04-18T08:37:54.764Z</time></trkpt><trkpt lat="42.6826833" lon="11.6905233"><ele>400.0</ele><time>2026-04-18T08:37:55.765Z</time></trkpt><trkpt lat="42.6826033" lon="11.6903583"><ele>399.5</ele><time>2026-04-18T08:37:56.764Z</time></trkpt><trkpt lat="42.6825267" lon="11.6902083"><ele>399.0</ele><time>2026-04-18T08:37:57.765Z</time></trkpt><trkpt lat="42.68245" lon="11.6900633"><ele>398.5</ele><time>2026-04-18T08:37:58.765Z</time></trkpt><trkpt lat="42.68238" lon="11.6899283"><ele>398.0</ele><time>2026-04-18T08:37:59.765Z</time></trkpt><trkpt lat="42.682315" lon="11.689765"><ele>398.0</ele><time>2026-04-18T08:38:00.765Z</time></trkpt><trkpt lat="42.6822583" lon="11.6895983"><ele>398.0</ele><time>2026-04-18T08:38:01.765Z</time></trkpt><trkpt lat="42.6822" lon="11.6894167"><ele>398.0</ele><time>2026-04-18T08:38:02.765Z</time></trkpt><trkpt lat="42.6821467" lon="11.68924"><ele>398.0</ele><time>2026-04-18T08:38:03.765Z</time></trkpt><trkpt lat="42.6820783" lon="11.68906"><ele>398.75</ele><time>2026-04-18T08:38:04.765Z</time></trkpt><trkpt lat="42.6820133" lon="11.6889033"><ele>399.5</ele><time>2026-04-18T08:38:05.765Z</time></trkpt><trkpt lat="42.6819517" lon="11.6887317"><ele>400.25</ele><time>2026-04-18T08:38:06.765Z</time></trkpt><trkpt lat="42.6818883" lon="11.6885667"><ele>401.0</ele><time>2026-04-18T08:38:07.765Z</time></trkpt><trkpt lat="42.68181" lon="11.6884017"><ele>401.0</ele><time>2026-04-18T08:38:08.765Z</time></trkpt><trkpt lat="42.6817467" lon="11.6882483"><ele>401.0</ele><time>2026-04-18T08:38:09.765Z</time></trkpt><trkpt lat="42.681675" lon="11.6880833"><ele>401.0</ele><time>2026-04-18T08:38:10.765Z</time></trkpt><trkpt lat="42.6816033" lon="11.6879183"><ele>401.0</ele><time>2026-04-18T08:38:11.765Z</time></trkpt><trkpt lat="42.6815367" lon="11.687745"><ele>399.0</ele><time>2026-04-18T08:38:12.765Z</time></trkpt><trkpt lat="42.68148" lon="11.6875767"><ele>397.0</ele><time>2026-04-18T08:38:13.765Z</time></trkpt><trkpt lat="42.6814183" lon="11.6874117"><ele>395.0</ele><time>2026-04-18T08:38:14.765Z</time></trkpt><trkpt lat="42.6813567" lon="11.6872617"><ele>393.0</ele><time>2026-04-18T08:38:15.765Z</time></trkpt><trkpt lat="42.6812983" lon="11.687115"><ele>393.0</ele><time>2026-04-18T08:38:16.765Z</time></trkpt><trkpt lat="42.6812483" lon="11.6869833"><ele>393.0</ele><time>2026-04-18T08:38:17.765Z</time></trkpt><trkpt lat="42.6811967" lon="11.686845"><ele>393.0</ele><time>2026-04-18T08:38:18.765Z</time></trkpt><trkpt lat="42.6811583" lon="11.6866983"><ele>393.0</ele><time>2026-04-18T08:38:19.765Z</time></trkpt><trkpt lat="42.6811317" lon="11.6865333"><ele>394.0</ele><time>2026-04-18T08:38:20.764Z</time></trkpt><trkpt lat="42.6811083" lon="11.6863633"><ele>395.0</ele><time>2026-04-18T08:38:21.765Z</time></trkpt><trkpt lat="42.681075" lon="11.6861933"><ele>396.0</ele><time>2026-04-18T08:38:22.765Z</time></trkpt><trkpt lat="42.6810333" lon="11.6860183"><ele>397.0</ele><time>2026-04-18T08:38:23.764Z</time></trkpt><trkpt lat="42.680995" lon="11.6858517"><ele>397.0</ele><time>2026-04-18T08:38:24.765Z</time></trkpt><trkpt lat="42.6809633" lon="11.6857"><ele>397.0</ele><time>2026-04-18T08:38:25.765Z</time></trkpt><trkpt lat="42.680945" lon="11.6855683"><ele>397.0</ele><time>2026-04-18T08:38:26.764Z</time></trkpt><trkpt lat="42.6809167" lon="11.6854367"><ele>397.0</ele><time>2026-04-18T08:38:27.765Z</time></trkpt><trkpt lat="42.680885" lon="11.68532"><ele>397.0</ele><time>2026-04-18T08:38:28.765Z</time></trkpt><trkpt lat="42.6808417" lon="11.6852067"><ele>394.8</ele><time>2026-04-18T08:38:29.765Z</time></trkpt><trkpt lat="42.680785" lon="11.685095"><ele>392.6</ele><time>2026-04-18T08:38:30.765Z</time></trkpt><trkpt lat="42.6807217" lon="11.6849783"><ele>390.40000000000003</ele><time>2026-04-18T08:38:31.765Z</time></trkpt><trkpt lat="42.680655" lon="11.6848583"><ele>388.20000000000005</ele><time>2026-04-18T08:38:32.764Z</time></trkpt><trkpt lat="42.6805833" lon="11.6847367"><ele>386.0</ele><time>2026-04-18T08:38:33.765Z</time></trkpt><trkpt lat="42.6804967" lon="11.6846083"><ele>386.0</ele><time>2026-04-18T08:38:34.765Z</time></trkpt><trkpt lat="42.6804" lon="11.68449"><ele>386.0</ele><time>2026-04-18T08:38:35.765Z</time></trkpt><trkpt lat="42.6803" lon="11.6843567"><ele>386.0</ele><time>2026-04-18T08:38:36.765Z</time></trkpt><trkpt lat="42.6802033" lon="11.6842233"><ele>386.0</ele><time>2026-04-18T08:38:37.765Z</time></trkpt><trkpt lat="42.6801067" lon="11.6841"><ele>387.75</ele><time>2026-04-18T08:38:38.765Z</time></trkpt><trkpt lat="42.6800167" lon="11.68399"><ele>389.5</ele><time>2026-04-18T08:38:39.765Z</time></trkpt><trkpt lat="42.6799217" lon="11.6838967"><ele>391.25</ele><time>2026-04-18T08:38:40.765Z</time></trkpt><trkpt lat="42.67982" lon="11.6838017"><ele>393.0</ele><time>2026-04-18T08:38:41.765Z</time></trkpt><trkpt lat="42.6797183" lon="11.6837167"><ele>393.0</ele><time>2026-04-18T08:38:42.765Z</time></trkpt><trkpt lat="42.6796267" lon="11.6836367"><ele>393.0</ele><time>2026-04-18T08:38:43.764Z</time></trkpt><trkpt lat="42.679535" lon="11.6835233"><ele>393.0</ele><time>2026-04-18T08:38:44.764Z</time></trkpt><trkpt lat="42.6794517" lon="11.6833867"><ele>393.0</ele><time>2026-04-18T08:38:45.765Z</time></trkpt><trkpt lat="42.6793717" lon="11.6832217"><ele>392.25</ele><time>2026-04-18T08:38:46.765Z</time></trkpt><trkpt lat="42.6792883" lon="11.683045"><ele>391.5</ele><time>2026-04-18T08:38:47.765Z</time></trkpt><trkpt lat="42.6792083" lon="11.68288"><ele>390.75</ele><time>2026-04-18T08:38:48.765Z</time></trkpt><trkpt lat="42.6791367" lon="11.6827483"><ele>390.0</ele><time>2026-04-18T08:38:49.765Z</time></trkpt><trkpt lat="42.6790733" lon="11.6826467"><ele>388.3333333333333</ele><time>2026-04-18T08:38:50.765Z</time></trkpt><trkpt lat="42.6790183" lon="11.68257"><ele>386.6666666666667</ele><time>2026-04-18T08:38:51.765Z</time></trkpt><trkpt lat="42.6789333" lon="11.68251"><ele>385.0</ele><time>2026-04-18T08:38:53.765Z</time></trkpt><trkpt lat="42.6788617" lon="11.6824583"><ele>383.33333333333337</ele><time>2026-04-18T08:49:46.764Z</time></trkpt><trkpt lat="42.6787767" lon="11.682505"><ele>381.6666666666667</ele><time>2026-04-18T08:49:48.765Z</time></trkpt><trkpt lat="42.67871" lon="11.6825317"><ele>380.0</ele><time>2026-04-18T08:49:49.765Z</time></trkpt><trkpt lat="42.6786433" lon="11.682555"><ele>381.33333333333337</ele><time>2026-04-18T08:49:50.765Z</time></trkpt><trkpt lat="42.678575" lon="11.682575"><ele>382.6666666666667</ele><time>2026-04-18T08:49:51.765Z</time></trkpt><trkpt lat="42.6785067" lon="11.682595"><ele>384.0</ele><time>2026-04-18T08:49:52.765Z</time></trkpt><trkpt lat="42.678375" lon="11.6826367"><ele>385.33333333333337</ele><time>2026-04-18T08:49:54.765Z</time></trkpt><trkpt lat="42.678305" lon="11.68266"><ele>386.6666666666667</ele><time>2026-04-18T08:49:55.764Z</time></trkpt><trkpt lat="42.67824" lon="11.6826917"><ele>388.0</ele><time>2026-04-18T08:49:56.765Z</time></trkpt><trkpt lat="42.6781767" lon="11.6827267"><ele>388.33333333333337</ele><time>2026-04-18T08:49:57.765Z</time></trkpt><trkpt lat="42.6781233" lon="11.68278"><ele>388.6666666666667</ele><time>2026-04-18T08:49:58.765Z</time></trkpt><trkpt lat="42.6780567" lon="11.682845"><ele>389.0</ele><time>2026-04-18T08:49:59.765Z</time></trkpt><trkpt lat="42.678" lon="11.6829233"><ele>389.33333333333337</ele><time>2026-04-18T08:50:00.765Z</time></trkpt><trkpt lat="42.6779433" lon="11.6830083"><ele>389.6666666666667</ele><time>2026-04-18T08:50:01.765Z</time></trkpt><trkpt lat="42.6778967" lon="11.683085"><ele>390.0</ele><time>2026-04-18T08:50:02.765Z</time></trkpt><trkpt lat="42.677825" lon="11.68321"><ele>390.0</ele><time>2026-04-18T08:50:04.764Z</time></trkpt><trkpt lat="42.677775" lon="11.6832667"><ele>390.0</ele><time>2026-04-18T08:50:05.765Z</time></trkpt><trkpt lat="42.67766" lon="11.6833267"><ele>390.0</ele><time>2026-04-18T08:50:07.765Z</time></trkpt><trkpt lat="42.677535" lon="11.6833"><ele>390.0</ele><time>2026-04-18T08:50:09.765Z</time></trkpt><trkpt lat="42.6774717" lon="11.6832533"><ele>390.0</ele><time>2026-04-18T08:50:10.765Z</time></trkpt><trkpt lat="42.6774083" lon="11.683205"><ele>389.7142857142857</ele><time>2026-04-18T08:50:11.765Z</time></trkpt><trkpt lat="42.67734" lon="11.6831533"><ele>389.42857142857144</ele><time>2026-04-18T08:50:12.764Z</time></trkpt><trkpt lat="42.6772683" lon="11.6831067"><ele>389.1428571428571</ele><time>2026-04-18T08:50:13.765Z</time></trkpt><trkpt lat="42.677205" lon="11.68306"><ele>388.8571428571429</ele><time>2026-04-18T08:50:14.765Z</time></trkpt><trkpt lat="42.6771483" lon="11.6830167"><ele>388.5714285714286</ele><time>2026-04-18T08:50:15.765Z</time></trkpt><trkpt lat="42.6770967" lon="11.6829633"><ele>388.2857142857143</ele><time>2026-04-18T08:50:16.765Z</time></trkpt><trkpt lat="42.67705" lon="11.6828883"><ele>388.0</ele><time>2026-04-18T08:50:17.765Z</time></trkpt><trkpt lat="42.677" lon="11.682795"><ele>388.0</ele><time>2026-04-18T08:50:18.765Z</time></trkpt><trkpt lat="42.6769483" lon="11.6826817"><ele>388.0</ele><time>2026-04-18T08:50:19.765Z</time></trkpt><trkpt lat="42.6768933" lon="11.6825667"><ele>388.0</ele><time>2026-04-18T08:50:20.765Z</time></trkpt><trkpt lat="42.6768333" lon="11.6824417"><ele>388.0</ele><time>2026-04-18T08:50:21.764Z</time></trkpt><trkpt lat="42.67678" lon="11.68231"><ele>388.0</ele><time>2026-04-18T08:50:22.765Z</time></trkpt><trkpt lat="42.6767367" lon="11.6821783"><ele>388.0</ele><time>2026-04-18T08:50:23.765Z</time></trkpt><trkpt lat="42.6766983" lon="11.68205"><ele>388.0</ele><time>2026-04-18T08:50:24.765Z</time></trkpt><trkpt lat="42.6766633" lon="11.6819283"><ele>388.0</ele><time>2026-04-18T08:50:25.764Z</time></trkpt><trkpt lat="42.67663" lon="11.681805"><ele>388.0</ele><time>2026-04-18T08:50:26.764Z</time></trkpt><trkpt lat="42.6766" lon="11.6816883"><ele>388.0</ele><time>2026-04-18T08:50:27.765Z</time></trkpt><trkpt lat="42.6765633" lon="11.6815717"><ele>386.83333333333337</ele><time>2026-04-18T08:50:28.765Z</time></trkpt><trkpt lat="42.67653" lon="11.6814717"><ele>385.6666666666667</ele><time>2026-04-18T08:50:29.765Z</time></trkpt><trkpt lat="42.6764883" lon="11.6813683"><ele>384.5</ele><time>2026-04-18T08:50:30.765Z</time></trkpt><trkpt lat="42.6764317" lon="11.6812767"><ele>383.33333333333337</ele><time>2026-04-18T08:50:31.765Z</time></trkpt><trkpt lat="42.67637" lon="11.6811833"><ele>382.1666666666667</ele><time>2026-04-18T08:50:32.765Z</time></trkpt><trkpt lat="42.6762933" lon="11.6811067"><ele>381.0</ele><time>2026-04-18T08:50:33.765Z</time></trkpt><trkpt lat="42.676215" lon="11.6810267"><ele>381.4</ele><time>2026-04-18T08:50:34.765Z</time></trkpt><trkpt lat="42.676145" lon="11.6809333"><ele>381.8</ele><time>2026-04-18T08:50:35.764Z</time></trkpt><trkpt lat="42.67608" lon="11.6808383"><ele>382.2</ele><time>2026-04-18T08:50:36.765Z</time></trkpt><trkpt lat="42.676015" lon="11.6807367"><ele>382.59999999999997</ele><time>2026-04-18T08:50:37.765Z</time></trkpt><trkpt lat="42.6759467" lon="11.6806567"><ele>383.0</ele><time>2026-04-18T08:50:38.765Z</time></trkpt><trkpt lat="42.6758783" lon="11.68059"><ele>383.0</ele><time>2026-04-18T08:50:39.765Z</time></trkpt><trkpt lat="42.6758033" lon="11.680525"><ele>383.0</ele><time>2026-04-18T08:50:40.765Z</time></trkpt><trkpt lat="42.67574" lon="11.6804467"><ele>383.0</ele><time>2026-04-18T08:50:41.765Z</time></trkpt><trkpt lat="42.6756783" lon="11.6803467"><ele>383.0</ele><time>2026-04-18T08:50:42.764Z</time></trkpt><trkpt lat="42.67562" lon="11.680245"><ele>383.0</ele><time>2026-04-18T08:50:43.765Z</time></trkpt><trkpt lat="42.6755583" lon="11.6801283"><ele>381.4</ele><time>2026-04-18T08:50:44.765Z</time></trkpt><trkpt lat="42.6754967" lon="11.6800083"><ele>379.79999999999995</ele><time>2026-04-18T08:50:45.765Z</time></trkpt><trkpt lat="42.675445" lon="11.6798917"><ele>378.2</ele><time>2026-04-18T08:50:46.765Z</time></trkpt><trkpt lat="42.6753967" lon="11.679775"><ele>376.6</ele><time>2026-04-18T08:50:47.765Z</time></trkpt><trkpt lat="42.6753383" lon="11.6796767"><ele>375.0</ele><time>2026-04-18T08:50:48.765Z</time></trkpt><trkpt lat="42.6752833" lon="11.679585"><ele>375.5</ele><time>2026-04-18T08:50:49.765Z</time></trkpt><trkpt lat="42.675215" lon="11.6795017"><ele>376.0</ele><time>2026-04-18T08:50:50.765Z</time></trkpt><trkpt lat="42.6751467" lon="11.6794317"><ele>376.5</ele><time>2026-04-18T08:50:51.765Z</time></trkpt><trkpt lat="42.675075" lon="11.67937"><ele>377.0</ele><time>2026-04-18T08:50:52.765Z</time></trkpt><trkpt lat="42.6750067" lon="11.6793483"><ele>377.5</ele><time>2026-04-18T08:50:53.765Z</time></trkpt><trkpt lat="42.6749367" lon="11.6793267"><ele>378.0</ele><time>2026-04-18T08:50:54.765Z</time></trkpt><trkpt lat="42.6748717" lon="11.67932"><ele>378.0</ele><time>2026-04-18T08:50:55.765Z</time></trkpt><trkpt lat="42.6747617" lon="11.6792983"><ele>378.0</ele><time>2026-04-18T08:50:57.765Z</time></trkpt><trkpt lat="42.674695" lon="11.6792217"><ele>378.0</ele><time>2026-04-18T08:50:59.765Z</time></trkpt><trkpt lat="42.674655" lon="11.6790933"><ele>378.0</ele><time>2026-04-18T08:51:01.765Z</time></trkpt><trkpt lat="42.6746417" lon="11.6789417"><ele>378.0</ele><time>2026-04-18T08:51:03.765Z</time></trkpt><trkpt lat="42.6746583" lon="11.6787867"><ele>378.0</ele><time>2026-04-18T08:51:05.764Z</time></trkpt><trkpt lat="42.674665" lon="11.6786933"><ele>378.0</ele><time>2026-04-18T08:51:06.765Z</time></trkpt><trkpt lat="42.6746633" lon="11.678595"><ele>378.0</ele><time>2026-04-18T08:51:07.764Z</time></trkpt><trkpt lat="42.67466" lon="11.678485"><ele>378.0</ele><time>2026-04-18T08:51:08.764Z</time></trkpt><trkpt lat="42.6746517" lon="11.678365"><ele>378.0</ele><time>2026-04-18T08:51:09.765Z</time></trkpt><trkpt lat="42.6746483" lon="11.67825"><ele>378.0</ele><time>2026-04-18T08:51:10.765Z</time></trkpt><trkpt lat="42.67465" lon="11.67813"><ele>375.79999999999995</ele><time>2026-04-18T08:51:11.765Z</time></trkpt><trkpt lat="42.6746683" lon="11.6780067"><ele>373.6</ele><time>2026-04-18T08:51:12.765Z</time></trkpt><trkpt lat="42.6747" lon="11.6778817"><ele>371.4</ele><time>2026-04-18T08:51:13.765Z</time></trkpt><trkpt lat="42.674735" lon="11.67776"><ele>369.20000000000005</ele><time>2026-04-18T08:51:14.765Z</time></trkpt><trkpt lat="42.674775" lon="11.6776433"><ele>367.0</ele><time>2026-04-18T08:51:15.765Z</time></trkpt><trkpt lat="42.674805" lon="11.6775333"><ele>364.5</ele><time>2026-04-18T08:51:16.765Z</time></trkpt><trkpt lat="42.6748133" lon="11.67742"><ele>362.0</ele><time>2026-04-18T08:51:17.765Z</time></trkpt><trkpt lat="42.6747983" lon="11.6773283"><ele>359.5</ele><time>2026-04-18T08:51:18.765Z</time></trkpt><trkpt lat="42.6747617" lon="11.6772417"><ele>357.0</ele><time>2026-04-18T08:51:19.765Z</time></trkpt><trkpt lat="42.6747067" lon="11.6771433"><ele>354.5</ele><time>2026-04-18T08:51:20.765Z</time></trkpt><trkpt lat="42.674635" lon="11.6770567"><ele>352.0</ele><time>2026-04-18T08:51:21.765Z</time></trkpt><trkpt lat="42.6745517" lon="11.676965"><ele>352.40000000000003</ele><time>2026-04-18T08:51:22.765Z</time></trkpt><trkpt lat="42.6744867" lon="11.676865"><ele>352.8</ele><time>2026-04-18T08:51:23.765Z</time></trkpt><trkpt lat="42.6744217" lon="11.6767783"><ele>353.2</ele><time>2026-04-18T08:51:24.765Z</time></trkpt><trkpt lat="42.67436" lon="11.6766767"><ele>353.6</ele><time>2026-04-18T08:51:25.765Z</time></trkpt><trkpt lat="42.674325" lon="11.6765467"><ele>354.0</ele><time>2026-04-18T08:51:26.765Z</time></trkpt><trkpt lat="42.674295" lon="11.67642"><ele>354.0</ele><time>2026-04-18T08:51:27.765Z</time></trkpt><trkpt lat="42.6742667" lon="11.6762917"><ele>354.0</ele><time>2026-04-18T08:51:28.765Z</time></trkpt><trkpt lat="42.6742383" lon="11.676155"><ele>354.0</ele><time>2026-04-18T08:51:29.765Z</time></trkpt><trkpt lat="42.6742033" lon="11.6760183"><ele>354.0</ele><time>2026-04-18T08:51:30.765Z</time></trkpt><trkpt lat="42.6741633" lon="11.6758717"><ele>354.0</ele><time>2026-04-18T08:51:31.765Z</time></trkpt><trkpt lat="42.6741167" lon="11.6757267"><ele>353.4</ele><time>2026-04-18T08:51:32.765Z</time></trkpt><trkpt lat="42.6740717" lon="11.6755833"><ele>352.79999999999995</ele><time>2026-04-18T08:51:33.765Z</time></trkpt><trkpt lat="42.6740367" lon="11.67545"><ele>352.20000000000005</ele><time>2026-04-18T08:51:34.764Z</time></trkpt><trkpt lat="42.6739983" lon="11.67531"><ele>351.6</ele><time>2026-04-18T08:51:35.764Z</time></trkpt><trkpt lat="42.6739583" lon="11.6751867"><ele>351.0</ele><time>2026-04-18T08:51:36.765Z</time></trkpt><trkpt lat="42.6739383" lon="11.6750533"><ele>350.4</ele><time>2026-04-18T08:51:37.764Z</time></trkpt><trkpt lat="42.67392" lon="11.674915"><ele>349.8</ele><time>2026-04-18T08:51:38.765Z</time></trkpt><trkpt lat="42.6739033" lon="11.6747867"><ele>349.2</ele><time>2026-04-18T08:51:39.765Z</time></trkpt><trkpt lat="42.673885" lon="11.6746667"><ele>348.59999999999997</ele><time>2026-04-18T08:51:40.765Z</time></trkpt><trkpt lat="42.673865" lon="11.67456"><ele>348.0</ele><time>2026-04-18T08:51:41.765Z</time></trkpt><trkpt lat="42.673835" lon="11.6744533"><ele>348.2857142857143</ele><time>2026-04-18T08:51:42.765Z</time></trkpt><trkpt lat="42.6738" lon="11.6743667"><ele>348.57142857142856</ele><time>2026-04-18T08:51:43.765Z</time></trkpt><trkpt lat="42.67375" lon="11.6742967"><ele>348.8571428571429</ele><time>2026-04-18T08:51:44.765Z</time></trkpt><trkpt lat="42.67369" lon="11.67424"><ele>349.1428571428571</ele><time>2026-04-18T08:51:45.765Z</time></trkpt><trkpt lat="42.67363" lon="11.67419"><ele>349.42857142857144</ele><time>2026-04-18T08:51:46.765Z</time></trkpt><trkpt lat="42.67356" lon="11.6741483"><ele>349.7142857142857</ele><time>2026-04-18T08:51:47.765Z</time></trkpt><trkpt lat="42.6734933" lon="11.674115"><ele>350.0</ele><time>2026-04-18T08:51:48.765Z</time></trkpt><trkpt lat="42.673415" lon="11.674065"><ele>350.0</ele><time>2026-04-18T08:51:49.765Z</time></trkpt><trkpt lat="42.673335" lon="11.6740217"><ele>350.0</ele><time>2026-04-18T08:51:50.765Z</time></trkpt><trkpt lat="42.6732517" lon="11.6739683"><ele>350.0</ele><time>2026-04-18T08:51:51.765Z</time></trkpt><trkpt lat="42.6731683" lon="11.67391"><ele>350.0</ele><time>2026-04-18T08:51:52.765Z</time></trkpt><trkpt lat="42.67309" lon="11.6738517"><ele>350.0</ele><time>2026-04-18T08:51:53.765Z</time></trkpt><trkpt lat="42.673005" lon="11.6737933"><ele>350.0</ele><time>2026-04-18T08:51:54.765Z</time></trkpt><trkpt lat="42.672915" lon="11.673745"><ele>350.0</ele><time>2026-04-18T08:51:55.765Z</time></trkpt><trkpt lat="42.6728217" lon="11.6736817"><ele>350.0</ele><time>2026-04-18T08:51:56.765Z</time></trkpt><trkpt lat="42.6727183" lon="11.67362"><ele>350.0</ele><time>2026-04-18T08:51:57.765Z</time></trkpt><trkpt lat="42.672605" lon="11.6735433"><ele>350.0</ele><time>2026-04-18T08:51:58.765Z</time></trkpt><trkpt lat="42.6725" lon="11.673465"><ele>348.0</ele><time>2026-04-18T08:51:59.765Z</time></trkpt><trkpt lat="42.672405" lon="11.6733717"><ele>346.0</ele><time>2026-04-18T08:52:00.765Z</time></trkpt><trkpt lat="42.672315" lon="11.6732783"><ele>344.0</ele><time>2026-04-18T08:52:01.765Z</time></trkpt><trkpt lat="42.6722283" lon="11.6731883"><ele>342.0</ele><time>2026-04-18T08:52:02.765Z</time></trkpt><trkpt lat="42.6721333" lon="11.673085"><ele>342.0</ele><time>2026-04-18T08:52:03.764Z</time></trkpt><trkpt lat="42.6720433" lon="11.6729817"><ele>342.0</ele><time>2026-04-18T08:52:04.764Z</time></trkpt><trkpt lat="42.6719533" lon="11.6728733"><ele>342.0</ele><time>2026-04-18T08:52:05.765Z</time></trkpt><trkpt lat="42.6718583" lon="11.6727733"><ele>342.0</ele><time>2026-04-18T08:52:06.765Z</time></trkpt><trkpt lat="42.6717717" lon="11.6726783"><ele>341.0</ele><time>2026-04-18T08:52:07.765Z</time></trkpt><trkpt lat="42.6716867" lon="11.6725733"><ele>340.0</ele><time>2026-04-18T08:52:08.765Z</time></trkpt><trkpt lat="42.6715967" lon="11.67246"><ele>339.0</ele><time>2026-04-18T08:52:09.765Z</time></trkpt><trkpt lat="42.6715067" lon="11.6723367"><ele>338.0</ele><time>2026-04-18T08:52:10.765Z</time></trkpt><trkpt lat="42.6714083" lon="11.6722267"><ele>338.0</ele><time>2026-04-18T08:52:11.765Z</time></trkpt><trkpt lat="42.6713233" lon="11.6721117"><ele>338.0</ele><time>2026-04-18T08:52:12.765Z</time></trkpt><trkpt lat="42.6712383" lon="11.6720067"><ele>338.0</ele><time>2026-04-18T08:52:13.765Z</time></trkpt><trkpt lat="42.67117" lon="11.6719083"><ele>338.0</ele><time>2026-04-18T08:52:14.765Z</time></trkpt><trkpt lat="42.671105" lon="11.671815"><ele>338.0</ele><time>2026-04-18T08:52:15.765Z</time></trkpt><trkpt lat="42.6710417" lon="11.6717183"><ele>336.83333333333337</ele><time>2026-04-18T08:52:16.765Z</time></trkpt><trkpt lat="42.6709767" lon="11.671635"><ele>335.6666666666667</ele><time>2026-04-18T08:52:17.765Z</time></trkpt><trkpt lat="42.6709" lon="11.6715683"><ele>334.5</ele><time>2026-04-18T08:52:18.765Z</time></trkpt><trkpt lat="42.6708233" lon="11.6715017"><ele>333.3333333333333</ele><time>2026-04-18T08:52:19.765Z</time></trkpt><trkpt lat="42.67075" lon="11.67143"><ele>332.16666666666663</ele><time>2026-04-18T08:52:20.765Z</time></trkpt><trkpt lat="42.6706817" lon="11.6713633"><ele>331.0</ele><time>2026-04-18T08:52:21.765Z</time></trkpt><trkpt lat="42.6706183" lon="11.6712917"><ele>331.0</ele><time>2026-04-18T08:52:22.765Z</time></trkpt><trkpt lat="42.67056" lon="11.6712317"><ele>331.0</ele><time>2026-04-18T08:52:23.765Z</time></trkpt><trkpt lat="42.67051" lon="11.671175"><ele>331.0</ele><time>2026-04-18T08:52:24.765Z</time></trkpt><trkpt lat="42.6704167" lon="11.6711083"><ele>331.0</ele><time>2026-04-18T08:52:26.765Z</time></trkpt><trkpt lat="42.6703367" lon="11.67115"><ele>331.0</ele><time>2026-04-18T08:52:28.765Z</time></trkpt><trkpt lat="42.670295" lon="11.6712317"><ele>331.0</ele><time>2026-04-18T08:52:29.765Z</time></trkpt><trkpt lat="42.6702333" lon="11.6713367"><ele>330.0</ele><time>2026-04-18T08:52:30.765Z</time></trkpt><trkpt lat="42.6701583" lon="11.6714533"><ele>329.0</ele><time>2026-04-18T08:52:31.765Z</time></trkpt><trkpt lat="42.6700767" lon="11.6715567"><ele>328.0</ele><time>2026-04-18T08:52:32.765Z</time></trkpt><trkpt lat="42.6699933" lon="11.6716533"><ele>327.0</ele><time>2026-04-18T08:52:33.765Z</time></trkpt><trkpt lat="42.6698917" lon="11.67175"><ele>327.0</ele><time>2026-04-18T08:52:34.765Z</time></trkpt><trkpt lat="42.6697883" lon="11.6718417"><ele>327.0</ele><time>2026-04-18T08:52:35.765Z</time></trkpt><trkpt lat="42.6696967" lon="11.67193"><ele>327.0</ele><time>2026-04-18T08:52:36.765Z</time></trkpt><trkpt lat="42.669625" lon="11.6719933"><ele>327.0</ele><time>2026-04-18T08:52:37.764Z</time></trkpt><trkpt lat="42.66955" lon="11.6720583"><ele>327.0</ele><time>2026-04-18T08:52:38.765Z</time></trkpt><trkpt lat="42.6694783" lon="11.6721283"><ele>327.6</ele><time>2026-04-18T08:52:39.765Z</time></trkpt><trkpt lat="42.66939" lon="11.6721833"><ele>328.20000000000005</ele><time>2026-04-18T08:52:40.765Z</time></trkpt><trkpt lat="42.6692917" lon="11.6722183"><ele>328.8</ele><time>2026-04-18T08:52:41.765Z</time></trkpt><trkpt lat="42.669175" lon="11.6722533"><ele>329.4</ele><time>2026-04-18T08:52:42.765Z</time></trkpt><trkpt lat="42.6690567" lon="11.6722833"><ele>330.0</ele><time>2026-04-18T08:52:43.765Z</time></trkpt><trkpt lat="42.6689383" lon="11.672325"><ele>330.0</ele><time>2026-04-18T08:52:44.765Z</time></trkpt><trkpt lat="42.668835" lon="11.6723633"><ele>330.0</ele><time>2026-04-18T08:52:45.765Z</time></trkpt><trkpt lat="42.6687433" lon="11.6723933"><ele>330.0</ele><time>2026-04-18T08:52:46.765Z</time></trkpt><trkpt lat="42.6686583" lon="11.6724067"><ele>330.0</ele><time>2026-04-18T08:52:47.765Z</time></trkpt><trkpt lat="42.6685717" lon="11.672395"><ele>330.0</ele><time>2026-04-18T08:52:48.765Z</time></trkpt><trkpt lat="42.6684883" lon="11.6723567"><ele>331.4</ele><time>2026-04-18T08:52:49.765Z</time></trkpt><trkpt lat="42.6684017" lon="11.672315"><ele>332.8</ele><time>2026-04-18T08:52:50.765Z</time></trkpt><trkpt lat="42.6683017" lon="11.6722767"><ele>334.20000000000005</ele><time>2026-04-18T08:52:51.765Z</time></trkpt><trkpt lat="42.668195" lon="11.672245"><ele>335.6</ele><time>2026-04-18T08:52:52.765Z</time></trkpt><trkpt lat="42.6680983" lon="11.6722117"><ele>337.0</ele><time>2026-04-18T08:52:53.765Z</time></trkpt><trkpt lat="42.668005" lon="11.672185"><ele>337.0</ele><time>2026-04-18T08:52:54.765Z</time></trkpt><trkpt lat="42.6679117" lon="11.6721483"><ele>337.0</ele><time>2026-04-18T08:52:55.765Z</time></trkpt><trkpt lat="42.6678217" lon="11.6720967"><ele>337.0</ele><time>2026-04-18T08:52:56.765Z</time></trkpt><trkpt lat="42.66772" lon="11.6720333"><ele>337.0</ele><time>2026-04-18T08:52:57.765Z</time></trkpt><trkpt lat="42.6676283" lon="11.6719867"><ele>337.0</ele><time>2026-04-18T08:52:58.765Z</time></trkpt><trkpt lat="42.6675467" lon="11.6719067"><ele>336.0</ele><time>2026-04-18T08:52:59.765Z</time></trkpt><trkpt lat="42.66746" lon="11.67184"><ele>335.0</ele><time>2026-04-18T08:53:00.765Z</time></trkpt><trkpt lat="42.6673717" lon="11.6717783"><ele>334.0</ele><time>2026-04-18T08:53:01.765Z</time></trkpt><trkpt lat="42.6672917" lon="11.6717267"><ele>333.0</ele><time>2026-04-18T08:53:02.765Z</time></trkpt><trkpt lat="42.667225" lon="11.6716883"><ele>332.0</ele><time>2026-04-18T08:53:03.765Z</time></trkpt><trkpt lat="42.6671267" lon="11.6716283"><ele>332.0</ele><time>2026-04-18T08:53:05.765Z</time></trkpt><trkpt lat="42.6670433" lon="11.6715867"><ele>332.0</ele><time>2026-04-18T08:53:07.765Z</time></trkpt><trkpt lat="42.666955" lon="11.671525"><ele>332.0</ele><time>2026-04-18T08:53:09.765Z</time></trkpt><trkpt lat="42.6668583" lon="11.6714567"><ele>332.0</ele><time>2026-04-18T08:53:11.765Z</time></trkpt><trkpt lat="42.666775" lon="11.6714117"><ele>332.0</ele><time>2026-04-18T08:53:13.765Z</time></trkpt><trkpt lat="42.6667233" lon="11.6713517"><ele>332.0</ele><time>2026-04-18T08:53:15.765Z</time></trkpt><trkpt lat="42.6667833" lon="11.6712733"><ele>332.0</ele><time>2026-04-18T08:53:19.765Z</time></trkpt><trkpt lat="42.66693" lon="11.6712383"><ele>332.0</ele><time>2026-04-18T08:53:21.764Z</time></trkpt><trkpt lat="42.6670283" lon="11.671175"><ele>332.0</ele><time>2026-04-18T08:53:22.765Z</time></trkpt><trkpt lat="42.6671133" lon="11.6710867"><ele>332.0</ele><time>2026-04-18T08:53:23.765Z</time></trkpt><trkpt lat="42.6671833" lon="11.6709667"><ele>332.0</ele><time>2026-04-18T08:53:24.765Z</time></trkpt><trkpt lat="42.6672333" lon="11.6708317"><ele>332.0</ele><time>2026-04-18T08:53:25.765Z</time></trkpt><trkpt lat="42.6672833" lon="11.6706833"><ele>332.0</ele><time>2026-04-18T08:53:26.765Z</time></trkpt><trkpt lat="42.6673167" lon="11.6705333"><ele>332.0</ele><time>2026-04-18T08:53:27.765Z</time></trkpt><trkpt lat="42.6673467" lon="11.670385"><ele>331.75</ele><time>2026-04-18T08:53:28.765Z</time></trkpt><trkpt lat="42.6673783" lon="11.6702333"><ele>331.5</ele><time>2026-04-18T08:53:29.765Z</time></trkpt><trkpt lat="42.6674033" lon="11.6700783"><ele>331.25</ele><time>2026-04-18T08:53:30.765Z</time></trkpt><trkpt lat="42.66741" lon="11.6699317"><ele>331.0</ele><time>2026-04-18T08:53:31.764Z</time></trkpt><trkpt lat="42.66741" lon="11.6697817"><ele>331.0</ele><time>2026-04-18T08:53:32.765Z</time></trkpt><trkpt lat="42.667405" lon="11.66964"><ele>331.0</ele><time>2026-04-18T08:53:33.765Z</time></trkpt><trkpt lat="42.6673967" lon="11.669495"><ele>331.0</ele><time>2026-04-18T08:53:34.765Z</time></trkpt><trkpt lat="42.667385" lon="11.66937"><ele>331.0</ele><time>2026-04-18T08:53:35.765Z</time></trkpt><trkpt lat="42.66739" lon="11.669255"><ele>331.0</ele><time>2026-04-18T08:53:36.765Z</time></trkpt><trkpt lat="42.667405" lon="11.66916"><ele>331.16666666666663</ele><time>2026-04-18T08:53:37.765Z</time></trkpt><trkpt lat="42.6674417" lon="11.6690867"><ele>331.3333333333333</ele><time>2026-04-18T08:53:38.765Z</time></trkpt><trkpt lat="42.66749" lon="11.669025"><ele>331.5</ele><time>2026-04-18T08:53:39.764Z</time></trkpt><trkpt lat="42.667565" lon="11.6689633"><ele>331.6666666666667</ele><time>2026-04-18T08:53:40.765Z</time></trkpt><trkpt lat="42.667645" lon="11.6688917"><ele>331.83333333333337</ele><time>2026-04-18T08:53:41.765Z</time></trkpt><trkpt lat="42.6677167" lon="11.6688083"><ele>332.0</ele><time>2026-04-18T08:53:42.765Z</time></trkpt><trkpt lat="42.6677783" lon="11.66872"><ele>331.40000000000003</ele><time>2026-04-18T08:53:43.765Z</time></trkpt><trkpt lat="42.66783" lon="11.668605"><ele>330.8</ele><time>2026-04-18T08:53:44.765Z</time></trkpt><trkpt lat="42.66788" lon="11.6685067"><ele>330.2</ele><time>2026-04-18T08:53:45.765Z</time></trkpt><trkpt lat="42.66794" lon="11.6684033"><ele>329.6</ele><time>2026-04-18T08:53:46.765Z</time></trkpt><trkpt lat="42.668025" lon="11.6683"><ele>329.0</ele><time>2026-04-18T08:53:47.765Z</time></trkpt><trkpt lat="42.6681283" lon="11.6682017"><ele>329.0</ele><time>2026-04-18T08:53:48.765Z</time></trkpt><trkpt lat="42.6682483" lon="11.6680983"><ele>329.0</ele><time>2026-04-18T08:53:49.765Z</time></trkpt><trkpt lat="42.668365" lon="11.66801"><ele>329.0</ele><time>2026-04-18T08:53:50.765Z</time></trkpt><trkpt lat="42.6684833" lon="11.6679283"><ele>329.0</ele><time>2026-04-18T08:53:51.765Z</time></trkpt><trkpt lat="42.6686067" lon="11.667865"><ele>329.0</ele><time>2026-04-18T08:53:52.764Z</time></trkpt><trkpt lat="42.6687317" lon="11.6678067"><ele>329.0</ele><time>2026-04-18T08:53:53.765Z</time></trkpt><trkpt lat="42.6688583" lon="11.6677483"><ele>329.0</ele><time>2026-04-18T08:53:54.765Z</time></trkpt><trkpt lat="42.6689717" lon="11.6676883"><ele>329.0</ele><time>2026-04-18T08:53:55.765Z</time></trkpt><trkpt lat="42.6690817" lon="11.66762"><ele>329.0</ele><time>2026-04-18T08:53:56.765Z</time></trkpt><trkpt lat="42.6691883" lon="11.6675383"><ele>329.0</ele><time>2026-04-18T08:53:57.765Z</time></trkpt><trkpt lat="42.6692783" lon="11.6674583"><ele>329.0</ele><time>2026-04-18T08:53:58.765Z</time></trkpt><trkpt lat="42.669355" lon="11.667355"><ele>329.0</ele><time>2026-04-18T08:53:59.765Z</time></trkpt><trkpt lat="42.6694333" lon="11.6672317"><ele>328.25</ele><time>2026-04-18T08:54:00.765Z</time></trkpt><trkpt lat="42.6695067" lon="11.6671033"><ele>327.5</ele><time>2026-04-18T08:54:01.765Z</time></trkpt><trkpt lat="42.66958" lon="11.66698"><ele>326.75</ele><time>2026-04-18T08:54:02.765Z</time></trkpt><trkpt lat="42.66965" lon="11.6668567"><ele>326.0</ele><time>2026-04-18T08:54:03.765Z</time></trkpt><trkpt lat="42.6697267" lon="11.6667317"><ele>325.0</ele><time>2026-04-18T08:54:04.765Z</time></trkpt><trkpt lat="42.6698267" lon="11.666605"><ele>324.0</ele><time>2026-04-18T08:54:05.765Z</time></trkpt><trkpt lat="42.669935" lon="11.66648"><ele>323.0</ele><time>2026-04-18T08:54:06.765Z</time></trkpt><trkpt lat="42.6700417" lon="11.6663717"><ele>322.0</ele><time>2026-04-18T08:54:07.764Z</time></trkpt><trkpt lat="42.670155" lon="11.6662683"><ele>322.0</ele><time>2026-04-18T08:54:08.765Z</time></trkpt><trkpt lat="42.67026" lon="11.6661633"><ele>322.0</ele><time>2026-04-18T08:54:09.765Z</time></trkpt><trkpt lat="42.6703717" lon="11.6660583"><ele>322.0</ele><time>2026-04-18T08:54:10.765Z</time></trkpt><trkpt lat="42.6704817" lon="11.665965"><ele>322.0</ele><time>2026-04-18T08:54:11.765Z</time></trkpt><trkpt lat="42.6705933" lon="11.665895"><ele>318.8</ele><time>2026-04-18T08:54:12.765Z</time></trkpt><trkpt lat="42.670705" lon="11.6658383"><ele>315.6</ele><time>2026-04-18T08:54:13.764Z</time></trkpt><trkpt lat="42.67079" lon="11.6657717"><ele>312.40000000000003</ele><time>2026-04-18T08:54:14.765Z</time></trkpt><trkpt lat="42.6708667" lon="11.665675"><ele>309.20000000000005</ele><time>2026-04-18T08:54:15.765Z</time></trkpt><trkpt lat="42.670945" lon="11.665555"><ele>306.0</ele><time>2026-04-18T08:54:16.765Z</time></trkpt><trkpt lat="42.6710317" lon="11.6654317"><ele>305.0</ele><time>2026-04-18T08:54:17.765Z</time></trkpt><trkpt lat="42.6711283" lon="11.6653067"><ele>304.0</ele><time>2026-04-18T08:54:18.765Z</time></trkpt><trkpt lat="42.6712517" lon="11.6651767"><ele>303.0</ele><time>2026-04-18T08:54:19.765Z</time></trkpt><trkpt lat="42.6713883" lon="11.6650233"><ele>299.0</ele><time>2026-04-18T08:54:20.765Z</time></trkpt><trkpt lat="42.6715367" lon="11.6648467"><ele>295.0</ele><time>2026-04-18T08:54:21.764Z</time></trkpt><trkpt lat="42.6716783" lon="11.6646717"><ele>291.0</ele><time>2026-04-18T08:54:22.765Z</time></trkpt><trkpt lat="42.6717983" lon="11.6645217"><ele>290.5</ele><time>2026-04-18T08:54:23.765Z</time></trkpt><trkpt lat="42.67191" lon="11.6644017"><ele>290.0</ele><time>2026-04-18T08:54:24.764Z</time></trkpt><trkpt lat="42.6720083" lon="11.6642983"><ele>289.5</ele><time>2026-04-18T08:54:25.765Z</time></trkpt><trkpt lat="42.672095" lon="11.6642033"><ele>289.0</ele><time>2026-04-18T08:54:26.765Z</time></trkpt><trkpt lat="42.67217" lon="11.6640967"><ele>291.2</ele><time>2026-04-18T08:54:27.765Z</time></trkpt><trkpt lat="42.67222" lon="11.663975"><ele>293.4</ele><time>2026-04-18T08:54:28.765Z</time></trkpt><trkpt lat="42.672255" lon="11.6638417"><ele>295.6</ele><time>2026-04-18T08:54:29.765Z</time></trkpt><trkpt lat="42.6722733" lon="11.6637117"><ele>297.8</ele><time>2026-04-18T08:54:30.765Z</time></trkpt><trkpt lat="42.67229" lon="11.6635867"><ele>300.0</ele><time>2026-04-18T08:54:31.765Z</time></trkpt><trkpt lat="42.6723017" lon="11.663475"><ele>301.4</ele><time>2026-04-18T08:54:32.764Z</time></trkpt><trkpt lat="42.6723217" lon="11.6633867"><ele>302.8</ele><time>2026-04-18T08:54:33.765Z</time></trkpt><trkpt lat="42.67239" lon="11.6632533"><ele>304.2</ele><time>2026-04-18T08:54:35.765Z</time></trkpt><trkpt lat="42.6725067" lon="11.6632067"><ele>305.6</ele><time>2026-04-18T08:54:37.765Z</time></trkpt><trkpt lat="42.672585" lon="11.6632267"><ele>307.0</ele><time>2026-04-18T08:54:38.765Z</time></trkpt><trkpt lat="42.67268" lon="11.6632767"><ele>311.5</ele><time>2026-04-18T08:54:39.765Z</time></trkpt><trkpt lat="42.672785" lon="11.6633467"><ele>316.0</ele><time>2026-04-18T08:54:40.765Z</time></trkpt><trkpt lat="42.6728983" lon="11.66343"><ele>320.5</ele><time>2026-04-18T08:54:41.765Z</time></trkpt><trkpt lat="42.67299" lon="11.6635317"><ele>325.0</ele><time>2026-04-18T08:54:42.765Z</time></trkpt><trkpt lat="42.6730683" lon="11.6636517"><ele>325.0</ele><time>2026-04-18T08:54:43.765Z</time></trkpt><trkpt lat="42.6731483" lon="11.663765"><ele>325.0</ele><time>2026-04-18T08:54:44.765Z</time></trkpt><trkpt lat="42.6732317" lon="11.66389"><ele>325.0</ele><time>2026-04-18T08:54:45.765Z</time></trkpt><trkpt lat="42.67331" lon="11.6640117"><ele>325.0</ele><time>2026-04-18T08:54:46.765Z</time></trkpt><trkpt lat="42.6733783" lon="11.6641183"><ele>325.0</ele><time>2026-04-18T08:54:47.765Z</time></trkpt><trkpt lat="42.6734533" lon="11.6642083"><ele>325.0</ele><time>2026-04-18T08:54:48.765Z</time></trkpt><trkpt lat="42.6735333" lon="11.6642933"><ele>325.0</ele><time>2026-04-18T08:54:49.765Z</time></trkpt><trkpt lat="42.67362" lon="11.6643533"><ele>325.0</ele><time>2026-04-18T08:54:50.764Z</time></trkpt><trkpt lat="42.6737033" lon="11.6643967"><ele>325.0</ele><time>2026-04-18T08:54:51.765Z</time></trkpt><trkpt lat="42.673775" lon="11.6644283"><ele>326.6</ele><time>2026-04-18T08:54:52.765Z</time></trkpt><trkpt lat="42.6738717" lon="11.664465"><ele>328.2</ele><time>2026-04-18T08:54:54.765Z</time></trkpt><trkpt lat="42.6739267" lon="11.6644"><ele>329.79999999999995</ele><time>2026-04-18T08:54:56.765Z</time></trkpt><trkpt lat="42.6739317" lon="11.6642483"><ele>331.4</ele><time>2026-04-18T08:54:58.765Z</time></trkpt><trkpt lat="42.673905" lon="11.6641467"><ele>333.0</ele><time>2026-04-18T08:54:59.765Z</time></trkpt><trkpt lat="42.6738667" lon="11.6640233"><ele>333.25</ele><time>2026-04-18T08:55:00.765Z</time></trkpt><trkpt lat="42.6738017" lon="11.6638717"><ele>333.5</ele><time>2026-04-18T08:55:01.765Z</time></trkpt><trkpt lat="42.673725" lon="11.6637017"><ele>333.75</ele><time>2026-04-18T08:55:02.765Z</time></trkpt><trkpt lat="42.67365" lon="11.663545"><ele>334.0</ele><time>2026-04-18T08:55:03.765Z</time></trkpt><trkpt lat="42.6735783" lon="11.6634133"><ele>334.0</ele><time>2026-04-18T08:55:04.765Z</time></trkpt><trkpt lat="42.6735317" lon="11.6633017"><ele>334.0</ele><time>2026-04-18T08:55:05.765Z</time></trkpt><trkpt lat="42.67348" lon="11.6632017"><ele>334.0</ele><time>2026-04-18T08:55:06.765Z</time></trkpt><trkpt lat="42.6734383" lon="11.6630917"><ele>334.0</ele><time>2026-04-18T08:55:07.765Z</time></trkpt><trkpt lat="42.6733833" lon="11.6629767"><ele>334.0</ele><time>2026-04-18T08:55:08.765Z</time></trkpt><trkpt lat="42.6733217" lon="11.6628667"><ele>335.6</ele><time>2026-04-18T08:55:09.765Z</time></trkpt><trkpt lat="42.6732567" lon="11.6627483"><ele>337.2</ele><time>2026-04-18T08:55:10.765Z</time></trkpt><trkpt lat="42.6732017" lon="11.662635"><ele>338.8</ele><time>2026-04-18T08:55:11.765Z</time></trkpt><trkpt lat="42.67316" lon="11.6625267"><ele>340.40000000000003</ele><time>2026-04-18T08:55:12.765Z</time></trkpt><trkpt lat="42.6731317" lon="11.6624333"><ele>342.0</ele><time>2026-04-18T08:55:13.765Z</time></trkpt><trkpt lat="42.6730967" lon="11.6623283"><ele>342.0</ele><time>2026-04-18T08:55:14.765Z</time></trkpt><trkpt lat="42.6730517" lon="11.662235"><ele>342.0</ele><time>2026-04-18T08:55:15.765Z</time></trkpt><trkpt lat="42.6729917" lon="11.662145"><ele>342.0</ele><time>2026-04-18T08:55:16.765Z</time></trkpt><trkpt lat="42.6729183" lon="11.6620717"><ele>342.0</ele><time>2026-04-18T08:55:17.765Z</time></trkpt><trkpt lat="42.67283" lon="11.6620133"><ele>342.0</ele><time>2026-04-18T08:55:18.765Z</time></trkpt><trkpt lat="42.6727517" lon="11.6619583"><ele>342.0</ele><time>2026-04-18T08:55:19.765Z</time></trkpt><trkpt lat="42.67267" lon="11.6618917"><ele>339.25</ele><time>2026-04-18T08:55:20.765Z</time></trkpt><trkpt lat="42.672585" lon="11.66179"><ele>336.5</ele><time>2026-04-18T08:55:21.765Z</time></trkpt><trkpt lat="42.6725117" lon="11.661675"><ele>333.75</ele><time>2026-04-18T08:55:22.764Z</time></trkpt><trkpt lat="42.672445" lon="11.66155"><ele>331.0</ele><time>2026-04-18T08:55:23.765Z</time></trkpt><trkpt lat="42.6723733" lon="11.6614183"><ele>331.0</ele><time>2026-04-18T08:55:24.765Z</time></trkpt><trkpt lat="42.6722983" lon="11.6612917"><ele>331.0</ele><time>2026-04-18T08:55:25.765Z</time></trkpt><trkpt lat="42.6722133" lon="11.6611617"><ele>331.0</ele><time>2026-04-18T08:55:26.765Z</time></trkpt><trkpt lat="42.6721283" lon="11.661035"><ele>331.0</ele><time>2026-04-18T08:55:27.765Z</time></trkpt><trkpt lat="42.6720483" lon="11.6609083"><ele>333.0</ele><time>2026-04-18T08:55:28.765Z</time></trkpt><trkpt lat="42.6719683" lon="11.6607667"><ele>335.0</ele><time>2026-04-18T08:55:29.765Z</time></trkpt><trkpt lat="42.671875" lon="11.6606217"><ele>337.0</ele><time>2026-04-18T08:55:30.765Z</time></trkpt><trkpt lat="42.6717817" lon="11.6604733"><ele>339.0</ele><time>2026-04-18T08:55:31.765Z</time></trkpt><trkpt lat="42.6717083" lon="11.6603333"><ele>336.75</ele><time>2026-04-18T08:55:32.765Z</time></trkpt><trkpt lat="42.6716267" lon="11.6602017"><ele>334.5</ele><time>2026-04-18T08:55:33.765Z</time></trkpt><trkpt lat="42.6715483" lon="11.6600783"><ele>332.25</ele><time>2026-04-18T08:55:34.765Z</time></trkpt><trkpt lat="42.67147" lon="11.6599633"><ele>330.0</ele><time>2026-04-18T08:55:35.765Z</time></trkpt><trkpt lat="42.6714067" lon="11.6598517"><ele>330.0</ele><time>2026-04-18T08:55:36.765Z</time></trkpt><trkpt lat="42.6713583" lon="11.6597367"><ele>330.0</ele><time>2026-04-18T08:55:37.765Z</time></trkpt><trkpt lat="42.6713267" lon="11.6596067"><ele>330.0</ele><time>2026-04-18T08:55:38.765Z</time></trkpt><trkpt lat="42.6713117" lon="11.6594767"><ele>330.0</ele><time>2026-04-18T08:55:39.765Z</time></trkpt><trkpt lat="42.67131" lon="11.6593533"><ele>330.0</ele><time>2026-04-18T08:55:40.765Z</time></trkpt><trkpt lat="42.6713117" lon="11.6592383"><ele>330.6666666666667</ele><time>2026-04-18T08:55:41.765Z</time></trkpt><trkpt lat="42.6713033" lon="11.6591283"><ele>331.3333333333333</ele><time>2026-04-18T08:55:42.765Z</time></trkpt><trkpt lat="42.6712767" lon="11.659035"><ele>332.0</ele><time>2026-04-18T08:55:43.764Z</time></trkpt><trkpt lat="42.6712367" lon="11.6589483"><ele>332.66666666666663</ele><time>2026-04-18T08:55:44.765Z</time></trkpt><trkpt lat="42.6711833" lon="11.658875"><ele>333.3333333333333</ele><time>2026-04-18T08:55:45.765Z</time></trkpt><trkpt lat="42.6711067" lon="11.65882"><ele>334.0</ele><time>2026-04-18T08:55:46.765Z</time></trkpt><trkpt lat="42.6710217" lon="11.6587867"><ele>332.2</ele><time>2026-04-18T08:55:47.765Z</time></trkpt><trkpt lat="42.6709317" lon="11.6587717"><ele>330.4</ele><time>2026-04-18T08:55:48.765Z</time></trkpt><trkpt lat="42.6708433" lon="11.6587733"><ele>328.6</ele><time>2026-04-18T08:55:49.765Z</time></trkpt><trkpt lat="42.6707433" lon="11.65878"><ele>326.8</ele><time>2026-04-18T08:55:50.765Z</time></trkpt><trkpt lat="42.6706433" lon="11.6587817"><ele>325.0</ele><time>2026-04-18T08:55:51.764Z</time></trkpt><trkpt lat="42.6705517" lon="11.6587767"><ele>325.0</ele><time>2026-04-18T08:55:52.765Z</time></trkpt><trkpt lat="42.6704567" lon="11.65878"><ele>325.0</ele><time>2026-04-18T08:55:53.765Z</time></trkpt><trkpt lat="42.670365" lon="11.6587533"><ele>325.0</ele><time>2026-04-18T08:55:54.765Z</time></trkpt><trkpt lat="42.6702733" lon="11.6587"><ele>325.0</ele><time>2026-04-18T08:55:55.765Z</time></trkpt><trkpt lat="42.6701967" lon="11.6586333"><ele>325.0</ele><time>2026-04-18T08:55:56.765Z</time></trkpt><trkpt lat="42.6701117" lon="11.6585533"><ele>325.6</ele><time>2026-04-18T08:55:57.765Z</time></trkpt><trkpt lat="42.6700267" lon="11.6584783"><ele>326.2</ele><time>2026-04-18T08:55:58.765Z</time></trkpt><trkpt lat="42.6699383" lon="11.658415"><ele>326.79999999999995</ele><time>2026-04-18T08:55:59.765Z</time></trkpt><trkpt lat="42.6698533" lon="11.658355"><ele>327.4</ele><time>2026-04-18T08:56:00.765Z</time></trkpt><trkpt lat="42.6697683" lon="11.6582733"><ele>328.0</ele><time>2026-04-18T08:56:01.765Z</time></trkpt><trkpt lat="42.6696983" lon="11.6581733"><ele>328.0</ele><time>2026-04-18T08:56:02.765Z</time></trkpt><trkpt lat="42.6696383" lon="11.658065"><ele>328.0</ele><time>2026-04-18T08:56:03.765Z</time></trkpt><trkpt lat="42.6695833" lon="11.65795"><ele>328.0</ele><time>2026-04-18T08:56:04.765Z</time></trkpt><trkpt lat="42.6695233" lon="11.6578267"><ele>328.0</ele><time>2026-04-18T08:56:05.765Z</time></trkpt><trkpt lat="42.6694517" lon="11.6577"><ele>328.0</ele><time>2026-04-18T08:56:06.765Z</time></trkpt><trkpt lat="42.6693733" lon="11.6575683"><ele>327.0</ele><time>2026-04-18T08:56:07.765Z</time></trkpt><trkpt lat="42.669315" lon="11.6574367"><ele>326.0</ele><time>2026-04-18T08:56:08.765Z</time></trkpt><trkpt lat="42.66926" lon="11.6573167"><ele>325.0</ele><time>2026-04-18T08:56:09.765Z</time></trkpt><trkpt lat="42.6692083" lon="11.6571933"><ele>324.0</ele><time>2026-04-18T08:56:10.764Z</time></trkpt><trkpt lat="42.66916" lon="11.6570617"><ele>323.0</ele><time>2026-04-18T08:56:11.765Z</time></trkpt><trkpt lat="42.6690983" lon="11.6569283"><ele>323.0</ele><time>2026-04-18T08:56:12.765Z</time></trkpt><trkpt lat="42.6690367" lon="11.6567967"><ele>323.0</ele><time>2026-04-18T08:56:13.765Z</time></trkpt><trkpt lat="42.6689667" lon="11.6566717"><ele>323.0</ele><time>2026-04-18T08:56:14.765Z</time></trkpt><trkpt lat="42.6688933" lon="11.656545"><ele>323.0</ele><time>2026-04-18T08:56:15.764Z</time></trkpt><trkpt lat="42.6688167" lon="11.6564233"><ele>323.0</ele><time>2026-04-18T08:56:16.765Z</time></trkpt><trkpt lat="42.668735" lon="11.656315"><ele>323.0</ele><time>2026-04-18T08:56:17.765Z</time></trkpt><trkpt lat="42.66865" lon="11.6562183"><ele>323.0</ele><time>2026-04-18T08:56:18.765Z</time></trkpt><trkpt lat="42.66855" lon="11.65613"><ele>323.0</ele><time>2026-04-18T08:56:19.765Z</time></trkpt><trkpt lat="42.6684433" lon="11.65604"><ele>322.25</ele><time>2026-04-18T08:56:20.764Z</time></trkpt><trkpt lat="42.6683383" lon="11.65596"><ele>321.5</ele><time>2026-04-18T08:56:21.765Z</time></trkpt><trkpt lat="42.6682467" lon="11.6558867"><ele>320.75</ele><time>2026-04-18T08:56:22.765Z</time></trkpt><trkpt lat="42.6681433" lon="11.6558217"><ele>320.0</ele><time>2026-04-18T08:56:23.765Z</time></trkpt><trkpt lat="42.6680383" lon="11.6557517"><ele>320.0</ele><time>2026-04-18T08:56:24.765Z</time></trkpt><trkpt lat="42.6679333" lon="11.6556917"><ele>320.0</ele><time>2026-04-18T08:56:25.765Z</time></trkpt><trkpt lat="42.66783" lon="11.6556117"><ele>320.0</ele><time>2026-04-18T08:56:26.764Z</time></trkpt><trkpt lat="42.6677267" lon="11.6555133"><ele>320.0</ele><time>2026-04-18T08:56:27.765Z</time></trkpt><trkpt lat="42.667625" lon="11.65541"><ele>318.75</ele><time>2026-04-18T08:56:28.765Z</time></trkpt><trkpt lat="42.6675233" lon="11.6553183"><ele>317.5</ele><time>2026-04-18T08:56:29.765Z</time></trkpt><trkpt lat="42.6674267" lon="11.6552167"><ele>316.25</ele><time>2026-04-18T08:56:30.765Z</time></trkpt><trkpt lat="42.66732" lon="11.6551117"><ele>315.0</ele><time>2026-04-18T08:56:31.765Z</time></trkpt><trkpt lat="42.667225" lon="11.6550183"><ele>315.0</ele><time>2026-04-18T08:56:32.765Z</time></trkpt><trkpt lat="42.6671233" lon="11.65492"><ele>315.0</ele><time>2026-04-18T08:56:33.765Z</time></trkpt><trkpt lat="42.6670233" lon="11.65482"><ele>315.0</ele><time>2026-04-18T08:56:34.765Z</time></trkpt><trkpt lat="42.6669283" lon="11.6547183"><ele>315.0</ele><time>2026-04-18T08:56:35.765Z</time></trkpt><trkpt lat="42.6668367" lon="11.6545983"><ele>314.25</ele><time>2026-04-18T08:56:36.765Z</time></trkpt><trkpt lat="42.6667417" lon="11.6544883"><ele>313.5</ele><time>2026-04-18T08:56:37.764Z</time></trkpt><trkpt lat="42.666645" lon="11.65436"><ele>312.75</ele><time>2026-04-18T08:56:38.765Z</time></trkpt><trkpt lat="42.666555" lon="11.6542517"><ele>312.0</ele><time>2026-04-18T08:56:39.765Z</time></trkpt><trkpt lat="42.666465" lon="11.6541417"><ele>312.0</ele><time>2026-04-18T08:56:40.764Z</time></trkpt><trkpt lat="42.6663867" lon="11.6540283"><ele>312.0</ele><time>2026-04-18T08:56:41.765Z</time></trkpt><trkpt lat="42.6663033" lon="11.6539117"><ele>312.0</ele><time>2026-04-18T08:56:42.765Z</time></trkpt><trkpt lat="42.6662233" lon="11.6538083"><ele>312.0</ele><time>2026-04-18T08:56:43.765Z</time></trkpt><trkpt lat="42.66615" lon="11.6537133"><ele>312.0</ele><time>2026-04-18T08:56:44.764Z</time></trkpt><trkpt lat="42.666085" lon="11.6536217"><ele>311.1666666666667</ele><time>2026-04-18T08:56:45.765Z</time></trkpt><trkpt lat="42.6660133" lon="11.6535417"><ele>310.3333333333333</ele><time>2026-04-18T08:56:46.765Z</time></trkpt><trkpt lat="42.6659383" lon="11.65346"><ele>309.5</ele><time>2026-04-18T08:56:47.765Z</time></trkpt><trkpt lat="42.66586" lon="11.6533967"><ele>308.66666666666663</ele><time>2026-04-18T08:56:48.765Z</time></trkpt><trkpt lat="42.665795" lon="11.6533467"><ele>307.8333333333333</ele><time>2026-04-18T08:56:49.765Z</time></trkpt><trkpt lat="42.6657233" lon="11.6533017"><ele>307.0</ele><time>2026-04-18T08:56:50.764Z</time></trkpt><trkpt lat="42.6656617" lon="11.6532783"><ele>307.0</ele><time>2026-04-18T08:56:51.765Z</time></trkpt><trkpt lat="42.6655983" lon="11.6532433"><ele>307.0</ele><time>2026-04-18T08:56:52.765Z</time></trkpt><trkpt lat="42.66549" lon="11.6531783"><ele>307.0</ele><time>2026-04-18T08:56:54.765Z</time></trkpt><trkpt lat="42.6653983" lon="11.65313"><ele>307.0</ele><time>2026-04-18T08:56:56.765Z</time></trkpt><trkpt lat="42.6653183" lon="11.6530883"><ele>307.0</ele><time>2026-04-18T08:56:58.765Z</time></trkpt><trkpt lat="42.6652467" lon="11.653025"><ele>306.0</ele><time>2026-04-18T08:57:00.765Z</time></trkpt><trkpt lat="42.6651883" lon="11.6529083"><ele>305.0</ele><time>2026-04-18T08:57:02.765Z</time></trkpt><trkpt lat="42.6651733" lon="11.65277"><ele>304.0</ele><time>2026-04-18T08:57:04.765Z</time></trkpt><trkpt lat="42.6651917" lon="11.652635"><ele>303.0</ele><time>2026-04-18T08:57:06.765Z</time></trkpt><trkpt lat="42.6651967" lon="11.6524817"><ele>302.0</ele><time>2026-04-18T08:57:08.765Z</time></trkpt><trkpt lat="42.6651883" lon="11.65233"><ele>301.6</ele><time>2026-04-18T08:57:10.765Z</time></trkpt><trkpt lat="42.66515" lon="11.6521817"><ele>301.2</ele><time>2026-04-18T08:57:12.765Z</time></trkpt><trkpt lat="42.6650967" lon="11.6520533"><ele>300.8</ele><time>2026-04-18T08:57:14.765Z</time></trkpt><trkpt lat="42.66507" lon="11.651925"><ele>300.4</ele><time>2026-04-18T08:57:16.765Z</time></trkpt><trkpt lat="42.6650817" lon="11.6518033"><ele>300.0</ele><time>2026-04-18T08:57:18.765Z</time></trkpt><trkpt lat="42.6651267" lon="11.6516983"><ele>300.0</ele><time>2026-04-18T08:57:20.765Z</time></trkpt><trkpt lat="42.6652383" lon="11.651605"><ele>300.0</ele><time>2026-04-18T08:57:22.765Z</time></trkpt><trkpt lat="42.66531" lon="11.6515617"><ele>300.0</ele><time>2026-04-18T08:57:23.765Z</time></trkpt><trkpt lat="42.6653967" lon="11.6514967"><ele>300.0</ele><time>2026-04-18T08:57:24.765Z</time></trkpt><trkpt lat="42.66549" lon="11.6514317"><ele>300.0</ele><time>2026-04-18T08:57:25.765Z</time></trkpt><trkpt lat="42.66558" lon="11.6513717"><ele>300.4</ele><time>2026-04-18T08:57:26.765Z</time></trkpt><trkpt lat="42.66567" lon="11.651315"><ele>300.8</ele><time>2026-04-18T08:57:27.765Z</time></trkpt><trkpt lat="42.6657533" lon="11.65126"><ele>301.2</ele><time>2026-04-18T08:57:28.765Z</time></trkpt><trkpt lat="42.665835" lon="11.6512033"><ele>301.6</ele><time>2026-04-18T08:57:29.765Z</time></trkpt><trkpt lat="42.6659167" lon="11.6511467"><ele>302.0</ele><time>2026-04-18T08:57:30.765Z</time></trkpt><trkpt lat="42.6660033" lon="11.651085"><ele>302.0</ele><time>2026-04-18T08:57:31.765Z</time></trkpt><trkpt lat="42.6660967" lon="11.6510183"><ele>302.0</ele><time>2026-04-18T08:57:32.765Z</time></trkpt><trkpt lat="42.6661833" lon="11.65096"><ele>302.0</ele><time>2026-04-18T08:57:33.765Z</time></trkpt><trkpt lat="42.6662717" lon="11.6509067"><ele>302.0</ele><time>2026-04-18T08:57:34.765Z</time></trkpt><trkpt lat="42.6663617" lon="11.650845"><ele>302.0</ele><time>2026-04-18T08:57:35.765Z</time></trkpt><trkpt lat="42.666445" lon="11.6507867"><ele>302.4</ele><time>2026-04-18T08:57:36.765Z</time></trkpt><trkpt lat="42.6665233" lon="11.6507317"><ele>302.79999999999995</ele><time>2026-04-18T08:57:37.765Z</time></trkpt><trkpt lat="42.6665983" lon="11.65068"><ele>303.2</ele><time>2026-04-18T08:57:38.765Z</time></trkpt><trkpt lat="42.66666" lon="11.650635"><ele>303.59999999999997</ele><time>2026-04-18T08:57:39.765Z</time></trkpt><trkpt lat="42.6667717" lon="11.650565"><ele>304.0</ele><time>2026-04-18T08:57:41.765Z</time></trkpt><trkpt lat="42.6668833" lon="11.6504883"><ele>303.8</ele><time>2026-04-18T08:57:43.765Z</time></trkpt><trkpt lat="42.6669833" lon="11.6504067"><ele>303.59999999999997</ele><time>2026-04-18T08:57:45.765Z</time></trkpt><trkpt lat="42.66707" lon="11.6503483"><ele>303.4</ele><time>2026-04-18T08:57:47.765Z</time></trkpt><trkpt lat="42.6671467" lon="11.6502817"><ele>303.2</ele><time>2026-04-18T08:57:49.765Z</time></trkpt><trkpt lat="42.66719" lon="11.6501717"><ele>303.0</ele><time>2026-04-18T08:57:51.765Z</time></trkpt><trkpt lat="42.6671983" lon="11.6500367"><ele>302.6666666666667</ele><time>2026-04-18T08:57:53.765Z</time></trkpt><trkpt lat="42.6671583" lon="11.6498833"><ele>302.3333333333333</ele><time>2026-04-18T08:57:55.765Z</time></trkpt><trkpt lat="42.6671217" lon="11.6497983"><ele>302.0</ele><time>2026-04-18T08:57:56.765Z</time></trkpt><trkpt lat="42.6670667" lon="11.6497217"><ele>301.66666666666663</ele><time>2026-04-18T08:57:57.764Z</time></trkpt><trkpt lat="42.6670033" lon="11.6496533"><ele>301.3333333333333</ele><time>2026-04-18T08:57:58.764Z</time></trkpt><trkpt lat="42.666945" lon="11.6496017"><ele>301.0</ele><time>2026-04-18T08:57:59.765Z</time></trkpt><trkpt lat="42.6668833" lon="11.64956"><ele>301.0</ele><time>2026-04-18T08:58:00.765Z</time></trkpt><trkpt lat="42.6668033" lon="11.64954"><ele>301.0</ele><time>2026-04-18T08:58:01.765Z</time></trkpt><trkpt lat="42.666715" lon="11.6495367"><ele>301.0</ele><time>2026-04-18T08:58:02.765Z</time></trkpt><trkpt lat="42.666625" lon="11.6495333"><ele>301.0</ele><time>2026-04-18T08:58:03.764Z</time></trkpt><trkpt lat="42.6665433" lon="11.64952"><ele>301.0</ele><time>2026-04-18T08:58:04.765Z</time></trkpt><trkpt lat="42.6664733" lon="11.6495"><ele>301.0</ele><time>2026-04-18T08:58:05.765Z</time></trkpt><trkpt lat="42.66641" lon="11.6494433"><ele>297.6</ele><time>2026-04-18T08:58:06.765Z</time></trkpt><trkpt lat="42.6663583" lon="11.6493517"><ele>294.20000000000005</ele><time>2026-04-18T08:58:07.765Z</time></trkpt><trkpt lat="42.6663017" lon="11.6492483"><ele>290.79999999999995</ele><time>2026-04-18T08:58:08.765Z</time></trkpt><trkpt lat="42.66625" lon="11.6491317"><ele>287.4</ele><time>2026-04-18T08:58:09.765Z</time></trkpt><trkpt lat="42.666195" lon="11.6490233"><ele>284.0</ele><time>2026-04-18T08:58:10.765Z</time></trkpt><trkpt lat="42.6661383" lon="11.6489317"><ele>284.2</ele><time>2026-04-18T08:58:11.765Z</time></trkpt><trkpt lat="42.6660833" lon="11.6488333"><ele>284.4</ele><time>2026-04-18T08:58:12.765Z</time></trkpt><trkpt lat="42.6660217" lon="11.6487233"><ele>284.6</ele><time>2026-04-18T08:58:13.765Z</time></trkpt><trkpt lat="42.6659467" lon="11.6486133"><ele>284.8</ele><time>2026-04-18T08:58:14.765Z</time></trkpt><trkpt lat="42.66587" lon="11.648495"><ele>285.0</ele><time>2026-04-18T08:58:15.764Z</time></trkpt><trkpt lat="42.6657917" lon="11.648385"><ele>285.0</ele><time>2026-04-18T08:58:16.765Z</time></trkpt><trkpt lat="42.6657083" lon="11.6482733"><ele>285.0</ele><time>2026-04-18T08:58:17.765Z</time></trkpt><trkpt lat="42.665625" lon="11.64816"><ele>285.0</ele><time>2026-04-18T08:58:18.764Z</time></trkpt><trkpt lat="42.6655383" lon="11.6480433"><ele>285.0</ele><time>2026-04-18T08:58:19.765Z</time></trkpt><trkpt lat="42.66545" lon="11.64791"><ele>286.2</ele><time>2026-04-18T08:58:20.765Z</time></trkpt><trkpt lat="42.66536" lon="11.6477917"><ele>287.4</ele><time>2026-04-18T08:58:21.765Z</time></trkpt><trkpt lat="42.6652917" lon="11.647675"><ele>288.6</ele><time>2026-04-18T08:58:22.765Z</time></trkpt><trkpt lat="42.665225" lon="11.6475667"><ele>289.8</ele><time>2026-04-18T08:58:23.764Z</time></trkpt><trkpt lat="42.6651617" lon="11.6474533"><ele>291.0</ele><time>2026-04-18T08:58:24.765Z</time></trkpt><trkpt lat="42.6650917" lon="11.64735"><ele>291.0</ele><time>2026-04-18T08:58:25.765Z</time></trkpt><trkpt lat="42.665015" lon="11.64725"><ele>291.0</ele><time>2026-04-18T08:58:26.765Z</time></trkpt><trkpt lat="42.664935" lon="11.6471667"><ele>291.0</ele><time>2026-04-18T08:58:27.765Z</time></trkpt><trkpt lat="42.6648483" lon="11.6470883"><ele>291.0</ele><time>2026-04-18T08:58:28.765Z</time></trkpt><trkpt lat="42.6647517" lon="11.64702"><ele>291.0</ele><time>2026-04-18T08:58:29.765Z</time></trkpt><trkpt lat="42.6646467" lon="11.646955"><ele>290.5</ele><time>2026-04-18T08:58:30.765Z</time></trkpt><trkpt lat="42.6645483" lon="11.6468833"><ele>290.0</ele><time>2026-04-18T08:58:31.765Z</time></trkpt><trkpt lat="42.6644417" lon="11.6467933"><ele>289.5</ele><time>2026-04-18T08:58:32.765Z</time></trkpt><trkpt lat="42.664335" lon="11.6466867"><ele>289.0</ele><time>2026-04-18T08:58:33.765Z</time></trkpt><trkpt lat="42.6642317" lon="11.646575"><ele>289.0</ele><time>2026-04-18T08:58:34.765Z</time></trkpt><trkpt lat="42.66413" lon="11.6464567"><ele>289.0</ele><time>2026-04-18T08:58:35.765Z</time></trkpt><trkpt lat="42.66403" lon="11.6463283"><ele>289.0</ele><time>2026-04-18T08:58:36.765Z</time></trkpt><trkpt lat="42.6639367" lon="11.6462067"><ele>289.0</ele><time>2026-04-18T08:58:37.765Z</time></trkpt><trkpt lat="42.66385" lon="11.6460967"><ele>287.59999999999997</ele><time>2026-04-18T08:58:38.765Z</time></trkpt><trkpt lat="42.6637617" lon="11.6459967"><ele>286.2</ele><time>2026-04-18T08:58:39.765Z</time></trkpt><trkpt lat="42.6636817" lon="11.6459017"><ele>284.79999999999995</ele><time>2026-04-18T08:58:40.765Z</time></trkpt><trkpt lat="42.6636067" lon="11.6458133"><ele>283.4</ele><time>2026-04-18T08:58:41.765Z</time></trkpt><trkpt lat="42.66354" lon="11.6457267"><ele>282.0</ele><time>2026-04-18T08:58:42.765Z</time></trkpt><trkpt lat="42.6634733" lon="11.6456367"><ele>282.0</ele><time>2026-04-18T08:58:43.765Z</time></trkpt><trkpt lat="42.6634083" lon="11.6455383"><ele>282.0</ele><time>2026-04-18T08:58:44.765Z</time></trkpt><trkpt lat="42.6633533" lon="11.6454317"><ele>282.0</ele><time>2026-04-18T08:58:45.765Z</time></trkpt><trkpt lat="42.6632933" lon="11.6453117"><ele>282.0</ele><time>2026-04-18T08:58:46.765Z</time></trkpt><trkpt lat="42.6632417" lon="11.6451733"><ele>282.0</ele><time>2026-04-18T08:58:47.765Z</time></trkpt><trkpt lat="42.6631833" lon="11.645035"><ele>278.5</ele><time>2026-04-18T08:58:48.765Z</time></trkpt><trkpt lat="42.6631217" lon="11.6448883"><ele>275.0</ele><time>2026-04-18T08:58:49.765Z</time></trkpt><trkpt lat="42.6630567" lon="11.6447333"><ele>271.5</ele><time>2026-04-18T08:58:50.765Z</time></trkpt><trkpt lat="42.6629917" lon="11.6445617"><ele>268.0</ele><time>2026-04-18T08:58:51.765Z</time></trkpt><trkpt lat="42.6629183" lon="11.6443817"><ele>271.0</ele><time>2026-04-18T08:58:52.765Z</time></trkpt><trkpt lat="42.6628383" lon="11.6441867"><ele>274.0</ele><time>2026-04-18T08:58:53.765Z</time></trkpt><trkpt lat="42.6627583" lon="11.6440183"><ele>277.0</ele><time>2026-04-18T08:58:54.765Z</time></trkpt><trkpt lat="42.6626917" lon="11.6438567"><ele>280.0</ele><time>2026-04-18T08:58:55.765Z</time></trkpt><trkpt lat="42.66263" lon="11.6436867"><ele>279.0</ele><time>2026-04-18T08:58:56.765Z</time></trkpt><trkpt lat="42.6625683" lon="11.6435433"><ele>278.0</ele><time>2026-04-18T08:58:57.765Z</time></trkpt><trkpt lat="42.6625033" lon="11.643405"><ele>277.0</ele><time>2026-04-18T08:58:58.765Z</time></trkpt><trkpt lat="42.6624417" lon="11.6432583"><ele>276.0</ele><time>2026-04-18T08:58:59.765Z</time></trkpt><trkpt lat="42.6623817" lon="11.6431067"><ele>276.0</ele><time>2026-04-18T08:59:00.764Z</time></trkpt><trkpt lat="42.6623167" lon="11.6429583"><ele>276.0</ele><time>2026-04-18T08:59:01.765Z</time></trkpt><trkpt lat="42.6622467" lon="11.6428067"><ele>276.0</ele><time>2026-04-18T08:59:02.765Z</time></trkpt><trkpt lat="42.6621817" lon="11.642655"><ele>276.0</ele><time>2026-04-18T08:59:03.764Z</time></trkpt><trkpt lat="42.6621167" lon="11.6424933"><ele>276.0</ele><time>2026-04-18T08:59:04.765Z</time></trkpt><trkpt lat="42.6620533" lon="11.642335"><ele>276.0</ele><time>2026-04-18T08:59:05.765Z</time></trkpt><trkpt lat="42.6619867" lon="11.64218"><ele>276.0</ele><time>2026-04-18T08:59:06.765Z</time></trkpt><trkpt lat="42.66193" lon="11.6420517"><ele>276.0</ele><time>2026-04-18T08:59:07.765Z</time></trkpt><trkpt lat="42.6618833" lon="11.6419467"><ele>276.0</ele><time>2026-04-18T08:59:08.765Z</time></trkpt><trkpt lat="42.6618217" lon="11.6418417"><ele>276.0</ele><time>2026-04-18T08:59:09.765Z</time></trkpt><trkpt lat="42.66176" lon="11.6417417"><ele>276.0</ele><time>2026-04-18T08:59:10.765Z</time></trkpt><trkpt lat="42.6616733" lon="11.6416583"><ele>276.0</ele><time>2026-04-18T08:59:11.765Z</time></trkpt><trkpt lat="42.6615783" lon="11.64157"><ele>276.0</ele><time>2026-04-18T08:59:12.765Z</time></trkpt><trkpt lat="42.661465" lon="11.6414883"><ele>276.0</ele><time>2026-04-18T08:59:13.765Z</time></trkpt><trkpt lat="42.6613433" lon="11.641405"><ele>276.0</ele><time>2026-04-18T08:59:14.765Z</time></trkpt><trkpt lat="42.6612183" lon="11.64132"><ele>276.0</ele><time>2026-04-18T08:59:15.765Z</time></trkpt><trkpt lat="42.6610917" lon="11.6412267"><ele>276.0</ele><time>2026-04-18T08:59:16.765Z</time></trkpt><trkpt lat="42.6609667" lon="11.6411317"><ele>275.25</ele><time>2026-04-18T08:59:17.765Z</time></trkpt><trkpt lat="42.6608483" lon="11.64103"><ele>274.5</ele><time>2026-04-18T08:59:18.765Z</time></trkpt><trkpt lat="42.6607417" lon="11.640925"><ele>273.75</ele><time>2026-04-18T08:59:19.765Z</time></trkpt><trkpt lat="42.6606367" lon="11.6408283"><ele>273.0</ele><time>2026-04-18T08:59:20.765Z</time></trkpt><trkpt lat="42.660545" lon="11.6407283"><ele>273.0</ele><time>2026-04-18T08:59:21.765Z</time></trkpt><trkpt lat="42.6604517" lon="11.6406167"><ele>273.0</ele><time>2026-04-18T08:59:22.765Z</time></trkpt><trkpt lat="42.6603667" lon="11.64051"><ele>273.0</ele><time>2026-04-18T08:59:23.765Z</time></trkpt><trkpt lat="42.660295" lon="11.64041"><ele>273.0</ele><time>2026-04-18T08:59:24.764Z</time></trkpt><trkpt lat="42.6602267" lon="11.6403033"><ele>273.0</ele><time>2026-04-18T08:59:25.765Z</time></trkpt><trkpt lat="42.6601633" lon="11.6401967"><ele>272.6</ele><time>2026-04-18T08:59:26.765Z</time></trkpt><trkpt lat="42.6601133" lon="11.64008"><ele>272.20000000000005</ele><time>2026-04-18T08:59:27.765Z</time></trkpt><trkpt lat="42.6600617" lon="11.639965"><ele>271.8</ele><time>2026-04-18T08:59:28.765Z</time></trkpt><trkpt lat="42.6600083" lon="11.6398333"><ele>271.40000000000003</ele><time>2026-04-18T08:59:29.765Z</time></trkpt><trkpt lat="42.65996" lon="11.6397083"><ele>271.0</ele><time>2026-04-18T08:59:30.765Z</time></trkpt><trkpt lat="42.6599133" lon="11.639585"><ele>271.0</ele><time>2026-04-18T08:59:31.765Z</time></trkpt><trkpt lat="42.6598667" lon="11.63947"><ele>271.0</ele><time>2026-04-18T08:59:32.765Z</time></trkpt><trkpt lat="42.6598283" lon="11.6393533"><ele>271.0</ele><time>2026-04-18T08:59:33.765Z</time></trkpt><trkpt lat="42.6597833" lon="11.6392433"><ele>271.0</ele><time>2026-04-18T08:59:34.765Z</time></trkpt><trkpt lat="42.6597383" lon="11.63913"><ele>271.0</ele><time>2026-04-18T08:59:35.764Z</time></trkpt><trkpt lat="42.6596967" lon="11.6390133"><ele>271.40000000000003</ele><time>2026-04-18T08:59:36.765Z</time></trkpt><trkpt lat="42.6596533" lon="11.638895"><ele>271.8</ele><time>2026-04-18T08:59:37.764Z</time></trkpt><trkpt lat="42.6596117" lon="11.638775"><ele>272.20000000000005</ele><time>2026-04-18T08:59:38.764Z</time></trkpt><trkpt lat="42.65956" lon="11.6386467"><ele>272.6</ele><time>2026-04-18T08:59:39.765Z</time></trkpt><trkpt lat="42.6594983" lon="11.638535"><ele>273.0</ele><time>2026-04-18T08:59:40.765Z</time></trkpt><trkpt lat="42.6594417" lon="11.6384283"><ele>273.0</ele><time>2026-04-18T08:59:41.765Z</time></trkpt><trkpt lat="42.6593867" lon="11.6383267"><ele>273.0</ele><time>2026-04-18T08:59:42.765Z</time></trkpt><trkpt lat="42.6593433" lon="11.6382167"><ele>273.0</ele><time>2026-04-18T08:59:43.765Z</time></trkpt><trkpt lat="42.6593017" lon="11.638095"><ele>273.0</ele><time>2026-04-18T08:59:44.765Z</time></trkpt><trkpt lat="42.6592533" lon="11.6379883"><ele>273.0</ele><time>2026-04-18T08:59:45.765Z</time></trkpt><trkpt lat="42.6591917" lon="11.63788"><ele>270.8</ele><time>2026-04-18T08:59:46.765Z</time></trkpt><trkpt lat="42.6591467" lon="11.6377633"><ele>268.6</ele><time>2026-04-18T08:59:47.765Z</time></trkpt><trkpt lat="42.659105" lon="11.637645"><ele>266.4</ele><time>2026-04-18T08:59:48.765Z</time></trkpt><trkpt lat="42.65907" lon="11.6375417"><ele>264.2</ele><time>2026-04-18T08:59:49.765Z</time></trkpt><trkpt lat="42.6590467" lon="11.6374467"><ele>262.0</ele><time>2026-04-18T08:59:50.765Z</time></trkpt><trkpt lat="42.6590033" lon="11.637305"><ele>262.0</ele><time>2026-04-18T08:59:52.765Z</time></trkpt><trkpt lat="42.658955" lon="11.6372033"><ele>262.0</ele><time>2026-04-18T08:59:54.764Z</time></trkpt><trkpt lat="42.65889" lon="11.6371067"><ele>262.0</ele><time>2026-04-18T08:59:56.765Z</time></trkpt><trkpt lat="42.6588017" lon="11.637005"><ele>262.0</ele><time>2026-04-18T08:59:58.765Z</time></trkpt><trkpt lat="42.65875" lon="11.6369433"><ele>262.0</ele><time>2026-04-18T08:59:59.765Z</time></trkpt><trkpt lat="42.6586933" lon="11.6368717"><ele>262.0</ele><time>2026-04-18T09:00:00.765Z</time></trkpt><trkpt lat="42.65864" lon="11.6367933"><ele>260.0</ele><time>2026-04-18T09:00:01.765Z</time></trkpt><trkpt lat="42.6585867" lon="11.6367183"><ele>258.0</ele><time>2026-04-18T09:00:02.765Z</time></trkpt><trkpt lat="42.65854" lon="11.6366417"><ele>256.0</ele><time>2026-04-18T09:00:03.765Z</time></trkpt><trkpt lat="42.6584883" lon="11.6365667"><ele>254.0</ele><time>2026-04-18T09:00:04.765Z</time></trkpt><trkpt lat="42.65843" lon="11.636495"><ele>251.99999999999997</ele><time>2026-04-18T09:00:05.765Z</time></trkpt><trkpt lat="42.65837" lon="11.63642"><ele>250.0</ele><time>2026-04-18T09:00:06.765Z</time></trkpt><trkpt lat="42.6583167" lon="11.6363617"><ele>250.0</ele><time>2026-04-18T09:00:07.765Z</time></trkpt><trkpt lat="42.6582233" lon="11.63626"><ele>250.0</ele><time>2026-04-18T09:00:09.765Z</time></trkpt><trkpt lat="42.6581283" lon="11.636175"><ele>250.0</ele><time>2026-04-18T09:00:11.765Z</time></trkpt><trkpt lat="42.65805" lon="11.6360983"><ele>250.0</ele><time>2026-04-18T09:00:13.765Z</time></trkpt><trkpt lat="42.6579817" lon="11.6360583"><ele>250.0</ele><time>2026-04-18T09:00:15.765Z</time></trkpt><trkpt lat="42.6579183" lon="11.6360233"><ele>246.33333333333331</ele><time>2026-04-18T09:00:18.765Z</time></trkpt><trkpt lat="42.6579317" lon="11.6359117"><ele>242.66666666666666</ele><time>2026-04-18T09:00:21.765Z</time></trkpt><trkpt lat="42.6579517" lon="11.635825"><ele>239.0</ele><time>2026-04-18T09:00:22.765Z</time></trkpt><trkpt lat="42.6579767" lon="11.6357217"><ele>235.33333333333331</ele><time>2026-04-18T09:00:23.765Z</time></trkpt><trkpt lat="42.6580083" lon="11.6356083"><ele>231.66666666666666</ele><time>2026-04-18T09:00:24.765Z</time></trkpt><trkpt lat="42.6580433" lon="11.6354917"><ele>228.0</ele><time>2026-04-18T09:00:25.765Z</time></trkpt><trkpt lat="42.6580733" lon="11.6353817"><ele>227.66666666666666</ele><time>2026-04-18T09:00:26.765Z</time></trkpt><trkpt lat="42.6581067" lon="11.6352717"><ele>227.33333333333331</ele><time>2026-04-18T09:00:27.765Z</time></trkpt><trkpt lat="42.6581367" lon="11.635155"><ele>227.0</ele><time>2026-04-18T09:00:28.765Z</time></trkpt><trkpt lat="42.658165" lon="11.6350633"><ele>226.66666666666666</ele><time>2026-04-18T09:00:29.765Z</time></trkpt><trkpt lat="42.6582017" lon="11.634935"><ele>226.33333333333331</ele><time>2026-04-18T09:00:31.765Z</time></trkpt><trkpt lat="42.6582617" lon="11.6348817"><ele>226.0</ele><time>2026-04-18T09:00:33.765Z</time></trkpt><trkpt lat="42.658335" lon="11.6349017"><ele>226.0</ele><time>2026-04-18T09:00:35.764Z</time></trkpt><trkpt lat="42.6584317" lon="11.634925"><ele>226.00000000000003</ele><time>2026-04-18T09:00:37.765Z</time></trkpt><trkpt lat="42.6585317" lon="11.6349733"><ele>226.00000000000003</ele><time>2026-04-18T09:00:39.765Z</time></trkpt><trkpt lat="42.6586433" lon="11.6350583"><ele>226.0</ele><time>2026-04-18T09:00:41.765Z</time></trkpt><trkpt lat="42.6587167" lon="11.63512"><ele>226.0</ele><time>2026-04-18T09:00:42.764Z</time></trkpt><trkpt lat="42.6587983" lon="11.6351767"><ele>226.49999999999997</ele><time>2026-04-18T09:00:43.765Z</time></trkpt><trkpt lat="42.658875" lon="11.63524"><ele>227.0</ele><time>2026-04-18T09:00:44.765Z</time></trkpt><trkpt lat="42.6589517" lon="11.635295"><ele>227.5</ele><time>2026-04-18T09:00:45.765Z</time></trkpt><trkpt lat="42.659035" lon="11.6353317"><ele>228.0</ele><time>2026-04-18T09:00:46.765Z</time></trkpt><trkpt lat="42.659115" lon="11.6353667"><ele>228.49999999999997</ele><time>2026-04-18T09:00:47.765Z</time></trkpt><trkpt lat="42.6591833" lon="11.635385"><ele>229.0</ele><time>2026-04-18T09:00:48.765Z</time></trkpt><trkpt lat="42.6592483" lon="11.6353867"><ele>229.0</ele><time>2026-04-18T09:00:49.765Z</time></trkpt><trkpt lat="42.65934" lon="11.6354"><ele>228.99999999999997</ele><time>2026-04-18T09:00:51.764Z</time></trkpt><trkpt lat="42.6594383" lon="11.635375"><ele>228.99999999999997</ele><time>2026-04-18T09:00:53.765Z</time></trkpt><trkpt lat="42.659545" lon="11.6353417"><ele>229.0</ele><time>2026-04-18T09:00:55.765Z</time></trkpt><trkpt lat="42.659635" lon="11.6352883"><ele>229.0</ele><time>2026-04-18T09:00:57.765Z</time></trkpt><trkpt lat="42.659695" lon="11.63526"><ele>231.66666666666666</ele><time>2026-04-18T09:00:59.765Z</time></trkpt><trkpt lat="42.6597817" lon="11.635235"><ele>234.33333333333331</ele><time>2026-04-18T09:01:02.765Z</time></trkpt><trkpt lat="42.6599083" lon="11.6352517"><ele>237.0</ele><time>2026-04-18T09:01:04.765Z</time></trkpt><trkpt lat="42.6599733" lon="11.635275"><ele>239.66666666666669</ele><time>2026-04-18T09:01:05.765Z</time></trkpt><trkpt lat="42.6600383" lon="11.63531"><ele>242.33333333333334</ele><time>2026-04-18T09:01:06.765Z</time></trkpt><trkpt lat="42.6601217" lon="11.6353583"><ele>245.0</ele><time>2026-04-18T09:01:07.765Z</time></trkpt><trkpt lat="42.6602017" lon="11.6354133"><ele>248.33333333333334</ele><time>2026-04-18T09:01:08.765Z</time></trkpt><trkpt lat="42.660285" lon="11.6354617"><ele>251.66666666666669</ele><time>2026-04-18T09:01:09.765Z</time></trkpt><trkpt lat="42.6603617" lon="11.6355233"><ele>255.0</ele><time>2026-04-18T09:01:10.765Z</time></trkpt><trkpt lat="42.660435" lon="11.6355767"><ele>258.3333333333333</ele><time>2026-04-18T09:01:11.765Z</time></trkpt><trkpt lat="42.6605017" lon="11.6356283"><ele>261.66666666666663</ele><time>2026-04-18T09:01:12.765Z</time></trkpt><trkpt lat="42.66057" lon="11.6356933"><ele>265.0</ele><time>2026-04-18T09:01:13.765Z</time></trkpt><trkpt lat="42.6606517" lon="11.6357433"><ele>265.0</ele><time>2026-04-18T09:01:14.765Z</time></trkpt><trkpt lat="42.6607133" lon="11.6357917"><ele>265.0</ele><time>2026-04-18T09:01:15.765Z</time></trkpt><trkpt lat="42.66084" lon="11.63584"><ele>265.0</ele><time>2026-04-18T09:01:17.764Z</time></trkpt><trkpt lat="42.6609183" lon="11.6358533"><ele>265.0</ele><time>2026-04-18T09:01:18.764Z</time></trkpt><trkpt lat="42.6609883" lon="11.635865"><ele>265.0</ele><time>2026-04-18T09:01:19.765Z</time></trkpt><trkpt lat="42.66105" lon="11.635885"><ele>265.0</ele><time>2026-04-18T09:01:20.764Z</time></trkpt><trkpt lat="42.6611217" lon="11.6358933"><ele>266.0</ele><time>2026-04-18T09:01:21.765Z</time></trkpt><trkpt lat="42.6612383" lon="11.6359317"><ele>267.0</ele><time>2026-04-18T09:01:23.765Z</time></trkpt><trkpt lat="42.6613517" lon="11.63597"><ele>268.0</ele><time>2026-04-18T09:01:25.765Z</time></trkpt><trkpt lat="42.6614183" lon="11.6359433"><ele>269.0</ele><time>2026-04-18T09:01:26.765Z</time></trkpt><trkpt lat="42.66153" lon="11.635935"><ele>270.0</ele><time>2026-04-18T09:01:28.765Z</time></trkpt><trkpt lat="42.661615" lon="11.6359133"><ele>270.0</ele><time>2026-04-18T09:01:30.765Z</time></trkpt><trkpt lat="42.6616833" lon="11.6359283"><ele>270.0</ele><time>2026-04-18T09:01:32.765Z</time></trkpt><trkpt lat="42.6617517" lon="11.6359917"><ele>270.0</ele><time>2026-04-18T09:01:34.765Z</time></trkpt><trkpt lat="42.6618517" lon="11.63598"><ele>270.0</ele><time>2026-04-18T09:01:36.765Z</time></trkpt><trkpt lat="42.661925" lon="11.63595"><ele>270.0</ele><time>2026-04-18T09:01:37.765Z</time></trkpt><trkpt lat="42.6620117" lon="11.63595"><ele>270.0</ele><time>2026-04-18T09:01:38.765Z</time></trkpt><trkpt lat="42.6620967" lon="11.6359717"><ele>269.8333333333333</ele><time>2026-04-18T09:01:39.765Z</time></trkpt><trkpt lat="42.6621767" lon="11.6359933"><ele>269.6666666666667</ele><time>2026-04-18T09:01:40.765Z</time></trkpt><trkpt lat="42.6622483" lon="11.6360233"><ele>269.5</ele><time>2026-04-18T09:01:41.765Z</time></trkpt><trkpt lat="42.66231" lon="11.636065"><ele>269.33333333333337</ele><time>2026-04-18T09:01:42.765Z</time></trkpt><trkpt lat="42.6624133" lon="11.63613"><ele>269.1666666666667</ele><time>2026-04-18T09:01:44.765Z</time></trkpt><trkpt lat="42.6625067" lon="11.6362017"><ele>269.0</ele><time>2026-04-18T09:01:46.765Z</time></trkpt><trkpt lat="42.662595" lon="11.6362517"><ele>269.4</ele><time>2026-04-18T09:01:48.765Z</time></trkpt><trkpt lat="42.662695" lon="11.6363033"><ele>269.79999999999995</ele><time>2026-04-18T09:01:50.765Z</time></trkpt><trkpt lat="42.6628083" lon="11.63639"><ele>270.20000000000005</ele><time>2026-04-18T09:01:52.765Z</time></trkpt><trkpt lat="42.662885" lon="11.6364567"><ele>270.6</ele><time>2026-04-18T09:01:53.765Z</time></trkpt><trkpt lat="42.6629683" lon="11.63654"><ele>271.0</ele><time>2026-04-18T09:01:54.765Z</time></trkpt><trkpt lat="42.6630483" lon="11.6366333"><ele>271.0</ele><time>2026-04-18T09:01:55.765Z</time></trkpt><trkpt lat="42.66312" lon="11.6367233"><ele>271.0</ele><time>2026-04-18T09:01:56.765Z</time></trkpt><trkpt lat="42.6631783" lon="11.6368083"><ele>271.0</ele><time>2026-04-18T09:01:57.765Z</time></trkpt><trkpt lat="42.663215" lon="11.6368817"><ele>271.0</ele><time>2026-04-18T09:01:58.765Z</time></trkpt><trkpt lat="42.6632217" lon="11.6370217"><ele>271.0</ele><time>2026-04-18T09:02:00.765Z</time></trkpt><trkpt lat="42.6631983" lon="11.6371633"><ele>272.2</ele><time>2026-04-18T09:02:02.765Z</time></trkpt><trkpt lat="42.6631967" lon="11.63733"><ele>273.40000000000003</ele><time>2026-04-18T09:02:04.764Z</time></trkpt><trkpt lat="42.6632367" lon="11.6374167"><ele>274.6</ele><time>2026-04-18T09:02:05.765Z</time></trkpt><trkpt lat="42.6632883" lon="11.6375033"><ele>275.8</ele><time>2026-04-18T09:02:06.765Z</time></trkpt><trkpt lat="42.6633483" lon="11.6375917"><ele>277.0</ele><time>2026-04-18T09:02:07.765Z</time></trkpt><trkpt lat="42.6634167" lon="11.6376783"><ele>277.0</ele><time>2026-04-18T09:02:08.765Z</time></trkpt><trkpt lat="42.6634883" lon="11.6377683"><ele>277.0</ele><time>2026-04-18T09:02:09.765Z</time></trkpt><trkpt lat="42.6635517" lon="11.6378583"><ele>277.0</ele><time>2026-04-18T09:02:10.764Z</time></trkpt><trkpt lat="42.6636067" lon="11.637945"><ele>277.0</ele><time>2026-04-18T09:02:11.764Z</time></trkpt><trkpt lat="42.663665" lon="11.6380167"><ele>277.0</ele><time>2026-04-18T09:02:12.765Z</time></trkpt><trkpt lat="42.6637383" lon="11.63809"><ele>277.0</ele><time>2026-04-18T09:02:13.765Z</time></trkpt><trkpt lat="42.6638233" lon="11.6381633"><ele>277.0</ele><time>2026-04-18T09:02:14.765Z</time></trkpt><trkpt lat="42.663895" lon="11.6382467"><ele>277.0</ele><time>2026-04-18T09:02:15.765Z</time></trkpt><trkpt lat="42.6639517" lon="11.63832"><ele>277.0</ele><time>2026-04-18T09:02:16.765Z</time></trkpt><trkpt lat="42.6640033" lon="11.6384017"><ele>277.0</ele><time>2026-04-18T09:02:17.765Z</time></trkpt><trkpt lat="42.6640383" lon="11.6384917"><ele>277.0</ele><time>2026-04-18T09:02:18.765Z</time></trkpt><trkpt lat="42.6640633" lon="11.6385933"><ele>277.0</ele><time>2026-04-18T09:02:19.765Z</time></trkpt><trkpt lat="42.6640983" lon="11.6387033"><ele>277.0</ele><time>2026-04-18T09:02:20.765Z</time></trkpt><trkpt lat="42.6641167" lon="11.63882"><ele>277.0</ele><time>2026-04-18T09:02:21.765Z</time></trkpt><trkpt lat="42.6641267" lon="11.6389417"><ele>277.0</ele><time>2026-04-18T09:02:22.765Z</time></trkpt><trkpt lat="42.6641333" lon="11.6390733"><ele>277.0</ele><time>2026-04-18T09:02:23.765Z</time></trkpt><trkpt lat="42.664145" lon="11.6391917"><ele>277.0</ele><time>2026-04-18T09:02:24.765Z</time></trkpt><trkpt lat="42.6641583" lon="11.6393067"><ele>277.0</ele><time>2026-04-18T09:02:25.765Z</time></trkpt><trkpt lat="42.6641917" lon="11.6394"><ele>276.6</ele><time>2026-04-18T09:02:26.765Z</time></trkpt><trkpt lat="42.66424" lon="11.6394917"><ele>276.2</ele><time>2026-04-18T09:02:27.765Z</time></trkpt><trkpt lat="42.6642917" lon="11.6395883"><ele>275.8</ele><time>2026-04-18T09:02:28.765Z</time></trkpt><trkpt lat="42.6643333" lon="11.6397017"><ele>275.4</ele><time>2026-04-18T09:02:29.765Z</time></trkpt><trkpt lat="42.6643717" lon="11.639825"><ele>275.0</ele><time>2026-04-18T09:02:30.765Z</time></trkpt><trkpt lat="42.6643917" lon="11.6399433"><ele>275.0</ele><time>2026-04-18T09:02:31.765Z</time></trkpt><trkpt lat="42.6644117" lon="11.64004"><ele>275.0</ele><time>2026-04-18T09:02:32.765Z</time></trkpt><trkpt lat="42.6644483" lon="11.6401233"><ele>275.0</ele><time>2026-04-18T09:02:33.765Z</time></trkpt><trkpt lat="42.6644883" lon="11.640195"><ele>275.0</ele><time>2026-04-18T09:02:34.765Z</time></trkpt><trkpt lat="42.664545" lon="11.6402567"><ele>275.0</ele><time>2026-04-18T09:02:35.765Z</time></trkpt><trkpt lat="42.6646117" lon="11.6403033"><ele>275.0</ele><time>2026-04-18T09:02:36.765Z</time></trkpt><trkpt lat="42.6646883" lon="11.6403467"><ele>275.0</ele><time>2026-04-18T09:02:37.765Z</time></trkpt><trkpt lat="42.664765" lon="11.6403967"><ele>276.0</ele><time>2026-04-18T09:02:38.765Z</time></trkpt><trkpt lat="42.6648283" lon="11.64046"><ele>277.0</ele><time>2026-04-18T09:02:39.765Z</time></trkpt><trkpt lat="42.6648733" lon="11.64053"><ele>278.0</ele><time>2026-04-18T09:02:40.765Z</time></trkpt><trkpt lat="42.664895" lon="11.64062"><ele>279.0</ele><time>2026-04-18T09:02:41.765Z</time></trkpt><trkpt lat="42.6648967" lon="11.6407167"><ele>280.0</ele><time>2026-04-18T09:02:42.765Z</time></trkpt><trkpt lat="42.664895" lon="11.6408267"><ele>281.0</ele><time>2026-04-18T09:02:43.765Z</time></trkpt><trkpt lat="42.6648917" lon="11.6409333"><ele>282.0</ele><time>2026-04-18T09:02:44.765Z</time></trkpt><trkpt lat="42.66489" lon="11.6410217"><ele>281.8333333333333</ele><time>2026-04-18T09:02:45.765Z</time></trkpt><trkpt lat="42.6649333" lon="11.641135"><ele>281.6666666666667</ele><time>2026-04-18T09:02:47.765Z</time></trkpt><trkpt lat="42.665025" lon="11.641205"><ele>281.5</ele><time>2026-04-18T09:02:49.765Z</time></trkpt><trkpt lat="42.6650883" lon="11.6412467"><ele>281.33333333333337</ele><time>2026-04-18T09:02:50.765Z</time></trkpt><trkpt lat="42.6651467" lon="11.64129"><ele>281.1666666666667</ele><time>2026-04-18T09:02:51.765Z</time></trkpt><trkpt lat="42.6652083" lon="11.64133"><ele>281.0</ele><time>2026-04-18T09:02:52.765Z</time></trkpt><trkpt lat="42.6652733" lon="11.6413933"><ele>282.0</ele><time>2026-04-18T09:02:53.764Z</time></trkpt><trkpt lat="42.6653483" lon="11.6414717"><ele>283.0</ele><time>2026-04-18T09:02:54.765Z</time></trkpt><trkpt lat="42.66543" lon="11.64156"><ele>284.0</ele><time>2026-04-18T09:02:55.765Z</time></trkpt><trkpt lat="42.6655233" lon="11.6416533"><ele>285.0</ele><time>2026-04-18T09:02:56.765Z</time></trkpt><trkpt lat="42.6656117" lon="11.64175"><ele>286.0</ele><time>2026-04-18T09:02:57.765Z</time></trkpt><trkpt lat="42.66569" lon="11.6418333"><ele>286.0</ele><time>2026-04-18T09:02:58.765Z</time></trkpt><trkpt lat="42.66576" lon="11.6419017"><ele>286.0</ele><time>2026-04-18T09:02:59.765Z</time></trkpt><trkpt lat="42.6658317" lon="11.6419617"><ele>286.0</ele><time>2026-04-18T09:03:00.765Z</time></trkpt><trkpt lat="42.6658967" lon="11.6420117"><ele>286.0</ele><time>2026-04-18T09:03:01.765Z</time></trkpt><trkpt lat="42.665965" lon="11.6420433"><ele>286.0</ele><time>2026-04-18T09:03:02.765Z</time></trkpt><trkpt lat="42.66603" lon="11.6420633"><ele>286.0</ele><time>2026-04-18T09:03:03.765Z</time></trkpt><trkpt lat="42.6661" lon="11.6420717"><ele>288.16666666666663</ele><time>2026-04-18T09:03:04.765Z</time></trkpt><trkpt lat="42.666165" lon="11.6420867"><ele>290.3333333333333</ele><time>2026-04-18T09:03:05.765Z</time></trkpt><trkpt lat="42.6662933" lon="11.6421167"><ele>292.5</ele><time>2026-04-18T09:03:07.765Z</time></trkpt><trkpt lat="42.6663567" lon="11.6421633"><ele>294.6666666666667</ele><time>2026-04-18T09:03:08.765Z</time></trkpt><trkpt lat="42.666415" lon="11.6422367"><ele>296.83333333333337</ele><time>2026-04-18T09:03:09.765Z</time></trkpt><trkpt lat="42.6664667" lon="11.6423267"><ele>299.0</ele><time>2026-04-18T09:03:10.765Z</time></trkpt><trkpt lat="42.66652" lon="11.6424267"><ele>299.0</ele><time>2026-04-18T09:03:11.765Z</time></trkpt><trkpt lat="42.6665733" lon="11.6425167"><ele>299.0</ele><time>2026-04-18T09:03:12.765Z</time></trkpt><trkpt lat="42.6666333" lon="11.6426067"><ele>299.0</ele><time>2026-04-18T09:03:13.765Z</time></trkpt><trkpt lat="42.6666783" lon="11.6426817"><ele>299.0</ele><time>2026-04-18T09:03:14.765Z</time></trkpt><trkpt lat="42.6667367" lon="11.6427417"><ele>299.0</ele><time>2026-04-18T09:03:15.765Z</time></trkpt><trkpt lat="42.6668017" lon="11.642795"><ele>299.0</ele><time>2026-04-18T09:03:16.765Z</time></trkpt><trkpt lat="42.66688" lon="11.6428483"><ele>301.0</ele><time>2026-04-18T09:03:17.765Z</time></trkpt><trkpt lat="42.6669633" lon="11.6429083"><ele>303.0</ele><time>2026-04-18T09:03:18.765Z</time></trkpt><trkpt lat="42.6670483" lon="11.6429783"><ele>305.0</ele><time>2026-04-18T09:03:19.765Z</time></trkpt><trkpt lat="42.6671367" lon="11.6430467"><ele>307.0</ele><time>2026-04-18T09:03:20.765Z</time></trkpt><trkpt lat="42.6672283" lon="11.6431233"><ele>309.0</ele><time>2026-04-18T09:03:21.765Z</time></trkpt><trkpt lat="42.6673133" lon="11.6432133"><ele>309.0</ele><time>2026-04-18T09:03:22.765Z</time></trkpt><trkpt lat="42.6673867" lon="11.6432933"><ele>309.0</ele><time>2026-04-18T09:03:23.765Z</time></trkpt><trkpt lat="42.6674617" lon="11.6433717"><ele>309.0</ele><time>2026-04-18T09:03:24.765Z</time></trkpt><trkpt lat="42.6675433" lon="11.6434617"><ele>309.0</ele><time>2026-04-18T09:03:25.765Z</time></trkpt><trkpt lat="42.6676333" lon="11.6435467"><ele>309.0</ele><time>2026-04-18T09:03:26.764Z</time></trkpt><trkpt lat="42.6677133" lon="11.6436467"><ele>310.0</ele><time>2026-04-18T09:03:27.765Z</time></trkpt><trkpt lat="42.667785" lon="11.6437417"><ele>311.0</ele><time>2026-04-18T09:03:28.765Z</time></trkpt><trkpt lat="42.667865" lon="11.64382"><ele>312.0</ele><time>2026-04-18T09:03:29.765Z</time></trkpt><trkpt lat="42.667935" lon="11.6439167"><ele>313.0</ele><time>2026-04-18T09:03:30.765Z</time></trkpt><trkpt lat="42.6679867" lon="11.6440183"><ele>314.0</ele><time>2026-04-18T09:03:31.765Z</time></trkpt><trkpt lat="42.668045" lon="11.6441183"><ele>314.0</ele><time>2026-04-18T09:03:32.765Z</time></trkpt><trkpt lat="42.668105" lon="11.6442183"><ele>314.0</ele><time>2026-04-18T09:03:33.765Z</time></trkpt><trkpt lat="42.6681717" lon="11.6443183"><ele>314.0</ele><time>2026-04-18T09:03:34.765Z</time></trkpt><trkpt lat="42.6682417" lon="11.6444283"><ele>314.0</ele><time>2026-04-18T09:03:35.765Z</time></trkpt><trkpt lat="42.6683183" lon="11.6445267"><ele>314.0</ele><time>2026-04-18T09:03:36.765Z</time></trkpt><trkpt lat="42.6683917" lon="11.64462"><ele>314.59999999999997</ele><time>2026-04-18T09:03:37.765Z</time></trkpt><trkpt lat="42.668465" lon="11.6447117"><ele>315.2</ele><time>2026-04-18T09:03:38.765Z</time></trkpt><trkpt lat="42.6685383" lon="11.6447983"><ele>315.79999999999995</ele><time>2026-04-18T09:03:39.764Z</time></trkpt><trkpt lat="42.6686117" lon="11.64488"><ele>316.4</ele><time>2026-04-18T09:03:40.764Z</time></trkpt><trkpt lat="42.6686867" lon="11.644955"><ele>317.0</ele><time>2026-04-18T09:03:41.765Z</time></trkpt><trkpt lat="42.6687633" lon="11.6450233"><ele>317.4</ele><time>2026-04-18T09:03:42.765Z</time></trkpt><trkpt lat="42.6688517" lon="11.6450867"><ele>317.79999999999995</ele><time>2026-04-18T09:03:43.765Z</time></trkpt><trkpt lat="42.6689567" lon="11.6451317"><ele>318.2</ele><time>2026-04-18T09:03:44.765Z</time></trkpt><trkpt lat="42.6690517" lon="11.6451667"><ele>318.59999999999997</ele><time>2026-04-18T09:03:45.765Z</time></trkpt><trkpt lat="42.669155" lon="11.6451933"><ele>319.0</ele><time>2026-04-18T09:03:46.765Z</time></trkpt><trkpt lat="42.6692683" lon="11.6452267"><ele>319.0</ele><time>2026-04-18T09:03:47.765Z</time></trkpt><trkpt lat="42.6693767" lon="11.6452583"><ele>319.0</ele><time>2026-04-18T09:03:48.765Z</time></trkpt><trkpt lat="42.6694933" lon="11.6452883"><ele>319.0</ele><time>2026-04-18T09:03:49.765Z</time></trkpt><trkpt lat="42.6696" lon="11.6453283"><ele>319.0</ele><time>2026-04-18T09:03:50.765Z</time></trkpt><trkpt lat="42.6697083" lon="11.645375"><ele>319.5</ele><time>2026-04-18T09:03:51.765Z</time></trkpt><trkpt lat="42.6698267" lon="11.645415"><ele>320.0</ele><time>2026-04-18T09:03:52.765Z</time></trkpt><trkpt lat="42.6699483" lon="11.6454633"><ele>320.5</ele><time>2026-04-18T09:03:53.765Z</time></trkpt><trkpt lat="42.6700783" lon="11.6455083"><ele>321.0</ele><time>2026-04-18T09:03:54.765Z</time></trkpt><trkpt lat="42.670205" lon="11.64556"><ele>322.0</ele><time>2026-04-18T09:03:55.765Z</time></trkpt><trkpt lat="42.6703133" lon="11.6456033"><ele>323.0</ele><time>2026-04-18T09:03:56.765Z</time></trkpt><trkpt lat="42.6704267" lon="11.6456433"><ele>324.0</ele><time>2026-04-18T09:03:57.765Z</time></trkpt><trkpt lat="42.670535" lon="11.6456667"><ele>325.0</ele><time>2026-04-18T09:03:58.765Z</time></trkpt><trkpt lat="42.6706417" lon="11.6457033"><ele>325.0</ele><time>2026-04-18T09:03:59.765Z</time></trkpt><trkpt lat="42.6707433" lon="11.6457517"><ele>325.0</ele><time>2026-04-18T09:04:00.765Z</time></trkpt><trkpt lat="42.6708533" lon="11.64581"><ele>325.0</ele><time>2026-04-18T09:04:01.765Z</time></trkpt><trkpt lat="42.6709567" lon="11.64586"><ele>325.0</ele><time>2026-04-18T09:04:02.765Z</time></trkpt><trkpt lat="42.6710533" lon="11.6459167"><ele>325.0</ele><time>2026-04-18T09:04:03.765Z</time></trkpt><trkpt lat="42.671155" lon="11.64597"><ele>326.5</ele><time>2026-04-18T09:04:04.764Z</time></trkpt><trkpt lat="42.6712583" lon="11.64602"><ele>328.0</ele><time>2026-04-18T09:04:05.765Z</time></trkpt><trkpt lat="42.6713583" lon="11.6460583"><ele>329.5</ele><time>2026-04-18T09:04:06.765Z</time></trkpt><trkpt lat="42.6714667" lon="11.646085"><ele>331.0</ele><time>2026-04-18T09:04:07.764Z</time></trkpt><trkpt lat="42.6715917" lon="11.6461233"><ele>330.75</ele><time>2026-04-18T09:04:08.765Z</time></trkpt><trkpt lat="42.67171" lon="11.6461433"><ele>330.5</ele><time>2026-04-18T09:04:09.765Z</time></trkpt><trkpt lat="42.67184" lon="11.646185"><ele>330.25</ele><time>2026-04-18T09:04:10.765Z</time></trkpt><trkpt lat="42.6719767" lon="11.6462317"><ele>330.0</ele><time>2026-04-18T09:04:11.765Z</time></trkpt><trkpt lat="42.67211" lon="11.6462733"><ele>330.5</ele><time>2026-04-18T09:04:12.764Z</time></trkpt><trkpt lat="42.672235" lon="11.6463017"><ele>331.0</ele><time>2026-04-18T09:04:13.765Z</time></trkpt><trkpt lat="42.6723417" lon="11.6463383"><ele>331.5</ele><time>2026-04-18T09:04:14.765Z</time></trkpt><trkpt lat="42.6724517" lon="11.6463733"><ele>332.0</ele><time>2026-04-18T09:04:15.765Z</time></trkpt><trkpt lat="42.6725617" lon="11.6464133"><ele>332.0</ele><time>2026-04-18T09:04:16.765Z</time></trkpt><trkpt lat="42.672665" lon="11.6464567"><ele>332.0</ele><time>2026-04-18T09:04:17.765Z</time></trkpt><trkpt lat="42.6727733" lon="11.6464917"><ele>332.0</ele><time>2026-04-18T09:04:18.765Z</time></trkpt><trkpt lat="42.6728767" lon="11.64654"><ele>332.0</ele><time>2026-04-18T09:04:19.764Z</time></trkpt><trkpt lat="42.6729767" lon="11.6466"><ele>332.0</ele><time>2026-04-18T09:04:20.765Z</time></trkpt><trkpt lat="42.673065" lon="11.64666"><ele>333.0</ele><time>2026-04-18T09:04:21.765Z</time></trkpt><trkpt lat="42.6731383" lon="11.64672"><ele>334.0</ele><time>2026-04-18T09:04:22.765Z</time></trkpt><trkpt lat="42.6732" lon="11.6467833"><ele>335.0</ele><time>2026-04-18T09:04:23.765Z</time></trkpt><trkpt lat="42.6732583" lon="11.6468717"><ele>336.0</ele><time>2026-04-18T09:04:24.765Z</time></trkpt><trkpt lat="42.67332" lon="11.6469783"><ele>337.0</ele><time>2026-04-18T09:04:25.764Z</time></trkpt><trkpt lat="42.6733883" lon="11.64709"><ele>337.3333333333333</ele><time>2026-04-18T09:04:26.765Z</time></trkpt><trkpt lat="42.6734583" lon="11.6471917"><ele>337.66666666666663</ele><time>2026-04-18T09:04:27.765Z</time></trkpt><trkpt lat="42.673525" lon="11.6472917"><ele>338.0</ele><time>2026-04-18T09:04:28.765Z</time></trkpt><trkpt lat="42.673575" lon="11.6473767"><ele>338.3333333333333</ele><time>2026-04-18T09:04:29.765Z</time></trkpt><trkpt lat="42.6736167" lon="11.647475"><ele>338.6666666666667</ele><time>2026-04-18T09:04:30.765Z</time></trkpt><trkpt lat="42.67365" lon="11.6475717"><ele>339.0</ele><time>2026-04-18T09:04:31.765Z</time></trkpt><trkpt lat="42.673715" lon="11.6476483"><ele>339.2</ele><time>2026-04-18T09:04:32.765Z</time></trkpt><trkpt lat="42.673795" lon="11.647725"><ele>339.4</ele><time>2026-04-18T09:04:33.765Z</time></trkpt><trkpt lat="42.6738833" lon="11.6478217"><ele>339.6</ele><time>2026-04-18T09:04:34.765Z</time></trkpt><trkpt lat="42.673975" lon="11.6479183"><ele>339.8</ele><time>2026-04-18T09:04:35.765Z</time></trkpt><trkpt lat="42.67406" lon="11.64802"><ele>340.0</ele><time>2026-04-18T09:04:36.765Z</time></trkpt><trkpt lat="42.67414" lon="11.648115"><ele>340.2</ele><time>2026-04-18T09:04:37.765Z</time></trkpt><trkpt lat="42.6742183" lon="11.6481933"><ele>340.4</ele><time>2026-04-18T09:04:38.765Z</time></trkpt><trkpt lat="42.674295" lon="11.6482617"><ele>340.6</ele><time>2026-04-18T09:04:39.765Z</time></trkpt><trkpt lat="42.6743867" lon="11.64831"><ele>340.8</ele><time>2026-04-18T09:04:40.765Z</time></trkpt><trkpt lat="42.6744817" lon="11.6483667"><ele>341.0</ele><time>2026-04-18T09:04:41.764Z</time></trkpt><trkpt lat="42.674585" lon="11.64841"><ele>341.8</ele><time>2026-04-18T09:04:42.765Z</time></trkpt><trkpt lat="42.6746967" lon="11.6484583"><ele>342.6</ele><time>2026-04-18T09:04:43.765Z</time></trkpt><trkpt lat="42.674805" lon="11.6485033"><ele>343.4</ele><time>2026-04-18T09:04:44.765Z</time></trkpt><trkpt lat="42.6749133" lon="11.6485417"><ele>344.2</ele><time>2026-04-18T09:04:45.765Z</time></trkpt><trkpt lat="42.6750083" lon="11.648565"><ele>345.0</ele><time>2026-04-18T09:04:46.765Z</time></trkpt><trkpt lat="42.6750917" lon="11.6485933"><ele>345.0</ele><time>2026-04-18T09:04:47.765Z</time></trkpt><trkpt lat="42.6751617" lon="11.6486133"><ele>345.0</ele><time>2026-04-18T09:04:48.764Z</time></trkpt><trkpt lat="42.6752767" lon="11.6486433"><ele>345.0</ele><time>2026-04-18T09:04:50.765Z</time></trkpt><trkpt lat="42.6753817" lon="11.6486633"><ele>345.0</ele><time>2026-04-18T09:04:52.765Z</time></trkpt><trkpt lat="42.6754867" lon="11.64863"><ele>345.0</ele><time>2026-04-18T09:04:54.765Z</time></trkpt><trkpt lat="42.6755717" lon="11.6485033"><ele>345.6</ele><time>2026-04-18T09:04:56.765Z</time></trkpt><trkpt lat="42.6756083" lon="11.6483933"><ele>346.2</ele><time>2026-04-18T09:04:57.765Z</time></trkpt><trkpt lat="42.6756433" lon="11.648275"><ele>346.79999999999995</ele><time>2026-04-18T09:04:58.765Z</time></trkpt><trkpt lat="42.67569" lon="11.6481367"><ele>347.4</ele><time>2026-04-18T09:04:59.765Z</time></trkpt><trkpt lat="42.6757383" lon="11.64799"><ele>348.0</ele><time>2026-04-18T09:05:00.765Z</time></trkpt><trkpt lat="42.67579" lon="11.6478433"><ele>347.0</ele><time>2026-04-18T09:05:01.765Z</time></trkpt><trkpt lat="42.675835" lon="11.6477017"><ele>346.0</ele><time>2026-04-18T09:05:02.765Z</time></trkpt><trkpt lat="42.67588" lon="11.6475667"><ele>345.0</ele><time>2026-04-18T09:05:03.765Z</time></trkpt><trkpt lat="42.67592" lon="11.6474117"><ele>344.0</ele><time>2026-04-18T09:05:04.765Z</time></trkpt><trkpt lat="42.6759617" lon="11.6472433"><ele>344.0</ele><time>2026-04-18T09:05:05.765Z</time></trkpt><trkpt lat="42.6759967" lon="11.647085"><ele>344.0</ele><time>2026-04-18T09:05:06.765Z</time></trkpt><trkpt lat="42.6760233" lon="11.6469433"><ele>344.0</ele><time>2026-04-18T09:05:07.765Z</time></trkpt><trkpt lat="42.6760567" lon="11.6468033"><ele>344.0</ele><time>2026-04-18T09:05:08.765Z</time></trkpt><trkpt lat="42.6760783" lon="11.6466717"><ele>344.0</ele><time>2026-04-18T09:05:09.765Z</time></trkpt><trkpt lat="42.676105" lon="11.6465383"><ele>344.33333333333337</ele><time>2026-04-18T09:05:10.764Z</time></trkpt><trkpt lat="42.676125" lon="11.64642"><ele>344.6666666666667</ele><time>2026-04-18T09:05:11.765Z</time></trkpt><trkpt lat="42.67615" lon="11.64632"><ele>345.0</ele><time>2026-04-18T09:05:12.765Z</time></trkpt><trkpt lat="42.67619" lon="11.6462317"><ele>345.3333333333333</ele><time>2026-04-18T09:05:13.765Z</time></trkpt><trkpt lat="42.6762383" lon="11.6461517"><ele>345.66666666666663</ele><time>2026-04-18T09:05:14.764Z</time></trkpt><trkpt lat="42.6762883" lon="11.6460717"><ele>346.0</ele><time>2026-04-18T09:05:15.765Z</time></trkpt><trkpt lat="42.67634" lon="11.64597"><ele>346.0</ele><time>2026-04-18T09:05:16.765Z</time></trkpt><trkpt lat="42.6763967" lon="11.6458417"><ele>346.0</ele><time>2026-04-18T09:05:17.765Z</time></trkpt><trkpt lat="42.6764483" lon="11.6456883"><ele>346.0</ele><time>2026-04-18T09:05:18.765Z</time></trkpt><trkpt lat="42.6764917" lon="11.6455517"><ele>346.0</ele><time>2026-04-18T09:05:19.765Z</time></trkpt><trkpt lat="42.676525" lon="11.6454267"><ele>346.0</ele><time>2026-04-18T09:05:20.764Z</time></trkpt><trkpt lat="42.6765583" lon="11.6453283"><ele>345.6</ele><time>2026-04-18T09:05:21.765Z</time></trkpt><trkpt lat="42.6766033" lon="11.6451817"><ele>345.20000000000005</ele><time>2026-04-18T09:05:23.765Z</time></trkpt><trkpt lat="42.6766017" lon="11.64504"><ele>344.79999999999995</ele><time>2026-04-18T09:05:25.765Z</time></trkpt><trkpt lat="42.67657" lon="11.6449617"><ele>344.4</ele><time>2026-04-18T09:05:26.765Z</time></trkpt><trkpt lat="42.6765167" lon="11.6448633"><ele>344.0</ele><time>2026-04-18T09:05:27.765Z</time></trkpt><trkpt lat="42.6764383" lon="11.644745"><ele>344.0</ele><time>2026-04-18T09:05:28.765Z</time></trkpt><trkpt lat="42.67634" lon="11.6446083"><ele>344.0</ele><time>2026-04-18T09:05:29.765Z</time></trkpt><trkpt lat="42.6762367" lon="11.6444667"><ele>344.0</ele><time>2026-04-18T09:05:30.764Z</time></trkpt><trkpt lat="42.6761383" lon="11.644325"><ele>344.0</ele><time>2026-04-18T09:05:31.765Z</time></trkpt><trkpt lat="42.67603" lon="11.64418"><ele>343.0</ele><time>2026-04-18T09:05:32.765Z</time></trkpt><trkpt lat="42.6759267" lon="11.6440333"><ele>342.0</ele><time>2026-04-18T09:05:33.765Z</time></trkpt><trkpt lat="42.6758133" lon="11.6438817"><ele>341.0</ele><time>2026-04-18T09:05:34.765Z</time></trkpt><trkpt lat="42.6756967" lon="11.643725"><ele>341.33333333333337</ele><time>2026-04-18T09:05:35.765Z</time></trkpt><trkpt lat="42.675585" lon="11.6435667"><ele>341.6666666666667</ele><time>2026-04-18T09:05:36.765Z</time></trkpt><trkpt lat="42.675475" lon="11.6434083"><ele>342.0</ele><time>2026-04-18T09:05:37.765Z</time></trkpt><trkpt lat="42.67537" lon="11.64326"><ele>342.0</ele><time>2026-04-18T09:05:38.764Z</time></trkpt><trkpt lat="42.67527" lon="11.64312"><ele>342.0</ele><time>2026-04-18T09:05:39.765Z</time></trkpt><trkpt lat="42.675165" lon="11.64299"><ele>342.0</ele><time>2026-04-18T09:05:40.765Z</time></trkpt><trkpt lat="42.6750633" lon="11.6428533"><ele>342.0</ele><time>2026-04-18T09:05:41.765Z</time></trkpt><trkpt lat="42.67495" lon="11.6427183"><ele>341.3333333333333</ele><time>2026-04-18T09:05:42.765Z</time></trkpt><trkpt lat="42.67483" lon="11.6425883"><ele>340.66666666666663</ele><time>2026-04-18T09:05:43.765Z</time></trkpt><trkpt lat="42.6747017" lon="11.64246"><ele>340.0</ele><time>2026-04-18T09:05:44.765Z</time></trkpt><trkpt lat="42.6745817" lon="11.642325"><ele>340.0</ele><time>2026-04-18T09:05:45.765Z</time></trkpt><trkpt lat="42.6744633" lon="11.6422067"><ele>340.0</ele><time>2026-04-18T09:05:46.765Z</time></trkpt><trkpt lat="42.67435" lon="11.6420967"><ele>340.0</ele><time>2026-04-18T09:05:47.765Z</time></trkpt><trkpt lat="42.6742367" lon="11.6419917"><ele>340.0</ele><time>2026-04-18T09:05:48.765Z</time></trkpt><trkpt lat="42.6741217" lon="11.6418967"><ele>339.25</ele><time>2026-04-18T09:05:49.765Z</time></trkpt><trkpt lat="42.6739967" lon="11.641815"><ele>338.5</ele><time>2026-04-18T09:05:50.765Z</time></trkpt><trkpt lat="42.67387" lon="11.641735"><ele>337.75</ele><time>2026-04-18T09:05:51.765Z</time></trkpt><trkpt lat="42.6737367" lon="11.64166"><ele>337.0</ele><time>2026-04-18T09:05:52.764Z</time></trkpt><trkpt lat="42.6736" lon="11.64158"><ele>336.5</ele><time>2026-04-18T09:05:53.765Z</time></trkpt><trkpt lat="42.6734667" lon="11.641505"><ele>336.0</ele><time>2026-04-18T09:05:54.765Z</time></trkpt><trkpt lat="42.6733317" lon="11.6414283"><ele>335.5</ele><time>2026-04-18T09:05:55.765Z</time></trkpt><trkpt lat="42.6731933" lon="11.64136"><ele>335.0</ele><time>2026-04-18T09:05:56.765Z</time></trkpt><trkpt lat="42.6730583" lon="11.641285"><ele>335.0</ele><time>2026-04-18T09:05:57.765Z</time></trkpt><trkpt lat="42.67292" lon="11.6411867"><ele>335.0</ele><time>2026-04-18T09:05:58.765Z</time></trkpt><trkpt lat="42.6727833" lon="11.6410817"><ele>335.0</ele><time>2026-04-18T09:05:59.765Z</time></trkpt><trkpt lat="42.672655" lon="11.6409567"><ele>334.0</ele><time>2026-04-18T09:06:00.765Z</time></trkpt><trkpt lat="42.672525" lon="11.6408117"><ele>333.0</ele><time>2026-04-18T09:06:01.764Z</time></trkpt><trkpt lat="42.6723917" lon="11.64067"><ele>332.0</ele><time>2026-04-18T09:06:02.764Z</time></trkpt><trkpt lat="42.672275" lon="11.6405267"><ele>332.0</ele><time>2026-04-18T09:06:03.765Z</time></trkpt><trkpt lat="42.6721517" lon="11.6403783"><ele>332.0</ele><time>2026-04-18T09:06:04.765Z</time></trkpt><trkpt lat="42.67203" lon="11.64023"><ele>332.0</ele><time>2026-04-18T09:06:05.765Z</time></trkpt><trkpt lat="42.67191" lon="11.640075"><ele>330.33333333333337</ele><time>2026-04-18T09:06:06.764Z</time></trkpt><trkpt lat="42.6717867" lon="11.63991"><ele>328.6666666666667</ele><time>2026-04-18T09:06:07.765Z</time></trkpt><trkpt lat="42.6716633" lon="11.63974"><ele>327.0</ele><time>2026-04-18T09:06:08.765Z</time></trkpt><trkpt lat="42.6715467" lon="11.6395633"><ele>326.3333333333333</ele><time>2026-04-18T09:06:09.764Z</time></trkpt><trkpt lat="42.67142" lon="11.639385"><ele>325.66666666666663</ele><time>2026-04-18T09:06:10.765Z</time></trkpt><trkpt lat="42.6712933" lon="11.63921"><ele>325.0</ele><time>2026-04-18T09:06:11.765Z</time></trkpt><trkpt lat="42.6711583" lon="11.639035"><ele>325.0</ele><time>2026-04-18T09:06:12.765Z</time></trkpt><trkpt lat="42.6710283" lon="11.6388633"><ele>325.0</ele><time>2026-04-18T09:06:13.765Z</time></trkpt><trkpt lat="42.6708983" lon="11.6386817"><ele>325.0</ele><time>2026-04-18T09:06:14.765Z</time></trkpt><trkpt lat="42.6707667" lon="11.6385"><ele>324.3333333333333</ele><time>2026-04-18T09:06:15.765Z</time></trkpt><trkpt lat="42.6706483" lon="11.63833"><ele>323.6666666666667</ele><time>2026-04-18T09:06:16.765Z</time></trkpt><trkpt lat="42.67053" lon="11.638165"><ele>323.0</ele><time>2026-04-18T09:06:17.765Z</time></trkpt><trkpt lat="42.6704067" lon="11.6380033"><ele>322.33333333333337</ele><time>2026-04-18T09:06:18.765Z</time></trkpt><trkpt lat="42.6702633" lon="11.6378533"><ele>321.6666666666667</ele><time>2026-04-18T09:06:19.765Z</time></trkpt><trkpt lat="42.67012" lon="11.6377017"><ele>321.0</ele><time>2026-04-18T09:06:20.765Z</time></trkpt><trkpt lat="42.669975" lon="11.637555"><ele>319.3333333333333</ele><time>2026-04-18T09:06:21.765Z</time></trkpt><trkpt lat="42.6698383" lon="11.637415"><ele>317.66666666666663</ele><time>2026-04-18T09:06:22.765Z</time></trkpt><trkpt lat="42.6697067" lon="11.63728"><ele>316.0</ele><time>2026-04-18T09:06:23.765Z</time></trkpt><trkpt lat="42.66958" lon="11.63715"><ele>316.0</ele><time>2026-04-18T09:06:24.765Z</time></trkpt><trkpt lat="42.6694483" lon="11.6370033"><ele>316.0</ele><time>2026-04-18T09:06:25.765Z</time></trkpt><trkpt lat="42.6693117" lon="11.6368633"><ele>316.0</ele><time>2026-04-18T09:06:26.765Z</time></trkpt><trkpt lat="42.6691967" lon="11.63672"><ele>315.0</ele><time>2026-04-18T09:06:27.765Z</time></trkpt><trkpt lat="42.6690733" lon="11.636585"><ele>314.0</ele><time>2026-04-18T09:06:28.765Z</time></trkpt><trkpt lat="42.668955" lon="11.6364483"><ele>313.0</ele><time>2026-04-18T09:06:29.764Z</time></trkpt><trkpt lat="42.6688283" lon="11.6363133"><ele>313.0</ele><time>2026-04-18T09:06:30.765Z</time></trkpt><trkpt lat="42.6687067" lon="11.6361733"><ele>313.0</ele><time>2026-04-18T09:06:31.765Z</time></trkpt><trkpt lat="42.6685883" lon="11.636035"><ele>313.0</ele><time>2026-04-18T09:06:32.765Z</time></trkpt><trkpt lat="42.6684733" lon="11.6358967"><ele>311.5</ele><time>2026-04-18T09:06:33.765Z</time></trkpt><trkpt lat="42.6683567" lon="11.6357583"><ele>310.0</ele><time>2026-04-18T09:06:34.765Z</time></trkpt><trkpt lat="42.6682517" lon="11.63563"><ele>308.5</ele><time>2026-04-18T09:06:35.765Z</time></trkpt><trkpt lat="42.6681567" lon="11.6355067"><ele>307.0</ele><time>2026-04-18T09:06:36.765Z</time></trkpt><trkpt lat="42.66807" lon="11.6353917"><ele>306.3333333333333</ele><time>2026-04-18T09:06:37.765Z</time></trkpt><trkpt lat="42.6679933" lon="11.63529"><ele>305.66666666666663</ele><time>2026-04-18T09:06:38.764Z</time></trkpt><trkpt lat="42.6679183" lon="11.6351967"><ele>305.0</ele><time>2026-04-18T09:06:39.765Z</time></trkpt><trkpt lat="42.66785" lon="11.6351283"><ele>304.3333333333333</ele><time>2026-04-18T09:06:40.765Z</time></trkpt><trkpt lat="42.667785" lon="11.6350783"><ele>303.6666666666667</ele><time>2026-04-18T09:06:41.765Z</time></trkpt><trkpt lat="42.6677117" lon="11.6350733"><ele>303.0</ele><time>2026-04-18T09:06:42.765Z</time></trkpt><trkpt lat="42.6676333" lon="11.6350983"><ele>302.3333333333333</ele><time>2026-04-18T09:06:43.765Z</time></trkpt><trkpt lat="42.6675533" lon="11.6351467"><ele>301.6666666666667</ele><time>2026-04-18T09:06:44.765Z</time></trkpt><trkpt lat="42.66748" lon="11.6352"><ele>301.0</ele><time>2026-04-18T09:06:45.765Z</time></trkpt><trkpt lat="42.667415" lon="11.6352367"><ele>300.33333333333337</ele><time>2026-04-18T09:06:46.765Z</time></trkpt><trkpt lat="42.6673367" lon="11.6352383"><ele>299.6666666666667</ele><time>2026-04-18T09:06:47.764Z</time></trkpt><trkpt lat="42.6672667" lon="11.6352117"><ele>299.0</ele><time>2026-04-18T09:06:48.765Z</time></trkpt><trkpt lat="42.667195" lon="11.6351417"><ele>299.0</ele><time>2026-04-18T09:06:49.765Z</time></trkpt><trkpt lat="42.6671117" lon="11.63504"><ele>299.0</ele><time>2026-04-18T09:06:50.765Z</time></trkpt><trkpt lat="42.6670283" lon="11.6349167"><ele>299.0</ele><time>2026-04-18T09:06:51.765Z</time></trkpt><trkpt lat="42.6669367" lon="11.634795"><ele>299.0</ele><time>2026-04-18T09:06:52.765Z</time></trkpt><trkpt lat="42.6668383" lon="11.6346717"><ele>297.0</ele><time>2026-04-18T09:06:53.764Z</time></trkpt><trkpt lat="42.6667267" lon="11.63453"><ele>295.0</ele><time>2026-04-18T09:06:54.765Z</time></trkpt><trkpt lat="42.6666317" lon="11.63439"><ele>293.0</ele><time>2026-04-18T09:06:55.765Z</time></trkpt><trkpt lat="42.666525" lon="11.6342483"><ele>291.0</ele><time>2026-04-18T09:06:56.765Z</time></trkpt><trkpt lat="42.6664183" lon="11.634105"><ele>289.6666666666667</ele><time>2026-04-18T09:06:57.765Z</time></trkpt><trkpt lat="42.666305" lon="11.6339567"><ele>288.33333333333337</ele><time>2026-04-18T09:06:58.765Z</time></trkpt><trkpt lat="42.6661917" lon="11.6338133"><ele>287.0</ele><time>2026-04-18T09:06:59.765Z</time></trkpt><trkpt lat="42.6660817" lon="11.6336633"><ele>284.6666666666667</ele><time>2026-04-18T09:07:00.765Z</time></trkpt><trkpt lat="42.6659683" lon="11.6335167"><ele>282.3333333333333</ele><time>2026-04-18T09:07:01.765Z</time></trkpt><trkpt lat="42.6658567" lon="11.633365"><ele>280.0</ele><time>2026-04-18T09:07:02.764Z</time></trkpt><trkpt lat="42.6657617" lon="11.633205"><ele>280.0</ele><time>2026-04-18T09:07:03.765Z</time></trkpt><trkpt lat="42.6656833" lon="11.6330417"><ele>280.0</ele><time>2026-04-18T09:07:04.765Z</time></trkpt><trkpt lat="42.6656017" lon="11.632845"><ele>280.0</ele><time>2026-04-18T09:07:05.765Z</time></trkpt><trkpt lat="42.665535" lon="11.6326233"><ele>278.3333333333333</ele><time>2026-04-18T09:07:06.765Z</time></trkpt><trkpt lat="42.6654683" lon="11.6323933"><ele>276.6666666666667</ele><time>2026-04-18T09:07:07.765Z</time></trkpt><trkpt lat="42.6654033" lon="11.6321717"><ele>275.0</ele><time>2026-04-18T09:07:08.765Z</time></trkpt><trkpt lat="42.6653383" lon="11.6319583"><ele>275.0</ele><time>2026-04-18T09:07:09.765Z</time></trkpt><trkpt lat="42.6652817" lon="11.63175"><ele>275.0</ele><time>2026-04-18T09:07:10.765Z</time></trkpt><trkpt lat="42.6652183" lon="11.631555"><ele>275.0</ele><time>2026-04-18T09:07:11.765Z</time></trkpt><trkpt lat="42.6651483" lon="11.631365"><ele>275.0</ele><time>2026-04-18T09:07:12.765Z</time></trkpt><trkpt lat="42.6650667" lon="11.6311833"><ele>275.0</ele><time>2026-04-18T09:07:13.765Z</time></trkpt><trkpt lat="42.6649733" lon="11.6310117"><ele>275.0</ele><time>2026-04-18T09:07:14.765Z</time></trkpt><trkpt lat="42.6648817" lon="11.6308367"><ele>274.0</ele><time>2026-04-18T09:07:15.765Z</time></trkpt><trkpt lat="42.6647933" lon="11.63067"><ele>273.0</ele><time>2026-04-18T09:07:16.765Z</time></trkpt><trkpt lat="42.664705" lon="11.6305"><ele>272.0</ele><time>2026-04-18T09:07:17.765Z</time></trkpt><trkpt lat="42.6646167" lon="11.630335"><ele>271.75</ele><time>2026-04-18T09:07:18.765Z</time></trkpt><trkpt lat="42.6645383" lon="11.6301583"><ele>271.5</ele><time>2026-04-18T09:07:19.765Z</time></trkpt><trkpt lat="42.6644467" lon="11.6300067"><ele>271.25</ele><time>2026-04-18T09:07:20.765Z</time></trkpt><trkpt lat="42.6643667" lon="11.6298567"><ele>271.0</ele><time>2026-04-18T09:07:21.765Z</time></trkpt><trkpt lat="42.6643" lon="11.62973"><ele>271.0</ele><time>2026-04-18T09:07:22.765Z</time></trkpt><trkpt lat="42.66423" lon="11.6296167"><ele>271.0</ele><time>2026-04-18T09:07:23.764Z</time></trkpt><trkpt lat="42.6641633" lon="11.6295367"><ele>271.0</ele><time>2026-04-18T09:07:24.765Z</time></trkpt><trkpt lat="42.66408" lon="11.6294683"><ele>271.0</ele><time>2026-04-18T09:07:25.764Z</time></trkpt><trkpt lat="42.66399" lon="11.62943"><ele>271.0</ele><time>2026-04-18T09:07:26.765Z</time></trkpt><trkpt lat="42.66389" lon="11.6294217"><ele>271.2</ele><time>2026-04-18T09:07:27.765Z</time></trkpt><trkpt lat="42.6637783" lon="11.629435"><ele>271.40000000000003</ele><time>2026-04-18T09:07:28.765Z</time></trkpt><trkpt lat="42.66367" lon="11.62945"><ele>271.6</ele><time>2026-04-18T09:07:29.765Z</time></trkpt><trkpt lat="42.6635667" lon="11.6294383"><ele>271.8</ele><time>2026-04-18T09:07:30.765Z</time></trkpt><trkpt lat="42.6634583" lon="11.6293967"><ele>272.0</ele><time>2026-04-18T09:07:31.764Z</time></trkpt><trkpt lat="42.66337" lon="11.6293067"><ele>270.33333333333337</ele><time>2026-04-18T09:07:32.765Z</time></trkpt><trkpt lat="42.6632817" lon="11.629165"><ele>268.6666666666667</ele><time>2026-04-18T09:07:33.765Z</time></trkpt><trkpt lat="42.6631883" lon="11.6289967"><ele>267.0</ele><time>2026-04-18T09:07:34.765Z</time></trkpt><trkpt lat="42.6630983" lon="11.6288033"><ele>266.6666666666667</ele><time>2026-04-18T09:07:35.765Z</time></trkpt><trkpt lat="42.6630183" lon="11.6286017"><ele>266.33333333333337</ele><time>2026-04-18T09:07:36.765Z</time></trkpt><trkpt lat="42.662935" lon="11.6283967"><ele>266.0</ele><time>2026-04-18T09:07:37.764Z</time></trkpt><trkpt lat="42.6628417" lon="11.6282"><ele>263.6666666666667</ele><time>2026-04-18T09:07:38.765Z</time></trkpt><trkpt lat="42.6627517" lon="11.628005"><ele>261.3333333333333</ele><time>2026-04-18T09:07:39.765Z</time></trkpt><trkpt lat="42.6626633" lon="11.6278133"><ele>259.0</ele><time>2026-04-18T09:07:40.765Z</time></trkpt><trkpt lat="42.662575" lon="11.627615"><ele>258.66666666666663</ele><time>2026-04-18T09:07:41.764Z</time></trkpt><trkpt lat="42.6624883" lon="11.6274067"><ele>258.3333333333333</ele><time>2026-04-18T09:07:42.765Z</time></trkpt><trkpt lat="42.6623967" lon="11.6272117"><ele>258.0</ele><time>2026-04-18T09:07:43.765Z</time></trkpt><trkpt lat="42.6623017" lon="11.62703"><ele>257.6666666666667</ele><time>2026-04-18T09:07:44.765Z</time></trkpt><trkpt lat="42.6621967" lon="11.6268467"><ele>257.33333333333337</ele><time>2026-04-18T09:07:45.765Z</time></trkpt><trkpt lat="42.6620967" lon="11.6266667"><ele>257.0</ele><time>2026-04-18T09:07:46.765Z</time></trkpt><trkpt lat="42.6619917" lon="11.6264883"><ele>254.33333333333334</ele><time>2026-04-18T09:07:47.765Z</time></trkpt><trkpt lat="42.6618817" lon="11.626305"><ele>251.66666666666669</ele><time>2026-04-18T09:07:48.765Z</time></trkpt><trkpt lat="42.6617733" lon="11.6261317"><ele>249.0</ele><time>2026-04-18T09:07:49.765Z</time></trkpt><trkpt lat="42.6616683" lon="11.625965"><ele>249.0</ele><time>2026-04-18T09:07:50.765Z</time></trkpt><trkpt lat="42.6615567" lon="11.625785"><ele>249.0</ele><time>2026-04-18T09:07:51.765Z</time></trkpt><trkpt lat="42.66146" lon="11.6255967"><ele>249.0</ele><time>2026-04-18T09:07:52.765Z</time></trkpt><trkpt lat="42.6613583" lon="11.6254183"><ele>246.33333333333331</ele><time>2026-04-18T09:07:53.765Z</time></trkpt><trkpt lat="42.6612717" lon="11.6252133"><ele>243.66666666666666</ele><time>2026-04-18T09:07:54.765Z</time></trkpt><trkpt lat="42.6611917" lon="11.6250017"><ele>241.0</ele><time>2026-04-18T09:07:55.765Z</time></trkpt><trkpt lat="42.6611133" lon="11.6247933"><ele>240.33333333333331</ele><time>2026-04-18T09:07:56.765Z</time></trkpt><trkpt lat="42.6610317" lon="11.6245783"><ele>239.66666666666669</ele><time>2026-04-18T09:07:57.765Z</time></trkpt><trkpt lat="42.66095" lon="11.6243733"><ele>239.0</ele><time>2026-04-18T09:07:58.765Z</time></trkpt><trkpt lat="42.6608667" lon="11.6241617"><ele>239.0</ele><time>2026-04-18T09:07:59.765Z</time></trkpt><trkpt lat="42.66078" lon="11.623955"><ele>239.0</ele><time>2026-04-18T09:08:00.765Z</time></trkpt><trkpt lat="42.660705" lon="11.6237617"><ele>239.0</ele><time>2026-04-18T09:08:01.765Z</time></trkpt><trkpt lat="42.660635" lon="11.6235833"><ele>238.5</ele><time>2026-04-18T09:08:02.765Z</time></trkpt><trkpt lat="42.6605633" lon="11.6234283"><ele>238.0</ele><time>2026-04-18T09:08:03.765Z</time></trkpt><trkpt lat="42.6604767" lon="11.6232933"><ele>237.5</ele><time>2026-04-18T09:08:04.765Z</time></trkpt><trkpt lat="42.6603867" lon="11.623165"><ele>237.0</ele><time>2026-04-18T09:08:05.765Z</time></trkpt><trkpt lat="42.66029" lon="11.623045"><ele>236.0</ele><time>2026-04-18T09:08:06.765Z</time></trkpt><trkpt lat="42.6601883" lon="11.6229367"><ele>235.0</ele><time>2026-04-18T09:08:07.765Z</time></trkpt><trkpt lat="42.66009" lon="11.6228367"><ele>234.0</ele><time>2026-04-18T09:08:08.765Z</time></trkpt><trkpt lat="42.6599867" lon="11.6227467"><ele>233.0</ele><time>2026-04-18T09:08:09.764Z</time></trkpt><trkpt lat="42.659875" lon="11.62265"><ele>232.25</ele><time>2026-04-18T09:08:10.765Z</time></trkpt><trkpt lat="42.659755" lon="11.6225717"><ele>231.5</ele><time>2026-04-18T09:08:11.765Z</time></trkpt><trkpt lat="42.65964" lon="11.6225033"><ele>230.75</ele><time>2026-04-18T09:08:12.765Z</time></trkpt><trkpt lat="42.6595267" lon="11.622435"><ele>230.0</ele><time>2026-04-18T09:08:13.765Z</time></trkpt><trkpt lat="42.6594283" lon="11.6223667"><ele>227.8</ele><time>2026-04-18T09:08:14.765Z</time></trkpt><trkpt lat="42.65933" lon="11.622305"><ele>225.6</ele><time>2026-04-18T09:08:15.764Z</time></trkpt><trkpt lat="42.65924" lon="11.6222433"><ele>223.39999999999998</ele><time>2026-04-18T09:08:16.765Z</time></trkpt><trkpt lat="42.659155" lon="11.6221917"><ele>221.2</ele><time>2026-04-18T09:08:17.765Z</time></trkpt><trkpt lat="42.6590883" lon="11.6221533"><ele>219.0</ele><time>2026-04-18T09:08:18.765Z</time></trkpt><trkpt lat="42.6590033" lon="11.6220817"><ele>219.0</ele><time>2026-04-18T09:08:20.765Z</time></trkpt><trkpt lat="42.6589783" lon="11.6219917"><ele>218.99999999999997</ele><time>2026-04-18T09:08:22.765Z</time></trkpt><trkpt lat="42.659025" lon="11.6219167"><ele>218.99999999999997</ele><time>2026-04-18T09:08:24.765Z</time></trkpt><trkpt lat="42.659165" lon="11.6218683"><ele>219.0</ele><time>2026-04-18T09:08:26.765Z</time></trkpt><trkpt lat="42.6592533" lon="11.6218467"><ele>219.0</ele><time>2026-04-18T09:08:27.764Z</time></trkpt><trkpt lat="42.6593567" lon="11.6218133"><ele>220.5</ele><time>2026-04-18T09:08:28.765Z</time></trkpt><trkpt lat="42.6594683" lon="11.621785"><ele>222.0</ele><time>2026-04-18T09:08:29.765Z</time></trkpt><trkpt lat="42.6595783" lon="11.6217483"><ele>223.5</ele><time>2026-04-18T09:08:30.765Z</time></trkpt><trkpt lat="42.65969" lon="11.6217083"><ele>225.0</ele><time>2026-04-18T09:08:31.764Z</time></trkpt><trkpt lat="42.6598" lon="11.6216517"><ele>225.0</ele><time>2026-04-18T09:08:32.765Z</time></trkpt><trkpt lat="42.6598983" lon="11.6215933"><ele>225.0</ele><time>2026-04-18T09:08:33.765Z</time></trkpt><trkpt lat="42.659985" lon="11.6215267"><ele>225.0</ele><time>2026-04-18T09:08:34.765Z</time></trkpt><trkpt lat="42.660055" lon="11.62143"><ele>225.0</ele><time>2026-04-18T09:08:35.765Z</time></trkpt><trkpt lat="42.66011" lon="11.6213033"><ele>225.0</ele><time>2026-04-18T09:08:36.765Z</time></trkpt><trkpt lat="42.6601417" lon="11.6211567"><ele>223.0</ele><time>2026-04-18T09:08:37.765Z</time></trkpt><trkpt lat="42.6601567" lon="11.6209917"><ele>221.0</ele><time>2026-04-18T09:08:38.765Z</time></trkpt><trkpt lat="42.6601617" lon="11.6208083"><ele>219.0</ele><time>2026-04-18T09:08:39.765Z</time></trkpt><trkpt lat="42.660155" lon="11.620605"><ele>217.0</ele><time>2026-04-18T09:08:40.765Z</time></trkpt><trkpt lat="42.6601517" lon="11.6204017"><ele>215.75</ele><time>2026-04-18T09:08:41.765Z</time></trkpt><trkpt lat="42.6601483" lon="11.6202083"><ele>214.5</ele><time>2026-04-18T09:08:42.765Z</time></trkpt><trkpt lat="42.660145" lon="11.6200167"><ele>213.25</ele><time>2026-04-18T09:08:43.764Z</time></trkpt><trkpt lat="42.660145" lon="11.61982"><ele>212.0</ele><time>2026-04-18T09:08:44.765Z</time></trkpt><trkpt lat="42.6601417" lon="11.619625"><ele>211.25</ele><time>2026-04-18T09:08:45.765Z</time></trkpt><trkpt lat="42.6601333" lon="11.6194267"><ele>210.5</ele><time>2026-04-18T09:08:46.765Z</time></trkpt><trkpt lat="42.6601317" lon="11.61924"><ele>209.75</ele><time>2026-04-18T09:08:47.765Z</time></trkpt><trkpt lat="42.6601317" lon="11.61905"><ele>209.0</ele><time>2026-04-18T09:08:48.765Z</time></trkpt><trkpt lat="42.6601233" lon="11.61887"><ele>209.0</ele><time>2026-04-18T09:08:49.765Z</time></trkpt><trkpt lat="42.6601167" lon="11.6186833"><ele>209.0</ele><time>2026-04-18T09:08:50.765Z</time></trkpt><trkpt lat="42.660115" lon="11.6185117"><ele>209.0</ele><time>2026-04-18T09:08:51.765Z</time></trkpt><trkpt lat="42.6601167" lon="11.61835"><ele>209.0</ele><time>2026-04-18T09:08:52.765Z</time></trkpt><trkpt lat="42.6601167" lon="11.618195"><ele>209.75</ele><time>2026-04-18T09:08:53.765Z</time></trkpt><trkpt lat="42.6601183" lon="11.6180417"><ele>210.5</ele><time>2026-04-18T09:08:54.765Z</time></trkpt><trkpt lat="42.6601167" lon="11.6178867"><ele>211.25</ele><time>2026-04-18T09:08:55.765Z</time></trkpt><trkpt lat="42.6601133" lon="11.6177383"><ele>212.0</ele><time>2026-04-18T09:08:56.764Z</time></trkpt><trkpt lat="42.66011" lon="11.6175817"><ele>212.6</ele><time>2026-04-18T09:08:57.764Z</time></trkpt><trkpt lat="42.6600983" lon="11.61743"><ele>213.2</ele><time>2026-04-18T09:08:58.765Z</time></trkpt><trkpt lat="42.6600833" lon="11.6172983"><ele>213.8</ele><time>2026-04-18T09:08:59.765Z</time></trkpt><trkpt lat="42.6600617" lon="11.61717"><ele>214.4</ele><time>2026-04-18T09:09:00.765Z</time></trkpt><trkpt lat="42.660015" lon="11.6170633"><ele>215.0</ele><time>2026-04-18T09:09:01.765Z</time></trkpt><trkpt lat="42.659945" lon="11.6169517"><ele>215.75</ele><time>2026-04-18T09:09:02.765Z</time></trkpt><trkpt lat="42.6598617" lon="11.6168517"><ele>216.5</ele><time>2026-04-18T09:09:03.765Z</time></trkpt><trkpt lat="42.6597567" lon="11.6167733"><ele>217.25</ele><time>2026-04-18T09:09:04.765Z</time></trkpt><trkpt lat="42.6596383" lon="11.6167317"><ele>218.0</ele><time>2026-04-18T09:09:05.765Z</time></trkpt><trkpt lat="42.6595133" lon="11.6167083"><ele>217.25</ele><time>2026-04-18T09:09:06.765Z</time></trkpt><trkpt lat="42.6593767" lon="11.616715"><ele>216.5</ele><time>2026-04-18T09:09:07.765Z</time></trkpt><trkpt lat="42.6592333" lon="11.616725"><ele>215.75</ele><time>2026-04-18T09:09:08.765Z</time></trkpt><trkpt lat="42.6590833" lon="11.6167367"><ele>215.0</ele><time>2026-04-18T09:09:09.765Z</time></trkpt><trkpt lat="42.6589283" lon="11.6167433"><ele>215.0</ele><time>2026-04-18T09:09:10.765Z</time></trkpt><trkpt lat="42.6587583" lon="11.6167533"><ele>215.0</ele><time>2026-04-18T09:09:11.765Z</time></trkpt><trkpt lat="42.65858" lon="11.6167617"><ele>215.0</ele><time>2026-04-18T09:09:12.765Z</time></trkpt><trkpt lat="42.6584" lon="11.6167667"><ele>214.33333333333334</ele><time>2026-04-18T09:09:13.765Z</time></trkpt><trkpt lat="42.6582233" lon="11.61678"><ele>213.66666666666669</ele><time>2026-04-18T09:09:14.765Z</time></trkpt><trkpt lat="42.65805" lon="11.61679"><ele>213.0</ele><time>2026-04-18T09:09:15.765Z</time></trkpt><trkpt lat="42.65787" lon="11.6168"><ele>212.33333333333331</ele><time>2026-04-18T09:09:16.765Z</time></trkpt><trkpt lat="42.6576817" lon="11.6168117"><ele>211.66666666666666</ele><time>2026-04-18T09:09:17.765Z</time></trkpt><trkpt lat="42.6574983" lon="11.6168167"><ele>211.0</ele><time>2026-04-18T09:09:18.764Z</time></trkpt><trkpt lat="42.6573067" lon="11.6168233"><ele>211.0</ele><time>2026-04-18T09:09:19.765Z</time></trkpt><trkpt lat="42.657115" lon="11.6168283"><ele>211.0</ele><time>2026-04-18T09:09:20.765Z</time></trkpt><trkpt lat="42.6569267" lon="11.6168333"><ele>211.0</ele><time>2026-04-18T09:09:21.764Z</time></trkpt><trkpt lat="42.6567317" lon="11.61685"><ele>210.33333333333331</ele><time>2026-04-18T09:09:22.765Z</time></trkpt><trkpt lat="42.6565283" lon="11.6168633"><ele>209.66666666666669</ele><time>2026-04-18T09:09:23.765Z</time></trkpt><trkpt lat="42.6563267" lon="11.6168833"><ele>209.0</ele><time>2026-04-18T09:09:24.765Z</time></trkpt><trkpt lat="42.6561417" lon="11.6168933"><ele>208.66666666666669</ele><time>2026-04-18T09:09:25.765Z</time></trkpt><trkpt lat="42.65597" lon="11.61691"><ele>208.33333333333331</ele><time>2026-04-18T09:09:26.765Z</time></trkpt><trkpt lat="42.6558033" lon="11.6169183"><ele>208.0</ele><time>2026-04-18T09:09:27.765Z</time></trkpt><trkpt lat="42.65565" lon="11.616925"><ele>208.0</ele><time>2026-04-18T09:09:28.765Z</time></trkpt><trkpt lat="42.65551" lon="11.6169233"><ele>208.0</ele><time>2026-04-18T09:09:29.765Z</time></trkpt><trkpt lat="42.6553783" lon="11.6169183"><ele>208.0</ele><time>2026-04-18T09:09:30.765Z</time></trkpt><trkpt lat="42.6552433" lon="11.6168917"><ele>208.0</ele><time>2026-04-18T09:09:31.765Z</time></trkpt><trkpt lat="42.6551133" lon="11.6168317"><ele>207.66666666666666</ele><time>2026-04-18T09:09:32.765Z</time></trkpt><trkpt lat="42.6549883" lon="11.616735"><ele>207.33333333333331</ele><time>2026-04-18T09:09:33.765Z</time></trkpt><trkpt lat="42.65487" lon="11.6166117"><ele>207.0</ele><time>2026-04-18T09:09:34.765Z</time></trkpt><trkpt lat="42.6547483" lon="11.61647"><ele>207.0</ele><time>2026-04-18T09:09:35.765Z</time></trkpt><trkpt lat="42.6546267" lon="11.6163267"><ele>207.0</ele><time>2026-04-18T09:09:36.765Z</time></trkpt><trkpt lat="42.6544917" lon="11.6161717"><ele>207.0</ele><time>2026-04-18T09:09:37.765Z</time></trkpt><trkpt lat="42.654355" lon="11.616"><ele>205.66666666666669</ele><time>2026-04-18T09:09:38.765Z</time></trkpt><trkpt lat="42.6542183" lon="11.615835"><ele>204.33333333333334</ele><time>2026-04-18T09:09:39.765Z</time></trkpt><trkpt lat="42.6540867" lon="11.6156683"><ele>203.0</ele><time>2026-04-18T09:09:40.765Z</time></trkpt><trkpt lat="42.65395" lon="11.615505"><ele>203.0</ele><time>2026-04-18T09:09:41.765Z</time></trkpt><trkpt lat="42.6538117" lon="11.61534"><ele>203.0</ele><time>2026-04-18T09:09:42.764Z</time></trkpt><trkpt lat="42.6536683" lon="11.615165"><ele>203.0</ele><time>2026-04-18T09:09:43.765Z</time></trkpt><trkpt lat="42.6535333" lon="11.6149933"><ele>203.66666666666669</ele><time>2026-04-18T09:09:44.765Z</time></trkpt><trkpt lat="42.6534" lon="11.6148267"><ele>204.33333333333331</ele><time>2026-04-18T09:09:45.765Z</time></trkpt><trkpt lat="42.65327" lon="11.6146717"><ele>205.0</ele><time>2026-04-18T09:09:46.765Z</time></trkpt><trkpt lat="42.6531417" lon="11.6145033"><ele>204.33333333333331</ele><time>2026-04-18T09:09:47.765Z</time></trkpt><trkpt lat="42.6530117" lon="11.6143333"><ele>203.66666666666669</ele><time>2026-04-18T09:09:48.765Z</time></trkpt><trkpt lat="42.6528767" lon="11.614165"><ele>203.0</ele><time>2026-04-18T09:09:49.765Z</time></trkpt><trkpt lat="42.6527567" lon="11.6139933"><ele>203.0</ele><time>2026-04-18T09:09:50.765Z</time></trkpt><trkpt lat="42.6526367" lon="11.613825"><ele>203.0</ele><time>2026-04-18T09:09:51.765Z</time></trkpt><trkpt lat="42.6525167" lon="11.6136483"><ele>203.0</ele><time>2026-04-18T09:09:52.765Z</time></trkpt><trkpt lat="42.6523933" lon="11.61346"><ele>203.66666666666669</ele><time>2026-04-18T09:09:53.765Z</time></trkpt><trkpt lat="42.65227" lon="11.6132783"><ele>204.33333333333331</ele><time>2026-04-18T09:09:54.765Z</time></trkpt><trkpt lat="42.6521417" lon="11.6130967"><ele>205.0</ele><time>2026-04-18T09:09:55.765Z</time></trkpt><trkpt lat="42.65201" lon="11.6129017"><ele>204.33333333333331</ele><time>2026-04-18T09:09:56.765Z</time></trkpt><trkpt lat="42.6518717" lon="11.6127083"><ele>203.66666666666669</ele><time>2026-04-18T09:09:57.765Z</time></trkpt><trkpt lat="42.6517417" lon="11.6125133"><ele>203.0</ele><time>2026-04-18T09:09:58.765Z</time></trkpt><trkpt lat="42.651605" lon="11.6123117"><ele>203.0</ele><time>2026-04-18T09:09:59.765Z</time></trkpt><trkpt lat="42.65147" lon="11.61212"><ele>203.0</ele><time>2026-04-18T09:10:00.765Z</time></trkpt><trkpt lat="42.65133" lon="11.6119167"><ele>203.0</ele><time>2026-04-18T09:10:01.765Z</time></trkpt><trkpt lat="42.6511967" lon="11.6117117"><ele>203.0</ele><time>2026-04-18T09:10:02.764Z</time></trkpt><trkpt lat="42.6510617" lon="11.6115067"><ele>203.0</ele><time>2026-04-18T09:10:03.765Z</time></trkpt><trkpt lat="42.65093" lon="11.611305"><ele>203.0</ele><time>2026-04-18T09:10:04.765Z</time></trkpt><trkpt lat="42.6507967" lon="11.61111"><ele>203.0</ele><time>2026-04-18T09:10:05.765Z</time></trkpt><trkpt lat="42.6506583" lon="11.6109167"><ele>203.0</ele><time>2026-04-18T09:10:06.764Z</time></trkpt><trkpt lat="42.6505267" lon="11.6107367"><ele>203.0</ele><time>2026-04-18T09:10:07.764Z</time></trkpt><trkpt lat="42.6503983" lon="11.610545"><ele>203.0</ele><time>2026-04-18T09:10:08.765Z</time></trkpt><trkpt lat="42.65026" lon="11.610355"><ele>203.0</ele><time>2026-04-18T09:10:09.765Z</time></trkpt><trkpt lat="42.6501317" lon="11.610165"><ele>203.0</ele><time>2026-04-18T09:10:10.765Z</time></trkpt><trkpt lat="42.6499983" lon="11.6099733"><ele>203.0</ele><time>2026-04-18T09:10:11.765Z</time></trkpt><trkpt lat="42.6498667" lon="11.6097883"><ele>203.0</ele><time>2026-04-18T09:10:12.765Z</time></trkpt><trkpt lat="42.64974" lon="11.6095983"><ele>203.0</ele><time>2026-04-18T09:10:13.764Z</time></trkpt><trkpt lat="42.6496167" lon="11.609405"><ele>202.33333333333334</ele><time>2026-04-18T09:10:14.765Z</time></trkpt><trkpt lat="42.6494967" lon="11.60922"><ele>201.66666666666669</ele><time>2026-04-18T09:10:15.765Z</time></trkpt><trkpt lat="42.6493833" lon="11.6090283"><ele>201.0</ele><time>2026-04-18T09:10:16.765Z</time></trkpt><trkpt lat="42.6492667" lon="11.6088367"><ele>202.66666666666669</ele><time>2026-04-18T09:10:17.765Z</time></trkpt><trkpt lat="42.6491533" lon="11.6086267"><ele>204.33333333333334</ele><time>2026-04-18T09:10:18.765Z</time></trkpt><trkpt lat="42.649045" lon="11.6084133"><ele>206.0</ele><time>2026-04-18T09:10:19.765Z</time></trkpt><trkpt lat="42.6489317" lon="11.608195"><ele>206.0</ele><time>2026-04-18T09:10:20.765Z</time></trkpt><trkpt lat="42.6488183" lon="11.60798"><ele>206.0</ele><time>2026-04-18T09:10:21.765Z</time></trkpt><trkpt lat="42.648695" lon="11.6077667"><ele>206.0</ele><time>2026-04-18T09:10:22.764Z</time></trkpt><trkpt lat="42.6485833" lon="11.60756"><ele>206.33333333333334</ele><time>2026-04-18T09:10:23.765Z</time></trkpt><trkpt lat="42.6484717" lon="11.6073467"><ele>206.66666666666669</ele><time>2026-04-18T09:10:24.765Z</time></trkpt><trkpt lat="42.64836" lon="11.6071367"><ele>207.0</ele><time>2026-04-18T09:10:25.765Z</time></trkpt><trkpt lat="42.6482483" lon="11.6069317"><ele>207.0</ele><time>2026-04-18T09:10:26.765Z</time></trkpt><trkpt lat="42.6481417" lon="11.60672"><ele>207.0</ele><time>2026-04-18T09:10:27.765Z</time></trkpt><trkpt lat="42.648025" lon="11.606515"><ele>207.0</ele><time>2026-04-18T09:10:28.765Z</time></trkpt><trkpt lat="42.6479067" lon="11.60631"><ele>204.0</ele><time>2026-04-18T09:10:29.765Z</time></trkpt><trkpt lat="42.64779" lon="11.60611"><ele>201.0</ele><time>2026-04-18T09:10:30.765Z</time></trkpt><trkpt lat="42.6476833" lon="11.6058983"><ele>198.0</ele><time>2026-04-18T09:10:31.764Z</time></trkpt><trkpt lat="42.647565" lon="11.60569"><ele>198.0</ele><time>2026-04-18T09:10:32.764Z</time></trkpt><trkpt lat="42.6474533" lon="11.60549"><ele>198.0</ele><time>2026-04-18T09:10:33.765Z</time></trkpt><trkpt lat="42.647345" lon="11.6052733"><ele>198.0</ele><time>2026-04-18T09:10:34.765Z</time></trkpt><trkpt lat="42.6472417" lon="11.605065"><ele>198.0</ele><time>2026-04-18T09:10:35.765Z</time></trkpt><trkpt lat="42.6471333" lon="11.6048633"><ele>198.0</ele><time>2026-04-18T09:10:36.765Z</time></trkpt><trkpt lat="42.647015" lon="11.604665"><ele>198.0</ele><time>2026-04-18T09:10:37.764Z</time></trkpt><trkpt lat="42.6469033" lon="11.6044667"><ele>198.0</ele><time>2026-04-18T09:10:38.765Z</time></trkpt><trkpt lat="42.6468033" lon="11.6042583"><ele>198.0</ele><time>2026-04-18T09:10:39.765Z</time></trkpt><trkpt lat="42.6466983" lon="11.6040667"><ele>198.0</ele><time>2026-04-18T09:10:40.765Z</time></trkpt><trkpt lat="42.646605" lon="11.60389"><ele>198.0</ele><time>2026-04-18T09:10:41.765Z</time></trkpt><trkpt lat="42.6465167" lon="11.60372"><ele>198.0</ele><time>2026-04-18T09:10:42.765Z</time></trkpt><trkpt lat="42.6464483" lon="11.60355"><ele>198.0</ele><time>2026-04-18T09:10:43.765Z</time></trkpt><trkpt lat="42.646405" lon="11.6033833"><ele>198.0</ele><time>2026-04-18T09:10:44.765Z</time></trkpt><trkpt lat="42.6463917" lon="11.6032183"><ele>198.75</ele><time>2026-04-18T09:10:45.765Z</time></trkpt><trkpt lat="42.6464033" lon="11.60306"><ele>199.5</ele><time>2026-04-18T09:10:46.765Z</time></trkpt><trkpt lat="42.6464433" lon="11.6028967"><ele>200.25</ele><time>2026-04-18T09:10:47.765Z</time></trkpt><trkpt lat="42.6465083" lon="11.6027483"><ele>201.0</ele><time>2026-04-18T09:10:48.765Z</time></trkpt><trkpt lat="42.6466017" lon="11.602625"><ele>201.75</ele><time>2026-04-18T09:10:49.765Z</time></trkpt><trkpt lat="42.6467083" lon="11.602545"><ele>202.5</ele><time>2026-04-18T09:10:50.764Z</time></trkpt><trkpt lat="42.6468367" lon="11.6024917"><ele>203.25</ele><time>2026-04-18T09:10:51.765Z</time></trkpt><trkpt lat="42.64698" lon="11.6024567"><ele>204.0</ele><time>2026-04-18T09:10:52.765Z</time></trkpt><trkpt lat="42.6471367" lon="11.6024217"><ele>205.33333333333331</ele><time>2026-04-18T09:10:53.765Z</time></trkpt><trkpt lat="42.6473033" lon="11.602385"><ele>206.66666666666666</ele><time>2026-04-18T09:10:54.764Z</time></trkpt><trkpt lat="42.6474667" lon="11.6023417"><ele>208.0</ele><time>2026-04-18T09:10:55.765Z</time></trkpt><trkpt lat="42.6476267" lon="11.6023117"><ele>208.0</ele><time>2026-04-18T09:10:56.765Z</time></trkpt><trkpt lat="42.647775" lon="11.6022767"><ele>208.0</ele><time>2026-04-18T09:10:57.764Z</time></trkpt><trkpt lat="42.6479267" lon="11.6022383"><ele>208.0</ele><time>2026-04-18T09:10:58.765Z</time></trkpt><trkpt lat="42.6480717" lon="11.6022067"><ele>208.33333333333331</ele><time>2026-04-18T09:10:59.765Z</time></trkpt><trkpt lat="42.6482183" lon="11.6021767"><ele>208.66666666666669</ele><time>2026-04-18T09:11:00.765Z</time></trkpt><trkpt lat="42.64837" lon="11.6021433"><ele>209.0</ele><time>2026-04-18T09:11:01.765Z</time></trkpt><trkpt lat="42.6485233" lon="11.6021033"><ele>210.66666666666669</ele><time>2026-04-18T09:11:02.765Z</time></trkpt><trkpt lat="42.6486783" lon="11.6020667"><ele>212.33333333333331</ele><time>2026-04-18T09:11:03.765Z</time></trkpt><trkpt lat="42.64883" lon="11.602035"><ele>214.0</ele><time>2026-04-18T09:11:04.765Z</time></trkpt><trkpt lat="42.6489767" lon="11.6020067"><ele>215.75</ele><time>2026-04-18T09:11:05.765Z</time></trkpt><trkpt lat="42.64911" lon="11.6019733"><ele>217.5</ele><time>2026-04-18T09:11:06.765Z</time></trkpt><trkpt lat="42.649235" lon="11.6019333"><ele>219.25</ele><time>2026-04-18T09:11:07.765Z</time></trkpt><trkpt lat="42.64936" lon="11.6019017"><ele>221.0</ele><time>2026-04-18T09:11:08.765Z</time></trkpt><trkpt lat="42.6494633" lon="11.6018367"><ele>221.0</ele><time>2026-04-18T09:11:09.765Z</time></trkpt><trkpt lat="42.64956" lon="11.60175"><ele>221.0</ele><time>2026-04-18T09:11:10.765Z</time></trkpt><trkpt lat="42.6496333" lon="11.60164"><ele>221.0</ele><time>2026-04-18T09:11:11.765Z</time></trkpt><trkpt lat="42.64969" lon="11.6015033"><ele>221.0</ele><time>2026-04-18T09:11:12.764Z</time></trkpt><trkpt lat="42.649725" lon="11.60133"><ele>222.75</ele><time>2026-04-18T09:11:13.765Z</time></trkpt><trkpt lat="42.6497483" lon="11.6011433"><ele>224.5</ele><time>2026-04-18T09:11:14.765Z</time></trkpt><trkpt lat="42.6497633" lon="11.6009433"><ele>226.25</ele><time>2026-04-18T09:11:15.765Z</time></trkpt><trkpt lat="42.6497867" lon="11.6007283"><ele>228.0</ele><time>2026-04-18T09:11:16.765Z</time></trkpt><trkpt lat="42.6498033" lon="11.6005183"><ele>229.5</ele><time>2026-04-18T09:11:17.765Z</time></trkpt><trkpt lat="42.64983" lon="11.600325"><ele>231.0</ele><time>2026-04-18T09:11:18.765Z</time></trkpt><trkpt lat="42.6498567" lon="11.6001217"><ele>232.5</ele><time>2026-04-18T09:11:19.765Z</time></trkpt><trkpt lat="42.6498733" lon="11.5999283"><ele>234.0</ele><time>2026-04-18T09:11:20.765Z</time></trkpt><trkpt lat="42.6498883" lon="11.5997467"><ele>234.0</ele><time>2026-04-18T09:11:21.765Z</time></trkpt><trkpt lat="42.6499083" lon="11.5995783"><ele>233.99999999999997</ele><time>2026-04-18T09:11:22.764Z</time></trkpt><trkpt lat="42.649935" lon="11.5994267"><ele>233.99999999999997</ele><time>2026-04-18T09:11:23.765Z</time></trkpt><trkpt lat="42.64999" lon="11.5993033"><ele>234.0</ele><time>2026-04-18T09:11:24.765Z</time></trkpt><trkpt lat="42.6500633" lon="11.5992233"><ele>234.0</ele><time>2026-04-18T09:11:25.765Z</time></trkpt><trkpt lat="42.6501567" lon="11.59917"><ele>235.0</ele><time>2026-04-18T09:11:26.764Z</time></trkpt><trkpt lat="42.6502717" lon="11.5991533"><ele>236.0</ele><time>2026-04-18T09:11:27.765Z</time></trkpt><trkpt lat="42.65039" lon="11.5991667"><ele>237.0</ele><time>2026-04-18T09:11:28.765Z</time></trkpt><trkpt lat="42.650515" lon="11.5991983"><ele>238.0</ele><time>2026-04-18T09:11:29.765Z</time></trkpt><trkpt lat="42.6506567" lon="11.5992433"><ele>239.5</ele><time>2026-04-18T09:11:30.765Z</time></trkpt><trkpt lat="42.650805" lon="11.5992883"><ele>241.0</ele><time>2026-04-18T09:11:31.765Z</time></trkpt><trkpt lat="42.6509517" lon="11.5993233"><ele>242.5</ele><time>2026-04-18T09:11:32.765Z</time></trkpt><trkpt lat="42.65109" lon="11.5993783"><ele>244.0</ele><time>2026-04-18T09:11:33.764Z</time></trkpt><trkpt lat="42.6512267" lon="11.5994467"><ele>245.0</ele><time>2026-04-18T09:11:34.765Z</time></trkpt><trkpt lat="42.6513717" lon="11.5995267"><ele>246.0</ele><time>2026-04-18T09:11:35.765Z</time></trkpt><trkpt lat="42.6515133" lon="11.5996083"><ele>247.0</ele><time>2026-04-18T09:11:36.765Z</time></trkpt><trkpt lat="42.65166" lon="11.5996917"><ele>247.0</ele><time>2026-04-18T09:11:37.765Z</time></trkpt><trkpt lat="42.6518083" lon="11.599775"><ele>247.0</ele><time>2026-04-18T09:11:38.765Z</time></trkpt><trkpt lat="42.6519517" lon="11.599855"><ele>247.0</ele><time>2026-04-18T09:11:39.765Z</time></trkpt><trkpt lat="42.6521033" lon="11.59994"><ele>249.0</ele><time>2026-04-18T09:11:40.765Z</time></trkpt><trkpt lat="42.6522533" lon="11.6000233"><ele>251.0</ele><time>2026-04-18T09:11:41.765Z</time></trkpt><trkpt lat="42.6523967" lon="11.600115"><ele>253.0</ele><time>2026-04-18T09:11:42.765Z</time></trkpt><trkpt lat="42.652535" lon="11.6002017"><ele>253.0</ele><time>2026-04-18T09:11:43.764Z</time></trkpt><trkpt lat="42.6526683" lon="11.6003083"><ele>253.0</ele><time>2026-04-18T09:11:44.764Z</time></trkpt><trkpt lat="42.6527967" lon="11.6004167"><ele>253.0</ele><time>2026-04-18T09:11:45.765Z</time></trkpt><trkpt lat="42.6529217" lon="11.6005283"><ele>255.0</ele><time>2026-04-18T09:11:46.765Z</time></trkpt><trkpt lat="42.65305" lon="11.6006333"><ele>257.0</ele><time>2026-04-18T09:11:47.764Z</time></trkpt><trkpt lat="42.653175" lon="11.6007433"><ele>259.0</ele><time>2026-04-18T09:11:48.765Z</time></trkpt><trkpt lat="42.6532983" lon="11.6008517"><ele>261.0</ele><time>2026-04-18T09:11:49.765Z</time></trkpt><trkpt lat="42.6534183" lon="11.6009517"><ele>261.0</ele><time>2026-04-18T09:11:50.765Z</time></trkpt><trkpt lat="42.653545" lon="11.6010517"><ele>261.0</ele><time>2026-04-18T09:11:51.765Z</time></trkpt><trkpt lat="42.6536633" lon="11.6011517"><ele>261.0</ele><time>2026-04-18T09:11:52.765Z</time></trkpt><trkpt lat="42.6537767" lon="11.6012583"><ele>261.0</ele><time>2026-04-18T09:11:53.765Z</time></trkpt><trkpt lat="42.65389" lon="11.6013567"><ele>264.25</ele><time>2026-04-18T09:11:54.765Z</time></trkpt><trkpt lat="42.6540067" lon="11.6014483"><ele>267.5</ele><time>2026-04-18T09:11:55.765Z</time></trkpt><trkpt lat="42.6541267" lon="11.6015233"><ele>270.75</ele><time>2026-04-18T09:11:56.765Z</time></trkpt><trkpt lat="42.654255" lon="11.6015733"><ele>274.0</ele><time>2026-04-18T09:11:57.765Z</time></trkpt><trkpt lat="42.65439" lon="11.6016267"><ele>276.0</ele><time>2026-04-18T09:11:58.764Z</time></trkpt><trkpt lat="42.654525" lon="11.60168"><ele>278.0</ele><time>2026-04-18T09:11:59.765Z</time></trkpt><trkpt lat="42.6546683" lon="11.6017467"><ele>280.0</ele><time>2026-04-18T09:12:00.765Z</time></trkpt><trkpt lat="42.65481" lon="11.6018"><ele>282.0</ele><time>2026-04-18T09:12:01.765Z</time></trkpt><trkpt lat="42.6549583" lon="11.6018683"><ele>282.0</ele><time>2026-04-18T09:12:02.765Z</time></trkpt><trkpt lat="42.655105" lon="11.6019367"><ele>282.0</ele><time>2026-04-18T09:12:03.765Z</time></trkpt><trkpt lat="42.655235" lon="11.60201"><ele>282.0</ele><time>2026-04-18T09:12:04.765Z</time></trkpt><trkpt lat="42.6553617" lon="11.6020817"><ele>282.0</ele><time>2026-04-18T09:12:05.764Z</time></trkpt><trkpt lat="42.65549" lon="11.6021217"><ele>283.75</ele><time>2026-04-18T09:12:06.764Z</time></trkpt><trkpt lat="42.6556167" lon="11.602135"><ele>285.5</ele><time>2026-04-18T09:12:07.764Z</time></trkpt><trkpt lat="42.6557483" lon="11.6021217"><ele>287.25</ele><time>2026-04-18T09:12:08.765Z</time></trkpt><trkpt lat="42.6558767" lon="11.602065"><ele>289.0</ele><time>2026-04-18T09:12:09.765Z</time></trkpt><trkpt lat="42.65602" lon="11.60201"><ele>292.66666666666663</ele><time>2026-04-18T09:12:10.765Z</time></trkpt><trkpt lat="42.6561733" lon="11.6019483"><ele>296.3333333333333</ele><time>2026-04-18T09:12:11.765Z</time></trkpt><trkpt lat="42.6563333" lon="11.6018783"><ele>300.0</ele><time>2026-04-18T09:12:12.765Z</time></trkpt><trkpt lat="42.6564883" lon="11.6018067"><ele>300.0</ele><time>2026-04-18T09:12:13.765Z</time></trkpt><trkpt lat="42.65663" lon="11.6017433"><ele>300.0</ele><time>2026-04-18T09:12:14.765Z</time></trkpt><trkpt lat="42.6567633" lon="11.601685"><ele>300.0</ele><time>2026-04-18T09:12:15.765Z</time></trkpt><trkpt lat="42.6568767" lon="11.60162"><ele>300.0</ele><time>2026-04-18T09:12:16.765Z</time></trkpt><trkpt lat="42.6569717" lon="11.6015283"><ele>299.0</ele><time>2026-04-18T09:12:17.765Z</time></trkpt><trkpt lat="42.6570433" lon="11.6014117"><ele>298.0</ele><time>2026-04-18T09:12:18.765Z</time></trkpt><trkpt lat="42.6571017" lon="11.6012717"><ele>297.0</ele><time>2026-04-18T09:12:19.765Z</time></trkpt><trkpt lat="42.657155" lon="11.601115"><ele>296.0</ele><time>2026-04-18T09:12:20.765Z</time></trkpt><trkpt lat="42.6572067" lon="11.60095"><ele>298.5</ele><time>2026-04-18T09:12:21.765Z</time></trkpt><trkpt lat="42.65726" lon="11.60078"><ele>301.0</ele><time>2026-04-18T09:12:22.765Z</time></trkpt><trkpt lat="42.657315" lon="11.6006267"><ele>303.5</ele><time>2026-04-18T09:12:23.764Z</time></trkpt><trkpt lat="42.65739" lon="11.6005"><ele>306.0</ele><time>2026-04-18T09:12:24.765Z</time></trkpt><trkpt lat="42.6574967" lon="11.6004067"><ele>306.0</ele><time>2026-04-18T09:12:25.765Z</time></trkpt><trkpt lat="42.6576117" lon="11.6003533"><ele>306.0</ele><time>2026-04-18T09:12:26.765Z</time></trkpt><trkpt lat="42.657725" lon="11.6003467"><ele>306.0</ele><time>2026-04-18T09:12:27.765Z</time></trkpt><trkpt lat="42.6578567" lon="11.60038"><ele>306.0</ele><time>2026-04-18T09:12:28.765Z</time></trkpt><trkpt lat="42.657975" lon="11.6004517"><ele>306.6666666666667</ele><time>2026-04-18T09:12:29.765Z</time></trkpt><trkpt lat="42.6581217" lon="11.6005567"><ele>307.33333333333337</ele><time>2026-04-18T09:12:30.765Z</time></trkpt><trkpt lat="42.658265" lon="11.6006917"><ele>308.0</ele><time>2026-04-18T09:12:31.765Z</time></trkpt><trkpt lat="42.658435" lon="11.600825"><ele>308.0</ele><time>2026-04-18T09:12:32.765Z</time></trkpt><trkpt lat="42.6586233" lon="11.6009583"><ele>308.0</ele><time>2026-04-18T09:12:33.764Z</time></trkpt><trkpt lat="42.6588017" lon="11.6010767"><ele>308.0</ele><time>2026-04-18T09:12:34.765Z</time></trkpt><trkpt lat="42.658965" lon="11.601205"><ele>309.33333333333337</ele><time>2026-04-18T09:12:35.765Z</time></trkpt><trkpt lat="42.6591283" lon="11.6013217"><ele>310.6666666666667</ele><time>2026-04-18T09:12:36.765Z</time></trkpt><trkpt lat="42.6592817" lon="11.60144"><ele>312.0</ele><time>2026-04-18T09:12:37.765Z</time></trkpt><trkpt lat="42.6594317" lon="11.6015483"><ele>313.6666666666667</ele><time>2026-04-18T09:12:38.765Z</time></trkpt><trkpt lat="42.6595733" lon="11.601655"><ele>315.33333333333337</ele><time>2026-04-18T09:12:39.765Z</time></trkpt><trkpt lat="42.6597117" lon="11.6017567"><ele>317.0</ele><time>2026-04-18T09:12:40.765Z</time></trkpt><trkpt lat="42.6598433" lon="11.6018567"><ele>317.0</ele><time>2026-04-18T09:12:41.765Z</time></trkpt><trkpt lat="42.6599617" lon="11.6019517"><ele>317.0</ele><time>2026-04-18T09:12:42.765Z</time></trkpt><trkpt lat="42.660085" lon="11.60204"><ele>317.0</ele><time>2026-04-18T09:12:43.765Z</time></trkpt><trkpt lat="42.6601967" lon="11.6021333"><ele>317.0</ele><time>2026-04-18T09:12:44.765Z</time></trkpt><trkpt lat="42.6603117" lon="11.602225"><ele>318.5</ele><time>2026-04-18T09:12:45.764Z</time></trkpt><trkpt lat="42.6604317" lon="11.60231"><ele>320.0</ele><time>2026-04-18T09:12:46.765Z</time></trkpt><trkpt lat="42.6605533" lon="11.6024033"><ele>321.5</ele><time>2026-04-18T09:12:47.765Z</time></trkpt><trkpt lat="42.66068" lon="11.6025"><ele>323.0</ele><time>2026-04-18T09:12:48.765Z</time></trkpt><trkpt lat="42.6607967" lon="11.6025967"><ele>323.0</ele><time>2026-04-18T09:12:49.764Z</time></trkpt><trkpt lat="42.6609183" lon="11.60269"><ele>323.0</ele><time>2026-04-18T09:12:50.765Z</time></trkpt><trkpt lat="42.6610483" lon="11.60276"><ele>323.0</ele><time>2026-04-18T09:12:51.765Z</time></trkpt><trkpt lat="42.6611867" lon="11.6028133"><ele>323.0</ele><time>2026-04-18T09:12:52.765Z</time></trkpt><trkpt lat="42.661325" lon="11.6028383"><ele>323.75</ele><time>2026-04-18T09:12:53.765Z</time></trkpt><trkpt lat="42.6614633" lon="11.6028283"><ele>324.5</ele><time>2026-04-18T09:12:54.765Z</time></trkpt><trkpt lat="42.6616" lon="11.6027967"><ele>325.25</ele><time>2026-04-18T09:12:55.765Z</time></trkpt><trkpt lat="42.6617317" lon="11.602745"><ele>326.0</ele><time>2026-04-18T09:12:56.765Z</time></trkpt><trkpt lat="42.66185" lon="11.6026683"><ele>327.6666666666667</ele><time>2026-04-18T09:12:57.765Z</time></trkpt><trkpt lat="42.66197" lon="11.6025667"><ele>329.3333333333333</ele><time>2026-04-18T09:12:58.765Z</time></trkpt><trkpt lat="42.662105" lon="11.60246"><ele>331.0</ele><time>2026-04-18T09:12:59.765Z</time></trkpt><trkpt lat="42.6622467" lon="11.6023433"><ele>331.0</ele><time>2026-04-18T09:13:00.765Z</time></trkpt><trkpt lat="42.662395" lon="11.60223"><ele>331.0</ele><time>2026-04-18T09:13:01.765Z</time></trkpt><trkpt lat="42.6625417" lon="11.6021117"><ele>331.0</ele><time>2026-04-18T09:13:02.765Z</time></trkpt><trkpt lat="42.6626917" lon="11.6019817"><ele>330.66666666666663</ele><time>2026-04-18T09:13:03.765Z</time></trkpt><trkpt lat="42.6628517" lon="11.601865"><ele>330.3333333333333</ele><time>2026-04-18T09:13:04.765Z</time></trkpt><trkpt lat="42.6630083" lon="11.6017533"><ele>330.0</ele><time>2026-04-18T09:13:05.765Z</time></trkpt><trkpt lat="42.663175" lon="11.6016617"><ele>330.0</ele><time>2026-04-18T09:13:06.765Z</time></trkpt><trkpt lat="42.6633417" lon="11.6016"><ele>330.0</ele><time>2026-04-18T09:13:07.765Z</time></trkpt><trkpt lat="42.6635083" lon="11.60155"><ele>330.0</ele><time>2026-04-18T09:13:08.765Z</time></trkpt><trkpt lat="42.6636783" lon="11.6015133"><ele>329.0</ele><time>2026-04-18T09:13:09.765Z</time></trkpt><trkpt lat="42.66385" lon="11.6014767"><ele>328.0</ele><time>2026-04-18T09:13:10.765Z</time></trkpt><trkpt lat="42.664025" lon="11.601445"><ele>327.0</ele><time>2026-04-18T09:13:11.764Z</time></trkpt><trkpt lat="42.6642" lon="11.6014017"><ele>327.0</ele><time>2026-04-18T09:13:12.765Z</time></trkpt><trkpt lat="42.6643667" lon="11.601365"><ele>327.0</ele><time>2026-04-18T09:13:13.765Z</time></trkpt><trkpt lat="42.6645233" lon="11.6013383"><ele>327.0</ele><time>2026-04-18T09:13:14.765Z</time></trkpt><trkpt lat="42.6646867" lon="11.601305"><ele>329.6666666666667</ele><time>2026-04-18T09:13:15.765Z</time></trkpt><trkpt lat="42.66484" lon="11.6012683"><ele>332.33333333333337</ele><time>2026-04-18T09:13:16.765Z</time></trkpt><trkpt lat="42.6649917" lon="11.6012317"><ele>335.0</ele><time>2026-04-18T09:13:17.765Z</time></trkpt><trkpt lat="42.6651517" lon="11.6011867"><ele>338.33333333333337</ele><time>2026-04-18T09:13:18.765Z</time></trkpt><trkpt lat="42.665295" lon="11.6011283"><ele>341.6666666666667</ele><time>2026-04-18T09:13:19.765Z</time></trkpt><trkpt lat="42.6654383" lon="11.601045"><ele>345.0</ele><time>2026-04-18T09:13:20.765Z</time></trkpt><trkpt lat="42.6655783" lon="11.6009367"><ele>345.0</ele><time>2026-04-18T09:13:21.765Z</time></trkpt><trkpt lat="42.66571" lon="11.600815"><ele>345.0</ele><time>2026-04-18T09:13:22.765Z</time></trkpt><trkpt lat="42.6658517" lon="11.6006817"><ele>345.0</ele><time>2026-04-18T09:13:23.765Z</time></trkpt><trkpt lat="42.665995" lon="11.6005533"><ele>346.0</ele><time>2026-04-18T09:13:24.765Z</time></trkpt><trkpt lat="42.66614" lon="11.6004267"><ele>347.0</ele><time>2026-04-18T09:13:25.764Z</time></trkpt><trkpt lat="42.6662883" lon="11.6002967"><ele>348.0</ele><time>2026-04-18T09:13:26.764Z</time></trkpt><trkpt lat="42.66644" lon="11.6001633"><ele>350.0</ele><time>2026-04-18T09:13:27.764Z</time></trkpt><trkpt lat="42.6665917" lon="11.600035"><ele>352.0</ele><time>2026-04-18T09:13:28.764Z</time></trkpt><trkpt lat="42.666745" lon="11.5999033"><ele>354.0</ele><time>2026-04-18T09:13:29.764Z</time></trkpt><trkpt lat="42.66689" lon="11.599775"><ele>356.0</ele><time>2026-04-18T09:13:30.764Z</time></trkpt><trkpt lat="42.6670283" lon="11.5996533"><ele>358.0</ele><time>2026-04-18T09:13:31.764Z</time></trkpt><trkpt lat="42.66715" lon="11.59954"><ele>360.0</ele><time>2026-04-18T09:13:32.764Z</time></trkpt><trkpt lat="42.6672683" lon="11.599435"><ele>360.25</ele><time>2026-04-18T09:13:33.763Z</time></trkpt><trkpt lat="42.667385" lon="11.59934"><ele>360.5</ele><time>2026-04-18T09:13:34.764Z</time></trkpt><trkpt lat="42.6674967" lon="11.5992467"><ele>360.75</ele><time>2026-04-18T09:13:35.764Z</time></trkpt><trkpt lat="42.6675933" lon="11.5991567"><ele>361.0</ele><time>2026-04-18T09:13:36.764Z</time></trkpt><trkpt lat="42.6676917" lon="11.5990867"><ele>362.8</ele><time>2026-04-18T09:13:37.764Z</time></trkpt><trkpt lat="42.6677867" lon="11.59904"><ele>364.6</ele><time>2026-04-18T09:13:38.763Z</time></trkpt><trkpt lat="42.66788" lon="11.5990317"><ele>366.4</ele><time>2026-04-18T09:13:39.764Z</time></trkpt><trkpt lat="42.6679767" lon="11.59904"><ele>368.2</ele><time>2026-04-18T09:13:40.764Z</time></trkpt><trkpt lat="42.66808" lon="11.599065"><ele>370.0</ele><time>2026-04-18T09:13:41.764Z</time></trkpt><trkpt lat="42.6681933" lon="11.59911"><ele>370.0</ele><time>2026-04-18T09:13:42.763Z</time></trkpt><trkpt lat="42.668305" lon="11.5991517"><ele>370.0</ele><time>2026-04-18T09:13:43.764Z</time></trkpt><trkpt lat="42.668415" lon="11.5991883"><ele>370.0</ele><time>2026-04-18T09:13:44.764Z</time></trkpt><trkpt lat="42.668525" lon="11.5992133"><ele>370.0</ele><time>2026-04-18T09:13:45.764Z</time></trkpt><trkpt lat="42.6686267" lon="11.599235"><ele>370.0</ele><time>2026-04-18T09:13:46.764Z</time></trkpt><trkpt lat="42.6687233" lon="11.59922"><ele>370.6</ele><time>2026-04-18T09:13:47.764Z</time></trkpt><trkpt lat="42.6688167" lon="11.5991783"><ele>371.2</ele><time>2026-04-18T09:13:48.764Z</time></trkpt><trkpt lat="42.6688983" lon="11.5991083"><ele>371.79999999999995</ele><time>2026-04-18T09:13:49.764Z</time></trkpt><trkpt lat="42.668965" lon="11.5990133"><ele>372.4</ele><time>2026-04-18T09:13:50.764Z</time></trkpt><trkpt lat="42.6690283" lon="11.59889"><ele>373.0</ele><time>2026-04-18T09:13:51.764Z</time></trkpt><trkpt lat="42.66907" lon="11.598755"><ele>375.5</ele><time>2026-04-18T09:13:52.764Z</time></trkpt><trkpt lat="42.66909" lon="11.598615"><ele>378.0</ele><time>2026-04-18T09:13:53.764Z</time></trkpt><trkpt lat="42.6690867" lon="11.5984617"><ele>380.5</ele><time>2026-04-18T09:13:54.764Z</time></trkpt><trkpt lat="42.6690517" lon="11.5983167"><ele>383.0</ele><time>2026-04-18T09:13:55.764Z</time></trkpt><trkpt lat="42.6689967" lon="11.59817"><ele>383.0</ele><time>2026-04-18T09:13:56.764Z</time></trkpt><trkpt lat="42.6689183" lon="11.598045"><ele>383.0</ele><time>2026-04-18T09:13:57.764Z</time></trkpt><trkpt lat="42.6688383" lon="11.5979083"><ele>383.0</ele><time>2026-04-18T09:13:58.764Z</time></trkpt><trkpt lat="42.6687583" lon="11.59777"><ele>383.0</ele><time>2026-04-18T09:13:59.764Z</time></trkpt><trkpt lat="42.66868" lon="11.5976417"><ele>383.2</ele><time>2026-04-18T09:14:00.764Z</time></trkpt><trkpt lat="42.6686217" lon="11.5975233"><ele>383.4</ele><time>2026-04-18T09:14:01.763Z</time></trkpt><trkpt lat="42.6685867" lon="11.59738"><ele>383.59999999999997</ele><time>2026-04-18T09:14:02.764Z</time></trkpt><trkpt lat="42.6685667" lon="11.5972383"><ele>383.79999999999995</ele><time>2026-04-18T09:14:03.764Z</time></trkpt><trkpt lat="42.6685683" lon="11.5970983"><ele>384.0</ele><time>2026-04-18T09:14:04.764Z</time></trkpt><trkpt lat="42.6685967" lon="11.5969767"><ele>386.1666666666667</ele><time>2026-04-18T09:14:05.764Z</time></trkpt><trkpt lat="42.6686483" lon="11.5968783"><ele>388.33333333333337</ele><time>2026-04-18T09:14:06.764Z</time></trkpt><trkpt lat="42.6687167" lon="11.5968"><ele>390.5</ele><time>2026-04-18T09:14:07.764Z</time></trkpt><trkpt lat="42.6687883" lon="11.59676"><ele>392.6666666666667</ele><time>2026-04-18T09:14:08.764Z</time></trkpt><trkpt lat="42.6688683" lon="11.5967333"><ele>394.83333333333337</ele><time>2026-04-18T09:14:09.764Z</time></trkpt><trkpt lat="42.6689467" lon="11.5967233"><ele>397.0</ele><time>2026-04-18T09:14:10.764Z</time></trkpt><trkpt lat="42.66903" lon="11.5967483"><ele>397.0</ele><time>2026-04-18T09:14:11.764Z</time></trkpt><trkpt lat="42.66911" lon="11.5968"><ele>397.0</ele><time>2026-04-18T09:14:12.764Z</time></trkpt><trkpt lat="42.6692033" lon="11.59687"><ele>397.0</ele><time>2026-04-18T09:14:13.764Z</time></trkpt><trkpt lat="42.6693" lon="11.5969733"><ele>397.0</ele><time>2026-04-18T09:14:14.764Z</time></trkpt><trkpt lat="42.6694133" lon="11.5970733"><ele>399.25</ele><time>2026-04-18T09:14:15.763Z</time></trkpt><trkpt lat="42.6695217" lon="11.5971817"><ele>401.5</ele><time>2026-04-18T09:14:16.764Z</time></trkpt><trkpt lat="42.669625" lon="11.59729"><ele>403.75</ele><time>2026-04-18T09:14:17.764Z</time></trkpt><trkpt lat="42.6697267" lon="11.5973917"><ele>406.0</ele><time>2026-04-18T09:14:18.764Z</time></trkpt><trkpt lat="42.6698267" lon="11.5974767"><ele>406.0</ele><time>2026-04-18T09:14:19.764Z</time></trkpt><trkpt lat="42.669925" lon="11.5975567"><ele>406.0</ele><time>2026-04-18T09:14:20.764Z</time></trkpt><trkpt lat="42.6700167" lon="11.5976217"><ele>406.0</ele><time>2026-04-18T09:14:21.764Z</time></trkpt><trkpt lat="42.670115" lon="11.597665"><ele>406.0</ele><time>2026-04-18T09:14:22.764Z</time></trkpt><trkpt lat="42.6702267" lon="11.5976933"><ele>406.0</ele><time>2026-04-18T09:14:23.764Z</time></trkpt><trkpt lat="42.6703617" lon="11.5977033"><ele>405.75</ele><time>2026-04-18T09:14:24.764Z</time></trkpt><trkpt lat="42.6705033" lon="11.59772"><ele>405.5</ele><time>2026-04-18T09:14:25.764Z</time></trkpt><trkpt lat="42.670625" lon="11.597755"><ele>405.25</ele><time>2026-04-18T09:14:26.764Z</time></trkpt><trkpt lat="42.6707517" lon="11.5978017"><ele>405.0</ele><time>2026-04-18T09:14:27.764Z</time></trkpt><trkpt lat="42.67089" lon="11.5978683"><ele>405.0</ele><time>2026-04-18T09:14:28.764Z</time></trkpt><trkpt lat="42.6710333" lon="11.5979467"><ele>405.0</ele><time>2026-04-18T09:14:29.763Z</time></trkpt><trkpt lat="42.6711767" lon="11.5980283"><ele>405.0</ele><time>2026-04-18T09:14:30.764Z</time></trkpt><trkpt lat="42.67132" lon="11.598115"><ele>407.0</ele><time>2026-04-18T09:14:31.764Z</time></trkpt><trkpt lat="42.6714617" lon="11.59819"><ele>409.0</ele><time>2026-04-18T09:14:32.763Z</time></trkpt><trkpt lat="42.671595" lon="11.598275"><ele>411.0</ele><time>2026-04-18T09:14:33.764Z</time></trkpt><trkpt lat="42.6717133" lon="11.598355"><ele>413.0</ele><time>2026-04-18T09:14:34.764Z</time></trkpt><trkpt lat="42.6718317" lon="11.5984283"><ele>413.0</ele><time>2026-04-18T09:14:35.764Z</time></trkpt><trkpt lat="42.67193" lon="11.59851"><ele>413.0</ele><time>2026-04-18T09:14:36.764Z</time></trkpt><trkpt lat="42.672" lon="11.5986183"><ele>413.0</ele><time>2026-04-18T09:14:37.764Z</time></trkpt><trkpt lat="42.67206" lon="11.5987283"><ele>413.0</ele><time>2026-04-18T09:14:38.764Z</time></trkpt><trkpt lat="42.672105" lon="11.59887"><ele>413.0</ele><time>2026-04-18T09:14:39.764Z</time></trkpt><trkpt lat="42.672145" lon="11.5990367"><ele>414.75</ele><time>2026-04-18T09:14:40.764Z</time></trkpt><trkpt lat="42.6721833" lon="11.599205"><ele>416.5</ele><time>2026-04-18T09:14:41.764Z</time></trkpt><trkpt lat="42.672225" lon="11.5993717"><ele>418.25</ele><time>2026-04-18T09:14:42.763Z</time></trkpt><trkpt lat="42.67227" lon="11.59954"><ele>420.0</ele><time>2026-04-18T09:14:43.764Z</time></trkpt><trkpt lat="42.67231" lon="11.5997083"><ele>420.0</ele><time>2026-04-18T09:14:44.764Z</time></trkpt><trkpt lat="42.672365" lon="11.599855"><ele>420.0</ele><time>2026-04-18T09:14:45.764Z</time></trkpt><trkpt lat="42.6724333" lon="11.599985"><ele>420.0</ele><time>2026-04-18T09:14:46.764Z</time></trkpt><trkpt lat="42.6725117" lon="11.6000883"><ele>420.0</ele><time>2026-04-18T09:14:47.764Z</time></trkpt><trkpt lat="42.6726117" lon="11.6001617"><ele>420.0</ele><time>2026-04-18T09:14:48.764Z</time></trkpt><trkpt lat="42.67273" lon="11.6002033"><ele>420.0</ele><time>2026-04-18T09:14:49.764Z</time></trkpt><trkpt lat="42.6728567" lon="11.60022"><ele>420.0</ele><time>2026-04-18T09:14:50.764Z</time></trkpt><trkpt lat="42.6729883" lon="11.6001967"><ele>420.0</ele><time>2026-04-18T09:14:51.764Z</time></trkpt><trkpt lat="42.67311" lon="11.6001533"><ele>421.5</ele><time>2026-04-18T09:14:52.764Z</time></trkpt><trkpt lat="42.67322" lon="11.600075"><ele>423.0</ele><time>2026-04-18T09:14:53.764Z</time></trkpt><trkpt lat="42.6733167" lon="11.5999767"><ele>424.5</ele><time>2026-04-18T09:14:54.764Z</time></trkpt><trkpt lat="42.6733967" lon="11.599875"><ele>426.0</ele><time>2026-04-18T09:14:55.764Z</time></trkpt><trkpt lat="42.6734533" lon="11.5997583"><ele>426.0</ele><time>2026-04-18T09:14:56.764Z</time></trkpt><trkpt lat="42.67349" lon="11.5996233"><ele>426.0</ele><time>2026-04-18T09:14:57.763Z</time></trkpt><trkpt lat="42.6735117" lon="11.5994817"><ele>426.0</ele><time>2026-04-18T09:14:58.764Z</time></trkpt><trkpt lat="42.6735133" lon="11.5993383"><ele>426.0</ele><time>2026-04-18T09:14:59.764Z</time></trkpt><trkpt lat="42.6734917" lon="11.5991833"><ele>426.0</ele><time>2026-04-18T09:15:00.764Z</time></trkpt><trkpt lat="42.67345" lon="11.5990283"><ele>427.0</ele><time>2026-04-18T09:15:01.764Z</time></trkpt><trkpt lat="42.6733783" lon="11.598875"><ele>428.0</ele><time>2026-04-18T09:15:02.764Z</time></trkpt><trkpt lat="42.67329" lon="11.5987483"><ele>429.0</ele><time>2026-04-18T09:15:03.764Z</time></trkpt><trkpt lat="42.6732017" lon="11.5986267"><ele>430.0</ele><time>2026-04-18T09:15:04.764Z</time></trkpt><trkpt lat="42.6731033" lon="11.5985117"><ele>429.75</ele><time>2026-04-18T09:15:05.764Z</time></trkpt><trkpt lat="42.673005" lon="11.5983933"><ele>429.5</ele><time>2026-04-18T09:15:06.764Z</time></trkpt><trkpt lat="42.6729067" lon="11.5982767"><ele>429.25</ele><time>2026-04-18T09:15:07.764Z</time></trkpt><trkpt lat="42.6728133" lon="11.5981617"><ele>429.0</ele><time>2026-04-18T09:15:08.764Z</time></trkpt><trkpt lat="42.672715" lon="11.5980383"><ele>429.0</ele><time>2026-04-18T09:15:09.763Z</time></trkpt><trkpt lat="42.6726217" lon="11.5979067"><ele>429.0</ele><time>2026-04-18T09:15:10.764Z</time></trkpt><trkpt lat="42.6725217" lon="11.59777"><ele>429.0</ele><time>2026-04-18T09:15:11.764Z</time></trkpt><trkpt lat="42.6724217" lon="11.5976383"><ele>429.0</ele><time>2026-04-18T09:15:12.764Z</time></trkpt><trkpt lat="42.67232" lon="11.5975017"><ele>431.25</ele><time>2026-04-18T09:15:13.764Z</time></trkpt><trkpt lat="42.6722083" lon="11.59737"><ele>433.5</ele><time>2026-04-18T09:15:14.764Z</time></trkpt><trkpt lat="42.6721067" lon="11.5972333"><ele>435.75</ele><time>2026-04-18T09:15:15.764Z</time></trkpt><trkpt lat="42.6720133" lon="11.5970983"><ele>438.0</ele><time>2026-04-18T09:15:16.764Z</time></trkpt><trkpt lat="42.671925" lon="11.5969583"><ele>438.75</ele><time>2026-04-18T09:15:17.764Z</time></trkpt><trkpt lat="42.6718417" lon="11.5968183"><ele>439.5</ele><time>2026-04-18T09:15:18.764Z</time></trkpt><trkpt lat="42.6717617" lon="11.5966733"><ele>440.25</ele><time>2026-04-18T09:15:19.763Z</time></trkpt><trkpt lat="42.6716883" lon="11.59653"><ele>441.0</ele><time>2026-04-18T09:15:20.764Z</time></trkpt><trkpt lat="42.6716233" lon="11.5963883"><ele>441.0</ele><time>2026-04-18T09:15:21.764Z</time></trkpt><trkpt lat="42.671565" lon="11.596265"><ele>441.0</ele><time>2026-04-18T09:15:22.764Z</time></trkpt><trkpt lat="42.6715017" lon="11.59616"><ele>441.0</ele><time>2026-04-18T09:15:23.764Z</time></trkpt><trkpt lat="42.671465" lon="11.59603"><ele>441.0</ele><time>2026-04-18T09:15:24.764Z</time></trkpt><trkpt lat="42.671425" lon="11.5959267"><ele>441.0</ele><time>2026-04-18T09:15:25.764Z</time></trkpt><trkpt lat="42.6714117" lon="11.59583"><ele>441.2857142857143</ele><time>2026-04-18T09:15:26.764Z</time></trkpt><trkpt lat="42.6714" lon="11.5957383"><ele>441.57142857142856</ele><time>2026-04-18T09:15:27.764Z</time></trkpt><trkpt lat="42.6714117" lon="11.5956483"><ele>441.8571428571429</ele><time>2026-04-18T09:15:28.764Z</time></trkpt><trkpt lat="42.671455" lon="11.5955433"><ele>442.1428571428571</ele><time>2026-04-18T09:15:30.764Z</time></trkpt><trkpt lat="42.6715083" lon="11.5954817"><ele>442.42857142857144</ele><time>2026-04-18T09:15:32.764Z</time></trkpt><trkpt lat="42.6715267" lon="11.5953933"><ele>442.7142857142857</ele><time>2026-04-18T09:15:35.764Z</time></trkpt><trkpt lat="42.671475" lon="11.5953017"><ele>443.0</ele><time>2026-04-18T09:15:38.764Z</time></trkpt><trkpt lat="42.6714833" lon="11.595425"><ele>443.79999999999995</ele><time>2026-04-18T09:21:00.764Z</time></trkpt><trkpt lat="42.6714183" lon="11.5955283"><ele>444.59999999999997</ele><time>2026-04-18T09:21:03.764Z</time></trkpt><trkpt lat="42.6713583" lon="11.59564"><ele>445.40000000000003</ele><time>2026-04-18T09:21:05.764Z</time></trkpt><trkpt lat="42.6713267" lon="11.5958"><ele>446.20000000000005</ele><time>2026-04-18T09:21:07.764Z</time></trkpt><trkpt lat="42.6713483" lon="11.59589"><ele>447.0</ele><time>2026-04-18T09:21:08.764Z</time></trkpt><trkpt lat="42.6713867" lon="11.5959833"><ele>447.0</ele><time>2026-04-18T09:21:09.764Z</time></trkpt><trkpt lat="42.6714317" lon="11.59608"><ele>447.0</ele><time>2026-04-18T09:21:10.764Z</time></trkpt><trkpt lat="42.6714817" lon="11.5961783"><ele>447.0</ele><time>2026-04-18T09:21:11.764Z</time></trkpt><trkpt lat="42.671535" lon="11.596265"><ele>447.0</ele><time>2026-04-18T09:21:12.764Z</time></trkpt><trkpt lat="42.6715767" lon="11.59635"><ele>447.0</ele><time>2026-04-18T09:21:13.763Z</time></trkpt><trkpt lat="42.6716217" lon="11.5964283"><ele>447.0</ele><time>2026-04-18T09:21:14.764Z</time></trkpt><trkpt lat="42.6716617" lon="11.5965133"><ele>446.0</ele><time>2026-04-18T09:21:15.763Z</time></trkpt><trkpt lat="42.67171" lon="11.596585"><ele>445.0</ele><time>2026-04-18T09:21:16.764Z</time></trkpt><trkpt lat="42.67176" lon="11.5966667"><ele>444.0</ele><time>2026-04-18T09:21:17.763Z</time></trkpt><trkpt lat="42.6718133" lon="11.5967533"><ele>443.0</ele><time>2026-04-18T09:21:18.764Z</time></trkpt><trkpt lat="42.671865" lon="11.5968483"><ele>442.0</ele><time>2026-04-18T09:21:19.764Z</time></trkpt><trkpt lat="42.6719217" lon="11.596945"><ele>441.0</ele><time>2026-04-18T09:21:20.764Z</time></trkpt><trkpt lat="42.6719867" lon="11.5970517"><ele>440.25</ele><time>2026-04-18T09:21:21.764Z</time></trkpt><trkpt lat="42.6720583" lon="11.597165"><ele>439.5</ele><time>2026-04-18T09:21:22.764Z</time></trkpt><trkpt lat="42.6721417" lon="11.59728"><ele>438.75</ele><time>2026-04-18T09:21:23.764Z</time></trkpt><trkpt lat="42.6722217" lon="11.5974017"><ele>438.0</ele><time>2026-04-18T09:21:24.764Z</time></trkpt><trkpt lat="42.6723117" lon="11.5975183"><ele>438.0</ele><time>2026-04-18T09:21:25.764Z</time></trkpt><trkpt lat="42.6724033" lon="11.5976433"><ele>438.0</ele><time>2026-04-18T09:21:26.764Z</time></trkpt><trkpt lat="42.6724967" lon="11.5977717"><ele>438.0</ele><time>2026-04-18T09:21:27.764Z</time></trkpt><trkpt lat="42.6725867" lon="11.597895"><ele>438.0</ele><time>2026-04-18T09:21:28.764Z</time></trkpt><trkpt lat="42.6726833" lon="11.5980183"><ele>436.75</ele><time>2026-04-18T09:21:29.764Z</time></trkpt><trkpt lat="42.6727783" lon="11.5981367"><ele>435.5</ele><time>2026-04-18T09:21:30.764Z</time></trkpt><trkpt lat="42.6728667" lon="11.5982533"><ele>434.25</ele><time>2026-04-18T09:21:31.764Z</time></trkpt><trkpt lat="42.6729533" lon="11.5983633"><ele>433.0</ele><time>2026-04-18T09:21:32.764Z</time></trkpt><trkpt lat="42.67303" lon="11.59847"><ele>433.0</ele><time>2026-04-18T09:21:33.764Z</time></trkpt><trkpt lat="42.6731067" lon="11.5985667"><ele>432.99999999999994</ele><time>2026-04-18T09:21:34.764Z</time></trkpt><trkpt lat="42.6731817" lon="11.59866"><ele>432.99999999999994</ele><time>2026-04-18T09:21:35.763Z</time></trkpt><trkpt lat="42.6732533" lon="11.5987517"><ele>433.0</ele><time>2026-04-18T09:21:36.764Z</time></trkpt><trkpt lat="42.673315" lon="11.5988567"><ele>433.0</ele><time>2026-04-18T09:21:37.764Z</time></trkpt><trkpt lat="42.6733717" lon="11.5989667"><ele>432.4</ele><time>2026-04-18T09:21:38.764Z</time></trkpt><trkpt lat="42.6734217" lon="11.5990867"><ele>431.79999999999995</ele><time>2026-04-18T09:21:39.764Z</time></trkpt><trkpt lat="42.6734583" lon="11.5992183"><ele>431.2</ele><time>2026-04-18T09:21:40.764Z</time></trkpt><trkpt lat="42.673475" lon="11.5993633"><ele>430.6</ele><time>2026-04-18T09:21:41.764Z</time></trkpt><trkpt lat="42.6734733" lon="11.5995217"><ele>430.0</ele><time>2026-04-18T09:21:42.764Z</time></trkpt><trkpt lat="42.6734483" lon="11.59968"><ele>429.2</ele><time>2026-04-18T09:21:43.764Z</time></trkpt><trkpt lat="42.6734017" lon="11.59981"><ele>428.4</ele><time>2026-04-18T09:21:44.764Z</time></trkpt><trkpt lat="42.673345" lon="11.59992"><ele>427.6</ele><time>2026-04-18T09:21:45.764Z</time></trkpt><trkpt lat="42.6732733" lon="11.6000083"><ele>426.8</ele><time>2026-04-18T09:21:46.764Z</time></trkpt><trkpt lat="42.6731917" lon="11.6000833"><ele>426.0</ele><time>2026-04-18T09:21:47.764Z</time></trkpt><trkpt lat="42.6730933" lon="11.60014"><ele>426.0</ele><time>2026-04-18T09:21:48.764Z</time></trkpt><trkpt lat="42.672985" lon="11.6001733"><ele>426.0</ele><time>2026-04-18T09:21:49.764Z</time></trkpt><trkpt lat="42.6728683" lon="11.6001733"><ele>426.0</ele><time>2026-04-18T09:21:50.763Z</time></trkpt><trkpt lat="42.6727417" lon="11.6001517"><ele>426.0</ele><time>2026-04-18T09:21:51.764Z</time></trkpt><trkpt lat="42.6726317" lon="11.6001067"><ele>424.5</ele><time>2026-04-18T09:21:52.764Z</time></trkpt><trkpt lat="42.672535" lon="11.6000283"><ele>423.0</ele><time>2026-04-18T09:21:53.764Z</time></trkpt><trkpt lat="42.6724533" lon="11.59993"><ele>421.5</ele><time>2026-04-18T09:21:54.764Z</time></trkpt><trkpt lat="42.6723817" lon="11.5997917"><ele>420.0</ele><time>2026-04-18T09:21:55.764Z</time></trkpt><trkpt lat="42.672325" lon="11.59964"><ele>421.25</ele><time>2026-04-18T09:21:56.764Z</time></trkpt><trkpt lat="42.6722817" lon="11.599475"><ele>422.5</ele><time>2026-04-18T09:21:57.764Z</time></trkpt><trkpt lat="42.6722367" lon="11.59929"><ele>423.75</ele><time>2026-04-18T09:21:58.764Z</time></trkpt><trkpt lat="42.6721833" lon="11.5991017"><ele>425.0</ele><time>2026-04-18T09:21:59.764Z</time></trkpt><trkpt lat="42.6721367" lon="11.5989283"><ele>425.0</ele><time>2026-04-18T09:22:00.764Z</time></trkpt><trkpt lat="42.67209" lon="11.59877"><ele>425.0</ele><time>2026-04-18T09:22:01.764Z</time></trkpt><trkpt lat="42.6720367" lon="11.5986333"><ele>425.0</ele><time>2026-04-18T09:22:02.764Z</time></trkpt><trkpt lat="42.671965" lon="11.59851"><ele>425.0</ele><time>2026-04-18T09:22:03.764Z</time></trkpt><trkpt lat="42.67188" lon="11.5984033"><ele>422.0</ele><time>2026-04-18T09:22:04.764Z</time></trkpt><trkpt lat="42.671775" lon="11.5983183"><ele>419.0</ele><time>2026-04-18T09:22:05.764Z</time></trkpt><trkpt lat="42.6716467" lon="11.598245"><ele>416.0</ele><time>2026-04-18T09:22:06.764Z</time></trkpt><trkpt lat="42.671515" lon="11.59817"><ele>413.0</ele><time>2026-04-18T09:22:07.764Z</time></trkpt><trkpt lat="42.6713767" lon="11.5980917"><ele>413.0</ele><time>2026-04-18T09:22:08.764Z</time></trkpt><trkpt lat="42.67124" lon="11.598025"><ele>413.0</ele><time>2026-04-18T09:22:09.764Z</time></trkpt><trkpt lat="42.6711083" lon="11.5979517"><ele>413.0</ele><time>2026-04-18T09:22:10.764Z</time></trkpt><trkpt lat="42.6709783" lon="11.59787"><ele>413.0</ele><time>2026-04-18T09:22:11.764Z</time></trkpt><trkpt lat="42.670845" lon="11.5977967"><ele>414.5</ele><time>2026-04-18T09:22:12.764Z</time></trkpt><trkpt lat="42.6707117" lon="11.5977383"><ele>416.0</ele><time>2026-04-18T09:22:13.764Z</time></trkpt><trkpt lat="42.670585" lon="11.5976967"><ele>417.5</ele><time>2026-04-18T09:22:14.763Z</time></trkpt><trkpt lat="42.6704617" lon="11.597665"><ele>419.0</ele><time>2026-04-18T09:22:15.763Z</time></trkpt><trkpt lat="42.67033" lon="11.5976533"><ele>415.75</ele><time>2026-04-18T09:22:16.764Z</time></trkpt><trkpt lat="42.6702117" lon="11.597635"><ele>412.5</ele><time>2026-04-18T09:22:17.764Z</time></trkpt><trkpt lat="42.6700933" lon="11.5976083"><ele>409.25</ele><time>2026-04-18T09:22:18.764Z</time></trkpt><trkpt lat="42.6699833" lon="11.5975567"><ele>406.0</ele><time>2026-04-18T09:22:19.764Z</time></trkpt><trkpt lat="42.6698783" lon="11.597485"><ele>406.0</ele><time>2026-04-18T09:22:20.764Z</time></trkpt><trkpt lat="42.6697717" lon="11.5973983"><ele>406.0</ele><time>2026-04-18T09:22:21.764Z</time></trkpt><trkpt lat="42.6696633" lon="11.597295"><ele>406.0</ele><time>2026-04-18T09:22:22.764Z</time></trkpt><trkpt lat="42.66955" lon="11.5971933"><ele>406.0</ele><time>2026-04-18T09:22:23.764Z</time></trkpt><trkpt lat="42.66944" lon="11.5970933"><ele>404.20000000000005</ele><time>2026-04-18T09:22:24.764Z</time></trkpt><trkpt lat="42.6693417" lon="11.597"><ele>402.40000000000003</ele><time>2026-04-18T09:22:25.764Z</time></trkpt><trkpt lat="42.6692467" lon="11.596915"><ele>400.6</ele><time>2026-04-18T09:22:26.764Z</time></trkpt><trkpt lat="42.6691517" lon="11.5968433"><ele>398.8</ele><time>2026-04-18T09:22:27.764Z</time></trkpt><trkpt lat="42.6690633" lon="11.5967733"><ele>397.0</ele><time>2026-04-18T09:22:28.764Z</time></trkpt><trkpt lat="42.6689817" lon="11.5967233"><ele>397.00000000000006</ele><time>2026-04-18T09:22:29.763Z</time></trkpt><trkpt lat="42.6689017" lon="11.59671"><ele>397.0</ele><time>2026-04-18T09:22:30.764Z</time></trkpt><trkpt lat="42.6688217" lon="11.5967183"><ele>397.0</ele><time>2026-04-18T09:22:31.764Z</time></trkpt><trkpt lat="42.66874" lon="11.596765"><ele>397.0</ele><time>2026-04-18T09:22:32.764Z</time></trkpt><trkpt lat="42.6686583" lon="11.5968217"><ele>397.00000000000006</ele><time>2026-04-18T09:22:33.763Z</time></trkpt><trkpt lat="42.6686017" lon="11.5969033"><ele>397.0</ele><time>2026-04-18T09:22:34.764Z</time></trkpt><trkpt lat="42.66856" lon="11.5970117"><ele>396.6</ele><time>2026-04-18T09:22:35.764Z</time></trkpt><trkpt lat="42.6685283" lon="11.5971267"><ele>396.20000000000005</ele><time>2026-04-18T09:22:36.764Z</time></trkpt><trkpt lat="42.6685267" lon="11.597245"><ele>395.8</ele><time>2026-04-18T09:22:37.764Z</time></trkpt><trkpt lat="42.668545" lon="11.5973767"><ele>395.4</ele><time>2026-04-18T09:22:38.764Z</time></trkpt><trkpt lat="42.6685883" lon="11.5975017"><ele>395.0</ele><time>2026-04-18T09:22:39.764Z</time></trkpt><trkpt lat="42.6686367" lon="11.5976117"><ele>395.0</ele><time>2026-04-18T09:22:40.764Z</time></trkpt><trkpt lat="42.6686883" lon="11.5977167"><ele>395.0</ele><time>2026-04-18T09:22:41.764Z</time></trkpt><trkpt lat="42.6687467" lon="11.5978267"><ele>395.0</ele><time>2026-04-18T09:22:42.764Z</time></trkpt><trkpt lat="42.6688067" lon="11.5979317"><ele>395.0</ele><time>2026-04-18T09:22:43.763Z</time></trkpt><trkpt lat="42.6688667" lon="11.5980267"><ele>395.0</ele><time>2026-04-18T09:22:44.764Z</time></trkpt><trkpt lat="42.6689217" lon="11.5981217"><ele>392.99999999999994</ele><time>2026-04-18T09:22:45.764Z</time></trkpt><trkpt lat="42.668975" lon="11.5982133"><ele>391.0</ele><time>2026-04-18T09:22:46.764Z</time></trkpt><trkpt lat="42.6690233" lon="11.5983083"><ele>389.0</ele><time>2026-04-18T09:22:47.764Z</time></trkpt><trkpt lat="42.669055" lon="11.59842"><ele>387.0</ele><time>2026-04-18T09:22:48.764Z</time></trkpt><trkpt lat="42.6690633" lon="11.598545"><ele>385.0</ele><time>2026-04-18T09:22:49.764Z</time></trkpt><trkpt lat="42.6690583" lon="11.5986733"><ele>383.0</ele><time>2026-04-18T09:22:50.764Z</time></trkpt><trkpt lat="42.6690367" lon="11.59879"><ele>381.0</ele><time>2026-04-18T09:22:51.764Z</time></trkpt><trkpt lat="42.6689933" lon="11.5989167"><ele>379.0</ele><time>2026-04-18T09:22:52.764Z</time></trkpt><trkpt lat="42.6689383" lon="11.5990133"><ele>377.0</ele><time>2026-04-18T09:22:53.764Z</time></trkpt><trkpt lat="42.6688717" lon="11.5990933"><ele>375.0</ele><time>2026-04-18T09:22:54.764Z</time></trkpt><trkpt lat="42.66879" lon="11.5991433"><ele>373.0</ele><time>2026-04-18T09:22:55.764Z</time></trkpt><trkpt lat="42.6687017" lon="11.5991717"><ele>372.25</ele><time>2026-04-18T09:22:56.764Z</time></trkpt><trkpt lat="42.668585" lon="11.59918"><ele>371.5</ele><time>2026-04-18T09:22:57.764Z</time></trkpt><trkpt lat="42.66846" lon="11.59917"><ele>370.75</ele><time>2026-04-18T09:22:58.764Z</time></trkpt><trkpt lat="42.6683333" lon="11.599135"><ele>370.0</ele><time>2026-04-18T09:22:59.764Z</time></trkpt><trkpt lat="42.668225" lon="11.5990933"><ele>370.0</ele><time>2026-04-18T09:23:00.764Z</time></trkpt><trkpt lat="42.6681283" lon="11.5990483"><ele>370.0</ele><time>2026-04-18T09:23:01.764Z</time></trkpt><trkpt lat="42.6680417" lon="11.5990183"><ele>370.0</ele><time>2026-04-18T09:23:02.764Z</time></trkpt><trkpt lat="42.6679633" lon="11.5989933"><ele>370.0</ele><time>2026-04-18T09:23:03.764Z</time></trkpt><trkpt lat="42.6678817" lon="11.5989833"><ele>370.0</ele><time>2026-04-18T09:23:04.764Z</time></trkpt><trkpt lat="42.6677983" lon="11.5989883"><ele>370.0</ele><time>2026-04-18T09:23:05.764Z</time></trkpt><trkpt lat="42.6677017" lon="11.59902"><ele>368.2</ele><time>2026-04-18T09:23:06.764Z</time></trkpt><trkpt lat="42.6676083" lon="11.5990783"><ele>366.4</ele><time>2026-04-18T09:23:07.764Z</time></trkpt><trkpt lat="42.6675117" lon="11.5991433"><ele>364.6</ele><time>2026-04-18T09:23:08.764Z</time></trkpt><trkpt lat="42.667425" lon="11.599225"><ele>362.8</ele><time>2026-04-18T09:23:09.764Z</time></trkpt><trkpt lat="42.6673383" lon="11.5993117"><ele>361.0</ele><time>2026-04-18T09:23:10.764Z</time></trkpt><trkpt lat="42.66725" lon="11.5994017"><ele>361.0</ele><time>2026-04-18T09:23:11.764Z</time></trkpt><trkpt lat="42.6671583" lon="11.5994767"><ele>361.0</ele><time>2026-04-18T09:23:12.764Z</time></trkpt><trkpt lat="42.667065" lon="11.599555"><ele>361.0</ele><time>2026-04-18T09:23:13.764Z</time></trkpt><trkpt lat="42.6669717" lon="11.5996317"><ele>361.0</ele><time>2026-04-18T09:23:14.764Z</time></trkpt><trkpt lat="42.6668833" lon="11.5997117"><ele>361.0</ele><time>2026-04-18T09:23:15.764Z</time></trkpt><trkpt lat="42.6667983" lon="11.5997917"><ele>359.6</ele><time>2026-04-18T09:23:16.764Z</time></trkpt><trkpt lat="42.6667133" lon="11.5998633"><ele>358.20000000000005</ele><time>2026-04-18T09:23:17.764Z</time></trkpt><trkpt lat="42.6666283" lon="11.599945"><ele>356.79999999999995</ele><time>2026-04-18T09:23:18.764Z</time></trkpt><trkpt lat="42.666535" lon="11.60002"><ele>355.4</ele><time>2026-04-18T09:23:19.764Z</time></trkpt><trkpt lat="42.6664483" lon="11.6001033"><ele>354.0</ele><time>2026-04-18T09:23:20.764Z</time></trkpt><trkpt lat="42.666355" lon="11.60019"><ele>354.0</ele><time>2026-04-18T09:23:21.764Z</time></trkpt><trkpt lat="42.666255" lon="11.6002817"><ele>354.0</ele><time>2026-04-18T09:23:22.764Z</time></trkpt><trkpt lat="42.6661483" lon="11.6003783"><ele>354.0</ele><time>2026-04-18T09:23:23.764Z</time></trkpt><trkpt lat="42.66605" lon="11.6004633"><ele>354.0</ele><time>2026-04-18T09:23:24.764Z</time></trkpt><trkpt lat="42.665955" lon="11.6005483"><ele>352.2</ele><time>2026-04-18T09:23:25.764Z</time></trkpt><trkpt lat="42.66586" lon="11.6006333"><ele>350.4</ele><time>2026-04-18T09:23:26.764Z</time></trkpt><trkpt lat="42.665775" lon="11.600705"><ele>348.6</ele><time>2026-04-18T09:23:27.764Z</time></trkpt><trkpt lat="42.6656983" lon="11.600775"><ele>346.8</ele><time>2026-04-18T09:23:28.764Z</time></trkpt><trkpt lat="42.6656217" lon="11.6008383"><ele>345.0</ele><time>2026-04-18T09:23:29.764Z</time></trkpt><trkpt lat="42.665545" lon="11.6008933"><ele>345.0</ele><time>2026-04-18T09:23:30.764Z</time></trkpt><trkpt lat="42.6654633" lon="11.6009567"><ele>345.0</ele><time>2026-04-18T09:23:31.764Z</time></trkpt><trkpt lat="42.6653833" lon="11.601015"><ele>345.0</ele><time>2026-04-18T09:23:32.764Z</time></trkpt><trkpt lat="42.6652933" lon="11.6010783"><ele>345.0</ele><time>2026-04-18T09:23:33.764Z</time></trkpt><trkpt lat="42.6651933" lon="11.60113"><ele>345.0</ele><time>2026-04-18T09:23:34.764Z</time></trkpt><trkpt lat="42.6650817" lon="11.6011717"><ele>342.5</ele><time>2026-04-18T09:23:35.764Z</time></trkpt><trkpt lat="42.664955" lon="11.601205"><ele>340.0</ele><time>2026-04-18T09:23:36.764Z</time></trkpt><trkpt lat="42.6648217" lon="11.601235"><ele>337.5</ele><time>2026-04-18T09:23:37.764Z</time></trkpt><trkpt lat="42.66468" lon="11.6012617"><ele>335.0</ele><time>2026-04-18T09:23:38.764Z</time></trkpt><trkpt lat="42.66454" lon="11.6012917"><ele>332.33333333333337</ele><time>2026-04-18T09:23:39.764Z</time></trkpt><trkpt lat="42.6643983" lon="11.6013217"><ele>329.6666666666667</ele><time>2026-04-18T09:23:40.764Z</time></trkpt><trkpt lat="42.6642467" lon="11.60135"><ele>327.0</ele><time>2026-04-18T09:23:41.764Z</time></trkpt><trkpt lat="42.6640933" lon="11.6013867"><ele>327.0</ele><time>2026-04-18T09:23:42.764Z</time></trkpt><trkpt lat="42.6639633" lon="11.6014133"><ele>327.0</ele><time>2026-04-18T09:23:43.764Z</time></trkpt><trkpt lat="42.6638283" lon="11.60144"><ele>327.0</ele><time>2026-04-18T09:23:44.764Z</time></trkpt><trkpt lat="42.66369" lon="11.60147"><ele>327.0</ele><time>2026-04-18T09:23:45.764Z</time></trkpt><trkpt lat="42.6635517" lon="11.6015"><ele>327.75</ele><time>2026-04-18T09:23:46.764Z</time></trkpt><trkpt lat="42.6634133" lon="11.6015283"><ele>328.5</ele><time>2026-04-18T09:23:47.764Z</time></trkpt><trkpt lat="42.663275" lon="11.60158"><ele>329.25</ele><time>2026-04-18T09:23:48.764Z</time></trkpt><trkpt lat="42.6631317" lon="11.60164"><ele>330.0</ele><time>2026-04-18T09:23:49.764Z</time></trkpt><trkpt lat="42.6629983" lon="11.6017083"><ele>330.0</ele><time>2026-04-18T09:23:50.764Z</time></trkpt><trkpt lat="42.6628667" lon="11.60179"><ele>330.0</ele><time>2026-04-18T09:23:51.764Z</time></trkpt><trkpt lat="42.6627383" lon="11.6018717"><ele>330.0</ele><time>2026-04-18T09:23:52.763Z</time></trkpt><trkpt lat="42.66261" lon="11.6019817"><ele>330.0</ele><time>2026-04-18T09:23:53.764Z</time></trkpt><trkpt lat="42.66247" lon="11.6021017"><ele>330.3333333333333</ele><time>2026-04-18T09:23:54.764Z</time></trkpt><trkpt lat="42.6623283" lon="11.6022217"><ele>330.66666666666663</ele><time>2026-04-18T09:23:55.764Z</time></trkpt><trkpt lat="42.6621833" lon="11.6023317"><ele>331.0</ele><time>2026-04-18T09:23:56.764Z</time></trkpt><trkpt lat="42.662045" lon="11.6024433"><ele>329.75</ele><time>2026-04-18T09:23:57.764Z</time></trkpt><trkpt lat="42.6619133" lon="11.6025483"><ele>328.5</ele><time>2026-04-18T09:23:58.763Z</time></trkpt><trkpt lat="42.6617967" lon="11.6026433"><ele>327.25</ele><time>2026-04-18T09:23:59.764Z</time></trkpt><trkpt lat="42.661675" lon="11.6027167"><ele>326.0</ele><time>2026-04-18T09:24:00.764Z</time></trkpt><trkpt lat="42.661555" lon="11.602765"><ele>326.0</ele><time>2026-04-18T09:24:01.763Z</time></trkpt><trkpt lat="42.6614267" lon="11.6027967"><ele>326.0</ele><time>2026-04-18T09:24:02.764Z</time></trkpt><trkpt lat="42.6612917" lon="11.6028"><ele>326.0</ele><time>2026-04-18T09:24:03.764Z</time></trkpt><trkpt lat="42.661165" lon="11.6027817"><ele>326.0</ele><time>2026-04-18T09:24:04.764Z</time></trkpt><trkpt lat="42.6610417" lon="11.602725"><ele>325.0</ele><time>2026-04-18T09:24:05.764Z</time></trkpt><trkpt lat="42.6609133" lon="11.60264"><ele>324.0</ele><time>2026-04-18T09:24:06.764Z</time></trkpt><trkpt lat="42.66078" lon="11.6025317"><ele>323.0</ele><time>2026-04-18T09:24:07.764Z</time></trkpt><trkpt lat="42.6606433" lon="11.602425"><ele>323.0</ele><time>2026-04-18T09:24:08.764Z</time></trkpt><trkpt lat="42.6605017" lon="11.6023183"><ele>323.0</ele><time>2026-04-18T09:24:09.764Z</time></trkpt><trkpt lat="42.6603683" lon="11.602215"><ele>323.0</ele><time>2026-04-18T09:24:10.764Z</time></trkpt><trkpt lat="42.6602317" lon="11.60212"><ele>321.6666666666667</ele><time>2026-04-18T09:24:11.764Z</time></trkpt><trkpt lat="42.6601" lon="11.60202"><ele>320.3333333333333</ele><time>2026-04-18T09:24:12.764Z</time></trkpt><trkpt lat="42.6599517" lon="11.6019067"><ele>319.0</ele><time>2026-04-18T09:24:13.764Z</time></trkpt><trkpt lat="42.6597767" lon="11.60177"><ele>318.3333333333333</ele><time>2026-04-18T09:24:14.764Z</time></trkpt><trkpt lat="42.659595" lon="11.601635"><ele>317.6666666666667</ele><time>2026-04-18T09:24:15.764Z</time></trkpt><trkpt lat="42.6594317" lon="11.601515"><ele>317.0</ele><time>2026-04-18T09:24:16.764Z</time></trkpt><trkpt lat="42.6592867" lon="11.60141"><ele>315.75</ele><time>2026-04-18T09:24:17.764Z</time></trkpt><trkpt lat="42.65916" lon="11.6013183"><ele>314.5</ele><time>2026-04-18T09:24:18.764Z</time></trkpt><trkpt lat="42.6590433" lon="11.6012317"><ele>313.25</ele><time>2026-04-18T09:24:19.763Z</time></trkpt><trkpt lat="42.658935" lon="11.6011533"><ele>312.0</ele><time>2026-04-18T09:24:20.764Z</time></trkpt><trkpt lat="42.65883" lon="11.6010667"><ele>311.0</ele><time>2026-04-18T09:24:21.764Z</time></trkpt><trkpt lat="42.6587217" lon="11.60098"><ele>310.0</ele><time>2026-04-18T09:24:22.763Z</time></trkpt><trkpt lat="42.6586117" lon="11.60089"><ele>309.0</ele><time>2026-04-18T09:24:23.764Z</time></trkpt><trkpt lat="42.6584983" lon="11.6008033"><ele>308.0</ele><time>2026-04-18T09:24:24.764Z</time></trkpt><trkpt lat="42.6583967" lon="11.6007267"><ele>308.0</ele><time>2026-04-18T09:24:25.764Z</time></trkpt><trkpt lat="42.6582883" lon="11.6006517"><ele>308.0</ele><time>2026-04-18T09:24:26.764Z</time></trkpt><trkpt lat="42.65819" lon="11.6005783"><ele>308.0</ele><time>2026-04-18T09:24:27.764Z</time></trkpt><trkpt lat="42.6580917" lon="11.6005033"><ele>308.0</ele><time>2026-04-18T09:24:28.764Z</time></trkpt><trkpt lat="42.657995" lon="11.6004383"><ele>308.0</ele><time>2026-04-18T09:24:29.764Z</time></trkpt><trkpt lat="42.6579033" lon="11.600385"><ele>308.0</ele><time>2026-04-18T09:24:30.764Z</time></trkpt><trkpt lat="42.6578067" lon="11.6003467"><ele>308.0</ele><time>2026-04-18T09:24:31.764Z</time></trkpt><trkpt lat="42.6577067" lon="11.6003283"><ele>308.0</ele><time>2026-04-18T09:24:32.764Z</time></trkpt><trkpt lat="42.6575983" lon="11.6003283"><ele>308.0</ele><time>2026-04-18T09:24:33.764Z</time></trkpt><trkpt lat="42.6575033" lon="11.6003567"><ele>307.6</ele><time>2026-04-18T09:24:34.764Z</time></trkpt><trkpt lat="42.6574117" lon="11.60043"><ele>307.20000000000005</ele><time>2026-04-18T09:24:35.763Z</time></trkpt><trkpt lat="42.6573267" lon="11.600525"><ele>306.8</ele><time>2026-04-18T09:24:36.764Z</time></trkpt><trkpt lat="42.6572633" lon="11.60065"><ele>306.40000000000003</ele><time>2026-04-18T09:24:37.764Z</time></trkpt><trkpt lat="42.6572167" lon="11.6007933"><ele>306.0</ele><time>2026-04-18T09:24:38.764Z</time></trkpt><trkpt lat="42.6571617" lon="11.6009517"><ele>306.0</ele><time>2026-04-18T09:24:39.764Z</time></trkpt><trkpt lat="42.6571133" lon="11.6011"><ele>306.0</ele><time>2026-04-18T09:24:40.764Z</time></trkpt><trkpt lat="42.65707" lon="11.6012367"><ele>306.0</ele><time>2026-04-18T09:24:41.764Z</time></trkpt><trkpt lat="42.6570233" lon="11.6013583"><ele>306.0</ele><time>2026-04-18T09:24:42.764Z</time></trkpt><trkpt lat="42.6569733" lon="11.60146"><ele>306.0</ele><time>2026-04-18T09:24:43.764Z</time></trkpt><trkpt lat="42.656905" lon="11.6015517"><ele>304.5</ele><time>2026-04-18T09:24:44.764Z</time></trkpt><trkpt lat="42.65682" lon="11.6016267"><ele>303.0</ele><time>2026-04-18T09:24:45.764Z</time></trkpt><trkpt lat="42.65671" lon="11.60169"><ele>301.5</ele><time>2026-04-18T09:24:46.764Z</time></trkpt><trkpt lat="42.6565617" lon="11.60174"><ele>300.0</ele><time>2026-04-18T09:24:47.764Z</time></trkpt><trkpt lat="42.6563867" lon="11.601805"><ele>300.0</ele><time>2026-04-18T09:24:48.764Z</time></trkpt><trkpt lat="42.6561983" lon="11.6018733"><ele>300.0</ele><time>2026-04-18T09:24:49.763Z</time></trkpt><trkpt lat="42.65604" lon="11.6019367"><ele>300.0</ele><time>2026-04-18T09:24:50.763Z</time></trkpt><trkpt lat="42.6559067" lon="11.6019933"><ele>297.25</ele><time>2026-04-18T09:24:51.764Z</time></trkpt><trkpt lat="42.6557883" lon="11.6020417"><ele>294.5</ele><time>2026-04-18T09:24:52.764Z</time></trkpt><trkpt lat="42.6556767" lon="11.602065"><ele>291.75</ele><time>2026-04-18T09:24:53.764Z</time></trkpt><trkpt lat="42.655565" lon="11.6020667"><ele>289.0</ele><time>2026-04-18T09:24:54.764Z</time></trkpt><trkpt lat="42.65545" lon="11.6020483"><ele>289.0</ele><time>2026-04-18T09:24:55.764Z</time></trkpt><trkpt lat="42.6553283" lon="11.6020083"><ele>289.0</ele><time>2026-04-18T09:24:56.764Z</time></trkpt><trkpt lat="42.6551917" lon="11.6019567"><ele>289.0</ele><time>2026-04-18T09:24:57.764Z</time></trkpt><trkpt lat="42.6550417" lon="11.6018883"><ele>289.0</ele><time>2026-04-18T09:24:58.764Z</time></trkpt><trkpt lat="42.65489" lon="11.6018233"><ele>286.66666666666663</ele><time>2026-04-18T09:24:59.764Z</time></trkpt><trkpt lat="42.6547483" lon="11.6017617"><ele>284.3333333333333</ele><time>2026-04-18T09:25:00.764Z</time></trkpt><trkpt lat="42.654585" lon="11.6016933"><ele>282.0</ele><time>2026-04-18T09:25:01.764Z</time></trkpt><trkpt lat="42.6543933" lon="11.6016167"><ele>279.3333333333333</ele><time>2026-04-18T09:25:02.764Z</time></trkpt><trkpt lat="42.6542183" lon="11.6015383"><ele>276.66666666666663</ele><time>2026-04-18T09:25:03.764Z</time></trkpt><trkpt lat="42.6540567" lon="11.6014533"><ele>274.0</ele><time>2026-04-18T09:25:04.764Z</time></trkpt><trkpt lat="42.6538983" lon="11.6013383"><ele>274.0</ele><time>2026-04-18T09:25:05.764Z</time></trkpt><trkpt lat="42.653745" lon="11.6012133"><ele>274.0</ele><time>2026-04-18T09:25:06.764Z</time></trkpt><trkpt lat="42.6535933" lon="11.60108"><ele>274.0</ele><time>2026-04-18T09:25:07.763Z</time></trkpt><trkpt lat="42.6534617" lon="11.6009567"><ele>270.75</ele><time>2026-04-18T09:25:08.764Z</time></trkpt><trkpt lat="42.6533283" lon="11.6008467"><ele>267.5</ele><time>2026-04-18T09:25:09.764Z</time></trkpt><trkpt lat="42.6532067" lon="11.600745"><ele>264.25</ele><time>2026-04-18T09:25:10.764Z</time></trkpt><trkpt lat="42.6530867" lon="11.6006483"><ele>261.0</ele><time>2026-04-18T09:25:11.764Z</time></trkpt><trkpt lat="42.6529783" lon="11.6005567"><ele>261.0</ele><time>2026-04-18T09:25:12.764Z</time></trkpt><trkpt lat="42.6528833" lon="11.6004683"><ele>261.0</ele><time>2026-04-18T09:25:13.764Z</time></trkpt><trkpt lat="42.652805" lon="11.6003917"><ele>261.0</ele><time>2026-04-18T09:25:14.764Z</time></trkpt><trkpt lat="42.6527433" lon="11.6003367"><ele>261.0</ele><time>2026-04-18T09:25:15.763Z</time></trkpt><trkpt lat="42.652665" lon="11.6002533"><ele>261.0</ele><time>2026-04-18T09:25:17.764Z</time></trkpt><trkpt lat="42.6526" lon="11.6002033"><ele>259.6666666666667</ele><time>2026-04-18T09:25:19.764Z</time></trkpt><trkpt lat="42.6525217" lon="11.60014"><ele>258.3333333333333</ele><time>2026-04-18T09:25:21.763Z</time></trkpt><trkpt lat="42.6524167" lon="11.600065"><ele>257.0</ele><time>2026-04-18T09:25:23.764Z</time></trkpt><trkpt lat="42.6523517" lon="11.6000317"><ele>255.66666666666666</ele><time>2026-04-18T09:25:24.764Z</time></trkpt><trkpt lat="42.6522783" lon="11.59999"><ele>254.33333333333331</ele><time>2026-04-18T09:25:25.764Z</time></trkpt><trkpt lat="42.6521933" lon="11.5999483"><ele>253.0</ele><time>2026-04-18T09:25:26.764Z</time></trkpt><trkpt lat="42.6521233" lon="11.5999083"><ele>253.0</ele><time>2026-04-18T09:25:27.764Z</time></trkpt><trkpt lat="42.652055" lon="11.5998667"><ele>253.0</ele><time>2026-04-18T09:25:28.764Z</time></trkpt><trkpt lat="42.6519917" lon="11.59983"><ele>253.0</ele><time>2026-04-18T09:25:29.764Z</time></trkpt><trkpt lat="42.6518717" lon="11.59977"><ele>253.0</ele><time>2026-04-18T09:25:31.764Z</time></trkpt><trkpt lat="42.6517583" lon="11.5997033"><ele>253.0</ele><time>2026-04-18T09:25:33.764Z</time></trkpt><trkpt lat="42.6516467" lon="11.599635"><ele>251.99999999999997</ele><time>2026-04-18T09:25:35.764Z</time></trkpt><trkpt lat="42.6515383" lon="11.59957"><ele>251.0</ele><time>2026-04-18T09:25:37.764Z</time></trkpt><trkpt lat="42.651475" lon="11.5995333"><ele>250.0</ele><time>2026-04-18T09:25:38.764Z</time></trkpt><trkpt lat="42.6514033" lon="11.5994967"><ele>249.0</ele><time>2026-04-18T09:25:39.764Z</time></trkpt><trkpt lat="42.651325" lon="11.59946"><ele>247.99999999999997</ele><time>2026-04-18T09:25:40.764Z</time></trkpt><trkpt lat="42.6512517" lon="11.5994217"><ele>247.0</ele><time>2026-04-18T09:25:41.764Z</time></trkpt><trkpt lat="42.6511733" lon="11.59938"><ele>246.39999999999998</ele><time>2026-04-18T09:25:42.764Z</time></trkpt><trkpt lat="42.6510867" lon="11.5993367"><ele>245.79999999999998</ele><time>2026-04-18T09:25:43.763Z</time></trkpt><trkpt lat="42.6509933" lon="11.5993017"><ele>245.2</ele><time>2026-04-18T09:25:44.764Z</time></trkpt><trkpt lat="42.6508933" lon="11.59927"><ele>244.6</ele><time>2026-04-18T09:25:45.764Z</time></trkpt><trkpt lat="42.6508" lon="11.59924"><ele>244.0</ele><time>2026-04-18T09:25:46.764Z</time></trkpt><trkpt lat="42.6507067" lon="11.59921"><ele>243.99999999999997</ele><time>2026-04-18T09:25:47.764Z</time></trkpt><trkpt lat="42.6506167" lon="11.59918"><ele>244.0</ele><time>2026-04-18T09:25:48.764Z</time></trkpt><trkpt lat="42.6505267" lon="11.599155"><ele>244.0</ele><time>2026-04-18T09:25:49.764Z</time></trkpt><trkpt lat="42.65044" lon="11.5991233"><ele>244.0</ele><time>2026-04-18T09:25:50.764Z</time></trkpt><trkpt lat="42.65036" lon="11.5990983"><ele>243.99999999999997</ele><time>2026-04-18T09:25:51.764Z</time></trkpt><trkpt lat="42.6502917" lon="11.5990833"><ele>244.0</ele><time>2026-04-18T09:25:52.764Z</time></trkpt><trkpt lat="42.6501867" lon="11.5990567"><ele>242.99999999999997</ele><time>2026-04-18T09:25:54.764Z</time></trkpt><trkpt lat="42.650105" lon="11.59903"><ele>242.0</ele><time>2026-04-18T09:25:56.764Z</time></trkpt><trkpt lat="42.6500417" lon="11.599005"><ele>241.0</ele><time>2026-04-18T09:25:59.764Z</time></trkpt><trkpt lat="42.6499767" lon="11.599025"><ele>240.0</ele><time>2026-04-18T09:26:03.764Z</time></trkpt><trkpt lat="42.6500283" lon="11.5991"><ele>238.99999999999997</ele><time>2026-04-18T09:26:08.764Z</time></trkpt><trkpt lat="42.650145" lon="11.5991267"><ele>238.0</ele><time>2026-04-18T09:26:10.764Z</time></trkpt><trkpt lat="42.6502233" lon="11.59914"><ele>239.2</ele><time>2026-04-18T09:26:11.764Z</time></trkpt><trkpt lat="42.6503167" lon="11.5991533"><ele>240.4</ele><time>2026-04-18T09:26:12.763Z</time></trkpt><trkpt lat="42.6504217" lon="11.5991767"><ele>241.59999999999997</ele><time>2026-04-18T09:26:13.763Z</time></trkpt><trkpt lat="42.6505283" lon="11.5992117"><ele>242.79999999999998</ele><time>2026-04-18T09:26:14.764Z</time></trkpt><trkpt lat="42.6506417" lon="11.5992467"><ele>244.0</ele><time>2026-04-18T09:26:15.764Z</time></trkpt><trkpt lat="42.6507533" lon="11.5992783"><ele>244.0</ele><time>2026-04-18T09:26:16.764Z</time></trkpt><trkpt lat="42.6508717" lon="11.5993067"><ele>244.0</ele><time>2026-04-18T09:26:17.764Z</time></trkpt><trkpt lat="42.65099" lon="11.5993483"><ele>244.0</ele><time>2026-04-18T09:26:18.764Z</time></trkpt><trkpt lat="42.651105" lon="11.5993933"><ele>244.0</ele><time>2026-04-18T09:26:19.764Z</time></trkpt><trkpt lat="42.65122" lon="11.5994483"><ele>244.75</ele><time>2026-04-18T09:26:20.764Z</time></trkpt><trkpt lat="42.6513367" lon="11.599505"><ele>245.5</ele><time>2026-04-18T09:26:21.764Z</time></trkpt><trkpt lat="42.6514633" lon="11.5995633"><ele>246.25</ele><time>2026-04-18T09:26:22.764Z</time></trkpt><trkpt lat="42.651585" lon="11.5996383"><ele>247.0</ele><time>2026-04-18T09:26:23.764Z</time></trkpt><trkpt lat="42.6517033" lon="11.59971"><ele>247.0</ele><time>2026-04-18T09:26:24.764Z</time></trkpt><trkpt lat="42.6518333" lon="11.5997817"><ele>247.0</ele><time>2026-04-18T09:26:25.764Z</time></trkpt><trkpt lat="42.6519567" lon="11.5998583"><ele>247.0</ele><time>2026-04-18T09:26:26.764Z</time></trkpt><trkpt lat="42.65208" lon="11.5999383"><ele>247.0</ele><time>2026-04-18T09:26:27.764Z</time></trkpt><trkpt lat="42.652205" lon="11.60001"><ele>248.5</ele><time>2026-04-18T09:26:28.764Z</time></trkpt><trkpt lat="42.6523267" lon="11.60008"><ele>250.0</ele><time>2026-04-18T09:26:29.764Z</time></trkpt><trkpt lat="42.6524483" lon="11.600145"><ele>251.5</ele><time>2026-04-18T09:26:30.764Z</time></trkpt><trkpt lat="42.652565" lon="11.6002283"><ele>253.0</ele><time>2026-04-18T09:26:31.764Z</time></trkpt><trkpt lat="42.6526783" lon="11.6003233"><ele>255.0</ele><time>2026-04-18T09:26:32.764Z</time></trkpt><trkpt lat="42.652795" lon="11.60041"><ele>257.0</ele><time>2026-04-18T09:26:33.764Z</time></trkpt><trkpt lat="42.65291" lon="11.6005033"><ele>259.0</ele><time>2026-04-18T09:26:34.764Z</time></trkpt><trkpt lat="42.6530267" lon="11.6006033"><ele>261.0</ele><time>2026-04-18T09:26:35.764Z</time></trkpt><trkpt lat="42.6531383" lon="11.6007017"><ele>261.0</ele><time>2026-04-18T09:26:36.763Z</time></trkpt><trkpt lat="42.653255" lon="11.6008067"><ele>261.0</ele><time>2026-04-18T09:26:37.764Z</time></trkpt><trkpt lat="42.6533617" lon="11.6009033"><ele>261.0</ele><time>2026-04-18T09:26:38.764Z</time></trkpt><trkpt lat="42.6534717" lon="11.6010017"><ele>261.0</ele><time>2026-04-18T09:26:39.764Z</time></trkpt><trkpt lat="42.6535817" lon="11.6011017"><ele>264.25</ele><time>2026-04-18T09:26:40.764Z</time></trkpt><trkpt lat="42.6536883" lon="11.6012017"><ele>267.5</ele><time>2026-04-18T09:26:41.764Z</time></trkpt><trkpt lat="42.6538017" lon="11.60129"><ele>270.75</ele><time>2026-04-18T09:26:42.764Z</time></trkpt><trkpt lat="42.6539067" lon="11.60138"><ele>274.0</ele><time>2026-04-18T09:26:43.764Z</time></trkpt><trkpt lat="42.6540217" lon="11.601445"><ele>274.0</ele><time>2026-04-18T09:26:44.764Z</time></trkpt><trkpt lat="42.6541433" lon="11.6015117"><ele>274.0</ele><time>2026-04-18T09:26:45.764Z</time></trkpt><trkpt lat="42.6542633" lon="11.6015667"><ele>274.0</ele><time>2026-04-18T09:26:46.764Z</time></trkpt><trkpt lat="42.6543833" lon="11.601625"><ele>274.0</ele><time>2026-04-18T09:26:47.763Z</time></trkpt><trkpt lat="42.6545133" lon="11.6016733"><ele>276.0</ele><time>2026-04-18T09:26:48.764Z</time></trkpt><trkpt lat="42.6546433" lon="11.6017317"><ele>278.0</ele><time>2026-04-18T09:26:49.764Z</time></trkpt><trkpt lat="42.6547633" lon="11.601785"><ele>280.0</ele><time>2026-04-18T09:26:50.764Z</time></trkpt><trkpt lat="42.6548817" lon="11.6018417"><ele>282.0</ele><time>2026-04-18T09:26:51.764Z</time></trkpt><trkpt lat="42.654995" lon="11.60189"><ele>282.0</ele><time>2026-04-18T09:26:52.763Z</time></trkpt><trkpt lat="42.6551067" lon="11.601935"><ele>282.0</ele><time>2026-04-18T09:26:53.763Z</time></trkpt><trkpt lat="42.6552167" lon="11.6019783"><ele>282.0</ele><time>2026-04-18T09:26:54.764Z</time></trkpt><trkpt lat="42.655325" lon="11.60202"><ele>282.0</ele><time>2026-04-18T09:26:55.764Z</time></trkpt><trkpt lat="42.6554267" lon="11.602065"><ele>283.4</ele><time>2026-04-18T09:26:56.764Z</time></trkpt><trkpt lat="42.655525" lon="11.6021017"><ele>284.79999999999995</ele><time>2026-04-18T09:26:57.763Z</time></trkpt><trkpt lat="42.6556267" lon="11.602115"><ele>286.2</ele><time>2026-04-18T09:26:58.764Z</time></trkpt><trkpt lat="42.6557267" lon="11.60211"><ele>287.59999999999997</ele><time>2026-04-18T09:26:59.764Z</time></trkpt><trkpt lat="42.65583" lon="11.6020833"><ele>289.0</ele><time>2026-04-18T09:27:00.764Z</time></trkpt><trkpt lat="42.6559367" lon="11.6020417"><ele>290.0</ele><time>2026-04-18T09:27:01.764Z</time></trkpt><trkpt lat="42.6560433" lon="11.6019867"><ele>291.0</ele><time>2026-04-18T09:27:02.764Z</time></trkpt><trkpt lat="42.65615" lon="11.6019467"><ele>292.0</ele><time>2026-04-18T09:27:03.764Z</time></trkpt><trkpt lat="42.656255" lon="11.6018983"><ele>293.0</ele><time>2026-04-18T09:27:04.763Z</time></trkpt><trkpt lat="42.6563517" lon="11.60186"><ele>294.0</ele><time>2026-04-18T09:27:05.764Z</time></trkpt><trkpt lat="42.656445" lon="11.60182"><ele>295.2</ele><time>2026-04-18T09:27:06.764Z</time></trkpt><trkpt lat="42.6565333" lon="11.60178"><ele>296.4</ele><time>2026-04-18T09:27:07.764Z</time></trkpt><trkpt lat="42.6566267" lon="11.6017433"><ele>297.6</ele><time>2026-04-18T09:27:08.764Z</time></trkpt><trkpt lat="42.6567267" lon="11.6017017"><ele>298.8</ele><time>2026-04-18T09:27:09.764Z</time></trkpt><trkpt lat="42.65682" lon="11.6016517"><ele>300.0</ele><time>2026-04-18T09:27:10.764Z</time></trkpt><trkpt lat="42.6569017" lon="11.6015917"><ele>299.3333333333333</ele><time>2026-04-18T09:27:11.764Z</time></trkpt><trkpt lat="42.6569733" lon="11.601525"><ele>298.6666666666667</ele><time>2026-04-18T09:27:12.764Z</time></trkpt><trkpt lat="42.657035" lon="11.6014517"><ele>298.0</ele><time>2026-04-18T09:27:13.764Z</time></trkpt><trkpt lat="42.6570817" lon="11.60135"><ele>297.33333333333337</ele><time>2026-04-18T09:27:14.763Z</time></trkpt><trkpt lat="42.65712" lon="11.6012367"><ele>296.6666666666667</ele><time>2026-04-18T09:27:15.764Z</time></trkpt><trkpt lat="42.6571633" lon="11.6011133"><ele>296.0</ele><time>2026-04-18T09:27:16.764Z</time></trkpt><trkpt lat="42.6571983" lon="11.60099"><ele>297.6666666666667</ele><time>2026-04-18T09:27:17.764Z</time></trkpt><trkpt lat="42.6572367" lon="11.600865"><ele>299.33333333333337</ele><time>2026-04-18T09:27:18.764Z</time></trkpt><trkpt lat="42.6572717" lon="11.6007533"><ele>301.0</ele><time>2026-04-18T09:27:19.764Z</time></trkpt><trkpt lat="42.6573117" lon="11.60065"><ele>302.6666666666667</ele><time>2026-04-18T09:27:20.764Z</time></trkpt><trkpt lat="42.6573567" lon="11.60056"><ele>304.3333333333333</ele><time>2026-04-18T09:27:21.764Z</time></trkpt><trkpt lat="42.6574067" lon="11.6004817"><ele>306.0</ele><time>2026-04-18T09:27:22.764Z</time></trkpt><trkpt lat="42.6574683" lon="11.6004183"><ele>306.0</ele><time>2026-04-18T09:27:23.764Z</time></trkpt><trkpt lat="42.657555" lon="11.6003617"><ele>306.0</ele><time>2026-04-18T09:27:24.764Z</time></trkpt><trkpt lat="42.657645" lon="11.60034"><ele>306.0</ele><time>2026-04-18T09:27:25.764Z</time></trkpt><trkpt lat="42.6577417" lon="11.600345"><ele>306.0</ele><time>2026-04-18T09:27:26.764Z</time></trkpt><trkpt lat="42.6578417" lon="11.60037"><ele>306.0</ele><time>2026-04-18T09:27:27.764Z</time></trkpt><trkpt lat="42.657935" lon="11.6004217"><ele>306.40000000000003</ele><time>2026-04-18T09:27:28.764Z</time></trkpt><trkpt lat="42.6580233" lon="11.6004967"><ele>306.8</ele><time>2026-04-18T09:27:29.764Z</time></trkpt><trkpt lat="42.6581117" lon="11.6005667"><ele>307.20000000000005</ele><time>2026-04-18T09:27:30.764Z</time></trkpt><trkpt lat="42.6582083" lon="11.6006317"><ele>307.6</ele><time>2026-04-18T09:27:31.764Z</time></trkpt><trkpt lat="42.6583" lon="11.6007"><ele>308.0</ele><time>2026-04-18T09:27:32.764Z</time></trkpt><trkpt lat="42.6583917" lon="11.6007717"><ele>308.0</ele><time>2026-04-18T09:27:33.764Z</time></trkpt><trkpt lat="42.6584833" lon="11.6008517"><ele>308.0</ele><time>2026-04-18T09:27:34.764Z</time></trkpt><trkpt lat="42.65858" lon="11.6009217"><ele>308.0</ele><time>2026-04-18T09:27:35.764Z</time></trkpt><trkpt lat="42.658675" lon="11.60099"><ele>308.0</ele><time>2026-04-18T09:27:36.764Z</time></trkpt><trkpt lat="42.658775" lon="11.6010583"><ele>308.0</ele><time>2026-04-18T09:27:37.764Z</time></trkpt><trkpt lat="42.6588717" lon="11.60113"><ele>308.8</ele><time>2026-04-18T09:27:38.763Z</time></trkpt><trkpt lat="42.6589717" lon="11.6012"><ele>309.6</ele><time>2026-04-18T09:27:39.764Z</time></trkpt><trkpt lat="42.6590633" lon="11.6012667"><ele>310.4</ele><time>2026-04-18T09:27:40.764Z</time></trkpt><trkpt lat="42.6591533" lon="11.6013333"><ele>311.2</ele><time>2026-04-18T09:27:41.764Z</time></trkpt><trkpt lat="42.6592467" lon="11.6014033"><ele>312.0</ele><time>2026-04-18T09:27:42.764Z</time></trkpt><trkpt lat="42.659335" lon="11.601475"><ele>312.0</ele><time>2026-04-18T09:27:43.764Z</time></trkpt><trkpt lat="42.659425" lon="11.6015433"><ele>312.0</ele><time>2026-04-18T09:27:44.764Z</time></trkpt><trkpt lat="42.6595133" lon="11.6016133"><ele>312.0</ele><time>2026-04-18T09:27:45.764Z</time></trkpt><trkpt lat="42.6596" lon="11.601675"><ele>312.0</ele><time>2026-04-18T09:27:46.763Z</time></trkpt><trkpt lat="42.6596933" lon="11.601745"><ele>312.0</ele><time>2026-04-18T09:27:47.764Z</time></trkpt><trkpt lat="42.6597817" lon="11.60181"><ele>313.0</ele><time>2026-04-18T09:27:48.764Z</time></trkpt><trkpt lat="42.659865" lon="11.6018733"><ele>314.0</ele><time>2026-04-18T09:27:49.764Z</time></trkpt><trkpt lat="42.6599483" lon="11.601935"><ele>315.0</ele><time>2026-04-18T09:27:50.764Z</time></trkpt><trkpt lat="42.6600333" lon="11.602"><ele>316.0</ele><time>2026-04-18T09:27:51.764Z</time></trkpt><trkpt lat="42.6601233" lon="11.6020683"><ele>317.0</ele><time>2026-04-18T09:27:52.763Z</time></trkpt><trkpt lat="42.6602133" lon="11.602145"><ele>318.2</ele><time>2026-04-18T09:27:53.764Z</time></trkpt><trkpt lat="42.660315" lon="11.602215"><ele>319.4</ele><time>2026-04-18T09:27:54.763Z</time></trkpt><trkpt lat="42.6604067" lon="11.6022833"><ele>320.59999999999997</ele><time>2026-04-18T09:27:55.764Z</time></trkpt><trkpt lat="42.6604967" lon="11.602355"><ele>321.79999999999995</ele><time>2026-04-18T09:27:56.764Z</time></trkpt><trkpt lat="42.6605867" lon="11.60242"><ele>323.0</ele><time>2026-04-18T09:27:57.764Z</time></trkpt><trkpt lat="42.66067" lon="11.6024917"><ele>323.0</ele><time>2026-04-18T09:27:58.764Z</time></trkpt><trkpt lat="42.66076" lon="11.6025567"><ele>323.0</ele><time>2026-04-18T09:27:59.764Z</time></trkpt><trkpt lat="42.6608367" lon="11.6026167"><ele>323.0</ele><time>2026-04-18T09:28:00.764Z</time></trkpt><trkpt lat="42.66091" lon="11.6026767"><ele>323.0</ele><time>2026-04-18T09:28:01.763Z</time></trkpt><trkpt lat="42.660995" lon="11.602735"><ele>323.0</ele><time>2026-04-18T09:28:02.764Z</time></trkpt><trkpt lat="42.661085" lon="11.6027867"><ele>323.59999999999997</ele><time>2026-04-18T09:28:03.764Z</time></trkpt><trkpt lat="42.6611833" lon="11.602825"><ele>324.2</ele><time>2026-04-18T09:28:04.764Z</time></trkpt><trkpt lat="42.661285" lon="11.6028433"><ele>324.8</ele><time>2026-04-18T09:28:05.764Z</time></trkpt><trkpt lat="42.6613833" lon="11.602845"><ele>325.4</ele><time>2026-04-18T09:28:06.764Z</time></trkpt><trkpt lat="42.6614867" lon="11.602835"><ele>326.0</ele><time>2026-04-18T09:28:07.764Z</time></trkpt><trkpt lat="42.6615883" lon="11.6028083"><ele>326.0</ele><time>2026-04-18T09:28:08.763Z</time></trkpt><trkpt lat="42.6616933" lon="11.602755"><ele>326.0</ele><time>2026-04-18T09:28:09.764Z</time></trkpt><trkpt lat="42.6617917" lon="11.6027017"><ele>326.0</ele><time>2026-04-18T09:28:10.764Z</time></trkpt><trkpt lat="42.6618917" lon="11.6026283"><ele>326.0</ele><time>2026-04-18T09:28:11.764Z</time></trkpt><trkpt lat="42.66199" lon="11.6025483"><ele>326.0</ele><time>2026-04-18T09:28:12.763Z</time></trkpt><trkpt lat="42.66208" lon="11.602475"><ele>327.0</ele><time>2026-04-18T09:28:13.763Z</time></trkpt><trkpt lat="42.6621683" lon="11.6024033"><ele>328.0</ele><time>2026-04-18T09:28:14.764Z</time></trkpt><trkpt lat="42.6622617" lon="11.6023267"><ele>329.0</ele><time>2026-04-18T09:28:15.764Z</time></trkpt><trkpt lat="42.66236" lon="11.60225"><ele>330.0</ele><time>2026-04-18T09:28:16.763Z</time></trkpt><trkpt lat="42.662455" lon="11.6021717"><ele>331.0</ele><time>2026-04-18T09:28:17.764Z</time></trkpt><trkpt lat="42.66255" lon="11.6020983"><ele>331.0</ele><time>2026-04-18T09:28:18.764Z</time></trkpt><trkpt lat="42.662645" lon="11.602025"><ele>331.0</ele><time>2026-04-18T09:28:19.764Z</time></trkpt><trkpt lat="42.6627333" lon="11.6019567"><ele>331.0</ele><time>2026-04-18T09:28:20.764Z</time></trkpt><trkpt lat="42.66281" lon="11.6018933"><ele>331.0</ele><time>2026-04-18T09:28:21.764Z</time></trkpt><trkpt lat="42.66288" lon="11.6018367"><ele>331.0</ele><time>2026-04-18T09:28:22.764Z</time></trkpt><trkpt lat="42.6629583" lon="11.6017867"><ele>330.8333333333333</ele><time>2026-04-18T09:28:23.764Z</time></trkpt><trkpt lat="42.6630267" lon="11.60174"><ele>330.66666666666663</ele><time>2026-04-18T09:28:24.764Z</time></trkpt><trkpt lat="42.6631" lon="11.601695"><ele>330.5</ele><time>2026-04-18T09:28:25.764Z</time></trkpt><trkpt lat="42.6631833" lon="11.601655"><ele>330.3333333333333</ele><time>2026-04-18T09:28:26.764Z</time></trkpt><trkpt lat="42.6632733" lon="11.6016183"><ele>330.1666666666667</ele><time>2026-04-18T09:28:27.764Z</time></trkpt><trkpt lat="42.6633683" lon="11.6015867"><ele>330.0</ele><time>2026-04-18T09:28:28.764Z</time></trkpt><trkpt lat="42.6634617" lon="11.6015533"><ele>330.0</ele><time>2026-04-18T09:28:29.764Z</time></trkpt><trkpt lat="42.663565" lon="11.601535"><ele>330.0</ele><time>2026-04-18T09:28:30.764Z</time></trkpt><trkpt lat="42.66367" lon="11.6015183"><ele>330.0</ele><time>2026-04-18T09:28:31.764Z</time></trkpt><trkpt lat="42.6637733" lon="11.6014967"><ele>330.0</ele><time>2026-04-18T09:28:32.764Z</time></trkpt><trkpt lat="42.663875" lon="11.60147"><ele>330.0</ele><time>2026-04-18T09:28:33.764Z</time></trkpt><trkpt lat="42.6639783" lon="11.6014483"><ele>329.4</ele><time>2026-04-18T09:28:34.764Z</time></trkpt><trkpt lat="42.6640817" lon="11.6014267"><ele>328.8</ele><time>2026-04-18T09:28:35.764Z</time></trkpt><trkpt lat="42.6641917" lon="11.6014033"><ele>328.20000000000005</ele><time>2026-04-18T09:28:36.764Z</time></trkpt><trkpt lat="42.664305" lon="11.6013817"><ele>327.6</ele><time>2026-04-18T09:28:37.764Z</time></trkpt><trkpt lat="42.66441" lon="11.60136"><ele>327.0</ele><time>2026-04-18T09:28:38.764Z</time></trkpt><trkpt lat="42.6645167" lon="11.6013383"><ele>328.6</ele><time>2026-04-18T09:28:39.763Z</time></trkpt><trkpt lat="42.6646233" lon="11.601315"><ele>330.20000000000005</ele><time>2026-04-18T09:28:40.764Z</time></trkpt><trkpt lat="42.6647267" lon="11.601295"><ele>331.8</ele><time>2026-04-18T09:28:41.764Z</time></trkpt><trkpt lat="42.6648283" lon="11.6012733"><ele>333.4</ele><time>2026-04-18T09:28:42.764Z</time></trkpt><trkpt lat="42.6649317" lon="11.60125"><ele>335.0</ele><time>2026-04-18T09:28:43.764Z</time></trkpt><trkpt lat="42.6650367" lon="11.601225"><ele>335.0</ele><time>2026-04-18T09:28:44.764Z</time></trkpt><trkpt lat="42.66514" lon="11.601195"><ele>335.0</ele><time>2026-04-18T09:28:45.764Z</time></trkpt><trkpt lat="42.6652433" lon="11.6011517"><ele>335.0</ele><time>2026-04-18T09:28:46.764Z</time></trkpt><trkpt lat="42.6653433" lon="11.6011"><ele>335.0</ele><time>2026-04-18T09:28:47.764Z</time></trkpt><trkpt lat="42.6654417" lon="11.60104"><ele>335.0</ele><time>2026-04-18T09:28:48.764Z</time></trkpt><trkpt lat="42.665535" lon="11.6009633"><ele>337.0</ele><time>2026-04-18T09:28:49.764Z</time></trkpt><trkpt lat="42.6656217" lon="11.6008817"><ele>339.0</ele><time>2026-04-18T09:28:50.763Z</time></trkpt><trkpt lat="42.66571" lon="11.6008067"><ele>341.0</ele><time>2026-04-18T09:28:51.764Z</time></trkpt><trkpt lat="42.6657917" lon="11.6007317"><ele>343.0</ele><time>2026-04-18T09:28:52.764Z</time></trkpt><trkpt lat="42.665875" lon="11.60065"><ele>345.0</ele><time>2026-04-18T09:28:53.764Z</time></trkpt><trkpt lat="42.665955" lon="11.60057"><ele>345.0</ele><time>2026-04-18T09:28:54.764Z</time></trkpt><trkpt lat="42.6660367" lon="11.6005"><ele>345.0</ele><time>2026-04-18T09:28:55.764Z</time></trkpt><trkpt lat="42.6661267" lon="11.6004317"><ele>345.0</ele><time>2026-04-18T09:28:56.764Z</time></trkpt><trkpt lat="42.666205" lon="11.6003667"><ele>345.0</ele><time>2026-04-18T09:28:57.764Z</time></trkpt><trkpt lat="42.6662817" lon="11.6002983"><ele>345.0</ele><time>2026-04-18T09:28:58.763Z</time></trkpt><trkpt lat="42.6663567" lon="11.6002433"><ele>346.8</ele><time>2026-04-18T09:28:59.764Z</time></trkpt><trkpt lat="42.6664317" lon="11.6001683"><ele>348.6</ele><time>2026-04-18T09:29:00.764Z</time></trkpt><trkpt lat="42.666505" lon="11.6001067"><ele>350.4</ele><time>2026-04-18T09:29:01.764Z</time></trkpt><trkpt lat="42.6665817" lon="11.6000417"><ele>352.2</ele><time>2026-04-18T09:29:02.764Z</time></trkpt><trkpt lat="42.666665" lon="11.5999717"><ele>354.0</ele><time>2026-04-18T09:29:03.764Z</time></trkpt><trkpt lat="42.666745" lon="11.5998917"><ele>354.0</ele><time>2026-04-18T09:29:04.764Z</time></trkpt><trkpt lat="42.6668283" lon="11.59982"><ele>354.0</ele><time>2026-04-18T09:29:05.764Z</time></trkpt><trkpt lat="42.6669133" lon="11.5997433"><ele>354.0</ele><time>2026-04-18T09:29:06.764Z</time></trkpt><trkpt lat="42.6669967" lon="11.599675"><ele>354.0</ele><time>2026-04-18T09:29:07.764Z</time></trkpt><trkpt lat="42.6670883" lon="11.5996"><ele>354.0</ele><time>2026-04-18T09:29:08.764Z</time></trkpt><trkpt lat="42.6671717" lon="11.5995283"><ele>355.4</ele><time>2026-04-18T09:29:09.764Z</time></trkpt><trkpt lat="42.6672517" lon="11.5994533"><ele>356.79999999999995</ele><time>2026-04-18T09:29:10.764Z</time></trkpt><trkpt lat="42.6673383" lon="11.5993767"><ele>358.20000000000005</ele><time>2026-04-18T09:29:11.764Z</time></trkpt><trkpt lat="42.6674217" lon="11.5992967"><ele>359.6</ele><time>2026-04-18T09:29:12.764Z</time></trkpt><trkpt lat="42.6675033" lon="11.5992217"><ele>361.0</ele><time>2026-04-18T09:29:13.763Z</time></trkpt><trkpt lat="42.6675817" lon="11.5991567"><ele>361.0</ele><time>2026-04-18T09:29:14.763Z</time></trkpt><trkpt lat="42.6676567" lon="11.599105"><ele>361.0</ele><time>2026-04-18T09:29:15.764Z</time></trkpt><trkpt lat="42.6677383" lon="11.5990567"><ele>361.0</ele><time>2026-04-18T09:29:16.764Z</time></trkpt><trkpt lat="42.6678183" lon="11.5990317"><ele>361.0</ele><time>2026-04-18T09:29:17.764Z</time></trkpt><trkpt lat="42.6678983" lon="11.59903"><ele>361.0</ele><time>2026-04-18T09:29:18.764Z</time></trkpt><trkpt lat="42.6679867" lon="11.5990467"><ele>361.0</ele><time>2026-04-18T09:29:19.764Z</time></trkpt><trkpt lat="42.66808" lon="11.59907"><ele>362.8</ele><time>2026-04-18T09:29:20.764Z</time></trkpt><trkpt lat="42.66818" lon="11.5990933"><ele>364.6</ele><time>2026-04-18T09:29:21.763Z</time></trkpt><trkpt lat="42.66828" lon="11.5991183"><ele>366.4</ele><time>2026-04-18T09:29:22.764Z</time></trkpt><trkpt lat="42.66837" lon="11.5991433"><ele>368.2</ele><time>2026-04-18T09:29:23.764Z</time></trkpt><trkpt lat="42.66846" lon="11.5991683"><ele>370.0</ele><time>2026-04-18T09:29:24.764Z</time></trkpt><trkpt lat="42.6685417" lon="11.599195"><ele>370.5</ele><time>2026-04-18T09:29:25.764Z</time></trkpt><trkpt lat="42.66862" lon="11.5992183"><ele>371.0</ele><time>2026-04-18T09:29:26.764Z</time></trkpt><trkpt lat="42.668705" lon="11.59922"><ele>371.5</ele><time>2026-04-18T09:29:27.764Z</time></trkpt><trkpt lat="42.66879" lon="11.5991967"><ele>372.0</ele><time>2026-04-18T09:29:28.764Z</time></trkpt><trkpt lat="42.6688733" lon="11.599155"><ele>372.5</ele><time>2026-04-18T09:29:29.764Z</time></trkpt><trkpt lat="42.66894" lon="11.59908"><ele>373.0</ele><time>2026-04-18T09:29:30.764Z</time></trkpt><trkpt lat="42.6690067" lon="11.5989867"><ele>373.0</ele><time>2026-04-18T09:29:31.764Z</time></trkpt><trkpt lat="42.6690517" lon="11.59888"><ele>373.0</ele><time>2026-04-18T09:29:32.764Z</time></trkpt><trkpt lat="42.6690833" lon="11.598755"><ele>373.0</ele><time>2026-04-18T09:29:33.764Z</time></trkpt><trkpt lat="42.6691033" lon="11.5986383"><ele>373.0</ele><time>2026-04-18T09:29:34.764Z</time></trkpt><trkpt lat="42.6691033" lon="11.5985067"><ele>373.0</ele><time>2026-04-18T09:29:35.764Z</time></trkpt><trkpt lat="42.6690867" lon="11.5983867"><ele>375.0</ele><time>2026-04-18T09:29:36.764Z</time></trkpt><trkpt lat="42.6690467" lon="11.598265"><ele>377.0</ele><time>2026-04-18T09:29:37.764Z</time></trkpt><trkpt lat="42.66899" lon="11.598155"><ele>379.0</ele><time>2026-04-18T09:29:38.764Z</time></trkpt><trkpt lat="42.6689267" lon="11.5980383"><ele>381.0</ele><time>2026-04-18T09:29:39.764Z</time></trkpt><trkpt lat="42.6688617" lon="11.597915"><ele>383.0</ele><time>2026-04-18T09:29:40.764Z</time></trkpt><trkpt lat="42.6687933" lon="11.597805"><ele>383.1666666666667</ele><time>2026-04-18T09:29:41.763Z</time></trkpt><trkpt lat="42.6687267" lon="11.5976933"><ele>383.33333333333337</ele><time>2026-04-18T09:29:42.764Z</time></trkpt><trkpt lat="42.6686683" lon="11.59758"><ele>383.5</ele><time>2026-04-18T09:29:43.764Z</time></trkpt><trkpt lat="42.6686217" lon="11.5974817"><ele>383.6666666666667</ele><time>2026-04-18T09:29:44.764Z</time></trkpt><trkpt lat="42.6685883" lon="11.5973883"><ele>383.8333333333333</ele><time>2026-04-18T09:29:45.764Z</time></trkpt><trkpt lat="42.6685683" lon="11.5972983"><ele>384.0</ele><time>2026-04-18T09:29:46.764Z</time></trkpt><trkpt lat="42.6685667" lon="11.5971917"><ele>383.99999999999994</ele><time>2026-04-18T09:29:47.764Z</time></trkpt><trkpt lat="42.6685767" lon="11.5970867"><ele>384.0</ele><time>2026-04-18T09:29:48.764Z</time></trkpt><trkpt lat="42.6685983" lon="11.596985"><ele>384.0</ele><time>2026-04-18T09:29:49.764Z</time></trkpt><trkpt lat="42.6686333" lon="11.5969017"><ele>384.0</ele><time>2026-04-18T09:29:50.764Z</time></trkpt><trkpt lat="42.668685" lon="11.5968367"><ele>384.0</ele><time>2026-04-18T09:29:51.764Z</time></trkpt><trkpt lat="42.6687467" lon="11.5967917"><ele>383.99999999999994</ele><time>2026-04-18T09:29:52.764Z</time></trkpt><trkpt lat="42.668815" lon="11.5967583"><ele>384.0</ele><time>2026-04-18T09:29:53.764Z</time></trkpt><trkpt lat="42.6688883" lon="11.5967383"><ele>386.6</ele><time>2026-04-18T09:29:54.764Z</time></trkpt><trkpt lat="42.669005" lon="11.5967517"><ele>389.2</ele><time>2026-04-18T09:29:56.764Z</time></trkpt><trkpt lat="42.6690633" lon="11.5967883"><ele>391.8</ele><time>2026-04-18T09:29:57.764Z</time></trkpt><trkpt lat="42.6691833" lon="11.596875"><ele>394.40000000000003</ele><time>2026-04-18T09:29:59.764Z</time></trkpt><trkpt lat="42.6692483" lon="11.5969367"><ele>397.0</ele><time>2026-04-18T09:30:00.764Z</time></trkpt><trkpt lat="42.66932" lon="11.5970017"><ele>396.6</ele><time>2026-04-18T09:30:01.764Z</time></trkpt><trkpt lat="42.6693983" lon="11.5970667"><ele>396.20000000000005</ele><time>2026-04-18T09:30:02.764Z</time></trkpt><trkpt lat="42.66948" lon="11.5971417"><ele>395.8</ele><time>2026-04-18T09:30:03.764Z</time></trkpt><trkpt lat="42.6695617" lon="11.5972267"><ele>395.4</ele><time>2026-04-18T09:30:04.763Z</time></trkpt><trkpt lat="42.6696483" lon="11.59731"><ele>395.0</ele><time>2026-04-18T09:30:05.764Z</time></trkpt><trkpt lat="42.6697383" lon="11.597395"><ele>397.2</ele><time>2026-04-18T09:30:06.764Z</time></trkpt><trkpt lat="42.6698283" lon="11.5974667"><ele>399.4</ele><time>2026-04-18T09:30:07.764Z</time></trkpt><trkpt lat="42.6699117" lon="11.5975333"><ele>401.6</ele><time>2026-04-18T09:30:08.764Z</time></trkpt><trkpt lat="42.66999" lon="11.5975967"><ele>403.8</ele><time>2026-04-18T09:30:09.764Z</time></trkpt><trkpt lat="42.6700717" lon="11.5976317"><ele>406.0</ele><time>2026-04-18T09:30:10.764Z</time></trkpt><trkpt lat="42.6701467" lon="11.5976617"><ele>406.0</ele><time>2026-04-18T09:30:11.764Z</time></trkpt><trkpt lat="42.670225" lon="11.5976783"><ele>406.0</ele><time>2026-04-18T09:30:12.763Z</time></trkpt><trkpt lat="42.6703" lon="11.5976883"><ele>406.0</ele><time>2026-04-18T09:30:13.764Z</time></trkpt><trkpt lat="42.6703767" lon="11.5977033"><ele>406.0</ele><time>2026-04-18T09:30:14.764Z</time></trkpt><trkpt lat="42.67045" lon="11.597715"><ele>406.0</ele><time>2026-04-18T09:30:15.764Z</time></trkpt><trkpt lat="42.6705217" lon="11.5977267"><ele>406.0</ele><time>2026-04-18T09:30:16.764Z</time></trkpt><trkpt lat="42.6705917" lon="11.5977417"><ele>406.0</ele><time>2026-04-18T09:30:17.764Z</time></trkpt><trkpt lat="42.670665" lon="11.5977683"><ele>405.83333333333337</ele><time>2026-04-18T09:30:18.764Z</time></trkpt><trkpt lat="42.6707383" lon="11.5978017"><ele>405.6666666666667</ele><time>2026-04-18T09:30:19.764Z</time></trkpt><trkpt lat="42.6708183" lon="11.5978333"><ele>405.5</ele><time>2026-04-18T09:30:20.764Z</time></trkpt><trkpt lat="42.6709" lon="11.5978667"><ele>405.33333333333337</ele><time>2026-04-18T09:30:21.764Z</time></trkpt><trkpt lat="42.6709817" lon="11.5979067"><ele>405.1666666666667</ele><time>2026-04-18T09:30:22.764Z</time></trkpt><trkpt lat="42.6710583" lon="11.5979533"><ele>405.0</ele><time>2026-04-18T09:30:23.763Z</time></trkpt><trkpt lat="42.67114" lon="11.5980133"><ele>406.6</ele><time>2026-04-18T09:30:24.764Z</time></trkpt><trkpt lat="42.6712283" lon="11.598065"><ele>408.2</ele><time>2026-04-18T09:30:25.764Z</time></trkpt><trkpt lat="42.67132" lon="11.5981233"><ele>409.79999999999995</ele><time>2026-04-18T09:30:26.764Z</time></trkpt><trkpt lat="42.6714183" lon="11.5981767"><ele>411.4</ele><time>2026-04-18T09:30:27.764Z</time></trkpt><trkpt lat="42.6715167" lon="11.5982267"><ele>413.0</ele><time>2026-04-18T09:30:28.764Z</time></trkpt><trkpt lat="42.6716167" lon="11.5982783"><ele>412.99999999999994</ele><time>2026-04-18T09:30:29.764Z</time></trkpt><trkpt lat="42.6717067" lon="11.59833"><ele>413.0</ele><time>2026-04-18T09:30:30.764Z</time></trkpt><trkpt lat="42.6717917" lon="11.5983933"><ele>413.0</ele><time>2026-04-18T09:30:31.764Z</time></trkpt><trkpt lat="42.671865" lon="11.5984517"><ele>413.0</ele><time>2026-04-18T09:30:32.763Z</time></trkpt><trkpt lat="42.6719233" lon="11.5985183"><ele>412.99999999999994</ele><time>2026-04-18T09:30:33.764Z</time></trkpt><trkpt lat="42.6719767" lon="11.5986"><ele>413.0</ele><time>2026-04-18T09:30:34.764Z</time></trkpt><trkpt lat="42.672025" lon="11.5987"><ele>415.4</ele><time>2026-04-18T09:30:35.764Z</time></trkpt><trkpt lat="42.67207" lon="11.59881"><ele>417.79999999999995</ele><time>2026-04-18T09:30:36.764Z</time></trkpt><trkpt lat="42.6721067" lon="11.5989383"><ele>420.2</ele><time>2026-04-18T09:30:37.764Z</time></trkpt><trkpt lat="42.6721383" lon="11.5990667"><ele>422.6</ele><time>2026-04-18T09:30:38.764Z</time></trkpt><trkpt lat="42.672175" lon="11.5992067"><ele>425.0</ele><time>2026-04-18T09:30:39.764Z</time></trkpt><trkpt lat="42.6722133" lon="11.5993533"><ele>425.0</ele><time>2026-04-18T09:30:40.764Z</time></trkpt><trkpt lat="42.6722467" lon="11.5995"><ele>425.0</ele><time>2026-04-18T09:30:41.764Z</time></trkpt><trkpt lat="42.6722817" lon="11.599645"><ele>425.0</ele><time>2026-04-18T09:30:42.764Z</time></trkpt><trkpt lat="42.6723217" lon="11.599775"><ele>425.0</ele><time>2026-04-18T09:30:43.764Z</time></trkpt><trkpt lat="42.67237" lon="11.5998967"><ele>425.0</ele><time>2026-04-18T09:30:44.764Z</time></trkpt><trkpt lat="42.67243" lon="11.5999933"><ele>425.2</ele><time>2026-04-18T09:30:45.764Z</time></trkpt><trkpt lat="42.6724967" lon="11.6000717"><ele>425.4</ele><time>2026-04-18T09:30:46.764Z</time></trkpt><trkpt lat="42.6725733" lon="11.60013"><ele>425.6</ele><time>2026-04-18T09:30:47.764Z</time></trkpt><trkpt lat="42.6726633" lon="11.60017"><ele>425.8</ele><time>2026-04-18T09:30:48.764Z</time></trkpt><trkpt lat="42.6727617" lon="11.6002017"><ele>426.0</ele><time>2026-04-18T09:30:49.764Z</time></trkpt><trkpt lat="42.6728633" lon="11.6002183"><ele>426.0</ele><time>2026-04-18T09:30:50.764Z</time></trkpt><trkpt lat="42.6729633" lon="11.6002183"><ele>426.0</ele><time>2026-04-18T09:30:51.763Z</time></trkpt><trkpt lat="42.673055" lon="11.60019"><ele>426.0</ele><time>2026-04-18T09:30:52.764Z</time></trkpt><trkpt lat="42.6731367" lon="11.60015"><ele>426.0</ele><time>2026-04-18T09:30:53.764Z</time></trkpt><trkpt lat="42.67322" lon="11.6001"><ele>426.0</ele><time>2026-04-18T09:30:54.764Z</time></trkpt><trkpt lat="42.673295" lon="11.600025"><ele>426.0</ele><time>2026-04-18T09:30:55.763Z</time></trkpt><trkpt lat="42.67336" lon="11.5999417"><ele>426.0</ele><time>2026-04-18T09:30:56.764Z</time></trkpt><trkpt lat="42.673415" lon="11.599845"><ele>426.0</ele><time>2026-04-18T09:30:57.764Z</time></trkpt><trkpt lat="42.6734583" lon="11.5997367"><ele>426.0</ele><time>2026-04-18T09:30:58.764Z</time></trkpt><trkpt lat="42.6734833" lon="11.599625"><ele>426.0</ele><time>2026-04-18T09:30:59.764Z</time></trkpt><trkpt lat="42.6734983" lon="11.599505"><ele>426.0</ele><time>2026-04-18T09:31:00.764Z</time></trkpt><trkpt lat="42.673505" lon="11.599385"><ele>426.8</ele><time>2026-04-18T09:31:01.763Z</time></trkpt><trkpt lat="42.6734967" lon="11.5992667"><ele>427.6</ele><time>2026-04-18T09:31:02.764Z</time></trkpt><trkpt lat="42.6734767" lon="11.5991483"><ele>428.4</ele><time>2026-04-18T09:31:03.764Z</time></trkpt><trkpt lat="42.67344" lon="11.5990333"><ele>429.2</ele><time>2026-04-18T09:31:04.764Z</time></trkpt><trkpt lat="42.673385" lon="11.59893"><ele>430.0</ele><time>2026-04-18T09:31:05.764Z</time></trkpt><trkpt lat="42.6733283" lon="11.598825"><ele>430.00000000000006</ele><time>2026-04-18T09:31:06.764Z</time></trkpt><trkpt lat="42.6732633" lon="11.5987317"><ele>430.0</ele><time>2026-04-18T09:31:07.764Z</time></trkpt><trkpt lat="42.6732" lon="11.5986433"><ele>430.0</ele><time>2026-04-18T09:31:08.764Z</time></trkpt><trkpt lat="42.6731417" lon="11.5985633"><ele>430.0</ele><time>2026-04-18T09:31:09.764Z</time></trkpt><trkpt lat="42.673085" lon="11.598495"><ele>430.00000000000006</ele><time>2026-04-18T09:31:10.764Z</time></trkpt><trkpt lat="42.67304" lon="11.59843"><ele>430.0</ele><time>2026-04-18T09:31:11.764Z</time></trkpt><trkpt lat="42.6729917" lon="11.5983417"><ele>430.0</ele><time>2026-04-18T09:31:13.764Z</time></trkpt><trkpt lat="42.673" lon="11.59844"><ele>430.0</ele><time>2026-04-18T09:31:32.764Z</time></trkpt><trkpt lat="42.67308" lon="11.5985467"><ele>430.0</ele><time>2026-04-18T09:31:34.764Z</time></trkpt><trkpt lat="42.6731217" lon="11.5986117"><ele>430.0</ele><time>2026-04-18T09:31:35.764Z</time></trkpt><trkpt lat="42.6732117" lon="11.5987333"><ele>430.0</ele><time>2026-04-18T09:31:37.764Z</time></trkpt><trkpt lat="42.6733033" lon="11.598845"><ele>430.0</ele><time>2026-04-18T09:31:39.764Z</time></trkpt><trkpt lat="42.6733417" lon="11.5989183"><ele>430.0</ele><time>2026-04-18T09:31:40.764Z</time></trkpt><trkpt lat="42.67338" lon="11.5989933"><ele>430.0</ele><time>2026-04-18T09:31:41.764Z</time></trkpt><trkpt lat="42.6734183" lon="11.5990717"><ele>430.0</ele><time>2026-04-18T09:31:42.764Z</time></trkpt><trkpt lat="42.6734433" lon="11.5991533"><ele>430.0</ele><time>2026-04-18T09:31:43.764Z</time></trkpt><trkpt lat="42.6734633" lon="11.5992467"><ele>430.0</ele><time>2026-04-18T09:31:44.764Z</time></trkpt><trkpt lat="42.6734683" lon="11.599345"><ele>430.0</ele><time>2026-04-18T09:31:45.764Z</time></trkpt><trkpt lat="42.6734667" lon="11.5994417"><ele>429.4285714285714</ele><time>2026-04-18T09:31:46.764Z</time></trkpt><trkpt lat="42.67346" lon="11.5995417"><ele>428.8571428571429</ele><time>2026-04-18T09:31:47.764Z</time></trkpt><trkpt lat="42.673445" lon="11.5996333"><ele>428.2857142857143</ele><time>2026-04-18T09:31:48.764Z</time></trkpt><trkpt lat="42.6734217" lon="11.59972"><ele>427.71428571428567</ele><time>2026-04-18T09:31:49.764Z</time></trkpt><trkpt lat="42.67339" lon="11.599805"><ele>427.1428571428571</ele><time>2026-04-18T09:31:50.764Z</time></trkpt><trkpt lat="42.6733433" lon="11.5998833"><ele>426.57142857142856</ele><time>2026-04-18T09:31:51.764Z</time></trkpt><trkpt lat="42.6732933" lon="11.59996"><ele>426.0</ele><time>2026-04-18T09:31:52.764Z</time></trkpt><trkpt lat="42.6732317" lon="11.6000283"><ele>426.0</ele><time>2026-04-18T09:31:53.764Z</time></trkpt><trkpt lat="42.6731717" lon="11.6000833"><ele>426.0</ele><time>2026-04-18T09:31:54.764Z</time></trkpt><trkpt lat="42.6731017" lon="11.6001283"><ele>426.0</ele><time>2026-04-18T09:31:55.764Z</time></trkpt><trkpt lat="42.673025" lon="11.6001533"><ele>426.0</ele><time>2026-04-18T09:31:56.764Z</time></trkpt><trkpt lat="42.6729433" lon="11.6001717"><ele>426.0</ele><time>2026-04-18T09:31:57.764Z</time></trkpt><trkpt lat="42.672855" lon="11.6001733"><ele>426.0</ele><time>2026-04-18T09:31:58.764Z</time></trkpt><trkpt lat="42.6727683" lon="11.6001567"><ele>424.8</ele><time>2026-04-18T09:31:59.763Z</time></trkpt><trkpt lat="42.6726783" lon="11.6001267"><ele>423.6</ele><time>2026-04-18T09:32:00.764Z</time></trkpt><trkpt lat="42.6725967" lon="11.60007"><ele>422.4</ele><time>2026-04-18T09:32:01.764Z</time></trkpt><trkpt lat="42.6725317" lon="11.599995"><ele>421.2</ele><time>2026-04-18T09:32:02.764Z</time></trkpt><trkpt lat="42.6724583" lon="11.599915"><ele>420.0</ele><time>2026-04-18T09:32:03.764Z</time></trkpt><trkpt lat="42.6723967" lon="11.5998183"><ele>420.0</ele><time>2026-04-18T09:32:04.764Z</time></trkpt><trkpt lat="42.6723483" lon="11.5997"><ele>420.0</ele><time>2026-04-18T09:32:05.764Z</time></trkpt><trkpt lat="42.67231" lon="11.59958"><ele>420.0</ele><time>2026-04-18T09:32:06.764Z</time></trkpt><trkpt lat="42.6722783" lon="11.59945"><ele>420.0</ele><time>2026-04-18T09:32:07.764Z</time></trkpt><trkpt lat="42.6722467" lon="11.5993183"><ele>420.0</ele><time>2026-04-18T09:32:08.764Z</time></trkpt><trkpt lat="42.6722167" lon="11.599185"><ele>421.0</ele><time>2026-04-18T09:32:09.764Z</time></trkpt><trkpt lat="42.6721817" lon="11.5990567"><ele>422.0</ele><time>2026-04-18T09:32:10.764Z</time></trkpt><trkpt lat="42.6721517" lon="11.5989317"><ele>423.0</ele><time>2026-04-18T09:32:11.764Z</time></trkpt><trkpt lat="42.6721167" lon="11.598795"><ele>424.0</ele><time>2026-04-18T09:32:12.763Z</time></trkpt><trkpt lat="42.672075" lon="11.5986683"><ele>425.0</ele><time>2026-04-18T09:32:13.764Z</time></trkpt><trkpt lat="42.67202" lon="11.59856"><ele>425.8</ele><time>2026-04-18T09:32:14.764Z</time></trkpt><trkpt lat="42.6719533" lon="11.5984717"><ele>426.6</ele><time>2026-04-18T09:32:15.764Z</time></trkpt><trkpt lat="42.6718717" lon="11.5984017"><ele>427.4</ele><time>2026-04-18T09:32:16.764Z</time></trkpt><trkpt lat="42.6717833" lon="11.5983333"><ele>428.2</ele><time>2026-04-18T09:32:17.764Z</time></trkpt><trkpt lat="42.6716933" lon="11.5982767"><ele>429.0</ele><time>2026-04-18T09:32:18.764Z</time></trkpt><trkpt lat="42.671605" lon="11.5982233"><ele>425.79999999999995</ele><time>2026-04-18T09:32:19.764Z</time></trkpt><trkpt lat="42.671515" lon="11.59817"><ele>422.59999999999997</ele><time>2026-04-18T09:32:20.764Z</time></trkpt><trkpt lat="42.6714267" lon="11.5981217"><ele>419.4</ele><time>2026-04-18T09:32:21.764Z</time></trkpt><trkpt lat="42.6713367" lon="11.5980733"><ele>416.2</ele><time>2026-04-18T09:32:22.764Z</time></trkpt><trkpt lat="42.6712583" lon="11.5980267"><ele>413.0</ele><time>2026-04-18T09:32:23.764Z</time></trkpt><trkpt lat="42.6711783" lon="11.5979783"><ele>413.99999999999994</ele><time>2026-04-18T09:32:24.764Z</time></trkpt><trkpt lat="42.671105" lon="11.5979317"><ele>415.0</ele><time>2026-04-18T09:32:25.764Z</time></trkpt><trkpt lat="42.671035" lon="11.5978883"><ele>416.0</ele><time>2026-04-18T09:32:26.764Z</time></trkpt><trkpt lat="42.6709617" lon="11.59785"><ele>417.0</ele><time>2026-04-18T09:32:27.764Z</time></trkpt><trkpt lat="42.6708917" lon="11.597815"><ele>417.99999999999994</ele><time>2026-04-18T09:32:28.764Z</time></trkpt><trkpt lat="42.6708183" lon="11.5977767"><ele>419.0</ele><time>2026-04-18T09:32:29.764Z</time></trkpt><trkpt lat="42.6707467" lon="11.5977417"><ele>418.99999999999994</ele><time>2026-04-18T09:32:30.764Z</time></trkpt><trkpt lat="42.6706783" lon="11.5977083"><ele>419.0</ele><time>2026-04-18T09:32:31.764Z</time></trkpt><trkpt lat="42.6706067" lon="11.59769"><ele>419.0</ele><time>2026-04-18T09:32:32.764Z</time></trkpt><trkpt lat="42.6705367" lon="11.597675"><ele>419.0</ele><time>2026-04-18T09:32:33.764Z</time></trkpt><trkpt lat="42.6704683" lon="11.5976633"><ele>418.99999999999994</ele><time>2026-04-18T09:32:34.764Z</time></trkpt><trkpt lat="42.670405" lon="11.59765"><ele>419.0</ele><time>2026-04-18T09:32:35.763Z</time></trkpt><trkpt lat="42.6702833" lon="11.59765"><ele>416.4</ele><time>2026-04-18T09:32:37.764Z</time></trkpt><trkpt lat="42.67017" lon="11.5976417"><ele>413.79999999999995</ele><time>2026-04-18T09:32:39.763Z</time></trkpt><trkpt lat="42.6700667" lon="11.5976133"><ele>411.20000000000005</ele><time>2026-04-18T09:32:41.764Z</time></trkpt><trkpt lat="42.66996" lon="11.5975633"><ele>408.6</ele><time>2026-04-18T09:32:43.763Z</time></trkpt><trkpt lat="42.66987" lon="11.5974783"><ele>406.0</ele><time>2026-04-18T09:32:45.764Z</time></trkpt><trkpt lat="42.6697733" lon="11.5974067"><ele>406.0</ele><time>2026-04-18T09:32:47.764Z</time></trkpt><trkpt lat="42.66969" lon="11.5973183"><ele>406.0</ele><time>2026-04-18T09:32:49.764Z</time></trkpt><trkpt lat="42.6695933" lon="11.59723"><ele>406.0</ele><time>2026-04-18T09:32:51.764Z</time></trkpt><trkpt lat="42.669505" lon="11.59715"><ele>406.0</ele><time>2026-04-18T09:32:53.764Z</time></trkpt><trkpt lat="42.66941" lon="11.5970633"><ele>406.0</ele><time>2026-04-18T09:32:55.764Z</time></trkpt><trkpt lat="42.6693117" lon="11.5969767"><ele>404.20000000000005</ele><time>2026-04-18T09:32:57.764Z</time></trkpt><trkpt lat="42.6692217" lon="11.5968983"><ele>402.40000000000003</ele><time>2026-04-18T09:32:59.764Z</time></trkpt><trkpt lat="42.66913" lon="11.596815"><ele>400.6</ele><time>2026-04-18T09:33:01.764Z</time></trkpt><trkpt lat="42.6690367" lon="11.596745"><ele>398.8</ele><time>2026-04-18T09:33:03.764Z</time></trkpt><trkpt lat="42.6689317" lon="11.59671"><ele>397.0</ele><time>2026-04-18T09:33:05.764Z</time></trkpt><trkpt lat="42.6688683" lon="11.5967117"><ele>397.0</ele><time>2026-04-18T09:33:06.764Z</time></trkpt><trkpt lat="42.668805" lon="11.5967183"><ele>397.0</ele><time>2026-04-18T09:33:07.764Z</time></trkpt><trkpt lat="42.6687417" lon="11.5967417"><ele>397.0</ele><time>2026-04-18T09:33:08.764Z</time></trkpt><trkpt lat="42.6686733" lon="11.5967833"><ele>397.0</ele><time>2026-04-18T09:33:09.764Z</time></trkpt><trkpt lat="42.6686183" lon="11.5968417"><ele>397.0</ele><time>2026-04-18T09:33:10.764Z</time></trkpt><trkpt lat="42.6685717" lon="11.5969133"><ele>397.0</ele><time>2026-04-18T09:33:11.764Z</time></trkpt><trkpt lat="42.6685417" lon="11.5969917"><ele>397.0</ele><time>2026-04-18T09:33:12.764Z</time></trkpt><trkpt lat="42.6685283" lon="11.5970767"><ele>396.6</ele><time>2026-04-18T09:33:13.764Z</time></trkpt><trkpt lat="42.668525" lon="11.597165"><ele>396.20000000000005</ele><time>2026-04-18T09:33:14.764Z</time></trkpt><trkpt lat="42.6685383" lon="11.5973317"><ele>395.8</ele><time>2026-04-18T09:33:16.764Z</time></trkpt><trkpt lat="42.6685783" lon="11.597485"><ele>395.4</ele><time>2026-04-18T09:33:18.764Z</time></trkpt><trkpt lat="42.66865" lon="11.5976367"><ele>395.0</ele><time>2026-04-18T09:33:20.763Z</time></trkpt><trkpt lat="42.6686917" lon="11.5977167"><ele>395.0</ele><time>2026-04-18T09:33:21.764Z</time></trkpt><trkpt lat="42.6687333" lon="11.5978"><ele>395.0</ele><time>2026-04-18T09:33:22.763Z</time></trkpt><trkpt lat="42.6687767" lon="11.59788"><ele>395.0</ele><time>2026-04-18T09:33:23.764Z</time></trkpt><trkpt lat="42.6688217" lon="11.597955"><ele>395.0</ele><time>2026-04-18T09:33:24.764Z</time></trkpt><trkpt lat="42.6688667" lon="11.5980267"><ele>395.0</ele><time>2026-04-18T09:33:25.764Z</time></trkpt><trkpt lat="42.66891" lon="11.5981"><ele>395.0</ele><time>2026-04-18T09:33:26.764Z</time></trkpt><trkpt lat="42.668955" lon="11.5981783"><ele>395.0</ele><time>2026-04-18T09:33:27.763Z</time></trkpt><trkpt lat="42.6689933" lon="11.5982583"><ele>392.99999999999994</ele><time>2026-04-18T09:33:28.763Z</time></trkpt><trkpt lat="42.6690283" lon="11.5983517"><ele>391.0</ele><time>2026-04-18T09:33:29.764Z</time></trkpt><trkpt lat="42.669045" lon="11.59844"><ele>389.0</ele><time>2026-04-18T09:33:30.764Z</time></trkpt><trkpt lat="42.66905" lon="11.5985283"><ele>387.0</ele><time>2026-04-18T09:33:31.764Z</time></trkpt><trkpt lat="42.6690433" lon="11.5986933"><ele>385.0</ele><time>2026-04-18T09:33:33.764Z</time></trkpt><trkpt lat="42.66902" lon="11.59882"><ele>383.0</ele><time>2026-04-18T09:33:35.764Z</time></trkpt><trkpt lat="42.6689867" lon="11.5989367"><ele>381.0</ele><time>2026-04-18T09:33:37.764Z</time></trkpt><trkpt lat="42.6689167" lon="11.599035"><ele>379.0</ele><time>2026-04-18T09:33:39.764Z</time></trkpt><trkpt lat="42.66884" lon="11.5991083"><ele>377.0</ele><time>2026-04-18T09:33:41.764Z</time></trkpt><trkpt lat="42.668735" lon="11.599155"><ele>375.0</ele><time>2026-04-18T09:33:43.764Z</time></trkpt><trkpt lat="42.6686717" lon="11.5991733"><ele>373.0</ele><time>2026-04-18T09:33:44.764Z</time></trkpt><trkpt lat="42.6685517" lon="11.599175"><ele>372.25</ele><time>2026-04-18T09:33:46.764Z</time></trkpt><trkpt lat="42.6684333" lon="11.5991417"><ele>371.5</ele><time>2026-04-18T09:33:48.764Z</time></trkpt><trkpt lat="42.6683183" lon="11.599095"><ele>370.75</ele><time>2026-04-18T09:33:50.763Z</time></trkpt><trkpt lat="42.6682017" lon="11.5990567"><ele>370.0</ele><time>2026-04-18T09:33:52.764Z</time></trkpt><trkpt lat="42.6681" lon="11.5990417"><ele>370.0</ele><time>2026-04-18T09:33:54.764Z</time></trkpt><trkpt lat="42.668005" lon="11.599015"><ele>370.0</ele><time>2026-04-18T09:33:56.764Z</time></trkpt><trkpt lat="42.6679217" lon="11.5989933"><ele>370.0</ele><time>2026-04-18T09:33:58.764Z</time></trkpt><trkpt lat="42.6678383" lon="11.598995"><ele>370.0</ele><time>2026-04-18T09:34:00.764Z</time></trkpt><trkpt lat="42.6677367" lon="11.5990283"><ele>370.0</ele><time>2026-04-18T09:34:02.764Z</time></trkpt><trkpt lat="42.6676283" lon="11.5990817"><ele>368.2</ele><time>2026-04-18T09:34:04.764Z</time></trkpt><trkpt lat="42.6675367" lon="11.5991433"><ele>366.4</ele><time>2026-04-18T09:34:06.764Z</time></trkpt><trkpt lat="42.6674583" lon="11.5992083"><ele>364.6</ele><time>2026-04-18T09:34:08.764Z</time></trkpt><trkpt lat="42.6673733" lon="11.59927"><ele>362.8</ele><time>2026-04-18T09:34:10.764Z</time></trkpt><trkpt lat="42.6673017" lon="11.5993367"><ele>361.0</ele><time>2026-04-18T09:34:12.764Z</time></trkpt><trkpt lat="42.6672217" lon="11.599405"><ele>361.0</ele><time>2026-04-18T09:34:14.764Z</time></trkpt><trkpt lat="42.6671617" lon="11.5994583"><ele>361.0</ele><time>2026-04-18T09:34:16.764Z</time></trkpt><trkpt lat="42.667095" lon="11.5995083"><ele>361.0</ele><time>2026-04-18T09:34:18.763Z</time></trkpt><trkpt lat="42.6670267" lon="11.599575"><ele>361.0</ele><time>2026-04-18T09:34:20.764Z</time></trkpt><trkpt lat="42.66696" lon="11.5996383"><ele>361.0</ele><time>2026-04-18T09:34:22.764Z</time></trkpt><trkpt lat="42.6668967" lon="11.5996883"><ele>361.0</ele><time>2026-04-18T09:34:24.764Z</time></trkpt><trkpt lat="42.66683" lon="11.599745"><ele>359.6</ele><time>2026-04-18T09:34:26.764Z</time></trkpt><trkpt lat="42.6667717" lon="11.599795"><ele>358.20000000000005</ele><time>2026-04-18T09:34:28.764Z</time></trkpt><trkpt lat="42.6667" lon="11.59986"><ele>356.79999999999995</ele><time>2026-04-18T09:34:30.764Z</time></trkpt><trkpt lat="42.6666217" lon="11.5999317"><ele>355.4</ele><time>2026-04-18T09:34:32.764Z</time></trkpt><trkpt lat="42.6665383" lon="11.6"><ele>354.0</ele><time>2026-04-18T09:34:34.763Z</time></trkpt><trkpt lat="42.6664533" lon="11.6000817"><ele>354.0</ele><time>2026-04-18T09:34:36.764Z</time></trkpt><trkpt lat="42.6663767" lon="11.6001483"><ele>354.0</ele><time>2026-04-18T09:34:38.764Z</time></trkpt><trkpt lat="42.666305" lon="11.6002117"><ele>354.0</ele><time>2026-04-18T09:34:40.764Z</time></trkpt><trkpt lat="42.6662317" lon="11.600275"><ele>354.0</ele><time>2026-04-18T09:34:42.764Z</time></trkpt><trkpt lat="42.6661517" lon="11.600335"><ele>354.0</ele><time>2026-04-18T09:34:44.764Z</time></trkpt><trkpt lat="42.66608" lon="11.6004083"><ele>354.0</ele><time>2026-04-18T09:34:46.764Z</time></trkpt><trkpt lat="42.666" lon="11.600475"><ele>352.2</ele><time>2026-04-18T09:34:48.764Z</time></trkpt><trkpt lat="42.665915" lon="11.60055"><ele>350.4</ele><time>2026-04-18T09:34:50.764Z</time></trkpt><trkpt lat="42.6658383" lon="11.6006183"><ele>348.6</ele><time>2026-04-18T09:34:52.764Z</time></trkpt><trkpt lat="42.665765" lon="11.6006767"><ele>346.8</ele><time>2026-04-18T09:34:54.764Z</time></trkpt><trkpt lat="42.6656867" lon="11.6007483"><ele>345.0</ele><time>2026-04-18T09:34:56.764Z</time></trkpt><trkpt lat="42.6656033" lon="11.6008283"><ele>345.0</ele><time>2026-04-18T09:34:58.764Z</time></trkpt><trkpt lat="42.6655217" lon="11.6008917"><ele>345.0</ele><time>2026-04-18T09:35:00.764Z</time></trkpt><trkpt lat="42.665445" lon="11.6009617"><ele>345.0</ele><time>2026-04-18T09:35:02.764Z</time></trkpt><trkpt lat="42.6653567" lon="11.6010217"><ele>345.0</ele><time>2026-04-18T09:35:04.763Z</time></trkpt><trkpt lat="42.6652717" lon="11.601075"><ele>345.0</ele><time>2026-04-18T09:35:06.764Z</time></trkpt><trkpt lat="42.6652033" lon="11.60111"><ele>343.8333333333333</ele><time>2026-04-18T09:35:08.764Z</time></trkpt><trkpt lat="42.6651383" lon="11.6011383"><ele>342.6666666666667</ele><time>2026-04-18T09:35:10.764Z</time></trkpt><trkpt lat="42.6650667" lon="11.60116"><ele>341.5</ele><time>2026-04-18T09:35:12.764Z</time></trkpt><trkpt lat="42.664985" lon="11.601175"><ele>340.33333333333337</ele><time>2026-04-18T09:35:14.764Z</time></trkpt><trkpt lat="42.6648967" lon="11.601195"><ele>339.1666666666667</ele><time>2026-04-18T09:35:16.764Z</time></trkpt><trkpt lat="42.6648083" lon="11.60122"><ele>338.0</ele><time>2026-04-18T09:35:18.763Z</time></trkpt><trkpt lat="42.6647233" lon="11.6012383"><ele>337.4</ele><time>2026-04-18T09:35:20.764Z</time></trkpt><trkpt lat="42.6646433" lon="11.6012483"><ele>336.79999999999995</ele><time>2026-04-18T09:35:22.764Z</time></trkpt><trkpt lat="42.664565" lon="11.6012633"><ele>336.2</ele><time>2026-04-18T09:35:24.764Z</time></trkpt><trkpt lat="42.6644667" lon="11.6012783"><ele>335.6</ele><time>2026-04-18T09:35:26.764Z</time></trkpt><trkpt lat="42.6643683" lon="11.6013033"><ele>335.0</ele><time>2026-04-18T09:35:28.764Z</time></trkpt><trkpt lat="42.6642617" lon="11.601325"><ele>333.4</ele><time>2026-04-18T09:35:30.764Z</time></trkpt><trkpt lat="42.6641667" lon="11.6013517"><ele>331.8</ele><time>2026-04-18T09:35:32.763Z</time></trkpt><trkpt lat="42.664075" lon="11.60137"><ele>330.20000000000005</ele><time>2026-04-18T09:35:34.764Z</time></trkpt><trkpt lat="42.6639767" lon="11.6013867"><ele>328.6</ele><time>2026-04-18T09:35:36.764Z</time></trkpt><trkpt lat="42.6638767" lon="11.60141"><ele>327.0</ele><time>2026-04-18T09:35:38.764Z</time></trkpt><trkpt lat="42.6637683" lon="11.6014283"><ele>327.0</ele><time>2026-04-18T09:35:40.764Z</time></trkpt><trkpt lat="42.663675" lon="11.6014567"><ele>327.0</ele><time>2026-04-18T09:35:42.764Z</time></trkpt><trkpt lat="42.663585" lon="11.6014733"><ele>327.0</ele><time>2026-04-18T09:35:44.764Z</time></trkpt><trkpt lat="42.6634967" lon="11.60149"><ele>327.0</ele><time>2026-04-18T09:35:46.764Z</time></trkpt><trkpt lat="42.6633917" lon="11.60152"><ele>327.0</ele><time>2026-04-18T09:35:48.764Z</time></trkpt><trkpt lat="42.6632917" lon="11.60155"><ele>327.6</ele><time>2026-04-18T09:35:50.764Z</time></trkpt><trkpt lat="42.6631883" lon="11.60159"><ele>328.20000000000005</ele><time>2026-04-18T09:35:52.763Z</time></trkpt><trkpt lat="42.663105" lon="11.6016283"><ele>328.8</ele><time>2026-04-18T09:35:54.763Z</time></trkpt><trkpt lat="42.6630217" lon="11.6016633"><ele>329.4</ele><time>2026-04-18T09:35:56.764Z</time></trkpt><trkpt lat="42.66294" lon="11.6017167"><ele>330.0</ele><time>2026-04-18T09:35:58.764Z</time></trkpt><trkpt lat="42.66285" lon="11.6017717"><ele>330.2</ele><time>2026-04-18T09:36:00.764Z</time></trkpt><trkpt lat="42.6627633" lon="11.6018283"><ele>330.4</ele><time>2026-04-18T09:36:02.764Z</time></trkpt><trkpt lat="42.6626833" lon="11.6018917"><ele>330.6</ele><time>2026-04-18T09:36:04.764Z</time></trkpt><trkpt lat="42.662595" lon="11.601975"><ele>330.8</ele><time>2026-04-18T09:36:06.764Z</time></trkpt><trkpt lat="42.662515" lon="11.6020367"><ele>331.0</ele><time>2026-04-18T09:36:08.764Z</time></trkpt><trkpt lat="42.6624383" lon="11.6021017"><ele>331.0</ele><time>2026-04-18T09:36:10.764Z</time></trkpt><trkpt lat="42.6623617" lon="11.6021667"><ele>331.0</ele><time>2026-04-18T09:36:12.764Z</time></trkpt><trkpt lat="42.6622817" lon="11.60224"><ele>331.0</ele><time>2026-04-18T09:36:14.764Z</time></trkpt><trkpt lat="42.6622" lon="11.602305"><ele>331.0</ele><time>2026-04-18T09:36:16.763Z</time></trkpt><trkpt lat="42.6621083" lon="11.6023767"><ele>331.0</ele><time>2026-04-18T09:36:18.764Z</time></trkpt><trkpt lat="42.662025" lon="11.602445"><ele>330.0</ele><time>2026-04-18T09:36:20.764Z</time></trkpt><trkpt lat="42.66194" lon="11.6025117"><ele>329.0</ele><time>2026-04-18T09:36:22.764Z</time></trkpt><trkpt lat="42.6618483" lon="11.602575"><ele>328.0</ele><time>2026-04-18T09:36:24.764Z</time></trkpt><trkpt lat="42.66176" lon="11.6026433"><ele>327.0</ele><time>2026-04-18T09:36:26.764Z</time></trkpt><trkpt lat="42.661655" lon="11.6026983"><ele>326.0</ele><time>2026-04-18T09:36:28.764Z</time></trkpt><trkpt lat="42.6615433" lon="11.602755"><ele>326.0</ele><time>2026-04-18T09:36:30.763Z</time></trkpt><trkpt lat="42.6614283" lon="11.6027883"><ele>326.0</ele><time>2026-04-18T09:36:32.764Z</time></trkpt><trkpt lat="42.6613183" lon="11.602795"><ele>326.0</ele><time>2026-04-18T09:36:34.764Z</time></trkpt><trkpt lat="42.661205" lon="11.60277"><ele>326.0</ele><time>2026-04-18T09:36:36.764Z</time></trkpt><trkpt lat="42.661085" lon="11.6027317"><ele>325.25</ele><time>2026-04-18T09:36:38.764Z</time></trkpt><trkpt lat="42.6609733" lon="11.602675"><ele>324.5</ele><time>2026-04-18T09:36:40.764Z</time></trkpt><trkpt lat="42.660865" lon="11.602595"><ele>323.75</ele><time>2026-04-18T09:36:42.764Z</time></trkpt><trkpt lat="42.6607683" lon="11.60252"><ele>323.0</ele><time>2026-04-18T09:36:44.764Z</time></trkpt><trkpt lat="42.660675" lon="11.6024383"><ele>323.0</ele><time>2026-04-18T09:36:46.764Z</time></trkpt><trkpt lat="42.6605833" lon="11.6023683"><ele>323.0</ele><time>2026-04-18T09:36:48.764Z</time></trkpt><trkpt lat="42.6604917" lon="11.6022967"><ele>323.0</ele><time>2026-04-18T09:36:50.764Z</time></trkpt><trkpt lat="42.6604067" lon="11.6022267"><ele>323.0</ele><time>2026-04-18T09:36:52.764Z</time></trkpt><trkpt lat="42.660305" lon="11.6021517"><ele>323.0</ele><time>2026-04-18T09:36:54.764Z</time></trkpt><trkpt lat="42.6602067" lon="11.6020817"><ele>322.2</ele><time>2026-04-18T09:36:56.763Z</time></trkpt><trkpt lat="42.6601167" lon="11.60201"><ele>321.4</ele><time>2026-04-18T09:36:58.763Z</time></trkpt><trkpt lat="42.66004" lon="11.60195"><ele>320.59999999999997</ele><time>2026-04-18T09:37:00.764Z</time></trkpt><trkpt lat="42.6599667" lon="11.6018867"><ele>319.79999999999995</ele><time>2026-04-18T09:37:02.764Z</time></trkpt><trkpt lat="42.6598833" lon="11.6018233"><ele>319.0</ele><time>2026-04-18T09:37:04.764Z</time></trkpt><trkpt lat="42.6597967" lon="11.60176"><ele>318.59999999999997</ele><time>2026-04-18T09:37:06.764Z</time></trkpt><trkpt lat="42.65972" lon="11.6016983"><ele>318.2</ele><time>2026-04-18T09:37:08.764Z</time></trkpt><trkpt lat="42.6596467" lon="11.60165"><ele>317.79999999999995</ele><time>2026-04-18T09:37:10.764Z</time></trkpt><trkpt lat="42.6595667" lon="11.6015933"><ele>317.4</ele><time>2026-04-18T09:37:12.763Z</time></trkpt><trkpt lat="42.6594767" lon="11.6015267"><ele>317.0</ele><time>2026-04-18T09:37:14.764Z</time></trkpt><trkpt lat="42.6593883" lon="11.6014533"><ele>316.0</ele><time>2026-04-18T09:37:16.764Z</time></trkpt><trkpt lat="42.6592983" lon="11.6013867"><ele>315.0</ele><time>2026-04-18T09:37:18.764Z</time></trkpt><trkpt lat="42.6592033" lon="11.60132"><ele>314.0</ele><time>2026-04-18T09:37:20.764Z</time></trkpt><trkpt lat="42.6591083" lon="11.6012517"><ele>313.0</ele><time>2026-04-18T09:37:22.764Z</time></trkpt><trkpt lat="42.65901" lon="11.60118"><ele>312.0</ele><time>2026-04-18T09:37:24.763Z</time></trkpt><trkpt lat="42.6589183" lon="11.6011117"><ele>311.2</ele><time>2026-04-18T09:37:26.764Z</time></trkpt><trkpt lat="42.658825" lon="11.6010483"><ele>310.4</ele><time>2026-04-18T09:37:28.764Z</time></trkpt><trkpt lat="42.6587367" lon="11.6009767"><ele>309.6</ele><time>2026-04-18T09:37:30.764Z</time></trkpt><trkpt lat="42.6586417" lon="11.600905"><ele>308.8</ele><time>2026-04-18T09:37:32.764Z</time></trkpt><trkpt lat="42.6585517" lon="11.60083"><ele>308.0</ele><time>2026-04-18T09:37:34.764Z</time></trkpt><trkpt lat="42.6584583" lon="11.6007533"><ele>308.0</ele><time>2026-04-18T09:37:36.764Z</time></trkpt><trkpt lat="42.6583683" lon="11.60069"><ele>308.0</ele><time>2026-04-18T09:37:38.764Z</time></trkpt><trkpt lat="42.6582667" lon="11.6006217"><ele>308.0</ele><time>2026-04-18T09:37:40.764Z</time></trkpt><trkpt lat="42.65817" lon="11.600545"><ele>308.0</ele><time>2026-04-18T09:37:42.764Z</time></trkpt><trkpt lat="42.65807" lon="11.6004667"><ele>308.0</ele><time>2026-04-18T09:37:44.764Z</time></trkpt><trkpt lat="42.6579783" lon="11.6004"><ele>308.0</ele><time>2026-04-18T09:37:46.763Z</time></trkpt><trkpt lat="42.657875" lon="11.6003433"><ele>308.0</ele><time>2026-04-18T09:37:48.764Z</time></trkpt><trkpt lat="42.6577683" lon="11.6003183"><ele>308.0</ele><time>2026-04-18T09:37:50.763Z</time></trkpt><trkpt lat="42.6576633" lon="11.6003017"><ele>308.0</ele><time>2026-04-18T09:37:52.764Z</time></trkpt><trkpt lat="42.6575633" lon="11.6003133"><ele>308.0</ele><time>2026-04-18T09:37:54.764Z</time></trkpt><trkpt lat="42.6574717" lon="11.60037"><ele>307.6</ele><time>2026-04-18T09:37:56.764Z</time></trkpt><trkpt lat="42.6573883" lon="11.6004383"><ele>307.20000000000005</ele><time>2026-04-18T09:37:58.764Z</time></trkpt><trkpt lat="42.6573233" lon="11.60054"><ele>306.8</ele><time>2026-04-18T09:38:00.764Z</time></trkpt><trkpt lat="42.657255" lon="11.6006683"><ele>306.40000000000003</ele><time>2026-04-18T09:38:02.764Z</time></trkpt><trkpt lat="42.6572067" lon="11.600815"><ele>306.0</ele><time>2026-04-18T09:38:04.764Z</time></trkpt><trkpt lat="42.657155" lon="11.6009533"><ele>306.0</ele><time>2026-04-18T09:38:06.763Z</time></trkpt><trkpt lat="42.6571167" lon="11.6010833"><ele>306.0</ele><time>2026-04-18T09:38:08.763Z</time></trkpt><trkpt lat="42.657075" lon="11.601205"><ele>306.0</ele><time>2026-04-18T09:38:10.764Z</time></trkpt><trkpt lat="42.6570433" lon="11.6013033"><ele>306.0</ele><time>2026-04-18T09:38:12.764Z</time></trkpt><trkpt lat="42.657" lon="11.601415"><ele>306.0</ele><time>2026-04-18T09:38:14.764Z</time></trkpt><trkpt lat="42.6569433" lon="11.6015133"><ele>304.8</ele><time>2026-04-18T09:38:16.764Z</time></trkpt><trkpt lat="42.6568683" lon="11.6015667"><ele>303.6</ele><time>2026-04-18T09:38:18.763Z</time></trkpt><trkpt lat="42.6567717" lon="11.6016167"><ele>302.4</ele><time>2026-04-18T09:38:20.764Z</time></trkpt><trkpt lat="42.65667" lon="11.601665"><ele>301.2</ele><time>2026-04-18T09:38:22.764Z</time></trkpt><trkpt lat="42.6565683" lon="11.6017"><ele>300.0</ele><time>2026-04-18T09:38:24.764Z</time></trkpt><trkpt lat="42.65647" lon="11.601745"><ele>300.0</ele><time>2026-04-18T09:38:26.763Z</time></trkpt><trkpt lat="42.6563817" lon="11.6017767"><ele>300.0</ele><time>2026-04-18T09:38:28.764Z</time></trkpt><trkpt lat="42.656285" lon="11.6018167"><ele>300.0</ele><time>2026-04-18T09:38:30.764Z</time></trkpt><trkpt lat="42.6561967" lon="11.6018533"><ele>300.0</ele><time>2026-04-18T09:38:32.764Z</time></trkpt><trkpt lat="42.65611" lon="11.6018933"><ele>300.0</ele><time>2026-04-18T09:38:34.764Z</time></trkpt><trkpt lat="42.656" lon="11.60193"><ele>299.0</ele><time>2026-04-18T09:38:36.764Z</time></trkpt><trkpt lat="42.6558767" lon="11.601985"><ele>298.0</ele><time>2026-04-18T09:38:38.764Z</time></trkpt><trkpt lat="42.6558167" lon="11.6020117"><ele>297.0</ele><time>2026-04-18T09:38:39.764Z</time></trkpt><trkpt lat="42.6557" lon="11.6020517"><ele>296.0</ele><time>2026-04-18T09:38:41.764Z</time></trkpt><trkpt lat="42.655635" lon="11.60206"><ele>295.0</ele><time>2026-04-18T09:38:42.764Z</time></trkpt><trkpt lat="42.6555683" lon="11.602055"><ele>294.0</ele><time>2026-04-18T09:38:43.763Z</time></trkpt><trkpt lat="42.6554983" lon="11.6020433"><ele>293.0</ele><time>2026-04-18T09:38:44.764Z</time></trkpt><trkpt lat="42.6553817" lon="11.6020033"><ele>292.0</ele><time>2026-04-18T09:38:46.764Z</time></trkpt><trkpt lat="42.6552783" lon="11.6019617"><ele>291.0</ele><time>2026-04-18T09:38:48.764Z</time></trkpt><trkpt lat="42.6551783" lon="11.6019183"><ele>290.0</ele><time>2026-04-18T09:38:50.764Z</time></trkpt><trkpt lat="42.6550733" lon="11.6018717"><ele>289.0</ele><time>2026-04-18T09:38:52.764Z</time></trkpt><trkpt lat="42.65498" lon="11.6018317"><ele>287.8333333333333</ele><time>2026-04-18T09:38:54.764Z</time></trkpt><trkpt lat="42.6548883" lon="11.6017983"><ele>286.66666666666663</ele><time>2026-04-18T09:38:56.764Z</time></trkpt><trkpt lat="42.6548083" lon="11.6017567"><ele>285.5</ele><time>2026-04-18T09:38:58.764Z</time></trkpt><trkpt lat="42.6547283" lon="11.6017183"><ele>284.3333333333333</ele><time>2026-04-18T09:39:00.764Z</time></trkpt><trkpt lat="42.6546583" lon="11.6016883"><ele>283.1666666666667</ele><time>2026-04-18T09:39:02.764Z</time></trkpt><trkpt lat="42.6545767" lon="11.6016533"><ele>282.0</ele><time>2026-04-18T09:39:04.764Z</time></trkpt><trkpt lat="42.6544883" lon="11.6016167"><ele>280.6666666666667</ele><time>2026-04-18T09:39:06.764Z</time></trkpt><trkpt lat="42.6543967" lon="11.6015783"><ele>279.3333333333333</ele><time>2026-04-18T09:39:08.764Z</time></trkpt><trkpt lat="42.6543183" lon="11.6015417"><ele>278.0</ele><time>2026-04-18T09:39:10.764Z</time></trkpt><trkpt lat="42.6542433" lon="11.6015117"><ele>276.66666666666663</ele><time>2026-04-18T09:39:12.764Z</time></trkpt><trkpt lat="42.65417" lon="11.6014833"><ele>275.3333333333333</ele><time>2026-04-18T09:39:14.764Z</time></trkpt><trkpt lat="42.6540967" lon="11.6014417"><ele>274.0</ele><time>2026-04-18T09:39:16.764Z</time></trkpt><trkpt lat="42.654" lon="11.6013817"><ele>274.0</ele><time>2026-04-18T09:39:18.764Z</time></trkpt><trkpt lat="42.6539267" lon="11.60133"><ele>274.0</ele><time>2026-04-18T09:39:20.764Z</time></trkpt><trkpt lat="42.6538533" lon="11.601275"><ele>274.0</ele><time>2026-04-18T09:39:22.764Z</time></trkpt><trkpt lat="42.653785" lon="11.6012217"><ele>274.0</ele><time>2026-04-18T09:39:24.764Z</time></trkpt><trkpt lat="42.6537283" lon="11.60117"><ele>274.0</ele><time>2026-04-18T09:39:26.764Z</time></trkpt><trkpt lat="42.653675" lon="11.6011133"><ele>274.0</ele><time>2026-04-18T09:39:28.764Z</time></trkpt><trkpt lat="42.6536117" lon="11.60105"><ele>271.8333333333333</ele><time>2026-04-18T09:39:58.764Z</time></trkpt><trkpt lat="42.6535433" lon="11.6010017"><ele>269.66666666666663</ele><time>2026-04-18T09:40:00.764Z</time></trkpt><trkpt lat="42.6534617" lon="11.6009367"><ele>267.5</ele><time>2026-04-18T09:40:02.764Z</time></trkpt><trkpt lat="42.6533933" lon="11.6008717"><ele>265.3333333333333</ele><time>2026-04-18T09:40:04.764Z</time></trkpt><trkpt lat="42.6533183" lon="11.6008017"><ele>263.1666666666667</ele><time>2026-04-18T09:40:06.764Z</time></trkpt><trkpt lat="42.6532417" lon="11.60074"><ele>261.0</ele><time>2026-04-18T09:40:08.764Z</time></trkpt><trkpt lat="42.65317" lon="11.6006833"><ele>261.0</ele><time>2026-04-18T09:40:10.764Z</time></trkpt><trkpt lat="42.6531" lon="11.6006133"><ele>261.0</ele><time>2026-04-18T09:40:12.764Z</time></trkpt><trkpt lat="42.6530183" lon="11.600545"><ele>261.0</ele><time>2026-04-18T09:40:14.763Z</time></trkpt><trkpt lat="42.652935" lon="11.6004733"><ele>261.0</ele><time>2026-04-18T09:40:16.764Z</time></trkpt><trkpt lat="42.6528533" lon="11.6004017"><ele>261.0</ele><time>2026-04-18T09:40:18.764Z</time></trkpt><trkpt lat="42.65276" lon="11.6003333"><ele>259.40000000000003</ele><time>2026-04-18T09:40:20.764Z</time></trkpt><trkpt lat="42.65267" lon="11.60026"><ele>257.8</ele><time>2026-04-18T09:40:22.764Z</time></trkpt><trkpt lat="42.652565" lon="11.6001783"><ele>256.20000000000005</ele><time>2026-04-18T09:40:24.764Z</time></trkpt><trkpt lat="42.6524583" lon="11.6001"><ele>254.60000000000002</ele><time>2026-04-18T09:40:26.764Z</time></trkpt><trkpt lat="42.652365" lon="11.6000433"><ele>253.0</ele><time>2026-04-18T09:40:28.764Z</time></trkpt><trkpt lat="42.65227" lon="11.5999883"><ele>253.0</ele><time>2026-04-18T09:40:30.764Z</time></trkpt><trkpt lat="42.6521583" lon="11.5999217"><ele>253.0</ele><time>2026-04-18T09:40:32.764Z</time></trkpt><trkpt lat="42.6520983" lon="11.599885"><ele>253.0</ele><time>2026-04-18T09:40:33.764Z</time></trkpt><trkpt lat="42.651975" lon="11.5998117"><ele>253.0</ele><time>2026-04-18T09:40:35.764Z</time></trkpt><trkpt lat="42.6519117" lon="11.5997733"><ele>253.0</ele><time>2026-04-18T09:40:36.764Z</time></trkpt><trkpt lat="42.6518433" lon="11.5997317"><ele>252.14285714285717</ele><time>2026-04-18T09:40:37.764Z</time></trkpt><trkpt lat="42.6517783" lon="11.5997017"><ele>251.28571428571428</ele><time>2026-04-18T09:40:38.764Z</time></trkpt><trkpt lat="42.6517133" lon="11.5996633"><ele>250.42857142857144</ele><time>2026-04-18T09:40:39.763Z</time></trkpt><trkpt lat="42.6516483" lon="11.599625"><ele>249.57142857142858</ele><time>2026-04-18T09:40:40.764Z</time></trkpt><trkpt lat="42.6515833" lon="11.5995883"><ele>248.71428571428572</ele><time>2026-04-18T09:40:41.764Z</time></trkpt><trkpt lat="42.65152" lon="11.5995483"><ele>247.85714285714286</ele><time>2026-04-18T09:40:42.764Z</time></trkpt><trkpt lat="42.6514517" lon="11.59951"><ele>247.0</ele><time>2026-04-18T09:40:43.764Z</time></trkpt><trkpt lat="42.6513817" lon="11.5994733"><ele>246.83333333333331</ele><time>2026-04-18T09:40:44.764Z</time></trkpt><trkpt lat="42.6513117" lon="11.59944"><ele>246.66666666666666</ele><time>2026-04-18T09:40:45.764Z</time></trkpt><trkpt lat="42.651245" lon="11.5994067"><ele>246.5</ele><time>2026-04-18T09:40:46.764Z</time></trkpt><trkpt lat="42.651175" lon="11.599365"><ele>246.33333333333331</ele><time>2026-04-18T09:40:47.763Z</time></trkpt><trkpt lat="42.6511" lon="11.5993267"><ele>246.16666666666666</ele><time>2026-04-18T09:40:48.764Z</time></trkpt><trkpt lat="42.6510167" lon="11.5992967"><ele>246.0</ele><time>2026-04-18T09:40:49.764Z</time></trkpt><trkpt lat="42.6509183" lon="11.5992717"><ele>245.60000000000002</ele><time>2026-04-18T09:40:50.764Z</time></trkpt><trkpt lat="42.65082" lon="11.5992467"><ele>245.20000000000002</ele><time>2026-04-18T09:40:51.764Z</time></trkpt><trkpt lat="42.65073" lon="11.5992217"><ele>244.79999999999998</ele><time>2026-04-18T09:40:52.764Z</time></trkpt><trkpt lat="42.6506467" lon="11.599195"><ele>244.39999999999998</ele><time>2026-04-18T09:40:53.764Z</time></trkpt><trkpt lat="42.6505617" lon="11.5991683"><ele>244.0</ele><time>2026-04-18T09:40:54.764Z</time></trkpt><trkpt lat="42.650475" lon="11.599145"><ele>243.99999999999997</ele><time>2026-04-18T09:40:55.764Z</time></trkpt><trkpt lat="42.65039" lon="11.599125"><ele>244.0</ele><time>2026-04-18T09:40:56.764Z</time></trkpt><trkpt lat="42.6503167" lon="11.599105"><ele>244.0</ele><time>2026-04-18T09:40:57.764Z</time></trkpt><trkpt lat="42.6502517" lon="11.5990833"><ele>244.0</ele><time>2026-04-18T09:40:58.764Z</time></trkpt><trkpt lat="42.650155" lon="11.5990483"><ele>243.99999999999997</ele><time>2026-04-18T09:41:00.764Z</time></trkpt><trkpt lat="42.6500883" lon="11.5990283"><ele>244.0</ele><time>2026-04-18T09:41:02.764Z</time></trkpt><trkpt lat="42.6500117" lon="11.59902"><ele>244.0</ele><time>2026-04-18T09:42:26.764Z</time></trkpt><trkpt lat="42.6500017" lon="11.5991283"><ele>243.99999999999997</ele><time>2026-04-18T09:42:29.764Z</time></trkpt><trkpt lat="42.65009" lon="11.5991633"><ele>243.99999999999997</ele><time>2026-04-18T09:42:32.764Z</time></trkpt><trkpt lat="42.65017" lon="11.5991617"><ele>244.0</ele><time>2026-04-18T09:42:34.764Z</time></trkpt><trkpt lat="42.6502717" lon="11.5991583"><ele>244.0</ele><time>2026-04-18T09:42:36.764Z</time></trkpt><trkpt lat="42.650385" lon="11.599175"><ele>243.99999999999997</ele><time>2026-04-18T09:42:38.764Z</time></trkpt><trkpt lat="42.65045" lon="11.599195"><ele>244.0</ele><time>2026-04-18T09:42:39.764Z</time></trkpt><trkpt lat="42.6505183" lon="11.599215"><ele>244.0</ele><time>2026-04-18T09:42:40.764Z</time></trkpt><trkpt lat="42.65059" lon="11.5992283"><ele>244.0</ele><time>2026-04-18T09:42:41.764Z</time></trkpt><trkpt lat="42.6507083" lon="11.5992567"><ele>243.99999999999997</ele><time>2026-04-18T09:42:43.764Z</time></trkpt><trkpt lat="42.6507983" lon="11.599285"><ele>244.0</ele><time>2026-04-18T09:42:45.764Z</time></trkpt><trkpt lat="42.6508783" lon="11.5993133"><ele>244.0</ele><time>2026-04-18T09:42:47.764Z</time></trkpt><trkpt lat="42.6509867" lon="11.59934"><ele>243.99999999999997</ele><time>2026-04-18T09:42:49.764Z</time></trkpt><trkpt lat="42.6510517" lon="11.5993617"><ele>243.99999999999997</ele><time>2026-04-18T09:42:50.764Z</time></trkpt><trkpt lat="42.65112" lon="11.5993883"><ele>244.0</ele><time>2026-04-18T09:42:51.764Z</time></trkpt><trkpt lat="42.6512017" lon="11.5994333"><ele>244.0</ele><time>2026-04-18T09:42:53.764Z</time></trkpt><trkpt lat="42.6510817" lon="11.599335"><ele>244.0</ele><time>2026-04-18T09:43:04.764Z</time></trkpt><trkpt lat="42.6509533" lon="11.5992983"><ele>244.0</ele><time>2026-04-18T09:43:05.764Z</time></trkpt><trkpt lat="42.6507983" lon="11.5992583"><ele>244.0</ele><time>2026-04-18T09:43:06.764Z</time></trkpt><trkpt lat="42.6506417" lon="11.5992133"><ele>244.0</ele><time>2026-04-18T09:43:07.764Z</time></trkpt><trkpt lat="42.6505017" lon="11.5991683"><ele>243.99999999999997</ele><time>2026-04-18T09:43:08.764Z</time></trkpt><trkpt lat="42.6503967" lon="11.5991367"><ele>244.0</ele><time>2026-04-18T09:43:09.764Z</time></trkpt><trkpt lat="42.6503167" lon="11.5991133"><ele>244.0</ele><time>2026-04-18T09:43:10.764Z</time></trkpt><trkpt lat="42.6502367" lon="11.5990817"><ele>244.0</ele><time>2026-04-18T09:43:12.764Z</time></trkpt><trkpt lat="42.650175" lon="11.59905"><ele>243.99999999999997</ele><time>2026-04-18T09:43:16.764Z</time></trkpt><trkpt lat="42.6500983" lon="11.59898"><ele>244.0</ele><time>2026-04-18T09:54:45.762Z</time></trkpt><trkpt lat="42.6500333" lon="11.599"><ele>242.79999999999998</ele><time>2026-04-18T09:54:47.761Z</time></trkpt><trkpt lat="42.6499667" lon="11.5989867"><ele>241.59999999999997</ele><time>2026-04-18T09:54:48.762Z</time></trkpt><trkpt lat="42.649885" lon="11.5989533"><ele>240.4</ele><time>2026-04-18T09:54:49.762Z</time></trkpt><trkpt lat="42.6497917" lon="11.5989033"><ele>239.2</ele><time>2026-04-18T09:54:50.761Z</time></trkpt><trkpt lat="42.6496883" lon="11.598825"><ele>238.0</ele><time>2026-04-18T09:54:51.762Z</time></trkpt><trkpt lat="42.6495683" lon="11.5987317"><ele>237.75</ele><time>2026-04-18T09:54:52.762Z</time></trkpt><trkpt lat="42.6494617" lon="11.59863"><ele>237.5</ele><time>2026-04-18T09:54:53.762Z</time></trkpt><trkpt lat="42.6493517" lon="11.59854"><ele>237.25</ele><time>2026-04-18T09:54:54.761Z</time></trkpt><trkpt lat="42.6492433" lon="11.5984417"><ele>237.0</ele><time>2026-04-18T09:54:55.762Z</time></trkpt><trkpt lat="42.6491367" lon="11.59834"><ele>237.5</ele><time>2026-04-18T09:54:56.762Z</time></trkpt><trkpt lat="42.6490433" lon="11.5982367"><ele>238.0</ele><time>2026-04-18T09:54:57.762Z</time></trkpt><trkpt lat="42.6489617" lon="11.5981333"><ele>238.5</ele><time>2026-04-18T09:54:58.762Z</time></trkpt><trkpt lat="42.6488783" lon="11.5980283"><ele>239.0</ele><time>2026-04-18T09:54:59.762Z</time></trkpt><trkpt lat="42.6487983" lon="11.5979217"><ele>238.5</ele><time>2026-04-18T09:55:00.762Z</time></trkpt><trkpt lat="42.6487217" lon="11.5978033"><ele>238.0</ele><time>2026-04-18T09:55:01.762Z</time></trkpt><trkpt lat="42.6486467" lon="11.5976767"><ele>237.5</ele><time>2026-04-18T09:55:02.762Z</time></trkpt><trkpt lat="42.6485667" lon="11.597555"><ele>237.0</ele><time>2026-04-18T09:55:03.762Z</time></trkpt><trkpt lat="42.6484883" lon="11.5974333"><ele>237.5</ele><time>2026-04-18T09:55:04.762Z</time></trkpt><trkpt lat="42.6484083" lon="11.5973017"><ele>238.0</ele><time>2026-04-18T09:55:05.762Z</time></trkpt><trkpt lat="42.6483283" lon="11.5971783"><ele>238.5</ele><time>2026-04-18T09:55:06.762Z</time></trkpt><trkpt lat="42.6482467" lon="11.597035"><ele>239.0</ele><time>2026-04-18T09:55:07.762Z</time></trkpt><trkpt lat="42.6481633" lon="11.5968817"><ele>239.0</ele><time>2026-04-18T09:55:08.762Z</time></trkpt><trkpt lat="42.6480817" lon="11.5967283"><ele>239.0</ele><time>2026-04-18T09:55:09.762Z</time></trkpt><trkpt lat="42.648005" lon="11.5965783"><ele>239.0</ele><time>2026-04-18T09:55:10.762Z</time></trkpt><trkpt lat="42.6479233" lon="11.5964267"><ele>239.0</ele><time>2026-04-18T09:55:11.762Z</time></trkpt><trkpt lat="42.647855" lon="11.5962833"><ele>237.75</ele><time>2026-04-18T09:55:12.762Z</time></trkpt><trkpt lat="42.6477783" lon="11.596135"><ele>236.5</ele><time>2026-04-18T09:55:13.762Z</time></trkpt><trkpt lat="42.6477067" lon="11.5959783"><ele>235.25</ele><time>2026-04-18T09:55:14.762Z</time></trkpt><trkpt lat="42.6476317" lon="11.5958183"><ele>234.0</ele><time>2026-04-18T09:55:15.762Z</time></trkpt><trkpt lat="42.6475533" lon="11.5956467"><ele>234.0</ele><time>2026-04-18T09:55:16.762Z</time></trkpt><trkpt lat="42.6474783" lon="11.59549"><ele>234.0</ele><time>2026-04-18T09:55:17.762Z</time></trkpt><trkpt lat="42.6474" lon="11.59533"><ele>234.0</ele><time>2026-04-18T09:55:18.762Z</time></trkpt><trkpt lat="42.6473167" lon="11.5951683"><ele>234.0</ele><time>2026-04-18T09:55:19.762Z</time></trkpt><trkpt lat="42.6472283" lon="11.5950117"><ele>234.25</ele><time>2026-04-18T09:55:20.762Z</time></trkpt><trkpt lat="42.64715" lon="11.5948517"><ele>234.5</ele><time>2026-04-18T09:55:21.762Z</time></trkpt><trkpt lat="42.6470817" lon="11.594715"><ele>234.75</ele><time>2026-04-18T09:55:22.762Z</time></trkpt><trkpt lat="42.6470217" lon="11.5945817"><ele>235.0</ele><time>2026-04-18T09:55:23.762Z</time></trkpt><trkpt lat="42.6469583" lon="11.594465"><ele>234.4</ele><time>2026-04-18T09:55:24.762Z</time></trkpt><trkpt lat="42.6468867" lon="11.5943717"><ele>233.8</ele><time>2026-04-18T09:55:25.762Z</time></trkpt><trkpt lat="42.6468033" lon="11.5943067"><ele>233.2</ele><time>2026-04-18T09:55:26.762Z</time></trkpt><trkpt lat="42.64671" lon="11.5942683"><ele>232.6</ele><time>2026-04-18T09:55:27.761Z</time></trkpt><trkpt lat="42.646605" lon="11.5942567"><ele>232.0</ele><time>2026-04-18T09:55:28.762Z</time></trkpt><trkpt lat="42.646485" lon="11.5942567"><ele>232.0</ele><time>2026-04-18T09:55:29.762Z</time></trkpt><trkpt lat="42.6463533" lon="11.5942717"><ele>232.0</ele><time>2026-04-18T09:55:30.761Z</time></trkpt><trkpt lat="42.6462117" lon="11.5942933"><ele>232.0</ele><time>2026-04-18T09:55:31.762Z</time></trkpt><trkpt lat="42.6460667" lon="11.5943117"><ele>232.0</ele><time>2026-04-18T09:55:32.762Z</time></trkpt><trkpt lat="42.645915" lon="11.5943367"><ele>231.25</ele><time>2026-04-18T09:55:33.762Z</time></trkpt><trkpt lat="42.645765" lon="11.5943617"><ele>230.5</ele><time>2026-04-18T09:55:34.761Z</time></trkpt><trkpt lat="42.6456267" lon="11.59439"><ele>229.75</ele><time>2026-04-18T09:55:35.762Z</time></trkpt><trkpt lat="42.6454933" lon="11.59444"><ele>229.0</ele><time>2026-04-18T09:55:36.762Z</time></trkpt><trkpt lat="42.6453567" lon="11.5945033"><ele>225.75</ele><time>2026-04-18T09:55:37.762Z</time></trkpt><trkpt lat="42.6452217" lon="11.5945783"><ele>222.5</ele><time>2026-04-18T09:55:38.762Z</time></trkpt><trkpt lat="42.6450983" lon="11.5946583"><ele>219.25</ele><time>2026-04-18T09:55:39.762Z</time></trkpt><trkpt lat="42.644965" lon="11.5947433"><ele>216.0</ele><time>2026-04-18T09:55:40.762Z</time></trkpt><trkpt lat="42.6448417" lon="11.5948183"><ele>216.0</ele><time>2026-04-18T09:55:41.762Z</time></trkpt><trkpt lat="42.6447267" lon="11.594895"><ele>216.0</ele><time>2026-04-18T09:55:42.762Z</time></trkpt><trkpt lat="42.64462" lon="11.59496"><ele>216.0</ele><time>2026-04-18T09:55:43.762Z</time></trkpt><trkpt lat="42.6445217" lon="11.5950017"><ele>216.0</ele><time>2026-04-18T09:55:44.762Z</time></trkpt><trkpt lat="42.644415" lon="11.5950217"><ele>213.75</ele><time>2026-04-18T09:55:45.762Z</time></trkpt><trkpt lat="42.6443083" lon="11.5950167"><ele>211.5</ele><time>2026-04-18T09:55:46.762Z</time></trkpt><trkpt lat="42.6441867" lon="11.5949933"><ele>209.25</ele><time>2026-04-18T09:55:47.762Z</time></trkpt><trkpt lat="42.64406" lon="11.5949417"><ele>207.0</ele><time>2026-04-18T09:55:48.762Z</time></trkpt><trkpt lat="42.6439283" lon="11.594865"><ele>207.0</ele><time>2026-04-18T09:55:49.762Z</time></trkpt><trkpt lat="42.6437917" lon="11.5947667"><ele>207.0</ele><time>2026-04-18T09:55:50.762Z</time></trkpt><trkpt lat="42.64366" lon="11.5946667"><ele>207.0</ele><time>2026-04-18T09:55:51.762Z</time></trkpt><trkpt lat="42.6435283" lon="11.5945667"><ele>204.0</ele><time>2026-04-18T09:55:52.761Z</time></trkpt><trkpt lat="42.6433983" lon="11.5944683"><ele>201.0</ele><time>2026-04-18T09:55:53.762Z</time></trkpt><trkpt lat="42.6432667" lon="11.594375"><ele>198.0</ele><time>2026-04-18T09:55:54.762Z</time></trkpt><trkpt lat="42.6431283" lon="11.5942817"><ele>198.0</ele><time>2026-04-18T09:55:55.762Z</time></trkpt><trkpt lat="42.6429917" lon="11.594195"><ele>198.0</ele><time>2026-04-18T09:55:56.762Z</time></trkpt><trkpt lat="42.642855" lon="11.5941067"><ele>198.0</ele><time>2026-04-18T09:55:57.762Z</time></trkpt><trkpt lat="42.6427283" lon="11.59402"><ele>198.0</ele><time>2026-04-18T09:55:58.762Z</time></trkpt><trkpt lat="42.6426033" lon="11.5939267"><ele>195.66666666666666</ele><time>2026-04-18T09:55:59.762Z</time></trkpt><trkpt lat="42.642475" lon="11.5938233"><ele>193.33333333333331</ele><time>2026-04-18T09:56:00.762Z</time></trkpt><trkpt lat="42.64235" lon="11.5936933"><ele>191.0</ele><time>2026-04-18T09:56:01.762Z</time></trkpt><trkpt lat="42.6422217" lon="11.5935483"><ele>191.0</ele><time>2026-04-18T09:56:02.762Z</time></trkpt><trkpt lat="42.642095" lon="11.5934033"><ele>191.0</ele><time>2026-04-18T09:56:03.762Z</time></trkpt><trkpt lat="42.6419667" lon="11.59326"><ele>191.0</ele><time>2026-04-18T09:56:04.762Z</time></trkpt><trkpt lat="42.6418383" lon="11.5931133"><ele>190.0</ele><time>2026-04-18T09:56:05.762Z</time></trkpt><trkpt lat="42.6417067" lon="11.5929617"><ele>189.0</ele><time>2026-04-18T09:56:06.762Z</time></trkpt><trkpt lat="42.6415883" lon="11.5928067"><ele>188.0</ele><time>2026-04-18T09:56:07.762Z</time></trkpt><trkpt lat="42.6414733" lon="11.5926267"><ele>188.0</ele><time>2026-04-18T09:56:08.762Z</time></trkpt><trkpt lat="42.6413617" lon="11.5924333"><ele>188.0</ele><time>2026-04-18T09:56:09.762Z</time></trkpt><trkpt lat="42.641245" lon="11.5922233"><ele>188.0</ele><time>2026-04-18T09:56:10.762Z</time></trkpt><trkpt lat="42.6411433" lon="11.5920083"><ele>187.33333333333331</ele><time>2026-04-18T09:56:11.762Z</time></trkpt><trkpt lat="42.6410533" lon="11.5918"><ele>186.66666666666666</ele><time>2026-04-18T09:56:12.762Z</time></trkpt><trkpt lat="42.6409833" lon="11.591615"><ele>186.0</ele><time>2026-04-18T09:56:13.762Z</time></trkpt><trkpt lat="42.6409217" lon="11.5914417"><ele>186.0</ele><time>2026-04-18T09:56:14.762Z</time></trkpt><trkpt lat="42.6408533" lon="11.5912683"><ele>186.0</ele><time>2026-04-18T09:56:15.762Z</time></trkpt><trkpt lat="42.6407767" lon="11.59112"><ele>186.0</ele><time>2026-04-18T09:56:16.762Z</time></trkpt><trkpt lat="42.6406933" lon="11.590965"><ele>186.0</ele><time>2026-04-18T09:56:17.762Z</time></trkpt><trkpt lat="42.6405983" lon="11.5908217"><ele>186.0</ele><time>2026-04-18T09:56:18.762Z</time></trkpt><trkpt lat="42.6404933" lon="11.5906867"><ele>186.0</ele><time>2026-04-18T09:56:19.762Z</time></trkpt><trkpt lat="42.640375" lon="11.590555"><ele>186.0</ele><time>2026-04-18T09:56:20.762Z</time></trkpt><trkpt lat="42.64025" lon="11.5904233"><ele>186.0</ele><time>2026-04-18T09:56:21.762Z</time></trkpt><trkpt lat="42.640135" lon="11.5902867"><ele>186.0</ele><time>2026-04-18T09:56:22.762Z</time></trkpt><trkpt lat="42.6400233" lon="11.590135"><ele>186.0</ele><time>2026-04-18T09:56:23.762Z</time></trkpt><trkpt lat="42.63991" lon="11.5899717"><ele>186.0</ele><time>2026-04-18T09:56:24.762Z</time></trkpt><trkpt lat="42.6398017" lon="11.58979"><ele>186.0</ele><time>2026-04-18T09:56:25.762Z</time></trkpt><trkpt lat="42.6396983" lon="11.589595"><ele>186.0</ele><time>2026-04-18T09:56:26.762Z</time></trkpt><trkpt lat="42.6395967" lon="11.58939"><ele>185.66666666666666</ele><time>2026-04-18T09:56:27.762Z</time></trkpt><trkpt lat="42.6395" lon="11.589185"><ele>185.33333333333331</ele><time>2026-04-18T09:56:28.762Z</time></trkpt><trkpt lat="42.6394117" lon="11.5889883"><ele>185.0</ele><time>2026-04-18T09:56:29.762Z</time></trkpt><trkpt lat="42.639325" lon="11.5887933"><ele>185.33333333333331</ele><time>2026-04-18T09:56:30.762Z</time></trkpt><trkpt lat="42.63924" lon="11.5886133"><ele>185.66666666666666</ele><time>2026-04-18T09:56:31.762Z</time></trkpt><trkpt lat="42.6391617" lon="11.5884283"><ele>186.0</ele><time>2026-04-18T09:56:32.762Z</time></trkpt><trkpt lat="42.6390817" lon="11.5882517"><ele>186.0</ele><time>2026-04-18T09:56:33.762Z</time></trkpt><trkpt lat="42.6389917" lon="11.5880833"><ele>186.0</ele><time>2026-04-18T09:56:34.761Z</time></trkpt><trkpt lat="42.6388933" lon="11.587925"><ele>186.0</ele><time>2026-04-18T09:56:35.762Z</time></trkpt><trkpt lat="42.6387767" lon="11.587775"><ele>185.0</ele><time>2026-04-18T09:56:36.762Z</time></trkpt><trkpt lat="42.6386567" lon="11.58762"><ele>184.0</ele><time>2026-04-18T09:56:37.762Z</time></trkpt><trkpt lat="42.638535" lon="11.5874767"><ele>183.0</ele><time>2026-04-18T09:56:38.762Z</time></trkpt><trkpt lat="42.6384117" lon="11.587335"><ele>182.25</ele><time>2026-04-18T09:56:39.762Z</time></trkpt><trkpt lat="42.6382817" lon="11.5872033"><ele>181.5</ele><time>2026-04-18T09:56:40.762Z</time></trkpt><trkpt lat="42.6381667" lon="11.587075"><ele>180.75</ele><time>2026-04-18T09:56:41.762Z</time></trkpt><trkpt lat="42.6380567" lon="11.586965"><ele>180.0</ele><time>2026-04-18T09:56:42.762Z</time></trkpt><trkpt lat="42.63797" lon="11.586865"><ele>180.0</ele><time>2026-04-18T09:56:43.762Z</time></trkpt><trkpt lat="42.6379017" lon="11.586745"><ele>180.0</ele><time>2026-04-18T09:56:44.762Z</time></trkpt><trkpt lat="42.6378467" lon="11.586615"><ele>180.0</ele><time>2026-04-18T09:56:45.762Z</time></trkpt><trkpt lat="42.6378067" lon="11.586475"><ele>180.0</ele><time>2026-04-18T09:56:46.762Z</time></trkpt><trkpt lat="42.6377783" lon="11.5863217"><ele>180.0</ele><time>2026-04-18T09:56:47.762Z</time></trkpt><trkpt lat="42.6377517" lon="11.5861767"><ele>179.6</ele><time>2026-04-18T09:56:48.761Z</time></trkpt><trkpt lat="42.6377317" lon="11.5860367"><ele>179.2</ele><time>2026-04-18T09:56:49.762Z</time></trkpt><trkpt lat="42.6377083" lon="11.585915"><ele>178.8</ele><time>2026-04-18T09:56:50.762Z</time></trkpt><trkpt lat="42.6376917" lon="11.5857867"><ele>178.4</ele><time>2026-04-18T09:56:51.762Z</time></trkpt><trkpt lat="42.6376667" lon="11.58565"><ele>178.0</ele><time>2026-04-18T09:56:52.762Z</time></trkpt><trkpt lat="42.6376283" lon="11.5855017"><ele>178.0</ele><time>2026-04-18T09:56:53.762Z</time></trkpt><trkpt lat="42.6375933" lon="11.5853333"><ele>178.0</ele><time>2026-04-18T09:56:54.762Z</time></trkpt><trkpt lat="42.637555" lon="11.58515"><ele>178.0</ele><time>2026-04-18T09:56:55.762Z</time></trkpt><trkpt lat="42.63751" lon="11.5849517"><ele>178.0</ele><time>2026-04-18T09:56:56.762Z</time></trkpt><trkpt lat="42.63746" lon="11.5847467"><ele>178.0</ele><time>2026-04-18T09:56:57.762Z</time></trkpt><trkpt lat="42.637415" lon="11.584545"><ele>178.0</ele><time>2026-04-18T09:56:58.762Z</time></trkpt><trkpt lat="42.6373683" lon="11.584345"><ele>178.0</ele><time>2026-04-18T09:56:59.762Z</time></trkpt><trkpt lat="42.63732" lon="11.584145"><ele>178.66666666666669</ele><time>2026-04-18T09:57:00.762Z</time></trkpt><trkpt lat="42.637255" lon="11.5839483"><ele>179.33333333333334</ele><time>2026-04-18T09:57:01.762Z</time></trkpt><trkpt lat="42.63719" lon="11.5837367"><ele>180.0</ele><time>2026-04-18T09:57:02.762Z</time></trkpt><trkpt lat="42.6371283" lon="11.5835383"><ele>180.33333333333334</ele><time>2026-04-18T09:57:03.762Z</time></trkpt><trkpt lat="42.6370667" lon="11.5833383"><ele>180.66666666666669</ele><time>2026-04-18T09:57:04.762Z</time></trkpt><trkpt lat="42.6370033" lon="11.58315"><ele>181.0</ele><time>2026-04-18T09:57:05.762Z</time></trkpt><trkpt lat="42.6369467" lon="11.58296"><ele>180.75</ele><time>2026-04-18T09:57:06.762Z</time></trkpt><trkpt lat="42.6368917" lon="11.58277"><ele>180.5</ele><time>2026-04-18T09:57:07.762Z</time></trkpt><trkpt lat="42.6368233" lon="11.58259"><ele>180.25</ele><time>2026-04-18T09:57:08.762Z</time></trkpt><trkpt lat="42.6367417" lon="11.5824333"><ele>180.0</ele><time>2026-04-18T09:57:09.762Z</time></trkpt><trkpt lat="42.6366583" lon="11.5822883"><ele>180.0</ele><time>2026-04-18T09:57:10.762Z</time></trkpt><trkpt lat="42.63656" lon="11.582145"><ele>180.0</ele><time>2026-04-18T09:57:11.762Z</time></trkpt><trkpt lat="42.6364517" lon="11.5820117"><ele>180.0</ele><time>2026-04-18T09:57:12.762Z</time></trkpt><trkpt lat="42.6363267" lon="11.5818783"><ele>180.0</ele><time>2026-04-18T09:57:13.762Z</time></trkpt><trkpt lat="42.6362083" lon="11.581745"><ele>180.75</ele><time>2026-04-18T09:57:14.761Z</time></trkpt><trkpt lat="42.636095" lon="11.5816183"><ele>181.5</ele><time>2026-04-18T09:57:15.762Z</time></trkpt><trkpt lat="42.635995" lon="11.5815067"><ele>182.25</ele><time>2026-04-18T09:57:16.762Z</time></trkpt><trkpt lat="42.6359" lon="11.5814067"><ele>183.0</ele><time>2026-04-18T09:57:17.762Z</time></trkpt><trkpt lat="42.63581" lon="11.5813067"><ele>183.0</ele><time>2026-04-18T09:57:18.762Z</time></trkpt><trkpt lat="42.6357117" lon="11.5812017"><ele>183.0</ele><time>2026-04-18T09:57:19.762Z</time></trkpt><trkpt lat="42.6356167" lon="11.5810983"><ele>183.0</ele><time>2026-04-18T09:57:20.761Z</time></trkpt><trkpt lat="42.63553" lon="11.5810133"><ele>183.0</ele><time>2026-04-18T09:57:21.761Z</time></trkpt><trkpt lat="42.6354267" lon="11.5809367"><ele>185.0</ele><time>2026-04-18T09:57:22.762Z</time></trkpt><trkpt lat="42.63531" lon="11.5808783"><ele>187.0</ele><time>2026-04-18T09:57:23.762Z</time></trkpt><trkpt lat="42.635175" lon="11.5808333"><ele>189.0</ele><time>2026-04-18T09:57:24.762Z</time></trkpt><trkpt lat="42.6350367" lon="11.58079"><ele>191.0</ele><time>2026-04-18T09:57:25.761Z</time></trkpt><trkpt lat="42.6349" lon="11.5807383"><ele>191.0</ele><time>2026-04-18T09:57:26.762Z</time></trkpt><trkpt lat="42.6347667" lon="11.580675"><ele>191.0</ele><time>2026-04-18T09:57:27.762Z</time></trkpt><trkpt lat="42.6346317" lon="11.5805883"><ele>191.0</ele><time>2026-04-18T09:57:28.762Z</time></trkpt><trkpt lat="42.6345017" lon="11.5804867"><ele>191.0</ele><time>2026-04-18T09:57:29.762Z</time></trkpt><trkpt lat="42.6343783" lon="11.5803633"><ele>192.66666666666666</ele><time>2026-04-18T09:57:30.762Z</time></trkpt><trkpt lat="42.6342517" lon="11.5802117"><ele>194.33333333333331</ele><time>2026-04-18T09:57:31.762Z</time></trkpt><trkpt lat="42.6341217" lon="11.5800583"><ele>196.0</ele><time>2026-04-18T09:57:32.762Z</time></trkpt><trkpt lat="42.6339817" lon="11.5799117"><ele>196.0</ele><time>2026-04-18T09:57:33.762Z</time></trkpt><trkpt lat="42.63384" lon="11.5797633"><ele>196.0</ele><time>2026-04-18T09:57:34.762Z</time></trkpt><trkpt lat="42.6337033" lon="11.57961"><ele>196.0</ele><time>2026-04-18T09:57:35.762Z</time></trkpt><trkpt lat="42.6335783" lon="11.57947"><ele>194.33333333333331</ele><time>2026-04-18T09:57:36.762Z</time></trkpt><trkpt lat="42.6334583" lon="11.5793333"><ele>192.66666666666666</ele><time>2026-04-18T09:57:37.762Z</time></trkpt><trkpt lat="42.633335" lon="11.579205"><ele>191.0</ele><time>2026-04-18T09:57:38.762Z</time></trkpt><trkpt lat="42.633215" lon="11.5790883"><ele>191.0</ele><time>2026-04-18T09:57:39.762Z</time></trkpt><trkpt lat="42.6330967" lon="11.5789717"><ele>191.0</ele><time>2026-04-18T09:57:40.762Z</time></trkpt><trkpt lat="42.63299" lon="11.5788517"><ele>191.0</ele><time>2026-04-18T09:57:41.762Z</time></trkpt><trkpt lat="42.63288" lon="11.57874"><ele>191.0</ele><time>2026-04-18T09:57:42.761Z</time></trkpt><trkpt lat="42.6327417" lon="11.5786183"><ele>187.0</ele><time>2026-04-18T09:57:43.762Z</time></trkpt><trkpt lat="42.6326117" lon="11.5785183"><ele>183.0</ele><time>2026-04-18T09:57:44.762Z</time></trkpt><trkpt lat="42.63247" lon="11.5784167"><ele>179.0</ele><time>2026-04-18T09:57:45.762Z</time></trkpt><trkpt lat="42.6323217" lon="11.5783183"><ele>179.0</ele><time>2026-04-18T09:57:46.761Z</time></trkpt><trkpt lat="42.63218" lon="11.5782233"><ele>179.0</ele><time>2026-04-18T09:57:47.762Z</time></trkpt><trkpt lat="42.6320383" lon="11.578135"><ele>179.0</ele><time>2026-04-18T09:57:48.762Z</time></trkpt><trkpt lat="42.6318967" lon="11.5780433"><ele>179.0</ele><time>2026-04-18T09:57:49.762Z</time></trkpt><trkpt lat="42.6317633" lon="11.57795"><ele>179.0</ele><time>2026-04-18T09:57:50.762Z</time></trkpt><trkpt lat="42.6316367" lon="11.5778617"><ele>179.0</ele><time>2026-04-18T09:57:51.762Z</time></trkpt><trkpt lat="42.631505" lon="11.577755"><ele>179.0</ele><time>2026-04-18T09:57:52.762Z</time></trkpt><trkpt lat="42.6313783" lon="11.57765"><ele>179.0</ele><time>2026-04-18T09:57:53.762Z</time></trkpt><trkpt lat="42.6312583" lon="11.5775617"><ele>179.0</ele><time>2026-04-18T09:57:54.762Z</time></trkpt><trkpt lat="42.6311433" lon="11.57749"><ele>179.0</ele><time>2026-04-18T09:57:55.762Z</time></trkpt><trkpt lat="42.6310283" lon="11.5774033"><ele>179.0</ele><time>2026-04-18T09:57:56.762Z</time></trkpt><trkpt lat="42.6309" lon="11.577315"><ele>179.33333333333331</ele><time>2026-04-18T09:57:57.762Z</time></trkpt><trkpt lat="42.630765" lon="11.5772333"><ele>179.66666666666666</ele><time>2026-04-18T09:57:58.762Z</time></trkpt><trkpt lat="42.6306267" lon="11.577145"><ele>180.0</ele><time>2026-04-18T09:57:59.762Z</time></trkpt><trkpt lat="42.6304867" lon="11.57706"><ele>181.0</ele><time>2026-04-18T09:58:00.762Z</time></trkpt><trkpt lat="42.6303433" lon="11.5769633"><ele>182.0</ele><time>2026-04-18T09:58:01.762Z</time></trkpt><trkpt lat="42.63019" lon="11.5768767"><ele>183.0</ele><time>2026-04-18T09:58:02.762Z</time></trkpt><trkpt lat="42.6300383" lon="11.576795"><ele>183.0</ele><time>2026-04-18T09:58:03.762Z</time></trkpt><trkpt lat="42.6298867" lon="11.5767283"><ele>183.0</ele><time>2026-04-18T09:58:04.762Z</time></trkpt><trkpt lat="42.6297367" lon="11.576665"><ele>183.0</ele><time>2026-04-18T09:58:05.762Z</time></trkpt><trkpt lat="42.6295883" lon="11.5766017"><ele>181.66666666666666</ele><time>2026-04-18T09:58:06.762Z</time></trkpt><trkpt lat="42.6294417" lon="11.5765383"><ele>180.33333333333331</ele><time>2026-04-18T09:58:07.762Z</time></trkpt><trkpt lat="42.6292883" lon="11.5764783"><ele>179.0</ele><time>2026-04-18T09:58:08.762Z</time></trkpt><trkpt lat="42.6291333" lon="11.576425"><ele>179.0</ele><time>2026-04-18T09:58:09.762Z</time></trkpt><trkpt lat="42.628995" lon="11.57637"><ele>179.0</ele><time>2026-04-18T09:58:10.762Z</time></trkpt><trkpt lat="42.62885" lon="11.5763183"><ele>179.0</ele><time>2026-04-18T09:58:11.762Z</time></trkpt><trkpt lat="42.628715" lon="11.5762667"><ele>179.0</ele><time>2026-04-18T09:58:12.762Z</time></trkpt><trkpt lat="42.6285867" lon="11.5762117"><ele>179.5</ele><time>2026-04-18T09:58:13.762Z</time></trkpt><trkpt lat="42.6284533" lon="11.5761483"><ele>180.0</ele><time>2026-04-18T09:58:14.762Z</time></trkpt><trkpt lat="42.6283167" lon="11.5760833"><ele>180.5</ele><time>2026-04-18T09:58:15.762Z</time></trkpt><trkpt lat="42.6281867" lon="11.5760183"><ele>181.0</ele><time>2026-04-18T09:58:16.762Z</time></trkpt><trkpt lat="42.6280567" lon="11.575945"><ele>181.0</ele><time>2026-04-18T09:58:17.762Z</time></trkpt><trkpt lat="42.62793" lon="11.5758733"><ele>181.0</ele><time>2026-04-18T09:58:18.762Z</time></trkpt><trkpt lat="42.6278117" lon="11.5757933"><ele>181.0</ele><time>2026-04-18T09:58:19.762Z</time></trkpt><trkpt lat="42.6276983" lon="11.5757083"><ele>181.0</ele><time>2026-04-18T09:58:20.762Z</time></trkpt><trkpt lat="42.627585" lon="11.5756167"><ele>180.5</ele><time>2026-04-18T09:58:21.762Z</time></trkpt><trkpt lat="42.6274733" lon="11.5755433"><ele>180.0</ele><time>2026-04-18T09:58:22.762Z</time></trkpt><trkpt lat="42.6273483" lon="11.5754633"><ele>179.5</ele><time>2026-04-18T09:58:23.762Z</time></trkpt><trkpt lat="42.6272083" lon="11.5753817"><ele>179.0</ele><time>2026-04-18T09:58:24.762Z</time></trkpt><trkpt lat="42.62706" lon="11.5753"><ele>180.33333333333331</ele><time>2026-04-18T09:58:25.762Z</time></trkpt><trkpt lat="42.6269183" lon="11.5752183"><ele>181.66666666666666</ele><time>2026-04-18T09:58:26.762Z</time></trkpt><trkpt lat="42.6267867" lon="11.57514"><ele>183.0</ele><time>2026-04-18T09:58:27.762Z</time></trkpt><trkpt lat="42.6266383" lon="11.5750717"><ele>183.0</ele><time>2026-04-18T09:58:28.762Z</time></trkpt><trkpt lat="42.6264983" lon="11.5749983"><ele>183.0</ele><time>2026-04-18T09:58:29.762Z</time></trkpt><trkpt lat="42.62636" lon="11.5749283"><ele>183.0</ele><time>2026-04-18T09:58:30.762Z</time></trkpt><trkpt lat="42.62623" lon="11.5748667"><ele>183.0</ele><time>2026-04-18T09:58:31.762Z</time></trkpt><trkpt lat="42.6261083" lon="11.5748067"><ele>183.2</ele><time>2026-04-18T09:58:32.762Z</time></trkpt><trkpt lat="42.626" lon="11.57475"><ele>183.4</ele><time>2026-04-18T09:58:33.762Z</time></trkpt><trkpt lat="42.6259067" lon="11.5746967"><ele>183.6</ele><time>2026-04-18T09:58:34.762Z</time></trkpt><trkpt lat="42.62583" lon="11.5746117"><ele>183.79999999999998</ele><time>2026-04-18T09:58:35.762Z</time></trkpt><trkpt lat="42.625755" lon="11.574505"><ele>184.0</ele><time>2026-04-18T09:58:36.762Z</time></trkpt><trkpt lat="42.6256783" lon="11.5743883"><ele>184.0</ele><time>2026-04-18T09:58:37.762Z</time></trkpt><trkpt lat="42.6255933" lon="11.5742783"><ele>184.0</ele><time>2026-04-18T09:58:38.762Z</time></trkpt><trkpt lat="42.625495" lon="11.5741767"><ele>184.0</ele><time>2026-04-18T09:58:39.762Z</time></trkpt><trkpt lat="42.6253867" lon="11.57407"><ele>184.0</ele><time>2026-04-18T09:58:40.762Z</time></trkpt><trkpt lat="42.6252733" lon="11.5739683"><ele>186.0</ele><time>2026-04-18T09:58:41.762Z</time></trkpt><trkpt lat="42.6251583" lon="11.57387"><ele>188.0</ele><time>2026-04-18T09:58:42.762Z</time></trkpt><trkpt lat="42.62505" lon="11.573765"><ele>190.0</ele><time>2026-04-18T09:58:43.762Z</time></trkpt><trkpt lat="42.6249567" lon="11.573665"><ele>192.0</ele><time>2026-04-18T09:58:44.762Z</time></trkpt><trkpt lat="42.624865" lon="11.5735633"><ele>194.75</ele><time>2026-04-18T09:58:45.761Z</time></trkpt><trkpt lat="42.6247817" lon="11.5734417"><ele>197.5</ele><time>2026-04-18T09:58:46.762Z</time></trkpt><trkpt lat="42.62469" lon="11.5733067"><ele>200.25</ele><time>2026-04-18T09:58:47.762Z</time></trkpt><trkpt lat="42.62461" lon="11.5731683"><ele>203.0</ele><time>2026-04-18T09:58:48.762Z</time></trkpt><trkpt lat="42.6245383" lon="11.5730367"><ele>203.2</ele><time>2026-04-18T09:58:49.762Z</time></trkpt><trkpt lat="42.6244667" lon="11.5729283"><ele>203.4</ele><time>2026-04-18T09:58:50.762Z</time></trkpt><trkpt lat="42.6243767" lon="11.57284"><ele>203.6</ele><time>2026-04-18T09:58:51.762Z</time></trkpt><trkpt lat="42.62428" lon="11.572775"><ele>203.79999999999998</ele><time>2026-04-18T09:58:52.762Z</time></trkpt><trkpt lat="42.624175" lon="11.5727217"><ele>204.0</ele><time>2026-04-18T09:58:53.762Z</time></trkpt><trkpt lat="42.6240717" lon="11.5726667"><ele>206.75</ele><time>2026-04-18T09:58:54.762Z</time></trkpt><trkpt lat="42.62397" lon="11.5726133"><ele>209.5</ele><time>2026-04-18T09:58:55.762Z</time></trkpt><trkpt lat="42.6238633" lon="11.5725533"><ele>212.25</ele><time>2026-04-18T09:58:56.762Z</time></trkpt><trkpt lat="42.62375" lon="11.57249"><ele>215.0</ele><time>2026-04-18T09:58:57.762Z</time></trkpt><trkpt lat="42.623645" lon="11.5724283"><ele>216.25</ele><time>2026-04-18T09:58:58.762Z</time></trkpt><trkpt lat="42.6235383" lon="11.5723533"><ele>217.5</ele><time>2026-04-18T09:58:59.761Z</time></trkpt><trkpt lat="42.62343" lon="11.5722717"><ele>218.75</ele><time>2026-04-18T09:59:00.762Z</time></trkpt><trkpt lat="42.6233183" lon="11.5721767"><ele>220.0</ele><time>2026-04-18T09:59:01.762Z</time></trkpt><trkpt lat="42.62321" lon="11.5720717"><ele>223.75</ele><time>2026-04-18T09:59:02.762Z</time></trkpt><trkpt lat="42.6231033" lon="11.5719667"><ele>227.5</ele><time>2026-04-18T09:59:03.762Z</time></trkpt><trkpt lat="42.6229983" lon="11.571855"><ele>231.25</ele><time>2026-04-18T09:59:04.762Z</time></trkpt><trkpt lat="42.6228833" lon="11.5717483"><ele>235.0</ele><time>2026-04-18T09:59:05.762Z</time></trkpt><trkpt lat="42.6227733" lon="11.57164"><ele>235.0</ele><time>2026-04-18T09:59:06.762Z</time></trkpt><trkpt lat="42.6226567" lon="11.5715317"><ele>235.0</ele><time>2026-04-18T09:59:07.762Z</time></trkpt><trkpt lat="42.6225417" lon="11.5714217"><ele>235.0</ele><time>2026-04-18T09:59:08.762Z</time></trkpt><trkpt lat="42.6224383" lon="11.5713033"><ele>235.0</ele><time>2026-04-18T09:59:09.762Z</time></trkpt><trkpt lat="42.6223367" lon="11.5711817"><ele>240.25</ele><time>2026-04-18T09:59:10.762Z</time></trkpt><trkpt lat="42.62224" lon="11.5710517"><ele>245.5</ele><time>2026-04-18T09:59:11.762Z</time></trkpt><trkpt lat="42.6221483" lon="11.5709333"><ele>250.75</ele><time>2026-04-18T09:59:12.762Z</time></trkpt><trkpt lat="42.6220733" lon="11.570805"><ele>256.0</ele><time>2026-04-18T09:59:13.761Z</time></trkpt><trkpt lat="42.6220067" lon="11.57068"><ele>256.0</ele><time>2026-04-18T09:59:14.762Z</time></trkpt><trkpt lat="42.6219517" lon="11.5705367"><ele>256.0</ele><time>2026-04-18T09:59:15.762Z</time></trkpt><trkpt lat="42.6219017" lon="11.5703883"><ele>256.0</ele><time>2026-04-18T09:59:16.762Z</time></trkpt><trkpt lat="42.6218417" lon="11.5702433"><ele>256.0</ele><time>2026-04-18T09:59:17.761Z</time></trkpt><trkpt lat="42.62179" lon="11.57009"><ele>256.0</ele><time>2026-04-18T09:59:18.762Z</time></trkpt><trkpt lat="42.6217267" lon="11.5699483"><ele>256.0</ele><time>2026-04-18T09:59:19.762Z</time></trkpt><trkpt lat="42.6216767" lon="11.56981"><ele>256.0</ele><time>2026-04-18T09:59:20.762Z</time></trkpt><trkpt lat="42.62163" lon="11.5696983"><ele>256.0</ele><time>2026-04-18T09:59:21.762Z</time></trkpt><trkpt lat="42.6215867" lon="11.5696083"><ele>256.0</ele><time>2026-04-18T09:59:22.762Z</time></trkpt><trkpt lat="42.6215517" lon="11.5695233"><ele>258.66666666666663</ele><time>2026-04-18T09:59:23.762Z</time></trkpt><trkpt lat="42.6215133" lon="11.56945"><ele>261.3333333333333</ele><time>2026-04-18T09:59:24.762Z</time></trkpt><trkpt lat="42.6214967" lon="11.5692983"><ele>264.0</ele><time>2026-04-18T09:59:26.762Z</time></trkpt><trkpt lat="42.6215667" lon="11.569195"><ele>266.6666666666667</ele><time>2026-04-18T09:59:28.761Z</time></trkpt><trkpt lat="42.6216283" lon="11.569165"><ele>269.33333333333337</ele><time>2026-04-18T09:59:29.762Z</time></trkpt><trkpt lat="42.621705" lon="11.5691433"><ele>272.0</ele><time>2026-04-18T09:59:30.762Z</time></trkpt><trkpt lat="42.6217833" lon="11.569105"><ele>272.0</ele><time>2026-04-18T09:59:31.761Z</time></trkpt><trkpt lat="42.6218683" lon="11.5690733"><ele>272.0</ele><time>2026-04-18T09:59:32.762Z</time></trkpt><trkpt lat="42.62194" lon="11.5690367"><ele>272.0</ele><time>2026-04-18T09:59:33.762Z</time></trkpt><trkpt lat="42.622005" lon="11.5689683"><ele>272.0</ele><time>2026-04-18T09:59:34.762Z</time></trkpt><trkpt lat="42.6220433" lon="11.56889"><ele>272.0</ele><time>2026-04-18T09:59:35.762Z</time></trkpt><trkpt lat="42.6220667" lon="11.56879"><ele>272.0</ele><time>2026-04-18T09:59:36.762Z</time></trkpt><trkpt lat="42.6220767" lon="11.56868"><ele>272.6</ele><time>2026-04-18T09:59:37.762Z</time></trkpt><trkpt lat="42.6220633" lon="11.5685533"><ele>273.2</ele><time>2026-04-18T09:59:38.762Z</time></trkpt><trkpt lat="42.62206" lon="11.5684283"><ele>273.8</ele><time>2026-04-18T09:59:39.762Z</time></trkpt><trkpt lat="42.6220667" lon="11.56829"><ele>274.4</ele><time>2026-04-18T09:59:40.762Z</time></trkpt><trkpt lat="42.6220733" lon="11.5681383"><ele>275.0</ele><time>2026-04-18T09:59:41.762Z</time></trkpt><trkpt lat="42.6220967" lon="11.5679983"><ele>275.0</ele><time>2026-04-18T09:59:42.762Z</time></trkpt><trkpt lat="42.6221233" lon="11.5678783"><ele>275.0</ele><time>2026-04-18T09:59:43.762Z</time></trkpt><trkpt lat="42.6221583" lon="11.5677833"><ele>275.0</ele><time>2026-04-18T09:59:44.761Z</time></trkpt><trkpt lat="42.62222" lon="11.5676933"><ele>275.0</ele><time>2026-04-18T09:59:45.761Z</time></trkpt><trkpt lat="42.6222867" lon="11.5676317"><ele>275.0</ele><time>2026-04-18T09:59:46.762Z</time></trkpt><trkpt lat="42.6223617" lon="11.5675883"><ele>275.0</ele><time>2026-04-18T09:59:47.762Z</time></trkpt><trkpt lat="42.622425" lon="11.5675433"><ele>277.1666666666667</ele><time>2026-04-18T09:59:48.762Z</time></trkpt><trkpt lat="42.6224617" lon="11.5674717"><ele>279.33333333333337</ele><time>2026-04-18T09:59:49.762Z</time></trkpt><trkpt lat="42.6224767" lon="11.5673833"><ele>281.5</ele><time>2026-04-18T09:59:50.762Z</time></trkpt><trkpt lat="42.6224683" lon="11.5672883"><ele>283.6666666666667</ele><time>2026-04-18T09:59:51.762Z</time></trkpt><trkpt lat="42.6224367" lon="11.5671867"><ele>285.8333333333333</ele><time>2026-04-18T09:59:52.762Z</time></trkpt><trkpt lat="42.622395" lon="11.5670817"><ele>288.0</ele><time>2026-04-18T09:59:53.761Z</time></trkpt><trkpt lat="42.62235" lon="11.5669617"><ele>290.25</ele><time>2026-04-18T09:59:54.762Z</time></trkpt><trkpt lat="42.6222983" lon="11.5668217"><ele>292.5</ele><time>2026-04-18T09:59:55.762Z</time></trkpt><trkpt lat="42.6222467" lon="11.5666733"><ele>294.75</ele><time>2026-04-18T09:59:56.762Z</time></trkpt><trkpt lat="42.622195" lon="11.5665133"><ele>297.0</ele><time>2026-04-18T09:59:57.762Z</time></trkpt><trkpt lat="42.62214" lon="11.5663567"><ele>297.0</ele><time>2026-04-18T09:59:58.762Z</time></trkpt><trkpt lat="42.6220933" lon="11.5662067"><ele>297.0</ele><time>2026-04-18T09:59:59.762Z</time></trkpt><trkpt lat="42.6220467" lon="11.5660683"><ele>297.0</ele><time>2026-04-18T10:00:00.762Z</time></trkpt><trkpt lat="42.6220017" lon="11.5659533"><ele>297.0</ele><time>2026-04-18T10:00:01.762Z</time></trkpt><trkpt lat="42.621945" lon="11.56586"><ele>297.0</ele><time>2026-04-18T10:00:02.762Z</time></trkpt><trkpt lat="42.621865" lon="11.5657783"><ele>300.2</ele><time>2026-04-18T10:00:03.762Z</time></trkpt><trkpt lat="42.6217767" lon="11.5657083"><ele>303.4</ele><time>2026-04-18T10:00:04.762Z</time></trkpt><trkpt lat="42.6216733" lon="11.565665"><ele>306.6</ele><time>2026-04-18T10:00:05.762Z</time></trkpt><trkpt lat="42.62156" lon="11.5656433"><ele>309.8</ele><time>2026-04-18T10:00:06.762Z</time></trkpt><trkpt lat="42.621445" lon="11.56564"><ele>313.0</ele><time>2026-04-18T10:00:07.762Z</time></trkpt><trkpt lat="42.62133" lon="11.56567"><ele>313.0</ele><time>2026-04-18T10:00:08.762Z</time></trkpt><trkpt lat="42.6212183" lon="11.5657"><ele>313.0</ele><time>2026-04-18T10:00:09.762Z</time></trkpt><trkpt lat="42.6211033" lon="11.56574"><ele>313.0</ele><time>2026-04-18T10:00:10.762Z</time></trkpt><trkpt lat="42.6209933" lon="11.5657833"><ele>313.0</ele><time>2026-04-18T10:00:11.762Z</time></trkpt><trkpt lat="42.6208867" lon="11.5658167"><ele>316.75</ele><time>2026-04-18T10:00:12.762Z</time></trkpt><trkpt lat="42.6207717" lon="11.5658367"><ele>320.5</ele><time>2026-04-18T10:00:13.762Z</time></trkpt><trkpt lat="42.62066" lon="11.5658583"><ele>324.25</ele><time>2026-04-18T10:00:14.762Z</time></trkpt><trkpt lat="42.62055" lon="11.56587"><ele>328.0</ele><time>2026-04-18T10:00:15.762Z</time></trkpt><trkpt lat="42.6204283" lon="11.5658667"><ele>330.5</ele><time>2026-04-18T10:00:16.762Z</time></trkpt><trkpt lat="42.6202983" lon="11.5658317"><ele>333.0</ele><time>2026-04-18T10:00:17.761Z</time></trkpt><trkpt lat="42.6201517" lon="11.5657983"><ele>335.5</ele><time>2026-04-18T10:00:18.762Z</time></trkpt><trkpt lat="42.6200133" lon="11.5657633"><ele>338.0</ele><time>2026-04-18T10:00:19.761Z</time></trkpt><trkpt lat="42.61988" lon="11.5657233"><ele>338.0</ele><time>2026-04-18T10:00:20.762Z</time></trkpt><trkpt lat="42.6197533" lon="11.5656783"><ele>338.0</ele><time>2026-04-18T10:00:21.761Z</time></trkpt><trkpt lat="42.6196383" lon="11.5656367"><ele>338.0</ele><time>2026-04-18T10:00:22.762Z</time></trkpt><trkpt lat="42.6195283" lon="11.5655933"><ele>338.0</ele><time>2026-04-18T10:00:23.762Z</time></trkpt><trkpt lat="42.6194133" lon="11.565545"><ele>337.5</ele><time>2026-04-18T10:00:24.762Z</time></trkpt><trkpt lat="42.6192783" lon="11.565495"><ele>337.0</ele><time>2026-04-18T10:00:25.762Z</time></trkpt><trkpt lat="42.619145" lon="11.56546"><ele>336.5</ele><time>2026-04-18T10:00:26.762Z</time></trkpt><trkpt lat="42.6190167" lon="11.5654433"><ele>336.0</ele><time>2026-04-18T10:00:27.761Z</time></trkpt><trkpt lat="42.6188967" lon="11.5654367"><ele>336.0</ele><time>2026-04-18T10:00:28.762Z</time></trkpt><trkpt lat="42.6187667" lon="11.5654433"><ele>336.0</ele><time>2026-04-18T10:00:29.761Z</time></trkpt><trkpt lat="42.618645" lon="11.56547"><ele>336.0</ele><time>2026-04-18T10:00:30.762Z</time></trkpt><trkpt lat="42.618515" lon="11.5655033"><ele>336.0</ele><time>2026-04-18T10:00:31.762Z</time></trkpt><trkpt lat="42.6183917" lon="11.5655317"><ele>334.25</ele><time>2026-04-18T10:00:32.762Z</time></trkpt><trkpt lat="42.6182683" lon="11.5655483"><ele>332.5</ele><time>2026-04-18T10:00:33.762Z</time></trkpt><trkpt lat="42.618145" lon="11.5655517"><ele>330.75</ele><time>2026-04-18T10:00:34.762Z</time></trkpt><trkpt lat="42.6180183" lon="11.5655533"><ele>329.0</ele><time>2026-04-18T10:00:35.762Z</time></trkpt><trkpt lat="42.6178983" lon="11.5655367"><ele>326.4</ele><time>2026-04-18T10:00:36.762Z</time></trkpt><trkpt lat="42.6177867" lon="11.5655167"><ele>323.79999999999995</ele><time>2026-04-18T10:00:37.762Z</time></trkpt><trkpt lat="42.6176767" lon="11.565515"><ele>321.20000000000005</ele><time>2026-04-18T10:00:38.762Z</time></trkpt><trkpt lat="42.6175767" lon="11.5655"><ele>318.6</ele><time>2026-04-18T10:00:39.762Z</time></trkpt><trkpt lat="42.617475" lon="11.56547"><ele>316.0</ele><time>2026-04-18T10:00:40.762Z</time></trkpt><trkpt lat="42.6173767" lon="11.565425"><ele>318.8</ele><time>2026-04-18T10:00:41.761Z</time></trkpt><trkpt lat="42.6172983" lon="11.5653533"><ele>321.6</ele><time>2026-04-18T10:00:42.762Z</time></trkpt><trkpt lat="42.6172267" lon="11.5652667"><ele>324.4</ele><time>2026-04-18T10:00:43.762Z</time></trkpt><trkpt lat="42.6171717" lon="11.5651517"><ele>327.2</ele><time>2026-04-18T10:00:44.762Z</time></trkpt><trkpt lat="42.6171317" lon="11.56502"><ele>330.0</ele><time>2026-04-18T10:00:45.762Z</time></trkpt><trkpt lat="42.6170883" lon="11.5648717"><ele>330.0</ele><time>2026-04-18T10:00:46.762Z</time></trkpt><trkpt lat="42.617045" lon="11.5647267"><ele>330.0</ele><time>2026-04-18T10:00:47.762Z</time></trkpt><trkpt lat="42.6170033" lon="11.5645833"><ele>330.0</ele><time>2026-04-18T10:00:48.762Z</time></trkpt><trkpt lat="42.6169667" lon="11.5644383"><ele>330.0</ele><time>2026-04-18T10:00:49.761Z</time></trkpt><trkpt lat="42.6169417" lon="11.56431"><ele>330.0</ele><time>2026-04-18T10:00:50.762Z</time></trkpt><trkpt lat="42.6169267" lon="11.564185"><ele>324.8</ele><time>2026-04-18T10:00:51.762Z</time></trkpt><trkpt lat="42.61691" lon="11.5640733"><ele>319.6</ele><time>2026-04-18T10:00:52.762Z</time></trkpt><trkpt lat="42.6168833" lon="11.563975"><ele>314.4</ele><time>2026-04-18T10:00:53.762Z</time></trkpt><trkpt lat="42.6168417" lon="11.5638767"><ele>309.2</ele><time>2026-04-18T10:00:54.762Z</time></trkpt><trkpt lat="42.6167667" lon="11.56379"><ele>304.0</ele><time>2026-04-18T10:00:55.762Z</time></trkpt><trkpt lat="42.6166717" lon="11.5637167"><ele>304.0</ele><time>2026-04-18T10:00:56.762Z</time></trkpt><trkpt lat="42.6165483" lon="11.563655"><ele>304.0</ele><time>2026-04-18T10:00:57.762Z</time></trkpt><trkpt lat="42.6164183" lon="11.5636033"><ele>304.0</ele><time>2026-04-18T10:00:58.762Z</time></trkpt><trkpt lat="42.61629" lon="11.5635367"><ele>304.0</ele><time>2026-04-18T10:00:59.762Z</time></trkpt><trkpt lat="42.6161667" lon="11.5634767"><ele>300.25</ele><time>2026-04-18T10:01:00.762Z</time></trkpt><trkpt lat="42.6160383" lon="11.5634133"><ele>296.5</ele><time>2026-04-18T10:01:01.762Z</time></trkpt><trkpt lat="42.6159067" lon="11.5633517"><ele>292.75</ele><time>2026-04-18T10:01:02.762Z</time></trkpt><trkpt lat="42.6157767" lon="11.5632833"><ele>289.0</ele><time>2026-04-18T10:01:03.762Z</time></trkpt><trkpt lat="42.615655" lon="11.5632267"><ele>289.0</ele><time>2026-04-18T10:01:04.762Z</time></trkpt><trkpt lat="42.61553" lon="11.5631633"><ele>289.0</ele><time>2026-04-18T10:01:05.762Z</time></trkpt><trkpt lat="42.6154017" lon="11.5630967"><ele>289.0</ele><time>2026-04-18T10:01:06.762Z</time></trkpt><trkpt lat="42.6152583" lon="11.5630183"><ele>289.0</ele><time>2026-04-18T10:01:07.762Z</time></trkpt><trkpt lat="42.6151117" lon="11.5629417"><ele>288.0</ele><time>2026-04-18T10:01:08.762Z</time></trkpt><trkpt lat="42.6149717" lon="11.5628617"><ele>287.0</ele><time>2026-04-18T10:01:09.762Z</time></trkpt><trkpt lat="42.6148433" lon="11.5627733"><ele>286.0</ele><time>2026-04-18T10:01:10.762Z</time></trkpt><trkpt lat="42.61472" lon="11.562695"><ele>285.0</ele><time>2026-04-18T10:01:11.762Z</time></trkpt><trkpt lat="42.6146067" lon="11.5626083"><ele>285.0</ele><time>2026-04-18T10:01:12.762Z</time></trkpt><trkpt lat="42.6145017" lon="11.5625167"><ele>285.0</ele><time>2026-04-18T10:01:13.761Z</time></trkpt><trkpt lat="42.6143917" lon="11.562415"><ele>285.0</ele><time>2026-04-18T10:01:14.762Z</time></trkpt><trkpt lat="42.6142967" lon="11.5622917"><ele>285.0</ele><time>2026-04-18T10:01:15.762Z</time></trkpt><trkpt lat="42.6142033" lon="11.5621617"><ele>286.75</ele><time>2026-04-18T10:01:16.762Z</time></trkpt><trkpt lat="42.614115" lon="11.56203"><ele>288.5</ele><time>2026-04-18T10:01:17.762Z</time></trkpt><trkpt lat="42.6140233" lon="11.5619"><ele>290.25</ele><time>2026-04-18T10:01:18.762Z</time></trkpt><trkpt lat="42.61393" lon="11.5617667"><ele>292.0</ele><time>2026-04-18T10:01:19.762Z</time></trkpt><trkpt lat="42.61384" lon="11.5616333"><ele>292.0</ele><time>2026-04-18T10:01:20.762Z</time></trkpt><trkpt lat="42.61375" lon="11.561515"><ele>292.0</ele><time>2026-04-18T10:01:21.762Z</time></trkpt><trkpt lat="42.6136583" lon="11.5613833"><ele>292.0</ele><time>2026-04-18T10:01:22.762Z</time></trkpt><trkpt lat="42.61356" lon="11.5612533"><ele>292.0</ele><time>2026-04-18T10:01:23.762Z</time></trkpt><trkpt lat="42.6134567" lon="11.5611267"><ele>293.25</ele><time>2026-04-18T10:01:24.762Z</time></trkpt><trkpt lat="42.6133717" lon="11.56098"><ele>294.5</ele><time>2026-04-18T10:01:25.761Z</time></trkpt><trkpt lat="42.613285" lon="11.560825"><ele>295.75</ele><time>2026-04-18T10:01:26.762Z</time></trkpt><trkpt lat="42.6132" lon="11.5606717"><ele>297.0</ele><time>2026-04-18T10:01:27.762Z</time></trkpt><trkpt lat="42.6131133" lon="11.5605083"><ele>296.6666666666667</ele><time>2026-04-18T10:01:28.762Z</time></trkpt><trkpt lat="42.6130233" lon="11.560335"><ele>296.33333333333337</ele><time>2026-04-18T10:01:29.762Z</time></trkpt><trkpt lat="42.6129383" lon="11.5601467"><ele>296.0</ele><time>2026-04-18T10:01:30.761Z</time></trkpt><trkpt lat="42.6128567" lon="11.55997"><ele>296.25</ele><time>2026-04-18T10:01:31.762Z</time></trkpt><trkpt lat="42.6127717" lon="11.5598083"><ele>296.5</ele><time>2026-04-18T10:01:32.762Z</time></trkpt><trkpt lat="42.6126933" lon="11.55964"><ele>296.75</ele><time>2026-04-18T10:01:33.762Z</time></trkpt><trkpt lat="42.61261" lon="11.5594767"><ele>297.0</ele><time>2026-04-18T10:01:34.762Z</time></trkpt><trkpt lat="42.6125283" lon="11.5593283"><ele>297.0</ele><time>2026-04-18T10:01:35.762Z</time></trkpt><trkpt lat="42.6124567" lon="11.55919"><ele>297.0</ele><time>2026-04-18T10:01:36.762Z</time></trkpt><trkpt lat="42.6123783" lon="11.5590483"><ele>297.0</ele><time>2026-04-18T10:01:37.762Z</time></trkpt><trkpt lat="42.6122967" lon="11.5589267"><ele>297.0</ele><time>2026-04-18T10:01:38.761Z</time></trkpt><trkpt lat="42.61221" lon="11.5588017"><ele>296.0</ele><time>2026-04-18T10:01:39.762Z</time></trkpt><trkpt lat="42.6121117" lon="11.5586967"><ele>295.0</ele><time>2026-04-18T10:01:40.762Z</time></trkpt><trkpt lat="42.6120117" lon="11.558615"><ele>294.0</ele><time>2026-04-18T10:01:41.762Z</time></trkpt><trkpt lat="42.6119167" lon="11.5585333"><ele>293.0</ele><time>2026-04-18T10:01:42.762Z</time></trkpt><trkpt lat="42.6118317" lon="11.5584583"><ele>291.83333333333337</ele><time>2026-04-18T10:01:43.761Z</time></trkpt><trkpt lat="42.6117483" lon="11.5583983"><ele>290.6666666666667</ele><time>2026-04-18T10:01:44.762Z</time></trkpt><trkpt lat="42.6116683" lon="11.558325"><ele>289.5</ele><time>2026-04-18T10:01:45.762Z</time></trkpt><trkpt lat="42.6116" lon="11.558255"><ele>288.3333333333333</ele><time>2026-04-18T10:01:46.761Z</time></trkpt><trkpt lat="42.6115383" lon="11.5581733"><ele>287.16666666666663</ele><time>2026-04-18T10:01:47.762Z</time></trkpt><trkpt lat="42.6114917" lon="11.5580817"><ele>286.0</ele><time>2026-04-18T10:01:48.762Z</time></trkpt><trkpt lat="42.6114533" lon="11.557955"><ele>285.25</ele><time>2026-04-18T10:01:49.762Z</time></trkpt><trkpt lat="42.6114183" lon="11.5578033"><ele>284.5</ele><time>2026-04-18T10:01:50.762Z</time></trkpt><trkpt lat="42.6113967" lon="11.557635"><ele>283.75</ele><time>2026-04-18T10:01:51.762Z</time></trkpt><trkpt lat="42.6113717" lon="11.5574783"><ele>283.0</ele><time>2026-04-18T10:01:52.762Z</time></trkpt><trkpt lat="42.6113317" lon="11.5573383"><ele>283.0</ele><time>2026-04-18T10:01:53.761Z</time></trkpt><trkpt lat="42.6112783" lon="11.5571983"><ele>283.0</ele><time>2026-04-18T10:01:54.762Z</time></trkpt><trkpt lat="42.6112067" lon="11.5570583"><ele>283.0</ele><time>2026-04-18T10:01:55.762Z</time></trkpt><trkpt lat="42.6111183" lon="11.55691"><ele>283.0</ele><time>2026-04-18T10:01:56.762Z</time></trkpt><trkpt lat="42.61102" lon="11.5567683"><ele>281.0</ele><time>2026-04-18T10:01:57.762Z</time></trkpt><trkpt lat="42.6109067" lon="11.5566617"><ele>279.0</ele><time>2026-04-18T10:01:58.762Z</time></trkpt><trkpt lat="42.6107883" lon="11.5565633"><ele>277.0</ele><time>2026-04-18T10:01:59.762Z</time></trkpt><trkpt lat="42.61067" lon="11.55647"><ele>275.0</ele><time>2026-04-18T10:02:00.761Z</time></trkpt><trkpt lat="42.6105467" lon="11.556375"><ele>275.0</ele><time>2026-04-18T10:02:01.762Z</time></trkpt><trkpt lat="42.6104267" lon="11.55628"><ele>275.0</ele><time>2026-04-18T10:02:02.762Z</time></trkpt><trkpt lat="42.6102967" lon="11.5561883"><ele>275.0</ele><time>2026-04-18T10:02:03.762Z</time></trkpt><trkpt lat="42.6101433" lon="11.5560983"><ele>274.33333333333337</ele><time>2026-04-18T10:02:04.762Z</time></trkpt><trkpt lat="42.6099933" lon="11.55602"><ele>273.6666666666667</ele><time>2026-04-18T10:02:05.762Z</time></trkpt><trkpt lat="42.6098367" lon="11.5559367"><ele>273.0</ele><time>2026-04-18T10:02:06.761Z</time></trkpt><trkpt lat="42.60968" lon="11.5558567"><ele>273.0</ele><time>2026-04-18T10:02:07.762Z</time></trkpt><trkpt lat="42.6095283" lon="11.555775"><ele>273.0</ele><time>2026-04-18T10:02:08.762Z</time></trkpt><trkpt lat="42.609375" lon="11.55568"><ele>273.0</ele><time>2026-04-18T10:02:09.762Z</time></trkpt><trkpt lat="42.609225" lon="11.55559"><ele>272.6666666666667</ele><time>2026-04-18T10:02:10.762Z</time></trkpt><trkpt lat="42.6090783" lon="11.5554917"><ele>272.33333333333337</ele><time>2026-04-18T10:02:11.762Z</time></trkpt><trkpt lat="42.60893" lon="11.5553833"><ele>272.0</ele><time>2026-04-18T10:02:12.762Z</time></trkpt><trkpt lat="42.6087817" lon="11.5552783"><ele>273.0</ele><time>2026-04-18T10:02:13.762Z</time></trkpt><trkpt lat="42.608645" lon="11.5551833"><ele>274.0</ele><time>2026-04-18T10:02:14.762Z</time></trkpt><trkpt lat="42.6085017" lon="11.5550967"><ele>275.0</ele><time>2026-04-18T10:02:15.762Z</time></trkpt><trkpt lat="42.6083733" lon="11.5550067"><ele>275.0</ele><time>2026-04-18T10:02:16.762Z</time></trkpt><trkpt lat="42.6082633" lon="11.5549383"><ele>275.0</ele><time>2026-04-18T10:02:17.761Z</time></trkpt><trkpt lat="42.60816" lon="11.5548667"><ele>275.0</ele><time>2026-04-18T10:02:18.762Z</time></trkpt><trkpt lat="42.60806" lon="11.5547983"><ele>275.0</ele><time>2026-04-18T10:02:19.761Z</time></trkpt><trkpt lat="42.6079567" lon="11.5547267"><ele>275.0</ele><time>2026-04-18T10:02:20.762Z</time></trkpt><trkpt lat="42.6078617" lon="11.5546617"><ele>275.0</ele><time>2026-04-18T10:02:21.761Z</time></trkpt><trkpt lat="42.6077783" lon="11.554605"><ele>275.0</ele><time>2026-04-18T10:02:22.762Z</time></trkpt><trkpt lat="42.607685" lon="11.5545583"><ele>275.0</ele><time>2026-04-18T10:02:23.762Z</time></trkpt><trkpt lat="42.6075917" lon="11.554515"><ele>275.0</ele><time>2026-04-18T10:02:24.762Z</time></trkpt><trkpt lat="42.6074883" lon="11.5544667"><ele>274.75</ele><time>2026-04-18T10:02:25.762Z</time></trkpt><trkpt lat="42.6073917" lon="11.5544183"><ele>274.5</ele><time>2026-04-18T10:02:26.761Z</time></trkpt><trkpt lat="42.60729" lon="11.5543617"><ele>274.25</ele><time>2026-04-18T10:02:27.762Z</time></trkpt><trkpt lat="42.6071783" lon="11.5542933"><ele>274.0</ele><time>2026-04-18T10:02:28.762Z</time></trkpt><trkpt lat="42.6070617" lon="11.5542233"><ele>276.0</ele><time>2026-04-18T10:02:29.762Z</time></trkpt><trkpt lat="42.6069417" lon="11.5541583"><ele>278.0</ele><time>2026-04-18T10:02:30.762Z</time></trkpt><trkpt lat="42.60681" lon="11.5540833"><ele>280.0</ele><time>2026-04-18T10:02:31.762Z</time></trkpt><trkpt lat="42.6067033" lon="11.5540167"><ele>282.0</ele><time>2026-04-18T10:02:32.762Z</time></trkpt><trkpt lat="42.6066083" lon="11.5539617"><ele>282.0</ele><time>2026-04-18T10:02:33.762Z</time></trkpt><trkpt lat="42.6065317" lon="11.5539117"><ele>282.0</ele><time>2026-04-18T10:02:34.762Z</time></trkpt><trkpt lat="42.60645" lon="11.5538867"><ele>282.0</ele><time>2026-04-18T10:02:35.762Z</time></trkpt><trkpt lat="42.6063367" lon="11.5538683"><ele>282.0</ele><time>2026-04-18T10:02:37.762Z</time></trkpt><trkpt lat="42.6062683" lon="11.5538617"><ele>282.0</ele><time>2026-04-18T10:02:39.761Z</time></trkpt><trkpt lat="42.6061983" lon="11.5538383"><ele>282.0</ele><time>2026-04-18T10:02:41.762Z</time></trkpt><trkpt lat="42.60609" lon="11.5537517"><ele>281.2</ele><time>2026-04-18T10:02:43.761Z</time></trkpt><trkpt lat="42.6060267" lon="11.5536833"><ele>280.4</ele><time>2026-04-18T10:02:44.762Z</time></trkpt><trkpt lat="42.60596" lon="11.5536"><ele>279.6</ele><time>2026-04-18T10:02:45.762Z</time></trkpt><trkpt lat="42.6058733" lon="11.5534967"><ele>278.8</ele><time>2026-04-18T10:02:46.762Z</time></trkpt><trkpt lat="42.605775" lon="11.5533817"><ele>278.0</ele><time>2026-04-18T10:02:47.761Z</time></trkpt><trkpt lat="42.6056783" lon="11.553265"><ele>278.0</ele><time>2026-04-18T10:02:48.762Z</time></trkpt><trkpt lat="42.6055817" lon="11.5531517"><ele>278.0</ele><time>2026-04-18T10:02:49.762Z</time></trkpt><trkpt lat="42.6054833" lon="11.553035"><ele>278.0</ele><time>2026-04-18T10:02:50.762Z</time></trkpt><trkpt lat="42.6053817" lon="11.5529167"><ele>278.0</ele><time>2026-04-18T10:02:51.762Z</time></trkpt><trkpt lat="42.6052833" lon="11.5527883"><ele>277.75</ele><time>2026-04-18T10:02:52.762Z</time></trkpt><trkpt lat="42.6051883" lon="11.552665"><ele>277.5</ele><time>2026-04-18T10:02:53.762Z</time></trkpt><trkpt lat="42.6050933" lon="11.5525233"><ele>277.25</ele><time>2026-04-18T10:02:54.762Z</time></trkpt><trkpt lat="42.6050083" lon="11.55237"><ele>277.0</ele><time>2026-04-18T10:02:55.762Z</time></trkpt><trkpt lat="42.6049283" lon="11.5522"><ele>276.75</ele><time>2026-04-18T10:02:56.762Z</time></trkpt><trkpt lat="42.6048567" lon="11.5520233"><ele>276.5</ele><time>2026-04-18T10:02:57.762Z</time></trkpt><trkpt lat="42.6047917" lon="11.5518483"><ele>276.25</ele><time>2026-04-18T10:02:58.762Z</time></trkpt><trkpt lat="42.6047233" lon="11.5516667"><ele>276.0</ele><time>2026-04-18T10:02:59.762Z</time></trkpt><trkpt lat="42.6046567" lon="11.5514683"><ele>276.0</ele><time>2026-04-18T10:03:00.761Z</time></trkpt><trkpt lat="42.60459" lon="11.5512733"><ele>276.0</ele><time>2026-04-18T10:03:01.761Z</time></trkpt><trkpt lat="42.6045267" lon="11.5510883"><ele>276.0</ele><time>2026-04-18T10:03:02.762Z</time></trkpt><trkpt lat="42.6044633" lon="11.550905"><ele>274.0</ele><time>2026-04-18T10:03:03.762Z</time></trkpt><trkpt lat="42.60439" lon="11.5507317"><ele>272.0</ele><time>2026-04-18T10:03:04.761Z</time></trkpt><trkpt lat="42.60433" lon="11.5505483"><ele>270.0</ele><time>2026-04-18T10:03:05.762Z</time></trkpt><trkpt lat="42.604265" lon="11.5503683"><ele>268.0</ele><time>2026-04-18T10:03:06.762Z</time></trkpt><trkpt lat="42.6042117" lon="11.5501967"><ele>267.5</ele><time>2026-04-18T10:03:07.762Z</time></trkpt><trkpt lat="42.60416" lon="11.5500333"><ele>267.0</ele><time>2026-04-18T10:03:08.762Z</time></trkpt><trkpt lat="42.604145" lon="11.5498367"><ele>266.5</ele><time>2026-04-18T10:03:09.762Z</time></trkpt><trkpt lat="42.604145" lon="11.5496367"><ele>266.0</ele><time>2026-04-18T10:03:10.762Z</time></trkpt><trkpt lat="42.6041633" lon="11.549435"><ele>264.33333333333337</ele><time>2026-04-18T10:03:11.762Z</time></trkpt><trkpt lat="42.60421" lon="11.549215"><ele>262.6666666666667</ele><time>2026-04-18T10:03:12.762Z</time></trkpt><trkpt lat="42.6042733" lon="11.5489917"><ele>261.0</ele><time>2026-04-18T10:03:13.762Z</time></trkpt><trkpt lat="42.60433" lon="11.548765"><ele>260.6666666666667</ele><time>2026-04-18T10:03:14.762Z</time></trkpt><trkpt lat="42.6043917" lon="11.5485483"><ele>260.33333333333337</ele><time>2026-04-18T10:03:15.762Z</time></trkpt><trkpt lat="42.6044533" lon="11.54833"><ele>260.0</ele><time>2026-04-18T10:03:16.762Z</time></trkpt><trkpt lat="42.6044983" lon="11.548105"><ele>258.0</ele><time>2026-04-18T10:03:17.762Z</time></trkpt><trkpt lat="42.6045267" lon="11.54786"><ele>256.0</ele><time>2026-04-18T10:03:18.762Z</time></trkpt><trkpt lat="42.604545" lon="11.5476083"><ele>254.0</ele><time>2026-04-18T10:03:19.762Z</time></trkpt><trkpt lat="42.604555" lon="11.5473483"><ele>254.0</ele><time>2026-04-18T10:03:20.762Z</time></trkpt><trkpt lat="42.604565" lon="11.5470967"><ele>254.0</ele><time>2026-04-18T10:03:21.762Z</time></trkpt><trkpt lat="42.6045767" lon="11.54685"><ele>254.0</ele><time>2026-04-18T10:03:22.761Z</time></trkpt><trkpt lat="42.6045833" lon="11.5466217"><ele>253.66666666666669</ele><time>2026-04-18T10:03:23.762Z</time></trkpt><trkpt lat="42.6045917" lon="11.5463967"><ele>253.33333333333331</ele><time>2026-04-18T10:03:24.762Z</time></trkpt><trkpt lat="42.6046083" lon="11.5461817"><ele>253.0</ele><time>2026-04-18T10:03:25.762Z</time></trkpt><trkpt lat="42.604605" lon="11.5459917"><ele>255.0</ele><time>2026-04-18T10:03:26.762Z</time></trkpt><trkpt lat="42.60461" lon="11.5458017"><ele>257.0</ele><time>2026-04-18T10:03:27.762Z</time></trkpt><trkpt lat="42.6045883" lon="11.54561"><ele>259.0</ele><time>2026-04-18T10:03:28.762Z</time></trkpt><trkpt lat="42.6045467" lon="11.5454217"><ele>261.0</ele><time>2026-04-18T10:03:29.761Z</time></trkpt><trkpt lat="42.604495" lon="11.5452583"><ele>262.75</ele><time>2026-04-18T10:03:30.762Z</time></trkpt><trkpt lat="42.604415" lon="11.5451"><ele>264.5</ele><time>2026-04-18T10:03:31.762Z</time></trkpt><trkpt lat="42.6043117" lon="11.5449583"><ele>266.25</ele><time>2026-04-18T10:03:32.762Z</time></trkpt><trkpt lat="42.6041983" lon="11.5448417"><ele>268.0</ele><time>2026-04-18T10:03:33.762Z</time></trkpt><trkpt lat="42.6040683" lon="11.5447333"><ele>268.0</ele><time>2026-04-18T10:03:34.762Z</time></trkpt><trkpt lat="42.6039217" lon="11.5446633"><ele>268.0</ele><time>2026-04-18T10:03:35.762Z</time></trkpt><trkpt lat="42.603785" lon="11.5446117"><ele>268.0</ele><time>2026-04-18T10:03:36.762Z</time></trkpt><trkpt lat="42.6036383" lon="11.5445617"><ele>268.0</ele><time>2026-04-18T10:03:37.762Z</time></trkpt><trkpt lat="42.6034783" lon="11.5445133"><ele>269.3333333333333</ele><time>2026-04-18T10:03:38.762Z</time></trkpt><trkpt lat="42.60332" lon="11.54445"><ele>270.6666666666667</ele><time>2026-04-18T10:03:39.762Z</time></trkpt><trkpt lat="42.6031583" lon="11.544405"><ele>272.0</ele><time>2026-04-18T10:03:40.762Z</time></trkpt><trkpt lat="42.6029833" lon="11.544345"><ele>270.6666666666667</ele><time>2026-04-18T10:03:41.762Z</time></trkpt><trkpt lat="42.6028067" lon="11.544285"><ele>269.3333333333333</ele><time>2026-04-18T10:03:42.762Z</time></trkpt><trkpt lat="42.6026317" lon="11.5442267"><ele>268.0</ele><time>2026-04-18T10:03:43.762Z</time></trkpt><trkpt lat="42.6024517" lon="11.5441717"><ele>268.0</ele><time>2026-04-18T10:03:44.762Z</time></trkpt><trkpt lat="42.6022733" lon="11.5441217"><ele>268.0</ele><time>2026-04-18T10:03:45.762Z</time></trkpt><trkpt lat="42.6020967" lon="11.5440567"><ele>268.0</ele><time>2026-04-18T10:03:46.762Z</time></trkpt><trkpt lat="42.60191" lon="11.5440033"><ele>266.66666666666663</ele><time>2026-04-18T10:03:47.762Z</time></trkpt><trkpt lat="42.6017317" lon="11.5439483"><ele>265.3333333333333</ele><time>2026-04-18T10:03:48.762Z</time></trkpt><trkpt lat="42.6015633" lon="11.543885"><ele>264.0</ele><time>2026-04-18T10:03:49.762Z</time></trkpt><trkpt lat="42.6013867" lon="11.5438267"><ele>264.0</ele><time>2026-04-18T10:03:50.762Z</time></trkpt><trkpt lat="42.6012267" lon="11.5437517"><ele>264.0</ele><time>2026-04-18T10:03:51.762Z</time></trkpt><trkpt lat="42.6010667" lon="11.543645"><ele>264.0</ele><time>2026-04-18T10:03:52.762Z</time></trkpt><trkpt lat="42.6009117" lon="11.5435267"><ele>262.3333333333333</ele><time>2026-04-18T10:03:53.762Z</time></trkpt><trkpt lat="42.6007633" lon="11.543385"><ele>260.66666666666663</ele><time>2026-04-18T10:03:54.762Z</time></trkpt><trkpt lat="42.600635" lon="11.5432233"><ele>259.0</ele><time>2026-04-18T10:03:55.762Z</time></trkpt><trkpt lat="42.6005083" lon="11.5430533"><ele>258.3333333333333</ele><time>2026-04-18T10:03:56.762Z</time></trkpt><trkpt lat="42.6003817" lon="11.5428733"><ele>257.6666666666667</ele><time>2026-04-18T10:03:57.762Z</time></trkpt><trkpt lat="42.6002533" lon="11.5426983"><ele>257.0</ele><time>2026-04-18T10:03:58.762Z</time></trkpt><trkpt lat="42.6001317" lon="11.54252"><ele>257.0</ele><time>2026-04-18T10:03:59.762Z</time></trkpt><trkpt lat="42.6000017" lon="11.5423383"><ele>257.0</ele><time>2026-04-18T10:04:00.762Z</time></trkpt><trkpt lat="42.599875" lon="11.5421583"><ele>257.0</ele><time>2026-04-18T10:04:01.762Z</time></trkpt><trkpt lat="42.599745" lon="11.54197"><ele>257.33333333333337</ele><time>2026-04-18T10:04:02.762Z</time></trkpt><trkpt lat="42.5996083" lon="11.54178"><ele>257.6666666666667</ele><time>2026-04-18T10:04:03.762Z</time></trkpt><trkpt lat="42.5994733" lon="11.5415967"><ele>258.0</ele><time>2026-04-18T10:04:04.762Z</time></trkpt><trkpt lat="42.5993383" lon="11.54142"><ele>257.0</ele><time>2026-04-18T10:04:05.762Z</time></trkpt><trkpt lat="42.599205" lon="11.541255"><ele>256.0</ele><time>2026-04-18T10:04:06.762Z</time></trkpt><trkpt lat="42.5990883" lon="11.541095"><ele>255.0</ele><time>2026-04-18T10:04:07.762Z</time></trkpt><trkpt lat="42.5989883" lon="11.5409367"><ele>254.75</ele><time>2026-04-18T10:04:08.762Z</time></trkpt><trkpt lat="42.598885" lon="11.540785"><ele>254.5</ele><time>2026-04-18T10:04:09.762Z</time></trkpt><trkpt lat="42.5987783" lon="11.5406467"><ele>254.25</ele><time>2026-04-18T10:04:10.762Z</time></trkpt><trkpt lat="42.5986867" lon="11.5405117"><ele>254.0</ele><time>2026-04-18T10:04:11.762Z</time></trkpt><trkpt lat="42.5985967" lon="11.5403883"><ele>253.79999999999998</ele><time>2026-04-18T10:04:12.762Z</time></trkpt><trkpt lat="42.598515" lon="11.5402783"><ele>253.59999999999997</ele><time>2026-04-18T10:04:13.762Z</time></trkpt><trkpt lat="42.5984483" lon="11.5401767"><ele>253.4</ele><time>2026-04-18T10:04:14.762Z</time></trkpt><trkpt lat="42.598385" lon="11.5400867"><ele>253.2</ele><time>2026-04-18T10:04:15.762Z</time></trkpt><trkpt lat="42.5983267" lon="11.5400183"><ele>253.0</ele><time>2026-04-18T10:04:16.762Z</time></trkpt><trkpt lat="42.5982667" lon="11.539955"><ele>253.0</ele><time>2026-04-18T10:04:17.762Z</time></trkpt><trkpt lat="42.5981683" lon="11.5398983"><ele>253.0</ele><time>2026-04-18T10:04:19.761Z</time></trkpt><trkpt lat="42.5980717" lon="11.539885"><ele>253.0</ele><time>2026-04-18T10:04:21.762Z</time></trkpt><trkpt lat="42.597955" lon="11.5398983"><ele>253.0</ele><time>2026-04-18T10:04:23.761Z</time></trkpt><trkpt lat="42.59788" lon="11.5399283"><ele>253.0</ele><time>2026-04-18T10:04:24.762Z</time></trkpt><trkpt lat="42.597805" lon="11.5399617"><ele>252.4</ele><time>2026-04-18T10:04:25.762Z</time></trkpt><trkpt lat="42.5977183" lon="11.5400033"><ele>251.8</ele><time>2026-04-18T10:04:26.762Z</time></trkpt><trkpt lat="42.5976333" lon="11.5400583"><ele>251.2</ele><time>2026-04-18T10:04:27.762Z</time></trkpt><trkpt lat="42.5975483" lon="11.5401117"><ele>250.6</ele><time>2026-04-18T10:04:28.762Z</time></trkpt><trkpt lat="42.597445" lon="11.5401717"><ele>250.0</ele><time>2026-04-18T10:04:29.762Z</time></trkpt><trkpt lat="42.5973383" lon="11.540235"><ele>250.0</ele><time>2026-04-18T10:04:30.762Z</time></trkpt><trkpt lat="42.597225" lon="11.54031"><ele>250.0</ele><time>2026-04-18T10:04:31.762Z</time></trkpt><trkpt lat="42.5971" lon="11.5403883"><ele>250.0</ele><time>2026-04-18T10:04:32.762Z</time></trkpt><trkpt lat="42.5969783" lon="11.5404717"><ele>250.0</ele><time>2026-04-18T10:04:33.762Z</time></trkpt><trkpt lat="42.596855" lon="11.5405533"><ele>249.75</ele><time>2026-04-18T10:04:34.762Z</time></trkpt><trkpt lat="42.59673" lon="11.5406317"><ele>249.5</ele><time>2026-04-18T10:04:35.762Z</time></trkpt><trkpt lat="42.596605" lon="11.5407067"><ele>249.25</ele><time>2026-04-18T10:04:36.762Z</time></trkpt><trkpt lat="42.5964967" lon="11.5407733"><ele>249.0</ele><time>2026-04-18T10:04:37.762Z</time></trkpt><trkpt lat="42.5963883" lon="11.5408183"><ele>249.0</ele><time>2026-04-18T10:04:38.762Z</time></trkpt><trkpt lat="42.5962817" lon="11.5408433"><ele>248.99999999999997</ele><time>2026-04-18T10:04:39.762Z</time></trkpt><trkpt lat="42.5961767" lon="11.5408633"><ele>248.99999999999997</ele><time>2026-04-18T10:04:40.762Z</time></trkpt><trkpt lat="42.59606" lon="11.5408867"><ele>249.0</ele><time>2026-04-18T10:04:41.762Z</time></trkpt><trkpt lat="42.5959467" lon="11.540905"><ele>249.0</ele><time>2026-04-18T10:04:42.762Z</time></trkpt><trkpt lat="42.5958333" lon="11.5409333"><ele>249.75</ele><time>2026-04-18T10:04:43.762Z</time></trkpt><trkpt lat="42.59572" lon="11.54096"><ele>250.5</ele><time>2026-04-18T10:04:44.762Z</time></trkpt><trkpt lat="42.5956033" lon="11.5409833"><ele>251.25</ele><time>2026-04-18T10:04:45.762Z</time></trkpt><trkpt lat="42.5954883" lon="11.541"><ele>252.0</ele><time>2026-04-18T10:04:46.762Z</time></trkpt><trkpt lat="42.595375" lon="11.5410117"><ele>251.75</ele><time>2026-04-18T10:04:47.762Z</time></trkpt><trkpt lat="42.595255" lon="11.5410217"><ele>251.5</ele><time>2026-04-18T10:04:48.762Z</time></trkpt><trkpt lat="42.5951367" lon="11.54104"><ele>251.25</ele><time>2026-04-18T10:04:49.762Z</time></trkpt><trkpt lat="42.5950167" lon="11.5410667"><ele>251.0</ele><time>2026-04-18T10:04:50.762Z</time></trkpt><trkpt lat="42.5949" lon="11.5410917"><ele>251.0</ele><time>2026-04-18T10:04:51.762Z</time></trkpt><trkpt lat="42.5947817" lon="11.5411217"><ele>251.0</ele><time>2026-04-18T10:04:52.762Z</time></trkpt><trkpt lat="42.5946667" lon="11.5411617"><ele>251.0</ele><time>2026-04-18T10:04:53.762Z</time></trkpt><trkpt lat="42.594555" lon="11.5411917"><ele>251.0</ele><time>2026-04-18T10:04:54.761Z</time></trkpt><trkpt lat="42.5944417" lon="11.54122"><ele>251.20000000000002</ele><time>2026-04-18T10:04:55.762Z</time></trkpt><trkpt lat="42.5943267" lon="11.54125"><ele>251.40000000000003</ele><time>2026-04-18T10:04:56.762Z</time></trkpt><trkpt lat="42.5942183" lon="11.54128"><ele>251.6</ele><time>2026-04-18T10:04:57.762Z</time></trkpt><trkpt lat="42.5941183" lon="11.5413117"><ele>251.8</ele><time>2026-04-18T10:04:58.762Z</time></trkpt><trkpt lat="42.594015" lon="11.5413583"><ele>252.0</ele><time>2026-04-18T10:04:59.762Z</time></trkpt><trkpt lat="42.5939233" lon="11.5414167"><ele>252.0</ele><time>2026-04-18T10:05:00.762Z</time></trkpt><trkpt lat="42.5938333" lon="11.5414917"><ele>252.0</ele><time>2026-04-18T10:05:01.762Z</time></trkpt><trkpt lat="42.5937517" lon="11.5415817"><ele>252.0</ele><time>2026-04-18T10:05:02.762Z</time></trkpt><trkpt lat="42.59368" lon="11.5416733"><ele>252.0</ele><time>2026-04-18T10:05:03.761Z</time></trkpt><trkpt lat="42.5936183" lon="11.541755"><ele>252.0</ele><time>2026-04-18T10:05:04.762Z</time></trkpt><trkpt lat="42.59356" lon="11.5418167"><ele>252.2</ele><time>2026-04-18T10:05:05.762Z</time></trkpt><trkpt lat="42.5934917" lon="11.5418683"><ele>252.39999999999998</ele><time>2026-04-18T10:05:06.762Z</time></trkpt><trkpt lat="42.5934067" lon="11.541905"><ele>252.60000000000002</ele><time>2026-04-18T10:05:07.762Z</time></trkpt><trkpt lat="42.5933083" lon="11.5419383"><ele>252.8</ele><time>2026-04-18T10:05:08.762Z</time></trkpt><trkpt lat="42.593205" lon="11.54195"><ele>253.0</ele><time>2026-04-18T10:05:09.762Z</time></trkpt><trkpt lat="42.593105" lon="11.541945"><ele>253.0</ele><time>2026-04-18T10:05:10.762Z</time></trkpt><trkpt lat="42.5929967" lon="11.5419283"><ele>253.0</ele><time>2026-04-18T10:05:11.762Z</time></trkpt><trkpt lat="42.592885" lon="11.5418967"><ele>253.0</ele><time>2026-04-18T10:05:12.762Z</time></trkpt><trkpt lat="42.592775" lon="11.5418617"><ele>253.0</ele><time>2026-04-18T10:05:13.762Z</time></trkpt><trkpt lat="42.592665" lon="11.5418233"><ele>254.0</ele><time>2026-04-18T10:05:14.762Z</time></trkpt><trkpt lat="42.592565" lon="11.541785"><ele>255.0</ele><time>2026-04-18T10:05:15.762Z</time></trkpt><trkpt lat="42.5924583" lon="11.541765"><ele>256.0</ele><time>2026-04-18T10:05:16.762Z</time></trkpt><trkpt lat="42.5923483" lon="11.5417567"><ele>257.0</ele><time>2026-04-18T10:05:17.762Z</time></trkpt><trkpt lat="42.5922483" lon="11.541755"><ele>258.0</ele><time>2026-04-18T10:05:18.762Z</time></trkpt><trkpt lat="42.5921483" lon="11.54177"><ele>258.0</ele><time>2026-04-18T10:05:19.762Z</time></trkpt><trkpt lat="42.5920467" lon="11.5417917"><ele>258.0</ele><time>2026-04-18T10:05:20.762Z</time></trkpt><trkpt lat="42.5919433" lon="11.54182"><ele>258.0</ele><time>2026-04-18T10:05:21.762Z</time></trkpt><trkpt lat="42.591835" lon="11.5418483"><ele>258.0</ele><time>2026-04-18T10:05:22.762Z</time></trkpt><trkpt lat="42.5917217" lon="11.54187"><ele>258.0</ele><time>2026-04-18T10:05:23.762Z</time></trkpt><trkpt lat="42.5916017" lon="11.541885"><ele>258.25</ele><time>2026-04-18T10:05:24.762Z</time></trkpt><trkpt lat="42.5914817" lon="11.541905"><ele>258.5</ele><time>2026-04-18T10:05:25.762Z</time></trkpt><trkpt lat="42.59136" lon="11.54191"><ele>258.75</ele><time>2026-04-18T10:05:26.762Z</time></trkpt><trkpt lat="42.5912367" lon="11.54193"><ele>259.0</ele><time>2026-04-18T10:05:27.762Z</time></trkpt><trkpt lat="42.5911117" lon="11.541955"><ele>258.25</ele><time>2026-04-18T10:05:28.761Z</time></trkpt><trkpt lat="42.5909833" lon="11.5419883"><ele>257.5</ele><time>2026-04-18T10:05:29.762Z</time></trkpt><trkpt lat="42.5908567" lon="11.542015"><ele>256.75</ele><time>2026-04-18T10:05:30.762Z</time></trkpt><trkpt lat="42.5907283" lon="11.5420367"><ele>256.0</ele><time>2026-04-18T10:05:31.761Z</time></trkpt><trkpt lat="42.5905933" lon="11.5420483"><ele>256.75</ele><time>2026-04-18T10:05:32.762Z</time></trkpt><trkpt lat="42.590455" lon="11.5420633"><ele>257.5</ele><time>2026-04-18T10:05:33.761Z</time></trkpt><trkpt lat="42.5903117" lon="11.542065"><ele>258.25</ele><time>2026-04-18T10:05:34.762Z</time></trkpt><trkpt lat="42.5901733" lon="11.5420767"><ele>259.0</ele><time>2026-04-18T10:05:35.762Z</time></trkpt><trkpt lat="42.5900367" lon="11.5420867"><ele>259.0</ele><time>2026-04-18T10:05:36.762Z</time></trkpt><trkpt lat="42.5898983" lon="11.5421"><ele>259.0</ele><time>2026-04-18T10:05:37.762Z</time></trkpt><trkpt lat="42.5897667" lon="11.5421133"><ele>259.0</ele><time>2026-04-18T10:05:38.762Z</time></trkpt><trkpt lat="42.589645" lon="11.5421317"><ele>259.0</ele><time>2026-04-18T10:05:39.762Z</time></trkpt><trkpt lat="42.589515" lon="11.5421767"><ele>258.5</ele><time>2026-04-18T10:05:40.761Z</time></trkpt><trkpt lat="42.5894" lon="11.5422217"><ele>258.0</ele><time>2026-04-18T10:05:41.762Z</time></trkpt><trkpt lat="42.58928" lon="11.5422883"><ele>257.5</ele><time>2026-04-18T10:05:42.762Z</time></trkpt><trkpt lat="42.5891667" lon="11.5423417"><ele>257.0</ele><time>2026-04-18T10:05:43.762Z</time></trkpt><trkpt lat="42.589045" lon="11.542385"><ele>257.0</ele><time>2026-04-18T10:05:44.762Z</time></trkpt><trkpt lat="42.588925" lon="11.5424117"><ele>257.0</ele><time>2026-04-18T10:05:45.761Z</time></trkpt><trkpt lat="42.5887967" lon="11.542435"><ele>257.0</ele><time>2026-04-18T10:05:46.761Z</time></trkpt><trkpt lat="42.588655" lon="11.5424483"><ele>257.0</ele><time>2026-04-18T10:05:47.762Z</time></trkpt><trkpt lat="42.5885183" lon="11.5424633"><ele>257.5</ele><time>2026-04-18T10:05:48.762Z</time></trkpt><trkpt lat="42.5883933" lon="11.5424667"><ele>258.0</ele><time>2026-04-18T10:05:49.762Z</time></trkpt><trkpt lat="42.5882667" lon="11.5424783"><ele>258.5</ele><time>2026-04-18T10:05:50.762Z</time></trkpt><trkpt lat="42.5881417" lon="11.542495"><ele>259.0</ele><time>2026-04-18T10:05:51.761Z</time></trkpt><trkpt lat="42.5880283" lon="11.542505"><ele>259.0</ele><time>2026-04-18T10:05:52.762Z</time></trkpt><trkpt lat="42.587915" lon="11.5425183"><ele>259.0</ele><time>2026-04-18T10:05:53.762Z</time></trkpt><trkpt lat="42.5878083" lon="11.5425283"><ele>259.0</ele><time>2026-04-18T10:05:54.762Z</time></trkpt><trkpt lat="42.5877033" lon="11.5425283"><ele>259.0</ele><time>2026-04-18T10:05:55.762Z</time></trkpt><trkpt lat="42.5876017" lon="11.5425233"><ele>259.0</ele><time>2026-04-18T10:05:56.762Z</time></trkpt><trkpt lat="42.587505" lon="11.5425167"><ele>261.25</ele><time>2026-04-18T10:05:57.762Z</time></trkpt><trkpt lat="42.5873983" lon="11.5425283"><ele>263.5</ele><time>2026-04-18T10:05:58.762Z</time></trkpt><trkpt lat="42.5872883" lon="11.54253"><ele>265.75</ele><time>2026-04-18T10:05:59.762Z</time></trkpt><trkpt lat="42.5871717" lon="11.5425283"><ele>268.0</ele><time>2026-04-18T10:06:00.762Z</time></trkpt><trkpt lat="42.5870583" lon="11.5424917"><ele>269.5</ele><time>2026-04-18T10:06:01.761Z</time></trkpt><trkpt lat="42.58695" lon="11.5424333"><ele>271.0</ele><time>2026-04-18T10:06:02.762Z</time></trkpt><trkpt lat="42.5868433" lon="11.5423667"><ele>272.5</ele><time>2026-04-18T10:06:03.762Z</time></trkpt><trkpt lat="42.586735" lon="11.5422883"><ele>274.0</ele><time>2026-04-18T10:06:04.762Z</time></trkpt><trkpt lat="42.5866367" lon="11.5422167"><ele>274.0</ele><time>2026-04-18T10:06:05.762Z</time></trkpt><trkpt lat="42.58653" lon="11.54215"><ele>274.0</ele><time>2026-04-18T10:06:06.762Z</time></trkpt><trkpt lat="42.5864233" lon="11.542095"><ele>274.0</ele><time>2026-04-18T10:06:07.762Z</time></trkpt><trkpt lat="42.5863183" lon="11.5420367"><ele>274.0</ele><time>2026-04-18T10:06:08.762Z</time></trkpt><trkpt lat="42.5862117" lon="11.5419833"><ele>273.5</ele><time>2026-04-18T10:06:09.762Z</time></trkpt><trkpt lat="42.5861033" lon="11.5419333"><ele>273.0</ele><time>2026-04-18T10:06:10.762Z</time></trkpt><trkpt lat="42.5859817" lon="11.5418867"><ele>272.5</ele><time>2026-04-18T10:06:11.762Z</time></trkpt><trkpt lat="42.5858667" lon="11.5418483"><ele>272.0</ele><time>2026-04-18T10:06:12.762Z</time></trkpt><trkpt lat="42.5857533" lon="11.5418083"><ele>272.0</ele><time>2026-04-18T10:06:13.762Z</time></trkpt><trkpt lat="42.5856317" lon="11.54177"><ele>272.0</ele><time>2026-04-18T10:06:14.762Z</time></trkpt><trkpt lat="42.5855167" lon="11.54174"><ele>272.0</ele><time>2026-04-18T10:06:15.762Z</time></trkpt><trkpt lat="42.5853883" lon="11.5417233"><ele>272.0</ele><time>2026-04-18T10:06:16.762Z</time></trkpt><trkpt lat="42.585245" lon="11.5417233"><ele>273.75</ele><time>2026-04-18T10:06:17.762Z</time></trkpt><trkpt lat="42.5851083" lon="11.5417217"><ele>275.5</ele><time>2026-04-18T10:06:18.762Z</time></trkpt><trkpt lat="42.5849783" lon="11.5417167"><ele>277.25</ele><time>2026-04-18T10:06:19.762Z</time></trkpt><trkpt lat="42.5848533" lon="11.5417167"><ele>279.0</ele><time>2026-04-18T10:06:20.762Z</time></trkpt><trkpt lat="42.5847167" lon="11.54171"><ele>279.0</ele><time>2026-04-18T10:06:21.762Z</time></trkpt><trkpt lat="42.5845867" lon="11.5416983"><ele>279.0</ele><time>2026-04-18T10:06:22.762Z</time></trkpt><trkpt lat="42.5844517" lon="11.541685"><ele>279.0</ele><time>2026-04-18T10:06:23.762Z</time></trkpt><trkpt lat="42.58432" lon="11.5416533"><ele>279.0</ele><time>2026-04-18T10:06:24.762Z</time></trkpt><trkpt lat="42.5842" lon="11.54163"><ele>280.25</ele><time>2026-04-18T10:06:25.762Z</time></trkpt><trkpt lat="42.584075" lon="11.54161"><ele>281.5</ele><time>2026-04-18T10:06:26.762Z</time></trkpt><trkpt lat="42.5839533" lon="11.5416"><ele>282.75</ele><time>2026-04-18T10:06:27.762Z</time></trkpt><trkpt lat="42.5838283" lon="11.5415967"><ele>284.0</ele><time>2026-04-18T10:06:28.762Z</time></trkpt><trkpt lat="42.5837" lon="11.5416"><ele>284.75</ele><time>2026-04-18T10:06:29.762Z</time></trkpt><trkpt lat="42.5835717" lon="11.5416"><ele>285.5</ele><time>2026-04-18T10:06:30.762Z</time></trkpt><trkpt lat="42.58344" lon="11.541575"><ele>286.25</ele><time>2026-04-18T10:06:31.762Z</time></trkpt><trkpt lat="42.5833183" lon="11.5415283"><ele>287.0</ele><time>2026-04-18T10:06:32.762Z</time></trkpt><trkpt lat="42.5832117" lon="11.5414917"><ele>287.0</ele><time>2026-04-18T10:06:33.762Z</time></trkpt><trkpt lat="42.58311" lon="11.5414633"><ele>287.0</ele><time>2026-04-18T10:06:34.762Z</time></trkpt><trkpt lat="42.583015" lon="11.54144"><ele>287.0</ele><time>2026-04-18T10:06:35.762Z</time></trkpt><trkpt lat="42.5829133" lon="11.5414433"><ele>287.0</ele><time>2026-04-18T10:06:36.762Z</time></trkpt><trkpt lat="42.5828083" lon="11.5414683"><ele>287.0</ele><time>2026-04-18T10:06:37.762Z</time></trkpt><trkpt lat="42.5827067" lon="11.541515"><ele>287.0</ele><time>2026-04-18T10:06:38.762Z</time></trkpt><trkpt lat="42.58259" lon="11.5415533"><ele>287.0</ele><time>2026-04-18T10:06:39.762Z</time></trkpt><trkpt lat="42.5824783" lon="11.5415783"><ele>287.0</ele><time>2026-04-18T10:06:40.762Z</time></trkpt><trkpt lat="42.5823583" lon="11.5415817"><ele>287.0</ele><time>2026-04-18T10:06:41.762Z</time></trkpt><trkpt lat="42.58225" lon="11.54158"><ele>287.0</ele><time>2026-04-18T10:06:42.762Z</time></trkpt><trkpt lat="42.5821517" lon="11.5415767"><ele>287.0</ele><time>2026-04-18T10:06:43.762Z</time></trkpt><trkpt lat="42.5820517" lon="11.54157"><ele>287.0</ele><time>2026-04-18T10:06:44.762Z</time></trkpt><trkpt lat="42.581945" lon="11.54157"><ele>287.0</ele><time>2026-04-18T10:06:45.762Z</time></trkpt><trkpt lat="42.5818233" lon="11.54157"><ele>287.0</ele><time>2026-04-18T10:06:46.762Z</time></trkpt><trkpt lat="42.5816883" lon="11.5415767"><ele>287.0</ele><time>2026-04-18T10:06:47.762Z</time></trkpt><trkpt lat="42.5815667" lon="11.54157"><ele>287.0</ele><time>2026-04-18T10:06:48.762Z</time></trkpt><trkpt lat="42.58145" lon="11.54156"><ele>287.0</ele><time>2026-04-18T10:06:49.762Z</time></trkpt><trkpt lat="42.581355" lon="11.5415433"><ele>287.0</ele><time>2026-04-18T10:06:50.762Z</time></trkpt><trkpt lat="42.581275" lon="11.541545"><ele>287.0</ele><time>2026-04-18T10:06:51.762Z</time></trkpt><trkpt lat="42.5812117" lon="11.541555"><ele>287.0</ele><time>2026-04-18T10:06:52.762Z</time></trkpt><trkpt lat="42.581145" lon="11.5415733"><ele>287.0</ele><time>2026-04-18T10:06:53.762Z</time></trkpt><trkpt lat="42.5811083" lon="11.5416567"><ele>287.0</ele><time>2026-04-18T10:06:56.762Z</time></trkpt><trkpt lat="42.5811717" lon="11.5417567"><ele>287.0</ele><time>2026-04-18T10:06:58.762Z</time></trkpt><trkpt lat="42.5812283" lon="11.5418233"><ele>287.0</ele><time>2026-04-18T10:06:59.762Z</time></trkpt><trkpt lat="42.58128" lon="11.5419017"><ele>287.0</ele><time>2026-04-18T10:07:00.762Z</time></trkpt><trkpt lat="42.5813333" lon="11.5419867"><ele>287.8</ele><time>2026-04-18T10:07:01.762Z</time></trkpt><trkpt lat="42.5813883" lon="11.5420767"><ele>288.6</ele><time>2026-04-18T10:07:02.762Z</time></trkpt><trkpt lat="42.5814433" lon="11.542175"><ele>289.40000000000003</ele><time>2026-04-18T10:07:03.762Z</time></trkpt><trkpt lat="42.5815" lon="11.54229"><ele>290.2</ele><time>2026-04-18T10:07:04.762Z</time></trkpt><trkpt lat="42.5815533" lon="11.5423983"><ele>291.0</ele><time>2026-04-18T10:07:05.762Z</time></trkpt><trkpt lat="42.5816033" lon="11.5425033"><ele>291.0</ele><time>2026-04-18T10:07:06.762Z</time></trkpt><trkpt lat="42.58165" lon="11.542615"><ele>291.0</ele><time>2026-04-18T10:07:07.761Z</time></trkpt><trkpt lat="42.58169" lon="11.5427317"><ele>291.0</ele><time>2026-04-18T10:07:08.762Z</time></trkpt><trkpt lat="42.58172" lon="11.5428533"><ele>291.0</ele><time>2026-04-18T10:07:09.761Z</time></trkpt><trkpt lat="42.581745" lon="11.542985"><ele>291.0</ele><time>2026-04-18T10:07:10.762Z</time></trkpt><trkpt lat="42.5817583" lon="11.543125"><ele>291.6</ele><time>2026-04-18T10:07:11.762Z</time></trkpt><trkpt lat="42.5817667" lon="11.543265"><ele>292.20000000000005</ele><time>2026-04-18T10:07:12.762Z</time></trkpt><trkpt lat="42.58178" lon="11.543405"><ele>292.79999999999995</ele><time>2026-04-18T10:07:13.762Z</time></trkpt><trkpt lat="42.581795" lon="11.5435433"><ele>293.4</ele><time>2026-04-18T10:07:14.762Z</time></trkpt><trkpt lat="42.581805" lon="11.5436883"><ele>294.0</ele><time>2026-04-18T10:07:15.762Z</time></trkpt><trkpt lat="42.58181" lon="11.54383"><ele>296.0</ele><time>2026-04-18T10:07:16.762Z</time></trkpt><trkpt lat="42.581815" lon="11.5439783"><ele>298.0</ele><time>2026-04-18T10:07:17.762Z</time></trkpt><trkpt lat="42.58182" lon="11.5441283"><ele>300.0</ele><time>2026-04-18T10:07:18.762Z</time></trkpt><trkpt lat="42.5818333" lon="11.544275"><ele>302.0</ele><time>2026-04-18T10:07:19.762Z</time></trkpt><trkpt lat="42.581845" lon="11.5444067"><ele>304.0</ele><time>2026-04-18T10:07:20.762Z</time></trkpt><trkpt lat="42.581875" lon="11.54453"><ele>306.4</ele><time>2026-04-18T10:07:21.761Z</time></trkpt><trkpt lat="42.581915" lon="11.5446533"><ele>308.79999999999995</ele><time>2026-04-18T10:07:22.762Z</time></trkpt><trkpt lat="42.5819683" lon="11.5447733"><ele>311.20000000000005</ele><time>2026-04-18T10:07:23.762Z</time></trkpt><trkpt lat="42.5820217" lon="11.5449"><ele>313.6</ele><time>2026-04-18T10:07:24.762Z</time></trkpt><trkpt lat="42.582085" lon="11.5450317"><ele>316.0</ele><time>2026-04-18T10:07:25.762Z</time></trkpt><trkpt lat="42.5821533" lon="11.5451767"><ele>316.25</ele><time>2026-04-18T10:07:26.762Z</time></trkpt><trkpt lat="42.5822183" lon="11.545315"><ele>316.5</ele><time>2026-04-18T10:07:27.762Z</time></trkpt><trkpt lat="42.5822767" lon="11.5454583"><ele>316.75</ele><time>2026-04-18T10:07:28.762Z</time></trkpt><trkpt lat="42.582335" lon="11.545605"><ele>317.0</ele><time>2026-04-18T10:07:29.762Z</time></trkpt><trkpt lat="42.5824" lon="11.5457583"><ele>319.5</ele><time>2026-04-18T10:07:30.762Z</time></trkpt><trkpt lat="42.5824617" lon="11.5459167"><ele>322.0</ele><time>2026-04-18T10:07:31.762Z</time></trkpt><trkpt lat="42.5825233" lon="11.5460617"><ele>324.5</ele><time>2026-04-18T10:07:32.762Z</time></trkpt><trkpt lat="42.582585" lon="11.5462017"><ele>327.0</ele><time>2026-04-18T10:07:33.762Z</time></trkpt><trkpt lat="42.582645" lon="11.5463283"><ele>327.8</ele><time>2026-04-18T10:07:34.762Z</time></trkpt><trkpt lat="42.5826983" lon="11.546455"><ele>328.6</ele><time>2026-04-18T10:07:35.762Z</time></trkpt><trkpt lat="42.5827517" lon="11.5465883"><ele>329.40000000000003</ele><time>2026-04-18T10:07:36.762Z</time></trkpt><trkpt lat="42.582815" lon="11.5467217"><ele>330.20000000000005</ele><time>2026-04-18T10:07:37.762Z</time></trkpt><trkpt lat="42.5828617" lon="11.54685"><ele>331.0</ele><time>2026-04-18T10:07:38.762Z</time></trkpt><trkpt lat="42.5829033" lon="11.5469583"><ele>331.5</ele><time>2026-04-18T10:07:39.762Z</time></trkpt><trkpt lat="42.58294" lon="11.54706"><ele>332.0</ele><time>2026-04-18T10:07:40.762Z</time></trkpt><trkpt lat="42.582965" lon="11.54715"><ele>332.5</ele><time>2026-04-18T10:07:41.762Z</time></trkpt><trkpt lat="42.58298" lon="11.5472533"><ele>333.0</ele><time>2026-04-18T10:07:42.762Z</time></trkpt><trkpt lat="42.58299" lon="11.5473683"><ele>333.5</ele><time>2026-04-18T10:07:43.762Z</time></trkpt><trkpt lat="42.5829983" lon="11.5474867"><ele>334.0</ele><time>2026-04-18T10:07:44.762Z</time></trkpt><trkpt lat="42.58301" lon="11.5476267"><ele>334.0</ele><time>2026-04-18T10:07:45.762Z</time></trkpt><trkpt lat="42.58302" lon="11.5477717"><ele>334.0</ele><time>2026-04-18T10:07:46.762Z</time></trkpt><trkpt lat="42.5830333" lon="11.547915"><ele>334.0</ele><time>2026-04-18T10:07:47.762Z</time></trkpt><trkpt lat="42.583045" lon="11.5480683"><ele>334.0</ele><time>2026-04-18T10:07:48.761Z</time></trkpt><trkpt lat="42.5830517" lon="11.5482167"><ele>334.0</ele><time>2026-04-18T10:07:49.762Z</time></trkpt><trkpt lat="42.58306" lon="11.54836"><ele>334.25</ele><time>2026-04-18T10:07:50.762Z</time></trkpt><trkpt lat="42.5830633" lon="11.5485067"><ele>334.5</ele><time>2026-04-18T10:07:51.761Z</time></trkpt><trkpt lat="42.5830733" lon="11.5486667"><ele>334.75</ele><time>2026-04-18T10:07:52.761Z</time></trkpt><trkpt lat="42.5830783" lon="11.5488267"><ele>335.0</ele><time>2026-04-18T10:07:53.762Z</time></trkpt><trkpt lat="42.5830767" lon="11.5489733"><ele>335.0</ele><time>2026-04-18T10:07:54.762Z</time></trkpt><trkpt lat="42.5830867" lon="11.5491083"><ele>335.0</ele><time>2026-04-18T10:07:55.762Z</time></trkpt><trkpt lat="42.583095" lon="11.5492467"><ele>335.0</ele><time>2026-04-18T10:07:56.762Z</time></trkpt><trkpt lat="42.5831067" lon="11.5493867"><ele>335.0</ele><time>2026-04-18T10:07:57.762Z</time></trkpt><trkpt lat="42.5831267" lon="11.5495317"><ele>335.0</ele><time>2026-04-18T10:07:58.762Z</time></trkpt><trkpt lat="42.5831567" lon="11.5496783"><ele>335.25</ele><time>2026-04-18T10:07:59.762Z</time></trkpt><trkpt lat="42.5831967" lon="11.5498283"><ele>335.5</ele><time>2026-04-18T10:08:00.762Z</time></trkpt><trkpt lat="42.5832433" lon="11.5499817"><ele>335.75</ele><time>2026-04-18T10:08:01.762Z</time></trkpt><trkpt lat="42.583285" lon="11.5501233"><ele>336.0</ele><time>2026-04-18T10:08:02.762Z</time></trkpt><trkpt lat="42.5833217" lon="11.550255"><ele>337.5</ele><time>2026-04-18T10:08:03.762Z</time></trkpt><trkpt lat="42.5833583" lon="11.55041"><ele>339.0</ele><time>2026-04-18T10:08:04.762Z</time></trkpt><trkpt lat="42.5833933" lon="11.5505517"><ele>340.5</ele><time>2026-04-18T10:08:05.762Z</time></trkpt><trkpt lat="42.5834317" lon="11.5506983"><ele>342.0</ele><time>2026-04-18T10:08:06.762Z</time></trkpt><trkpt lat="42.5834783" lon="11.5508467"><ele>342.0</ele><time>2026-04-18T10:08:07.762Z</time></trkpt><trkpt lat="42.5835217" lon="11.5510033"><ele>342.0</ele><time>2026-04-18T10:08:08.762Z</time></trkpt><trkpt lat="42.583565" lon="11.5511583"><ele>342.0</ele><time>2026-04-18T10:08:09.762Z</time></trkpt><trkpt lat="42.5836067" lon="11.5513067"><ele>342.0</ele><time>2026-04-18T10:08:10.762Z</time></trkpt><trkpt lat="42.5836433" lon="11.5514417"><ele>344.40000000000003</ele><time>2026-04-18T10:08:11.761Z</time></trkpt><trkpt lat="42.5836783" lon="11.5515817"><ele>346.8</ele><time>2026-04-18T10:08:12.762Z</time></trkpt><trkpt lat="42.5837183" lon="11.5517133"><ele>349.2</ele><time>2026-04-18T10:08:13.762Z</time></trkpt><trkpt lat="42.5837567" lon="11.5518333"><ele>351.6</ele><time>2026-04-18T10:08:14.762Z</time></trkpt><trkpt lat="42.5838" lon="11.55197"><ele>354.0</ele><time>2026-04-18T10:08:15.762Z</time></trkpt><trkpt lat="42.5838317" lon="11.5521117"><ele>349.0</ele><time>2026-04-18T10:08:16.762Z</time></trkpt><trkpt lat="42.5838617" lon="11.5522483"><ele>344.0</ele><time>2026-04-18T10:08:17.762Z</time></trkpt><trkpt lat="42.5838833" lon="11.55238"><ele>339.0</ele><time>2026-04-18T10:08:18.762Z</time></trkpt><trkpt lat="42.5839017" lon="11.55252"><ele>334.0</ele><time>2026-04-18T10:08:19.762Z</time></trkpt><trkpt lat="42.583925" lon="11.55266"><ele>329.0</ele><time>2026-04-18T10:08:20.762Z</time></trkpt><trkpt lat="42.58395" lon="11.5528083"><ele>328.6</ele><time>2026-04-18T10:08:21.762Z</time></trkpt><trkpt lat="42.5839633" lon="11.552955"><ele>328.2</ele><time>2026-04-18T10:08:22.762Z</time></trkpt><trkpt lat="42.583965" lon="11.5531033"><ele>327.8</ele><time>2026-04-18T10:08:23.762Z</time></trkpt><trkpt lat="42.5839667" lon="11.5532417"><ele>327.40000000000003</ele><time>2026-04-18T10:08:24.762Z</time></trkpt><trkpt lat="42.583965" lon="11.5533633"><ele>327.0</ele><time>2026-04-18T10:08:25.762Z</time></trkpt><trkpt lat="42.5839617" lon="11.5534867"><ele>327.0</ele><time>2026-04-18T10:08:26.762Z</time></trkpt><trkpt lat="42.583955" lon="11.5536083"><ele>327.0</ele><time>2026-04-18T10:08:27.762Z</time></trkpt><trkpt lat="42.58394" lon="11.5537533"><ele>327.0</ele><time>2026-04-18T10:08:28.762Z</time></trkpt><trkpt lat="42.58392" lon="11.553905"><ele>327.0</ele><time>2026-04-18T10:08:29.762Z</time></trkpt><trkpt lat="42.5839033" lon="11.5540683"><ele>327.0</ele><time>2026-04-18T10:08:30.762Z</time></trkpt><trkpt lat="42.583875" lon="11.554225"><ele>326.6</ele><time>2026-04-18T10:08:31.762Z</time></trkpt><trkpt lat="42.583845" lon="11.55437"><ele>326.20000000000005</ele><time>2026-04-18T10:08:32.761Z</time></trkpt><trkpt lat="42.5838133" lon="11.5545033"><ele>325.8</ele><time>2026-04-18T10:08:33.762Z</time></trkpt><trkpt lat="42.5837833" lon="11.55462"><ele>325.4</ele><time>2026-04-18T10:08:34.762Z</time></trkpt><trkpt lat="42.5837417" lon="11.554715"><ele>325.0</ele><time>2026-04-18T10:08:35.762Z</time></trkpt><trkpt lat="42.5837017" lon="11.5548117"><ele>326.0</ele><time>2026-04-18T10:08:36.762Z</time></trkpt><trkpt lat="42.58366" lon="11.5549083"><ele>327.0</ele><time>2026-04-18T10:08:37.762Z</time></trkpt><trkpt lat="42.58362" lon="11.555"><ele>328.0</ele><time>2026-04-18T10:08:38.762Z</time></trkpt><trkpt lat="42.583575" lon="11.5550917"><ele>329.0</ele><time>2026-04-18T10:08:39.762Z</time></trkpt><trkpt lat="42.5835083" lon="11.5552233"><ele>330.0</ele><time>2026-04-18T10:08:41.762Z</time></trkpt><trkpt lat="42.5834433" lon="11.555325"><ele>327.1666666666667</ele><time>2026-04-18T10:08:43.762Z</time></trkpt><trkpt lat="42.5833567" lon="11.5554417"><ele>324.3333333333333</ele><time>2026-04-18T10:08:45.762Z</time></trkpt><trkpt lat="42.5833033" lon="11.555495"><ele>321.5</ele><time>2026-04-18T10:08:46.762Z</time></trkpt><trkpt lat="42.5832333" lon="11.5555617"><ele>318.66666666666663</ele><time>2026-04-18T10:08:47.762Z</time></trkpt><trkpt lat="42.58317" lon="11.555615"><ele>315.8333333333333</ele><time>2026-04-18T10:08:48.762Z</time></trkpt><trkpt lat="42.5831067" lon="11.55568"><ele>313.0</ele><time>2026-04-18T10:08:49.762Z</time></trkpt><trkpt lat="42.5830533" lon="11.5557683"><ele>313.0</ele><time>2026-04-18T10:08:50.762Z</time></trkpt><trkpt lat="42.583025" lon="11.5558783"><ele>313.0</ele><time>2026-04-18T10:08:51.761Z</time></trkpt><trkpt lat="42.583" lon="11.5559933"><ele>313.0</ele><time>2026-04-18T10:08:52.762Z</time></trkpt><trkpt lat="42.582985" lon="11.5560867"><ele>313.0</ele><time>2026-04-18T10:08:53.762Z</time></trkpt><trkpt lat="42.5829517" lon="11.5561817"><ele>313.0</ele><time>2026-04-18T10:08:54.762Z</time></trkpt><trkpt lat="42.5829" lon="11.55626"><ele>313.0</ele><time>2026-04-18T10:08:55.762Z</time></trkpt><trkpt lat="42.5828517" lon="11.5563467"><ele>312.66666666666663</ele><time>2026-04-18T10:08:56.762Z</time></trkpt><trkpt lat="42.582815" lon="11.5564333"><ele>312.3333333333333</ele><time>2026-04-18T10:08:57.762Z</time></trkpt><trkpt lat="42.5827633" lon="11.5566"><ele>312.0</ele><time>2026-04-18T10:08:59.762Z</time></trkpt><trkpt lat="42.5827383" lon="11.55669"><ele>311.6666666666667</ele><time>2026-04-18T10:09:00.761Z</time></trkpt><trkpt lat="42.5827117" lon="11.5567917"><ele>311.33333333333337</ele><time>2026-04-18T10:09:01.762Z</time></trkpt><trkpt lat="42.58269" lon="11.5568933"><ele>311.0</ele><time>2026-04-18T10:09:02.762Z</time></trkpt><trkpt lat="42.5826683" lon="11.5570033"><ele>308.5</ele><time>2026-04-18T10:09:03.762Z</time></trkpt><trkpt lat="42.5826483" lon="11.557105"><ele>306.0</ele><time>2026-04-18T10:09:04.762Z</time></trkpt><trkpt lat="42.582615" lon="11.5572067"><ele>303.5</ele><time>2026-04-18T10:09:05.762Z</time></trkpt><trkpt lat="42.5825817" lon="11.55731"><ele>301.0</ele><time>2026-04-18T10:09:06.762Z</time></trkpt><trkpt lat="42.5825483" lon="11.5574067"><ele>298.5</ele><time>2026-04-18T10:09:07.762Z</time></trkpt><trkpt lat="42.582505" lon="11.5575017"><ele>296.0</ele><time>2026-04-18T10:09:08.762Z</time></trkpt><trkpt lat="42.5824567" lon="11.5575883"><ele>296.0</ele><time>2026-04-18T10:09:09.762Z</time></trkpt><trkpt lat="42.5824167" lon="11.5576667"><ele>296.0</ele><time>2026-04-18T10:09:10.762Z</time></trkpt><trkpt lat="42.5823783" lon="11.5577467"><ele>296.0</ele><time>2026-04-18T10:09:11.762Z</time></trkpt><trkpt lat="42.5823067" lon="11.5578817"><ele>296.0</ele><time>2026-04-18T10:09:13.762Z</time></trkpt><trkpt lat="42.5822367" lon="11.5580033"><ele>296.0</ele><time>2026-04-18T10:09:15.762Z</time></trkpt><trkpt lat="42.5821667" lon="11.5581167"><ele>295.0</ele><time>2026-04-18T10:09:17.762Z</time></trkpt><trkpt lat="42.58212" lon="11.558175"><ele>294.0</ele><time>2026-04-18T10:09:18.762Z</time></trkpt><trkpt lat="42.58202" lon="11.5582617"><ele>293.0</ele><time>2026-04-18T10:09:20.762Z</time></trkpt><trkpt lat="42.5819483" lon="11.55838"><ele>292.0</ele><time>2026-04-18T10:09:22.762Z</time></trkpt><trkpt lat="42.581925" lon="11.5585417"><ele>291.0</ele><time>2026-04-18T10:09:24.762Z</time></trkpt><trkpt lat="42.5819267" lon="11.5586283"><ele>288.2</ele><time>2026-04-18T10:09:25.762Z</time></trkpt><trkpt lat="42.5818967" lon="11.5587683"><ele>285.40000000000003</ele><time>2026-04-18T10:09:27.762Z</time></trkpt><trkpt lat="42.5818317" lon="11.558895"><ele>282.6</ele><time>2026-04-18T10:09:29.762Z</time></trkpt><trkpt lat="42.5817367" lon="11.5589967"><ele>279.8</ele><time>2026-04-18T10:09:31.762Z</time></trkpt><trkpt lat="42.5816767" lon="11.5590333"><ele>277.0</ele><time>2026-04-18T10:09:32.762Z</time></trkpt><trkpt lat="42.58161" lon="11.55905"><ele>277.0</ele><time>2026-04-18T10:09:33.762Z</time></trkpt><trkpt lat="42.5814917" lon="11.5590767"><ele>277.0</ele><time>2026-04-18T10:09:35.761Z</time></trkpt><trkpt lat="42.581385" lon="11.5591467"><ele>277.0</ele><time>2026-04-18T10:09:37.762Z</time></trkpt><trkpt lat="42.5812883" lon="11.5592617"><ele>277.0</ele><time>2026-04-18T10:09:39.762Z</time></trkpt><trkpt lat="42.58124" lon="11.5593367"><ele>277.0</ele><time>2026-04-18T10:09:40.762Z</time></trkpt><trkpt lat="42.581205" lon="11.5594233"><ele>276.85714285714283</ele><time>2026-04-18T10:09:41.762Z</time></trkpt><trkpt lat="42.5811783" lon="11.5595133"><ele>276.71428571428567</ele><time>2026-04-18T10:09:42.762Z</time></trkpt><trkpt lat="42.58115" lon="11.5596067"><ele>276.57142857142856</ele><time>2026-04-18T10:09:43.762Z</time></trkpt><trkpt lat="42.5811217" lon="11.5596983"><ele>276.42857142857144</ele><time>2026-04-18T10:09:44.762Z</time></trkpt><trkpt lat="42.5810917" lon="11.5597817"><ele>276.28571428571433</ele><time>2026-04-18T10:09:45.762Z</time></trkpt><trkpt lat="42.5810583" lon="11.559875"><ele>276.14285714285717</ele><time>2026-04-18T10:09:46.762Z</time></trkpt><trkpt lat="42.5810233" lon="11.5599733"><ele>276.0</ele><time>2026-04-18T10:09:47.761Z</time></trkpt><trkpt lat="42.5809967" lon="11.5600633"><ele>276.0</ele><time>2026-04-18T10:09:48.762Z</time></trkpt><trkpt lat="42.5809783" lon="11.5601633"><ele>276.0</ele><time>2026-04-18T10:09:49.762Z</time></trkpt><trkpt lat="42.5809667" lon="11.5602617"><ele>276.0</ele><time>2026-04-18T10:09:50.762Z</time></trkpt><trkpt lat="42.5809733" lon="11.5603483"><ele>276.0</ele><time>2026-04-18T10:09:51.762Z</time></trkpt><trkpt lat="42.5809983" lon="11.560435"><ele>276.0</ele><time>2026-04-18T10:09:52.762Z</time></trkpt><trkpt lat="42.5810683" lon="11.5605867"><ele>276.0</ele><time>2026-04-18T10:09:54.762Z</time></trkpt><trkpt lat="42.58111" lon="11.560665"><ele>273.1666666666667</ele><time>2026-04-18T10:09:55.761Z</time></trkpt><trkpt lat="42.58116" lon="11.5607517"><ele>270.3333333333333</ele><time>2026-04-18T10:09:56.762Z</time></trkpt><trkpt lat="42.5812" lon="11.5608367"><ele>267.5</ele><time>2026-04-18T10:09:57.762Z</time></trkpt><trkpt lat="42.5812283" lon="11.5609183"><ele>264.66666666666663</ele><time>2026-04-18T10:09:58.762Z</time></trkpt><trkpt lat="42.581255" lon="11.5609967"><ele>261.8333333333333</ele><time>2026-04-18T10:09:59.762Z</time></trkpt><trkpt lat="42.5812317" lon="11.56115"><ele>259.0</ele><time>2026-04-18T10:10:01.761Z</time></trkpt><trkpt lat="42.5812033" lon="11.5612333"><ele>256.8333333333333</ele><time>2026-04-18T10:10:02.762Z</time></trkpt><trkpt lat="42.581175" lon="11.5613283"><ele>254.66666666666666</ele><time>2026-04-18T10:10:03.762Z</time></trkpt><trkpt lat="42.5811433" lon="11.5614283"><ele>252.5</ele><time>2026-04-18T10:10:04.762Z</time></trkpt><trkpt lat="42.5811167" lon="11.561515"><ele>250.33333333333331</ele><time>2026-04-18T10:10:05.762Z</time></trkpt><trkpt lat="42.5810917" lon="11.561595"><ele>248.16666666666666</ele><time>2026-04-18T10:10:06.762Z</time></trkpt><trkpt lat="42.5810433" lon="11.5617217"><ele>246.0</ele><time>2026-04-18T10:10:08.762Z</time></trkpt><trkpt lat="42.5809667" lon="11.5618117"><ele>246.0</ele><time>2026-04-18T10:10:10.761Z</time></trkpt><trkpt lat="42.5808983" lon="11.5618367"><ele>246.00000000000003</ele><time>2026-04-18T10:10:11.762Z</time></trkpt><trkpt lat="42.5808067" lon="11.5618467"><ele>246.00000000000003</ele><time>2026-04-18T10:10:12.762Z</time></trkpt><trkpt lat="42.5806967" lon="11.5618267"><ele>246.0</ele><time>2026-04-18T10:10:13.762Z</time></trkpt><trkpt lat="42.58059" lon="11.5618067"><ele>246.0</ele><time>2026-04-18T10:10:14.762Z</time></trkpt><trkpt lat="42.5804983" lon="11.5618"><ele>246.0</ele><time>2026-04-18T10:10:15.762Z</time></trkpt><trkpt lat="42.580415" lon="11.5618"><ele>246.0</ele><time>2026-04-18T10:10:16.762Z</time></trkpt><trkpt lat="42.5803317" lon="11.5618"><ele>246.0</ele><time>2026-04-18T10:10:17.762Z</time></trkpt><trkpt lat="42.5802633" lon="11.5617967"><ele>246.0</ele><time>2026-04-18T10:10:18.761Z</time></trkpt><trkpt lat="42.580175" lon="11.561795"><ele>246.0</ele><time>2026-04-18T10:10:20.762Z</time></trkpt><trkpt lat="42.5801083" lon="11.5618033"><ele>246.0</ele><time>2026-04-18T10:10:22.762Z</time></trkpt><trkpt lat="42.5800533" lon="11.561855"><ele>244.75</ele><time>2026-04-18T10:10:24.762Z</time></trkpt><trkpt lat="42.5799933" lon="11.5619633"><ele>243.5</ele><time>2026-04-18T10:10:26.762Z</time></trkpt><trkpt lat="42.5799317" lon="11.5621383"><ele>242.25</ele><time>2026-04-18T10:10:28.762Z</time></trkpt><trkpt lat="42.5798783" lon="11.5622533"><ele>241.0</ele><time>2026-04-18T10:10:29.762Z</time></trkpt><trkpt lat="42.5798133" lon="11.5623733"><ele>241.0</ele><time>2026-04-18T10:10:30.762Z</time></trkpt><trkpt lat="42.57974" lon="11.56249"><ele>241.00000000000003</ele><time>2026-04-18T10:10:31.762Z</time></trkpt><trkpt lat="42.5796533" lon="11.5625883"><ele>241.00000000000003</ele><time>2026-04-18T10:10:32.762Z</time></trkpt><trkpt lat="42.5795717" lon="11.5626767"><ele>241.0</ele><time>2026-04-18T10:10:33.762Z</time></trkpt><trkpt lat="42.5794883" lon="11.5627533"><ele>241.0</ele><time>2026-04-18T10:10:34.762Z</time></trkpt><trkpt lat="42.579415" lon="11.562825"><ele>240.99999999999997</ele><time>2026-04-18T10:10:35.762Z</time></trkpt><trkpt lat="42.5793467" lon="11.5629017"><ele>241.0</ele><time>2026-04-18T10:10:36.761Z</time></trkpt><trkpt lat="42.5792867" lon="11.5629783"><ele>241.0</ele><time>2026-04-18T10:10:37.762Z</time></trkpt><trkpt lat="42.5792217" lon="11.56304"><ele>241.0</ele><time>2026-04-18T10:10:38.762Z</time></trkpt><trkpt lat="42.57915" lon="11.56309"><ele>240.99999999999997</ele><time>2026-04-18T10:10:39.762Z</time></trkpt><trkpt lat="42.5790617" lon="11.56314"><ele>241.0</ele><time>2026-04-18T10:10:40.762Z</time></trkpt><trkpt lat="42.5789583" lon="11.563195"><ele>241.0</ele><time>2026-04-18T10:10:41.762Z</time></trkpt><trkpt lat="42.57885" lon="11.5632583"><ele>241.0</ele><time>2026-04-18T10:10:42.762Z</time></trkpt><trkpt lat="42.5787383" lon="11.563325"><ele>241.0</ele><time>2026-04-18T10:10:43.762Z</time></trkpt><trkpt lat="42.578625" lon="11.56341"><ele>241.0</ele><time>2026-04-18T10:10:44.762Z</time></trkpt><trkpt lat="42.5785233" lon="11.5634833"><ele>241.60000000000002</ele><time>2026-04-18T10:10:45.762Z</time></trkpt><trkpt lat="42.5784233" lon="11.563575"><ele>242.20000000000002</ele><time>2026-04-18T10:10:46.762Z</time></trkpt><trkpt lat="42.57833" lon="11.5636817"><ele>242.79999999999998</ele><time>2026-04-18T10:10:47.762Z</time></trkpt><trkpt lat="42.57825" lon="11.5637833"><ele>243.39999999999998</ele><time>2026-04-18T10:10:48.762Z</time></trkpt><trkpt lat="42.5781867" lon="11.5638817"><ele>244.0</ele><time>2026-04-18T10:10:49.762Z</time></trkpt><trkpt lat="42.57813" lon="11.563965"><ele>243.2</ele><time>2026-04-18T10:10:50.762Z</time></trkpt><trkpt lat="42.57809" lon="11.5640467"><ele>242.39999999999998</ele><time>2026-04-18T10:10:51.762Z</time></trkpt><trkpt lat="42.5780133" lon="11.5641583"><ele>241.6</ele><time>2026-04-18T10:10:53.762Z</time></trkpt><trkpt lat="42.5779267" lon="11.56423"><ele>240.8</ele><time>2026-04-18T10:10:55.762Z</time></trkpt><trkpt lat="42.57784" lon="11.564305"><ele>240.0</ele><time>2026-04-18T10:10:57.762Z</time></trkpt><trkpt lat="42.5777783" lon="11.564345"><ele>240.0</ele><time>2026-04-18T10:10:58.762Z</time></trkpt><trkpt lat="42.5777133" lon="11.5643883"><ele>240.0</ele><time>2026-04-18T10:10:59.762Z</time></trkpt><trkpt lat="42.57765" lon="11.5644383"><ele>240.0</ele><time>2026-04-18T10:11:00.762Z</time></trkpt><trkpt lat="42.5775917" lon="11.5644983"><ele>240.0</ele><time>2026-04-18T10:11:01.762Z</time></trkpt><trkpt lat="42.577535" lon="11.564565"><ele>240.0</ele><time>2026-04-18T10:11:02.762Z</time></trkpt><trkpt lat="42.5774717" lon="11.5646533"><ele>240.0</ele><time>2026-04-18T10:11:03.762Z</time></trkpt><trkpt lat="42.5774017" lon="11.5647433"><ele>237.4</ele><time>2026-04-18T10:11:04.762Z</time></trkpt><trkpt lat="42.5773217" lon="11.564825"><ele>234.8</ele><time>2026-04-18T10:11:05.762Z</time></trkpt><trkpt lat="42.5772483" lon="11.5649067"><ele>232.2</ele><time>2026-04-18T10:11:06.762Z</time></trkpt><trkpt lat="42.5771717" lon="11.5649817"><ele>229.6</ele><time>2026-04-18T10:11:07.762Z</time></trkpt><trkpt lat="42.5771067" lon="11.565055"><ele>227.0</ele><time>2026-04-18T10:11:08.762Z</time></trkpt><trkpt lat="42.57704" lon="11.5651267"><ele>227.0</ele><time>2026-04-18T10:11:09.762Z</time></trkpt><trkpt lat="42.5769783" lon="11.565205"><ele>227.0</ele><time>2026-04-18T10:11:10.762Z</time></trkpt><trkpt lat="42.5769167" lon="11.5652917"><ele>227.0</ele><time>2026-04-18T10:11:11.762Z</time></trkpt><trkpt lat="42.5768483" lon="11.5653667"><ele>227.0</ele><time>2026-04-18T10:11:12.762Z</time></trkpt><trkpt lat="42.5767817" lon="11.5654617"><ele>227.0</ele><time>2026-04-18T10:11:13.762Z</time></trkpt><trkpt lat="42.5767167" lon="11.56556"><ele>227.0</ele><time>2026-04-18T10:11:14.762Z</time></trkpt><trkpt lat="42.57666" lon="11.565655"><ele>227.0</ele><time>2026-04-18T10:11:15.761Z</time></trkpt><trkpt lat="42.576605" lon="11.5657517"><ele>227.0</ele><time>2026-04-18T10:11:16.762Z</time></trkpt><trkpt lat="42.5765433" lon="11.5658417"><ele>227.0</ele><time>2026-04-18T10:11:17.762Z</time></trkpt><trkpt lat="42.5764733" lon="11.5659383"><ele>227.0</ele><time>2026-04-18T10:11:18.762Z</time></trkpt><trkpt lat="42.5764" lon="11.5660117"><ele>227.0</ele><time>2026-04-18T10:11:19.762Z</time></trkpt><trkpt lat="42.576315" lon="11.566075"><ele>227.0</ele><time>2026-04-18T10:11:20.762Z</time></trkpt><trkpt lat="42.576225" lon="11.56614"><ele>227.0</ele><time>2026-04-18T10:11:21.762Z</time></trkpt><trkpt lat="42.5761383" lon="11.5661833"><ele>227.0</ele><time>2026-04-18T10:11:22.762Z</time></trkpt><trkpt lat="42.5760567" lon="11.5662183"><ele>227.0</ele><time>2026-04-18T10:11:23.762Z</time></trkpt><trkpt lat="42.57596" lon="11.5662617"><ele>225.6</ele><time>2026-04-18T10:11:24.762Z</time></trkpt><trkpt lat="42.5758583" lon="11.5663033"><ele>224.2</ele><time>2026-04-18T10:11:25.761Z</time></trkpt><trkpt lat="42.57575" lon="11.5663383"><ele>222.8</ele><time>2026-04-18T10:11:26.762Z</time></trkpt><trkpt lat="42.5756417" lon="11.5663733"><ele>221.4</ele><time>2026-04-18T10:11:27.762Z</time></trkpt><trkpt lat="42.575525" lon="11.5664083"><ele>220.0</ele><time>2026-04-18T10:11:28.762Z</time></trkpt><trkpt lat="42.5754067" lon="11.5664467"><ele>221.0</ele><time>2026-04-18T10:11:29.762Z</time></trkpt><trkpt lat="42.5752867" lon="11.5664833"><ele>222.0</ele><time>2026-04-18T10:11:30.762Z</time></trkpt><trkpt lat="42.575175" lon="11.56652"><ele>223.0</ele><time>2026-04-18T10:11:31.762Z</time></trkpt><trkpt lat="42.5750633" lon="11.566565"><ele>224.0</ele><time>2026-04-18T10:11:32.762Z</time></trkpt><trkpt lat="42.5749667" lon="11.5666"><ele>224.0</ele><time>2026-04-18T10:11:33.762Z</time></trkpt><trkpt lat="42.5748567" lon="11.5666383"><ele>224.0</ele><time>2026-04-18T10:11:34.762Z</time></trkpt><trkpt lat="42.5747367" lon="11.5666917"><ele>224.0</ele><time>2026-04-18T10:11:35.762Z</time></trkpt><trkpt lat="42.5746233" lon="11.566735"><ele>224.0</ele><time>2026-04-18T10:11:36.762Z</time></trkpt><trkpt lat="42.5745167" lon="11.5667767"><ele>224.0</ele><time>2026-04-18T10:11:37.762Z</time></trkpt><trkpt lat="42.5744317" lon="11.5668217"><ele>223.99999999999997</ele><time>2026-04-18T10:11:38.762Z</time></trkpt><trkpt lat="42.57435" lon="11.5668667"><ele>223.99999999999997</ele><time>2026-04-18T10:11:39.762Z</time></trkpt><trkpt lat="42.57427" lon="11.5669083"><ele>224.0</ele><time>2026-04-18T10:11:40.762Z</time></trkpt><trkpt lat="42.57419" lon="11.5669733"><ele>224.0</ele><time>2026-04-18T10:11:41.762Z</time></trkpt><trkpt lat="42.5741067" lon="11.56703"><ele>224.0</ele><time>2026-04-18T10:11:42.762Z</time></trkpt><trkpt lat="42.5740183" lon="11.5670733"><ele>223.99999999999997</ele><time>2026-04-18T10:11:43.762Z</time></trkpt><trkpt lat="42.573925" lon="11.5671"><ele>223.99999999999997</ele><time>2026-04-18T10:11:44.761Z</time></trkpt><trkpt lat="42.5738183" lon="11.5671217"><ele>224.0</ele><time>2026-04-18T10:11:45.762Z</time></trkpt><trkpt lat="42.5736917" lon="11.5671533"><ele>224.0</ele><time>2026-04-18T10:11:46.762Z</time></trkpt><trkpt lat="42.5735617" lon="11.5671933"><ele>226.0</ele><time>2026-04-18T10:11:47.762Z</time></trkpt><trkpt lat="42.573435" lon="11.567255"><ele>228.0</ele><time>2026-04-18T10:11:48.761Z</time></trkpt><trkpt lat="42.5733033" lon="11.5673217"><ele>230.0</ele><time>2026-04-18T10:11:49.762Z</time></trkpt><trkpt lat="42.5731917" lon="11.5673867"><ele>232.0</ele><time>2026-04-18T10:11:50.762Z</time></trkpt><trkpt lat="42.573095" lon="11.5674517"><ele>232.0</ele><time>2026-04-18T10:11:51.762Z</time></trkpt><trkpt lat="42.5729983" lon="11.567505"><ele>232.0</ele><time>2026-04-18T10:11:52.762Z</time></trkpt><trkpt lat="42.5728917" lon="11.5675533"><ele>232.0</ele><time>2026-04-18T10:11:53.762Z</time></trkpt><trkpt lat="42.57278" lon="11.5675983"><ele>232.0</ele><time>2026-04-18T10:11:54.762Z</time></trkpt><trkpt lat="42.57267" lon="11.5676383"><ele>232.0</ele><time>2026-04-18T10:11:55.762Z</time></trkpt><trkpt lat="42.5725717" lon="11.5676667"><ele>233.16666666666666</ele><time>2026-04-18T10:11:56.762Z</time></trkpt><trkpt lat="42.5724917" lon="11.5676833"><ele>234.33333333333331</ele><time>2026-04-18T10:11:57.762Z</time></trkpt><trkpt lat="42.5724117" lon="11.56767"><ele>235.5</ele><time>2026-04-18T10:11:58.762Z</time></trkpt><trkpt lat="42.572345" lon="11.5676317"><ele>236.66666666666669</ele><time>2026-04-18T10:11:59.762Z</time></trkpt><trkpt lat="42.5722767" lon="11.5675817"><ele>237.83333333333334</ele><time>2026-04-18T10:12:00.762Z</time></trkpt><trkpt lat="42.5722117" lon="11.5675317"><ele>239.0</ele><time>2026-04-18T10:12:01.762Z</time></trkpt><trkpt lat="42.572145" lon="11.5674717"><ele>239.0</ele><time>2026-04-18T10:12:02.762Z</time></trkpt><trkpt lat="42.5720617" lon="11.56741"><ele>238.99999999999997</ele><time>2026-04-18T10:12:03.762Z</time></trkpt><trkpt lat="42.5719833" lon="11.5673533"><ele>238.99999999999997</ele><time>2026-04-18T10:12:04.762Z</time></trkpt><trkpt lat="42.5718917" lon="11.567295"><ele>239.0</ele><time>2026-04-18T10:12:05.762Z</time></trkpt><trkpt lat="42.5717733" lon="11.567235"><ele>239.0</ele><time>2026-04-18T10:12:06.762Z</time></trkpt><trkpt lat="42.571665" lon="11.5671883"><ele>238.79999999999998</ele><time>2026-04-18T10:12:07.761Z</time></trkpt><trkpt lat="42.5715583" lon="11.5671467"><ele>238.59999999999997</ele><time>2026-04-18T10:12:08.762Z</time></trkpt><trkpt lat="42.5714617" lon="11.567095"><ele>238.4</ele><time>2026-04-18T10:12:09.762Z</time></trkpt><trkpt lat="42.5713833" lon="11.56704"><ele>238.2</ele><time>2026-04-18T10:12:10.762Z</time></trkpt><trkpt lat="42.5713033" lon="11.5669817"><ele>238.0</ele><time>2026-04-18T10:12:11.762Z</time></trkpt><trkpt lat="42.57122" lon="11.5669117"><ele>235.60000000000002</ele><time>2026-04-18T10:12:12.762Z</time></trkpt><trkpt lat="42.57115" lon="11.56683"><ele>233.20000000000002</ele><time>2026-04-18T10:12:13.762Z</time></trkpt><trkpt lat="42.5710833" lon="11.5667533"><ele>230.8</ele><time>2026-04-18T10:12:14.762Z</time></trkpt><trkpt lat="42.5710317" lon="11.56668"><ele>228.4</ele><time>2026-04-18T10:12:15.762Z</time></trkpt><trkpt lat="42.570945" lon="11.566575"><ele>226.0</ele><time>2026-04-18T10:12:17.762Z</time></trkpt><trkpt lat="42.5708333" lon="11.5665033"><ele>225.99999999999997</ele><time>2026-04-18T10:12:19.761Z</time></trkpt><trkpt lat="42.570765" lon="11.56648"><ele>226.0</ele><time>2026-04-18T10:12:20.762Z</time></trkpt><trkpt lat="42.5706867" lon="11.5664633"><ele>226.0</ele><time>2026-04-18T10:12:21.761Z</time></trkpt><trkpt lat="42.5706017" lon="11.5664267"><ele>226.0</ele><time>2026-04-18T10:12:22.762Z</time></trkpt><trkpt lat="42.5705117" lon="11.5663833"><ele>225.99999999999997</ele><time>2026-04-18T10:12:23.762Z</time></trkpt><trkpt lat="42.5704333" lon="11.5663483"><ele>226.0</ele><time>2026-04-18T10:12:24.762Z</time></trkpt><trkpt lat="42.57036" lon="11.566335"><ele>223.20000000000002</ele><time>2026-04-18T10:12:25.762Z</time></trkpt><trkpt lat="42.5702433" lon="11.5664"><ele>220.40000000000003</ele><time>2026-04-18T10:12:27.762Z</time></trkpt><trkpt lat="42.5701667" lon="11.5664683"><ele>217.6</ele><time>2026-04-18T10:12:28.762Z</time></trkpt><trkpt lat="42.5700883" lon="11.5665417"><ele>214.8</ele><time>2026-04-18T10:12:29.762Z</time></trkpt><trkpt lat="42.5700117" lon="11.5666167"><ele>212.0</ele><time>2026-04-18T10:12:30.762Z</time></trkpt><trkpt lat="42.5699433" lon="11.5666833"><ele>212.00000000000003</ele><time>2026-04-18T10:12:31.762Z</time></trkpt><trkpt lat="42.5698833" lon="11.5667283"><ele>212.0</ele><time>2026-04-18T10:12:32.762Z</time></trkpt><trkpt lat="42.5698267" lon="11.56677"><ele>212.0</ele><time>2026-04-18T10:12:33.762Z</time></trkpt><trkpt lat="42.5697267" lon="11.5668583"><ele>212.0</ele><time>2026-04-18T10:12:35.761Z</time></trkpt><trkpt lat="42.5696467" lon="11.5669267"><ele>212.00000000000003</ele><time>2026-04-18T10:12:37.761Z</time></trkpt><trkpt lat="42.5695967" lon="11.5669983"><ele>212.0</ele><time>2026-04-18T10:12:39.762Z</time></trkpt><trkpt lat="42.569585" lon="11.56709"><ele>210.66666666666669</ele><time>2026-04-18T10:12:41.762Z</time></trkpt><trkpt lat="42.5696283" lon="11.5671917"><ele>209.33333333333334</ele><time>2026-04-18T10:12:43.762Z</time></trkpt><trkpt lat="42.569695" lon="11.5673367"><ele>208.0</ele><time>2026-04-18T10:12:45.762Z</time></trkpt><trkpt lat="42.5697233" lon="11.56742"><ele>206.66666666666669</ele><time>2026-04-18T10:12:46.762Z</time></trkpt><trkpt lat="42.5697283" lon="11.5675133"><ele>205.33333333333334</ele><time>2026-04-18T10:12:47.762Z</time></trkpt><trkpt lat="42.5697117" lon="11.5676233"><ele>204.0</ele><time>2026-04-18T10:12:48.762Z</time></trkpt><trkpt lat="42.5696767" lon="11.5677083"><ele>204.0</ele><time>2026-04-18T10:12:49.762Z</time></trkpt><trkpt lat="42.5696317" lon="11.5677917"><ele>204.0</ele><time>2026-04-18T10:12:50.762Z</time></trkpt><trkpt lat="42.5695683" lon="11.567875"><ele>204.0</ele><time>2026-04-18T10:12:51.762Z</time></trkpt><trkpt lat="42.5695017" lon="11.56798"><ele>204.0</ele><time>2026-04-18T10:12:52.762Z</time></trkpt><trkpt lat="42.56944" lon="11.5680783"><ele>204.0</ele><time>2026-04-18T10:12:53.762Z</time></trkpt><trkpt lat="42.5693817" lon="11.56819"><ele>201.79999999999998</ele><time>2026-04-18T10:12:54.762Z</time></trkpt><trkpt lat="42.569315" lon="11.5682917"><ele>199.6</ele><time>2026-04-18T10:12:55.762Z</time></trkpt><trkpt lat="42.569245" lon="11.56839"><ele>197.4</ele><time>2026-04-18T10:12:56.762Z</time></trkpt><trkpt lat="42.56917" lon="11.56848"><ele>195.2</ele><time>2026-04-18T10:12:57.762Z</time></trkpt><trkpt lat="42.56909" lon="11.5685633"><ele>193.0</ele><time>2026-04-18T10:12:58.762Z</time></trkpt><trkpt lat="42.569015" lon="11.5686633"><ele>191.2</ele><time>2026-04-18T10:12:59.762Z</time></trkpt><trkpt lat="42.5689483" lon="11.5687617"><ele>189.4</ele><time>2026-04-18T10:13:00.761Z</time></trkpt><trkpt lat="42.5688783" lon="11.5688633"><ele>187.6</ele><time>2026-04-18T10:13:01.762Z</time></trkpt><trkpt lat="42.5688117" lon="11.5689683"><ele>185.79999999999998</ele><time>2026-04-18T10:13:02.762Z</time></trkpt><trkpt lat="42.568745" lon="11.56907"><ele>184.0</ele><time>2026-04-18T10:13:03.762Z</time></trkpt><trkpt lat="42.56868" lon="11.5691767"><ele>183.2</ele><time>2026-04-18T10:13:04.761Z</time></trkpt><trkpt lat="42.5686117" lon="11.56928"><ele>182.39999999999998</ele><time>2026-04-18T10:13:05.762Z</time></trkpt><trkpt lat="42.5685367" lon="11.5693867"><ele>181.6</ele><time>2026-04-18T10:13:06.762Z</time></trkpt><trkpt lat="42.5684617" lon="11.56947"><ele>180.8</ele><time>2026-04-18T10:13:07.762Z</time></trkpt><trkpt lat="42.568385" lon="11.5695367"><ele>180.0</ele><time>2026-04-18T10:13:08.762Z</time></trkpt><trkpt lat="42.5683117" lon="11.5696017"><ele>179.33333333333334</ele><time>2026-04-18T10:13:09.762Z</time></trkpt><trkpt lat="42.5682467" lon="11.56968"><ele>178.66666666666666</ele><time>2026-04-18T10:13:10.762Z</time></trkpt><trkpt lat="42.568185" lon="11.5697733"><ele>178.0</ele><time>2026-04-18T10:13:11.762Z</time></trkpt><trkpt lat="42.56814" lon="11.5698633"><ele>177.33333333333331</ele><time>2026-04-18T10:13:12.762Z</time></trkpt><trkpt lat="42.568115" lon="11.56996"><ele>176.66666666666666</ele><time>2026-04-18T10:13:13.762Z</time></trkpt><trkpt lat="42.5680967" lon="11.5700667"><ele>176.0</ele><time>2026-04-18T10:13:14.762Z</time></trkpt><trkpt lat="42.5680867" lon="11.5701767"><ele>176.0</ele><time>2026-04-18T10:13:15.762Z</time></trkpt><trkpt lat="42.5680833" lon="11.5703"><ele>176.0</ele><time>2026-04-18T10:13:16.762Z</time></trkpt><trkpt lat="42.5681" lon="11.5704317"><ele>176.0</ele><time>2026-04-18T10:13:17.762Z</time></trkpt><trkpt lat="42.56812" lon="11.5705733"><ele>176.0</ele><time>2026-04-18T10:13:18.762Z</time></trkpt><trkpt lat="42.5681467" lon="11.5707167"><ele>176.0</ele><time>2026-04-18T10:13:19.762Z</time></trkpt><trkpt lat="42.5681733" lon="11.5708567"><ele>174.60000000000002</ele><time>2026-04-18T10:13:20.761Z</time></trkpt><trkpt lat="42.5681967" lon="11.57099"><ele>173.2</ele><time>2026-04-18T10:13:21.762Z</time></trkpt><trkpt lat="42.5682167" lon="11.5711283"><ele>171.8</ele><time>2026-04-18T10:13:22.762Z</time></trkpt><trkpt lat="42.5682417" lon="11.57128"><ele>170.39999999999998</ele><time>2026-04-18T10:13:23.762Z</time></trkpt><trkpt lat="42.56827" lon="11.5714233"><ele>169.0</ele><time>2026-04-18T10:13:24.762Z</time></trkpt><trkpt lat="42.568295" lon="11.5715767"><ele>168.6</ele><time>2026-04-18T10:13:25.762Z</time></trkpt><trkpt lat="42.5683233" lon="11.5717283"><ele>168.2</ele><time>2026-04-18T10:13:26.762Z</time></trkpt><trkpt lat="42.5683533" lon="11.5718683"><ele>167.79999999999998</ele><time>2026-04-18T10:13:27.762Z</time></trkpt><trkpt lat="42.56839" lon="11.571995"><ele>167.39999999999998</ele><time>2026-04-18T10:13:28.762Z</time></trkpt><trkpt lat="42.568435" lon="11.57211"><ele>167.0</ele><time>2026-04-18T10:13:29.762Z</time></trkpt><trkpt lat="42.56848" lon="11.5722167"><ele>166.16666666666666</ele><time>2026-04-18T10:13:30.762Z</time></trkpt><trkpt lat="42.56853" lon="11.5723217"><ele>165.33333333333331</ele><time>2026-04-18T10:13:31.762Z</time></trkpt><trkpt lat="42.5685767" lon="11.572415"><ele>164.5</ele><time>2026-04-18T10:13:32.762Z</time></trkpt><trkpt lat="42.5686167" lon="11.572515"><ele>163.66666666666666</ele><time>2026-04-18T10:13:33.762Z</time></trkpt><trkpt lat="42.5686517" lon="11.5726317"><ele>162.83333333333334</ele><time>2026-04-18T10:13:34.762Z</time></trkpt><trkpt lat="42.568685" lon="11.5727467"><ele>162.0</ele><time>2026-04-18T10:13:35.762Z</time></trkpt><trkpt lat="42.56872" lon="11.5728583"><ele>160.5</ele><time>2026-04-18T10:13:36.762Z</time></trkpt><trkpt lat="42.568745" lon="11.5729717"><ele>159.0</ele><time>2026-04-18T10:13:37.762Z</time></trkpt><trkpt lat="42.5687667" lon="11.5730767"><ele>157.5</ele><time>2026-04-18T10:13:38.762Z</time></trkpt><trkpt lat="42.5687817" lon="11.5731867"><ele>156.0</ele><time>2026-04-18T10:13:39.762Z</time></trkpt><trkpt lat="42.5688" lon="11.5733017"><ele>154.5</ele><time>2026-04-18T10:13:40.762Z</time></trkpt><trkpt lat="42.5688167" lon="11.5734017"><ele>153.0</ele><time>2026-04-18T10:13:41.762Z</time></trkpt><trkpt lat="42.5688283" lon="11.5735033"><ele>153.0</ele><time>2026-04-18T10:13:42.762Z</time></trkpt><trkpt lat="42.5688317" lon="11.5736133"><ele>153.0</ele><time>2026-04-18T10:13:43.762Z</time></trkpt><trkpt lat="42.5688333" lon="11.57373"><ele>153.0</ele><time>2026-04-18T10:13:44.761Z</time></trkpt><trkpt lat="42.5688317" lon="11.5738383"><ele>153.0</ele><time>2026-04-18T10:13:45.762Z</time></trkpt><trkpt lat="42.5688317" lon="11.57395"><ele>153.0</ele><time>2026-04-18T10:13:46.762Z</time></trkpt><trkpt lat="42.5688283" lon="11.574065"><ele>153.0</ele><time>2026-04-18T10:13:47.762Z</time></trkpt><trkpt lat="42.5688183" lon="11.5741917"><ele>152.0</ele><time>2026-04-18T10:13:48.762Z</time></trkpt><trkpt lat="42.5688083" lon="11.5743"><ele>151.0</ele><time>2026-04-18T10:13:49.762Z</time></trkpt><trkpt lat="42.5688017" lon="11.5743917"><ele>150.0</ele><time>2026-04-18T10:13:50.762Z</time></trkpt><trkpt lat="42.5687783" lon="11.5745333"><ele>149.0</ele><time>2026-04-18T10:13:52.762Z</time></trkpt><trkpt lat="42.56872" lon="11.57465"><ele>148.0</ele><time>2026-04-18T10:13:54.761Z</time></trkpt><trkpt lat="42.5686483" lon="11.5747883"><ele>147.42857142857144</ele><time>2026-04-18T10:13:56.761Z</time></trkpt><trkpt lat="42.5686083" lon="11.574875"><ele>146.85714285714286</ele><time>2026-04-18T10:13:57.762Z</time></trkpt><trkpt lat="42.5685717" lon="11.5749667"><ele>146.28571428571428</ele><time>2026-04-18T10:13:58.762Z</time></trkpt><trkpt lat="42.5685333" lon="11.5750667"><ele>145.71428571428572</ele><time>2026-04-18T10:13:59.762Z</time></trkpt><trkpt lat="42.5684983" lon="11.57516"><ele>145.14285714285714</ele><time>2026-04-18T10:14:00.762Z</time></trkpt><trkpt lat="42.5684667" lon="11.5752483"><ele>144.57142857142858</ele><time>2026-04-18T10:14:01.762Z</time></trkpt><trkpt lat="42.568435" lon="11.5753233"><ele>144.0</ele><time>2026-04-18T10:14:02.762Z</time></trkpt><trkpt lat="42.5683683" lon="11.5754133"><ele>143.5</ele><time>2026-04-18T10:14:04.762Z</time></trkpt><trkpt lat="42.5682883" lon="11.575465"><ele>143.0</ele><time>2026-04-18T10:14:06.762Z</time></trkpt><trkpt lat="42.568205" lon="11.575495"><ele>142.5</ele><time>2026-04-18T10:14:08.762Z</time></trkpt><trkpt lat="42.5681333" lon="11.5755267"><ele>142.0</ele><time>2026-04-18T10:14:10.762Z</time></trkpt><trkpt lat="42.5680717" lon="11.5755583"><ele>141.5</ele><time>2026-04-18T10:14:12.762Z</time></trkpt><trkpt lat="42.567985" lon="11.5755967"><ele>141.0</ele><time>2026-04-18T10:14:15.762Z</time></trkpt><trkpt lat="42.5679083" lon="11.5756067"><ele>139.66666666666666</ele><time>2026-04-18T10:14:17.761Z</time></trkpt><trkpt lat="42.5678383" lon="11.5756167"><ele>138.33333333333334</ele><time>2026-04-18T10:14:19.761Z</time></trkpt><trkpt lat="42.5677767" lon="11.5756617"><ele>137.0</ele><time>2026-04-18T10:14:22.761Z</time></trkpt><trkpt lat="42.567705" lon="11.5757033"><ele>135.66666666666669</ele><time>2026-04-18T10:14:24.76Z</time></trkpt><trkpt lat="42.5676433" lon="11.575765"><ele>134.33333333333334</ele><time>2026-04-18T10:14:26.761Z</time></trkpt><trkpt lat="42.5675617" lon="11.57582"><ele>133.0</ele><time>2026-04-18T10:14:28.761Z</time></trkpt><trkpt lat="42.567475" lon="11.5758767"><ele>133.0</ele><time>2026-04-18T10:14:30.761Z</time></trkpt><trkpt lat="42.5674017" lon="11.5759133"><ele>133.0</ele><time>2026-04-18T10:14:32.761Z</time></trkpt><trkpt lat="42.56732" lon="11.5759467"><ele>133.0</ele><time>2026-04-18T10:14:34.761Z</time></trkpt><trkpt lat="42.5672383" lon="11.5759783"><ele>133.0</ele><time>2026-04-18T10:14:36.761Z</time></trkpt><trkpt lat="42.5671767" lon="11.57604"><ele>133.0</ele><time>2026-04-18T10:14:38.761Z</time></trkpt><trkpt lat="42.567105" lon="11.57614"><ele>133.0</ele><time>2026-04-18T10:14:40.761Z</time></trkpt><trkpt lat="42.5670333" lon="11.57623"><ele>132.5</ele><time>2026-04-18T10:14:42.761Z</time></trkpt><trkpt lat="42.56697" lon="11.5762983"><ele>132.0</ele><time>2026-04-18T10:14:45.761Z</time></trkpt><trkpt lat="42.56691" lon="11.5763367"><ele>131.5</ele><time>2026-04-18T10:14:47.761Z</time></trkpt><trkpt lat="42.5668167" lon="11.5764233"><ele>131.0</ele><time>2026-04-18T10:14:49.761Z</time></trkpt><trkpt lat="42.566745" lon="11.5764867"><ele>130.5</ele><time>2026-04-18T10:14:51.761Z</time></trkpt><trkpt lat="42.56667" lon="11.576525"><ele>130.0</ele><time>2026-04-18T10:15:17.761Z</time></trkpt><trkpt lat="42.5665967" lon="11.576535"><ele>130.0</ele><time>2026-04-18T10:17:01.761Z</time></trkpt><trkpt lat="42.5665333" lon="11.57651"><ele>130.0</ele><time>2026-04-18T10:17:04.761Z</time></trkpt><trkpt lat="42.566465" lon="11.5764867"><ele>130.0</ele><time>2026-04-18T10:17:07.76Z</time></trkpt><trkpt lat="42.5663833" lon="11.5764283"><ele>130.0</ele><time>2026-04-18T10:17:10.761Z</time></trkpt><trkpt lat="42.5663" lon="11.576345"><ele>130.0</ele><time>2026-04-18T10:17:13.761Z</time></trkpt><trkpt lat="42.56619" lon="11.5762283"><ele>129.8</ele><time>2026-04-18T10:17:15.761Z</time></trkpt><trkpt lat="42.56614" lon="11.5761567"><ele>129.6</ele><time>2026-04-18T10:17:16.761Z</time></trkpt><trkpt lat="42.5660533" lon="11.5760867"><ele>129.4</ele><time>2026-04-18T10:17:18.761Z</time></trkpt><trkpt lat="42.565945" lon="11.576065"><ele>129.2</ele><time>2026-04-18T10:17:42.76Z</time></trkpt><trkpt lat="42.5658417" lon="11.5761117"><ele>129.0</ele><time>2026-04-18T10:17:44.761Z</time></trkpt><trkpt lat="42.5657483" lon="11.5762133"><ele>129.0</ele><time>2026-04-18T10:17:46.761Z</time></trkpt><trkpt lat="42.5656933" lon="11.5762883"><ele>129.0</ele><time>2026-04-18T10:17:47.761Z</time></trkpt><trkpt lat="42.565625" lon="11.5763733"><ele>129.0</ele><time>2026-04-18T10:17:48.761Z</time></trkpt><trkpt lat="42.565555" lon="11.5764683"><ele>129.0</ele><time>2026-04-18T10:17:49.761Z</time></trkpt><trkpt lat="42.5654883" lon="11.5765567"><ele>129.0</ele><time>2026-04-18T10:17:50.76Z</time></trkpt><trkpt lat="42.5654267" lon="11.576635"><ele>129.0</ele><time>2026-04-18T10:17:51.761Z</time></trkpt><trkpt lat="42.56537" lon="11.576695"><ele>129.0</ele><time>2026-04-18T10:17:52.761Z</time></trkpt><trkpt lat="42.565285" lon="11.5768017"><ele>129.0</ele><time>2026-04-18T10:17:54.761Z</time></trkpt><trkpt lat="42.5652167" lon="11.57688"><ele>129.0</ele><time>2026-04-18T10:17:56.761Z</time></trkpt><trkpt lat="42.5651283" lon="11.5769767"><ele>129.0</ele><time>2026-04-18T10:17:58.761Z</time></trkpt><trkpt lat="42.5650783" lon="11.5770367"><ele>129.0</ele><time>2026-04-18T10:17:59.761Z</time></trkpt><trkpt lat="42.565025" lon="11.5771017"><ele>129.0</ele><time>2026-04-18T10:18:00.761Z</time></trkpt><trkpt lat="42.5649667" lon="11.577165"><ele>129.0</ele><time>2026-04-18T10:18:01.761Z</time></trkpt><trkpt lat="42.5649067" lon="11.577235"><ele>129.0</ele><time>2026-04-18T10:18:02.761Z</time></trkpt><trkpt lat="42.564845" lon="11.5773117"><ele>129.0</ele><time>2026-04-18T10:18:03.761Z</time></trkpt><trkpt lat="42.5647867" lon="11.57739"><ele>129.0</ele><time>2026-04-18T10:18:04.761Z</time></trkpt><trkpt lat="42.5647267" lon="11.5774633"><ele>129.0</ele><time>2026-04-18T10:18:05.761Z</time></trkpt><trkpt lat="42.5646683" lon="11.57753"><ele>129.0</ele><time>2026-04-18T10:18:06.76Z</time></trkpt><trkpt lat="42.5646117" lon="11.5776017"><ele>129.0</ele><time>2026-04-18T10:18:07.761Z</time></trkpt><trkpt lat="42.5645517" lon="11.57767"><ele>129.0</ele><time>2026-04-18T10:18:08.761Z</time></trkpt><trkpt lat="42.56449" lon="11.5777433"><ele>129.0</ele><time>2026-04-18T10:18:09.761Z</time></trkpt><trkpt lat="42.5644283" lon="11.577815"><ele>129.0</ele><time>2026-04-18T10:18:10.761Z</time></trkpt><trkpt lat="42.5643733" lon="11.5778767"><ele>129.0</ele><time>2026-04-18T10:18:11.761Z</time></trkpt><trkpt lat="42.5643183" lon="11.577935"><ele>129.14285714285714</ele><time>2026-04-18T10:18:12.761Z</time></trkpt><trkpt lat="42.5642717" lon="11.5779983"><ele>129.28571428571428</ele><time>2026-04-18T10:18:13.761Z</time></trkpt><trkpt lat="42.5642233" lon="11.57806"><ele>129.42857142857144</ele><time>2026-04-18T10:18:14.761Z</time></trkpt><trkpt lat="42.5641767" lon="11.5781217"><ele>129.57142857142856</ele><time>2026-04-18T10:18:15.761Z</time></trkpt><trkpt lat="42.56412" lon="11.5781783"><ele>129.71428571428572</ele><time>2026-04-18T10:18:16.761Z</time></trkpt><trkpt lat="42.5640617" lon="11.5782383"><ele>129.85714285714286</ele><time>2026-04-18T10:18:17.761Z</time></trkpt><trkpt lat="42.56401" lon="11.5782917"><ele>130.0</ele><time>2026-04-18T10:18:18.761Z</time></trkpt><trkpt lat="42.5639133" lon="11.5783767"><ele>130.0</ele><time>2026-04-18T10:18:20.761Z</time></trkpt><trkpt lat="42.5638183" lon="11.5784417"><ele>130.0</ele><time>2026-04-18T10:18:22.761Z</time></trkpt><trkpt lat="42.5637567" lon="11.5784867"><ele>130.0</ele><time>2026-04-18T10:18:23.761Z</time></trkpt><trkpt lat="42.5636933" lon="11.5785317"><ele>130.0</ele><time>2026-04-18T10:18:24.761Z</time></trkpt><trkpt lat="42.563625" lon="11.57857"><ele>130.0</ele><time>2026-04-18T10:18:25.76Z</time></trkpt><trkpt lat="42.5635483" lon="11.5786"><ele>130.0</ele><time>2026-04-18T10:18:26.761Z</time></trkpt><trkpt lat="42.5634617" lon="11.5786133"><ele>129.2</ele><time>2026-04-18T10:18:27.761Z</time></trkpt><trkpt lat="42.5633783" lon="11.578615"><ele>128.4</ele><time>2026-04-18T10:18:28.76Z</time></trkpt><trkpt lat="42.5633017" lon="11.5786267"><ele>127.6</ele><time>2026-04-18T10:18:29.761Z</time></trkpt><trkpt lat="42.563235" lon="11.57864"><ele>126.8</ele><time>2026-04-18T10:18:30.761Z</time></trkpt><trkpt lat="42.5631233" lon="11.5787117"><ele>126.0</ele><time>2026-04-18T10:18:32.761Z</time></trkpt><trkpt lat="42.5630383" lon="11.57881"><ele>126.0</ele><time>2026-04-18T10:18:34.761Z</time></trkpt><trkpt lat="42.562975" lon="11.57891"><ele>126.0</ele><time>2026-04-18T10:18:36.761Z</time></trkpt><trkpt lat="42.56289" lon="11.5789817"><ele>126.0</ele><time>2026-04-18T10:18:38.761Z</time></trkpt><trkpt lat="42.5627733" lon="11.5790333"><ele>126.0</ele><time>2026-04-18T10:18:40.761Z</time></trkpt><trkpt lat="42.5627067" lon="11.5790517"><ele>126.0</ele><time>2026-04-18T10:18:41.761Z</time></trkpt><trkpt lat="42.56263" lon="11.5790733"><ele>126.4</ele><time>2026-04-18T10:18:42.761Z</time></trkpt><trkpt lat="42.5625583" lon="11.5790833"><ele>126.8</ele><time>2026-04-18T10:18:43.761Z</time></trkpt><trkpt lat="42.5624383" lon="11.5791067"><ele>127.20000000000002</ele><time>2026-04-18T10:18:45.761Z</time></trkpt><trkpt lat="42.562325" lon="11.57911"><ele>127.60000000000001</ele><time>2026-04-18T10:18:47.761Z</time></trkpt><trkpt lat="42.5622067" lon="11.5790617"><ele>128.0</ele><time>2026-04-18T10:18:49.761Z</time></trkpt><trkpt lat="42.562105" lon="11.5789817"><ele>127.99999999999999</ele><time>2026-04-18T10:18:51.761Z</time></trkpt><trkpt lat="42.5620417" lon="11.5789517"><ele>128.0</ele><time>2026-04-18T10:18:52.761Z</time></trkpt><trkpt lat="42.5619667" lon="11.578935"><ele>128.0</ele><time>2026-04-18T10:18:53.761Z</time></trkpt><trkpt lat="42.5618917" lon="11.5789217"><ele>128.0</ele><time>2026-04-18T10:18:54.761Z</time></trkpt><trkpt lat="42.56182" lon="11.5789183"><ele>127.99999999999999</ele><time>2026-04-18T10:18:55.761Z</time></trkpt><trkpt lat="42.561745" lon="11.5789117"><ele>128.0</ele><time>2026-04-18T10:18:56.761Z</time></trkpt><trkpt lat="42.5616283" lon="11.5788817"><ele>127.80000000000001</ele><time>2026-04-18T10:18:58.761Z</time></trkpt><trkpt lat="42.5615183" lon="11.5788317"><ele>127.60000000000001</ele><time>2026-04-18T10:19:00.761Z</time></trkpt><trkpt lat="42.5614017" lon="11.5787617"><ele>127.39999999999999</ele><time>2026-04-18T10:19:02.761Z</time></trkpt><trkpt lat="42.5613317" lon="11.5787183"><ele>127.19999999999999</ele><time>2026-04-18T10:19:03.761Z</time></trkpt><trkpt lat="42.5612617" lon="11.5786767"><ele>127.0</ele><time>2026-04-18T10:19:04.761Z</time></trkpt><trkpt lat="42.561195" lon="11.5786367"><ele>126.6</ele><time>2026-04-18T10:19:05.76Z</time></trkpt><trkpt lat="42.561135" lon="11.5786033"><ele>126.19999999999999</ele><time>2026-04-18T10:19:06.761Z</time></trkpt><trkpt lat="42.561025" lon="11.5785317"><ele>125.8</ele><time>2026-04-18T10:19:08.761Z</time></trkpt><trkpt lat="42.5609033" lon="11.5784833"><ele>125.4</ele><time>2026-04-18T10:19:10.761Z</time></trkpt><trkpt lat="42.5608367" lon="11.5784633"><ele>125.0</ele><time>2026-04-18T10:19:11.761Z</time></trkpt><trkpt lat="42.5607633" lon="11.578455"><ele>124.99999999999999</ele><time>2026-04-18T10:19:12.761Z</time></trkpt><trkpt lat="42.5606833" lon="11.57845"><ele>125.0</ele><time>2026-04-18T10:19:13.76Z</time></trkpt><trkpt lat="42.5606133" lon="11.578445"><ele>125.0</ele><time>2026-04-18T10:19:14.761Z</time></trkpt><trkpt lat="42.5605483" lon="11.5784483"><ele>125.0</ele><time>2026-04-18T10:19:15.761Z</time></trkpt><trkpt lat="42.560485" lon="11.5784483"><ele>124.99999999999999</ele><time>2026-04-18T10:19:16.761Z</time></trkpt><trkpt lat="42.5603717" lon="11.5784217"><ele>125.0</ele><time>2026-04-18T10:19:18.761Z</time></trkpt><trkpt lat="42.5602833" lon="11.57839"><ele>124.6</ele><time>2026-04-18T10:19:20.761Z</time></trkpt><trkpt lat="42.560205" lon="11.5783233"><ele>124.2</ele><time>2026-04-18T10:19:22.761Z</time></trkpt><trkpt lat="42.5601" lon="11.5782833"><ele>123.80000000000001</ele><time>2026-04-18T10:19:24.761Z</time></trkpt><trkpt lat="42.5599967" lon="11.578255"><ele>123.4</ele><time>2026-04-18T10:19:26.761Z</time></trkpt><trkpt lat="42.55989" lon="11.5782617"><ele>123.0</ele><time>2026-04-18T10:19:28.761Z</time></trkpt><trkpt lat="42.5597733" lon="11.5783083"><ele>123.0</ele><time>2026-04-18T10:19:30.761Z</time></trkpt><trkpt lat="42.55966" lon="11.5783567"><ele>123.00000000000001</ele><time>2026-04-18T10:19:32.761Z</time></trkpt><trkpt lat="42.55956" lon="11.5784083"><ele>123.00000000000001</ele><time>2026-04-18T10:19:34.761Z</time></trkpt><trkpt lat="42.559505" lon="11.5784533"><ele>123.0</ele><time>2026-04-18T10:19:35.761Z</time></trkpt><trkpt lat="42.5594333" lon="11.5785117"><ele>123.0</ele><time>2026-04-18T10:19:36.761Z</time></trkpt><trkpt lat="42.5593433" lon="11.578575"><ele>123.2</ele><time>2026-04-18T10:19:37.761Z</time></trkpt><trkpt lat="42.559245" lon="11.5786417"><ele>123.4</ele><time>2026-04-18T10:19:38.761Z</time></trkpt><trkpt lat="42.5591333" lon="11.57872"><ele>123.60000000000001</ele><time>2026-04-18T10:19:39.76Z</time></trkpt><trkpt lat="42.5590383" lon="11.5787883"><ele>123.80000000000001</ele><time>2026-04-18T10:19:40.76Z</time></trkpt><trkpt lat="42.5589483" lon="11.5788417"><ele>124.0</ele><time>2026-04-18T10:19:41.761Z</time></trkpt><trkpt lat="42.5588917" lon="11.5788833"><ele>124.16666666666667</ele><time>2026-04-18T10:19:42.761Z</time></trkpt><trkpt lat="42.558795" lon="11.57896"><ele>124.33333333333334</ele><time>2026-04-18T10:19:44.761Z</time></trkpt><trkpt lat="42.5587333" lon="11.5790167"><ele>124.5</ele><time>2026-04-18T10:19:45.761Z</time></trkpt><trkpt lat="42.5586717" lon="11.5790667"><ele>124.66666666666666</ele><time>2026-04-18T10:19:46.761Z</time></trkpt><trkpt lat="42.5586167" lon="11.5791217"><ele>124.83333333333333</ele><time>2026-04-18T10:19:47.761Z</time></trkpt><trkpt lat="42.5585633" lon="11.5791717"><ele>125.0</ele><time>2026-04-18T10:19:48.761Z</time></trkpt><trkpt lat="42.55851" lon="11.579225"><ele>125.49999999999999</ele><time>2026-04-18T10:19:49.761Z</time></trkpt><trkpt lat="42.558455" lon="11.579275"><ele>126.0</ele><time>2026-04-18T10:19:50.761Z</time></trkpt><trkpt lat="42.5583917" lon="11.5793167"><ele>126.5</ele><time>2026-04-18T10:19:51.761Z</time></trkpt><trkpt lat="42.5583183" lon="11.5793433"><ele>127.0</ele><time>2026-04-18T10:19:52.761Z</time></trkpt><trkpt lat="42.5582367" lon="11.579355"><ele>127.49999999999999</ele><time>2026-04-18T10:19:53.761Z</time></trkpt><trkpt lat="42.5581517" lon="11.579365"><ele>128.0</ele><time>2026-04-18T10:19:54.76Z</time></trkpt><trkpt lat="42.5580617" lon="11.5793517"><ele>128.0</ele><time>2026-04-18T10:19:55.761Z</time></trkpt><trkpt lat="42.55799" lon="11.5793383"><ele>127.99999999999999</ele><time>2026-04-18T10:19:56.761Z</time></trkpt><trkpt lat="42.5579233" lon="11.5793333"><ele>128.0</ele><time>2026-04-18T10:19:57.761Z</time></trkpt><trkpt lat="42.55786" lon="11.57933"><ele>128.0</ele><time>2026-04-18T10:19:58.76Z</time></trkpt><trkpt lat="42.5577967" lon="11.5793267"><ele>127.99999999999999</ele><time>2026-04-18T10:19:59.761Z</time></trkpt><trkpt lat="42.5576817" lon="11.5793417"><ele>128.0</ele><time>2026-04-18T10:20:01.76Z</time></trkpt><trkpt lat="42.557615" lon="11.579355"><ele>128.0</ele><time>2026-04-18T10:20:02.761Z</time></trkpt><trkpt lat="42.557545" lon="11.5793717"><ele>128.14285714285714</ele><time>2026-04-18T10:20:03.761Z</time></trkpt><trkpt lat="42.5574717" lon="11.57938"><ele>128.28571428571428</ele><time>2026-04-18T10:20:04.761Z</time></trkpt><trkpt lat="42.5574017" lon="11.57939"><ele>128.42857142857142</ele><time>2026-04-18T10:20:05.761Z</time></trkpt><trkpt lat="42.5573333" lon="11.5793983"><ele>128.57142857142856</ele><time>2026-04-18T10:20:06.761Z</time></trkpt><trkpt lat="42.5572633" lon="11.5793967"><ele>128.71428571428572</ele><time>2026-04-18T10:20:07.761Z</time></trkpt><trkpt lat="42.5571917" lon="11.5793917"><ele>128.85714285714283</ele><time>2026-04-18T10:20:08.761Z</time></trkpt><trkpt lat="42.5571217" lon="11.5793983"><ele>129.0</ele><time>2026-04-18T10:20:09.761Z</time></trkpt><trkpt lat="42.5570417" lon="11.57942"><ele>127.2</ele><time>2026-04-18T10:20:10.761Z</time></trkpt><trkpt lat="42.55695" lon="11.5794417"><ele>125.4</ele><time>2026-04-18T10:20:11.761Z</time></trkpt><trkpt lat="42.5568583" lon="11.5794667"><ele>123.6</ele><time>2026-04-18T10:20:12.761Z</time></trkpt><trkpt lat="42.5567633" lon="11.5794833"><ele>121.8</ele><time>2026-04-18T10:20:13.761Z</time></trkpt><trkpt lat="42.5566633" lon="11.57949"><ele>120.0</ele><time>2026-04-18T10:20:14.761Z</time></trkpt><trkpt lat="42.5565783" lon="11.5795017"><ele>120.0</ele><time>2026-04-18T10:20:15.761Z</time></trkpt><trkpt lat="42.5565" lon="11.57951"><ele>120.0</ele><time>2026-04-18T10:20:16.761Z</time></trkpt><trkpt lat="42.5564283" lon="11.579525"><ele>120.0</ele><time>2026-04-18T10:20:17.761Z</time></trkpt><trkpt lat="42.5563617" lon="11.579545"><ele>120.0</ele><time>2026-04-18T10:20:18.761Z</time></trkpt><trkpt lat="42.5562867" lon="11.5795567"><ele>120.0</ele><time>2026-04-18T10:20:19.761Z</time></trkpt><trkpt lat="42.556195" lon="11.5795767"><ele>120.0</ele><time>2026-04-18T10:20:20.761Z</time></trkpt><trkpt lat="42.55609" lon="11.5796"><ele>118.8</ele><time>2026-04-18T10:20:21.761Z</time></trkpt><trkpt lat="42.5559667" lon="11.5796083"><ele>117.6</ele><time>2026-04-18T10:20:22.76Z</time></trkpt><trkpt lat="42.5558517" lon="11.5796183"><ele>116.4</ele><time>2026-04-18T10:20:23.761Z</time></trkpt><trkpt lat="42.5557483" lon="11.5796367"><ele>115.2</ele><time>2026-04-18T10:20:24.761Z</time></trkpt><trkpt lat="42.5556433" lon="11.579655"><ele>114.0</ele><time>2026-04-18T10:20:25.761Z</time></trkpt><trkpt lat="42.555545" lon="11.57967"><ele>114.0</ele><time>2026-04-18T10:20:26.761Z</time></trkpt><trkpt lat="42.5554483" lon="11.5796767"><ele>114.0</ele><time>2026-04-18T10:20:27.761Z</time></trkpt><trkpt lat="42.5553517" lon="11.5796833"><ele>114.0</ele><time>2026-04-18T10:20:28.761Z</time></trkpt><trkpt lat="42.555255" lon="11.5796817"><ele>114.0</ele><time>2026-04-18T10:20:29.761Z</time></trkpt><trkpt lat="42.5551483" lon="11.57969"><ele>114.0</ele><time>2026-04-18T10:20:30.761Z</time></trkpt><trkpt lat="42.5550133" lon="11.5796983"><ele>114.0</ele><time>2026-04-18T10:20:31.761Z</time></trkpt><trkpt lat="42.5548617" lon="11.5797033"><ele>114.0</ele><time>2026-04-18T10:20:32.761Z</time></trkpt><trkpt lat="42.554725" lon="11.5797233"><ele>114.0</ele><time>2026-04-18T10:20:33.761Z</time></trkpt><trkpt lat="42.5546083" lon="11.57974"><ele>114.0</ele><time>2026-04-18T10:20:34.761Z</time></trkpt><trkpt lat="42.554505" lon="11.579755"><ele>113.80000000000001</ele><time>2026-04-18T10:20:35.761Z</time></trkpt><trkpt lat="42.5544033" lon="11.5797733"><ele>113.60000000000001</ele><time>2026-04-18T10:20:36.761Z</time></trkpt><trkpt lat="42.554315" lon="11.5797833"><ele>113.4</ele><time>2026-04-18T10:20:37.761Z</time></trkpt><trkpt lat="42.554215" lon="11.5797983"><ele>113.2</ele><time>2026-04-18T10:20:38.761Z</time></trkpt><trkpt lat="42.5541167" lon="11.5798"><ele>113.0</ele><time>2026-04-18T10:20:39.761Z</time></trkpt><trkpt lat="42.55402" lon="11.5798017"><ele>112.99999999999999</ele><time>2026-04-18T10:20:40.761Z</time></trkpt><trkpt lat="42.5539317" lon="11.57979"><ele>113.0</ele><time>2026-04-18T10:20:41.76Z</time></trkpt><trkpt lat="42.5538567" lon="11.57977"><ele>113.0</ele><time>2026-04-18T10:20:42.761Z</time></trkpt><trkpt lat="42.5537817" lon="11.57977"><ele>113.0</ele><time>2026-04-18T10:20:43.761Z</time></trkpt><trkpt lat="42.5537033" lon="11.5797867"><ele>112.99999999999999</ele><time>2026-04-18T10:20:44.761Z</time></trkpt><trkpt lat="42.553615" lon="11.5798133"><ele>113.0</ele><time>2026-04-18T10:20:45.761Z</time></trkpt><trkpt lat="42.5535233" lon="11.5798483"><ele>113.4</ele><time>2026-04-18T10:20:46.76Z</time></trkpt><trkpt lat="42.553415" lon="11.5798867"><ele>113.80000000000001</ele><time>2026-04-18T10:20:47.761Z</time></trkpt><trkpt lat="42.5533017" lon="11.5799083"><ele>114.2</ele><time>2026-04-18T10:20:48.761Z</time></trkpt><trkpt lat="42.553195" lon="11.5799317"><ele>114.6</ele><time>2026-04-18T10:20:49.761Z</time></trkpt><trkpt lat="42.5530817" lon="11.579955"><ele>115.0</ele><time>2026-04-18T10:20:50.761Z</time></trkpt><trkpt lat="42.552945" lon="11.5799633"><ele>114.33333333333334</ele><time>2026-04-18T10:20:51.76Z</time></trkpt><trkpt lat="42.5527933" lon="11.57996"><ele>113.66666666666666</ele><time>2026-04-18T10:20:52.761Z</time></trkpt><trkpt lat="42.5526367" lon="11.5799583"><ele>113.0</ele><time>2026-04-18T10:20:53.761Z</time></trkpt><trkpt lat="42.552475" lon="11.5799667"><ele>113.0</ele><time>2026-04-18T10:20:54.761Z</time></trkpt><trkpt lat="42.5523183" lon="11.5799833"><ele>113.0</ele><time>2026-04-18T10:20:55.761Z</time></trkpt><trkpt lat="42.552175" lon="11.5799983"><ele>113.0</ele><time>2026-04-18T10:20:56.761Z</time></trkpt><trkpt lat="42.5520283" lon="11.58002"><ele>113.0</ele><time>2026-04-18T10:20:57.761Z</time></trkpt><trkpt lat="42.5518717" lon="11.5800367"><ele>112.66666666666666</ele><time>2026-04-18T10:20:58.761Z</time></trkpt><trkpt lat="42.5517133" lon="11.580045"><ele>112.33333333333334</ele><time>2026-04-18T10:20:59.761Z</time></trkpt><trkpt lat="42.5515517" lon="11.5800567"><ele>112.0</ele><time>2026-04-18T10:21:00.761Z</time></trkpt><trkpt lat="42.551395" lon="11.5800867"><ele>112.0</ele><time>2026-04-18T10:21:01.761Z</time></trkpt><trkpt lat="42.5512383" lon="11.5801083"><ele>112.0</ele><time>2026-04-18T10:21:02.761Z</time></trkpt><trkpt lat="42.5510783" lon="11.5801333"><ele>112.0</ele><time>2026-04-18T10:21:03.761Z</time></trkpt><trkpt lat="42.5509117" lon="11.5801567"><ele>113.0</ele><time>2026-04-18T10:21:04.761Z</time></trkpt><trkpt lat="42.5507283" lon="11.5801783"><ele>114.0</ele><time>2026-04-18T10:21:05.761Z</time></trkpt><trkpt lat="42.550555" lon="11.5802017"><ele>115.0</ele><time>2026-04-18T10:21:06.761Z</time></trkpt><trkpt lat="42.5504" lon="11.5802217"><ele>115.5</ele><time>2026-04-18T10:21:07.761Z</time></trkpt><trkpt lat="42.5502667" lon="11.5802433"><ele>116.0</ele><time>2026-04-18T10:21:08.761Z</time></trkpt><trkpt lat="42.5501417" lon="11.5802667"><ele>116.5</ele><time>2026-04-18T10:21:09.76Z</time></trkpt><trkpt lat="42.55002" lon="11.580285"><ele>117.0</ele><time>2026-04-18T10:21:10.761Z</time></trkpt><trkpt lat="42.5499083" lon="11.5803033"><ele>117.0</ele><time>2026-04-18T10:21:11.761Z</time></trkpt><trkpt lat="42.5497967" lon="11.58031"><ele>117.0</ele><time>2026-04-18T10:21:12.761Z</time></trkpt><trkpt lat="42.549685" lon="11.5802983"><ele>117.0</ele><time>2026-04-18T10:21:13.761Z</time></trkpt><trkpt lat="42.54956" lon="11.58028"><ele>117.0</ele><time>2026-04-18T10:21:14.761Z</time></trkpt><trkpt lat="42.549435" lon="11.58026"><ele>116.8</ele><time>2026-04-18T10:21:15.761Z</time></trkpt><trkpt lat="42.549315" lon="11.5802283"><ele>116.6</ele><time>2026-04-18T10:21:16.761Z</time></trkpt><trkpt lat="42.5492267" lon="11.5801967"><ele>116.39999999999999</ele><time>2026-04-18T10:21:17.761Z</time></trkpt><trkpt lat="42.5491367" lon="11.5801633"><ele>116.19999999999999</ele><time>2026-04-18T10:21:18.76Z</time></trkpt><trkpt lat="42.5490383" lon="11.5801317"><ele>116.0</ele><time>2026-04-18T10:21:19.761Z</time></trkpt><trkpt lat="42.5489533" lon="11.580105"><ele>115.99999999999999</ele><time>2026-04-18T10:21:20.76Z</time></trkpt><trkpt lat="42.54887" lon="11.5801"><ele>116.0</ele><time>2026-04-18T10:21:21.761Z</time></trkpt><trkpt lat="42.54879" lon="11.5801167"><ele>116.0</ele><time>2026-04-18T10:21:22.761Z</time></trkpt><trkpt lat="42.54871" lon="11.5801383"><ele>116.0</ele><time>2026-04-18T10:21:23.761Z</time></trkpt><trkpt lat="42.5486183" lon="11.580145"><ele>115.99999999999999</ele><time>2026-04-18T10:21:24.761Z</time></trkpt><trkpt lat="42.5485167" lon="11.5801317"><ele>116.0</ele><time>2026-04-18T10:21:25.761Z</time></trkpt><trkpt lat="42.5484167" lon="11.58011"><ele>115.83333333333333</ele><time>2026-04-18T10:21:26.761Z</time></trkpt><trkpt lat="42.548315" lon="11.580095"><ele>115.66666666666666</ele><time>2026-04-18T10:21:27.761Z</time></trkpt><trkpt lat="42.54823" lon="11.58009"><ele>115.5</ele><time>2026-04-18T10:21:28.761Z</time></trkpt><trkpt lat="42.5481433" lon="11.5800983"><ele>115.33333333333334</ele><time>2026-04-18T10:21:29.761Z</time></trkpt><trkpt lat="42.5480717" lon="11.580115"><ele>115.16666666666667</ele><time>2026-04-18T10:21:30.761Z</time></trkpt><trkpt lat="42.5480083" lon="11.5801317"><ele>115.0</ele><time>2026-04-18T10:21:31.761Z</time></trkpt><trkpt lat="42.547905" lon="11.5801217"><ele>114.25</ele><time>2026-04-18T10:21:33.761Z</time></trkpt><trkpt lat="42.5478133" lon="11.58006"><ele>113.5</ele><time>2026-04-18T10:21:35.76Z</time></trkpt><trkpt lat="42.54768" lon="11.5799833"><ele>112.75</ele><time>2026-04-18T10:21:37.761Z</time></trkpt><trkpt lat="42.5475733" lon="11.5799533"><ele>112.0</ele><time>2026-04-18T10:21:38.761Z</time></trkpt><trkpt lat="42.5474567" lon="11.5799283"><ele>112.0</ele><time>2026-04-18T10:21:39.76Z</time></trkpt><trkpt lat="42.54735" lon="11.5799"><ele>111.99999999999999</ele><time>2026-04-18T10:21:40.761Z</time></trkpt><trkpt lat="42.547265" lon="11.5798583"><ele>111.99999999999999</ele><time>2026-04-18T10:21:41.761Z</time></trkpt><trkpt lat="42.5471733" lon="11.5798033"><ele>112.0</ele><time>2026-04-18T10:21:42.761Z</time></trkpt><trkpt lat="42.5470767" lon="11.5797333"><ele>112.0</ele><time>2026-04-18T10:21:43.761Z</time></trkpt><trkpt lat="42.5469767" lon="11.5796583"><ele>112.5</ele><time>2026-04-18T10:21:44.76Z</time></trkpt><trkpt lat="42.54687" lon="11.5795833"><ele>113.0</ele><time>2026-04-18T10:21:45.761Z</time></trkpt><trkpt lat="42.5467617" lon="11.5794933"><ele>113.5</ele><time>2026-04-18T10:21:46.761Z</time></trkpt><trkpt lat="42.54666" lon="11.5794117"><ele>114.0</ele><time>2026-04-18T10:21:47.761Z</time></trkpt><trkpt lat="42.5465733" lon="11.57934"><ele>114.4</ele><time>2026-04-18T10:21:48.761Z</time></trkpt><trkpt lat="42.5464833" lon="11.57925"><ele>114.80000000000001</ele><time>2026-04-18T10:21:49.761Z</time></trkpt><trkpt lat="42.5464" lon="11.579165"><ele>115.19999999999999</ele><time>2026-04-18T10:21:50.761Z</time></trkpt><trkpt lat="42.5463333" lon="11.57908"><ele>115.6</ele><time>2026-04-18T10:21:51.761Z</time></trkpt><trkpt lat="42.5462833" lon="11.579015"><ele>116.0</ele><time>2026-04-18T10:21:52.761Z</time></trkpt><trkpt lat="42.5461983" lon="11.5789583"><ele>116.0</ele><time>2026-04-18T10:21:54.761Z</time></trkpt><trkpt lat="42.5461117" lon="11.57896"><ele>116.0</ele><time>2026-04-18T10:21:56.76Z</time></trkpt><trkpt lat="42.546035" lon="11.5790233"><ele>116.0</ele><time>2026-04-18T10:21:58.761Z</time></trkpt><trkpt lat="42.54593" lon="11.579115"><ele>116.0</ele><time>2026-04-18T10:22:00.761Z</time></trkpt><trkpt lat="42.5458467" lon="11.57915"><ele>116.0</ele><time>2026-04-18T10:22:01.761Z</time></trkpt><trkpt lat="42.545745" lon="11.5791733"><ele>116.0</ele><time>2026-04-18T10:22:02.761Z</time></trkpt><trkpt lat="42.5456283" lon="11.5791717"><ele>116.0</ele><time>2026-04-18T10:22:03.761Z</time></trkpt><trkpt lat="42.545505" lon="11.579165"><ele>116.0</ele><time>2026-04-18T10:22:04.761Z</time></trkpt><trkpt lat="42.5453733" lon="11.57915"><ele>116.0</ele><time>2026-04-18T10:22:05.761Z</time></trkpt><trkpt lat="42.5452517" lon="11.5791317"><ele>115.25</ele><time>2026-04-18T10:22:06.76Z</time></trkpt><trkpt lat="42.5451133" lon="11.5791183"><ele>114.5</ele><time>2026-04-18T10:22:07.761Z</time></trkpt><trkpt lat="42.5449817" lon="11.579105"><ele>113.75</ele><time>2026-04-18T10:22:08.761Z</time></trkpt><trkpt lat="42.54486" lon="11.5790933"><ele>113.0</ele><time>2026-04-18T10:22:09.761Z</time></trkpt><trkpt lat="42.5447483" lon="11.5790917"><ele>113.0</ele><time>2026-04-18T10:22:10.761Z</time></trkpt><trkpt lat="42.5446433" lon="11.579085"><ele>113.00000000000001</ele><time>2026-04-18T10:22:11.761Z</time></trkpt><trkpt lat="42.5445483" lon="11.5790533"><ele>113.00000000000001</ele><time>2026-04-18T10:22:12.761Z</time></trkpt><trkpt lat="42.5444433" lon="11.5789983"><ele>113.0</ele><time>2026-04-18T10:22:13.761Z</time></trkpt><trkpt lat="42.544325" lon="11.5789133"><ele>113.0</ele><time>2026-04-18T10:22:14.761Z</time></trkpt><trkpt lat="42.5442017" lon="11.5788067"><ele>112.5</ele><time>2026-04-18T10:22:15.761Z</time></trkpt><trkpt lat="42.544075" lon="11.5787017"><ele>112.0</ele><time>2026-04-18T10:22:16.761Z</time></trkpt><trkpt lat="42.543945" lon="11.578595"><ele>111.5</ele><time>2026-04-18T10:22:17.761Z</time></trkpt><trkpt lat="42.5438217" lon="11.5785183"><ele>111.0</ele><time>2026-04-18T10:22:18.761Z</time></trkpt><trkpt lat="42.5437033" lon="11.5784467"><ele>111.0</ele><time>2026-04-18T10:22:19.761Z</time></trkpt><trkpt lat="42.5435933" lon="11.5783867"><ele>111.0</ele><time>2026-04-18T10:22:20.761Z</time></trkpt><trkpt lat="42.5434883" lon="11.578325"><ele>111.0</ele><time>2026-04-18T10:22:21.761Z</time></trkpt><trkpt lat="42.5433967" lon="11.578275"><ele>111.0</ele><time>2026-04-18T10:22:22.761Z</time></trkpt><trkpt lat="42.5433183" lon="11.5782267"><ele>111.0</ele><time>2026-04-18T10:22:23.761Z</time></trkpt><trkpt lat="42.5432583" lon="11.5781817"><ele>111.0</ele><time>2026-04-18T10:22:24.761Z</time></trkpt><trkpt lat="42.5431983" lon="11.5781417"><ele>111.0</ele><time>2026-04-18T10:22:25.761Z</time></trkpt><trkpt lat="42.5431183" lon="11.57808"><ele>111.0</ele><time>2026-04-18T10:22:27.761Z</time></trkpt><trkpt lat="42.54305" lon="11.57802"><ele>111.0</ele><time>2026-04-18T10:22:29.761Z</time></trkpt><trkpt lat="42.5429833" lon="11.577955"><ele>111.0</ele><time>2026-04-18T10:22:31.761Z</time></trkpt><trkpt lat="42.5428967" lon="11.577875"><ele>111.0</ele><time>2026-04-18T10:22:33.761Z</time></trkpt><trkpt lat="42.542825" lon="11.5778"><ele>112.16666666666667</ele><time>2026-04-18T10:22:35.761Z</time></trkpt><trkpt lat="42.54273" lon="11.5777083"><ele>113.33333333333334</ele><time>2026-04-18T10:22:37.761Z</time></trkpt><trkpt lat="42.5426817" lon="11.5776517"><ele>114.5</ele><time>2026-04-18T10:22:38.761Z</time></trkpt><trkpt lat="42.5426267" lon="11.577605"><ele>115.66666666666667</ele><time>2026-04-18T10:22:39.76Z</time></trkpt><trkpt lat="42.542575" lon="11.5775533"><ele>116.83333333333334</ele><time>2026-04-18T10:22:40.761Z</time></trkpt><trkpt lat="42.542515" lon="11.5774967"><ele>118.0</ele><time>2026-04-18T10:22:41.761Z</time></trkpt><trkpt lat="42.542445" lon="11.57743"><ele>118.0</ele><time>2026-04-18T10:22:42.761Z</time></trkpt><trkpt lat="42.5423733" lon="11.5773683"><ele>118.00000000000001</ele><time>2026-04-18T10:22:43.761Z</time></trkpt><trkpt lat="42.5423067" lon="11.57731"><ele>118.00000000000001</ele><time>2026-04-18T10:22:44.761Z</time></trkpt><trkpt lat="42.5422483" lon="11.5772567"><ele>118.0</ele><time>2026-04-18T10:22:45.761Z</time></trkpt><trkpt lat="42.5421433" lon="11.5771567"><ele>118.0</ele><time>2026-04-18T10:22:47.761Z</time></trkpt><trkpt lat="42.5420467" lon="11.5770483"><ele>118.5</ele><time>2026-04-18T10:22:49.761Z</time></trkpt><trkpt lat="42.5419517" lon="11.5769717"><ele>119.0</ele><time>2026-04-18T10:22:51.761Z</time></trkpt><trkpt lat="42.54186" lon="11.5768983"><ele>119.5</ele><time>2026-04-18T10:22:53.761Z</time></trkpt><trkpt lat="42.541775" lon="11.576805"><ele>120.0</ele><time>2026-04-18T10:22:55.761Z</time></trkpt><trkpt lat="42.5417017" lon="11.5766667"><ele>120.0</ele><time>2026-04-18T10:22:57.761Z</time></trkpt><trkpt lat="42.54165" lon="11.57653"><ele>120.0</ele><time>2026-04-18T10:22:59.761Z</time></trkpt><trkpt lat="42.541635" lon="11.5764217"><ele>120.0</ele><time>2026-04-18T10:23:01.761Z</time></trkpt><trkpt lat="42.5416067" lon="11.5763417"><ele>120.0</ele><time>2026-04-18T10:23:03.761Z</time></trkpt><trkpt lat="42.54157" lon="11.5762583"><ele>120.0</ele><time>2026-04-18T10:23:18.761Z</time></trkpt><trkpt lat="42.5414967" lon="11.5762717"><ele>120.0</ele><time>2026-04-18T10:23:21.761Z</time></trkpt><trkpt lat="42.5414233" lon="11.576395"><ele>120.0</ele><time>2026-04-18T10:23:23.76Z</time></trkpt><trkpt lat="42.5413917" lon="11.5765033"><ele>120.0</ele><time>2026-04-18T10:23:24.761Z</time></trkpt><trkpt lat="42.5413617" lon="11.576635"><ele>120.0</ele><time>2026-04-18T10:23:25.761Z</time></trkpt><trkpt lat="42.541325" lon="11.5767783"><ele>120.0</ele><time>2026-04-18T10:23:26.761Z</time></trkpt><trkpt lat="42.5412867" lon="11.576925"><ele>120.0</ele><time>2026-04-18T10:23:27.761Z</time></trkpt><trkpt lat="42.5412533" lon="11.57708"><ele>118.5</ele><time>2026-04-18T10:23:28.761Z</time></trkpt><trkpt lat="42.5412133" lon="11.5772367"><ele>117.0</ele><time>2026-04-18T10:23:29.761Z</time></trkpt><trkpt lat="42.5411717" lon="11.5774017"><ele>115.5</ele><time>2026-04-18T10:23:30.761Z</time></trkpt><trkpt lat="42.5411317" lon="11.5775617"><ele>114.0</ele><time>2026-04-18T10:23:31.761Z</time></trkpt><trkpt lat="42.5410983" lon="11.5777117"><ele>114.0</ele><time>2026-04-18T10:23:32.761Z</time></trkpt><trkpt lat="42.5410633" lon="11.5778667"><ele>114.0</ele><time>2026-04-18T10:23:33.761Z</time></trkpt><trkpt lat="42.5410283" lon="11.5780367"><ele>114.0</ele><time>2026-04-18T10:23:34.761Z</time></trkpt><trkpt lat="42.5409817" lon="11.578215"><ele>114.0</ele><time>2026-04-18T10:23:35.761Z</time></trkpt><trkpt lat="42.540935" lon="11.5784"><ele>114.0</ele><time>2026-04-18T10:23:36.76Z</time></trkpt><trkpt lat="42.5408883" lon="11.5785783"><ele>114.0</ele><time>2026-04-18T10:23:37.761Z</time></trkpt><trkpt lat="42.5408433" lon="11.5787533"><ele>114.0</ele><time>2026-04-18T10:23:38.761Z</time></trkpt><trkpt lat="42.5407933" lon="11.57894"><ele>114.0</ele><time>2026-04-18T10:23:39.761Z</time></trkpt><trkpt lat="42.5407383" lon="11.5791317"><ele>113.5</ele><time>2026-04-18T10:23:40.761Z</time></trkpt><trkpt lat="42.54069" lon="11.5793067"><ele>113.0</ele><time>2026-04-18T10:23:41.761Z</time></trkpt><trkpt lat="42.5406367" lon="11.579495"><ele>112.5</ele><time>2026-04-18T10:23:42.761Z</time></trkpt><trkpt lat="42.5405967" lon="11.579675"><ele>112.0</ele><time>2026-04-18T10:23:43.761Z</time></trkpt><trkpt lat="42.5405483" lon="11.5798683"><ele>112.0</ele><time>2026-04-18T10:23:44.761Z</time></trkpt><trkpt lat="42.5405017" lon="11.580055"><ele>112.0</ele><time>2026-04-18T10:23:45.76Z</time></trkpt><trkpt lat="42.54046" lon="11.5802417"><ele>112.0</ele><time>2026-04-18T10:23:46.761Z</time></trkpt><trkpt lat="42.5404133" lon="11.580435"><ele>112.0</ele><time>2026-04-18T10:23:47.761Z</time></trkpt><trkpt lat="42.5403583" lon="11.58064"><ele>110.66666666666667</ele><time>2026-04-18T10:23:48.761Z</time></trkpt><trkpt lat="42.5403083" lon="11.5808517"><ele>109.33333333333334</ele><time>2026-04-18T10:23:49.761Z</time></trkpt><trkpt lat="42.5402567" lon="11.58107"><ele>108.0</ele><time>2026-04-18T10:23:50.761Z</time></trkpt><trkpt lat="42.5402" lon="11.5812867"><ele>107.33333333333334</ele><time>2026-04-18T10:23:51.761Z</time></trkpt><trkpt lat="42.5401433" lon="11.581505"><ele>106.66666666666667</ele><time>2026-04-18T10:23:52.761Z</time></trkpt><trkpt lat="42.5400917" lon="11.581725"><ele>106.0</ele><time>2026-04-18T10:23:53.761Z</time></trkpt><trkpt lat="42.540035" lon="11.58195"><ele>106.0</ele><time>2026-04-18T10:23:54.761Z</time></trkpt><trkpt lat="42.5399817" lon="11.5821683"><ele>106.0</ele><time>2026-04-18T10:23:55.761Z</time></trkpt><trkpt lat="42.539925" lon="11.5823867"><ele>106.0</ele><time>2026-04-18T10:23:56.761Z</time></trkpt><trkpt lat="42.5398683" lon="11.5825967"><ele>106.0</ele><time>2026-04-18T10:23:57.761Z</time></trkpt><trkpt lat="42.5398183" lon="11.5828133"><ele>106.0</ele><time>2026-04-18T10:23:58.761Z</time></trkpt><trkpt lat="42.539765" lon="11.5830267"><ele>106.0</ele><time>2026-04-18T10:23:59.761Z</time></trkpt><trkpt lat="42.5397167" lon="11.5832367"><ele>105.75</ele><time>2026-04-18T10:24:00.761Z</time></trkpt><trkpt lat="42.5396667" lon="11.58343"><ele>105.5</ele><time>2026-04-18T10:24:01.761Z</time></trkpt><trkpt lat="42.53962" lon="11.5836183"><ele>105.25</ele><time>2026-04-18T10:24:02.761Z</time></trkpt><trkpt lat="42.5395767" lon="11.5837967"><ele>105.0</ele><time>2026-04-18T10:24:03.761Z</time></trkpt><trkpt lat="42.5395317" lon="11.5839717"><ele>106.25</ele><time>2026-04-18T10:24:04.761Z</time></trkpt><trkpt lat="42.53949" lon="11.584145"><ele>107.5</ele><time>2026-04-18T10:24:05.761Z</time></trkpt><trkpt lat="42.5394417" lon="11.5843083"><ele>108.75</ele><time>2026-04-18T10:24:06.761Z</time></trkpt><trkpt lat="42.5394017" lon="11.5844667"><ele>110.0</ele><time>2026-04-18T10:24:07.761Z</time></trkpt><trkpt lat="42.539355" lon="11.5846283"><ele>110.0</ele><time>2026-04-18T10:24:08.761Z</time></trkpt><trkpt lat="42.5392883" lon="11.5847783"><ele>110.0</ele><time>2026-04-18T10:24:09.761Z</time></trkpt><trkpt lat="42.5392117" lon="11.58489"><ele>110.0</ele><time>2026-04-18T10:24:10.761Z</time></trkpt><trkpt lat="42.5391167" lon="11.584995"><ele>110.0</ele><time>2026-04-18T10:24:11.761Z</time></trkpt><trkpt lat="42.539015" lon="11.5851083"><ele>110.0</ele><time>2026-04-18T10:24:12.761Z</time></trkpt><trkpt lat="42.5389" lon="11.5852217"><ele>110.0</ele><time>2026-04-18T10:24:13.761Z</time></trkpt><trkpt lat="42.538775" lon="11.5853467"><ele>110.0</ele><time>2026-04-18T10:24:14.761Z</time></trkpt><trkpt lat="42.53865" lon="11.585475"><ele>111.33333333333333</ele><time>2026-04-18T10:24:15.761Z</time></trkpt><trkpt lat="42.5385183" lon="11.5856067"><ele>112.66666666666666</ele><time>2026-04-18T10:24:16.761Z</time></trkpt><trkpt lat="42.53838" lon="11.585735"><ele>114.0</ele><time>2026-04-18T10:24:17.761Z</time></trkpt><trkpt lat="42.5382383" lon="11.5858733"><ele>114.0</ele><time>2026-04-18T10:24:18.761Z</time></trkpt><trkpt lat="42.5381017" lon="11.586"><ele>114.0</ele><time>2026-04-18T10:24:19.761Z</time></trkpt><trkpt lat="42.5379683" lon="11.58613"><ele>114.0</ele><time>2026-04-18T10:24:20.761Z</time></trkpt><trkpt lat="42.53784" lon="11.5862617"><ele>114.66666666666666</ele><time>2026-04-18T10:24:21.761Z</time></trkpt><trkpt lat="42.5377267" lon="11.5864067"><ele>115.33333333333333</ele><time>2026-04-18T10:24:22.761Z</time></trkpt><trkpt lat="42.537625" lon="11.5865717"><ele>116.0</ele><time>2026-04-18T10:24:23.761Z</time></trkpt><trkpt lat="42.5375333" lon="11.5867517"><ele>116.0</ele><time>2026-04-18T10:24:24.761Z</time></trkpt><trkpt lat="42.5374433" lon="11.5869367"><ele>116.0</ele><time>2026-04-18T10:24:25.761Z</time></trkpt><trkpt lat="42.5373667" lon="11.5871283"><ele>116.0</ele><time>2026-04-18T10:24:26.761Z</time></trkpt><trkpt lat="42.5372783" lon="11.58733"><ele>115.0</ele><time>2026-04-18T10:24:27.761Z</time></trkpt><trkpt lat="42.537195" lon="11.5875217"><ele>114.0</ele><time>2026-04-18T10:24:28.761Z</time></trkpt><trkpt lat="42.537115" lon="11.5876817"><ele>113.0</ele><time>2026-04-18T10:24:29.761Z</time></trkpt><trkpt lat="42.5370467" lon="11.5878083"><ele>112.0</ele><time>2026-04-18T10:24:30.761Z</time></trkpt><trkpt lat="42.5369717" lon="11.5878983"><ele>112.0</ele><time>2026-04-18T10:24:31.761Z</time></trkpt><trkpt lat="42.5368883" lon="11.5879433"><ele>112.0</ele><time>2026-04-18T10:24:32.761Z</time></trkpt><trkpt lat="42.5367917" lon="11.587975"><ele>112.0</ele><time>2026-04-18T10:24:33.761Z</time></trkpt><trkpt lat="42.5366667" lon="11.5880033"><ele>112.0</ele><time>2026-04-18T10:24:34.761Z</time></trkpt><trkpt lat="42.5365233" lon="11.5880317"><ele>112.0</ele><time>2026-04-18T10:24:35.761Z</time></trkpt><trkpt lat="42.536375" lon="11.5880533"><ele>112.0</ele><time>2026-04-18T10:24:36.761Z</time></trkpt><trkpt lat="42.5362333" lon="11.5880783"><ele>112.0</ele><time>2026-04-18T10:24:37.761Z</time></trkpt><trkpt lat="42.5361" lon="11.5881317"><ele>112.0</ele><time>2026-04-18T10:24:38.761Z</time></trkpt><trkpt lat="42.535965" lon="11.5882017"><ele>112.0</ele><time>2026-04-18T10:24:39.761Z</time></trkpt><trkpt lat="42.5358417" lon="11.5883117"><ele>112.0</ele><time>2026-04-18T10:24:40.761Z</time></trkpt><trkpt lat="42.5357183" lon="11.5884417"><ele>112.0</ele><time>2026-04-18T10:24:41.761Z</time></trkpt><trkpt lat="42.5355983" lon="11.5885733"><ele>112.33333333333334</ele><time>2026-04-18T10:24:42.761Z</time></trkpt><trkpt lat="42.5354783" lon="11.5886967"><ele>112.66666666666666</ele><time>2026-04-18T10:24:43.761Z</time></trkpt><trkpt lat="42.5353533" lon="11.5888333"><ele>113.0</ele><time>2026-04-18T10:24:44.761Z</time></trkpt><trkpt lat="42.53523" lon="11.588975"><ele>113.0</ele><time>2026-04-18T10:24:45.761Z</time></trkpt><trkpt lat="42.535095" lon="11.5891183"><ele>113.0</ele><time>2026-04-18T10:24:46.761Z</time></trkpt><trkpt lat="42.534965" lon="11.589265"><ele>113.0</ele><time>2026-04-18T10:24:47.761Z</time></trkpt><trkpt lat="42.5348383" lon="11.5894017"><ele>112.0</ele><time>2026-04-18T10:24:48.761Z</time></trkpt><trkpt lat="42.5347267" lon="11.5895183"><ele>111.0</ele><time>2026-04-18T10:24:49.761Z</time></trkpt><trkpt lat="42.534625" lon="11.5896267"><ele>110.0</ele><time>2026-04-18T10:24:50.761Z</time></trkpt><trkpt lat="42.5345217" lon="11.5897167"><ele>109.0</ele><time>2026-04-18T10:24:51.76Z</time></trkpt><trkpt lat="42.5344033" lon="11.5897917"><ele>111.5</ele><time>2026-04-18T10:24:52.761Z</time></trkpt><trkpt lat="42.534275" lon="11.5898417"><ele>114.0</ele><time>2026-04-18T10:24:53.761Z</time></trkpt><trkpt lat="42.5341383" lon="11.5898783"><ele>116.5</ele><time>2026-04-18T10:24:54.76Z</time></trkpt><trkpt lat="42.534005" lon="11.589895"><ele>119.0</ele><time>2026-04-18T10:24:55.761Z</time></trkpt><trkpt lat="42.5338667" lon="11.5899067"><ele>119.0</ele><time>2026-04-18T10:24:56.761Z</time></trkpt><trkpt lat="42.5337317" lon="11.5899083"><ele>119.0</ele><time>2026-04-18T10:24:57.76Z</time></trkpt><trkpt lat="42.5335983" lon="11.5898933"><ele>119.0</ele><time>2026-04-18T10:24:58.761Z</time></trkpt><trkpt lat="42.533475" lon="11.5898767"><ele>119.0</ele><time>2026-04-18T10:24:59.761Z</time></trkpt><trkpt lat="42.5333567" lon="11.5898733"><ele>120.5</ele><time>2026-04-18T10:25:00.761Z</time></trkpt><trkpt lat="42.5332383" lon="11.5898833"><ele>122.0</ele><time>2026-04-18T10:25:01.761Z</time></trkpt><trkpt lat="42.533115" lon="11.5899083"><ele>123.5</ele><time>2026-04-18T10:25:02.761Z</time></trkpt><trkpt lat="42.532985" lon="11.589955"><ele>125.0</ele><time>2026-04-18T10:25:03.761Z</time></trkpt><trkpt lat="42.5328533" lon="11.5900083"><ele>124.25</ele><time>2026-04-18T10:25:04.761Z</time></trkpt><trkpt lat="42.5327233" lon="11.59009"><ele>123.5</ele><time>2026-04-18T10:25:05.761Z</time></trkpt><trkpt lat="42.532595" lon="11.590175"><ele>122.75</ele><time>2026-04-18T10:25:06.761Z</time></trkpt><trkpt lat="42.5324633" lon="11.59026"><ele>122.0</ele><time>2026-04-18T10:25:07.761Z</time></trkpt><trkpt lat="42.53234" lon="11.5903433"><ele>122.0</ele><time>2026-04-18T10:25:08.761Z</time></trkpt><trkpt lat="42.532215" lon="11.5904283"><ele>122.0</ele><time>2026-04-18T10:25:09.761Z</time></trkpt><trkpt lat="42.5321017" lon="11.590535"><ele>122.0</ele><time>2026-04-18T10:25:10.761Z</time></trkpt><trkpt lat="42.532" lon="11.5906533"><ele>122.0</ele><time>2026-04-18T10:25:11.761Z</time></trkpt><trkpt lat="42.5318967" lon="11.59079"><ele>121.33333333333333</ele><time>2026-04-18T10:25:12.761Z</time></trkpt><trkpt lat="42.5317983" lon="11.590945"><ele>120.66666666666666</ele><time>2026-04-18T10:25:13.761Z</time></trkpt><trkpt lat="42.5316933" lon="11.5911167"><ele>120.0</ele><time>2026-04-18T10:25:14.761Z</time></trkpt><trkpt lat="42.5315833" lon="11.5913017"><ele>120.0</ele><time>2026-04-18T10:25:15.761Z</time></trkpt><trkpt lat="42.5314667" lon="11.5914867"><ele>120.0</ele><time>2026-04-18T10:25:16.761Z</time></trkpt><trkpt lat="42.5313517" lon="11.5916667"><ele>120.0</ele><time>2026-04-18T10:25:17.761Z</time></trkpt><trkpt lat="42.53124" lon="11.59184"><ele>122.33333333333334</ele><time>2026-04-18T10:25:18.761Z</time></trkpt><trkpt lat="42.5311333" lon="11.5920067"><ele>124.66666666666667</ele><time>2026-04-18T10:25:19.761Z</time></trkpt><trkpt lat="42.5310317" lon="11.592175"><ele>127.0</ele><time>2026-04-18T10:25:20.761Z</time></trkpt><trkpt lat="42.5309317" lon="11.592335"><ele>127.0</ele><time>2026-04-18T10:25:21.761Z</time></trkpt><trkpt lat="42.5308333" lon="11.5925"><ele>127.0</ele><time>2026-04-18T10:25:22.761Z</time></trkpt><trkpt lat="42.5307317" lon="11.59266"><ele>127.0</ele><time>2026-04-18T10:25:23.761Z</time></trkpt><trkpt lat="42.530635" lon="11.5928183"><ele>124.0</ele><time>2026-04-18T10:25:24.761Z</time></trkpt><trkpt lat="42.53054" lon="11.592965"><ele>121.0</ele><time>2026-04-18T10:25:25.761Z</time></trkpt><trkpt lat="42.530445" lon="11.59309"><ele>118.0</ele><time>2026-04-18T10:25:26.761Z</time></trkpt><trkpt lat="42.5303567" lon="11.5932017"><ele>115.0</ele><time>2026-04-18T10:25:27.761Z</time></trkpt><trkpt lat="42.5302517" lon="11.5933083"><ele>117.75</ele><time>2026-04-18T10:25:28.761Z</time></trkpt><trkpt lat="42.5301633" lon="11.5933983"><ele>120.5</ele><time>2026-04-18T10:25:29.761Z</time></trkpt><trkpt lat="42.5300883" lon="11.5935167"><ele>123.25</ele><time>2026-04-18T10:25:30.761Z</time></trkpt><trkpt lat="42.5300267" lon="11.5936383"><ele>126.0</ele><time>2026-04-18T10:25:31.761Z</time></trkpt><trkpt lat="42.52998" lon="11.5937867"><ele>126.0</ele><time>2026-04-18T10:25:32.761Z</time></trkpt><trkpt lat="42.52995" lon="11.59395"><ele>126.0</ele><time>2026-04-18T10:25:33.761Z</time></trkpt><trkpt lat="42.5299217" lon="11.5941233"><ele>126.0</ele><time>2026-04-18T10:25:34.761Z</time></trkpt><trkpt lat="42.5298983" lon="11.59431"><ele>126.0</ele><time>2026-04-18T10:25:35.761Z</time></trkpt><trkpt lat="42.5298733" lon="11.5945017"><ele>124.5</ele><time>2026-04-18T10:25:36.761Z</time></trkpt><trkpt lat="42.5298367" lon="11.5947"><ele>123.0</ele><time>2026-04-18T10:25:37.761Z</time></trkpt><trkpt lat="42.5298033" lon="11.5948883"><ele>121.5</ele><time>2026-04-18T10:25:38.761Z</time></trkpt><trkpt lat="42.5297667" lon="11.5950583"><ele>120.0</ele><time>2026-04-18T10:25:39.761Z</time></trkpt><trkpt lat="42.5297383" lon="11.5952083"><ele>118.0</ele><time>2026-04-18T10:25:40.761Z</time></trkpt><trkpt lat="42.529685" lon="11.5953467"><ele>116.0</ele><time>2026-04-18T10:25:41.761Z</time></trkpt><trkpt lat="42.5296183" lon="11.59548"><ele>114.0</ele><time>2026-04-18T10:25:42.761Z</time></trkpt><trkpt lat="42.5295467" lon="11.5956167"><ele>112.0</ele><time>2026-04-18T10:25:43.76Z</time></trkpt><trkpt lat="42.52948" lon="11.59576"><ele>117.75</ele><time>2026-04-18T10:25:44.761Z</time></trkpt><trkpt lat="42.52943" lon="11.595915"><ele>123.5</ele><time>2026-04-18T10:25:45.761Z</time></trkpt><trkpt lat="42.5293867" lon="11.5960717"><ele>129.25</ele><time>2026-04-18T10:25:46.761Z</time></trkpt><trkpt lat="42.5293633" lon="11.59625"><ele>135.0</ele><time>2026-04-18T10:25:47.761Z</time></trkpt><trkpt lat="42.5293483" lon="11.59643"><ele>135.75</ele><time>2026-04-18T10:25:48.761Z</time></trkpt><trkpt lat="42.5293483" lon="11.5966267"><ele>136.5</ele><time>2026-04-18T10:25:49.761Z</time></trkpt><trkpt lat="42.5293433" lon="11.596825"><ele>137.25</ele><time>2026-04-18T10:25:50.761Z</time></trkpt><trkpt lat="42.529325" lon="11.59701"><ele>138.0</ele><time>2026-04-18T10:25:51.761Z</time></trkpt><trkpt lat="42.529285" lon="11.5971867"><ele>136.0</ele><time>2026-04-18T10:25:52.761Z</time></trkpt><trkpt lat="42.5292433" lon="11.59735"><ele>134.0</ele><time>2026-04-18T10:25:53.761Z</time></trkpt><trkpt lat="42.5291867" lon="11.5975267"><ele>132.0</ele><time>2026-04-18T10:25:54.761Z</time></trkpt><trkpt lat="42.5291083" lon="11.597695"><ele>130.0</ele><time>2026-04-18T10:25:55.761Z</time></trkpt><trkpt lat="42.5290317" lon="11.597875"><ele>125.75</ele><time>2026-04-18T10:25:56.761Z</time></trkpt><trkpt lat="42.5289583" lon="11.5980333"><ele>121.5</ele><time>2026-04-18T10:25:57.761Z</time></trkpt><trkpt lat="42.5288667" lon="11.59819"><ele>117.25</ele><time>2026-04-18T10:25:58.761Z</time></trkpt><trkpt lat="42.52877" lon="11.5983267"><ele>113.0</ele><time>2026-04-18T10:25:59.761Z</time></trkpt><trkpt lat="42.5286633" lon="11.5984533"><ele>115.25</ele><time>2026-04-18T10:26:00.761Z</time></trkpt><trkpt lat="42.52857" lon="11.59857"><ele>117.5</ele><time>2026-04-18T10:26:01.761Z</time></trkpt><trkpt lat="42.5284783" lon="11.5986883"><ele>119.75</ele><time>2026-04-18T10:26:02.761Z</time></trkpt><trkpt lat="42.5283883" lon="11.598825"><ele>122.0</ele><time>2026-04-18T10:26:03.761Z</time></trkpt><trkpt lat="42.528305" lon="11.5989683"><ele>122.0</ele><time>2026-04-18T10:26:04.761Z</time></trkpt><trkpt lat="42.5282433" lon="11.5991267"><ele>122.0</ele><time>2026-04-18T10:26:05.761Z</time></trkpt><trkpt lat="42.528215" lon="11.5992883"><ele>122.0</ele><time>2026-04-18T10:26:06.761Z</time></trkpt><trkpt lat="42.5281767" lon="11.5994333"><ele>122.0</ele><time>2026-04-18T10:26:07.76Z</time></trkpt><trkpt lat="42.5281367" lon="11.5995933"><ele>118.75</ele><time>2026-04-18T10:26:08.761Z</time></trkpt><trkpt lat="42.5280717" lon="11.5997583"><ele>115.5</ele><time>2026-04-18T10:26:09.761Z</time></trkpt><trkpt lat="42.5279967" lon="11.5999217"><ele>112.25</ele><time>2026-04-18T10:26:10.761Z</time></trkpt><trkpt lat="42.5279167" lon="11.6000933"><ele>109.0</ele><time>2026-04-18T10:26:11.761Z</time></trkpt><trkpt lat="42.52784" lon="11.6002467"><ele>114.25</ele><time>2026-04-18T10:26:12.761Z</time></trkpt><trkpt lat="42.5277567" lon="11.60039"><ele>119.5</ele><time>2026-04-18T10:26:13.761Z</time></trkpt><trkpt lat="42.5276867" lon="11.6005317"><ele>124.75</ele><time>2026-04-18T10:26:14.761Z</time></trkpt><trkpt lat="42.5276217" lon="11.60067"><ele>130.0</ele><time>2026-04-18T10:26:15.761Z</time></trkpt><trkpt lat="42.5275583" lon="11.6007917"><ele>130.0</ele><time>2026-04-18T10:26:16.761Z</time></trkpt><trkpt lat="42.5275017" lon="11.6009117"><ele>130.0</ele><time>2026-04-18T10:26:17.761Z</time></trkpt><trkpt lat="42.527455" lon="11.60102"><ele>130.0</ele><time>2026-04-18T10:26:18.761Z</time></trkpt><trkpt lat="42.52742" lon="11.6011067"><ele>130.0</ele><time>2026-04-18T10:26:19.761Z</time></trkpt><trkpt lat="42.52739" lon="11.6012383"><ele>130.0</ele><time>2026-04-18T10:26:21.761Z</time></trkpt><trkpt lat="42.5273783" lon="11.60134"><ele>130.0</ele><time>2026-04-18T10:26:23.761Z</time></trkpt><trkpt lat="42.527365" lon="11.6014267"><ele>127.2857142857143</ele><time>2026-04-18T10:26:25.761Z</time></trkpt><trkpt lat="42.5273567" lon="11.601515"><ele>124.57142857142858</ele><time>2026-04-18T10:26:28.761Z</time></trkpt><trkpt lat="42.527315" lon="11.6016217"><ele>121.85714285714286</ele><time>2026-04-18T10:27:05.761Z</time></trkpt><trkpt lat="42.5272717" lon="11.6016867"><ele>119.14285714285715</ele><time>2026-04-18T10:27:06.761Z</time></trkpt><trkpt lat="42.5272283" lon="11.6017567"><ele>116.42857142857144</ele><time>2026-04-18T10:27:07.761Z</time></trkpt><trkpt lat="42.52718" lon="11.6018233"><ele>113.71428571428571</ele><time>2026-04-18T10:27:08.761Z</time></trkpt><trkpt lat="42.5271417" lon="11.6019067"><ele>111.0</ele><time>2026-04-18T10:27:09.761Z</time></trkpt><trkpt lat="42.5271083" lon="11.6020017"><ele>110.19999999999999</ele><time>2026-04-18T10:27:10.761Z</time></trkpt><trkpt lat="42.5270833" lon="11.6021083"><ele>109.39999999999999</ele><time>2026-04-18T10:27:11.76Z</time></trkpt><trkpt lat="42.5270517" lon="11.602225"><ele>108.6</ele><time>2026-04-18T10:27:12.76Z</time></trkpt><trkpt lat="42.527015" lon="11.6023517"><ele>107.8</ele><time>2026-04-18T10:27:13.761Z</time></trkpt><trkpt lat="42.5269717" lon="11.60247"><ele>107.0</ele><time>2026-04-18T10:27:14.761Z</time></trkpt><trkpt lat="42.5269333" lon="11.6025883"><ele>108.83333333333333</ele><time>2026-04-18T10:27:15.761Z</time></trkpt><trkpt lat="42.5268983" lon="11.6027"><ele>110.66666666666666</ele><time>2026-04-18T10:27:16.761Z</time></trkpt><trkpt lat="42.52686" lon="11.6028167"><ele>112.5</ele><time>2026-04-18T10:27:17.761Z</time></trkpt><trkpt lat="42.5268233" lon="11.60293"><ele>114.33333333333334</ele><time>2026-04-18T10:27:18.761Z</time></trkpt><trkpt lat="42.5267883" lon="11.6030367"><ele>116.16666666666667</ele><time>2026-04-18T10:27:19.761Z</time></trkpt><trkpt lat="42.5267533" lon="11.6031367"><ele>118.0</ele><time>2026-04-18T10:27:20.761Z</time></trkpt><trkpt lat="42.5267117" lon="11.6032417"><ele>118.0</ele><time>2026-04-18T10:27:21.761Z</time></trkpt><trkpt lat="42.52667" lon="11.6033467"><ele>118.00000000000001</ele><time>2026-04-18T10:27:22.76Z</time></trkpt><trkpt lat="42.526625" lon="11.6034483"><ele>118.00000000000001</ele><time>2026-04-18T10:27:23.761Z</time></trkpt><trkpt lat="42.52658" lon="11.6035433"><ele>118.0</ele><time>2026-04-18T10:27:24.761Z</time></trkpt><trkpt lat="42.5265167" lon="11.6036417"><ele>118.0</ele><time>2026-04-18T10:27:25.761Z</time></trkpt><trkpt lat="42.5264517" lon="11.60374"><ele>120.2</ele><time>2026-04-18T10:27:26.76Z</time></trkpt><trkpt lat="42.526385" lon="11.6038433"><ele>122.4</ele><time>2026-04-18T10:27:27.761Z</time></trkpt><trkpt lat="42.52632" lon="11.60395"><ele>124.60000000000001</ele><time>2026-04-18T10:27:28.761Z</time></trkpt><trkpt lat="42.5262633" lon="11.6040783"><ele>126.80000000000001</ele><time>2026-04-18T10:27:29.761Z</time></trkpt><trkpt lat="42.5262183" lon="11.6042267"><ele>129.0</ele><time>2026-04-18T10:27:30.76Z</time></trkpt><trkpt lat="42.52617" lon="11.60436"><ele>129.0</ele><time>2026-04-18T10:27:31.76Z</time></trkpt><trkpt lat="42.5261333" lon="11.6044817"><ele>129.0</ele><time>2026-04-18T10:27:32.76Z</time></trkpt><trkpt lat="42.5260833" lon="11.6045983"><ele>129.0</ele><time>2026-04-18T10:27:33.76Z</time></trkpt><trkpt lat="42.5260333" lon="11.6047067"><ele>129.0</ele><time>2026-04-18T10:27:34.76Z</time></trkpt><trkpt lat="42.5259733" lon="11.6048133"><ele>129.0</ele><time>2026-04-18T10:27:35.76Z</time></trkpt><trkpt lat="42.5259117" lon="11.604915"><ele>125.0</ele><time>2026-04-18T10:27:36.76Z</time></trkpt><trkpt lat="42.5258417" lon="11.60502"><ele>121.0</ele><time>2026-04-18T10:27:37.76Z</time></trkpt><trkpt lat="42.52578" lon="11.6051317"><ele>117.0</ele><time>2026-04-18T10:27:38.76Z</time></trkpt><trkpt lat="42.5257117" lon="11.605255"><ele>113.0</ele><time>2026-04-18T10:27:39.76Z</time></trkpt><trkpt lat="42.5256367" lon="11.605385"><ele>109.0</ele><time>2026-04-18T10:27:40.76Z</time></trkpt><trkpt lat="42.5255567" lon="11.6055167"><ele>110.4</ele><time>2026-04-18T10:27:41.76Z</time></trkpt><trkpt lat="42.5254817" lon="11.6056517"><ele>111.80000000000001</ele><time>2026-04-18T10:27:42.76Z</time></trkpt><trkpt lat="42.525405" lon="11.6057683"><ele>113.19999999999999</ele><time>2026-04-18T10:27:43.76Z</time></trkpt><trkpt lat="42.5253317" lon="11.6058733"><ele>114.6</ele><time>2026-04-18T10:27:44.76Z</time></trkpt><trkpt lat="42.525255" lon="11.6059667"><ele>116.0</ele><time>2026-04-18T10:27:45.76Z</time></trkpt><trkpt lat="42.5251833" lon="11.6060467"><ele>115.99999999999999</ele><time>2026-04-18T10:27:46.76Z</time></trkpt><trkpt lat="42.5251133" lon="11.6061083"><ele>116.0</ele><time>2026-04-18T10:27:47.759Z</time></trkpt><trkpt lat="42.52504" lon="11.6061533"><ele>116.0</ele><time>2026-04-18T10:27:48.76Z</time></trkpt><trkpt lat="42.5249583" lon="11.6061817"><ele>116.0</ele><time>2026-04-18T10:27:49.76Z</time></trkpt><trkpt lat="42.524865" lon="11.60619"><ele>115.99999999999999</ele><time>2026-04-18T10:27:50.76Z</time></trkpt><trkpt lat="42.5247667" lon="11.6061967"><ele>116.0</ele><time>2026-04-18T10:27:51.76Z</time></trkpt><trkpt lat="42.52466" lon="11.6062"><ele>118.0</ele><time>2026-04-18T10:27:52.76Z</time></trkpt><trkpt lat="42.524545" lon="11.6061817"><ele>120.0</ele><time>2026-04-18T10:27:53.76Z</time></trkpt><trkpt lat="42.5244167" lon="11.60614"><ele>122.0</ele><time>2026-04-18T10:27:54.76Z</time></trkpt><trkpt lat="42.5242983" lon="11.6061017"><ele>124.0</ele><time>2026-04-18T10:27:55.76Z</time></trkpt><trkpt lat="42.5241883" lon="11.606065"><ele>124.00000000000001</ele><time>2026-04-18T10:27:56.76Z</time></trkpt><trkpt lat="42.5240817" lon="11.606045"><ele>124.0</ele><time>2026-04-18T10:27:57.76Z</time></trkpt><trkpt lat="42.5239983" lon="11.60602"><ele>124.0</ele><time>2026-04-18T10:27:58.76Z</time></trkpt><trkpt lat="42.5239133" lon="11.60601"><ele>124.0</ele><time>2026-04-18T10:27:59.76Z</time></trkpt><trkpt lat="42.5238367" lon="11.60602"><ele>124.00000000000001</ele><time>2026-04-18T10:28:00.76Z</time></trkpt><trkpt lat="42.523765" lon="11.6060533"><ele>124.0</ele><time>2026-04-18T10:28:01.76Z</time></trkpt><trkpt lat="42.5236933" lon="11.6060983"><ele>125.80000000000001</ele><time>2026-04-18T10:28:02.76Z</time></trkpt><trkpt lat="42.523615" lon="11.60615"><ele>127.60000000000001</ele><time>2026-04-18T10:28:03.76Z</time></trkpt><trkpt lat="42.5235333" lon="11.6062067"><ele>129.4</ele><time>2026-04-18T10:28:04.76Z</time></trkpt><trkpt lat="42.5234483" lon="11.6062683"><ele>131.20000000000002</ele><time>2026-04-18T10:28:05.76Z</time></trkpt><trkpt lat="42.5233567" lon="11.6063267"><ele>133.0</ele><time>2026-04-18T10:28:06.76Z</time></trkpt><trkpt lat="42.52327" lon="11.6063883"><ele>128.0</ele><time>2026-04-18T10:28:07.76Z</time></trkpt><trkpt lat="42.5231883" lon="11.6064317"><ele>123.00000000000001</ele><time>2026-04-18T10:28:08.76Z</time></trkpt><trkpt lat="42.5230983" lon="11.606475"><ele>118.00000000000001</ele><time>2026-04-18T10:28:09.76Z</time></trkpt><trkpt lat="42.5229883" lon="11.60651"><ele>113.0</ele><time>2026-04-18T10:28:10.759Z</time></trkpt><trkpt lat="42.5228817" lon="11.6065417"><ele>108.0</ele><time>2026-04-18T10:28:11.76Z</time></trkpt><trkpt lat="42.52277" lon="11.6065483"><ele>108.0</ele><time>2026-04-18T10:28:12.759Z</time></trkpt><trkpt lat="42.522655" lon="11.6065333"><ele>108.00000000000001</ele><time>2026-04-18T10:28:13.76Z</time></trkpt><trkpt lat="42.52254" lon="11.60652"><ele>108.00000000000001</ele><time>2026-04-18T10:28:14.76Z</time></trkpt><trkpt lat="42.522435" lon="11.6065017"><ele>108.0</ele><time>2026-04-18T10:28:15.76Z</time></trkpt><trkpt lat="42.5223417" lon="11.606475"><ele>108.0</ele><time>2026-04-18T10:28:16.76Z</time></trkpt><trkpt lat="42.522255" lon="11.6064483"><ele>108.0</ele><time>2026-04-18T10:28:17.76Z</time></trkpt><trkpt lat="42.52216" lon="11.6064117"><ele>108.00000000000001</ele><time>2026-04-18T10:28:18.76Z</time></trkpt><trkpt lat="42.5220683" lon="11.60637"><ele>108.00000000000001</ele><time>2026-04-18T10:28:19.76Z</time></trkpt><trkpt lat="42.52198" lon="11.6063283"><ele>108.0</ele><time>2026-04-18T10:28:20.76Z</time></trkpt><trkpt lat="42.5218967" lon="11.6062967"><ele>108.0</ele><time>2026-04-18T10:28:21.76Z</time></trkpt><trkpt lat="42.52181" lon="11.6062733"><ele>106.4</ele><time>2026-04-18T10:28:22.76Z</time></trkpt><trkpt lat="42.521715" lon="11.6062583"><ele>104.80000000000001</ele><time>2026-04-18T10:28:23.76Z</time></trkpt><trkpt lat="42.5216283" lon="11.606255"><ele>103.2</ele><time>2026-04-18T10:28:24.76Z</time></trkpt><trkpt lat="42.5215217" lon="11.6062433"><ele>101.6</ele><time>2026-04-18T10:28:25.76Z</time></trkpt><trkpt lat="42.521405" lon="11.606255"><ele>100.0</ele><time>2026-04-18T10:28:26.76Z</time></trkpt><trkpt lat="42.5212867" lon="11.606265"><ele>99.8</ele><time>2026-04-18T10:28:27.759Z</time></trkpt><trkpt lat="42.521175" lon="11.6062683"><ele>99.6</ele><time>2026-04-18T10:28:28.76Z</time></trkpt><trkpt lat="42.521085" lon="11.60627"><ele>99.4</ele><time>2026-04-18T10:28:29.76Z</time></trkpt><trkpt lat="42.5210067" lon="11.6062467"><ele>99.2</ele><time>2026-04-18T10:28:30.76Z</time></trkpt><trkpt lat="42.520945" lon="11.6062183"><ele>99.0</ele><time>2026-04-18T10:28:31.76Z</time></trkpt><trkpt lat="42.5208717" lon="11.6061183"><ele>101.4</ele><time>2026-04-18T10:28:33.76Z</time></trkpt><trkpt lat="42.5208633" lon="11.6059617"><ele>103.80000000000001</ele><time>2026-04-18T10:28:35.76Z</time></trkpt><trkpt lat="42.5208667" lon="11.6058567"><ele>106.19999999999999</ele><time>2026-04-18T10:28:36.76Z</time></trkpt><trkpt lat="42.5208667" lon="11.6057267"><ele>108.6</ele><time>2026-04-18T10:28:37.76Z</time></trkpt><trkpt lat="42.520875" lon="11.6055967"><ele>111.0</ele><time>2026-04-18T10:28:38.76Z</time></trkpt><trkpt lat="42.5208917" lon="11.605485"><ele>111.0</ele><time>2026-04-18T10:28:39.76Z</time></trkpt><trkpt lat="42.520905" lon="11.6053917"><ele>111.0</ele><time>2026-04-18T10:28:40.76Z</time></trkpt><trkpt lat="42.520965" lon="11.6052817"><ele>111.0</ele><time>2026-04-18T10:28:42.76Z</time></trkpt><trkpt lat="42.5210233" lon="11.6052383"><ele>111.0</ele><time>2026-04-18T10:28:43.759Z</time></trkpt><trkpt lat="42.5211" lon="11.605195"><ele>111.0</ele><time>2026-04-18T10:28:44.76Z</time></trkpt><trkpt lat="42.52118" lon="11.605145"><ele>111.0</ele><time>2026-04-18T10:28:45.759Z</time></trkpt><trkpt lat="42.521245" lon="11.605075"><ele>111.83333333333333</ele><time>2026-04-18T10:28:46.76Z</time></trkpt><trkpt lat="42.5212983" lon="11.605"><ele>112.66666666666666</ele><time>2026-04-18T10:28:47.76Z</time></trkpt><trkpt lat="42.521325" lon="11.6049083"><ele>113.5</ele><time>2026-04-18T10:28:48.76Z</time></trkpt><trkpt lat="42.521345" lon="11.60481"><ele>114.33333333333333</ele><time>2026-04-18T10:28:49.76Z</time></trkpt><trkpt lat="42.52136" lon="11.604695"><ele>115.16666666666666</ele><time>2026-04-18T10:28:50.76Z</time></trkpt><trkpt lat="42.5213717" lon="11.6045733"><ele>116.0</ele><time>2026-04-18T10:28:51.76Z</time></trkpt><trkpt lat="42.5213867" lon="11.6044417"><ele>116.0</ele><time>2026-04-18T10:28:52.76Z</time></trkpt><trkpt lat="42.5213967" lon="11.6043017"><ele>116.0</ele><time>2026-04-18T10:28:53.759Z</time></trkpt><trkpt lat="42.5214133" lon="11.6041567"><ele>116.0</ele><time>2026-04-18T10:28:54.76Z</time></trkpt><trkpt lat="42.5214367" lon="11.60401"><ele>116.0</ele><time>2026-04-18T10:28:55.76Z</time></trkpt><trkpt lat="42.5214533" lon="11.6038633"><ele>116.0</ele><time>2026-04-18T10:28:56.76Z</time></trkpt><trkpt lat="42.52147" lon="11.603735"><ele>116.0</ele><time>2026-04-18T10:28:57.76Z</time></trkpt><trkpt lat="42.52149" lon="11.603595"><ele>116.0</ele><time>2026-04-18T10:28:58.76Z</time></trkpt><trkpt lat="42.52151" lon="11.60348"><ele>116.0</ele><time>2026-04-18T10:28:59.76Z</time></trkpt><trkpt lat="42.5215317" lon="11.6033767"><ele>116.0</ele><time>2026-04-18T10:29:00.76Z</time></trkpt><trkpt lat="42.5215567" lon="11.6032767"><ele>116.0</ele><time>2026-04-18T10:29:01.76Z</time></trkpt><trkpt lat="42.5215783" lon="11.6031317"><ele>115.99999999999999</ele><time>2026-04-18T10:29:03.76Z</time></trkpt><trkpt lat="42.5215633" lon="11.6030367"><ele>116.0</ele><time>2026-04-18T10:29:05.76Z</time></trkpt><trkpt lat="42.521505" lon="11.6029883"><ele>116.0</ele><time>2026-04-18T10:29:07.76Z</time></trkpt><trkpt lat="42.5214333" lon="11.6030317"><ele>116.0</ele><time>2026-04-18T10:29:09.76Z</time></trkpt><trkpt lat="42.5213717" lon="11.6031517"><ele>115.99999999999999</ele><time>2026-04-18T10:29:11.76Z</time></trkpt><trkpt lat="42.5213383" lon="11.6032417"><ele>116.0</ele><time>2026-04-18T10:29:12.76Z</time></trkpt><trkpt lat="42.521305" lon="11.603345"><ele>116.0</ele><time>2026-04-18T10:29:13.76Z</time></trkpt><trkpt lat="42.52127" lon="11.6034733"><ele>116.0</ele><time>2026-04-18T10:29:14.76Z</time></trkpt><trkpt lat="42.5212383" lon="11.603605"><ele>116.0</ele><time>2026-04-18T10:29:15.759Z</time></trkpt><trkpt lat="42.52121" lon="11.603735"><ele>116.0</ele><time>2026-04-18T10:29:16.76Z</time></trkpt><trkpt lat="42.5211733" lon="11.60386"><ele>116.0</ele><time>2026-04-18T10:29:17.759Z</time></trkpt><trkpt lat="42.5211483" lon="11.6039917"><ele>117.49999999999999</ele><time>2026-04-18T10:29:18.76Z</time></trkpt><trkpt lat="42.5211267" lon="11.6041033"><ele>119.0</ele><time>2026-04-18T10:29:19.76Z</time></trkpt><trkpt lat="42.5211117" lon="11.604215"><ele>120.5</ele><time>2026-04-18T10:29:20.759Z</time></trkpt><trkpt lat="42.521095" lon="11.60433"><ele>122.0</ele><time>2026-04-18T10:29:21.76Z</time></trkpt><trkpt lat="42.521075" lon="11.6044383"><ele>123.49999999999999</ele><time>2026-04-18T10:29:22.76Z</time></trkpt><trkpt lat="42.5210483" lon="11.6045417"><ele>125.0</ele><time>2026-04-18T10:29:23.76Z</time></trkpt><trkpt lat="42.5210183" lon="11.6046383"><ele>124.99999999999999</ele><time>2026-04-18T10:29:24.759Z</time></trkpt><trkpt lat="42.520975" lon="11.6047233"><ele>125.0</ele><time>2026-04-18T10:29:25.759Z</time></trkpt><trkpt lat="42.5209033" lon="11.604805"><ele>125.0</ele><time>2026-04-18T10:29:26.76Z</time></trkpt><trkpt lat="42.52084" lon="11.6048783"><ele>125.0</ele><time>2026-04-18T10:29:27.76Z</time></trkpt><trkpt lat="42.5207717" lon="11.6049367"><ele>124.99999999999999</ele><time>2026-04-18T10:29:28.76Z</time></trkpt><trkpt lat="42.5206983" lon="11.6049983"><ele>125.0</ele><time>2026-04-18T10:29:29.76Z</time></trkpt><trkpt lat="42.5206183" lon="11.6050717"><ele>125.0</ele><time>2026-04-18T10:29:30.76Z</time></trkpt><trkpt lat="42.5205433" lon="11.6051567"><ele>125.0</ele><time>2026-04-18T10:29:31.76Z</time></trkpt><trkpt lat="42.5204533" lon="11.6052467"><ele>125.0</ele><time>2026-04-18T10:29:32.76Z</time></trkpt><trkpt lat="42.520365" lon="11.6053467"><ele>125.0</ele><time>2026-04-18T10:29:33.76Z</time></trkpt><trkpt lat="42.520275" lon="11.6054383"><ele>125.0</ele><time>2026-04-18T10:29:34.76Z</time></trkpt><trkpt lat="42.5201833" lon="11.6055333"><ele>128.4</ele><time>2026-04-18T10:29:35.76Z</time></trkpt><trkpt lat="42.5200967" lon="11.6056217"><ele>131.8</ele><time>2026-04-18T10:29:36.76Z</time></trkpt><trkpt lat="42.52002" lon="11.6057017"><ele>135.2</ele><time>2026-04-18T10:29:37.76Z</time></trkpt><trkpt lat="42.5199433" lon="11.6057767"><ele>138.6</ele><time>2026-04-18T10:29:38.76Z</time></trkpt><trkpt lat="42.5198683" lon="11.6058433"><ele>142.0</ele><time>2026-04-18T10:29:39.76Z</time></trkpt><trkpt lat="42.519795" lon="11.6058967"><ele>142.0</ele><time>2026-04-18T10:29:40.76Z</time></trkpt><trkpt lat="42.5197233" lon="11.6059283"><ele>142.0</ele><time>2026-04-18T10:29:41.76Z</time></trkpt><trkpt lat="42.5196533" lon="11.60595"><ele>142.0</ele><time>2026-04-18T10:29:42.759Z</time></trkpt><trkpt lat="42.5195817" lon="11.60597"><ele>142.0</ele><time>2026-04-18T10:29:43.76Z</time></trkpt><trkpt lat="42.5195067" lon="11.6059783"><ele>142.0</ele><time>2026-04-18T10:29:44.76Z</time></trkpt><trkpt lat="42.5194167" lon="11.6059833"><ele>142.0</ele><time>2026-04-18T10:29:45.76Z</time></trkpt><trkpt lat="42.5193317" lon="11.6060083"><ele>142.66666666666669</ele><time>2026-04-18T10:29:46.76Z</time></trkpt><trkpt lat="42.5192467" lon="11.606035"><ele>143.33333333333334</ele><time>2026-04-18T10:29:47.76Z</time></trkpt><trkpt lat="42.51916" lon="11.6060717"><ele>144.0</ele><time>2026-04-18T10:29:48.76Z</time></trkpt><trkpt lat="42.5190833" lon="11.6061267"><ele>144.66666666666666</ele><time>2026-04-18T10:29:49.76Z</time></trkpt><trkpt lat="42.5190083" lon="11.6061917"><ele>145.33333333333331</ele><time>2026-04-18T10:29:50.76Z</time></trkpt><trkpt lat="42.5189283" lon="11.6062583"><ele>146.0</ele><time>2026-04-18T10:29:51.76Z</time></trkpt><trkpt lat="42.5188517" lon="11.6063417"><ele>146.0</ele><time>2026-04-18T10:29:52.76Z</time></trkpt><trkpt lat="42.518785" lon="11.606435"><ele>146.0</ele><time>2026-04-18T10:29:53.76Z</time></trkpt><trkpt lat="42.51873" lon="11.6065317"><ele>146.0</ele><time>2026-04-18T10:29:54.76Z</time></trkpt><trkpt lat="42.518685" lon="11.6066267"><ele>146.0</ele><time>2026-04-18T10:29:55.76Z</time></trkpt><trkpt lat="42.5186467" lon="11.6067067"><ele>146.0</ele><time>2026-04-18T10:29:56.76Z</time></trkpt><trkpt lat="42.5186" lon="11.6068567"><ele>147.0</ele><time>2026-04-18T10:29:58.76Z</time></trkpt><trkpt lat="42.518575" lon="11.6069367"><ele>148.0</ele><time>2026-04-18T10:29:59.76Z</time></trkpt><trkpt lat="42.5185183" lon="11.6070933"><ele>149.0</ele><time>2026-04-18T10:30:01.76Z</time></trkpt><trkpt lat="42.5184917" lon="11.607175"><ele>150.0</ele><time>2026-04-18T10:30:02.76Z</time></trkpt><trkpt lat="42.5184583" lon="11.6072617"><ele>151.0</ele><time>2026-04-18T10:30:03.759Z</time></trkpt><trkpt lat="42.5183833" lon="11.607375"><ele>152.0</ele><time>2026-04-18T10:30:05.76Z</time></trkpt><trkpt lat="42.51829" lon="11.6074433"><ele>152.0</ele><time>2026-04-18T10:30:07.76Z</time></trkpt><trkpt lat="42.5181767" lon="11.6075083"><ele>152.0</ele><time>2026-04-18T10:30:09.76Z</time></trkpt><trkpt lat="42.5180683" lon="11.6075333"><ele>152.0</ele><time>2026-04-18T10:30:11.76Z</time></trkpt><trkpt lat="42.5179783" lon="11.6075733"><ele>152.0</ele><time>2026-04-18T10:30:13.76Z</time></trkpt><trkpt lat="42.5179467" lon="11.6076533"><ele>152.0</ele><time>2026-04-18T10:30:15.76Z</time></trkpt><trkpt lat="42.51797" lon="11.6077467"><ele>152.0</ele><time>2026-04-18T10:30:17.76Z</time></trkpt><trkpt lat="42.5180417" lon="11.607805"><ele>152.0</ele><time>2026-04-18T10:30:19.76Z</time></trkpt><trkpt lat="42.5181333" lon="11.6078683"><ele>152.0</ele><time>2026-04-18T10:30:21.76Z</time></trkpt><trkpt lat="42.5182083" lon="11.6079317"><ele>152.0</ele><time>2026-04-18T10:30:23.76Z</time></trkpt><trkpt lat="42.5182783" lon="11.6080117"><ele>152.0</ele><time>2026-04-18T10:30:25.76Z</time></trkpt><trkpt lat="42.518325" lon="11.6081367"><ele>148.66666666666666</ele><time>2026-04-18T10:30:27.759Z</time></trkpt><trkpt lat="42.518315" lon="11.6082917"><ele>145.33333333333331</ele><time>2026-04-18T10:30:29.76Z</time></trkpt><trkpt lat="42.51829" lon="11.6083733"><ele>142.0</ele><time>2026-04-18T10:30:30.759Z</time></trkpt><trkpt lat="42.51825" lon="11.608455"><ele>138.66666666666666</ele><time>2026-04-18T10:30:31.759Z</time></trkpt><trkpt lat="42.5182" lon="11.6085217"><ele>135.33333333333334</ele><time>2026-04-18T10:30:32.76Z</time></trkpt><trkpt lat="42.5181417" lon="11.6085883"><ele>132.0</ele><time>2026-04-18T10:30:33.76Z</time></trkpt><trkpt lat="42.518085" lon="11.6086467"><ele>130.0</ele><time>2026-04-18T10:30:34.76Z</time></trkpt><trkpt lat="42.518025" lon="11.6086867"><ele>128.0</ele><time>2026-04-18T10:30:35.76Z</time></trkpt><trkpt lat="42.51796" lon="11.6087267"><ele>126.0</ele><time>2026-04-18T10:30:36.76Z</time></trkpt><trkpt lat="42.5178867" lon="11.6087583"><ele>124.0</ele><time>2026-04-18T10:30:37.76Z</time></trkpt><trkpt lat="42.5178017" lon="11.6087717"><ele>122.0</ele><time>2026-04-18T10:30:38.76Z</time></trkpt><trkpt lat="42.5177167" lon="11.6087783"><ele>120.0</ele><time>2026-04-18T10:30:39.76Z</time></trkpt><trkpt lat="42.5176267" lon="11.6087833"><ele>120.0</ele><time>2026-04-18T10:30:40.76Z</time></trkpt><trkpt lat="42.5175383" lon="11.6087917"><ele>120.0</ele><time>2026-04-18T10:30:41.76Z</time></trkpt><trkpt lat="42.5174417" lon="11.6088017"><ele>120.0</ele><time>2026-04-18T10:30:42.76Z</time></trkpt><trkpt lat="42.5173417" lon="11.608815"><ele>120.0</ele><time>2026-04-18T10:30:43.759Z</time></trkpt><trkpt lat="42.5172517" lon="11.6088333"><ele>120.0</ele><time>2026-04-18T10:30:44.759Z</time></trkpt><trkpt lat="42.5171633" lon="11.6088583"><ele>120.0</ele><time>2026-04-18T10:30:45.76Z</time></trkpt><trkpt lat="42.5170733" lon="11.6088867"><ele>120.0</ele><time>2026-04-18T10:30:46.76Z</time></trkpt><trkpt lat="42.516985" lon="11.6089083"><ele>120.0</ele><time>2026-04-18T10:30:47.76Z</time></trkpt><trkpt lat="42.51689" lon="11.6089367"><ele>120.0</ele><time>2026-04-18T10:30:48.76Z</time></trkpt><trkpt lat="42.5167967" lon="11.6089717"><ele>120.0</ele><time>2026-04-18T10:30:49.76Z</time></trkpt><trkpt lat="42.516705" lon="11.6089967"><ele>120.28571428571429</ele><time>2026-04-18T10:30:50.76Z</time></trkpt><trkpt lat="42.5166167" lon="11.6090267"><ele>120.57142857142856</ele><time>2026-04-18T10:30:51.76Z</time></trkpt><trkpt lat="42.516545" lon="11.6090667"><ele>120.85714285714285</ele><time>2026-04-18T10:30:52.76Z</time></trkpt><trkpt lat="42.5164817" lon="11.6091033"><ele>121.14285714285714</ele><time>2026-04-18T10:30:53.76Z</time></trkpt><trkpt lat="42.5164217" lon="11.60914"><ele>121.42857142857142</ele><time>2026-04-18T10:30:54.76Z</time></trkpt><trkpt lat="42.5163583" lon="11.6091883"><ele>121.7142857142857</ele><time>2026-04-18T10:30:55.76Z</time></trkpt><trkpt lat="42.5162983" lon="11.60924"><ele>121.99999999999999</ele><time>2026-04-18T10:30:56.76Z</time></trkpt><trkpt lat="42.5162433" lon="11.6092833"><ele>122.99999999999999</ele><time>2026-04-18T10:30:57.76Z</time></trkpt><trkpt lat="42.5161783" lon="11.60933"><ele>124.0</ele><time>2026-04-18T10:30:58.76Z</time></trkpt><trkpt lat="42.5161067" lon="11.60937"><ele>125.0</ele><time>2026-04-18T10:30:59.76Z</time></trkpt><trkpt lat="42.5160317" lon="11.6094"><ele>126.0</ele><time>2026-04-18T10:31:00.76Z</time></trkpt><trkpt lat="42.515945" lon="11.6094283"><ele>126.99999999999999</ele><time>2026-04-18T10:31:01.76Z</time></trkpt><trkpt lat="42.51585" lon="11.609445"><ele>128.0</ele><time>2026-04-18T10:31:02.76Z</time></trkpt><trkpt lat="42.5157417" lon="11.6094567"><ele>127.99999999999999</ele><time>2026-04-18T10:31:03.76Z</time></trkpt><trkpt lat="42.51564" lon="11.6094633"><ele>128.0</ele><time>2026-04-18T10:31:04.76Z</time></trkpt><trkpt lat="42.5155517" lon="11.6094717"><ele>128.0</ele><time>2026-04-18T10:31:05.76Z</time></trkpt><trkpt lat="42.515475" lon="11.609495"><ele>128.0</ele><time>2026-04-18T10:31:06.76Z</time></trkpt><trkpt lat="42.5154033" lon="11.6095417"><ele>127.99999999999999</ele><time>2026-04-18T10:31:07.76Z</time></trkpt><trkpt lat="42.5153317" lon="11.6095983"><ele>128.0</ele><time>2026-04-18T10:31:08.76Z</time></trkpt><trkpt lat="42.5152583" lon="11.60967"><ele>127.4</ele><time>2026-04-18T10:31:09.76Z</time></trkpt><trkpt lat="42.51519" lon="11.6097383"><ele>126.80000000000001</ele><time>2026-04-18T10:31:10.76Z</time></trkpt><trkpt lat="42.5151117" lon="11.60981"><ele>126.2</ele><time>2026-04-18T10:31:11.76Z</time></trkpt><trkpt lat="42.51502" lon="11.6098767"><ele>125.6</ele><time>2026-04-18T10:31:12.76Z</time></trkpt><trkpt lat="42.514925" lon="11.6099367"><ele>125.0</ele><time>2026-04-18T10:31:13.76Z</time></trkpt><trkpt lat="42.5148217" lon="11.6100083"><ele>125.0</ele><time>2026-04-18T10:31:14.76Z</time></trkpt><trkpt lat="42.5147183" lon="11.6100683"><ele>125.0</ele><time>2026-04-18T10:31:15.759Z</time></trkpt><trkpt lat="42.51463" lon="11.6101467"><ele>125.0</ele><time>2026-04-18T10:31:16.76Z</time></trkpt><trkpt lat="42.5145333" lon="11.6102417"><ele>125.0</ele><time>2026-04-18T10:31:17.76Z</time></trkpt><trkpt lat="42.51443" lon="11.6103533"><ele>125.25</ele><time>2026-04-18T10:31:18.76Z</time></trkpt><trkpt lat="42.5143217" lon="11.6104667"><ele>125.5</ele><time>2026-04-18T10:31:19.76Z</time></trkpt><trkpt lat="42.5142167" lon="11.6105783"><ele>125.75</ele><time>2026-04-18T10:31:20.76Z</time></trkpt><trkpt lat="42.5141217" lon="11.6106767"><ele>126.0</ele><time>2026-04-18T10:31:21.76Z</time></trkpt><trkpt lat="42.5140383" lon="11.6107683"><ele>126.0</ele><time>2026-04-18T10:31:22.76Z</time></trkpt><trkpt lat="42.5139483" lon="11.6108517"><ele>126.0</ele><time>2026-04-18T10:31:23.76Z</time></trkpt><trkpt lat="42.513865" lon="11.6109233"><ele>126.0</ele><time>2026-04-18T10:31:24.76Z</time></trkpt><trkpt lat="42.5137883" lon="11.6109933"><ele>126.0</ele><time>2026-04-18T10:31:25.76Z</time></trkpt><trkpt lat="42.5137183" lon="11.611075"><ele>126.0</ele><time>2026-04-18T10:31:26.76Z</time></trkpt><trkpt lat="42.513645" lon="11.611155"><ele>126.6</ele><time>2026-04-18T10:31:27.76Z</time></trkpt><trkpt lat="42.5135767" lon="11.6112417"><ele>127.19999999999999</ele><time>2026-04-18T10:31:28.76Z</time></trkpt><trkpt lat="42.5135067" lon="11.6113517"><ele>127.80000000000001</ele><time>2026-04-18T10:31:29.76Z</time></trkpt><trkpt lat="42.513445" lon="11.611485"><ele>128.4</ele><time>2026-04-18T10:31:30.76Z</time></trkpt><trkpt lat="42.5133767" lon="11.611625"><ele>129.0</ele><time>2026-04-18T10:31:31.76Z</time></trkpt><trkpt lat="42.5133033" lon="11.61176"><ele>129.0</ele><time>2026-04-18T10:31:32.76Z</time></trkpt><trkpt lat="42.51323" lon="11.61189"><ele>129.0</ele><time>2026-04-18T10:31:33.76Z</time></trkpt><trkpt lat="42.5131583" lon="11.6120183"><ele>129.0</ele><time>2026-04-18T10:31:34.759Z</time></trkpt><trkpt lat="42.5130933" lon="11.6121317"><ele>129.0</ele><time>2026-04-18T10:31:35.76Z</time></trkpt><trkpt lat="42.5130267" lon="11.6122383"><ele>129.0</ele><time>2026-04-18T10:31:36.76Z</time></trkpt><trkpt lat="42.51295" lon="11.6123433"><ele>128.6</ele><time>2026-04-18T10:31:37.76Z</time></trkpt><trkpt lat="42.5128733" lon="11.6124383"><ele>128.2</ele><time>2026-04-18T10:31:38.76Z</time></trkpt><trkpt lat="42.5128017" lon="11.6125183"><ele>127.79999999999998</ele><time>2026-04-18T10:31:39.76Z</time></trkpt><trkpt lat="42.5127167" lon="11.6125833"><ele>127.39999999999999</ele><time>2026-04-18T10:31:40.76Z</time></trkpt><trkpt lat="42.512635" lon="11.6126333"><ele>127.0</ele><time>2026-04-18T10:31:41.76Z</time></trkpt><trkpt lat="42.5125517" lon="11.6126683"><ele>127.0</ele><time>2026-04-18T10:31:42.76Z</time></trkpt><trkpt lat="42.5124667" lon="11.6126833"><ele>126.99999999999999</ele><time>2026-04-18T10:31:43.76Z</time></trkpt><trkpt lat="42.512385" lon="11.612675"><ele>126.99999999999999</ele><time>2026-04-18T10:31:44.76Z</time></trkpt><trkpt lat="42.5123" lon="11.6126517"><ele>127.0</ele><time>2026-04-18T10:31:45.76Z</time></trkpt><trkpt lat="42.512215" lon="11.6126"><ele>127.0</ele><time>2026-04-18T10:31:46.76Z</time></trkpt><trkpt lat="42.5121133" lon="11.6125367"><ele>127.19999999999999</ele><time>2026-04-18T10:31:47.76Z</time></trkpt><trkpt lat="42.512015" lon="11.612475"><ele>127.39999999999999</ele><time>2026-04-18T10:31:48.76Z</time></trkpt><trkpt lat="42.511925" lon="11.612425"><ele>127.60000000000001</ele><time>2026-04-18T10:31:49.76Z</time></trkpt><trkpt lat="42.51184" lon="11.6123983"><ele>127.80000000000001</ele><time>2026-04-18T10:31:50.76Z</time></trkpt><trkpt lat="42.51176" lon="11.6123983"><ele>128.0</ele><time>2026-04-18T10:31:51.76Z</time></trkpt><trkpt lat="42.5116817" lon="11.6124117"><ele>128.0</ele><time>2026-04-18T10:31:52.759Z</time></trkpt><trkpt lat="42.5116117" lon="11.61245"><ele>128.0</ele><time>2026-04-18T10:31:53.76Z</time></trkpt><trkpt lat="42.5115367" lon="11.6125083"><ele>128.0</ele><time>2026-04-18T10:31:54.76Z</time></trkpt><trkpt lat="42.51146" lon="11.6125683"><ele>128.0</ele><time>2026-04-18T10:31:55.76Z</time></trkpt><trkpt lat="42.5113783" lon="11.6126483"><ele>128.0</ele><time>2026-04-18T10:31:56.76Z</time></trkpt><trkpt lat="42.5112883" lon="11.6127317"><ele>127.25</ele><time>2026-04-18T10:31:57.76Z</time></trkpt><trkpt lat="42.5111917" lon="11.6128133"><ele>126.5</ele><time>2026-04-18T10:31:58.76Z</time></trkpt><trkpt lat="42.5110883" lon="11.6128933"><ele>125.75</ele><time>2026-04-18T10:31:59.76Z</time></trkpt><trkpt lat="42.5109767" lon="11.6129683"><ele>125.0</ele><time>2026-04-18T10:32:00.76Z</time></trkpt><trkpt lat="42.5108567" lon="11.6130433"><ele>125.0</ele><time>2026-04-18T10:32:01.759Z</time></trkpt><trkpt lat="42.5107317" lon="11.6131183"><ele>125.0</ele><time>2026-04-18T10:32:02.76Z</time></trkpt><trkpt lat="42.5106083" lon="11.6131767"><ele>125.0</ele><time>2026-04-18T10:32:03.76Z</time></trkpt><trkpt lat="42.5104883" lon="11.6132267"><ele>125.0</ele><time>2026-04-18T10:32:04.76Z</time></trkpt><trkpt lat="42.5103833" lon="11.6132733"><ele>125.2</ele><time>2026-04-18T10:32:05.76Z</time></trkpt><trkpt lat="42.510285" lon="11.6133033"><ele>125.4</ele><time>2026-04-18T10:32:06.76Z</time></trkpt><trkpt lat="42.510195" lon="11.6132967"><ele>125.6</ele><time>2026-04-18T10:32:07.759Z</time></trkpt><trkpt lat="42.510105" lon="11.613285"><ele>125.8</ele><time>2026-04-18T10:32:08.76Z</time></trkpt><trkpt lat="42.5100233" lon="11.6132417"><ele>126.0</ele><time>2026-04-18T10:32:09.76Z</time></trkpt><trkpt lat="42.5099317" lon="11.6131867"><ele>126.0</ele><time>2026-04-18T10:32:10.76Z</time></trkpt><trkpt lat="42.509845" lon="11.6131033"><ele>126.0</ele><time>2026-04-18T10:32:11.76Z</time></trkpt><trkpt lat="42.5097633" lon="11.61302"><ele>126.0</ele><time>2026-04-18T10:32:12.76Z</time></trkpt><trkpt lat="42.5096717" lon="11.6129317"><ele>126.0</ele><time>2026-04-18T10:32:13.76Z</time></trkpt><trkpt lat="42.5095733" lon="11.6128333"><ele>126.0</ele><time>2026-04-18T10:32:14.76Z</time></trkpt><trkpt lat="42.5094683" lon="11.612745"><ele>130.0</ele><time>2026-04-18T10:32:15.76Z</time></trkpt><trkpt lat="42.5093567" lon="11.6126633"><ele>134.0</ele><time>2026-04-18T10:32:16.76Z</time></trkpt><trkpt lat="42.50923" lon="11.6125817"><ele>138.0</ele><time>2026-04-18T10:32:17.76Z</time></trkpt><trkpt lat="42.5091" lon="11.6124967"><ele>142.0</ele><time>2026-04-18T10:32:18.76Z</time></trkpt><trkpt lat="42.5089617" lon="11.6124017"><ele>142.0</ele><time>2026-04-18T10:32:19.76Z</time></trkpt><trkpt lat="42.5088067" lon="11.6122967"><ele>142.0</ele><time>2026-04-18T10:32:20.76Z</time></trkpt><trkpt lat="42.5086583" lon="11.6122017"><ele>142.0</ele><time>2026-04-18T10:32:21.76Z</time></trkpt><trkpt lat="42.5085283" lon="11.61211"><ele>140.5</ele><time>2026-04-18T10:32:22.76Z</time></trkpt><trkpt lat="42.508405" lon="11.6120183"><ele>139.0</ele><time>2026-04-18T10:32:23.76Z</time></trkpt><trkpt lat="42.50829" lon="11.6119267"><ele>137.5</ele><time>2026-04-18T10:32:24.759Z</time></trkpt><trkpt lat="42.5081983" lon="11.61183"><ele>136.0</ele><time>2026-04-18T10:32:25.76Z</time></trkpt><trkpt lat="42.5081067" lon="11.6117217"><ele>138.75</ele><time>2026-04-18T10:32:26.76Z</time></trkpt><trkpt lat="42.5080167" lon="11.6116017"><ele>141.5</ele><time>2026-04-18T10:32:27.759Z</time></trkpt><trkpt lat="42.5079217" lon="11.6114767"><ele>144.25</ele><time>2026-04-18T10:32:28.76Z</time></trkpt><trkpt lat="42.5078233" lon="11.6113483"><ele>147.0</ele><time>2026-04-18T10:32:29.76Z</time></trkpt><trkpt lat="42.5077317" lon="11.611215"><ele>147.25</ele><time>2026-04-18T10:32:30.76Z</time></trkpt><trkpt lat="42.5076533" lon="11.611075"><ele>147.5</ele><time>2026-04-18T10:32:31.76Z</time></trkpt><trkpt lat="42.50757" lon="11.6109233"><ele>147.75</ele><time>2026-04-18T10:32:32.76Z</time></trkpt><trkpt lat="42.5074983" lon="11.6107767"><ele>148.0</ele><time>2026-04-18T10:32:33.76Z</time></trkpt><trkpt lat="42.5074067" lon="11.6106133"><ele>148.0</ele><time>2026-04-18T10:32:34.76Z</time></trkpt><trkpt lat="42.5073267" lon="11.6104617"><ele>148.0</ele><time>2026-04-18T10:32:35.76Z</time></trkpt><trkpt lat="42.5072483" lon="11.6103317"><ele>148.0</ele><time>2026-04-18T10:32:36.76Z</time></trkpt><trkpt lat="42.5071933" lon="11.6102183"><ele>148.0</ele><time>2026-04-18T10:32:37.76Z</time></trkpt><trkpt lat="42.5071367" lon="11.6101267"><ele>148.0</ele><time>2026-04-18T10:32:38.76Z</time></trkpt><trkpt lat="42.5070883" lon="11.6100383"><ele>147.66666666666669</ele><time>2026-04-18T10:32:39.76Z</time></trkpt><trkpt lat="42.50704" lon="11.609945"><ele>147.33333333333334</ele><time>2026-04-18T10:32:40.76Z</time></trkpt><trkpt lat="42.5069917" lon="11.6098433"><ele>147.0</ele><time>2026-04-18T10:32:41.76Z</time></trkpt><trkpt lat="42.5069467" lon="11.6097317"><ele>146.66666666666666</ele><time>2026-04-18T10:32:42.76Z</time></trkpt><trkpt lat="42.50689" lon="11.609635"><ele>146.33333333333331</ele><time>2026-04-18T10:32:43.76Z</time></trkpt><trkpt lat="42.5068267" lon="11.6095633"><ele>146.0</ele><time>2026-04-18T10:32:44.76Z</time></trkpt><trkpt lat="42.5067567" lon="11.6095183"><ele>146.0</ele><time>2026-04-18T10:32:45.76Z</time></trkpt><trkpt lat="42.5066817" lon="11.6094967"><ele>146.0</ele><time>2026-04-18T10:32:46.76Z</time></trkpt><trkpt lat="42.5066033" lon="11.6094783"><ele>146.0</ele><time>2026-04-18T10:32:47.76Z</time></trkpt><trkpt lat="42.5065183" lon="11.609455"><ele>146.0</ele><time>2026-04-18T10:32:48.76Z</time></trkpt><trkpt lat="42.5064417" lon="11.609425"><ele>146.0</ele><time>2026-04-18T10:32:49.76Z</time></trkpt><trkpt lat="42.5063683" lon="11.6093933"><ele>146.0</ele><time>2026-04-18T10:32:50.76Z</time></trkpt><trkpt lat="42.506295" lon="11.6093583"><ele>149.4</ele><time>2026-04-18T10:32:51.76Z</time></trkpt><trkpt lat="42.5062283" lon="11.60932"><ele>152.8</ele><time>2026-04-18T10:32:52.76Z</time></trkpt><trkpt lat="42.5061217" lon="11.6092683"><ele>156.20000000000002</ele><time>2026-04-18T10:32:54.76Z</time></trkpt><trkpt lat="42.5060117" lon="11.6092833"><ele>159.6</ele><time>2026-04-18T10:32:56.76Z</time></trkpt><trkpt lat="42.5059367" lon="11.6093683"><ele>163.0</ele><time>2026-04-18T10:32:58.76Z</time></trkpt><trkpt lat="42.5059067" lon="11.6095083"><ele>163.0</ele><time>2026-04-18T10:33:00.76Z</time></trkpt><trkpt lat="42.5059" lon="11.6095983"><ele>163.0</ele><time>2026-04-18T10:33:01.76Z</time></trkpt><trkpt lat="42.5059067" lon="11.6097"><ele>163.0</ele><time>2026-04-18T10:33:02.76Z</time></trkpt><trkpt lat="42.5059333" lon="11.609815"><ele>163.0</ele><time>2026-04-18T10:33:03.76Z</time></trkpt><trkpt lat="42.505965" lon="11.6099533"><ele>163.0</ele><time>2026-04-18T10:33:04.76Z</time></trkpt><trkpt lat="42.5060183" lon="11.610105"><ele>163.0</ele><time>2026-04-18T10:33:05.76Z</time></trkpt><trkpt lat="42.5060883" lon="11.6102683"><ele>163.0</ele><time>2026-04-18T10:33:06.76Z</time></trkpt><trkpt lat="42.5061483" lon="11.6104083"><ele>163.0</ele><time>2026-04-18T10:33:07.76Z</time></trkpt><trkpt lat="42.5062067" lon="11.6105433"><ele>163.0</ele><time>2026-04-18T10:33:08.759Z</time></trkpt><trkpt lat="42.5062583" lon="11.6106767"><ele>164.8</ele><time>2026-04-18T10:33:09.76Z</time></trkpt><trkpt lat="42.5063217" lon="11.6107967"><ele>166.60000000000002</ele><time>2026-04-18T10:33:10.76Z</time></trkpt><trkpt lat="42.5063883" lon="11.6109117"><ele>168.39999999999998</ele><time>2026-04-18T10:33:11.76Z</time></trkpt><trkpt lat="42.50647" lon="11.611025"><ele>170.2</ele><time>2026-04-18T10:33:12.76Z</time></trkpt><trkpt lat="42.5065567" lon="11.6111267"><ele>172.0</ele><time>2026-04-18T10:33:13.76Z</time></trkpt><trkpt lat="42.5066383" lon="11.61123"><ele>172.0</ele><time>2026-04-18T10:33:14.76Z</time></trkpt><trkpt lat="42.5067167" lon="11.6113367"><ele>172.0</ele><time>2026-04-18T10:33:15.759Z</time></trkpt><trkpt lat="42.50678" lon="11.6114483"><ele>172.0</ele><time>2026-04-18T10:33:16.76Z</time></trkpt><trkpt lat="42.50683" lon="11.6115683"><ele>172.0</ele><time>2026-04-18T10:33:17.76Z</time></trkpt><trkpt lat="42.5068817" lon="11.6117067"><ele>172.0</ele><time>2026-04-18T10:33:18.76Z</time></trkpt><trkpt lat="42.5069333" lon="11.6118217"><ele>172.0</ele><time>2026-04-18T10:33:19.76Z</time></trkpt><trkpt lat="42.5069767" lon="11.6119533"><ele>172.0</ele><time>2026-04-18T10:33:20.76Z</time></trkpt><trkpt lat="42.50701" lon="11.6120717"><ele>172.0</ele><time>2026-04-18T10:33:21.76Z</time></trkpt><trkpt lat="42.50704" lon="11.612195"><ele>172.0</ele><time>2026-04-18T10:33:22.76Z</time></trkpt><trkpt lat="42.50706" lon="11.6123083"><ele>172.0</ele><time>2026-04-18T10:33:23.76Z</time></trkpt><trkpt lat="42.5070717" lon="11.6124183"><ele>174.0</ele><time>2026-04-18T10:33:24.76Z</time></trkpt><trkpt lat="42.5070717" lon="11.6125333"><ele>176.0</ele><time>2026-04-18T10:33:25.76Z</time></trkpt><trkpt lat="42.5070617" lon="11.612625"><ele>178.0</ele><time>2026-04-18T10:33:26.76Z</time></trkpt><trkpt lat="42.5070167" lon="11.612765"><ele>180.0</ele><time>2026-04-18T10:33:28.76Z</time></trkpt><trkpt lat="42.5069283" lon="11.6129"><ele>182.0</ele><time>2026-04-18T10:33:30.76Z</time></trkpt><trkpt lat="42.5068683" lon="11.6129567"><ele>182.66666666666666</ele><time>2026-04-18T10:33:31.76Z</time></trkpt><trkpt lat="42.5067983" lon="11.613"><ele>183.33333333333331</ele><time>2026-04-18T10:33:32.76Z</time></trkpt><trkpt lat="42.506725" lon="11.61303"><ele>184.0</ele><time>2026-04-18T10:33:33.76Z</time></trkpt><trkpt lat="42.5066417" lon="11.6130583"><ele>184.66666666666666</ele><time>2026-04-18T10:33:34.76Z</time></trkpt><trkpt lat="42.5065467" lon="11.6130917"><ele>185.33333333333334</ele><time>2026-04-18T10:33:35.76Z</time></trkpt><trkpt lat="42.5064483" lon="11.6131167"><ele>186.0</ele><time>2026-04-18T10:33:36.76Z</time></trkpt><trkpt lat="42.50635" lon="11.6131383"><ele>186.0</ele><time>2026-04-18T10:33:37.76Z</time></trkpt><trkpt lat="42.5062517" lon="11.6131633"><ele>186.0</ele><time>2026-04-18T10:33:38.759Z</time></trkpt><trkpt lat="42.5061633" lon="11.613205"><ele>186.0</ele><time>2026-04-18T10:33:39.759Z</time></trkpt><trkpt lat="42.5060683" lon="11.6132583"><ele>186.0</ele><time>2026-04-18T10:33:40.76Z</time></trkpt><trkpt lat="42.5059717" lon="11.6133233"><ele>186.0</ele><time>2026-04-18T10:33:41.76Z</time></trkpt><trkpt lat="42.5058683" lon="11.61341"><ele>185.75</ele><time>2026-04-18T10:33:42.76Z</time></trkpt><trkpt lat="42.505765" lon="11.6135167"><ele>185.5</ele><time>2026-04-18T10:33:43.76Z</time></trkpt><trkpt lat="42.5056817" lon="11.6136233"><ele>185.25</ele><time>2026-04-18T10:33:44.76Z</time></trkpt><trkpt lat="42.5055917" lon="11.6137133"><ele>185.0</ele><time>2026-04-18T10:33:45.76Z</time></trkpt><trkpt lat="42.5054883" lon="11.61381"><ele>183.75</ele><time>2026-04-18T10:33:46.76Z</time></trkpt><trkpt lat="42.505355" lon="11.6139033"><ele>182.5</ele><time>2026-04-18T10:33:47.76Z</time></trkpt><trkpt lat="42.505235" lon="11.6139967"><ele>181.25</ele><time>2026-04-18T10:33:48.76Z</time></trkpt><trkpt lat="42.5051183" lon="11.614085"><ele>180.0</ele><time>2026-04-18T10:33:49.76Z</time></trkpt><trkpt lat="42.5050067" lon="11.6141717"><ele>180.0</ele><time>2026-04-18T10:33:50.76Z</time></trkpt><trkpt lat="42.504885" lon="11.614255"><ele>180.0</ele><time>2026-04-18T10:33:51.76Z</time></trkpt><trkpt lat="42.5047683" lon="11.614345"><ele>180.0</ele><time>2026-04-18T10:33:52.76Z</time></trkpt><trkpt lat="42.50464" lon="11.614435"><ele>180.0</ele><time>2026-04-18T10:33:53.76Z</time></trkpt><trkpt lat="42.5045083" lon="11.614535"><ele>178.75</ele><time>2026-04-18T10:33:54.76Z</time></trkpt><trkpt lat="42.50438" lon="11.6146383"><ele>177.5</ele><time>2026-04-18T10:33:55.76Z</time></trkpt><trkpt lat="42.5042667" lon="11.6147433"><ele>176.25</ele><time>2026-04-18T10:33:56.76Z</time></trkpt><trkpt lat="42.504155" lon="11.6148283"><ele>175.0</ele><time>2026-04-18T10:33:57.76Z</time></trkpt><trkpt lat="42.5040483" lon="11.6149117"><ele>175.0</ele><time>2026-04-18T10:33:58.76Z</time></trkpt><trkpt lat="42.5039433" lon="11.6149917"><ele>175.0</ele><time>2026-04-18T10:33:59.76Z</time></trkpt><trkpt lat="42.50384" lon="11.6150733"><ele>175.0</ele><time>2026-04-18T10:34:00.76Z</time></trkpt><trkpt lat="42.503725" lon="11.61515"><ele>175.0</ele><time>2026-04-18T10:34:01.76Z</time></trkpt><trkpt lat="42.5036" lon="11.6152433"><ele>174.75</ele><time>2026-04-18T10:34:02.76Z</time></trkpt><trkpt lat="42.5034817" lon="11.6153167"><ele>174.5</ele><time>2026-04-18T10:34:03.76Z</time></trkpt><trkpt lat="42.5033733" lon="11.6154"><ele>174.25</ele><time>2026-04-18T10:34:04.76Z</time></trkpt><trkpt lat="42.503265" lon="11.6154833"><ele>174.0</ele><time>2026-04-18T10:34:05.759Z</time></trkpt><trkpt lat="42.5031517" lon="11.615565"><ele>173.5</ele><time>2026-04-18T10:34:06.76Z</time></trkpt><trkpt lat="42.5030483" lon="11.6156467"><ele>173.0</ele><time>2026-04-18T10:34:07.76Z</time></trkpt><trkpt lat="42.5029433" lon="11.6157333"><ele>172.5</ele><time>2026-04-18T10:34:08.76Z</time></trkpt><trkpt lat="42.50284" lon="11.6158283"><ele>172.0</ele><time>2026-04-18T10:34:09.76Z</time></trkpt><trkpt lat="42.502735" lon="11.6159267"><ele>172.0</ele><time>2026-04-18T10:34:10.76Z</time></trkpt><trkpt lat="42.5026333" lon="11.6160183"><ele>172.0</ele><time>2026-04-18T10:34:11.76Z</time></trkpt><trkpt lat="42.5025417" lon="11.61611"><ele>172.0</ele><time>2026-04-18T10:34:12.76Z</time></trkpt><trkpt lat="42.50245" lon="11.6161933"><ele>172.0</ele><time>2026-04-18T10:34:13.76Z</time></trkpt><trkpt lat="42.502365" lon="11.61627"><ele>172.0</ele><time>2026-04-18T10:34:14.76Z</time></trkpt><trkpt lat="42.50227" lon="11.616345"><ele>172.0</ele><time>2026-04-18T10:34:15.759Z</time></trkpt><trkpt lat="42.50218" lon="11.616415"><ele>172.0</ele><time>2026-04-18T10:34:16.76Z</time></trkpt><trkpt lat="42.5020783" lon="11.6164917"><ele>172.0</ele><time>2026-04-18T10:34:17.76Z</time></trkpt><trkpt lat="42.501965" lon="11.61656"><ele>172.0</ele><time>2026-04-18T10:34:18.759Z</time></trkpt><trkpt lat="42.5018467" lon="11.6166217"><ele>172.0</ele><time>2026-04-18T10:34:19.76Z</time></trkpt><trkpt lat="42.50172" lon="11.6166767"><ele>172.0</ele><time>2026-04-18T10:34:20.76Z</time></trkpt><trkpt lat="42.5016033" lon="11.6167183"><ele>172.0</ele><time>2026-04-18T10:34:21.76Z</time></trkpt><trkpt lat="42.5014967" lon="11.6167633"><ele>172.0</ele><time>2026-04-18T10:34:22.76Z</time></trkpt><trkpt lat="42.5013983" lon="11.6168017"><ele>172.0</ele><time>2026-04-18T10:34:23.76Z</time></trkpt><trkpt lat="42.5012967" lon="11.6168333"><ele>172.0</ele><time>2026-04-18T10:34:24.759Z</time></trkpt><trkpt lat="42.5012" lon="11.6168683"><ele>172.0</ele><time>2026-04-18T10:34:25.76Z</time></trkpt><trkpt lat="42.5011017" lon="11.6168817"><ele>172.0</ele><time>2026-04-18T10:34:26.76Z</time></trkpt><trkpt lat="42.5009917" lon="11.61689"><ele>172.0</ele><time>2026-04-18T10:34:27.76Z</time></trkpt><trkpt lat="42.50088" lon="11.616895"><ele>171.5</ele><time>2026-04-18T10:34:28.76Z</time></trkpt><trkpt lat="42.5007583" lon="11.6168933"><ele>171.0</ele><time>2026-04-18T10:34:29.76Z</time></trkpt><trkpt lat="42.500635" lon="11.6168917"><ele>170.5</ele><time>2026-04-18T10:34:30.76Z</time></trkpt><trkpt lat="42.5005083" lon="11.616885"><ele>170.0</ele><time>2026-04-18T10:34:31.76Z</time></trkpt><trkpt lat="42.5003917" lon="11.616875"><ele>169.4</ele><time>2026-04-18T10:34:32.76Z</time></trkpt><trkpt lat="42.500275" lon="11.6168633"><ele>168.8</ele><time>2026-04-18T10:34:33.76Z</time></trkpt><trkpt lat="42.50016" lon="11.6168483"><ele>168.2</ele><time>2026-04-18T10:34:34.76Z</time></trkpt><trkpt lat="42.50005" lon="11.6168517"><ele>167.6</ele><time>2026-04-18T10:34:35.76Z</time></trkpt><trkpt lat="42.49995" lon="11.6168583"><ele>167.0</ele><time>2026-04-18T10:34:36.76Z</time></trkpt><trkpt lat="42.4998567" lon="11.6168683"><ele>167.0</ele><time>2026-04-18T10:34:37.76Z</time></trkpt><trkpt lat="42.4997667" lon="11.6168717"><ele>167.0</ele><time>2026-04-18T10:34:38.76Z</time></trkpt><trkpt lat="42.4996733" lon="11.6168667"><ele>167.0</ele><time>2026-04-18T10:34:39.76Z</time></trkpt><trkpt lat="42.4995817" lon="11.6168533"><ele>167.0</ele><time>2026-04-18T10:34:40.76Z</time></trkpt><trkpt lat="42.4994917" lon="11.616845"><ele>167.0</ele><time>2026-04-18T10:34:41.76Z</time></trkpt><trkpt lat="42.4993917" lon="11.616835"><ele>166.6</ele><time>2026-04-18T10:34:42.759Z</time></trkpt><trkpt lat="42.4992983" lon="11.61683"><ele>166.2</ele><time>2026-04-18T10:34:43.76Z</time></trkpt><trkpt lat="42.4992033" lon="11.6168283"><ele>165.8</ele><time>2026-04-18T10:34:44.76Z</time></trkpt><trkpt lat="42.4991067" lon="11.6168233"><ele>165.4</ele><time>2026-04-18T10:34:45.76Z</time></trkpt><trkpt lat="42.49901" lon="11.616815"><ele>165.0</ele><time>2026-04-18T10:34:46.76Z</time></trkpt><trkpt lat="42.4989083" lon="11.6167933"><ele>165.0</ele><time>2026-04-18T10:34:47.76Z</time></trkpt><trkpt lat="42.498815" lon="11.61677"><ele>165.0</ele><time>2026-04-18T10:34:48.76Z</time></trkpt><trkpt lat="42.4987217" lon="11.6167517"><ele>165.0</ele><time>2026-04-18T10:34:49.76Z</time></trkpt><trkpt lat="42.49862" lon="11.6167317"><ele>165.0</ele><time>2026-04-18T10:34:50.76Z</time></trkpt><trkpt lat="42.49851" lon="11.61671"><ele>165.0</ele><time>2026-04-18T10:34:51.76Z</time></trkpt><trkpt lat="42.4983983" lon="11.6167017"><ele>164.2</ele><time>2026-04-18T10:34:52.76Z</time></trkpt><trkpt lat="42.498295" lon="11.6166833"><ele>163.4</ele><time>2026-04-18T10:34:53.76Z</time></trkpt><trkpt lat="42.498195" lon="11.6166683"><ele>162.60000000000002</ele><time>2026-04-18T10:34:54.76Z</time></trkpt><trkpt lat="42.4981" lon="11.616665"><ele>161.8</ele><time>2026-04-18T10:34:55.76Z</time></trkpt><trkpt lat="42.4980033" lon="11.6166783"><ele>161.0</ele><time>2026-04-18T10:34:56.76Z</time></trkpt><trkpt lat="42.4978967" lon="11.616685"><ele>161.0</ele><time>2026-04-18T10:34:57.76Z</time></trkpt><trkpt lat="42.4977883" lon="11.6166833"><ele>161.0</ele><time>2026-04-18T10:34:58.76Z</time></trkpt><trkpt lat="42.497675" lon="11.616675"><ele>161.0</ele><time>2026-04-18T10:34:59.76Z</time></trkpt><trkpt lat="42.4975533" lon="11.616665"><ele>161.0</ele><time>2026-04-18T10:35:00.76Z</time></trkpt><trkpt lat="42.4974283" lon="11.616655"><ele>161.0</ele><time>2026-04-18T10:35:01.759Z</time></trkpt><trkpt lat="42.497315" lon="11.616645"><ele>161.0</ele><time>2026-04-18T10:35:02.76Z</time></trkpt><trkpt lat="42.4971883" lon="11.6166417"><ele>161.0</ele><time>2026-04-18T10:35:03.759Z</time></trkpt><trkpt lat="42.4970633" lon="11.6166383"><ele>161.0</ele><time>2026-04-18T10:35:04.76Z</time></trkpt><trkpt lat="42.49694" lon="11.6166333"><ele>157.75</ele><time>2026-04-18T10:35:05.76Z</time></trkpt><trkpt lat="42.496825" lon="11.616625"><ele>154.5</ele><time>2026-04-18T10:35:06.76Z</time></trkpt><trkpt lat="42.4967017" lon="11.616605"><ele>151.25</ele><time>2026-04-18T10:35:07.76Z</time></trkpt><trkpt lat="42.4965683" lon="11.616585"><ele>148.0</ele><time>2026-04-18T10:35:08.76Z</time></trkpt><trkpt lat="42.4964367" lon="11.616565"><ele>148.0</ele><time>2026-04-18T10:35:09.76Z</time></trkpt><trkpt lat="42.4963233" lon="11.6165683"><ele>148.0</ele><time>2026-04-18T10:35:10.76Z</time></trkpt><trkpt lat="42.4962183" lon="11.6165783"><ele>148.0</ele><time>2026-04-18T10:35:11.76Z</time></trkpt><trkpt lat="42.4961067" lon="11.6165967"><ele>148.0</ele><time>2026-04-18T10:35:12.76Z</time></trkpt><trkpt lat="42.4960017" lon="11.616615"><ele>148.0</ele><time>2026-04-18T10:35:13.76Z</time></trkpt><trkpt lat="42.4958933" lon="11.6166383"><ele>147.0</ele><time>2026-04-18T10:35:14.76Z</time></trkpt><trkpt lat="42.49577" lon="11.61669"><ele>146.0</ele><time>2026-04-18T10:35:15.76Z</time></trkpt><trkpt lat="42.4956483" lon="11.6167583"><ele>145.0</ele><time>2026-04-18T10:35:16.76Z</time></trkpt><trkpt lat="42.495535" lon="11.61683"><ele>144.0</ele><time>2026-04-18T10:35:17.76Z</time></trkpt><trkpt lat="42.4954367" lon="11.6168767"><ele>144.2</ele><time>2026-04-18T10:35:18.76Z</time></trkpt><trkpt lat="42.4953333" lon="11.616915"><ele>144.4</ele><time>2026-04-18T10:35:19.76Z</time></trkpt><trkpt lat="42.49524" lon="11.61696"><ele>144.6</ele><time>2026-04-18T10:35:20.76Z</time></trkpt><trkpt lat="42.49514" lon="11.6169967"><ele>144.8</ele><time>2026-04-18T10:35:21.759Z</time></trkpt><trkpt lat="42.495045" lon="11.61701"><ele>145.0</ele><time>2026-04-18T10:35:22.76Z</time></trkpt><trkpt lat="42.4949367" lon="11.6170383"><ele>145.0</ele><time>2026-04-18T10:35:23.76Z</time></trkpt><trkpt lat="42.4948333" lon="11.61706"><ele>145.0</ele><time>2026-04-18T10:35:24.76Z</time></trkpt><trkpt lat="42.4947333" lon="11.6170583"><ele>145.0</ele><time>2026-04-18T10:35:25.76Z</time></trkpt><trkpt lat="42.4946233" lon="11.61706"><ele>145.0</ele><time>2026-04-18T10:35:26.76Z</time></trkpt><trkpt lat="42.49452" lon="11.617045"><ele>145.0</ele><time>2026-04-18T10:35:27.76Z</time></trkpt><trkpt lat="42.4944133" lon="11.617025"><ele>146.6</ele><time>2026-04-18T10:35:28.76Z</time></trkpt><trkpt lat="42.4943" lon="11.6169817"><ele>148.2</ele><time>2026-04-18T10:35:29.76Z</time></trkpt><trkpt lat="42.4941917" lon="11.6169383"><ele>149.8</ele><time>2026-04-18T10:35:30.76Z</time></trkpt><trkpt lat="42.49409" lon="11.6169"><ele>151.4</ele><time>2026-04-18T10:35:31.76Z</time></trkpt><trkpt lat="42.4939883" lon="11.6168483"><ele>153.0</ele><time>2026-04-18T10:35:32.76Z</time></trkpt><trkpt lat="42.4938917" lon="11.6168083"><ele>153.0</ele><time>2026-04-18T10:35:33.76Z</time></trkpt><trkpt lat="42.4937817" lon="11.6167617"><ele>153.0</ele><time>2026-04-18T10:35:34.759Z</time></trkpt><trkpt lat="42.4936667" lon="11.6167117"><ele>153.0</ele><time>2026-04-18T10:35:35.76Z</time></trkpt><trkpt lat="42.4935517" lon="11.6166617"><ele>153.0</ele><time>2026-04-18T10:35:36.76Z</time></trkpt><trkpt lat="42.4934267" lon="11.616625"><ele>151.8</ele><time>2026-04-18T10:35:37.76Z</time></trkpt><trkpt lat="42.4933217" lon="11.6165817"><ele>150.60000000000002</ele><time>2026-04-18T10:35:38.76Z</time></trkpt><trkpt lat="42.4932317" lon="11.6165417"><ele>149.39999999999998</ele><time>2026-04-18T10:35:39.76Z</time></trkpt><trkpt lat="42.4931417" lon="11.6165167"><ele>148.2</ele><time>2026-04-18T10:35:40.76Z</time></trkpt><trkpt lat="42.4930483" lon="11.6165017"><ele>147.0</ele><time>2026-04-18T10:35:41.76Z</time></trkpt><trkpt lat="42.4929533" lon="11.61652"><ele>146.4</ele><time>2026-04-18T10:35:42.76Z</time></trkpt><trkpt lat="42.4928567" lon="11.6165433"><ele>145.79999999999998</ele><time>2026-04-18T10:35:43.76Z</time></trkpt><trkpt lat="42.4927717" lon="11.6165667"><ele>145.2</ele><time>2026-04-18T10:35:44.76Z</time></trkpt><trkpt lat="42.4926817" lon="11.6166017"><ele>144.6</ele><time>2026-04-18T10:35:45.76Z</time></trkpt><trkpt lat="42.4925867" lon="11.6166317"><ele>144.0</ele><time>2026-04-18T10:35:46.76Z</time></trkpt><trkpt lat="42.49249" lon="11.61667"><ele>144.0</ele><time>2026-04-18T10:35:47.76Z</time></trkpt><trkpt lat="42.4923983" lon="11.6166967"><ele>144.0</ele><time>2026-04-18T10:35:48.76Z</time></trkpt><trkpt lat="42.4923167" lon="11.6167117"><ele>144.0</ele><time>2026-04-18T10:35:49.76Z</time></trkpt><trkpt lat="42.4922467" lon="11.6167167"><ele>144.0</ele><time>2026-04-18T10:35:50.76Z</time></trkpt><trkpt lat="42.4921767" lon="11.6167"><ele>144.0</ele><time>2026-04-18T10:35:51.76Z</time></trkpt><trkpt lat="42.4921133" lon="11.6166567"><ele>144.0</ele><time>2026-04-18T10:35:52.76Z</time></trkpt><trkpt lat="42.492055" lon="11.6166033"><ele>142.71428571428572</ele><time>2026-04-18T10:35:53.76Z</time></trkpt><trkpt lat="42.4920033" lon="11.616545"><ele>141.42857142857144</ele><time>2026-04-18T10:35:54.76Z</time></trkpt><trkpt lat="42.4919567" lon="11.6164783"><ele>140.14285714285714</ele><time>2026-04-18T10:35:55.76Z</time></trkpt><trkpt lat="42.4919183" lon="11.6164033"><ele>138.85714285714286</ele><time>2026-04-18T10:35:56.759Z</time></trkpt><trkpt lat="42.4918783" lon="11.616315"><ele>137.57142857142856</ele><time>2026-04-18T10:35:57.76Z</time></trkpt><trkpt lat="42.4918417" lon="11.616225"><ele>136.28571428571428</ele><time>2026-04-18T10:35:58.76Z</time></trkpt><trkpt lat="42.4917983" lon="11.616125"><ele>135.0</ele><time>2026-04-18T10:35:59.76Z</time></trkpt><trkpt lat="42.4917567" lon="11.6160317"><ele>134.66666666666666</ele><time>2026-04-18T10:36:00.76Z</time></trkpt><trkpt lat="42.4917067" lon="11.61593"><ele>134.33333333333334</ele><time>2026-04-18T10:36:01.76Z</time></trkpt><trkpt lat="42.4916617" lon="11.6158433"><ele>134.0</ele><time>2026-04-18T10:36:02.76Z</time></trkpt><trkpt lat="42.491615" lon="11.6157517"><ele>133.66666666666669</ele><time>2026-04-18T10:36:03.76Z</time></trkpt><trkpt lat="42.49156" lon="11.6156633"><ele>133.33333333333334</ele><time>2026-04-18T10:36:04.76Z</time></trkpt><trkpt lat="42.491505" lon="11.61557"><ele>133.0</ele><time>2026-04-18T10:36:05.76Z</time></trkpt><trkpt lat="42.491455" lon="11.6154817"><ele>133.0</ele><time>2026-04-18T10:36:06.76Z</time></trkpt><trkpt lat="42.4914" lon="11.6154017"><ele>133.0</ele><time>2026-04-18T10:36:07.76Z</time></trkpt><trkpt lat="42.491355" lon="11.61533"><ele>133.0</ele><time>2026-04-18T10:36:08.759Z</time></trkpt><trkpt lat="42.49131" lon="11.61526"><ele>133.0</ele><time>2026-04-18T10:36:09.76Z</time></trkpt><trkpt lat="42.4912667" lon="11.615185"><ele>133.0</ele><time>2026-04-18T10:36:10.759Z</time></trkpt><trkpt lat="42.4912183" lon="11.615095"><ele>133.0</ele><time>2026-04-18T10:36:11.76Z</time></trkpt><trkpt lat="42.49117" lon="11.6150033"><ele>131.33333333333334</ele><time>2026-04-18T10:36:12.76Z</time></trkpt><trkpt lat="42.4911217" lon="11.6149033"><ele>129.66666666666669</ele><time>2026-04-18T10:36:13.76Z</time></trkpt><trkpt lat="42.4910767" lon="11.6147983"><ele>128.0</ele><time>2026-04-18T10:36:14.76Z</time></trkpt><trkpt lat="42.4910317" lon="11.6146917"><ele>126.33333333333334</ele><time>2026-04-18T10:36:15.76Z</time></trkpt><trkpt lat="42.4909917" lon="11.614585"><ele>124.66666666666667</ele><time>2026-04-18T10:36:16.76Z</time></trkpt><trkpt lat="42.4909367" lon="11.6144883"><ele>123.0</ele><time>2026-04-18T10:36:17.76Z</time></trkpt><trkpt lat="42.4908867" lon="11.6143817"><ele>123.0</ele><time>2026-04-18T10:36:18.76Z</time></trkpt><trkpt lat="42.4908283" lon="11.61425"><ele>123.00000000000001</ele><time>2026-04-18T10:36:19.76Z</time></trkpt><trkpt lat="42.490765" lon="11.61411"><ele>123.00000000000001</ele><time>2026-04-18T10:36:20.759Z</time></trkpt><trkpt lat="42.4907083" lon="11.6139817"><ele>123.0</ele><time>2026-04-18T10:36:21.759Z</time></trkpt><trkpt lat="42.4906633" lon="11.6138583"><ele>123.0</ele><time>2026-04-18T10:36:22.76Z</time></trkpt><trkpt lat="42.49062" lon="11.6137483"><ele>123.0</ele><time>2026-04-18T10:36:23.76Z</time></trkpt><trkpt lat="42.4905817" lon="11.6136567"><ele>123.0</ele><time>2026-04-18T10:36:24.76Z</time></trkpt><trkpt lat="42.490545" lon="11.613585"><ele>123.0</ele><time>2026-04-18T10:36:25.76Z</time></trkpt><trkpt lat="42.4904667" lon="11.6134667"><ele>123.0</ele><time>2026-04-18T10:36:27.76Z</time></trkpt><trkpt lat="42.4903833" lon="11.6134033"><ele>123.0</ele><time>2026-04-18T10:36:29.76Z</time></trkpt><trkpt lat="42.49032" lon="11.61339"><ele>123.0</ele><time>2026-04-18T10:36:30.76Z</time></trkpt><trkpt lat="42.4901933" lon="11.6134117"><ele>122.5</ele><time>2026-04-18T10:36:32.76Z</time></trkpt><trkpt lat="42.49012" lon="11.613445"><ele>122.0</ele><time>2026-04-18T10:36:33.76Z</time></trkpt><trkpt lat="42.4900467" lon="11.6134867"><ele>121.5</ele><time>2026-04-18T10:36:34.76Z</time></trkpt><trkpt lat="42.4899867" lon="11.613545"><ele>121.0</ele><time>2026-04-18T10:36:35.76Z</time></trkpt><trkpt lat="42.4899233" lon="11.6136317"><ele>120.5</ele><time>2026-04-18T10:36:36.76Z</time></trkpt><trkpt lat="42.489865" lon="11.61373"><ele>120.0</ele><time>2026-04-18T10:36:37.759Z</time></trkpt><trkpt lat="42.4898167" lon="11.6138233"><ele>118.6</ele><time>2026-04-18T10:36:38.76Z</time></trkpt><trkpt lat="42.489755" lon="11.6139167"><ele>117.2</ele><time>2026-04-18T10:36:39.76Z</time></trkpt><trkpt lat="42.4896933" lon="11.61399"><ele>115.80000000000001</ele><time>2026-04-18T10:36:40.76Z</time></trkpt><trkpt lat="42.4896133" lon="11.6140567"><ele>114.4</ele><time>2026-04-18T10:36:41.76Z</time></trkpt><trkpt lat="42.4895217" lon="11.6141233"><ele>113.0</ele><time>2026-04-18T10:36:42.76Z</time></trkpt><trkpt lat="42.4894133" lon="11.6141833"><ele>113.0</ele><time>2026-04-18T10:36:43.76Z</time></trkpt><trkpt lat="42.4893" lon="11.6142433"><ele>113.0</ele><time>2026-04-18T10:36:44.76Z</time></trkpt><trkpt lat="42.4891867" lon="11.6143183"><ele>113.0</ele><time>2026-04-18T10:36:45.759Z</time></trkpt><trkpt lat="42.48909" lon="11.6143867"><ele>113.0</ele><time>2026-04-18T10:36:46.76Z</time></trkpt><trkpt lat="42.4890033" lon="11.6144367"><ele>113.0</ele><time>2026-04-18T10:36:47.76Z</time></trkpt><trkpt lat="42.4889217" lon="11.6144767"><ele>113.00000000000001</ele><time>2026-04-18T10:36:48.76Z</time></trkpt><trkpt lat="42.488845" lon="11.6145217"><ele>113.00000000000001</ele><time>2026-04-18T10:36:49.76Z</time></trkpt><trkpt lat="42.4887667" lon="11.61457"><ele>113.0</ele><time>2026-04-18T10:36:50.76Z</time></trkpt><trkpt lat="42.4886817" lon="11.6146417"><ele>113.0</ele><time>2026-04-18T10:36:51.76Z</time></trkpt><trkpt lat="42.4886" lon="11.614715"><ele>112.80000000000001</ele><time>2026-04-18T10:36:52.76Z</time></trkpt><trkpt lat="42.4885233" lon="11.6148083"><ele>112.60000000000001</ele><time>2026-04-18T10:36:53.76Z</time></trkpt><trkpt lat="42.4884383" lon="11.6148833"><ele>112.39999999999999</ele><time>2026-04-18T10:36:54.759Z</time></trkpt><trkpt lat="42.4883517" lon="11.614945"><ele>112.19999999999999</ele><time>2026-04-18T10:36:55.76Z</time></trkpt><trkpt lat="42.4882533" lon="11.614965"><ele>112.0</ele><time>2026-04-18T10:36:56.76Z</time></trkpt><trkpt lat="42.48816" lon="11.6149683"><ele>112.0</ele><time>2026-04-18T10:36:57.76Z</time></trkpt><trkpt lat="42.4880633" lon="11.6149367"><ele>111.99999999999999</ele><time>2026-04-18T10:36:58.76Z</time></trkpt><trkpt lat="42.48797" lon="11.61488"><ele>111.99999999999999</ele><time>2026-04-18T10:36:59.76Z</time></trkpt><trkpt lat="42.4878833" lon="11.614815"><ele>112.0</ele><time>2026-04-18T10:37:00.76Z</time></trkpt><trkpt lat="42.4878067" lon="11.6147417"><ele>112.0</ele><time>2026-04-18T10:37:01.76Z</time></trkpt><trkpt lat="42.4877317" lon="11.61467"><ele>111.50000000000001</ele><time>2026-04-18T10:37:02.759Z</time></trkpt><trkpt lat="42.4876717" lon="11.6145767"><ele>111.0</ele><time>2026-04-18T10:37:03.76Z</time></trkpt><trkpt lat="42.4876183" lon="11.6144967"><ele>110.5</ele><time>2026-04-18T10:37:04.76Z</time></trkpt><trkpt lat="42.4875717" lon="11.614415"><ele>110.0</ele><time>2026-04-18T10:37:05.76Z</time></trkpt><trkpt lat="42.48753" lon="11.6143283"><ele>109.50000000000001</ele><time>2026-04-18T10:37:06.76Z</time></trkpt><trkpt lat="42.4874967" lon="11.6142367"><ele>109.0</ele><time>2026-04-18T10:37:07.76Z</time></trkpt><trkpt lat="42.4874717" lon="11.6141483"><ele>110.16666666666667</ele><time>2026-04-18T10:37:08.76Z</time></trkpt><trkpt lat="42.48743" lon="11.61407"><ele>111.33333333333334</ele><time>2026-04-18T10:37:09.76Z</time></trkpt><trkpt lat="42.4873817" lon="11.6139933"><ele>112.5</ele><time>2026-04-18T10:37:10.76Z</time></trkpt><trkpt lat="42.4873217" lon="11.61393"><ele>113.66666666666666</ele><time>2026-04-18T10:37:11.76Z</time></trkpt><trkpt lat="42.4872583" lon="11.61388"><ele>114.83333333333333</ele><time>2026-04-18T10:37:12.76Z</time></trkpt><trkpt lat="42.4871917" lon="11.6138383"><ele>116.0</ele><time>2026-04-18T10:37:13.76Z</time></trkpt><trkpt lat="42.4871217" lon="11.613775"><ele>116.16666666666666</ele><time>2026-04-18T10:37:14.76Z</time></trkpt><trkpt lat="42.4870617" lon="11.6137067"><ele>116.33333333333333</ele><time>2026-04-18T10:37:15.76Z</time></trkpt><trkpt lat="42.4870083" lon="11.6136283"><ele>116.5</ele><time>2026-04-18T10:37:16.76Z</time></trkpt><trkpt lat="42.4869633" lon="11.6135367"><ele>116.66666666666666</ele><time>2026-04-18T10:37:17.76Z</time></trkpt><trkpt lat="42.4869267" lon="11.61344"><ele>116.83333333333333</ele><time>2026-04-18T10:37:18.76Z</time></trkpt><trkpt lat="42.4868883" lon="11.6133317"><ele>117.0</ele><time>2026-04-18T10:37:19.76Z</time></trkpt><trkpt lat="42.48685" lon="11.6132317"><ele>117.0</ele><time>2026-04-18T10:37:20.76Z</time></trkpt><trkpt lat="42.48681" lon="11.6131233"><ele>117.0</ele><time>2026-04-18T10:37:21.76Z</time></trkpt><trkpt lat="42.48677" lon="11.6130083"><ele>117.0</ele><time>2026-04-18T10:37:22.76Z</time></trkpt><trkpt lat="42.4867167" lon="11.612905"><ele>117.0</ele><time>2026-04-18T10:37:23.76Z</time></trkpt><trkpt lat="42.4866617" lon="11.6128033"><ele>117.0</ele><time>2026-04-18T10:37:24.76Z</time></trkpt><trkpt lat="42.4866033" lon="11.61273"><ele>117.0</ele><time>2026-04-18T10:37:25.759Z</time></trkpt><trkpt lat="42.486535" lon="11.6126683"><ele>117.5</ele><time>2026-04-18T10:37:26.76Z</time></trkpt><trkpt lat="42.4864567" lon="11.6126067"><ele>118.0</ele><time>2026-04-18T10:37:27.76Z</time></trkpt><trkpt lat="42.4863717" lon="11.6125583"><ele>118.5</ele><time>2026-04-18T10:37:28.76Z</time></trkpt><trkpt lat="42.486285" lon="11.6125067"><ele>119.0</ele><time>2026-04-18T10:37:29.759Z</time></trkpt><trkpt lat="42.48621" lon="11.6124717"><ele>119.5</ele><time>2026-04-18T10:37:30.76Z</time></trkpt><trkpt lat="42.4861317" lon="11.6124217"><ele>120.0</ele><time>2026-04-18T10:37:31.76Z</time></trkpt><trkpt lat="42.4860517" lon="11.61233"><ele>120.0</ele><time>2026-04-18T10:37:32.76Z</time></trkpt><trkpt lat="42.4859783" lon="11.612225"><ele>120.0</ele><time>2026-04-18T10:37:33.76Z</time></trkpt><trkpt lat="42.4859017" lon="11.61211"><ele>120.0</ele><time>2026-04-18T10:37:34.76Z</time></trkpt><trkpt lat="42.48583" lon="11.6119917"><ele>120.0</ele><time>2026-04-18T10:37:35.759Z</time></trkpt><trkpt lat="42.4857517" lon="11.611885"><ele>120.0</ele><time>2026-04-18T10:37:36.759Z</time></trkpt><trkpt lat="42.4856817" lon="11.6117817"><ele>120.2</ele><time>2026-04-18T10:37:37.76Z</time></trkpt><trkpt lat="42.4856083" lon="11.6116767"><ele>120.4</ele><time>2026-04-18T10:37:38.76Z</time></trkpt><trkpt lat="42.48553" lon="11.6115567"><ele>120.6</ele><time>2026-04-18T10:37:39.76Z</time></trkpt><trkpt lat="42.4854583" lon="11.6114567"><ele>120.8</ele><time>2026-04-18T10:37:40.76Z</time></trkpt><trkpt lat="42.4853983" lon="11.6113617"><ele>121.0</ele><time>2026-04-18T10:37:41.76Z</time></trkpt><trkpt lat="42.48535" lon="11.6112933"><ele>121.0</ele><time>2026-04-18T10:37:42.76Z</time></trkpt><trkpt lat="42.485275" lon="11.6111783"><ele>121.0</ele><time>2026-04-18T10:37:44.76Z</time></trkpt><trkpt lat="42.4852183" lon="11.61108"><ele>121.0</ele><time>2026-04-18T10:37:46.76Z</time></trkpt><trkpt lat="42.4851667" lon="11.61095"><ele>121.0</ele><time>2026-04-18T10:37:48.76Z</time></trkpt><trkpt lat="42.4851" lon="11.6108683"><ele>121.0</ele><time>2026-04-18T10:37:50.76Z</time></trkpt><trkpt lat="42.4849833" lon="11.61085"><ele>123.0</ele><time>2026-04-18T10:37:52.759Z</time></trkpt><trkpt lat="42.4848983" lon="11.6108583"><ele>125.0</ele><time>2026-04-18T10:37:53.76Z</time></trkpt><trkpt lat="42.4848083" lon="11.610875"><ele>127.0</ele><time>2026-04-18T10:37:54.759Z</time></trkpt><trkpt lat="42.484705" lon="11.6108983"><ele>129.0</ele><time>2026-04-18T10:37:55.76Z</time></trkpt><trkpt lat="42.484595" lon="11.610915"><ele>131.0</ele><time>2026-04-18T10:37:56.76Z</time></trkpt><trkpt lat="42.4844933" lon="11.6109317"><ele>131.0</ele><time>2026-04-18T10:37:57.76Z</time></trkpt><trkpt lat="42.4844017" lon="11.6109383"><ele>131.0</ele><time>2026-04-18T10:37:58.76Z</time></trkpt><trkpt lat="42.4843117" lon="11.6109433"><ele>131.0</ele><time>2026-04-18T10:37:59.76Z</time></trkpt><trkpt lat="42.4842167" lon="11.61095"><ele>131.0</ele><time>2026-04-18T10:38:00.76Z</time></trkpt><trkpt lat="42.4841183" lon="11.6109517"><ele>131.0</ele><time>2026-04-18T10:38:01.76Z</time></trkpt><trkpt lat="42.4840267" lon="11.61095"><ele>131.0</ele><time>2026-04-18T10:38:02.76Z</time></trkpt><trkpt lat="42.483935" lon="11.6109483"><ele>131.0</ele><time>2026-04-18T10:38:03.759Z</time></trkpt><trkpt lat="42.4838567" lon="11.61095"><ele>131.0</ele><time>2026-04-18T10:38:04.76Z</time></trkpt><trkpt lat="42.4837867" lon="11.6109417"><ele>131.0</ele><time>2026-04-18T10:38:05.76Z</time></trkpt><trkpt lat="42.48367" lon="11.61093"><ele>131.0</ele><time>2026-04-18T10:38:07.76Z</time></trkpt><trkpt lat="42.4836083" lon="11.61091"><ele>131.0</ele><time>2026-04-18T10:38:08.76Z</time></trkpt><trkpt lat="42.4835333" lon="11.6108733"><ele>130.83333333333331</ele><time>2026-04-18T10:38:09.76Z</time></trkpt><trkpt lat="42.4834567" lon="11.61082"><ele>130.66666666666666</ele><time>2026-04-18T10:38:10.76Z</time></trkpt><trkpt lat="42.483385" lon="11.61078"><ele>130.5</ele><time>2026-04-18T10:38:11.76Z</time></trkpt><trkpt lat="42.4833183" lon="11.6107617"><ele>130.33333333333334</ele><time>2026-04-18T10:38:12.76Z</time></trkpt><trkpt lat="42.4832483" lon="11.6107667"><ele>130.16666666666669</ele><time>2026-04-18T10:38:13.76Z</time></trkpt><trkpt lat="42.48316" lon="11.610785"><ele>130.0</ele><time>2026-04-18T10:38:14.76Z</time></trkpt><trkpt lat="42.4830733" lon="11.6108033"><ele>130.0</ele><time>2026-04-18T10:38:15.76Z</time></trkpt><trkpt lat="42.48299" lon="11.6108183"><ele>130.0</ele><time>2026-04-18T10:38:16.76Z</time></trkpt><trkpt lat="42.4829117" lon="11.6108333"><ele>130.0</ele><time>2026-04-18T10:38:17.76Z</time></trkpt><trkpt lat="42.4828383" lon="11.6108533"><ele>130.0</ele><time>2026-04-18T10:38:18.76Z</time></trkpt><trkpt lat="42.4827733" lon="11.6108733"><ele>130.0</ele><time>2026-04-18T10:38:19.76Z</time></trkpt><trkpt lat="42.4826967" lon="11.610905"><ele>130.0</ele><time>2026-04-18T10:38:20.76Z</time></trkpt><trkpt lat="42.4825983" lon="11.610935"><ele>130.0</ele><time>2026-04-18T10:38:21.76Z</time></trkpt><trkpt lat="42.4825" lon="11.6109617"><ele>130.0</ele><time>2026-04-18T10:38:22.76Z</time></trkpt><trkpt lat="42.482405" lon="11.6109767"><ele>130.0</ele><time>2026-04-18T10:38:23.76Z</time></trkpt><trkpt lat="42.4823017" lon="11.610985"><ele>130.0</ele><time>2026-04-18T10:38:24.76Z</time></trkpt><trkpt lat="42.4821967" lon="11.61099"><ele>130.0</ele><time>2026-04-18T10:38:25.76Z</time></trkpt><trkpt lat="42.48208" lon="11.6109867"><ele>130.8</ele><time>2026-04-18T10:38:26.76Z</time></trkpt><trkpt lat="42.4819583" lon="11.61097"><ele>131.6</ele><time>2026-04-18T10:38:27.76Z</time></trkpt><trkpt lat="42.4818433" lon="11.6109483"><ele>132.4</ele><time>2026-04-18T10:38:28.76Z</time></trkpt><trkpt lat="42.481745" lon="11.6109233"><ele>133.2</ele><time>2026-04-18T10:38:29.76Z</time></trkpt><trkpt lat="42.4816567" lon="11.6108933"><ele>134.0</ele><time>2026-04-18T10:38:30.76Z</time></trkpt><trkpt lat="42.4815733" lon="11.6108733"><ele>134.0</ele><time>2026-04-18T10:38:31.76Z</time></trkpt><trkpt lat="42.4814967" lon="11.6108517"><ele>134.0</ele><time>2026-04-18T10:38:32.759Z</time></trkpt><trkpt lat="42.4814083" lon="11.610835"><ele>134.0</ele><time>2026-04-18T10:38:33.759Z</time></trkpt><trkpt lat="42.4813117" lon="11.6108283"><ele>134.0</ele><time>2026-04-18T10:38:34.76Z</time></trkpt><trkpt lat="42.4812133" lon="11.610815"><ele>134.0</ele><time>2026-04-18T10:38:35.76Z</time></trkpt><trkpt lat="42.4811183" lon="11.6108067"><ele>134.0</ele><time>2026-04-18T10:38:36.76Z</time></trkpt><trkpt lat="42.48103" lon="11.6107983"><ele>134.0</ele><time>2026-04-18T10:38:37.76Z</time></trkpt><trkpt lat="42.4809533" lon="11.610815"><ele>134.0</ele><time>2026-04-18T10:38:38.76Z</time></trkpt><trkpt lat="42.48087" lon="11.6108417"><ele>134.0</ele><time>2026-04-18T10:38:39.76Z</time></trkpt><trkpt lat="42.4807867" lon="11.6108817"><ele>134.0</ele><time>2026-04-18T10:38:40.76Z</time></trkpt><trkpt lat="42.4806933" lon="11.61092"><ele>134.0</ele><time>2026-04-18T10:38:41.76Z</time></trkpt><trkpt lat="42.480585" lon="11.61096"><ele>134.0</ele><time>2026-04-18T10:38:42.76Z</time></trkpt><trkpt lat="42.4804733" lon="11.61101"><ele>134.0</ele><time>2026-04-18T10:38:43.76Z</time></trkpt><trkpt lat="42.48036" lon="11.6110567"><ele>134.0</ele><time>2026-04-18T10:38:44.76Z</time></trkpt><trkpt lat="42.480265" lon="11.6110933"><ele>134.0</ele><time>2026-04-18T10:38:45.759Z</time></trkpt><trkpt lat="42.4801817" lon="11.6111383"><ele>134.0</ele><time>2026-04-18T10:38:46.76Z</time></trkpt><trkpt lat="42.4801033" lon="11.61118"><ele>132.6</ele><time>2026-04-18T10:38:47.76Z</time></trkpt><trkpt lat="42.48002" lon="11.61122"><ele>131.2</ele><time>2026-04-18T10:38:48.76Z</time></trkpt><trkpt lat="42.4799317" lon="11.611255"><ele>129.79999999999998</ele><time>2026-04-18T10:38:49.76Z</time></trkpt><trkpt lat="42.4798333" lon="11.6112783"><ele>128.4</ele><time>2026-04-18T10:38:50.76Z</time></trkpt><trkpt lat="42.4797333" lon="11.6112933"><ele>127.0</ele><time>2026-04-18T10:38:51.76Z</time></trkpt><trkpt lat="42.4796283" lon="11.61129"><ele>127.6</ele><time>2026-04-18T10:38:52.759Z</time></trkpt><trkpt lat="42.4795333" lon="11.6112767"><ele>128.2</ele><time>2026-04-18T10:38:53.76Z</time></trkpt><trkpt lat="42.4794333" lon="11.6112517"><ele>128.8</ele><time>2026-04-18T10:38:54.76Z</time></trkpt><trkpt lat="42.4793317" lon="11.6112183"><ele>129.4</ele><time>2026-04-18T10:38:55.76Z</time></trkpt><trkpt lat="42.4792267" lon="11.6111833"><ele>130.0</ele><time>2026-04-18T10:38:56.76Z</time></trkpt><trkpt lat="42.4791217" lon="11.611145"><ele>131.8</ele><time>2026-04-18T10:38:57.76Z</time></trkpt><trkpt lat="42.4790083" lon="11.61111"><ele>133.6</ele><time>2026-04-18T10:38:58.76Z</time></trkpt><trkpt lat="42.4789033" lon="11.6110833"><ele>135.4</ele><time>2026-04-18T10:38:59.76Z</time></trkpt><trkpt lat="42.4788033" lon="11.611075"><ele>137.2</ele><time>2026-04-18T10:39:00.76Z</time></trkpt><trkpt lat="42.4787083" lon="11.6110683"><ele>139.0</ele><time>2026-04-18T10:39:01.76Z</time></trkpt><trkpt lat="42.4786183" lon="11.6110667"><ele>139.0</ele><time>2026-04-18T10:39:02.76Z</time></trkpt><trkpt lat="42.4785317" lon="11.6110667"><ele>139.0</ele><time>2026-04-18T10:39:03.76Z</time></trkpt><trkpt lat="42.4784383" lon="11.6110583"><ele>139.0</ele><time>2026-04-18T10:39:04.76Z</time></trkpt><trkpt lat="42.478345" lon="11.6110517"><ele>139.0</ele><time>2026-04-18T10:39:05.76Z</time></trkpt><trkpt lat="42.4782517" lon="11.61105"><ele>139.0</ele><time>2026-04-18T10:39:06.76Z</time></trkpt><trkpt lat="42.4781667" lon="11.6110583"><ele>139.0</ele><time>2026-04-18T10:39:07.76Z</time></trkpt><trkpt lat="42.478085" lon="11.6110717"><ele>139.0</ele><time>2026-04-18T10:39:08.76Z</time></trkpt><trkpt lat="42.4780067" lon="11.6110917"><ele>139.0</ele><time>2026-04-18T10:39:09.76Z</time></trkpt><trkpt lat="42.4779217" lon="11.611105"><ele>139.0</ele><time>2026-04-18T10:39:10.76Z</time></trkpt><trkpt lat="42.47784" lon="11.6111217"><ele>139.0</ele><time>2026-04-18T10:39:11.76Z</time></trkpt><trkpt lat="42.47776" lon="11.6111333"><ele>139.0</ele><time>2026-04-18T10:39:12.76Z</time></trkpt><trkpt lat="42.4776767" lon="11.6111333"><ele>139.2</ele><time>2026-04-18T10:39:13.76Z</time></trkpt><trkpt lat="42.4775883" lon="11.6111317"><ele>139.4</ele><time>2026-04-18T10:39:14.76Z</time></trkpt><trkpt lat="42.47749" lon="11.6111417"><ele>139.6</ele><time>2026-04-18T10:39:15.76Z</time></trkpt><trkpt lat="42.47739" lon="11.611145"><ele>139.8</ele><time>2026-04-18T10:39:16.759Z</time></trkpt><trkpt lat="42.47728" lon="11.611155"><ele>140.0</ele><time>2026-04-18T10:39:17.76Z</time></trkpt><trkpt lat="42.4771633" lon="11.6111717"><ele>138.4</ele><time>2026-04-18T10:39:18.76Z</time></trkpt><trkpt lat="42.4770467" lon="11.6111867"><ele>136.8</ele><time>2026-04-18T10:39:19.76Z</time></trkpt><trkpt lat="42.4769433" lon="11.611195"><ele>135.2</ele><time>2026-04-18T10:39:20.76Z</time></trkpt><trkpt lat="42.4768417" lon="11.6112283"><ele>133.6</ele><time>2026-04-18T10:39:21.76Z</time></trkpt><trkpt lat="42.4767517" lon="11.6112567"><ele>132.0</ele><time>2026-04-18T10:39:22.759Z</time></trkpt><trkpt lat="42.47667" lon="11.6112633"><ele>132.0</ele><time>2026-04-18T10:39:23.76Z</time></trkpt><trkpt lat="42.476585" lon="11.611265"><ele>132.0</ele><time>2026-04-18T10:39:24.76Z</time></trkpt><trkpt lat="42.4765017" lon="11.61126"><ele>132.0</ele><time>2026-04-18T10:39:25.76Z</time></trkpt><trkpt lat="42.4764083" lon="11.6112683"><ele>132.0</ele><time>2026-04-18T10:39:26.76Z</time></trkpt><trkpt lat="42.47632" lon="11.61127"><ele>132.0</ele><time>2026-04-18T10:39:27.76Z</time></trkpt><trkpt lat="42.47623" lon="11.6112833"><ele>132.0</ele><time>2026-04-18T10:39:28.76Z</time></trkpt><trkpt lat="42.4761417" lon="11.611295"><ele>132.0</ele><time>2026-04-18T10:39:29.76Z</time></trkpt><trkpt lat="42.4760583" lon="11.6113117"><ele>132.0</ele><time>2026-04-18T10:39:30.76Z</time></trkpt><trkpt lat="42.4759717" lon="11.61134"><ele>132.0</ele><time>2026-04-18T10:39:31.76Z</time></trkpt><trkpt lat="42.475885" lon="11.6113617"><ele>132.0</ele><time>2026-04-18T10:39:32.76Z</time></trkpt><trkpt lat="42.4758067" lon="11.611385"><ele>132.0</ele><time>2026-04-18T10:39:33.759Z</time></trkpt><trkpt lat="42.4757383" lon="11.611405"><ele>132.0</ele><time>2026-04-18T10:39:34.76Z</time></trkpt><trkpt lat="42.4756617" lon="11.6114367"><ele>132.0</ele><time>2026-04-18T10:39:35.76Z</time></trkpt><trkpt lat="42.47558" lon="11.6114633"><ele>132.0</ele><time>2026-04-18T10:39:36.76Z</time></trkpt><trkpt lat="42.4754917" lon="11.611495"><ele>132.0</ele><time>2026-04-18T10:39:37.76Z</time></trkpt><trkpt lat="42.4753967" lon="11.61153"><ele>132.0</ele><time>2026-04-18T10:39:38.76Z</time></trkpt><trkpt lat="42.4752983" lon="11.611565"><ele>132.0</ele><time>2026-04-18T10:39:39.76Z</time></trkpt><trkpt lat="42.47521" lon="11.611615"><ele>131.79999999999998</ele><time>2026-04-18T10:39:40.76Z</time></trkpt><trkpt lat="42.475125" lon="11.61166"><ele>131.6</ele><time>2026-04-18T10:39:41.76Z</time></trkpt><trkpt lat="42.47504" lon="11.6117033"><ele>131.39999999999998</ele><time>2026-04-18T10:39:42.76Z</time></trkpt><trkpt lat="42.47495" lon="11.61175"><ele>131.2</ele><time>2026-04-18T10:39:43.76Z</time></trkpt><trkpt lat="42.4748483" lon="11.6117933"><ele>131.0</ele><time>2026-04-18T10:39:44.76Z</time></trkpt><trkpt lat="42.47474" lon="11.6118333"><ele>131.0</ele><time>2026-04-18T10:39:45.76Z</time></trkpt><trkpt lat="42.4746333" lon="11.6118717"><ele>131.0</ele><time>2026-04-18T10:39:46.76Z</time></trkpt><trkpt lat="42.474535" lon="11.61191"><ele>131.0</ele><time>2026-04-18T10:39:47.76Z</time></trkpt><trkpt lat="42.4744283" lon="11.6119533"><ele>131.0</ele><time>2026-04-18T10:39:48.759Z</time></trkpt><trkpt lat="42.4743233" lon="11.6119983"><ele>131.0</ele><time>2026-04-18T10:39:49.76Z</time></trkpt><trkpt lat="42.4742233" lon="11.612045"><ele>130.5</ele><time>2026-04-18T10:39:50.76Z</time></trkpt><trkpt lat="42.474135" lon="11.6120917"><ele>130.0</ele><time>2026-04-18T10:39:51.759Z</time></trkpt><trkpt lat="42.474045" lon="11.612135"><ele>129.5</ele><time>2026-04-18T10:39:52.759Z</time></trkpt><trkpt lat="42.473955" lon="11.6121683"><ele>129.0</ele><time>2026-04-18T10:39:53.759Z</time></trkpt><trkpt lat="42.47388" lon="11.6122017"><ele>128.5</ele><time>2026-04-18T10:39:54.759Z</time></trkpt><trkpt lat="42.4738117" lon="11.6122317"><ele>128.0</ele><time>2026-04-18T10:39:55.759Z</time></trkpt><trkpt lat="42.4737367" lon="11.6122533"><ele>128.0</ele><time>2026-04-18T10:39:56.759Z</time></trkpt><trkpt lat="42.4736533" lon="11.612305"><ele>128.0</ele><time>2026-04-18T10:39:57.759Z</time></trkpt><trkpt lat="42.473565" lon="11.612345"><ele>128.0</ele><time>2026-04-18T10:39:58.759Z</time></trkpt><trkpt lat="42.47348" lon="11.6123817"><ele>128.0</ele><time>2026-04-18T10:39:59.759Z</time></trkpt><trkpt lat="42.4733967" lon="11.6124017"><ele>128.0</ele><time>2026-04-18T10:40:00.758Z</time></trkpt><trkpt lat="42.473305" lon="11.61243"><ele>127.99999999999999</ele><time>2026-04-18T10:40:01.759Z</time></trkpt><trkpt lat="42.4732167" lon="11.6124517"><ele>128.0</ele><time>2026-04-18T10:40:02.758Z</time></trkpt><trkpt lat="42.473125" lon="11.6124917"><ele>128.0</ele><time>2026-04-18T10:40:03.759Z</time></trkpt><trkpt lat="42.4730417" lon="11.6125283"><ele>128.0</ele><time>2026-04-18T10:40:04.759Z</time></trkpt><trkpt lat="42.4729667" lon="11.6125683"><ele>127.99999999999999</ele><time>2026-04-18T10:40:05.759Z</time></trkpt><trkpt lat="42.47289" lon="11.6125933"><ele>128.0</ele><time>2026-04-18T10:40:06.759Z</time></trkpt><trkpt lat="42.4728133" lon="11.612625"><ele>128.20000000000002</ele><time>2026-04-18T10:40:07.759Z</time></trkpt><trkpt lat="42.4726867" lon="11.6126467"><ele>128.4</ele><time>2026-04-18T10:40:09.759Z</time></trkpt><trkpt lat="42.4725717" lon="11.61265"><ele>128.60000000000002</ele><time>2026-04-18T10:40:11.758Z</time></trkpt><trkpt lat="42.4724883" lon="11.6126467"><ele>128.8</ele><time>2026-04-18T10:40:13.759Z</time></trkpt><trkpt lat="42.4724117" lon="11.6126567"><ele>129.0</ele><time>2026-04-18T10:40:15.759Z</time></trkpt><trkpt lat="42.47234" lon="11.6126967"><ele>129.0</ele><time>2026-04-18T10:40:17.759Z</time></trkpt><trkpt lat="42.472245" lon="11.61272"><ele>129.0</ele><time>2026-04-18T10:40:19.759Z</time></trkpt><trkpt lat="42.47213" lon="11.6127333"><ele>129.0</ele><time>2026-04-18T10:40:21.759Z</time></trkpt><trkpt lat="42.4720333" lon="11.6128033"><ele>129.0</ele><time>2026-04-18T10:40:23.759Z</time></trkpt><trkpt lat="42.47196" lon="11.61289"><ele>129.0</ele><time>2026-04-18T10:40:25.759Z</time></trkpt><trkpt lat="42.4718833" lon="11.6129783"><ele>126.6</ele><time>2026-04-18T10:40:27.759Z</time></trkpt><trkpt lat="42.4717917" lon="11.613035"><ele>124.2</ele><time>2026-04-18T10:40:29.759Z</time></trkpt><trkpt lat="42.471685" lon="11.6130333"><ele>121.79999999999998</ele><time>2026-04-18T10:40:31.759Z</time></trkpt><trkpt lat="42.4716017" lon="11.6130067"><ele>119.39999999999999</ele><time>2026-04-18T10:40:33.758Z</time></trkpt><trkpt lat="42.47152" lon="11.6129767"><ele>117.0</ele><time>2026-04-18T10:40:35.759Z</time></trkpt><trkpt lat="42.4714417" lon="11.612945"><ele>117.0</ele><time>2026-04-18T10:40:37.759Z</time></trkpt><trkpt lat="42.4713617" lon="11.6128967"><ele>117.0</ele><time>2026-04-18T10:40:39.759Z</time></trkpt><trkpt lat="42.4713" lon="11.61286"><ele>117.0</ele><time>2026-04-18T10:40:41.759Z</time></trkpt><trkpt lat="42.4712433" lon="11.612795"><ele>117.0</ele><time>2026-04-18T10:40:43.759Z</time></trkpt><trkpt lat="42.47119" lon="11.612735"><ele>117.0</ele><time>2026-04-18T10:40:45.758Z</time></trkpt><trkpt lat="42.4711433" lon="11.6126467"><ele>117.0</ele><time>2026-04-18T10:40:47.759Z</time></trkpt><trkpt lat="42.47106" lon="11.6125833"><ele>116.83333333333333</ele><time>2026-04-18T10:40:49.759Z</time></trkpt><trkpt lat="42.4709483" lon="11.61258"><ele>116.66666666666666</ele><time>2026-04-18T10:40:51.759Z</time></trkpt><trkpt lat="42.4708733" lon="11.6125883"><ele>116.5</ele><time>2026-04-18T10:40:52.759Z</time></trkpt><trkpt lat="42.4708033" lon="11.6126017"><ele>116.33333333333333</ele><time>2026-04-18T10:40:53.759Z</time></trkpt><trkpt lat="42.4707333" lon="11.6126217"><ele>116.16666666666666</ele><time>2026-04-18T10:40:54.759Z</time></trkpt><trkpt lat="42.47062" lon="11.61263"><ele>116.0</ele><time>2026-04-18T10:40:56.759Z</time></trkpt><trkpt lat="42.47052" lon="11.61262"><ele>114.83333333333333</ele><time>2026-04-18T10:40:58.759Z</time></trkpt><trkpt lat="42.470415" lon="11.612605"><ele>113.66666666666666</ele><time>2026-04-18T10:41:00.759Z</time></trkpt><trkpt lat="42.4703083" lon="11.6125683"><ele>112.5</ele><time>2026-04-18T10:41:02.759Z</time></trkpt><trkpt lat="42.4702417" lon="11.6125483"><ele>111.33333333333334</ele><time>2026-04-18T10:41:03.759Z</time></trkpt><trkpt lat="42.47017" lon="11.612535"><ele>110.16666666666667</ele><time>2026-04-18T10:41:04.758Z</time></trkpt><trkpt lat="42.4701" lon="11.61252"><ele>109.0</ele><time>2026-04-18T10:41:05.759Z</time></trkpt><trkpt lat="42.4699867" lon="11.6125267"><ele>109.00000000000001</ele><time>2026-04-18T10:41:07.759Z</time></trkpt><trkpt lat="42.4698883" lon="11.6125083"><ele>109.0</ele><time>2026-04-18T10:41:09.759Z</time></trkpt><trkpt lat="42.4697867" lon="11.612505"><ele>109.0</ele><time>2026-04-18T10:41:11.759Z</time></trkpt><trkpt lat="42.4697183" lon="11.612505"><ele>109.0</ele><time>2026-04-18T10:41:12.759Z</time></trkpt><trkpt lat="42.46964" lon="11.6125033"><ele>109.00000000000001</ele><time>2026-04-18T10:41:13.759Z</time></trkpt><trkpt lat="42.4695533" lon="11.612505"><ele>109.0</ele><time>2026-04-18T10:41:14.759Z</time></trkpt><trkpt lat="42.4694783" lon="11.612525"><ele>107.71428571428572</ele><time>2026-04-18T10:41:15.759Z</time></trkpt><trkpt lat="42.4694067" lon="11.6125333"><ele>106.42857142857143</ele><time>2026-04-18T10:41:16.759Z</time></trkpt><trkpt lat="42.4693417" lon="11.6125433"><ele>105.14285714285714</ele><time>2026-04-18T10:41:17.759Z</time></trkpt><trkpt lat="42.4692783" lon="11.6125567"><ele>103.85714285714286</ele><time>2026-04-18T10:41:18.759Z</time></trkpt><trkpt lat="42.4692083" lon="11.6125583"><ele>102.57142857142857</ele><time>2026-04-18T10:41:19.759Z</time></trkpt><trkpt lat="42.469135" lon="11.6125417"><ele>101.28571428571429</ele><time>2026-04-18T10:41:20.759Z</time></trkpt><trkpt lat="42.46905" lon="11.6125283"><ele>100.0</ele><time>2026-04-18T10:41:21.759Z</time></trkpt><trkpt lat="42.4689617" lon="11.6125167"><ele>100.0</ele><time>2026-04-18T10:41:22.759Z</time></trkpt><trkpt lat="42.4688867" lon="11.612525"><ele>100.0</ele><time>2026-04-18T10:41:23.759Z</time></trkpt><trkpt lat="42.46877" lon="11.6125683"><ele>100.0</ele><time>2026-04-18T10:41:25.759Z</time></trkpt><trkpt lat="42.46867" lon="11.6126117"><ele>100.0</ele><time>2026-04-18T10:41:27.759Z</time></trkpt><trkpt lat="42.4685417" lon="11.6126217"><ele>100.0</ele><time>2026-04-18T10:41:29.759Z</time></trkpt><trkpt lat="42.4684767" lon="11.6126133"><ele>99.57142857142858</ele><time>2026-04-18T10:41:30.759Z</time></trkpt><trkpt lat="42.468405" lon="11.6125983"><ele>99.14285714285714</ele><time>2026-04-18T10:41:31.759Z</time></trkpt><trkpt lat="42.468335" lon="11.612595"><ele>98.71428571428572</ele><time>2026-04-18T10:41:32.759Z</time></trkpt><trkpt lat="42.4682583" lon="11.6125967"><ele>98.28571428571429</ele><time>2026-04-18T10:41:33.759Z</time></trkpt><trkpt lat="42.468185" lon="11.6126017"><ele>97.85714285714286</ele><time>2026-04-18T10:41:34.759Z</time></trkpt><trkpt lat="42.4681133" lon="11.6126083"><ele>97.42857142857143</ele><time>2026-04-18T10:41:35.758Z</time></trkpt><trkpt lat="42.46805" lon="11.61261"><ele>97.0</ele><time>2026-04-18T10:41:36.759Z</time></trkpt><trkpt lat="42.4679533" lon="11.61261"><ele>95.39999999999999</ele><time>2026-04-18T10:41:38.759Z</time></trkpt><trkpt lat="42.467875" lon="11.6126133"><ele>93.8</ele><time>2026-04-18T10:41:40.759Z</time></trkpt><trkpt lat="42.4677917" lon="11.6126167"><ele>92.2</ele><time>2026-04-18T10:41:42.759Z</time></trkpt><trkpt lat="42.4676883" lon="11.6126217"><ele>90.6</ele><time>2026-04-18T10:41:44.759Z</time></trkpt><trkpt lat="42.46759" lon="11.61261"><ele>89.0</ele><time>2026-04-18T10:41:46.759Z</time></trkpt><trkpt lat="42.46749" lon="11.6125883"><ele>89.0</ele><time>2026-04-18T10:41:48.759Z</time></trkpt><trkpt lat="42.4673817" lon="11.61262"><ele>89.0</ele><time>2026-04-18T10:41:50.759Z</time></trkpt><trkpt lat="42.4672983" lon="11.6126883"><ele>89.0</ele><time>2026-04-18T10:41:52.759Z</time></trkpt><trkpt lat="42.4672533" lon="11.6127517"><ele>89.0</ele><time>2026-04-18T10:41:53.759Z</time></trkpt><trkpt lat="42.4672033" lon="11.612825"><ele>89.0</ele><time>2026-04-18T10:41:54.759Z</time></trkpt><trkpt lat="42.46715" lon="11.612905"><ele>89.0</ele><time>2026-04-18T10:41:55.759Z</time></trkpt><trkpt lat="42.4671017" lon="11.6129767"><ele>87.28571428571428</ele><time>2026-04-18T10:41:56.759Z</time></trkpt><trkpt lat="42.4670533" lon="11.613045"><ele>85.57142857142857</ele><time>2026-04-18T10:41:57.759Z</time></trkpt><trkpt lat="42.4669983" lon="11.61309"><ele>83.85714285714286</ele><time>2026-04-18T10:41:58.759Z</time></trkpt><trkpt lat="42.46694" lon="11.61314"><ele>82.14285714285714</ele><time>2026-04-18T10:41:59.759Z</time></trkpt><trkpt lat="42.4668833" lon="11.613185"><ele>80.42857142857143</ele><time>2026-04-18T10:42:00.758Z</time></trkpt><trkpt lat="42.4667917" lon="11.6132467"><ele>78.71428571428571</ele><time>2026-04-18T10:42:02.759Z</time></trkpt><trkpt lat="42.46673" lon="11.6132883"><ele>77.0</ele><time>2026-04-18T10:42:04.758Z</time></trkpt><trkpt lat="42.46665" lon="11.6133267"><ele>77.0</ele><time>2026-04-18T10:42:07.759Z</time></trkpt><trkpt lat="42.46656" lon="11.6133083"><ele>77.0</ele><time>2026-04-18T10:42:10.758Z</time></trkpt><trkpt lat="42.4664717" lon="11.6132233"><ele>77.0</ele><time>2026-04-18T10:42:18.758Z</time></trkpt><trkpt lat="42.4663917" lon="11.6131583"><ele>77.0</ele><time>2026-04-18T10:42:20.759Z</time></trkpt><trkpt lat="42.4663167" lon="11.6130933"><ele>77.0</ele><time>2026-04-18T10:42:22.758Z</time></trkpt><trkpt lat="42.4662183" lon="11.61302"><ele>76.4</ele><time>2026-04-18T10:42:24.759Z</time></trkpt><trkpt lat="42.4661133" lon="11.6129967"><ele>75.80000000000001</ele><time>2026-04-18T10:42:26.759Z</time></trkpt><trkpt lat="42.4660067" lon="11.6129983"><ele>75.2</ele><time>2026-04-18T10:42:28.758Z</time></trkpt><trkpt lat="42.4658917" lon="11.61298"><ele>74.60000000000001</ele><time>2026-04-18T10:42:30.759Z</time></trkpt><trkpt lat="42.4657883" lon="11.612945"><ele>74.0</ele><time>2026-04-18T10:42:32.759Z</time></trkpt><trkpt lat="42.465705" lon="11.61292"><ele>74.0</ele><time>2026-04-18T10:42:34.758Z</time></trkpt><trkpt lat="42.46563" lon="11.612865"><ele>74.0</ele><time>2026-04-18T10:42:36.759Z</time></trkpt><trkpt lat="42.4655583" lon="11.6128333"><ele>74.0</ele><time>2026-04-18T10:42:38.758Z</time></trkpt><trkpt lat="42.4654883" lon="11.6127967"><ele>74.0</ele><time>2026-04-18T10:42:40.759Z</time></trkpt><trkpt lat="42.4653883" lon="11.6127733"><ele>74.0</ele><time>2026-04-18T10:42:42.759Z</time></trkpt><trkpt lat="42.465285" lon="11.6127367"><ele>74.0</ele><time>2026-04-18T10:42:44.758Z</time></trkpt><trkpt lat="42.4651883" lon="11.6127133"><ele>74.5</ele><time>2026-04-18T10:42:46.759Z</time></trkpt><trkpt lat="42.4650883" lon="11.6127233"><ele>75.0</ele><time>2026-04-18T10:42:48.759Z</time></trkpt><trkpt lat="42.4650233" lon="11.6127167"><ele>75.5</ele><time>2026-04-18T10:42:49.759Z</time></trkpt><trkpt lat="42.4649567" lon="11.6127217"><ele>76.0</ele><time>2026-04-18T10:42:50.759Z</time></trkpt><trkpt lat="42.4648933" lon="11.61272"><ele>76.5</ele><time>2026-04-18T10:42:51.759Z</time></trkpt><trkpt lat="42.4648267" lon="11.61273"><ele>77.0</ele><time>2026-04-18T10:42:52.759Z</time></trkpt><trkpt lat="42.4647083" lon="11.61277"><ele>77.16666666666667</ele><time>2026-04-18T10:42:54.758Z</time></trkpt><trkpt lat="42.4646033" lon="11.6128217"><ele>77.33333333333334</ele><time>2026-04-18T10:42:56.759Z</time></trkpt><trkpt lat="42.46451" lon="11.612865"><ele>77.5</ele><time>2026-04-18T10:42:58.759Z</time></trkpt><trkpt lat="42.4644317" lon="11.6128817"><ele>77.66666666666667</ele><time>2026-04-18T10:43:00.759Z</time></trkpt><trkpt lat="42.4643633" lon="11.6128767"><ele>77.83333333333333</ele><time>2026-04-18T10:43:02.759Z</time></trkpt><trkpt lat="42.4642883" lon="11.6128467"><ele>78.0</ele><time>2026-04-18T10:43:05.759Z</time></trkpt><trkpt lat="42.4641833" lon="11.612815"><ele>78.0</ele><time>2026-04-18T10:43:08.759Z</time></trkpt><trkpt lat="42.4640617" lon="11.6127883"><ele>78.0</ele><time>2026-04-18T10:43:10.759Z</time></trkpt><trkpt lat="42.4639967" lon="11.6127833"><ele>78.0</ele><time>2026-04-18T10:43:11.759Z</time></trkpt><trkpt lat="42.4639267" lon="11.6127783"><ele>78.0</ele><time>2026-04-18T10:43:12.759Z</time></trkpt><trkpt lat="42.4638517" lon="11.61277"><ele>78.0</ele><time>2026-04-18T10:43:13.758Z</time></trkpt><trkpt lat="42.46378" lon="11.612755"><ele>78.0</ele><time>2026-04-18T10:43:14.759Z</time></trkpt><trkpt lat="42.4636683" lon="11.6127433"><ele>77.83333333333333</ele><time>2026-04-18T10:43:16.758Z</time></trkpt><trkpt lat="42.4636017" lon="11.6127733"><ele>77.66666666666667</ele><time>2026-04-18T10:43:18.758Z</time></trkpt><trkpt lat="42.46353" lon="11.612835"><ele>77.5</ele><time>2026-04-18T10:43:21.759Z</time></trkpt><trkpt lat="42.46349" lon="11.6127267"><ele>77.33333333333334</ele><time>2026-04-18T10:50:25.758Z</time></trkpt><trkpt lat="42.4633967" lon="11.612745"><ele>77.16666666666667</ele><time>2026-04-18T10:52:42.758Z</time></trkpt><trkpt lat="42.4633267" lon="11.61279"><ele>77.0</ele><time>2026-04-18T10:52:44.758Z</time></trkpt><trkpt lat="42.463225" lon="11.6128117"><ele>77.0</ele><time>2026-04-18T10:52:46.757Z</time></trkpt><trkpt lat="42.4631283" lon="11.6128283"><ele>77.0</ele><time>2026-04-18T10:52:48.758Z</time></trkpt><trkpt lat="42.4630383" lon="11.6128583"><ele>77.0</ele><time>2026-04-18T10:52:50.758Z</time></trkpt><trkpt lat="42.4629517" lon="11.6128917"><ele>77.0</ele><time>2026-04-18T10:52:52.758Z</time></trkpt><trkpt lat="42.4628417" lon="11.6128967"><ele>77.0</ele><time>2026-04-18T10:52:54.758Z</time></trkpt><trkpt lat="42.4627733" lon="11.6128883"><ele>76.66666666666667</ele><time>2026-04-18T10:52:55.758Z</time></trkpt><trkpt lat="42.462695" lon="11.61288"><ele>76.33333333333334</ele><time>2026-04-18T10:52:56.758Z</time></trkpt><trkpt lat="42.46261" lon="11.6128817"><ele>76.0</ele><time>2026-04-18T10:52:57.758Z</time></trkpt><trkpt lat="42.4625217" lon="11.6128817"><ele>75.66666666666667</ele><time>2026-04-18T10:52:58.758Z</time></trkpt><trkpt lat="42.4624333" lon="11.6128983"><ele>75.33333333333333</ele><time>2026-04-18T10:52:59.758Z</time></trkpt><trkpt lat="42.4623417" lon="11.612915"><ele>75.0</ele><time>2026-04-18T10:53:00.758Z</time></trkpt><trkpt lat="42.4622567" lon="11.61292"><ele>75.0</ele><time>2026-04-18T10:53:01.758Z</time></trkpt><trkpt lat="42.462175" lon="11.6129217"><ele>75.0</ele><time>2026-04-18T10:53:02.758Z</time></trkpt><trkpt lat="42.4621" lon="11.612905"><ele>75.0</ele><time>2026-04-18T10:53:03.758Z</time></trkpt><trkpt lat="42.4620267" lon="11.6128967"><ele>75.0</ele><time>2026-04-18T10:53:04.758Z</time></trkpt><trkpt lat="42.4619533" lon="11.61288"><ele>75.0</ele><time>2026-04-18T10:53:05.758Z</time></trkpt><trkpt lat="42.4618467" lon="11.6128267"><ele>75.0</ele><time>2026-04-18T10:53:07.758Z</time></trkpt><trkpt lat="42.461775" lon="11.6127933"><ele>75.33333333333333</ele><time>2026-04-18T10:53:10.758Z</time></trkpt><trkpt lat="42.461705" lon="11.6127717"><ele>75.66666666666667</ele><time>2026-04-18T10:53:12.758Z</time></trkpt><trkpt lat="42.4616167" lon="11.6127583"><ele>76.0</ele><time>2026-04-18T10:53:14.758Z</time></trkpt><trkpt lat="42.4615267" lon="11.612735"><ele>76.33333333333334</ele><time>2026-04-18T10:53:16.758Z</time></trkpt><trkpt lat="42.4614383" lon="11.612735"><ele>76.66666666666667</ele><time>2026-04-18T10:53:18.758Z</time></trkpt><trkpt lat="42.46135" lon="11.61276"><ele>77.0</ele><time>2026-04-18T10:53:20.757Z</time></trkpt><trkpt lat="42.4612417" lon="11.61278"><ele>77.0</ele><time>2026-04-18T10:53:22.758Z</time></trkpt><trkpt lat="42.4611467" lon="11.6127883"><ele>77.0</ele><time>2026-04-18T10:53:24.758Z</time></trkpt><trkpt lat="42.46106" lon="11.6127783"><ele>77.0</ele><time>2026-04-18T10:53:26.758Z</time></trkpt><trkpt lat="42.4609667" lon="11.6127767"><ele>77.0</ele><time>2026-04-18T10:53:29.758Z</time></trkpt><trkpt lat="42.46089" lon="11.61277"><ele>77.0</ele><time>2026-04-18T10:53:32.757Z</time></trkpt><trkpt lat="42.4608" lon="11.6127467"><ele>77.0</ele><time>2026-04-18T10:53:34.758Z</time></trkpt><trkpt lat="42.4607133" lon="11.6127217"><ele>77.0</ele><time>2026-04-18T10:53:36.758Z</time></trkpt><trkpt lat="42.4606233" lon="11.6126967"><ele>77.0</ele><time>2026-04-18T10:53:38.758Z</time></trkpt><trkpt lat="42.4605283" lon="11.6126583"><ele>77.0</ele><time>2026-04-18T10:53:40.758Z</time></trkpt><trkpt lat="42.46044" lon="11.6126267"><ele>77.0</ele><time>2026-04-18T10:53:42.757Z</time></trkpt><trkpt lat="42.4603433" lon="11.6125917"><ele>77.0</ele><time>2026-04-18T10:53:44.758Z</time></trkpt><trkpt lat="42.460225" lon="11.6125817"><ele>76.8</ele><time>2026-04-18T10:53:46.758Z</time></trkpt><trkpt lat="42.4601133" lon="11.61257"><ele>76.6</ele><time>2026-04-18T10:53:48.758Z</time></trkpt><trkpt lat="42.46005" lon="11.6125617"><ele>76.39999999999999</ele><time>2026-04-18T10:53:49.758Z</time></trkpt><trkpt lat="42.459985" lon="11.6125583"><ele>76.2</ele><time>2026-04-18T10:53:50.758Z</time></trkpt><trkpt lat="42.459875" lon="11.61255"><ele>76.0</ele><time>2026-04-18T10:53:52.758Z</time></trkpt><trkpt lat="42.4597633" lon="11.6125383"><ele>76.0</ele><time>2026-04-18T10:53:54.757Z</time></trkpt><trkpt lat="42.4596533" lon="11.612535"><ele>76.0</ele><time>2026-04-18T10:53:56.757Z</time></trkpt><trkpt lat="42.459575" lon="11.6125333"><ele>76.0</ele><time>2026-04-18T10:53:58.758Z</time></trkpt><trkpt lat="42.4594867" lon="11.6125317"><ele>76.0</ele><time>2026-04-18T10:54:00.758Z</time></trkpt><trkpt lat="42.459375" lon="11.612525"><ele>76.0</ele><time>2026-04-18T10:54:02.758Z</time></trkpt><trkpt lat="42.4593033" lon="11.6125133"><ele>75.83333333333333</ele><time>2026-04-18T10:54:03.757Z</time></trkpt><trkpt lat="42.459225" lon="11.612505"><ele>75.66666666666666</ele><time>2026-04-18T10:54:04.758Z</time></trkpt><trkpt lat="42.45914" lon="11.6124917"><ele>75.5</ele><time>2026-04-18T10:54:05.758Z</time></trkpt><trkpt lat="42.459055" lon="11.612485"><ele>75.33333333333333</ele><time>2026-04-18T10:54:06.758Z</time></trkpt><trkpt lat="42.4589683" lon="11.6124767"><ele>75.16666666666667</ele><time>2026-04-18T10:54:07.758Z</time></trkpt><trkpt lat="42.4588883" lon="11.6124767"><ele>75.0</ele><time>2026-04-18T10:54:08.758Z</time></trkpt><trkpt lat="42.4588117" lon="11.612475"><ele>75.0</ele><time>2026-04-18T10:54:09.758Z</time></trkpt><trkpt lat="42.458735" lon="11.61247"><ele>75.0</ele><time>2026-04-18T10:54:10.758Z</time></trkpt><trkpt lat="42.4586533" lon="11.61248"><ele>75.0</ele><time>2026-04-18T10:54:11.758Z</time></trkpt><trkpt lat="42.458565" lon="11.612495"><ele>75.0</ele><time>2026-04-18T10:54:12.757Z</time></trkpt><trkpt lat="42.4584817" lon="11.61251"><ele>75.0</ele><time>2026-04-18T10:54:13.758Z</time></trkpt><trkpt lat="42.4584017" lon="11.612515"><ele>75.0</ele><time>2026-04-18T10:54:14.758Z</time></trkpt><trkpt lat="42.45832" lon="11.61252"><ele>75.0</ele><time>2026-04-18T10:54:15.758Z</time></trkpt><trkpt lat="42.4582383" lon="11.612535"><ele>75.0</ele><time>2026-04-18T10:54:16.758Z</time></trkpt><trkpt lat="42.4581467" lon="11.6125517"><ele>75.0</ele><time>2026-04-18T10:54:17.758Z</time></trkpt><trkpt lat="42.4580567" lon="11.6125617"><ele>75.0</ele><time>2026-04-18T10:54:18.758Z</time></trkpt><trkpt lat="42.4579583" lon="11.6125767"><ele>75.0</ele><time>2026-04-18T10:54:19.758Z</time></trkpt><trkpt lat="42.4578567" lon="11.6125967"><ele>75.0</ele><time>2026-04-18T10:54:20.758Z</time></trkpt><trkpt lat="42.4577567" lon="11.6126133"><ele>75.0</ele><time>2026-04-18T10:54:21.758Z</time></trkpt><trkpt lat="42.4576583" lon="11.61263"><ele>75.0</ele><time>2026-04-18T10:54:22.758Z</time></trkpt><trkpt lat="42.45756" lon="11.6126483"><ele>75.0</ele><time>2026-04-18T10:54:23.758Z</time></trkpt><trkpt lat="42.4574633" lon="11.61267"><ele>75.0</ele><time>2026-04-18T10:54:24.758Z</time></trkpt><trkpt lat="42.457365" lon="11.6127017"><ele>75.0</ele><time>2026-04-18T10:54:25.758Z</time></trkpt><trkpt lat="42.45727" lon="11.6127217"><ele>75.0</ele><time>2026-04-18T10:54:26.758Z</time></trkpt><trkpt lat="42.457175" lon="11.6127417"><ele>75.0</ele><time>2026-04-18T10:54:27.758Z</time></trkpt><trkpt lat="42.4570783" lon="11.6127567"><ele>75.0</ele><time>2026-04-18T10:54:28.758Z</time></trkpt><trkpt lat="42.456985" lon="11.6127733"><ele>75.0</ele><time>2026-04-18T10:54:29.758Z</time></trkpt><trkpt lat="42.45689" lon="11.6127667"><ele>75.0</ele><time>2026-04-18T10:54:30.758Z</time></trkpt><trkpt lat="42.4567883" lon="11.612745"><ele>75.0</ele><time>2026-04-18T10:54:31.758Z</time></trkpt><trkpt lat="42.4566867" lon="11.6127183"><ele>75.0</ele><time>2026-04-18T10:54:32.758Z</time></trkpt><trkpt lat="42.4566033" lon="11.612695"><ele>75.0</ele><time>2026-04-18T10:54:33.758Z</time></trkpt><trkpt lat="42.4565167" lon="11.6126633"><ele>75.0</ele><time>2026-04-18T10:54:34.758Z</time></trkpt><trkpt lat="42.45643" lon="11.6126283"><ele>75.0</ele><time>2026-04-18T10:54:35.758Z</time></trkpt><trkpt lat="42.456335" lon="11.6125817"><ele>75.0</ele><time>2026-04-18T10:54:36.758Z</time></trkpt><trkpt lat="42.4562467" lon="11.61254"><ele>75.0</ele><time>2026-04-18T10:54:37.758Z</time></trkpt><trkpt lat="42.4561683" lon="11.6124917"><ele>75.0</ele><time>2026-04-18T10:54:38.758Z</time></trkpt><trkpt lat="42.4560833" lon="11.61244"><ele>75.0</ele><time>2026-04-18T10:54:39.758Z</time></trkpt><trkpt lat="42.4559867" lon="11.612385"><ele>74.4</ele><time>2026-04-18T10:54:40.758Z</time></trkpt><trkpt lat="42.4558917" lon="11.6123267"><ele>73.8</ele><time>2026-04-18T10:54:41.758Z</time></trkpt><trkpt lat="42.455805" lon="11.61227"><ele>73.2</ele><time>2026-04-18T10:54:42.758Z</time></trkpt><trkpt lat="42.4557233" lon="11.6122183"><ele>72.6</ele><time>2026-04-18T10:54:43.758Z</time></trkpt><trkpt lat="42.4556417" lon="11.6121567"><ele>72.0</ele><time>2026-04-18T10:54:44.758Z</time></trkpt><trkpt lat="42.4555533" lon="11.6120983"><ele>72.0</ele><time>2026-04-18T10:54:45.758Z</time></trkpt><trkpt lat="42.4554617" lon="11.6120333"><ele>72.0</ele><time>2026-04-18T10:54:46.758Z</time></trkpt><trkpt lat="42.45537" lon="11.61197"><ele>72.0</ele><time>2026-04-18T10:54:47.758Z</time></trkpt><trkpt lat="42.45528" lon="11.611905"><ele>72.0</ele><time>2026-04-18T10:54:48.758Z</time></trkpt><trkpt lat="42.4551917" lon="11.61185"><ele>72.0</ele><time>2026-04-18T10:54:49.758Z</time></trkpt><trkpt lat="42.4551067" lon="11.6117867"><ele>72.0</ele><time>2026-04-18T10:54:50.757Z</time></trkpt><trkpt lat="42.4550133" lon="11.61172"><ele>72.0</ele><time>2026-04-18T10:54:51.757Z</time></trkpt><trkpt lat="42.45492" lon="11.611665"><ele>72.0</ele><time>2026-04-18T10:54:52.758Z</time></trkpt><trkpt lat="42.4548317" lon="11.6116083"><ele>72.0</ele><time>2026-04-18T10:54:53.758Z</time></trkpt><trkpt lat="42.4547567" lon="11.6115567"><ele>72.0</ele><time>2026-04-18T10:54:54.758Z</time></trkpt><trkpt lat="42.4546917" lon="11.6115"><ele>72.0</ele><time>2026-04-18T10:54:55.758Z</time></trkpt><trkpt lat="42.4546267" lon="11.61145"><ele>72.0</ele><time>2026-04-18T10:54:56.758Z</time></trkpt><trkpt lat="42.45456" lon="11.6113883"><ele>72.0</ele><time>2026-04-18T10:54:57.758Z</time></trkpt><trkpt lat="42.45449" lon="11.61132"><ele>72.0</ele><time>2026-04-18T10:54:58.758Z</time></trkpt><trkpt lat="42.45442" lon="11.6112617"><ele>72.0</ele><time>2026-04-18T10:54:59.758Z</time></trkpt><trkpt lat="42.4543483" lon="11.6111967"><ele>72.0</ele><time>2026-04-18T10:55:00.758Z</time></trkpt><trkpt lat="42.4542883" lon="11.61114"><ele>72.2</ele><time>2026-04-18T10:55:01.758Z</time></trkpt><trkpt lat="42.454215" lon="11.6110467"><ele>72.4</ele><time>2026-04-18T10:55:03.758Z</time></trkpt><trkpt lat="42.4541333" lon="11.6109667"><ele>72.6</ele><time>2026-04-18T10:55:05.758Z</time></trkpt><trkpt lat="42.4540283" lon="11.610865"><ele>72.8</ele><time>2026-04-18T10:55:07.758Z</time></trkpt><trkpt lat="42.4539683" lon="11.610805"><ele>73.0</ele><time>2026-04-18T10:55:08.758Z</time></trkpt><trkpt lat="42.4539083" lon="11.610755"><ele>73.0</ele><time>2026-04-18T10:55:09.758Z</time></trkpt><trkpt lat="42.4538533" lon="11.6106983"><ele>73.0</ele><time>2026-04-18T10:55:10.758Z</time></trkpt><trkpt lat="42.4537567" lon="11.6105967"><ele>73.0</ele><time>2026-04-18T10:55:12.758Z</time></trkpt><trkpt lat="42.4537033" lon="11.610545"><ele>73.0</ele><time>2026-04-18T10:55:13.758Z</time></trkpt><trkpt lat="42.45364" lon="11.610485"><ele>73.0</ele><time>2026-04-18T10:55:14.758Z</time></trkpt><trkpt lat="42.4535683" lon="11.610425"><ele>73.0</ele><time>2026-04-18T10:55:15.758Z</time></trkpt><trkpt lat="42.4535017" lon="11.610375"><ele>72.85714285714286</ele><time>2026-04-18T10:55:16.758Z</time></trkpt><trkpt lat="42.4534367" lon="11.6103183"><ele>72.71428571428572</ele><time>2026-04-18T10:55:17.758Z</time></trkpt><trkpt lat="42.453375" lon="11.6102617"><ele>72.57142857142858</ele><time>2026-04-18T10:55:18.758Z</time></trkpt><trkpt lat="42.4533183" lon="11.6101967"><ele>72.42857142857143</ele><time>2026-04-18T10:55:19.758Z</time></trkpt><trkpt lat="42.4532567" lon="11.6101383"><ele>72.28571428571429</ele><time>2026-04-18T10:55:20.758Z</time></trkpt><trkpt lat="42.4532" lon="11.610085"><ele>72.14285714285715</ele><time>2026-04-18T10:55:21.758Z</time></trkpt><trkpt lat="42.453145" lon="11.6100317"><ele>72.0</ele><time>2026-04-18T10:55:22.758Z</time></trkpt><trkpt lat="42.4530833" lon="11.609995"><ele>72.0</ele><time>2026-04-18T10:55:23.758Z</time></trkpt><trkpt lat="42.4529733" lon="11.6099517"><ele>72.0</ele><time>2026-04-18T10:55:25.758Z</time></trkpt><trkpt lat="42.4529117" lon="11.6099317"><ele>72.0</ele><time>2026-04-18T10:55:26.758Z</time></trkpt><trkpt lat="42.4528433" lon="11.60992"><ele>72.0</ele><time>2026-04-18T10:55:27.758Z</time></trkpt><trkpt lat="42.4527667" lon="11.6099067"><ele>72.0</ele><time>2026-04-18T10:55:28.757Z</time></trkpt><trkpt lat="42.4526933" lon="11.6098967"><ele>72.0</ele><time>2026-04-18T10:55:29.758Z</time></trkpt><trkpt lat="42.45261" lon="11.6098817"><ele>72.16666666666667</ele><time>2026-04-18T10:55:30.758Z</time></trkpt><trkpt lat="42.4525367" lon="11.6098667"><ele>72.33333333333333</ele><time>2026-04-18T10:55:31.758Z</time></trkpt><trkpt lat="42.4524517" lon="11.6098483"><ele>72.5</ele><time>2026-04-18T10:55:32.758Z</time></trkpt><trkpt lat="42.452365" lon="11.6098217"><ele>72.66666666666666</ele><time>2026-04-18T10:55:33.757Z</time></trkpt><trkpt lat="42.4522717" lon="11.6097817"><ele>72.83333333333333</ele><time>2026-04-18T10:55:34.758Z</time></trkpt><trkpt lat="42.4521783" lon="11.6097267"><ele>73.0</ele><time>2026-04-18T10:55:35.758Z</time></trkpt><trkpt lat="42.452095" lon="11.6096567"><ele>73.2</ele><time>2026-04-18T10:55:36.758Z</time></trkpt><trkpt lat="42.45202" lon="11.6095783"><ele>73.4</ele><time>2026-04-18T10:55:37.758Z</time></trkpt><trkpt lat="42.451955" lon="11.6094867"><ele>73.60000000000001</ele><time>2026-04-18T10:55:38.758Z</time></trkpt><trkpt lat="42.4518817" lon="11.6093867"><ele>73.8</ele><time>2026-04-18T10:55:39.758Z</time></trkpt><trkpt lat="42.4518117" lon="11.609275"><ele>74.0</ele><time>2026-04-18T10:55:40.758Z</time></trkpt><trkpt lat="42.4517517" lon="11.6091583"><ele>74.5</ele><time>2026-04-18T10:55:41.758Z</time></trkpt><trkpt lat="42.4516967" lon="11.60904"><ele>75.0</ele><time>2026-04-18T10:55:42.758Z</time></trkpt><trkpt lat="42.4516367" lon="11.60891"><ele>75.5</ele><time>2026-04-18T10:55:43.758Z</time></trkpt><trkpt lat="42.4515783" lon="11.6087633"><ele>76.0</ele><time>2026-04-18T10:55:44.758Z</time></trkpt><trkpt lat="42.45152" lon="11.6086233"><ele>77.25</ele><time>2026-04-18T10:55:45.758Z</time></trkpt><trkpt lat="42.4514467" lon="11.60849"><ele>78.5</ele><time>2026-04-18T10:55:46.758Z</time></trkpt><trkpt lat="42.451375" lon="11.608355"><ele>79.75</ele><time>2026-04-18T10:55:47.758Z</time></trkpt><trkpt lat="42.4512933" lon="11.6082167"><ele>81.0</ele><time>2026-04-18T10:55:48.758Z</time></trkpt><trkpt lat="42.451225" lon="11.6080917"><ele>80.8</ele><time>2026-04-18T10:55:49.758Z</time></trkpt><trkpt lat="42.4511717" lon="11.6079867"><ele>80.6</ele><time>2026-04-18T10:55:50.758Z</time></trkpt><trkpt lat="42.4511383" lon="11.607875"><ele>80.4</ele><time>2026-04-18T10:55:51.758Z</time></trkpt><trkpt lat="42.4511083" lon="11.607755"><ele>80.2</ele><time>2026-04-18T10:55:52.758Z</time></trkpt><trkpt lat="42.4510833" lon="11.6076217"><ele>80.0</ele><time>2026-04-18T10:55:53.758Z</time></trkpt><trkpt lat="42.4510567" lon="11.6074833"><ele>80.0</ele><time>2026-04-18T10:55:54.758Z</time></trkpt><trkpt lat="42.45102" lon="11.6073383"><ele>80.0</ele><time>2026-04-18T10:55:55.758Z</time></trkpt><trkpt lat="42.4509767" lon="11.6071867"><ele>80.0</ele><time>2026-04-18T10:55:56.758Z</time></trkpt><trkpt lat="42.4509333" lon="11.6070283"><ele>80.0</ele><time>2026-04-18T10:55:57.757Z</time></trkpt><trkpt lat="42.4508933" lon="11.60686"><ele>80.5</ele><time>2026-04-18T10:55:58.758Z</time></trkpt><trkpt lat="42.450855" lon="11.6066983"><ele>81.0</ele><time>2026-04-18T10:55:59.758Z</time></trkpt><trkpt lat="42.4508167" lon="11.60654"><ele>81.5</ele><time>2026-04-18T10:56:00.757Z</time></trkpt><trkpt lat="42.4507733" lon="11.6063917"><ele>82.0</ele><time>2026-04-18T10:56:01.758Z</time></trkpt><trkpt lat="42.4507367" lon="11.6062567"><ele>82.39999999999999</ele><time>2026-04-18T10:56:02.758Z</time></trkpt><trkpt lat="42.4507" lon="11.6061317"><ele>82.8</ele><time>2026-04-18T10:56:03.758Z</time></trkpt><trkpt lat="42.4506617" lon="11.6060033"><ele>83.2</ele><time>2026-04-18T10:56:04.758Z</time></trkpt><trkpt lat="42.4506267" lon="11.6058733"><ele>83.6</ele><time>2026-04-18T10:56:05.758Z</time></trkpt><trkpt lat="42.4505867" lon="11.60574"><ele>84.0</ele><time>2026-04-18T10:56:06.758Z</time></trkpt><trkpt lat="42.4505483" lon="11.6055983"><ele>84.0</ele><time>2026-04-18T10:56:07.758Z</time></trkpt><trkpt lat="42.4505067" lon="11.6054583"><ele>84.0</ele><time>2026-04-18T10:56:08.758Z</time></trkpt><trkpt lat="42.4504667" lon="11.605325"><ele>84.0</ele><time>2026-04-18T10:56:09.757Z</time></trkpt><trkpt lat="42.4504183" lon="11.6051917"><ele>84.0</ele><time>2026-04-18T10:56:10.758Z</time></trkpt><trkpt lat="42.45037" lon="11.60507"><ele>84.0</ele><time>2026-04-18T10:56:11.758Z</time></trkpt><trkpt lat="42.4503167" lon="11.60495"><ele>84.0</ele><time>2026-04-18T10:56:12.758Z</time></trkpt><trkpt lat="42.4502583" lon="11.604855"><ele>84.0</ele><time>2026-04-18T10:56:13.758Z</time></trkpt><trkpt lat="42.4501933" lon="11.60477"><ele>84.0</ele><time>2026-04-18T10:56:14.758Z</time></trkpt><trkpt lat="42.4501167" lon="11.6046867"><ele>84.0</ele><time>2026-04-18T10:56:15.758Z</time></trkpt><trkpt lat="42.4500417" lon="11.60461"><ele>84.0</ele><time>2026-04-18T10:56:16.758Z</time></trkpt><trkpt lat="42.44995" lon="11.604525"><ele>84.5</ele><time>2026-04-18T10:56:17.758Z</time></trkpt><trkpt lat="42.4498567" lon="11.6044217"><ele>85.0</ele><time>2026-04-18T10:56:18.758Z</time></trkpt><trkpt lat="42.4497583" lon="11.6043133"><ele>85.5</ele><time>2026-04-18T10:56:19.758Z</time></trkpt><trkpt lat="42.4496533" lon="11.6042033"><ele>86.0</ele><time>2026-04-18T10:56:20.758Z</time></trkpt><trkpt lat="42.44956" lon="11.6041067"><ele>86.0</ele><time>2026-04-18T10:56:21.758Z</time></trkpt><trkpt lat="42.4494817" lon="11.6040183"><ele>86.0</ele><time>2026-04-18T10:56:22.758Z</time></trkpt><trkpt lat="42.4494117" lon="11.6039383"><ele>86.0</ele><time>2026-04-18T10:56:23.758Z</time></trkpt><trkpt lat="42.44935" lon="11.6038683"><ele>86.0</ele><time>2026-04-18T10:56:24.758Z</time></trkpt><trkpt lat="42.4492867" lon="11.6038183"><ele>86.0</ele><time>2026-04-18T10:56:25.758Z</time></trkpt><trkpt lat="42.4492" lon="11.6037817"><ele>86.0</ele><time>2026-04-18T10:56:26.758Z</time></trkpt><trkpt lat="42.4491083" lon="11.6037733"><ele>86.0</ele><time>2026-04-18T10:56:27.758Z</time></trkpt><trkpt lat="42.4490217" lon="11.6037817"><ele>86.0</ele><time>2026-04-18T10:56:28.758Z</time></trkpt><trkpt lat="42.4489333" lon="11.6038083"><ele>86.0</ele><time>2026-04-18T10:56:29.758Z</time></trkpt><trkpt lat="42.4488383" lon="11.6038417"><ele>86.0</ele><time>2026-04-18T10:56:30.758Z</time></trkpt><trkpt lat="42.4487417" lon="11.6038867"><ele>86.0</ele><time>2026-04-18T10:56:31.758Z</time></trkpt><trkpt lat="42.4486433" lon="11.6039233"><ele>87.0</ele><time>2026-04-18T10:56:32.758Z</time></trkpt><trkpt lat="42.4485167" lon="11.6039667"><ele>88.0</ele><time>2026-04-18T10:56:33.758Z</time></trkpt><trkpt lat="42.44839" lon="11.6040133"><ele>89.0</ele><time>2026-04-18T10:56:34.757Z</time></trkpt><trkpt lat="42.4482667" lon="11.6040717"><ele>90.0</ele><time>2026-04-18T10:56:35.758Z</time></trkpt><trkpt lat="42.4481467" lon="11.6041233"><ele>90.0</ele><time>2026-04-18T10:56:36.758Z</time></trkpt><trkpt lat="42.4480333" lon="11.6041567"><ele>90.0</ele><time>2026-04-18T10:56:37.758Z</time></trkpt><trkpt lat="42.4479183" lon="11.604195"><ele>90.0</ele><time>2026-04-18T10:56:38.758Z</time></trkpt><trkpt lat="42.4478067" lon="11.604235"><ele>90.0</ele><time>2026-04-18T10:56:39.758Z</time></trkpt><trkpt lat="42.447705" lon="11.6042733"><ele>91.0</ele><time>2026-04-18T10:56:40.758Z</time></trkpt><trkpt lat="42.4475917" lon="11.60431"><ele>92.0</ele><time>2026-04-18T10:56:41.758Z</time></trkpt><trkpt lat="42.4474833" lon="11.6043517"><ele>93.0</ele><time>2026-04-18T10:56:42.758Z</time></trkpt><trkpt lat="42.4473667" lon="11.6044"><ele>94.0</ele><time>2026-04-18T10:56:43.758Z</time></trkpt><trkpt lat="42.4472517" lon="11.6044433"><ele>94.0</ele><time>2026-04-18T10:56:44.758Z</time></trkpt><trkpt lat="42.44714" lon="11.6044883"><ele>94.0</ele><time>2026-04-18T10:56:45.758Z</time></trkpt><trkpt lat="42.4470417" lon="11.604515"><ele>94.0</ele><time>2026-04-18T10:56:46.758Z</time></trkpt><trkpt lat="42.446945" lon="11.60455"><ele>94.0</ele><time>2026-04-18T10:56:47.758Z</time></trkpt><trkpt lat="42.4468567" lon="11.6045717"><ele>94.0</ele><time>2026-04-18T10:56:48.758Z</time></trkpt><trkpt lat="42.4467683" lon="11.60459"><ele>94.0</ele><time>2026-04-18T10:56:49.758Z</time></trkpt><trkpt lat="42.44669" lon="11.6046117"><ele>94.0</ele><time>2026-04-18T10:56:50.758Z</time></trkpt><trkpt lat="42.4466167" lon="11.6046283"><ele>94.0</ele><time>2026-04-18T10:56:51.758Z</time></trkpt><trkpt lat="42.446525" lon="11.6046483"><ele>94.0</ele><time>2026-04-18T10:56:53.758Z</time></trkpt><trkpt lat="42.4464617" lon="11.6046733"><ele>94.0</ele><time>2026-04-18T10:56:54.758Z</time></trkpt><trkpt lat="42.4463683" lon="11.6047367"><ele>94.0</ele><time>2026-04-18T10:56:55.758Z</time></trkpt><trkpt lat="42.44626" lon="11.604805"><ele>94.0</ele><time>2026-04-18T10:56:56.757Z</time></trkpt><trkpt lat="42.4461383" lon="11.60489"><ele>94.0</ele><time>2026-04-18T10:56:57.757Z</time></trkpt><trkpt lat="42.4459917" lon="11.604985"><ele>94.0</ele><time>2026-04-18T10:56:58.757Z</time></trkpt><trkpt lat="42.4458467" lon="11.60508"><ele>94.0</ele><time>2026-04-18T10:56:59.757Z</time></trkpt><trkpt lat="42.445705" lon="11.6051733"><ele>94.0</ele><time>2026-04-18T10:57:00.757Z</time></trkpt><trkpt lat="42.445565" lon="11.605275"><ele>94.0</ele><time>2026-04-18T10:57:01.757Z</time></trkpt><trkpt lat="42.4454233" lon="11.6053717"><ele>93.33333333333333</ele><time>2026-04-18T10:57:02.756Z</time></trkpt><trkpt lat="42.445285" lon="11.6054683"><ele>92.66666666666667</ele><time>2026-04-18T10:57:03.757Z</time></trkpt><trkpt lat="42.445145" lon="11.6055617"><ele>92.0</ele><time>2026-04-18T10:57:04.757Z</time></trkpt><trkpt lat="42.4449983" lon="11.6056567"><ele>92.0</ele><time>2026-04-18T10:57:05.756Z</time></trkpt><trkpt lat="42.44486" lon="11.60575"><ele>92.0</ele><time>2026-04-18T10:57:06.757Z</time></trkpt><trkpt lat="42.4447233" lon="11.605845"><ele>92.0</ele><time>2026-04-18T10:57:07.757Z</time></trkpt><trkpt lat="42.4445833" lon="11.6059333"><ele>90.66666666666667</ele><time>2026-04-18T10:57:08.757Z</time></trkpt><trkpt lat="42.4444367" lon="11.606035"><ele>89.33333333333333</ele><time>2026-04-18T10:57:09.757Z</time></trkpt><trkpt lat="42.4442883" lon="11.60614"><ele>88.0</ele><time>2026-04-18T10:57:10.757Z</time></trkpt><trkpt lat="42.44414" lon="11.6062417"><ele>88.0</ele><time>2026-04-18T10:57:11.756Z</time></trkpt><trkpt lat="42.4439833" lon="11.6063467"><ele>88.0</ele><time>2026-04-18T10:57:12.757Z</time></trkpt><trkpt lat="42.4438333" lon="11.6064467"><ele>88.0</ele><time>2026-04-18T10:57:13.757Z</time></trkpt><trkpt lat="42.4436833" lon="11.6065483"><ele>87.0</ele><time>2026-04-18T10:57:14.757Z</time></trkpt><trkpt lat="42.44353" lon="11.6066517"><ele>86.0</ele><time>2026-04-18T10:57:15.757Z</time></trkpt><trkpt lat="42.4433717" lon="11.6067583"><ele>85.0</ele><time>2026-04-18T10:57:16.757Z</time></trkpt><trkpt lat="42.4432117" lon="11.6068633"><ele>85.0</ele><time>2026-04-18T10:57:17.757Z</time></trkpt><trkpt lat="42.4430567" lon="11.6069717"><ele>85.0</ele><time>2026-04-18T10:57:18.757Z</time></trkpt><trkpt lat="42.4428883" lon="11.6070783"><ele>85.0</ele><time>2026-04-18T10:57:19.757Z</time></trkpt><trkpt lat="42.4427217" lon="11.6071883"><ele>85.33333333333333</ele><time>2026-04-18T10:57:20.757Z</time></trkpt><trkpt lat="42.4425533" lon="11.607305"><ele>85.66666666666667</ele><time>2026-04-18T10:57:21.757Z</time></trkpt><trkpt lat="42.4424" lon="11.6074233"><ele>86.0</ele><time>2026-04-18T10:57:22.757Z</time></trkpt><trkpt lat="42.4422517" lon="11.60755"><ele>85.66666666666667</ele><time>2026-04-18T10:57:23.757Z</time></trkpt><trkpt lat="42.4421017" lon="11.607685"><ele>85.33333333333333</ele><time>2026-04-18T10:57:24.757Z</time></trkpt><trkpt lat="42.441955" lon="11.60782"><ele>85.0</ele><time>2026-04-18T10:57:25.757Z</time></trkpt><trkpt lat="42.44181" lon="11.6079567"><ele>85.0</ele><time>2026-04-18T10:57:26.757Z</time></trkpt><trkpt lat="42.4416633" lon="11.6080867"><ele>85.0</ele><time>2026-04-18T10:57:27.757Z</time></trkpt><trkpt lat="42.44151" lon="11.6082267"><ele>85.0</ele><time>2026-04-18T10:57:28.756Z</time></trkpt><trkpt lat="42.4413583" lon="11.6083667"><ele>85.33333333333333</ele><time>2026-04-18T10:57:29.757Z</time></trkpt><trkpt lat="42.4412017" lon="11.608515"><ele>85.66666666666667</ele><time>2026-04-18T10:57:30.757Z</time></trkpt><trkpt lat="42.44105" lon="11.6086633"><ele>86.0</ele><time>2026-04-18T10:57:31.757Z</time></trkpt><trkpt lat="42.4408967" lon="11.6088067"><ele>86.33333333333334</ele><time>2026-04-18T10:57:32.757Z</time></trkpt><trkpt lat="42.4407483" lon="11.6089517"><ele>86.66666666666667</ele><time>2026-04-18T10:57:33.757Z</time></trkpt><trkpt lat="42.440605" lon="11.609085"><ele>87.0</ele><time>2026-04-18T10:57:34.757Z</time></trkpt><trkpt lat="42.4404633" lon="11.6092233"><ele>87.33333333333333</ele><time>2026-04-18T10:57:35.757Z</time></trkpt><trkpt lat="42.4403283" lon="11.609355"><ele>87.66666666666666</ele><time>2026-04-18T10:57:36.757Z</time></trkpt><trkpt lat="42.4401967" lon="11.6094817"><ele>88.0</ele><time>2026-04-18T10:57:37.757Z</time></trkpt><trkpt lat="42.4400583" lon="11.6096067"><ele>89.0</ele><time>2026-04-18T10:57:38.757Z</time></trkpt><trkpt lat="42.4399233" lon="11.60972"><ele>90.0</ele><time>2026-04-18T10:57:39.757Z</time></trkpt><trkpt lat="42.43979" lon="11.6098417"><ele>91.0</ele><time>2026-04-18T10:57:40.757Z</time></trkpt><trkpt lat="42.4396633" lon="11.6099683"><ele>90.33333333333333</ele><time>2026-04-18T10:57:41.757Z</time></trkpt><trkpt lat="42.4395283" lon="11.6101"><ele>89.66666666666667</ele><time>2026-04-18T10:57:42.757Z</time></trkpt><trkpt lat="42.4393967" lon="11.6102283"><ele>89.0</ele><time>2026-04-18T10:57:43.757Z</time></trkpt><trkpt lat="42.4392533" lon="11.6103567"><ele>89.0</ele><time>2026-04-18T10:57:44.757Z</time></trkpt><trkpt lat="42.439105" lon="11.61049"><ele>89.0</ele><time>2026-04-18T10:57:45.757Z</time></trkpt><trkpt lat="42.4389567" lon="11.6106183"><ele>89.0</ele><time>2026-04-18T10:57:46.757Z</time></trkpt><trkpt lat="42.4388117" lon="11.6107467"><ele>89.66666666666667</ele><time>2026-04-18T10:57:47.757Z</time></trkpt><trkpt lat="42.4386617" lon="11.6108833"><ele>90.33333333333333</ele><time>2026-04-18T10:57:48.757Z</time></trkpt><trkpt lat="42.4385117" lon="11.6110217"><ele>91.0</ele><time>2026-04-18T10:57:49.757Z</time></trkpt><trkpt lat="42.4383533" lon="11.6111433"><ele>91.0</ele><time>2026-04-18T10:57:50.757Z</time></trkpt><trkpt lat="42.4381867" lon="11.6112733"><ele>91.0</ele><time>2026-04-18T10:57:51.757Z</time></trkpt><trkpt lat="42.43803" lon="11.6113967"><ele>91.0</ele><time>2026-04-18T10:57:52.756Z</time></trkpt><trkpt lat="42.43789" lon="11.6115083"><ele>91.0</ele><time>2026-04-18T10:57:53.757Z</time></trkpt><trkpt lat="42.4377567" lon="11.6116017"><ele>91.0</ele><time>2026-04-18T10:57:54.756Z</time></trkpt><trkpt lat="42.437635" lon="11.6116967"><ele>91.0</ele><time>2026-04-18T10:57:55.757Z</time></trkpt><trkpt lat="42.4375117" lon="11.61179"><ele>91.0</ele><time>2026-04-18T10:57:56.757Z</time></trkpt><trkpt lat="42.43738" lon="11.6118933"><ele>91.0</ele><time>2026-04-18T10:57:57.756Z</time></trkpt><trkpt lat="42.4372383" lon="11.612005"><ele>91.0</ele><time>2026-04-18T10:57:58.757Z</time></trkpt><trkpt lat="42.4370883" lon="11.6121183"><ele>91.0</ele><time>2026-04-18T10:57:59.756Z</time></trkpt><trkpt lat="42.4369483" lon="11.6122333"><ele>90.0</ele><time>2026-04-18T10:58:00.757Z</time></trkpt><trkpt lat="42.4367983" lon="11.6123483"><ele>89.0</ele><time>2026-04-18T10:58:01.756Z</time></trkpt><trkpt lat="42.4366533" lon="11.6124567"><ele>88.0</ele><time>2026-04-18T10:58:02.757Z</time></trkpt><trkpt lat="42.43651" lon="11.6125767"><ele>88.0</ele><time>2026-04-18T10:58:03.757Z</time></trkpt><trkpt lat="42.4363683" lon="11.6127017"><ele>88.0</ele><time>2026-04-18T10:58:04.757Z</time></trkpt><trkpt lat="42.43623" lon="11.6128383"><ele>88.0</ele><time>2026-04-18T10:58:05.757Z</time></trkpt><trkpt lat="42.4360883" lon="11.61297"><ele>87.66666666666666</ele><time>2026-04-18T10:58:06.756Z</time></trkpt><trkpt lat="42.4359467" lon="11.61311"><ele>87.33333333333333</ele><time>2026-04-18T10:58:07.756Z</time></trkpt><trkpt lat="42.4358033" lon="11.6132483"><ele>87.0</ele><time>2026-04-18T10:58:08.757Z</time></trkpt><trkpt lat="42.435665" lon="11.6133833"><ele>87.0</ele><time>2026-04-18T10:58:09.757Z</time></trkpt><trkpt lat="42.4355217" lon="11.613525"><ele>87.0</ele><time>2026-04-18T10:58:10.756Z</time></trkpt><trkpt lat="42.435375" lon="11.6136683"><ele>87.0</ele><time>2026-04-18T10:58:11.756Z</time></trkpt><trkpt lat="42.4352233" lon="11.6138217"><ele>86.0</ele><time>2026-04-18T10:58:12.757Z</time></trkpt><trkpt lat="42.435075" lon="11.6139667"><ele>85.0</ele><time>2026-04-18T10:58:13.757Z</time></trkpt><trkpt lat="42.43493" lon="11.6141033"><ele>84.0</ele><time>2026-04-18T10:58:14.757Z</time></trkpt><trkpt lat="42.4347917" lon="11.61424"><ele>84.0</ele><time>2026-04-18T10:58:15.757Z</time></trkpt><trkpt lat="42.4346583" lon="11.614365"><ele>84.0</ele><time>2026-04-18T10:58:16.757Z</time></trkpt><trkpt lat="42.434515" lon="11.6144933"><ele>84.0</ele><time>2026-04-18T10:58:17.757Z</time></trkpt><trkpt lat="42.4343817" lon="11.6146283"><ele>83.33333333333333</ele><time>2026-04-18T10:58:18.757Z</time></trkpt><trkpt lat="42.4342433" lon="11.6147683"><ele>82.66666666666666</ele><time>2026-04-18T10:58:19.757Z</time></trkpt><trkpt lat="42.4341067" lon="11.614895"><ele>82.0</ele><time>2026-04-18T10:58:20.757Z</time></trkpt><trkpt lat="42.4339733" lon="11.6150417"><ele>82.0</ele><time>2026-04-18T10:58:21.757Z</time></trkpt><trkpt lat="42.433835" lon="11.6151717"><ele>82.0</ele><time>2026-04-18T10:58:22.757Z</time></trkpt><trkpt lat="42.433695" lon="11.61531"><ele>82.0</ele><time>2026-04-18T10:58:23.757Z</time></trkpt><trkpt lat="42.4335467" lon="11.6154417"><ele>80.66666666666666</ele><time>2026-04-18T10:58:24.757Z</time></trkpt><trkpt lat="42.4334017" lon="11.6155717"><ele>79.33333333333333</ele><time>2026-04-18T10:58:25.757Z</time></trkpt><trkpt lat="42.4332633" lon="11.6157033"><ele>78.0</ele><time>2026-04-18T10:58:26.757Z</time></trkpt><trkpt lat="42.433125" lon="11.6158317"><ele>78.0</ele><time>2026-04-18T10:58:27.757Z</time></trkpt><trkpt lat="42.4329933" lon="11.615965"><ele>78.0</ele><time>2026-04-18T10:58:28.757Z</time></trkpt><trkpt lat="42.4328767" lon="11.6160867"><ele>78.0</ele><time>2026-04-18T10:58:29.757Z</time></trkpt><trkpt lat="42.4327817" lon="11.6161967"><ele>78.0</ele><time>2026-04-18T10:58:30.757Z</time></trkpt><trkpt lat="42.4327" lon="11.6163"><ele>77.83333333333333</ele><time>2026-04-18T10:58:31.756Z</time></trkpt><trkpt lat="42.4326367" lon="11.6163983"><ele>77.66666666666667</ele><time>2026-04-18T10:58:32.757Z</time></trkpt><trkpt lat="42.4325883" lon="11.6164883"><ele>77.5</ele><time>2026-04-18T10:58:33.756Z</time></trkpt><trkpt lat="42.432555" lon="11.6165667"><ele>77.33333333333334</ele><time>2026-04-18T10:58:34.756Z</time></trkpt><trkpt lat="42.432505" lon="11.6167"><ele>77.16666666666667</ele><time>2026-04-18T10:58:36.757Z</time></trkpt><trkpt lat="42.4324833" lon="11.6167983"><ele>77.0</ele><time>2026-04-18T10:58:38.757Z</time></trkpt><trkpt lat="42.432485" lon="11.6169367"><ele>76.8</ele><time>2026-04-18T10:58:40.757Z</time></trkpt><trkpt lat="42.4325117" lon="11.617025"><ele>76.6</ele><time>2026-04-18T10:58:41.757Z</time></trkpt><trkpt lat="42.43254" lon="11.6171317"><ele>76.39999999999999</ele><time>2026-04-18T10:58:42.757Z</time></trkpt><trkpt lat="42.4325633" lon="11.61726"><ele>76.2</ele><time>2026-04-18T10:58:43.757Z</time></trkpt><trkpt lat="42.4325817" lon="11.6173917"><ele>76.0</ele><time>2026-04-18T10:58:44.757Z</time></trkpt><trkpt lat="42.43261" lon="11.61754"><ele>76.0</ele><time>2026-04-18T10:58:45.757Z</time></trkpt><trkpt lat="42.4326367" lon="11.617705"><ele>76.0</ele><time>2026-04-18T10:58:46.757Z</time></trkpt><trkpt lat="42.4326533" lon="11.61786"><ele>76.0</ele><time>2026-04-18T10:58:47.757Z</time></trkpt><trkpt lat="42.4326717" lon="11.6180083"><ele>76.0</ele><time>2026-04-18T10:58:48.757Z</time></trkpt><trkpt lat="42.4326917" lon="11.61815"><ele>75.5</ele><time>2026-04-18T10:58:49.757Z</time></trkpt><trkpt lat="42.4327017" lon="11.618305"><ele>75.0</ele><time>2026-04-18T10:58:50.757Z</time></trkpt><trkpt lat="42.4327" lon="11.6184667"><ele>74.5</ele><time>2026-04-18T10:58:51.757Z</time></trkpt><trkpt lat="42.4326833" lon="11.6186367"><ele>74.0</ele><time>2026-04-18T10:58:52.757Z</time></trkpt><trkpt lat="42.4326533" lon="11.6188117"><ele>74.0</ele><time>2026-04-18T10:58:53.756Z</time></trkpt><trkpt lat="42.4326017" lon="11.61901"><ele>74.0</ele><time>2026-04-18T10:58:54.756Z</time></trkpt><trkpt lat="42.4325483" lon="11.61921"><ele>74.0</ele><time>2026-04-18T10:58:55.757Z</time></trkpt><trkpt lat="42.4324967" lon="11.6193983"><ele>74.66666666666667</ele><time>2026-04-18T10:58:56.757Z</time></trkpt><trkpt lat="42.43244" lon="11.61958"><ele>75.33333333333333</ele><time>2026-04-18T10:58:57.757Z</time></trkpt><trkpt lat="42.43238" lon="11.619775"><ele>76.0</ele><time>2026-04-18T10:58:58.756Z</time></trkpt><trkpt lat="42.4323167" lon="11.6199783"><ele>76.0</ele><time>2026-04-18T10:58:59.757Z</time></trkpt><trkpt lat="42.4322583" lon="11.620185"><ele>76.0</ele><time>2026-04-18T10:59:00.757Z</time></trkpt><trkpt lat="42.4322017" lon="11.6203917"><ele>76.0</ele><time>2026-04-18T10:59:01.757Z</time></trkpt><trkpt lat="42.43214" lon="11.6206067"><ele>75.33333333333333</ele><time>2026-04-18T10:59:02.757Z</time></trkpt><trkpt lat="42.4320833" lon="11.620815"><ele>74.66666666666667</ele><time>2026-04-18T10:59:03.757Z</time></trkpt><trkpt lat="42.4320267" lon="11.6210183"><ele>74.0</ele><time>2026-04-18T10:59:04.756Z</time></trkpt><trkpt lat="42.4319683" lon="11.62121"><ele>74.0</ele><time>2026-04-18T10:59:05.757Z</time></trkpt><trkpt lat="42.4319117" lon="11.621405"><ele>74.0</ele><time>2026-04-18T10:59:06.757Z</time></trkpt><trkpt lat="42.4318667" lon="11.6216117"><ele>74.0</ele><time>2026-04-18T10:59:07.757Z</time></trkpt><trkpt lat="42.4318283" lon="11.6218217"><ele>74.33333333333334</ele><time>2026-04-18T10:59:08.757Z</time></trkpt><trkpt lat="42.4317933" lon="11.6220267"><ele>74.66666666666667</ele><time>2026-04-18T10:59:09.757Z</time></trkpt><trkpt lat="42.431765" lon="11.6222333"><ele>75.0</ele><time>2026-04-18T10:59:10.756Z</time></trkpt><trkpt lat="42.4317233" lon="11.6224383"><ele>75.0</ele><time>2026-04-18T10:59:11.757Z</time></trkpt><trkpt lat="42.4316817" lon="11.62265"><ele>75.0</ele><time>2026-04-18T10:59:12.757Z</time></trkpt><trkpt lat="42.4316483" lon="11.6228617"><ele>75.0</ele><time>2026-04-18T10:59:13.757Z</time></trkpt><trkpt lat="42.4316083" lon="11.6230767"><ele>75.0</ele><time>2026-04-18T10:59:14.757Z</time></trkpt><trkpt lat="42.4315717" lon="11.6232983"><ele>75.0</ele><time>2026-04-18T10:59:15.757Z</time></trkpt><trkpt lat="42.4315317" lon="11.6235067"><ele>75.0</ele><time>2026-04-18T10:59:16.756Z</time></trkpt><trkpt lat="42.4314967" lon="11.6237167"><ele>75.0</ele><time>2026-04-18T10:59:17.757Z</time></trkpt><trkpt lat="42.4314567" lon="11.6239267"><ele>75.0</ele><time>2026-04-18T10:59:18.757Z</time></trkpt><trkpt lat="42.4314217" lon="11.6241267"><ele>75.0</ele><time>2026-04-18T10:59:19.757Z</time></trkpt><trkpt lat="42.4313783" lon="11.6243317"><ele>74.0</ele><time>2026-04-18T10:59:20.756Z</time></trkpt><trkpt lat="42.431345" lon="11.6245417"><ele>73.0</ele><time>2026-04-18T10:59:21.757Z</time></trkpt><trkpt lat="42.4313033" lon="11.6247517"><ele>72.0</ele><time>2026-04-18T10:59:22.757Z</time></trkpt><trkpt lat="42.4312683" lon="11.6249583"><ele>72.0</ele><time>2026-04-18T10:59:23.757Z</time></trkpt><trkpt lat="42.431245" lon="11.6251383"><ele>72.0</ele><time>2026-04-18T10:59:24.757Z</time></trkpt><trkpt lat="42.4312167" lon="11.6252967"><ele>72.0</ele><time>2026-04-18T10:59:25.757Z</time></trkpt><trkpt lat="42.4311967" lon="11.6254467"><ele>72.0</ele><time>2026-04-18T10:59:26.757Z</time></trkpt><trkpt lat="42.4311833" lon="11.625595"><ele>71.83333333333333</ele><time>2026-04-18T10:59:27.757Z</time></trkpt><trkpt lat="42.4311783" lon="11.62574"><ele>71.66666666666667</ele><time>2026-04-18T10:59:28.757Z</time></trkpt><trkpt lat="42.4311883" lon="11.6258667"><ele>71.5</ele><time>2026-04-18T10:59:29.757Z</time></trkpt><trkpt lat="42.4312017" lon="11.625985"><ele>71.33333333333334</ele><time>2026-04-18T10:59:30.757Z</time></trkpt><trkpt lat="42.4312133" lon="11.6260967"><ele>71.16666666666667</ele><time>2026-04-18T10:59:31.757Z</time></trkpt><trkpt lat="42.4312283" lon="11.6261917"><ele>71.0</ele><time>2026-04-18T10:59:32.757Z</time></trkpt><trkpt lat="42.4312417" lon="11.6262833"><ele>70.83333333333334</ele><time>2026-04-18T10:59:33.757Z</time></trkpt><trkpt lat="42.43126" lon="11.6264283"><ele>70.66666666666667</ele><time>2026-04-18T10:59:35.757Z</time></trkpt><trkpt lat="42.431245" lon="11.6265167"><ele>70.5</ele><time>2026-04-18T10:59:37.757Z</time></trkpt><trkpt lat="42.43117" lon="11.6265517"><ele>70.33333333333333</ele><time>2026-04-18T10:59:39.757Z</time></trkpt><trkpt lat="42.4311017" lon="11.626555"><ele>70.16666666666666</ele><time>2026-04-18T10:59:40.757Z</time></trkpt><trkpt lat="42.4310167" lon="11.6265383"><ele>70.0</ele><time>2026-04-18T10:59:41.757Z</time></trkpt><trkpt lat="42.430925" lon="11.6265233"><ele>70.0</ele><time>2026-04-18T10:59:42.757Z</time></trkpt><trkpt lat="42.4308333" lon="11.6265283"><ele>70.0</ele><time>2026-04-18T10:59:43.757Z</time></trkpt><trkpt lat="42.43074" lon="11.626545"><ele>70.0</ele><time>2026-04-18T10:59:44.757Z</time></trkpt><trkpt lat="42.4306283" lon="11.626575"><ele>70.0</ele><time>2026-04-18T10:59:45.757Z</time></trkpt><trkpt lat="42.4305" lon="11.626635"><ele>70.0</ele><time>2026-04-18T10:59:46.757Z</time></trkpt><trkpt lat="42.4303733" lon="11.6267017"><ele>70.25</ele><time>2026-04-18T10:59:47.757Z</time></trkpt><trkpt lat="42.43025" lon="11.6267617"><ele>70.5</ele><time>2026-04-18T10:59:48.757Z</time></trkpt><trkpt lat="42.4301233" lon="11.6268283"><ele>70.75</ele><time>2026-04-18T10:59:49.757Z</time></trkpt><trkpt lat="42.4299983" lon="11.626895"><ele>71.0</ele><time>2026-04-18T10:59:50.757Z</time></trkpt><trkpt lat="42.4298717" lon="11.626955"><ele>70.75</ele><time>2026-04-18T10:59:51.757Z</time></trkpt><trkpt lat="42.4297433" lon="11.627025"><ele>70.5</ele><time>2026-04-18T10:59:52.757Z</time></trkpt><trkpt lat="42.4296083" lon="11.627095"><ele>70.25</ele><time>2026-04-18T10:59:53.757Z</time></trkpt><trkpt lat="42.4294783" lon="11.6271633"><ele>70.0</ele><time>2026-04-18T10:59:54.757Z</time></trkpt><trkpt lat="42.4293633" lon="11.62723"><ele>70.0</ele><time>2026-04-18T10:59:55.757Z</time></trkpt><trkpt lat="42.4292633" lon="11.627285"><ele>70.0</ele><time>2026-04-18T10:59:56.757Z</time></trkpt><trkpt lat="42.4291567" lon="11.6273317"><ele>70.0</ele><time>2026-04-18T10:59:57.757Z</time></trkpt><trkpt lat="42.4290533" lon="11.6273783"><ele>70.0</ele><time>2026-04-18T10:59:58.757Z</time></trkpt><trkpt lat="42.4289467" lon="11.62742"><ele>70.0</ele><time>2026-04-18T10:59:59.757Z</time></trkpt><trkpt lat="42.4288417" lon="11.627455"><ele>70.25</ele><time>2026-04-18T11:00:00.757Z</time></trkpt><trkpt lat="42.4287317" lon="11.627485"><ele>70.5</ele><time>2026-04-18T11:00:01.757Z</time></trkpt><trkpt lat="42.4286133" lon="11.627495"><ele>70.75</ele><time>2026-04-18T11:00:02.757Z</time></trkpt><trkpt lat="42.42849" lon="11.62749"><ele>71.0</ele><time>2026-04-18T11:00:03.757Z</time></trkpt><trkpt lat="42.4283633" lon="11.6274683"><ele>71.0</ele><time>2026-04-18T11:00:04.757Z</time></trkpt><trkpt lat="42.428235" lon="11.6274367"><ele>71.0</ele><time>2026-04-18T11:00:05.757Z</time></trkpt><trkpt lat="42.4281017" lon="11.6274033"><ele>71.0</ele><time>2026-04-18T11:00:06.757Z</time></trkpt><trkpt lat="42.4279667" lon="11.6273517"><ele>71.0</ele><time>2026-04-18T11:00:07.757Z</time></trkpt><trkpt lat="42.4278367" lon="11.6273017"><ele>70.75</ele><time>2026-04-18T11:00:08.757Z</time></trkpt><trkpt lat="42.4277083" lon="11.6272517"><ele>70.5</ele><time>2026-04-18T11:00:09.757Z</time></trkpt><trkpt lat="42.4275783" lon="11.6271983"><ele>70.25</ele><time>2026-04-18T11:00:10.757Z</time></trkpt><trkpt lat="42.4274467" lon="11.6271367"><ele>70.0</ele><time>2026-04-18T11:00:11.757Z</time></trkpt><trkpt lat="42.42732" lon="11.6270717"><ele>70.0</ele><time>2026-04-18T11:00:12.757Z</time></trkpt><trkpt lat="42.4271917" lon="11.6270033"><ele>70.0</ele><time>2026-04-18T11:00:13.756Z</time></trkpt><trkpt lat="42.4270567" lon="11.6269433"><ele>70.0</ele><time>2026-04-18T11:00:14.757Z</time></trkpt><trkpt lat="42.426915" lon="11.62689"><ele>70.0</ele><time>2026-04-18T11:00:15.757Z</time></trkpt><trkpt lat="42.42677" lon="11.626845"><ele>70.25</ele><time>2026-04-18T11:00:16.757Z</time></trkpt><trkpt lat="42.4266367" lon="11.6268133"><ele>70.5</ele><time>2026-04-18T11:00:17.757Z</time></trkpt><trkpt lat="42.42652" lon="11.6267867"><ele>70.75</ele><time>2026-04-18T11:00:18.757Z</time></trkpt><trkpt lat="42.426415" lon="11.6267717"><ele>71.0</ele><time>2026-04-18T11:00:19.757Z</time></trkpt><trkpt lat="42.426315" lon="11.626775"><ele>71.0</ele><time>2026-04-18T11:00:20.757Z</time></trkpt><trkpt lat="42.42623" lon="11.6267817"><ele>71.0</ele><time>2026-04-18T11:00:21.757Z</time></trkpt><trkpt lat="42.4261517" lon="11.6267983"><ele>71.0</ele><time>2026-04-18T11:00:22.757Z</time></trkpt><trkpt lat="42.42608" lon="11.6268167"><ele>71.0</ele><time>2026-04-18T11:00:23.757Z</time></trkpt><trkpt lat="42.4260133" lon="11.6268233"><ele>71.0</ele><time>2026-04-18T11:00:24.756Z</time></trkpt><trkpt lat="42.4259033" lon="11.6268383"><ele>71.0</ele><time>2026-04-18T11:00:26.757Z</time></trkpt><trkpt lat="42.4258083" lon="11.62687"><ele>71.0</ele><time>2026-04-18T11:00:28.757Z</time></trkpt><trkpt lat="42.425725" lon="11.6269133"><ele>71.0</ele><time>2026-04-18T11:00:30.757Z</time></trkpt><trkpt lat="42.4256517" lon="11.6269717"><ele>71.0</ele><time>2026-04-18T11:00:32.756Z</time></trkpt><trkpt lat="42.4255867" lon="11.62703"><ele>71.0</ele><time>2026-04-18T11:00:34.757Z</time></trkpt><trkpt lat="42.4255417" lon="11.62709"><ele>71.0</ele><time>2026-04-18T11:00:36.757Z</time></trkpt><trkpt lat="42.425485" lon="11.6271783"><ele>71.0</ele><time>2026-04-18T11:00:39.757Z</time></trkpt><trkpt lat="42.4254583" lon="11.6272633"><ele>68.0</ele><time>2026-04-18T11:00:42.756Z</time></trkpt><trkpt lat="42.4254417" lon="11.62736"><ele>68.0</ele><time>2026-04-18T11:00:46.757Z</time></trkpt></trkseg></trk></gpx>